<?xml version='1.0' encoding='UTF-8'?><gpx version="1.1" creator="JPX - https://github.com/jenetics/jpx" xmlns="http://www.topografix.com/GPX/1/1"><trk><trkseg><trkpt lat="42.61877948164556" lon="-8.295621786067949"><ele>733.5714285714286</ele><time>2026-04-18T08:51:01Z</time></trkpt><trkpt lat="42.61871965989899" lon="-8.295567171543746"><ele>733.1428571428572</ele><time>2026-04-18T08:51:40Z</time></trkpt><trkpt lat="42.618647856187984" lon="-8.295550862582015"><ele>732.7142857142858</ele><time>2026-04-18T08:51:46Z</time></trkpt><trkpt lat="42.618585335401484" lon="-8.29551278909303"><ele>732.2857142857142</ele><time>2026-04-18T08:53:11.999Z</time></trkpt><trkpt lat="42.618517954382874" lon="-8.295469998574662"><ele>731.8571428571429</ele><time>2026-04-18T08:56:20.998Z</time></trkpt><trkpt lat="42.618454269641525" lon="-8.295474851957282"><ele>731.4285714285714</ele><time>2026-04-18T08:56:27.998Z</time></trkpt><trkpt lat="42.61843552575479" lon="-8.295574555976824"><ele>731.0</ele><time>2026-04-18T08:59:17Z</time></trkpt><trkpt lat="42.61849018549819" lon="-8.295640062389747"><ele>731.75</ele><time>2026-04-18T08:59:20Z</time></trkpt><trkpt lat="42.61856912713676" lon="-8.295781755600636"><ele>732.5</ele><time>2026-04-18T09:00:02.999Z</time></trkpt><trkpt lat="42.61864934866923" lon="-8.295957682965653"><ele>733.25</ele><time>2026-04-18T09:00:03.999Z</time></trkpt><trkpt lat="42.618695549255094" lon="-8.296116433495198"><ele>734.0</ele><time>2026-04-18T09:00:04.999Z</time></trkpt><trkpt lat="42.61871630309171" lon="-8.296239385453157"><ele>734.0</ele><time>2026-04-18T09:00:05.999Z</time></trkpt><trkpt lat="42.618699055319105" lon="-8.296347376925336"><ele>734.0</ele><time>2026-04-18T09:00:07.999Z</time></trkpt><trkpt lat="42.61863721975647" lon="-8.296401061266245"><ele>734.0</ele><time>2026-04-18T09:00:08.999Z</time></trkpt><trkpt lat="42.618548424831026" lon="-8.296543233220747"><ele>734.0</ele><time>2026-04-18T09:00:09.999Z</time></trkpt><trkpt lat="42.61844676302744" lon="-8.296722167661546"><ele>731.25</ele><time>2026-04-18T09:00:10.999Z</time></trkpt><trkpt lat="42.61835083514515" lon="-8.296901711716496"><ele>728.5</ele><time>2026-04-18T09:00:11.999Z</time></trkpt><trkpt lat="42.618290627869015" lon="-8.297026486124016"><ele>725.75</ele><time>2026-04-18T09:00:12.999Z</time></trkpt><trkpt lat="42.618277500171814" lon="-8.297163935895897"><ele>723.0</ele><time>2026-04-18T09:00:13.999Z</time></trkpt><trkpt lat="42.618243678639345" lon="-8.297298478437371"><ele>723.2</ele><time>2026-04-18T09:00:14.999Z</time></trkpt><trkpt lat="42.61818746398943" lon="-8.297396885227645"><ele>723.4</ele><time>2026-04-18T09:00:15.999Z</time></trkpt><trkpt lat="42.618136574829386" lon="-8.297527574330985"><ele>723.6</ele><time>2026-04-18T09:00:16.999Z</time></trkpt><trkpt lat="42.6180236629882" lon="-8.297505360333828"><ele>723.8000000000001</ele><time>2026-04-18T09:00:18.999Z</time></trkpt><trkpt lat="42.61792947123128" lon="-8.29739586354262"><ele>724.0</ele><time>2026-04-18T09:00:19.999Z</time></trkpt><trkpt lat="42.617761101365026" lon="-8.297272522265626"><ele>726.0</ele><time>2026-04-18T09:00:20.999Z</time></trkpt><trkpt lat="42.61762030082918" lon="-8.297171879904987"><ele>728.0</ele><time>2026-04-18T09:00:21.999Z</time></trkpt><trkpt lat="42.6174877712726" lon="-8.29707267323272"><ele>730.0</ele><time>2026-04-18T09:00:22.999Z</time></trkpt><trkpt lat="42.61733638287402" lon="-8.296953070097336"><ele>730.0</ele><time>2026-04-18T09:00:23.999Z</time></trkpt><trkpt lat="42.61718317315424" lon="-8.296833441358203"><ele>730.0</ele><time>2026-04-18T09:00:24.999Z</time></trkpt><trkpt lat="42.616995204494174" lon="-8.296732945585765"><ele>730.0</ele><time>2026-04-18T09:00:25.999Z</time></trkpt><trkpt lat="42.61681341945933" lon="-8.296669768150668"><ele>732.3333333333334</ele><time>2026-04-18T09:00:26.999Z</time></trkpt><trkpt lat="42.61661621687751" lon="-8.296643877383302"><ele>734.6666666666666</ele><time>2026-04-18T09:00:27.999Z</time></trkpt><trkpt lat="42.61642629389543" lon="-8.296630641987328"><ele>737.0</ele><time>2026-04-18T09:00:28.999Z</time></trkpt><trkpt lat="42.61624773215552" lon="-8.296608958421007"><ele>738.0</ele><time>2026-04-18T09:00:29.999Z</time></trkpt><trkpt lat="42.616086695180805" lon="-8.296572671838545"><ele>739.0</ele><time>2026-04-18T09:00:30.999Z</time></trkpt><trkpt lat="42.615985945357686" lon="-8.296475715834422"><ele>740.0</ele><time>2026-04-18T09:00:31.999Z</time></trkpt><trkpt lat="42.61588285438451" lon="-8.296366711003413"><ele>741.0</ele><time>2026-04-18T09:00:32.999Z</time></trkpt><trkpt lat="42.61575210629413" lon="-8.296241458982873"><ele>742.3333333333334</ele><time>2026-04-18T09:00:33.999Z</time></trkpt><trkpt lat="42.61561143159474" lon="-8.296159391281936"><ele>743.6666666666667</ele><time>2026-04-18T09:00:34.999Z</time></trkpt><trkpt lat="42.61546235623689" lon="-8.296142090255392"><ele>745.0</ele><time>2026-04-18T09:00:35.999Z</time></trkpt><trkpt lat="42.61529464876513" lon="-8.29613088385343"><ele>745.0</ele><time>2026-04-18T09:00:36.999Z</time></trkpt><trkpt lat="42.61506986815229" lon="-8.296088491490854"><ele>745.0</ele><time>2026-04-18T09:00:37.999Z</time></trkpt><trkpt lat="42.61483799412469" lon="-8.29602650880675"><ele>745.0</ele><time>2026-04-18T09:00:38.999Z</time></trkpt><trkpt lat="42.61468461116956" lon="-8.296001594720332"><ele>745.0</ele><time>2026-04-18T09:00:39.999Z</time></trkpt><trkpt lat="42.61448293201372" lon="-8.29599526707263"><ele>745.0</ele><time>2026-04-18T09:00:40.999Z</time></trkpt><trkpt lat="42.61428680973956" lon="-8.295987288603158"><ele>744.3333333333334</ele><time>2026-04-18T09:00:41.999Z</time></trkpt><trkpt lat="42.614099080703774" lon="-8.295965800835202"><ele>743.6666666666666</ele><time>2026-04-18T09:00:42.998Z</time></trkpt><trkpt lat="42.6139238662407" lon="-8.29592958708514"><ele>743.0</ele><time>2026-04-18T09:00:43.998Z</time></trkpt><trkpt lat="42.61379177203129" lon="-8.29588043213151"><ele>743.0</ele><time>2026-04-18T09:00:44.998Z</time></trkpt><trkpt lat="42.61366285250734" lon="-8.295757554405345"><ele>743.0</ele><time>2026-04-18T09:00:46Z</time></trkpt><trkpt lat="42.61355975019186" lon="-8.295664263535915"><ele>743.0</ele><time>2026-04-18T09:00:47Z</time></trkpt><trkpt lat="42.61350221134345" lon="-8.29555873293693"><ele>743.0</ele><time>2026-04-18T09:00:48Z</time></trkpt><trkpt lat="42.61342389114453" lon="-8.295432089061425"><ele>744.25</ele><time>2026-04-18T09:00:49Z</time></trkpt><trkpt lat="42.61333815863807" lon="-8.29530589335047"><ele>745.5</ele><time>2026-04-18T09:00:50Z</time></trkpt><trkpt lat="42.61324087534045" lon="-8.295203170058139"><ele>746.75</ele><time>2026-04-18T09:00:51Z</time></trkpt><trkpt lat="42.613110235104074" lon="-8.295155683775768"><ele>748.0</ele><time>2026-04-18T09:00:52Z</time></trkpt><trkpt lat="42.613003132043396" lon="-8.29511645748556"><ele>748.0</ele><time>2026-04-18T09:00:53Z</time></trkpt><trkpt lat="42.61290935342693" lon="-8.295073863358144"><ele>748.0</ele><time>2026-04-18T09:00:54Z</time></trkpt><trkpt lat="42.612826100479744" lon="-8.295003749379125"><ele>748.0</ele><time>2026-04-18T09:00:55Z</time></trkpt><trkpt lat="42.6127246749549" lon="-8.294906780147294"><ele>748.0</ele><time>2026-04-18T09:00:56Z</time></trkpt><trkpt lat="42.61255771117945" lon="-8.29474104208298"><ele>750.75</ele><time>2026-04-18T09:00:57Z</time></trkpt><trkpt lat="42.61242911744231" lon="-8.294606203849343"><ele>753.5</ele><time>2026-04-18T09:00:58Z</time></trkpt><trkpt lat="42.612312310884334" lon="-8.294484538902466"><ele>756.25</ele><time>2026-04-18T09:00:59Z</time></trkpt><trkpt lat="42.61222341521066" lon="-8.294411936604291"><ele>759.0</ele><time>2026-04-18T09:01:00Z</time></trkpt><trkpt lat="42.61214385916473" lon="-8.294332284020351"><ele>759.0</ele><time>2026-04-18T09:01:01Z</time></trkpt><trkpt lat="42.61207071415235" lon="-8.29424383564344"><ele>759.0</ele><time>2026-04-18T09:01:02Z</time></trkpt><trkpt lat="42.61196781426377" lon="-8.294180475115084"><ele>759.0</ele><time>2026-04-18T09:01:03Z</time></trkpt><trkpt lat="42.61188132782698" lon="-8.294153427959554"><ele>759.0</ele><time>2026-04-18T09:01:04Z</time></trkpt><trkpt lat="42.61178825927002" lon="-8.294144277145856"><ele>759.0</ele><time>2026-04-18T09:01:05Z</time></trkpt><trkpt lat="42.6116779211396" lon="-8.294167447658532"><ele>761.5</ele><time>2026-04-18T09:01:06Z</time></trkpt><trkpt lat="42.611569849927086" lon="-8.294180031580845"><ele>764.0</ele><time>2026-04-18T09:01:07Z</time></trkpt><trkpt lat="42.61145856741536" lon="-8.294158461184207"><ele>766.5</ele><time>2026-04-18T09:01:08Z</time></trkpt><trkpt lat="42.61129704240161" lon="-8.294093525587467"><ele>769.0</ele><time>2026-04-18T09:01:09Z</time></trkpt><trkpt lat="42.611112383605565" lon="-8.294048848109778"><ele>770.75</ele><time>2026-04-18T09:01:10Z</time></trkpt><trkpt lat="42.61100090035288" lon="-8.294012787630093"><ele>772.5</ele><time>2026-04-18T09:01:11Z</time></trkpt><trkpt lat="42.61088713466801" lon="-8.293924294918002"><ele>774.25</ele><time>2026-04-18T09:01:12Z</time></trkpt><trkpt lat="42.61076681673584" lon="-8.293809777043874"><ele>776.0</ele><time>2026-04-18T09:01:13Z</time></trkpt><trkpt lat="42.610613870573914" lon="-8.293712731591858"><ele>778.0</ele><time>2026-04-18T09:01:14Z</time></trkpt><trkpt lat="42.61046050008525" lon="-8.293611834867399"><ele>780.0</ele><time>2026-04-18T09:01:15Z</time></trkpt><trkpt lat="42.61031132393711" lon="-8.293499309620874"><ele>782.0</ele><time>2026-04-18T09:01:16Z</time></trkpt><trkpt lat="42.61017130150329" lon="-8.293397322091117"><ele>784.6666666666667</ele><time>2026-04-18T09:01:17Z</time></trkpt><trkpt lat="42.610016810127" lon="-8.293288697514567"><ele>787.3333333333333</ele><time>2026-04-18T09:01:18Z</time></trkpt><trkpt lat="42.609851643041964" lon="-8.293169733659655"><ele>790.0</ele><time>2026-04-18T09:01:19Z</time></trkpt><trkpt lat="42.609674143430155" lon="-8.293064671894813"><ele>792.0</ele><time>2026-04-18T09:01:20Z</time></trkpt><trkpt lat="42.609495057799826" lon="-8.292940731061675"><ele>794.0</ele><time>2026-04-18T09:01:21Z</time></trkpt><trkpt lat="42.60929075924364" lon="-8.292800866430646"><ele>796.0</ele><time>2026-04-18T09:01:22Z</time></trkpt><trkpt lat="42.609075749338" lon="-8.292652360831925"><ele>799.0</ele><time>2026-04-18T09:01:23Z</time></trkpt><trkpt lat="42.60885616804644" lon="-8.292502165166026"><ele>802.0</ele><time>2026-04-18T09:01:24Z</time></trkpt><trkpt lat="42.60867363287851" lon="-8.292374756239457"><ele>803.3333333333333</ele><time>2026-04-18T09:01:25Z</time></trkpt><trkpt lat="42.6085155780349" lon="-8.292266531119756"><ele>804.6666666666667</ele><time>2026-04-18T09:01:26Z</time></trkpt><trkpt lat="42.60838047280719" lon="-8.292176816613873"><ele>806.0</ele><time>2026-04-18T09:01:27Z</time></trkpt><trkpt lat="42.60823915590573" lon="-8.292091600599392"><ele>806.25</ele><time>2026-04-18T09:01:28Z</time></trkpt><trkpt lat="42.60810280989975" lon="-8.292045593557706"><ele>806.5</ele><time>2026-04-18T09:01:29Z</time></trkpt><trkpt lat="42.60799855141379" lon="-8.292047410777805"><ele>806.75</ele><time>2026-04-18T09:01:30Z</time></trkpt><trkpt lat="42.60790048992774" lon="-8.291999301786898"><ele>807.0</ele><time>2026-04-18T09:01:31Z</time></trkpt><trkpt lat="42.607764251056786" lon="-8.291879568621454"><ele>807.0</ele><time>2026-04-18T09:01:32Z</time></trkpt><trkpt lat="42.60759674118141" lon="-8.291728826112495"><ele>807.0</ele><time>2026-04-18T09:01:32.999Z</time></trkpt><trkpt lat="42.60739726497307" lon="-8.291583837095788"><ele>807.0</ele><time>2026-04-18T09:01:33.999Z</time></trkpt><trkpt lat="42.60717890999296" lon="-8.291448695512289"><ele>805.0</ele><time>2026-04-18T09:01:34.999Z</time></trkpt><trkpt lat="42.60698582503991" lon="-8.291344849857511"><ele>803.0</ele><time>2026-04-18T09:01:35.999Z</time></trkpt><trkpt lat="42.606838391464635" lon="-8.29126321054056"><ele>801.0</ele><time>2026-04-18T09:01:36.999Z</time></trkpt><trkpt lat="42.606730024624376" lon="-8.29118202426295"><ele>801.0</ele><time>2026-04-18T09:01:37.999Z</time></trkpt><trkpt lat="42.60663423610688" lon="-8.291075727348721"><ele>801.0</ele><time>2026-04-18T09:01:38.999Z</time></trkpt><trkpt lat="42.606513880559746" lon="-8.290907023350524"><ele>801.0</ele><time>2026-04-18T09:01:39.999Z</time></trkpt><trkpt lat="42.606370296980344" lon="-8.290733044741566"><ele>798.6666666666667</ele><time>2026-04-18T09:01:40.999Z</time></trkpt><trkpt lat="42.60622608401306" lon="-8.290551857990696"><ele>796.3333333333334</ele><time>2026-04-18T09:01:41.999Z</time></trkpt><trkpt lat="42.606101082190584" lon="-8.290378778718228"><ele>794.0</ele><time>2026-04-18T09:01:42.999Z</time></trkpt><trkpt lat="42.60598810622547" lon="-8.2902479025354"><ele>794.0</ele><time>2026-04-18T09:01:43.999Z</time></trkpt><trkpt lat="42.60588061970569" lon="-8.290171962746626"><ele>794.0</ele><time>2026-04-18T09:01:44.999Z</time></trkpt><trkpt lat="42.605723157725585" lon="-8.290084991636737"><ele>794.0</ele><time>2026-04-18T09:01:45.999Z</time></trkpt><trkpt lat="42.605504584097844" lon="-8.290026366401312"><ele>791.0</ele><time>2026-04-18T09:01:46.999Z</time></trkpt><trkpt lat="42.60526781513482" lon="-8.289963285505706"><ele>788.0</ele><time>2026-04-18T09:01:47.999Z</time></trkpt><trkpt lat="42.605049693728986" lon="-8.28990086283932"><ele>788.0</ele><time>2026-04-18T09:01:48.999Z</time></trkpt><trkpt lat="42.60483551968906" lon="-8.289833806538628"><ele>788.0</ele><time>2026-04-18T09:01:49.999Z</time></trkpt><trkpt lat="42.604621653904005" lon="-8.289758751373132"><ele>788.0</ele><time>2026-04-18T09:01:50.999Z</time></trkpt><trkpt lat="42.60442546516523" lon="-8.289694090176491"><ele>786.25</ele><time>2026-04-18T09:01:51.999Z</time></trkpt><trkpt lat="42.60427247977942" lon="-8.289635357253943"><ele>784.5</ele><time>2026-04-18T09:01:52.999Z</time></trkpt><trkpt lat="42.60414170195966" lon="-8.289565554948918"><ele>782.75</ele><time>2026-04-18T09:01:53.999Z</time></trkpt><trkpt lat="42.60401643114182" lon="-8.289463828725166"><ele>781.0</ele><time>2026-04-18T09:01:54.999Z</time></trkpt><trkpt lat="42.60390489510813" lon="-8.28936208594257"><ele>781.0</ele><time>2026-04-18T09:01:55.999Z</time></trkpt><trkpt lat="42.603805283661835" lon="-8.289261889469307"><ele>781.0</ele><time>2026-04-18T09:01:56.999Z</time></trkpt><trkpt lat="42.60372894025437" lon="-8.289136472052098"><ele>781.0</ele><time>2026-04-18T09:01:57.999Z</time></trkpt><trkpt lat="42.60365627092049" lon="-8.28904471653044"><ele>781.0</ele><time>2026-04-18T09:01:58.999Z</time></trkpt><trkpt lat="42.60357410018042" lon="-8.288999415818148"><ele>781.0</ele><time>2026-04-18T09:01:59.999Z</time></trkpt><trkpt lat="42.603498288748256" lon="-8.288969847241558"><ele>781.0</ele><time>2026-04-18T09:02:00.999Z</time></trkpt><trkpt lat="42.60347720426802" lon="-8.288837163515572"><ele>781.0</ele><time>2026-04-18T09:02:02.999Z</time></trkpt><trkpt lat="42.6035079636695" lon="-8.288747040397624"><ele>781.0</ele><time>2026-04-18T09:02:03.999Z</time></trkpt><trkpt lat="42.603537955396405" lon="-8.288590588832493"><ele>781.0</ele><time>2026-04-18T09:02:04.999Z</time></trkpt><trkpt lat="42.60360761817778" lon="-8.288434443531253"><ele>781.0</ele><time>2026-04-18T09:02:05.999Z</time></trkpt><trkpt lat="42.603707183080644" lon="-8.288350748162625"><ele>781.0</ele><time>2026-04-18T09:02:06.999Z</time></trkpt><trkpt lat="42.60382084932729" lon="-8.288293332949777"><ele>781.0</ele><time>2026-04-18T09:02:07.999Z</time></trkpt><trkpt lat="42.60391893032284" lon="-8.288268912844488"><ele>781.0</ele><time>2026-04-18T09:02:08.999Z</time></trkpt><trkpt lat="42.60394727255876" lon="-8.288188547785952"><ele>781.0</ele><time>2026-04-18T09:02:09.999Z</time></trkpt><trkpt lat="42.6040149639521" lon="-8.28815511891893"><ele>781.0</ele><time>2026-04-18T09:02:10.999Z</time></trkpt><trkpt lat="42.60415519205194" lon="-8.288246276409444"><ele>781.0</ele><time>2026-04-18T09:02:12.999Z</time></trkpt><trkpt lat="42.60424687868121" lon="-8.288283804068925"><ele>781.0</ele><time>2026-04-18T09:02:13.999Z</time></trkpt><trkpt lat="42.60442261883875" lon="-8.288348988288844"><ele>781.0</ele><time>2026-04-18T09:02:14.999Z</time></trkpt><trkpt lat="42.60458275855488" lon="-8.288325643716794"><ele>781.0</ele><time>2026-04-18T09:02:15.999Z</time></trkpt><trkpt lat="42.60474289414851" lon="-8.288253937898993"><ele>781.0</ele><time>2026-04-18T09:02:16.999Z</time></trkpt><trkpt lat="42.604872276831074" lon="-8.288172272477604"><ele>781.0</ele><time>2026-04-18T09:02:17.999Z</time></trkpt><trkpt lat="42.60500227664166" lon="-8.288097072712894"><ele>781.0</ele><time>2026-04-18T09:02:18.999Z</time></trkpt><trkpt lat="42.60518003730918" lon="-8.287990016437224"><ele>784.5</ele><time>2026-04-18T09:02:19.999Z</time></trkpt><trkpt lat="42.60541032905005" lon="-8.287905735670433"><ele>788.0</ele><time>2026-04-18T09:02:20.999Z</time></trkpt><trkpt lat="42.60563346412502" lon="-8.287793632437149"><ele>788.0</ele><time>2026-04-18T09:02:21.999Z</time></trkpt><trkpt lat="42.605846088459316" lon="-8.287643737739545"><ele>788.0</ele><time>2026-04-18T09:02:22.999Z</time></trkpt><trkpt lat="42.60605624559357" lon="-8.287504452944715"><ele>785.0</ele><time>2026-04-18T09:02:23.999Z</time></trkpt><trkpt lat="42.60627109863287" lon="-8.287366765939447"><ele>782.0</ele><time>2026-04-18T09:02:24.999Z</time></trkpt><trkpt lat="42.60647523415336" lon="-8.287229951560148"><ele>784.3333333333334</ele><time>2026-04-18T09:02:25.999Z</time></trkpt><trkpt lat="42.6066714368007" lon="-8.2870910114045"><ele>786.6666666666667</ele><time>2026-04-18T09:02:26.999Z</time></trkpt><trkpt lat="42.606856962182576" lon="-8.286954708230647"><ele>789.0</ele><time>2026-04-18T09:02:27.999Z</time></trkpt><trkpt lat="42.60700462110033" lon="-8.286859064564792"><ele>789.0</ele><time>2026-04-18T09:02:28.999Z</time></trkpt><trkpt lat="42.607101579772134" lon="-8.286832801105435"><ele>789.0</ele><time>2026-04-18T09:02:29.999Z</time></trkpt><trkpt lat="42.60718753037842" lon="-8.28683050340843"><ele>789.0</ele><time>2026-04-18T09:02:30.999Z</time></trkpt><trkpt lat="42.607308996284324" lon="-8.286806470614579"><ele>789.0</ele><time>2026-04-18T09:02:31.999Z</time></trkpt><trkpt lat="42.607439754222774" lon="-8.28679765597559"><ele>789.0</ele><time>2026-04-18T09:02:32.999Z</time></trkpt><trkpt lat="42.607561943322935" lon="-8.286829994066736"><ele>789.0</ele><time>2026-04-18T09:02:33.999Z</time></trkpt><trkpt lat="42.60766146398648" lon="-8.286876132537182"><ele>789.0</ele><time>2026-04-18T09:02:34.999Z</time></trkpt><trkpt lat="42.60773062710592" lon="-8.286946295445857"><ele>789.0</ele><time>2026-04-18T09:02:35.999Z</time></trkpt><trkpt lat="42.60782883052273" lon="-8.286997627920595"><ele>789.0</ele><time>2026-04-18T09:02:36.999Z</time></trkpt><trkpt lat="42.60792928989147" lon="-8.2870059364124"><ele>789.0</ele><time>2026-04-18T09:02:37.999Z</time></trkpt><trkpt lat="42.60802248748214" lon="-8.286975164979088"><ele>788.0</ele><time>2026-04-18T09:02:38.999Z</time></trkpt><trkpt lat="42.60808621346626" lon="-8.286934425263654"><ele>787.0</ele><time>2026-04-18T09:02:39.999Z</time></trkpt><trkpt lat="42.60802893520493" lon="-8.2868005777972"><ele>786.0</ele><time>2026-04-18T09:02:41.999Z</time></trkpt><trkpt lat="42.607991856938895" lon="-8.286716986276513"><ele>785.0</ele><time>2026-04-18T09:02:42.999Z</time></trkpt><trkpt lat="42.607929438053596" lon="-8.286622229576096"><ele>784.0</ele><time>2026-04-18T09:02:43.999Z</time></trkpt><trkpt lat="42.607869395192864" lon="-8.286512455679304"><ele>786.75</ele><time>2026-04-18T09:02:44.999Z</time></trkpt><trkpt lat="42.6078090115945" lon="-8.286384583484098"><ele>789.5</ele><time>2026-04-18T09:02:45.999Z</time></trkpt><trkpt lat="42.60774811978803" lon="-8.286252756265919"><ele>792.25</ele><time>2026-04-18T09:02:46.999Z</time></trkpt><trkpt lat="42.60767669501399" lon="-8.286126448199317"><ele>795.0</ele><time>2026-04-18T09:02:47.999Z</time></trkpt><trkpt lat="42.60760175490419" lon="-8.286020787687363"><ele>795.0</ele><time>2026-04-18T09:02:48.999Z</time></trkpt><trkpt lat="42.60752470854628" lon="-8.285921521745733"><ele>795.0</ele><time>2026-04-18T09:02:49.999Z</time></trkpt><trkpt lat="42.60744901452616" lon="-8.285824066619202"><ele>795.0</ele><time>2026-04-18T09:02:51Z</time></trkpt><trkpt lat="42.60736743646175" lon="-8.285733564822904"><ele>795.0</ele><time>2026-04-18T09:02:52Z</time></trkpt><trkpt lat="42.607278120779156" lon="-8.285647249210905"><ele>795.0</ele><time>2026-04-18T09:02:53Z</time></trkpt><trkpt lat="42.60718644846252" lon="-8.285564684653446"><ele>796.25</ele><time>2026-04-18T09:02:54Z</time></trkpt><trkpt lat="42.60709251464574" lon="-8.285480087052587"><ele>797.5</ele><time>2026-04-18T09:02:55Z</time></trkpt><trkpt lat="42.60700283855283" lon="-8.285392001983157"><ele>798.75</ele><time>2026-04-18T09:02:56Z</time></trkpt><trkpt lat="42.60691568179894" lon="-8.285299923670074"><ele>800.0</ele><time>2026-04-18T09:02:57Z</time></trkpt><trkpt lat="42.60682861594221" lon="-8.285195959006401"><ele>801.75</ele><time>2026-04-18T09:02:58Z</time></trkpt><trkpt lat="42.60674363002516" lon="-8.285076893792894"><ele>803.5</ele><time>2026-04-18T09:02:59Z</time></trkpt><trkpt lat="42.60666184686727" lon="-8.284969854784393"><ele>805.25</ele><time>2026-04-18T09:03:00Z</time></trkpt><trkpt lat="42.60658353240122" lon="-8.28484863359611"><ele>807.0</ele><time>2026-04-18T09:03:01Z</time></trkpt><trkpt lat="42.60650805858463" lon="-8.28471944837649"><ele>807.25</ele><time>2026-04-18T09:03:02Z</time></trkpt><trkpt lat="42.60643810636854" lon="-8.28459594685813"><ele>807.5</ele><time>2026-04-18T09:03:03Z</time></trkpt><trkpt lat="42.6063724078795" lon="-8.284462153475399"><ele>807.75</ele><time>2026-04-18T09:03:04Z</time></trkpt><trkpt lat="42.6063127308812" lon="-8.284319102362822"><ele>808.0</ele><time>2026-04-18T09:03:05Z</time></trkpt><trkpt lat="42.606254169906" lon="-8.284167089805317"><ele>808.0</ele><time>2026-04-18T09:03:06Z</time></trkpt><trkpt lat="42.60619786645068" lon="-8.284021205991346"><ele>808.0</ele><time>2026-04-18T09:03:07Z</time></trkpt><trkpt lat="42.60613994767381" lon="-8.283880168392109"><ele>808.0</ele><time>2026-04-18T09:03:08Z</time></trkpt><trkpt lat="42.606084698695994" lon="-8.283741225437172"><ele>808.0</ele><time>2026-04-18T09:03:09Z</time></trkpt><trkpt lat="42.60602595224479" lon="-8.283605233359092"><ele>808.75</ele><time>2026-04-18T09:03:10Z</time></trkpt><trkpt lat="42.60596944442801" lon="-8.28346954728924"><ele>809.5</ele><time>2026-04-18T09:03:11Z</time></trkpt><trkpt lat="42.6059149859662" lon="-8.283334603398218"><ele>810.25</ele><time>2026-04-18T09:03:12Z</time></trkpt><trkpt lat="42.60585878645527" lon="-8.28319439224155"><ele>811.0</ele><time>2026-04-18T09:03:13Z</time></trkpt><trkpt lat="42.60580195685439" lon="-8.283048679492724"><ele>812.5</ele><time>2026-04-18T09:03:14Z</time></trkpt><trkpt lat="42.60574703964649" lon="-8.282902256970988"><ele>814.0</ele><time>2026-04-18T09:03:15Z</time></trkpt><trkpt lat="42.605688722996724" lon="-8.282753176215524"><ele>815.5</ele><time>2026-04-18T09:03:16Z</time></trkpt><trkpt lat="42.605632867346" lon="-8.282613451235015"><ele>817.0</ele><time>2026-04-18T09:03:17Z</time></trkpt><trkpt lat="42.60557910285404" lon="-8.282488474617875"><ele>817.0</ele><time>2026-04-18T09:03:18Z</time></trkpt><trkpt lat="42.60552326725701" lon="-8.282348762681444"><ele>817.0</ele><time>2026-04-18T09:03:19Z</time></trkpt><trkpt lat="42.60546710740367" lon="-8.2822105231024"><ele>817.0</ele><time>2026-04-18T09:03:20Z</time></trkpt><trkpt lat="42.605410005015926" lon="-8.282086462766369"><ele>817.0</ele><time>2026-04-18T09:03:21Z</time></trkpt><trkpt lat="42.60532493994564" lon="-8.281957344775668"><ele>816.75</ele><time>2026-04-18T09:03:22Z</time></trkpt><trkpt lat="42.60525100442473" lon="-8.281830140440501"><ele>816.5</ele><time>2026-04-18T09:03:23Z</time></trkpt><trkpt lat="42.605176965217936" lon="-8.281703058852878"><ele>816.25</ele><time>2026-04-18T09:03:24Z</time></trkpt><trkpt lat="42.60510400886879" lon="-8.28157324774765"><ele>816.0</ele><time>2026-04-18T09:03:25Z</time></trkpt><trkpt lat="42.60502698204494" lon="-8.281440320446857"><ele>817.75</ele><time>2026-04-18T09:03:26Z</time></trkpt><trkpt lat="42.60494992655342" lon="-8.281311448652431"><ele>819.5</ele><time>2026-04-18T09:03:27Z</time></trkpt><trkpt lat="42.60486818384671" lon="-8.281183143261602"><ele>821.25</ele><time>2026-04-18T09:03:28Z</time></trkpt><trkpt lat="42.60478099474345" lon="-8.281063595545612"><ele>823.0</ele><time>2026-04-18T09:03:29Z</time></trkpt><trkpt lat="42.60468919403697" lon="-8.280962247721176"><ele>823.0</ele><time>2026-04-18T09:03:30Z</time></trkpt><trkpt lat="42.60459423507429" lon="-8.28087324804727"><ele>823.0</ele><time>2026-04-18T09:03:31Z</time></trkpt><trkpt lat="42.60449555513891" lon="-8.28078445041717"><ele>823.0</ele><time>2026-04-18T09:03:32Z</time></trkpt><trkpt lat="42.604396982452585" lon="-8.280695575683135"><ele>823.0</ele><time>2026-04-18T09:03:33Z</time></trkpt><trkpt lat="42.604294084757605" lon="-8.280604585206442"><ele>823.5</ele><time>2026-04-18T09:03:34Z</time></trkpt><trkpt lat="42.60419291717144" lon="-8.280513331871042"><ele>824.0</ele><time>2026-04-18T09:03:35Z</time></trkpt><trkpt lat="42.60409539999211" lon="-8.280427931393566"><ele>824.5</ele><time>2026-04-18T09:03:36Z</time></trkpt><trkpt lat="42.60398137635985" lon="-8.280335643281397"><ele>825.0</ele><time>2026-04-18T09:03:37Z</time></trkpt><trkpt lat="42.60385225984041" lon="-8.280212085238011"><ele>825.0</ele><time>2026-04-18T09:03:38Z</time></trkpt><trkpt lat="42.603715638961596" lon="-8.280083558577914"><ele>825.0</ele><time>2026-04-18T09:03:39Z</time></trkpt><trkpt lat="42.60362812434107" lon="-8.27999091540469"><ele>825.0</ele><time>2026-04-18T09:03:40Z</time></trkpt><trkpt lat="42.60355838794986" lon="-8.279885809385467"><ele>825.0</ele><time>2026-04-18T09:03:41Z</time></trkpt><trkpt lat="42.603496459939315" lon="-8.27976914390904"><ele>823.5</ele><time>2026-04-18T09:03:42Z</time></trkpt><trkpt lat="42.60341230004257" lon="-8.27967516395783"><ele>822.0</ele><time>2026-04-18T09:03:42.999Z</time></trkpt><trkpt lat="42.603277235043635" lon="-8.27959143166228"><ele>820.5</ele><time>2026-04-18T09:03:43.999Z</time></trkpt><trkpt lat="42.60314903764281" lon="-8.279453110481745"><ele>819.0</ele><time>2026-04-18T09:03:44.999Z</time></trkpt><trkpt lat="42.60307565400079" lon="-8.27932572989203"><ele>819.0</ele><time>2026-04-18T09:03:45.999Z</time></trkpt><trkpt lat="42.6030627902927" lon="-8.279230855704785"><ele>819.0</ele><time>2026-04-18T09:03:46.999Z</time></trkpt><trkpt lat="42.603130018586256" lon="-8.279154216997561"><ele>819.0</ele><time>2026-04-18T09:03:48.999Z</time></trkpt><trkpt lat="42.60321352794299" lon="-8.279147580105981"><ele>819.0</ele><time>2026-04-18T09:03:49.999Z</time></trkpt><trkpt lat="42.60330152672942" lon="-8.279196878852163"><ele>819.0</ele><time>2026-04-18T09:03:50.999Z</time></trkpt><trkpt lat="42.60341209406278" lon="-8.279271637189058"><ele>819.0</ele><time>2026-04-18T09:03:51.999Z</time></trkpt><trkpt lat="42.60354861077331" lon="-8.279352998667374"><ele>819.0</ele><time>2026-04-18T09:03:52.999Z</time></trkpt><trkpt lat="42.60374832505767" lon="-8.279437286846415"><ele>819.0</ele><time>2026-04-18T09:03:53.999Z</time></trkpt><trkpt lat="42.60393404952898" lon="-8.279488360320633"><ele>822.25</ele><time>2026-04-18T09:03:54.999Z</time></trkpt><trkpt lat="42.60408663418078" lon="-8.279499439755051"><ele>825.5</ele><time>2026-04-18T09:03:55.999Z</time></trkpt><trkpt lat="42.604219919353156" lon="-8.279481709942479"><ele>828.75</ele><time>2026-04-18T09:03:56.999Z</time></trkpt><trkpt lat="42.60434059312042" lon="-8.279439277619247"><ele>832.0</ele><time>2026-04-18T09:03:57.999Z</time></trkpt><trkpt lat="42.604428311960014" lon="-8.279366631351971"><ele>834.75</ele><time>2026-04-18T09:03:58.999Z</time></trkpt><trkpt lat="42.60451461289835" lon="-8.279257681025415"><ele>837.5</ele><time>2026-04-18T09:03:59.999Z</time></trkpt><trkpt lat="42.6045958088542" lon="-8.279096739086604"><ele>840.25</ele><time>2026-04-18T09:04:00.999Z</time></trkpt><trkpt lat="42.604702587803274" lon="-8.278928604506453"><ele>843.0</ele><time>2026-04-18T09:04:01.999Z</time></trkpt><trkpt lat="42.60479250912763" lon="-8.278732606523354"><ele>845.0</ele><time>2026-04-18T09:04:02.999Z</time></trkpt><trkpt lat="42.60486907564072" lon="-8.278485655677201"><ele>847.0</ele><time>2026-04-18T09:04:03.999Z</time></trkpt><trkpt lat="42.604928405551256" lon="-8.27822116660473"><ele>849.0</ele><time>2026-04-18T09:04:04.999Z</time></trkpt><trkpt lat="42.60496579578458" lon="-8.277968759378055"><ele>850.6666666666667</ele><time>2026-04-18T09:04:05.999Z</time></trkpt><trkpt lat="42.60500616590926" lon="-8.27772085747439"><ele>852.3333333333334</ele><time>2026-04-18T09:04:06.999Z</time></trkpt><trkpt lat="42.60506484072093" lon="-8.27744400199802"><ele>854.0</ele><time>2026-04-18T09:04:07.999Z</time></trkpt><trkpt lat="42.605127915153446" lon="-8.277169648943499"><ele>855.3333333333334</ele><time>2026-04-18T09:04:08.999Z</time></trkpt><trkpt lat="42.60520816125721" lon="-8.27689199895936"><ele>856.6666666666667</ele><time>2026-04-18T09:04:09.999Z</time></trkpt><trkpt lat="42.60528520770659" lon="-8.276645044136277"><ele>858.0</ele><time>2026-04-18T09:04:10.999Z</time></trkpt><trkpt lat="42.6053638878592" lon="-8.276449614552153"><ele>860.3333333333333</ele><time>2026-04-18T09:04:11.999Z</time></trkpt><trkpt lat="42.60545245994423" lon="-8.276214990348903"><ele>862.6666666666666</ele><time>2026-04-18T09:04:12.999Z</time></trkpt><trkpt lat="42.60551600056452" lon="-8.275921758598066"><ele>865.0</ele><time>2026-04-18T09:04:13.999Z</time></trkpt><trkpt lat="42.60556393048667" lon="-8.275624874099929"><ele>868.0</ele><time>2026-04-18T09:04:14.999Z</time></trkpt><trkpt lat="42.605613244197244" lon="-8.275315004817308"><ele>871.0</ele><time>2026-04-18T09:04:15.999Z</time></trkpt><trkpt lat="42.60567069724258" lon="-8.275003020504615"><ele>871.0</ele><time>2026-04-18T09:04:16.999Z</time></trkpt><trkpt lat="42.60572215538065" lon="-8.274721131815284"><ele>871.0</ele><time>2026-04-18T09:04:17.999Z</time></trkpt><trkpt lat="42.605760938360824" lon="-8.27452269591532"><ele>871.0</ele><time>2026-04-18T09:04:18.999Z</time></trkpt><trkpt lat="42.60578487680717" lon="-8.27442571041645"><ele>871.0</ele><time>2026-04-18T09:04:19.999Z</time></trkpt><trkpt lat="42.60589387913229" lon="-8.274324816453058"><ele>871.0</ele><time>2026-04-18T09:04:21.999Z</time></trkpt><trkpt lat="42.60599236664899" lon="-8.274270712709837"><ele>871.0</ele><time>2026-04-18T09:04:22.999Z</time></trkpt><trkpt lat="42.60610076808726" lon="-8.274185446319144"><ele>871.0</ele><time>2026-04-18T09:04:23.999Z</time></trkpt><trkpt lat="42.606173619975685" lon="-8.274073477203634"><ele>871.0</ele><time>2026-04-18T09:04:24.999Z</time></trkpt><trkpt lat="42.60621234818238" lon="-8.273919928963192"><ele>872.6666666666666</ele><time>2026-04-18T09:04:25.999Z</time></trkpt><trkpt lat="42.60622575347773" lon="-8.273730955923938"><ele>874.3333333333333</ele><time>2026-04-18T09:04:26.999Z</time></trkpt><trkpt lat="42.60625729254029" lon="-8.273508688077719"><ele>876.0</ele><time>2026-04-18T09:04:27.999Z</time></trkpt><trkpt lat="42.60628777480689" lon="-8.273259208895881"><ele>878.3333333333333</ele><time>2026-04-18T09:04:28.999Z</time></trkpt><trkpt lat="42.60630749611075" lon="-8.272973152706143"><ele>880.6666666666666</ele><time>2026-04-18T09:04:29.999Z</time></trkpt><trkpt lat="42.6063209180627" lon="-8.272657658224192"><ele>883.0</ele><time>2026-04-18T09:04:30.999Z</time></trkpt><trkpt lat="42.60632315245396" lon="-8.272354372755004"><ele>885.3333333333333</ele><time>2026-04-18T09:04:31.999Z</time></trkpt><trkpt lat="42.60632323286416" lon="-8.272047274500306"><ele>887.6666666666667</ele><time>2026-04-18T09:04:32.999Z</time></trkpt><trkpt lat="42.606312664046015" lon="-8.27178130773289"><ele>890.0</ele><time>2026-04-18T09:04:33.999Z</time></trkpt><trkpt lat="42.606282222196825" lon="-8.271541351331637"><ele>891.3333333333334</ele><time>2026-04-18T09:04:34.999Z</time></trkpt><trkpt lat="42.606226083112816" lon="-8.271326416515782"><ele>892.6666666666667</ele><time>2026-04-18T09:04:35.999Z</time></trkpt><trkpt lat="42.606182777453434" lon="-8.271131237463493"><ele>894.0</ele><time>2026-04-18T09:04:36.999Z</time></trkpt><trkpt lat="42.60616988843061" lon="-8.270927713716372"><ele>894.0</ele><time>2026-04-18T09:04:37.999Z</time></trkpt><trkpt lat="42.606176332316295" lon="-8.270715854937967"><ele>894.0</ele><time>2026-04-18T09:04:38.999Z</time></trkpt><trkpt lat="42.606182934743536" lon="-8.270498357291409"><ele>894.0</ele><time>2026-04-18T09:04:39.999Z</time></trkpt><trkpt lat="42.60620255640857" lon="-8.270262663194952"><ele>895.0</ele><time>2026-04-18T09:04:40.999Z</time></trkpt><trkpt lat="42.606217968327826" lon="-8.270004498369236"><ele>896.0</ele><time>2026-04-18T09:04:41.999Z</time></trkpt><trkpt lat="42.60625073101232" lon="-8.269783080957128"><ele>897.0</ele><time>2026-04-18T09:04:42.999Z</time></trkpt><trkpt lat="42.60636086480299" lon="-8.26960507877509"><ele>900.3333333333333</ele><time>2026-04-18T09:04:43.999Z</time></trkpt><trkpt lat="42.60645799827218" lon="-8.269408270965602"><ele>903.6666666666666</ele><time>2026-04-18T09:04:44.999Z</time></trkpt><trkpt lat="42.606569970141685" lon="-8.26909615956482"><ele>907.0</ele><time>2026-04-18T09:04:45.999Z</time></trkpt><trkpt lat="42.60669262981149" lon="-8.26885972328487"><ele>911.3333333333333</ele><time>2026-04-18T09:04:46.999Z</time></trkpt><trkpt lat="42.60681969669742" lon="-8.268612266169885"><ele>915.6666666666667</ele><time>2026-04-18T09:04:47.999Z</time></trkpt><trkpt lat="42.606922085622074" lon="-8.268378385856431"><ele>920.0</ele><time>2026-04-18T09:04:48.999Z</time></trkpt><trkpt lat="42.60703565120877" lon="-8.268105441356585"><ele>922.6666666666667</ele><time>2026-04-18T09:04:49.999Z</time></trkpt><trkpt lat="42.607104901659135" lon="-8.267944521392769"><ele>925.3333333333333</ele><time>2026-04-18T09:04:50.999Z</time></trkpt><trkpt lat="42.60719220231717" lon="-8.26777139921778"><ele>928.0</ele><time>2026-04-18T09:04:51.999Z</time></trkpt><trkpt lat="42.60726449094108" lon="-8.267577301505437"><ele>928.0</ele><time>2026-04-18T09:04:52.999Z</time></trkpt><trkpt lat="42.60730753551075" lon="-8.267424518309127"><ele>928.0</ele><time>2026-04-18T09:04:53.999Z</time></trkpt><trkpt lat="42.60733804513148" lon="-8.267299941055692"><ele>928.0</ele><time>2026-04-18T09:04:54.999Z</time></trkpt><trkpt lat="42.60738738297749" lon="-8.267209094543484"><ele>928.0</ele><time>2026-04-18T09:04:56Z</time></trkpt><trkpt lat="42.60743774976504" lon="-8.267091041986818"><ele>928.0</ele><time>2026-04-18T09:04:57Z</time></trkpt><trkpt lat="42.60747087663377" lon="-8.266995827809808"><ele>927.6666666666666</ele><time>2026-04-18T09:04:58Z</time></trkpt><trkpt lat="42.607516918438506" lon="-8.26689972363586"><ele>927.3333333333333</ele><time>2026-04-18T09:04:59Z</time></trkpt><trkpt lat="42.60759364488825" lon="-8.266865700255842"><ele>927.0</ele><time>2026-04-18T09:05:00Z</time></trkpt><trkpt lat="42.60766381141387" lon="-8.266823238756485"><ele>926.6666666666667</ele><time>2026-04-18T09:05:01Z</time></trkpt><trkpt lat="42.6077344638088" lon="-8.266771814771078"><ele>926.3333333333334</ele><time>2026-04-18T09:05:02Z</time></trkpt><trkpt lat="42.607740247966284" lon="-8.266652377931608"><ele>926.0</ele><time>2026-04-18T09:05:03Z</time></trkpt><trkpt lat="42.607717528912055" lon="-8.266488995970539"><ele>925.0</ele><time>2026-04-18T09:05:04Z</time></trkpt><trkpt lat="42.60769499692114" lon="-8.266293671447501"><ele>924.0</ele><time>2026-04-18T09:05:05Z</time></trkpt><trkpt lat="42.60767748910957" lon="-8.266077108546419"><ele>923.0</ele><time>2026-04-18T09:05:06Z</time></trkpt><trkpt lat="42.607685968233405" lon="-8.26588467397769"><ele>922.0</ele><time>2026-04-18T09:05:07Z</time></trkpt><trkpt lat="42.60770856650443" lon="-8.265714561874566"><ele>920.3333333333333</ele><time>2026-04-18T09:05:08Z</time></trkpt><trkpt lat="42.607735338573335" lon="-8.265557950595671"><ele>918.6666666666666</ele><time>2026-04-18T09:05:09Z</time></trkpt><trkpt lat="42.607757085197036" lon="-8.265433180977658"><ele>917.0</ele><time>2026-04-18T09:05:10Z</time></trkpt><trkpt lat="42.60778816904845" lon="-8.265341307620059"><ele>915.3333333333333</ele><time>2026-04-18T09:05:11Z</time></trkpt><trkpt lat="42.607834995035226" lon="-8.265271481617065"><ele>913.6666666666666</ele><time>2026-04-18T09:05:13Z</time></trkpt><trkpt lat="42.60790707771352" lon="-8.265280339860972"><ele>912.0</ele><time>2026-04-18T09:05:15Z</time></trkpt><trkpt lat="42.60797901635467" lon="-8.265347687917739"><ele>910.6666666666667</ele><time>2026-04-18T09:05:16Z</time></trkpt><trkpt lat="42.60808733573629" lon="-8.26538750400233"><ele>909.3333333333334</ele><time>2026-04-18T09:05:17Z</time></trkpt><trkpt lat="42.60817073622921" lon="-8.26541845406802"><ele>908.0</ele><time>2026-04-18T09:05:18Z</time></trkpt><trkpt lat="42.60842242829159" lon="-8.265398944150418"><ele>908.0</ele><time>2026-04-18T09:05:19Z</time></trkpt><trkpt lat="42.6085887879494" lon="-8.265378966012456"><ele>908.0</ele><time>2026-04-18T09:05:20Z</time></trkpt><trkpt lat="42.60873708239397" lon="-8.26533808127601"><ele>908.0</ele><time>2026-04-18T09:05:21Z</time></trkpt><trkpt lat="42.60887340631339" lon="-8.265279590499093"><ele>906.0</ele><time>2026-04-18T09:05:22Z</time></trkpt><trkpt lat="42.608979756306184" lon="-8.265194358125852"><ele>904.0</ele><time>2026-04-18T09:05:23Z</time></trkpt><trkpt lat="42.609061212751115" lon="-8.265110975779432"><ele>902.0</ele><time>2026-04-18T09:05:24Z</time></trkpt><trkpt lat="42.609129999008914" lon="-8.265014819726424"><ele>900.0</ele><time>2026-04-18T09:05:25Z</time></trkpt><trkpt lat="42.60916303168203" lon="-8.264927361496394"><ele>898.0</ele><time>2026-04-18T09:05:26Z</time></trkpt><trkpt lat="42.609198782322856" lon="-8.264808916965851"><ele>897.3333333333333</ele><time>2026-04-18T09:05:27Z</time></trkpt><trkpt lat="42.60922471154619" lon="-8.264681730725691"><ele>896.6666666666666</ele><time>2026-04-18T09:05:28Z</time></trkpt><trkpt lat="42.609227764411635" lon="-8.264586615390849"><ele>896.0</ele><time>2026-04-18T09:05:29Z</time></trkpt><trkpt lat="42.609206595278664" lon="-8.264482647899843"><ele>895.3333333333333</ele><time>2026-04-18T09:05:30Z</time></trkpt><trkpt lat="42.60915392730645" lon="-8.264405272116633"><ele>894.6666666666666</ele><time>2026-04-18T09:05:31Z</time></trkpt><trkpt lat="42.60907508330451" lon="-8.264327153224956"><ele>894.0</ele><time>2026-04-18T09:05:32Z</time></trkpt><trkpt lat="42.60898131772774" lon="-8.264247477151628"><ele>894.0</ele><time>2026-04-18T09:05:33Z</time></trkpt><trkpt lat="42.6088931474781" lon="-8.264216656084479"><ele>894.0000000000001</ele><time>2026-04-18T09:05:34Z</time></trkpt><trkpt lat="42.608795183767946" lon="-8.26417601236861"><ele>894.0000000000001</ele><time>2026-04-18T09:05:35Z</time></trkpt><trkpt lat="42.60869706804875" lon="-8.264136256864223"><ele>894.0</ele><time>2026-04-18T09:05:36Z</time></trkpt><trkpt lat="42.60855427725579" lon="-8.264060858873579"><ele>894.0</ele><time>2026-04-18T09:05:37Z</time></trkpt><trkpt lat="42.60835859647516" lon="-8.26396588916058"><ele>887.6666666666667</ele><time>2026-04-18T09:05:38Z</time></trkpt><trkpt lat="42.608201828426786" lon="-8.263884576828207"><ele>881.3333333333334</ele><time>2026-04-18T09:05:39Z</time></trkpt><trkpt lat="42.60806863690165" lon="-8.263830838613883"><ele>875.0</ele><time>2026-04-18T09:05:40Z</time></trkpt><trkpt lat="42.6079115693055" lon="-8.26377055497351"><ele>875.5</ele><time>2026-04-18T09:05:41Z</time></trkpt><trkpt lat="42.60775348898987" lon="-8.263725369916914"><ele>876.0</ele><time>2026-04-18T09:05:42Z</time></trkpt><trkpt lat="42.60761486103748" lon="-8.263667745073205"><ele>876.5</ele><time>2026-04-18T09:05:43Z</time></trkpt><trkpt lat="42.60749357421706" lon="-8.26359605199251"><ele>877.0</ele><time>2026-04-18T09:05:44Z</time></trkpt><trkpt lat="42.60739387251779" lon="-8.263502538042431"><ele>877.0</ele><time>2026-04-18T09:05:45Z</time></trkpt><trkpt lat="42.607312803831476" lon="-8.263405428968435"><ele>877.0</ele><time>2026-04-18T09:05:46Z</time></trkpt><trkpt lat="42.60718618112618" lon="-8.263326535630885"><ele>877.0</ele><time>2026-04-18T09:05:47Z</time></trkpt><trkpt lat="42.60702563761916" lon="-8.2632542091684"><ele>877.0</ele><time>2026-04-18T09:05:48Z</time></trkpt><trkpt lat="42.60687006317541" lon="-8.263175285686827"><ele>870.5</ele><time>2026-04-18T09:05:49Z</time></trkpt><trkpt lat="42.60674848478337" lon="-8.26309396932208"><ele>864.0</ele><time>2026-04-18T09:05:50Z</time></trkpt><trkpt lat="42.60662307220485" lon="-8.263018660688447"><ele>857.5</ele><time>2026-04-18T09:05:51Z</time></trkpt><trkpt lat="42.60647758299036" lon="-8.262970031292827"><ele>851.0</ele><time>2026-04-18T09:05:52Z</time></trkpt><trkpt lat="42.60633965485421" lon="-8.262942621516906"><ele>851.0</ele><time>2026-04-18T09:05:53Z</time></trkpt><trkpt lat="42.60624405940563" lon="-8.262938711597235"><ele>851.0</ele><time>2026-04-18T09:05:53.999Z</time></trkpt><trkpt lat="42.60616651966004" lon="-8.262909893534513"><ele>851.0</ele><time>2026-04-18T09:05:54.999Z</time></trkpt><trkpt lat="42.606084181251944" lon="-8.262844108074363"><ele>851.0</ele><time>2026-04-18T09:05:56.999Z</time></trkpt><trkpt lat="42.60596217824512" lon="-8.262806374207013"><ele>851.0</ele><time>2026-04-18T09:05:58.999Z</time></trkpt><trkpt lat="42.60584791037015" lon="-8.262855126157842"><ele>850.5</ele><time>2026-04-18T09:05:59.999Z</time></trkpt><trkpt lat="42.605756160856444" lon="-8.262920719539181"><ele>850.0</ele><time>2026-04-18T09:06:00.999Z</time></trkpt><trkpt lat="42.60560708270508" lon="-8.262991685705718"><ele>849.5</ele><time>2026-04-18T09:06:01.999Z</time></trkpt><trkpt lat="42.605452874918605" lon="-8.263053980997066"><ele>849.0</ele><time>2026-04-18T09:06:02.999Z</time></trkpt><trkpt lat="42.605300931036524" lon="-8.263087095288055"><ele>851.25</ele><time>2026-04-18T09:06:03.999Z</time></trkpt><trkpt lat="42.60517215487601" lon="-8.263091888942313"><ele>853.5</ele><time>2026-04-18T09:06:04.999Z</time></trkpt><trkpt lat="42.60507108606752" lon="-8.263064445741396"><ele>855.75</ele><time>2026-04-18T09:06:05.999Z</time></trkpt><trkpt lat="42.60500487429467" lon="-8.262954484801305"><ele>858.0</ele><time>2026-04-18T09:06:06.999Z</time></trkpt><trkpt lat="42.60493028709344" lon="-8.262800641058288"><ele>858.0</ele><time>2026-04-18T09:06:07.999Z</time></trkpt><trkpt lat="42.604843449776425" lon="-8.262644068788816"><ele>858.0</ele><time>2026-04-18T09:06:08.999Z</time></trkpt><trkpt lat="42.60469750992763" lon="-8.262508803192222"><ele>858.0</ele><time>2026-04-18T09:06:09.999Z</time></trkpt><trkpt lat="42.60455492608193" lon="-8.262390535226391"><ele>858.3333333333333</ele><time>2026-04-18T09:06:10.999Z</time></trkpt><trkpt lat="42.60437737528884" lon="-8.262260565346946"><ele>858.6666666666666</ele><time>2026-04-18T09:06:11.999Z</time></trkpt><trkpt lat="42.604211466739336" lon="-8.262152650363095"><ele>859.0</ele><time>2026-04-18T09:06:12.999Z</time></trkpt><trkpt lat="42.60405968343362" lon="-8.262043851967286"><ele>859.0</ele><time>2026-04-18T09:06:13.999Z</time></trkpt><trkpt lat="42.60390048223892" lon="-8.262010502336008"><ele>859.0</ele><time>2026-04-18T09:06:14.999Z</time></trkpt><trkpt lat="42.60374966798131" lon="-8.262019990567143"><ele>859.0</ele><time>2026-04-18T09:06:15.999Z</time></trkpt><trkpt lat="42.60359539505302" lon="-8.262048155298785"><ele>860.3333333333333</ele><time>2026-04-18T09:06:16.999Z</time></trkpt><trkpt lat="42.60343212301755" lon="-8.262124804107948"><ele>861.6666666666667</ele><time>2026-04-18T09:06:17.999Z</time></trkpt><trkpt lat="42.603282167288064" lon="-8.262209110615986"><ele>863.0</ele><time>2026-04-18T09:06:18.999Z</time></trkpt><trkpt lat="42.60308857118572" lon="-8.262284660330195"><ele>868.75</ele><time>2026-04-18T09:06:19.999Z</time></trkpt><trkpt lat="42.60293661469061" lon="-8.262346823538502"><ele>874.5</ele><time>2026-04-18T09:06:20.999Z</time></trkpt><trkpt lat="42.60281733886508" lon="-8.262448200099417"><ele>880.25</ele><time>2026-04-18T09:06:21.999Z</time></trkpt><trkpt lat="42.60271526783392" lon="-8.262571794901513"><ele>886.0</ele><time>2026-04-18T09:06:22.999Z</time></trkpt><trkpt lat="42.60262561292018" lon="-8.26264521751105"><ele>886.0</ele><time>2026-04-18T09:06:23.999Z</time></trkpt><trkpt lat="42.60248069882935" lon="-8.262646593158324"><ele>886.0</ele><time>2026-04-18T09:06:24.999Z</time></trkpt><trkpt lat="42.60232001119422" lon="-8.262601164410414"><ele>886.0</ele><time>2026-04-18T09:06:25.999Z</time></trkpt><trkpt lat="42.60213338604022" lon="-8.262537072619303"><ele>887.3333333333333</ele><time>2026-04-18T09:06:26.999Z</time></trkpt><trkpt lat="42.601941376645726" lon="-8.26248522248152"><ele>888.6666666666667</ele><time>2026-04-18T09:06:27.999Z</time></trkpt><trkpt lat="42.60176473352959" lon="-8.262456909949853"><ele>890.0</ele><time>2026-04-18T09:06:28.999Z</time></trkpt><trkpt lat="42.60161661113131" lon="-8.262430594584302"><ele>890.0</ele><time>2026-04-18T09:06:29.999Z</time></trkpt><trkpt lat="42.60150469736867" lon="-8.262410145449499"><ele>890.0</ele><time>2026-04-18T09:06:30.999Z</time></trkpt><trkpt lat="42.60142170803837" lon="-8.262347496996146"><ele>890.0</ele><time>2026-04-18T09:06:31.999Z</time></trkpt><trkpt lat="42.60136260117659" lon="-8.262234730200934"><ele>890.0</ele><time>2026-04-18T09:06:32.999Z</time></trkpt><trkpt lat="42.60132403869359" lon="-8.262072978173768"><ele>890.0</ele><time>2026-04-18T09:06:33.999Z</time></trkpt><trkpt lat="42.60130817146576" lon="-8.261909044846853"><ele>884.0</ele><time>2026-04-18T09:06:34.999Z</time></trkpt><trkpt lat="42.601324396845854" lon="-8.261676775644109"><ele>878.0</ele><time>2026-04-18T09:06:35.999Z</time></trkpt><trkpt lat="42.60130685891655" lon="-8.261434473729453"><ele>872.0</ele><time>2026-04-18T09:06:36.999Z</time></trkpt><trkpt lat="42.601239657140326" lon="-8.261200587857003"><ele>871.0</ele><time>2026-04-18T09:06:37.999Z</time></trkpt><trkpt lat="42.60117857988088" lon="-8.26101323004639"><ele>870.0</ele><time>2026-04-18T09:06:38.999Z</time></trkpt><trkpt lat="42.601078902695" lon="-8.260849586366573"><ele>869.0</ele><time>2026-04-18T09:06:39.999Z</time></trkpt><trkpt lat="42.60098017982075" lon="-8.260756204657405"><ele>868.0</ele><time>2026-04-18T09:06:40.999Z</time></trkpt><trkpt lat="42.60085125103465" lon="-8.260723943512497"><ele>872.3333333333333</ele><time>2026-04-18T09:06:41.999Z</time></trkpt><trkpt lat="42.60067742970322" lon="-8.260703680180516"><ele>876.6666666666667</ele><time>2026-04-18T09:06:42.999Z</time></trkpt><trkpt lat="42.60048365220437" lon="-8.260697635913068"><ele>881.0</ele><time>2026-04-18T09:06:43.999Z</time></trkpt><trkpt lat="42.60031627827523" lon="-8.260684356997958"><ele>882.25</ele><time>2026-04-18T09:06:44.999Z</time></trkpt><trkpt lat="42.60017849125599" lon="-8.260693799819933"><ele>883.5</ele><time>2026-04-18T09:06:45.999Z</time></trkpt><trkpt lat="42.60005839509065" lon="-8.260663042455683"><ele>884.75</ele><time>2026-04-18T09:06:46.999Z</time></trkpt><trkpt lat="42.59996715836093" lon="-8.260615720148916"><ele>886.0</ele><time>2026-04-18T09:06:47.999Z</time></trkpt><trkpt lat="42.59988895891045" lon="-8.260490707477256"><ele>877.6666666666666</ele><time>2026-04-18T09:06:48.999Z</time></trkpt><trkpt lat="42.59981536069636" lon="-8.260329162615081"><ele>869.3333333333333</ele><time>2026-04-18T09:06:49.999Z</time></trkpt><trkpt lat="42.59969384507616" lon="-8.260182988776801"><ele>861.0</ele><time>2026-04-18T09:06:50.999Z</time></trkpt><trkpt lat="42.599556356627446" lon="-8.26009363325536"><ele>864.3333333333333</ele><time>2026-04-18T09:06:51.999Z</time></trkpt><trkpt lat="42.599381831688504" lon="-8.26002069691111"><ele>867.6666666666666</ele><time>2026-04-18T09:06:52.999Z</time></trkpt><trkpt lat="42.59922404486482" lon="-8.259938419327593"><ele>871.0</ele><time>2026-04-18T09:06:53.999Z</time></trkpt><trkpt lat="42.5990720087225" lon="-8.259852356105684"><ele>871.0</ele><time>2026-04-18T09:06:54.999Z</time></trkpt><trkpt lat="42.598939299087895" lon="-8.259792503520107"><ele>871.0</ele><time>2026-04-18T09:06:55.999Z</time></trkpt><trkpt lat="42.598788785147185" lon="-8.25978740219938"><ele>871.0</ele><time>2026-04-18T09:06:56.999Z</time></trkpt><trkpt lat="42.59862641191077" lon="-8.259782829886447"><ele>873.25</ele><time>2026-04-18T09:06:57.999Z</time></trkpt><trkpt lat="42.59855936966655" lon="-8.259913954634461"><ele>875.5</ele><time>2026-04-18T09:06:58.999Z</time></trkpt><trkpt lat="42.598408804675884" lon="-8.259966134954832"><ele>877.75</ele><time>2026-04-18T09:06:59.999Z</time></trkpt><trkpt lat="42.59827628108025" lon="-8.260001192302518"><ele>880.0</ele><time>2026-04-18T09:07:00.999Z</time></trkpt><trkpt lat="42.59815968843105" lon="-8.26003240209924"><ele>880.0</ele><time>2026-04-18T09:07:02Z</time></trkpt><trkpt lat="42.59811990144065" lon="-8.259916331038472"><ele>880.0</ele><time>2026-04-18T09:07:04Z</time></trkpt><trkpt lat="42.59808444457381" lon="-8.259784835811807"><ele>880.0</ele><time>2026-04-18T09:07:07Z</time></trkpt><trkpt lat="42.59805535241779" lon="-8.259615645259938"><ele>880.0</ele><time>2026-04-18T09:07:08Z</time></trkpt><trkpt lat="42.59808705592914" lon="-8.259403989690432"><ele>872.5</ele><time>2026-04-18T09:07:09Z</time></trkpt><trkpt lat="42.5981036887776" lon="-8.258956831183387"><ele>865.0</ele><time>2026-04-18T09:07:10Z</time></trkpt><trkpt lat="42.598026993335175" lon="-8.258780138854155"><ele>867.3333333333333</ele><time>2026-04-18T09:07:11Z</time></trkpt><trkpt lat="42.597936888199065" lon="-8.258599521530977"><ele>869.6666666666667</ele><time>2026-04-18T09:07:12Z</time></trkpt><trkpt lat="42.59784403884328" lon="-8.258451910685043"><ele>872.0</ele><time>2026-04-18T09:07:13Z</time></trkpt><trkpt lat="42.597717058819605" lon="-8.2583467797725"><ele>872.0</ele><time>2026-04-18T09:07:14Z</time></trkpt><trkpt lat="42.59760871900828" lon="-8.258223172325243"><ele>872.0</ele><time>2026-04-18T09:07:15Z</time></trkpt><trkpt lat="42.59737118503176" lon="-8.258168470663845"><ele>872.0</ele><time>2026-04-18T09:07:16Z</time></trkpt><trkpt lat="42.59718890492329" lon="-8.258067632053965"><ele>868.6666666666667</ele><time>2026-04-18T09:07:17Z</time></trkpt><trkpt lat="42.59702632501146" lon="-8.257952949892237"><ele>865.3333333333333</ele><time>2026-04-18T09:07:18Z</time></trkpt><trkpt lat="42.596881875973544" lon="-8.257802842903004"><ele>862.0</ele><time>2026-04-18T09:07:19Z</time></trkpt><trkpt lat="42.59672875550329" lon="-8.257659077514495"><ele>862.0</ele><time>2026-04-18T09:07:20Z</time></trkpt><trkpt lat="42.59656483499744" lon="-8.25750904431933"><ele>862.0</ele><time>2026-04-18T09:07:21Z</time></trkpt><trkpt lat="42.59641350844768" lon="-8.257396698979743"><ele>862.0</ele><time>2026-04-18T09:07:22Z</time></trkpt><trkpt lat="42.59627130890388" lon="-8.25728547303161"><ele>857.3333333333333</ele><time>2026-04-18T09:07:23Z</time></trkpt><trkpt lat="42.59612195730257" lon="-8.257177804064371"><ele>852.6666666666667</ele><time>2026-04-18T09:07:24Z</time></trkpt><trkpt lat="42.59597435050579" lon="-8.257084208414602"><ele>848.0</ele><time>2026-04-18T09:07:25Z</time></trkpt><trkpt lat="42.59584815429955" lon="-8.257022608615008"><ele>848.0</ele><time>2026-04-18T09:07:26Z</time></trkpt><trkpt lat="42.59570438253051" lon="-8.25698603781629"><ele>848.0</ele><time>2026-04-18T09:07:27Z</time></trkpt><trkpt lat="42.59555428888252" lon="-8.256976687950187"><ele>848.0</ele><time>2026-04-18T09:07:28Z</time></trkpt><trkpt lat="42.59538261815583" lon="-8.256967563188718"><ele>846.75</ele><time>2026-04-18T09:07:29Z</time></trkpt><trkpt lat="42.59521005280509" lon="-8.2569581251483"><ele>845.5</ele><time>2026-04-18T09:07:30Z</time></trkpt><trkpt lat="42.59508432432866" lon="-8.256961814864432"><ele>844.25</ele><time>2026-04-18T09:07:31Z</time></trkpt><trkpt lat="42.59493630359785" lon="-8.256959642635849"><ele>843.0</ele><time>2026-04-18T09:07:32Z</time></trkpt><trkpt lat="42.594787357912885" lon="-8.25696639293981"><ele>843.0</ele><time>2026-04-18T09:07:33Z</time></trkpt><trkpt lat="42.59463302251124" lon="-8.256981075430831"><ele>843.0</ele><time>2026-04-18T09:07:34Z</time></trkpt><trkpt lat="42.59449050191382" lon="-8.256986603298586"><ele>843.0</ele><time>2026-04-18T09:07:35Z</time></trkpt><trkpt lat="42.594382111973104" lon="-8.256971919242753"><ele>843.0</ele><time>2026-04-18T09:07:36Z</time></trkpt><trkpt lat="42.594247731711356" lon="-8.256913702860704"><ele>841.1666666666666</ele><time>2026-04-18T09:07:37Z</time></trkpt><trkpt lat="42.59413234002027" lon="-8.256871057789892"><ele>839.3333333333333</ele><time>2026-04-18T09:07:38Z</time></trkpt><trkpt lat="42.594032748743686" lon="-8.256828554219865"><ele>837.5</ele><time>2026-04-18T09:07:39Z</time></trkpt><trkpt lat="42.5939710629202" lon="-8.25678987277662"><ele>835.6666666666666</ele><time>2026-04-18T09:07:40Z</time></trkpt><trkpt lat="42.59396097536226" lon="-8.25667597581293"><ele>833.8333333333333</ele><time>2026-04-18T09:07:42Z</time></trkpt><trkpt lat="42.59396842202228" lon="-8.256591038314388"><ele>832.0</ele><time>2026-04-18T09:07:43Z</time></trkpt><trkpt lat="42.59401082414476" lon="-8.256470862194531"><ele>827.6666666666666</ele><time>2026-04-18T09:07:44Z</time></trkpt><trkpt lat="42.59414312838176" lon="-8.256325615019804"><ele>823.3333333333333</ele><time>2026-04-18T09:07:45Z</time></trkpt><trkpt lat="42.594281624062546" lon="-8.256161629990569"><ele>819.0</ele><time>2026-04-18T09:07:46Z</time></trkpt><trkpt lat="42.594406614370754" lon="-8.25602295844649"><ele>819.0</ele><time>2026-04-18T09:07:47Z</time></trkpt><trkpt lat="42.59450102179004" lon="-8.255864371760762"><ele>819.0</ele><time>2026-04-18T09:07:48Z</time></trkpt><trkpt lat="42.59457521408555" lon="-8.25570689573773"><ele>819.0</ele><time>2026-04-18T09:07:49Z</time></trkpt><trkpt lat="42.59468340934916" lon="-8.255486982176276"><ele>817.4000000000001</ele><time>2026-04-18T09:07:50Z</time></trkpt><trkpt lat="42.5947618854118" lon="-8.255322214942792"><ele>815.8</ele><time>2026-04-18T09:07:51Z</time></trkpt><trkpt lat="42.59479511720533" lon="-8.25521841885715"><ele>814.2</ele><time>2026-04-18T09:07:52Z</time></trkpt><trkpt lat="42.59487448137362" lon="-8.255191325609113"><ele>812.5999999999999</ele><time>2026-04-18T09:07:53Z</time></trkpt><trkpt lat="42.59496448838663" lon="-8.255059642679381"><ele>811.0</ele><time>2026-04-18T09:08:03Z</time></trkpt><trkpt lat="42.595051183611076" lon="-8.255024299206251"><ele>811.0</ele><time>2026-04-18T09:08:04Z</time></trkpt><trkpt lat="42.595156927933196" lon="-8.254990322482909"><ele>811.0</ele><time>2026-04-18T09:08:05Z</time></trkpt><trkpt lat="42.59528316113309" lon="-8.254949432648768"><ele>811.0</ele><time>2026-04-18T09:08:06Z</time></trkpt><trkpt lat="42.5953852330263" lon="-8.254969395470033"><ele>811.0</ele><time>2026-04-18T09:08:07Z</time></trkpt><trkpt lat="42.595490627368434" lon="-8.255038754454791"><ele>811.8</ele><time>2026-04-18T09:08:08Z</time></trkpt><trkpt lat="42.595602813396816" lon="-8.25513531468775"><ele>812.5999999999999</ele><time>2026-04-18T09:08:09Z</time></trkpt><trkpt lat="42.595694004958595" lon="-8.255159864904524"><ele>813.4</ele><time>2026-04-18T09:08:10Z</time></trkpt><trkpt lat="42.595759151010476" lon="-8.25510027170919"><ele>814.2</ele><time>2026-04-18T09:08:10.999Z</time></trkpt><trkpt lat="42.59582018839838" lon="-8.254983550248191"><ele>815.0</ele><time>2026-04-18T09:08:11.999Z</time></trkpt><trkpt lat="42.59585383400349" lon="-8.254839274381933"><ele>812.3333333333334</ele><time>2026-04-18T09:08:12.999Z</time></trkpt><trkpt lat="42.59589200071189" lon="-8.254648209519944"><ele>809.6666666666667</ele><time>2026-04-18T09:08:13.999Z</time></trkpt><trkpt lat="42.5959247452371" lon="-8.254440623117585"><ele>807.0</ele><time>2026-04-18T09:08:14.999Z</time></trkpt><trkpt lat="42.59596108366765" lon="-8.254237615117328"><ele>807.0</ele><time>2026-04-18T09:08:15.999Z</time></trkpt><trkpt lat="42.596006337661365" lon="-8.254049783648995"><ele>807.0</ele><time>2026-04-18T09:08:16.999Z</time></trkpt><trkpt lat="42.59609019181277" lon="-8.253891452104153"><ele>807.0</ele><time>2026-04-18T09:08:17.999Z</time></trkpt><trkpt lat="42.596214656294066" lon="-8.253706819215495"><ele>803.0</ele><time>2026-04-18T09:08:18.999Z</time></trkpt><trkpt lat="42.596396611201804" lon="-8.253508234945205"><ele>799.0</ele><time>2026-04-18T09:08:19.999Z</time></trkpt><trkpt lat="42.596559947544556" lon="-8.253324170361852"><ele>795.0</ele><time>2026-04-18T09:08:20.999Z</time></trkpt><trkpt lat="42.59669832385474" lon="-8.253144829222936"><ele>792.0</ele><time>2026-04-18T09:08:21.999Z</time></trkpt><trkpt lat="42.59683164442985" lon="-8.252964869324902"><ele>789.0</ele><time>2026-04-18T09:08:22.999Z</time></trkpt><trkpt lat="42.59694779603464" lon="-8.252756589913183"><ele>786.0</ele><time>2026-04-18T09:08:23.999Z</time></trkpt><trkpt lat="42.59705620082314" lon="-8.252600376413262"><ele>783.3333333333333</ele><time>2026-04-18T09:08:24.999Z</time></trkpt><trkpt lat="42.59720423096986" lon="-8.25250300351949"><ele>780.6666666666666</ele><time>2026-04-18T09:08:25.999Z</time></trkpt><trkpt lat="42.59735414065426" lon="-8.252395281110772"><ele>778.0</ele><time>2026-04-18T09:08:26.999Z</time></trkpt><trkpt lat="42.597483346326726" lon="-8.252339140007162"><ele>778.0</ele><time>2026-04-18T09:08:27.999Z</time></trkpt><trkpt lat="42.59761387495144" lon="-8.252338002484866"><ele>778.0</ele><time>2026-04-18T09:08:28.999Z</time></trkpt><trkpt lat="42.597759728567695" lon="-8.252381773393665"><ele>778.0</ele><time>2026-04-18T09:08:29.999Z</time></trkpt><trkpt lat="42.59790563821508" lon="-8.252471619591793"><ele>778.0</ele><time>2026-04-18T09:08:30.999Z</time></trkpt><trkpt lat="42.59803056583957" lon="-8.252581959067744"><ele>774.6666666666666</ele><time>2026-04-18T09:08:31.999Z</time></trkpt><trkpt lat="42.598126137733345" lon="-8.252730047811026"><ele>771.3333333333333</ele><time>2026-04-18T09:08:32.999Z</time></trkpt><trkpt lat="42.59821369730144" lon="-8.252932560695921"><ele>768.0</ele><time>2026-04-18T09:08:33.999Z</time></trkpt><trkpt lat="42.59829952366889" lon="-8.253153219033674"><ele>768.0</ele><time>2026-04-18T09:08:34.999Z</time></trkpt><trkpt lat="42.59839115520867" lon="-8.253334399223148"><ele>768.0</ele><time>2026-04-18T09:08:35.999Z</time></trkpt><trkpt lat="42.59848428709507" lon="-8.253458491226446"><ele>768.0</ele><time>2026-04-18T09:08:36.999Z</time></trkpt><trkpt lat="42.598601562839704" lon="-8.253515538119332"><ele>768.0</ele><time>2026-04-18T09:08:37.999Z</time></trkpt><trkpt lat="42.59872772865234" lon="-8.253558064937028"><ele>765.2</ele><time>2026-04-18T09:08:38.999Z</time></trkpt><trkpt lat="42.59885323662623" lon="-8.253602426543704"><ele>762.4</ele><time>2026-04-18T09:08:39.999Z</time></trkpt><trkpt lat="42.59893846647621" lon="-8.253670156259684"><ele>759.6</ele><time>2026-04-18T09:08:40.999Z</time></trkpt><trkpt lat="42.59900826565595" lon="-8.253748166169428"><ele>756.8000000000001</ele><time>2026-04-18T09:08:41.999Z</time></trkpt><trkpt lat="42.59903790420455" lon="-8.253851800939133"><ele>754.0</ele><time>2026-04-18T09:08:42.999Z</time></trkpt><trkpt lat="42.59904332765679" lon="-8.253981690321684"><ele>754.0</ele><time>2026-04-18T09:08:43.999Z</time></trkpt><trkpt lat="42.59901892503327" lon="-8.254124277767614"><ele>754.0</ele><time>2026-04-18T09:08:44.999Z</time></trkpt><trkpt lat="42.598981973654496" lon="-8.254284335959696"><ele>754.0</ele><time>2026-04-18T09:08:45.999Z</time></trkpt><trkpt lat="42.59893822971428" lon="-8.25442699705455"><ele>754.0</ele><time>2026-04-18T09:08:46.999Z</time></trkpt><trkpt lat="42.59891195413119" lon="-8.254581840573595"><ele>754.0</ele><time>2026-04-18T09:08:47.999Z</time></trkpt><trkpt lat="42.59889797884498" lon="-8.254717005543203"><ele>754.0</ele><time>2026-04-18T09:08:48.999Z</time></trkpt><trkpt lat="42.59896311318824" lon="-8.254822650157978"><ele>754.0</ele><time>2026-04-18T09:08:50.999Z</time></trkpt><trkpt lat="42.599053398307234" lon="-8.25480639693546"><ele>754.0</ele><time>2026-04-18T09:08:51.999Z</time></trkpt><trkpt lat="42.599155716007964" lon="-8.254769771378365"><ele>754.0</ele><time>2026-04-18T09:08:52.999Z</time></trkpt><trkpt lat="42.599284632889784" lon="-8.254696301469497"><ele>754.0</ele><time>2026-04-18T09:08:53.999Z</time></trkpt><trkpt lat="42.59944569434866" lon="-8.254609388973554"><ele>754.0</ele><time>2026-04-18T09:08:54.999Z</time></trkpt><trkpt lat="42.5996235176864" lon="-8.254518224170063"><ele>754.0</ele><time>2026-04-18T09:08:55.999Z</time></trkpt><trkpt lat="42.599770831967845" lon="-8.254430567421501"><ele>751.8000000000001</ele><time>2026-04-18T09:08:56.999Z</time></trkpt><trkpt lat="42.59988780629921" lon="-8.254344176377364"><ele>749.6</ele><time>2026-04-18T09:08:57.999Z</time></trkpt><trkpt lat="42.59998515717356" lon="-8.254271694637401"><ele>747.4</ele><time>2026-04-18T09:08:58.999Z</time></trkpt><trkpt lat="42.60007486275358" lon="-8.254240194000454"><ele>745.2</ele><time>2026-04-18T09:08:59.999Z</time></trkpt><trkpt lat="42.60017862274893" lon="-8.254272190649964"><ele>743.0</ele><time>2026-04-18T09:09:00.999Z</time></trkpt><trkpt lat="42.60029769708392" lon="-8.25435763759113"><ele>740.5</ele><time>2026-04-18T09:09:01.999Z</time></trkpt><trkpt lat="42.60041359694459" lon="-8.254476952416693"><ele>738.0</ele><time>2026-04-18T09:09:02.999Z</time></trkpt><trkpt lat="42.600528870321185" lon="-8.254583364542613"><ele>735.5</ele><time>2026-04-18T09:09:03.999Z</time></trkpt><trkpt lat="42.600638050159645" lon="-8.254645238715272"><ele>733.0</ele><time>2026-04-18T09:09:04.999Z</time></trkpt><trkpt lat="42.60076768006267" lon="-8.254706741010944"><ele>733.0</ele><time>2026-04-18T09:09:05.999Z</time></trkpt><trkpt lat="42.600891616560695" lon="-8.254742301769074"><ele>733.0</ele><time>2026-04-18T09:09:06.999Z</time></trkpt><trkpt lat="42.601025963370056" lon="-8.2547989188517"><ele>733.0</ele><time>2026-04-18T09:09:08Z</time></trkpt><trkpt lat="42.60113902674404" lon="-8.25478762047997"><ele>733.0</ele><time>2026-04-18T09:09:09Z</time></trkpt><trkpt lat="42.601220479848955" lon="-8.254704900047372"><ele>732.4</ele><time>2026-04-18T09:09:10Z</time></trkpt><trkpt lat="42.6012962197117" lon="-8.25463840505319"><ele>731.8</ele><time>2026-04-18T09:09:11Z</time></trkpt><trkpt lat="42.60137630643556" lon="-8.254561562482769"><ele>731.2</ele><time>2026-04-18T09:09:12Z</time></trkpt><trkpt lat="42.60149455335864" lon="-8.254519775930241"><ele>730.6</ele><time>2026-04-18T09:09:13Z</time></trkpt><trkpt lat="42.60163184378286" lon="-8.2544952174821"><ele>730.0</ele><time>2026-04-18T09:09:14Z</time></trkpt><trkpt lat="42.60177247194819" lon="-8.254495820633379"><ele>730.0</ele><time>2026-04-18T09:09:15Z</time></trkpt><trkpt lat="42.60191937264099" lon="-8.254509016928141"><ele>730.0</ele><time>2026-04-18T09:09:16Z</time></trkpt><trkpt lat="42.602060069814186" lon="-8.254560736105338"><ele>730.0</ele><time>2026-04-18T09:09:17Z</time></trkpt><trkpt lat="42.60222068457202" lon="-8.254613045838722"><ele>729.3333333333334</ele><time>2026-04-18T09:09:18Z</time></trkpt><trkpt lat="42.602426998344725" lon="-8.25464561985065"><ele>728.6666666666666</ele><time>2026-04-18T09:09:19Z</time></trkpt><trkpt lat="42.60265372618174" lon="-8.254609355064403"><ele>728.0</ele><time>2026-04-18T09:09:20Z</time></trkpt><trkpt lat="42.60285301381532" lon="-8.254546525161595"><ele>727.0</ele><time>2026-04-18T09:09:21Z</time></trkpt><trkpt lat="42.60303412731813" lon="-8.2545024041398"><ele>726.0</ele><time>2026-04-18T09:09:22Z</time></trkpt><trkpt lat="42.60326970486704" lon="-8.25460111611625"><ele>725.0</ele><time>2026-04-18T09:09:23Z</time></trkpt><trkpt lat="42.60343560089777" lon="-8.254556541465915"><ele>725.0</ele><time>2026-04-18T09:09:24Z</time></trkpt><trkpt lat="42.603618044048126" lon="-8.254435005556548"><ele>725.0</ele><time>2026-04-18T09:09:25Z</time></trkpt><trkpt lat="42.60378538472491" lon="-8.254284834383746"><ele>725.0</ele><time>2026-04-18T09:09:26Z</time></trkpt><trkpt lat="42.60396023668889" lon="-8.254143350757316"><ele>727.0</ele><time>2026-04-18T09:09:27Z</time></trkpt><trkpt lat="42.604123250370826" lon="-8.254024127529858"><ele>729.0</ele><time>2026-04-18T09:09:28Z</time></trkpt><trkpt lat="42.60426871038595" lon="-8.253901177767347"><ele>731.0</ele><time>2026-04-18T09:09:29Z</time></trkpt><trkpt lat="42.604454531026626" lon="-8.253839211587701"><ele>723.6666666666666</ele><time>2026-04-18T09:09:30Z</time></trkpt><trkpt lat="42.604644687684" lon="-8.253799985892813"><ele>716.3333333333334</ele><time>2026-04-18T09:09:31Z</time></trkpt><trkpt lat="42.60483565321708" lon="-8.25378794774371"><ele>709.0</ele><time>2026-04-18T09:09:32Z</time></trkpt><trkpt lat="42.60504693282489" lon="-8.253782065891505"><ele>709.0</ele><time>2026-04-18T09:09:33Z</time></trkpt><trkpt lat="42.60526511863746" lon="-8.253778571465679"><ele>709.0</ele><time>2026-04-18T09:09:34Z</time></trkpt><trkpt lat="42.60544632634137" lon="-8.25379057696979"><ele>709.0</ele><time>2026-04-18T09:09:35Z</time></trkpt><trkpt lat="42.60560420580791" lon="-8.253770577646113"><ele>706.6666666666667</ele><time>2026-04-18T09:09:36Z</time></trkpt><trkpt lat="42.60574944719097" lon="-8.253731997534631"><ele>704.3333333333334</ele><time>2026-04-18T09:09:37Z</time></trkpt><trkpt lat="42.605911797900035" lon="-8.253662016164727"><ele>702.0</ele><time>2026-04-18T09:09:38Z</time></trkpt><trkpt lat="42.60607684659603" lon="-8.253544191269196"><ele>702.5</ele><time>2026-04-18T09:09:39Z</time></trkpt><trkpt lat="42.60623534783929" lon="-8.253431466176364"><ele>703.0</ele><time>2026-04-18T09:09:40Z</time></trkpt><trkpt lat="42.606338069346855" lon="-8.253323221621292"><ele>703.5</ele><time>2026-04-18T09:09:41Z</time></trkpt><trkpt lat="42.60642206663059" lon="-8.253209603789845"><ele>704.0</ele><time>2026-04-18T09:09:42Z</time></trkpt><trkpt lat="42.60653927489491" lon="-8.253050225440438"><ele>699.3333333333333</ele><time>2026-04-18T09:09:43Z</time></trkpt><trkpt lat="42.60665717772046" lon="-8.252837002963442"><ele>694.6666666666666</ele><time>2026-04-18T09:09:44Z</time></trkpt><trkpt lat="42.60679010883011" lon="-8.252618452193653"><ele>690.0</ele><time>2026-04-18T09:09:45Z</time></trkpt><trkpt lat="42.60693068568611" lon="-8.252460667786103"><ele>689.3333333333334</ele><time>2026-04-18T09:09:46Z</time></trkpt><trkpt lat="42.60704760410176" lon="-8.252299255065033"><ele>688.6666666666667</ele><time>2026-04-18T09:09:47Z</time></trkpt><trkpt lat="42.60718582919567" lon="-8.252164446374596"><ele>688.0</ele><time>2026-04-18T09:09:48Z</time></trkpt><trkpt lat="42.60727970466748" lon="-8.252037715376604"><ele>685.0</ele><time>2026-04-18T09:09:49Z</time></trkpt><trkpt lat="42.6073960104223" lon="-8.251948159091368"><ele>682.0</ele><time>2026-04-18T09:09:50Z</time></trkpt><trkpt lat="42.607505389309544" lon="-8.25187162077527"><ele>679.0</ele><time>2026-04-18T09:09:51Z</time></trkpt><trkpt lat="42.60763611963715" lon="-8.251833591322798"><ele>676.0</ele><time>2026-04-18T09:09:52Z</time></trkpt><trkpt lat="42.60780157243007" lon="-8.251841550808052"><ele>673.75</ele><time>2026-04-18T09:09:53Z</time></trkpt><trkpt lat="42.60796341391248" lon="-8.251882942523777"><ele>671.5</ele><time>2026-04-18T09:09:54Z</time></trkpt><trkpt lat="42.60810410785874" lon="-8.251941943818311"><ele>669.25</ele><time>2026-04-18T09:09:55Z</time></trkpt><trkpt lat="42.6082108873235" lon="-8.25197313020577"><ele>667.0</ele><time>2026-04-18T09:09:56Z</time></trkpt><trkpt lat="42.60833903932198" lon="-8.251905574834865"><ele>667.0</ele><time>2026-04-18T09:09:57Z</time></trkpt><trkpt lat="42.60845958029274" lon="-8.251838147732277"><ele>667.0</ele><time>2026-04-18T09:09:58Z</time></trkpt><trkpt lat="42.60859468796962" lon="-8.251840223730982"><ele>667.0</ele><time>2026-04-18T09:09:59Z</time></trkpt><trkpt lat="42.608741471184494" lon="-8.251881625119308"><ele>667.0</ele><time>2026-04-18T09:10:00Z</time></trkpt><trkpt lat="42.60888690494912" lon="-8.251935020895575"><ele>663.25</ele><time>2026-04-18T09:10:01Z</time></trkpt><trkpt lat="42.60900762426631" lon="-8.251968742653556"><ele>659.5</ele><time>2026-04-18T09:10:02Z</time></trkpt><trkpt lat="42.60912621260014" lon="-8.251967143414685"><ele>655.75</ele><time>2026-04-18T09:10:03Z</time></trkpt><trkpt lat="42.609243799406904" lon="-8.251919269534195"><ele>652.0</ele><time>2026-04-18T09:10:04Z</time></trkpt><trkpt lat="42.60938776477222" lon="-8.251847196961949"><ele>647.6666666666667</ele><time>2026-04-18T09:10:05Z</time></trkpt><trkpt lat="42.60953196249378" lon="-8.251736466714451"><ele>643.3333333333334</ele><time>2026-04-18T09:10:06Z</time></trkpt><trkpt lat="42.60969103776152" lon="-8.251559677039918"><ele>639.0</ele><time>2026-04-18T09:10:07Z</time></trkpt><trkpt lat="42.6098665040918" lon="-8.251363900070707"><ele>639.0</ele><time>2026-04-18T09:10:08Z</time></trkpt><trkpt lat="42.610048911765766" lon="-8.251165665943967"><ele>639.0</ele><time>2026-04-18T09:10:09Z</time></trkpt><trkpt lat="42.61021853037605" lon="-8.250991184881164"><ele>639.0</ele><time>2026-04-18T09:10:10Z</time></trkpt><trkpt lat="42.61036678220319" lon="-8.250832514924126"><ele>634.25</ele><time>2026-04-18T09:10:11Z</time></trkpt><trkpt lat="42.61048380346455" lon="-8.250697257555995"><ele>629.5</ele><time>2026-04-18T09:10:12Z</time></trkpt><trkpt lat="42.61055860367446" lon="-8.250559204973499"><ele>624.75</ele><time>2026-04-18T09:10:13Z</time></trkpt><trkpt lat="42.610601875647674" lon="-8.25042658594799"><ele>620.0</ele><time>2026-04-18T09:10:14Z</time></trkpt><trkpt lat="42.610611586685756" lon="-8.250290117537867"><ele>619.8</ele><time>2026-04-18T09:10:15Z</time></trkpt><trkpt lat="42.61060590542858" lon="-8.250145706217857"><ele>619.6</ele><time>2026-04-18T09:10:16Z</time></trkpt><trkpt lat="42.61057057140987" lon="-8.250018436555639"><ele>619.4</ele><time>2026-04-18T09:10:17Z</time></trkpt><trkpt lat="42.610536413188214" lon="-8.249925571906115"><ele>619.2</ele><time>2026-04-18T09:10:18Z</time></trkpt><trkpt lat="42.61058208534438" lon="-8.249759143746735"><ele>619.0</ele><time>2026-04-18T09:10:20Z</time></trkpt><trkpt lat="42.61068155244781" lon="-8.249685954581532"><ele>616.75</ele><time>2026-04-18T09:10:21Z</time></trkpt><trkpt lat="42.6107843939402" lon="-8.249641767555378"><ele>614.5</ele><time>2026-04-18T09:10:22Z</time></trkpt><trkpt lat="42.61091101159798" lon="-8.249574440718947"><ele>612.25</ele><time>2026-04-18T09:10:23Z</time></trkpt><trkpt lat="42.61100506398833" lon="-8.249498055708441"><ele>610.0</ele><time>2026-04-18T09:10:23.999Z</time></trkpt><trkpt lat="42.61106217530644" lon="-8.24936913802548"><ele>610.0</ele><time>2026-04-18T09:10:24.999Z</time></trkpt><trkpt lat="42.61114138539659" lon="-8.249207141936983"><ele>610.0</ele><time>2026-04-18T09:10:25.999Z</time></trkpt><trkpt lat="42.61121128966244" lon="-8.248994621689386"><ele>610.0</ele><time>2026-04-18T09:10:26.999Z</time></trkpt><trkpt lat="42.61125526981667" lon="-8.248806992454927"><ele>607.25</ele><time>2026-04-18T09:10:27.999Z</time></trkpt><trkpt lat="42.611290567658074" lon="-8.24865910773625"><ele>604.5</ele><time>2026-04-18T09:10:28.999Z</time></trkpt><trkpt lat="42.61135535423539" lon="-8.248526266857484"><ele>601.75</ele><time>2026-04-18T09:10:29.999Z</time></trkpt><trkpt lat="42.61143256111222" lon="-8.248408150181639"><ele>599.0</ele><time>2026-04-18T09:10:30.999Z</time></trkpt><trkpt lat="42.61159699835974" lon="-8.248352495249515"><ele>599.0</ele><time>2026-04-18T09:10:31.999Z</time></trkpt><trkpt lat="42.61175531253255" lon="-8.248285277809428"><ele>599.0</ele><time>2026-04-18T09:10:32.999Z</time></trkpt><trkpt lat="42.61193552953622" lon="-8.248243543675493"><ele>599.0</ele><time>2026-04-18T09:10:33.999Z</time></trkpt><trkpt lat="42.61209770110437" lon="-8.248225923674129"><ele>596.3333333333333</ele><time>2026-04-18T09:10:34.999Z</time></trkpt><trkpt lat="42.61226221259732" lon="-8.248252063967886"><ele>593.6666666666666</ele><time>2026-04-18T09:10:35.999Z</time></trkpt><trkpt lat="42.61242349924611" lon="-8.248278184307113"><ele>591.0</ele><time>2026-04-18T09:10:36.999Z</time></trkpt><trkpt lat="42.61257921681728" lon="-8.24830420167951"><ele>591.0</ele><time>2026-04-18T09:10:37.999Z</time></trkpt><trkpt lat="42.61270040652626" lon="-8.248290987348133"><ele>591.0</ele><time>2026-04-18T09:10:38.999Z</time></trkpt><trkpt lat="42.61282419226514" lon="-8.248253830142666"><ele>591.0</ele><time>2026-04-18T09:10:39.999Z</time></trkpt><trkpt lat="42.61294612472357" lon="-8.248171759345208"><ele>591.0</ele><time>2026-04-18T09:10:40.999Z</time></trkpt><trkpt lat="42.61305892639963" lon="-8.2480528441407"><ele>588.25</ele><time>2026-04-18T09:10:41.999Z</time></trkpt><trkpt lat="42.61316925043559" lon="-8.247910892814158"><ele>585.5</ele><time>2026-04-18T09:10:42.999Z</time></trkpt><trkpt lat="42.613264635319545" lon="-8.247748561120552"><ele>582.75</ele><time>2026-04-18T09:10:43.999Z</time></trkpt><trkpt lat="42.61334991005598" lon="-8.2476144825003"><ele>580.0</ele><time>2026-04-18T09:10:44.999Z</time></trkpt><trkpt lat="42.6135212007716" lon="-8.24758743323565"><ele>580.0</ele><time>2026-04-18T09:10:45.999Z</time></trkpt><trkpt lat="42.61361798956529" lon="-8.247473951438097"><ele>580.0</ele><time>2026-04-18T09:10:46.999Z</time></trkpt><trkpt lat="42.613782369280294" lon="-8.247516319094355"><ele>580.0</ele><time>2026-04-18T09:10:47.999Z</time></trkpt><trkpt lat="42.613938744038585" lon="-8.247489400583014"><ele>577.25</ele><time>2026-04-18T09:10:48.999Z</time></trkpt><trkpt lat="42.614086389221846" lon="-8.247526794017821"><ele>574.5</ele><time>2026-04-18T09:10:49.999Z</time></trkpt><trkpt lat="42.61420384159359" lon="-8.247538733827966"><ele>571.75</ele><time>2026-04-18T09:10:50.999Z</time></trkpt><trkpt lat="42.61434821008068" lon="-8.247594462051167"><ele>569.0</ele><time>2026-04-18T09:10:51.999Z</time></trkpt><trkpt lat="42.61447462310184" lon="-8.24767905010346"><ele>567.0</ele><time>2026-04-18T09:10:52.999Z</time></trkpt><trkpt lat="42.61460862601246" lon="-8.247733673930066"><ele>565.0</ele><time>2026-04-18T09:10:53.999Z</time></trkpt><trkpt lat="42.614733151060165" lon="-8.24774175797146"><ele>563.0</ele><time>2026-04-18T09:10:54.999Z</time></trkpt><trkpt lat="42.61487328481293" lon="-8.247673792572705"><ele>561.0</ele><time>2026-04-18T09:10:55.999Z</time></trkpt><trkpt lat="42.61503953666016" lon="-8.247624648111492"><ele>561.0</ele><time>2026-04-18T09:10:56.999Z</time></trkpt><trkpt lat="42.61522380824045" lon="-8.24758326518031"><ele>561.0</ele><time>2026-04-18T09:10:57.999Z</time></trkpt><trkpt lat="42.6153754983541" lon="-8.247560868441019"><ele>561.0</ele><time>2026-04-18T09:10:58.999Z</time></trkpt><trkpt lat="42.615530774595726" lon="-8.247519924005404"><ele>558.0</ele><time>2026-04-18T09:10:59.999Z</time></trkpt><trkpt lat="42.61560787946639" lon="-8.247457777595562"><ele>555.0</ele><time>2026-04-18T09:11:00.999Z</time></trkpt><trkpt lat="42.61570480602978" lon="-8.247384030105584"><ele>552.0</ele><time>2026-04-18T09:11:01.999Z</time></trkpt><trkpt lat="42.61575681509791" lon="-8.247303965403844"><ele>549.0</ele><time>2026-04-18T09:11:02.999Z</time></trkpt><trkpt lat="42.61577683975435" lon="-8.247193912924372"><ele>546.0</ele><time>2026-04-18T09:11:03.999Z</time></trkpt><trkpt lat="42.615726054580485" lon="-8.246983471875117"><ele>546.0</ele><time>2026-04-18T09:11:04.999Z</time></trkpt><trkpt lat="42.61569168434436" lon="-8.246764492591982"><ele>546.0</ele><time>2026-04-18T09:11:05.999Z</time></trkpt><trkpt lat="42.61566900314508" lon="-8.246516044913536"><ele>546.0</ele><time>2026-04-18T09:11:06.999Z</time></trkpt><trkpt lat="42.61566420365354" lon="-8.246298833629101"><ele>544.0</ele><time>2026-04-18T09:11:07.999Z</time></trkpt><trkpt lat="42.61565354692504" lon="-8.2461054887595"><ele>542.0</ele><time>2026-04-18T09:11:08.999Z</time></trkpt><trkpt lat="42.61566448358292" lon="-8.245875566188158"><ele>540.0</ele><time>2026-04-18T09:11:09.999Z</time></trkpt><trkpt lat="42.61570147514911" lon="-8.245664111142547"><ele>538.75</ele><time>2026-04-18T09:11:10.999Z</time></trkpt><trkpt lat="42.61576598689834" lon="-8.245447470656964"><ele>537.5</ele><time>2026-04-18T09:11:11.999Z</time></trkpt><trkpt lat="42.61584829764623" lon="-8.245296739299881"><ele>536.25</ele><time>2026-04-18T09:11:12.999Z</time></trkpt><trkpt lat="42.61588636759594" lon="-8.245201228788448"><ele>535.0</ele><time>2026-04-18T09:11:14Z</time></trkpt><trkpt lat="42.615910717730365" lon="-8.245068580355698"><ele>535.0</ele><time>2026-04-18T09:11:15Z</time></trkpt><trkpt lat="42.61590757193001" lon="-8.24496865684467"><ele>535.0</ele><time>2026-04-18T09:11:16Z</time></trkpt><trkpt lat="42.61592165559143" lon="-8.244842727700286"><ele>535.0</ele><time>2026-04-18T09:11:17Z</time></trkpt><trkpt lat="42.61593095600251" lon="-8.244739139723603"><ele>535.0</ele><time>2026-04-18T09:11:18Z</time></trkpt><trkpt lat="42.61599930185914" lon="-8.24464161102389"><ele>535.0</ele><time>2026-04-18T09:11:19Z</time></trkpt><trkpt lat="42.61606636227038" lon="-8.244552637112205"><ele>535.0</ele><time>2026-04-18T09:11:20Z</time></trkpt><trkpt lat="42.616093095063995" lon="-8.244455633640262"><ele>534.0</ele><time>2026-04-18T09:11:21Z</time></trkpt><trkpt lat="42.61604552655105" lon="-8.24429635507956"><ele>533.0</ele><time>2026-04-18T09:11:23Z</time></trkpt><trkpt lat="42.61597346784217" lon="-8.244240764246229"><ele>532.0</ele><time>2026-04-18T09:11:24Z</time></trkpt><trkpt lat="42.61589037085343" lon="-8.244177307503465"><ele>531.0</ele><time>2026-04-18T09:11:25Z</time></trkpt><trkpt lat="42.61583347699013" lon="-8.244051314584404"><ele>530.0</ele><time>2026-04-18T09:11:26Z</time></trkpt><trkpt lat="42.61585442515322" lon="-8.243963449509147"><ele>529.25</ele><time>2026-04-18T09:11:27Z</time></trkpt><trkpt lat="42.61586075088302" lon="-8.243854081901796"><ele>528.5</ele><time>2026-04-18T09:11:28Z</time></trkpt><trkpt lat="42.61591165511144" lon="-8.24371909919171"><ele>527.75</ele><time>2026-04-18T09:11:29Z</time></trkpt><trkpt lat="42.61596764867496" lon="-8.243558912281934"><ele>527.0</ele><time>2026-04-18T09:11:30Z</time></trkpt><trkpt lat="42.61603452573147" lon="-8.243384349586131"><ele>527.0</ele><time>2026-04-18T09:11:31Z</time></trkpt><trkpt lat="42.6160999438461" lon="-8.243170403281443"><ele>527.0</ele><time>2026-04-18T09:11:32Z</time></trkpt><trkpt lat="42.616166914559926" lon="-8.242933065104163"><ele>527.0</ele><time>2026-04-18T09:11:33Z</time></trkpt><trkpt lat="42.61626049392238" lon="-8.24269069469255"><ele>531.6666666666666</ele><time>2026-04-18T09:11:34Z</time></trkpt><trkpt lat="42.61636094714616" lon="-8.24245286558801"><ele>536.3333333333334</ele><time>2026-04-18T09:11:35Z</time></trkpt><trkpt lat="42.61644225078868" lon="-8.242232589525797"><ele>541.0</ele><time>2026-04-18T09:11:36Z</time></trkpt><trkpt lat="42.61653165482397" lon="-8.242024352110532"><ele>541.3333333333334</ele><time>2026-04-18T09:11:37Z</time></trkpt><trkpt lat="42.616598869318956" lon="-8.241839638449632"><ele>541.6666666666666</ele><time>2026-04-18T09:11:38Z</time></trkpt><trkpt lat="42.61667638097018" lon="-8.241644270994147"><ele>542.0</ele><time>2026-04-18T09:11:39Z</time></trkpt><trkpt lat="42.61676315730034" lon="-8.241420336074562"><ele>542.3333333333333</ele><time>2026-04-18T09:11:40Z</time></trkpt><trkpt lat="42.61685416863146" lon="-8.241184868698157"><ele>542.6666666666666</ele><time>2026-04-18T09:11:41Z</time></trkpt><trkpt lat="42.61694847495868" lon="-8.240907188617644"><ele>543.0</ele><time>2026-04-18T09:11:42Z</time></trkpt><trkpt lat="42.61703817204893" lon="-8.240635622634654"><ele>545.3333333333334</ele><time>2026-04-18T09:11:43Z</time></trkpt><trkpt lat="42.61708706501318" lon="-8.240407569936279"><ele>547.6666666666667</ele><time>2026-04-18T09:11:44Z</time></trkpt><trkpt lat="42.61710774507297" lon="-8.24020227591078"><ele>550.0</ele><time>2026-04-18T09:11:45Z</time></trkpt><trkpt lat="42.617106657599955" lon="-8.24000852741223"><ele>550.0</ele><time>2026-04-18T09:11:46Z</time></trkpt><trkpt lat="42.61710177868796" lon="-8.239832311980464"><ele>550.0</ele><time>2026-04-18T09:11:47Z</time></trkpt><trkpt lat="42.61711282296165" lon="-8.239668959229334"><ele>550.0</ele><time>2026-04-18T09:11:48Z</time></trkpt><trkpt lat="42.617110231591276" lon="-8.239572204270619"><ele>550.0</ele><time>2026-04-18T09:11:49Z</time></trkpt><trkpt lat="42.61703645316601" lon="-8.239575469049392"><ele>550.0</ele><time>2026-04-18T09:11:51Z</time></trkpt><trkpt lat="42.6169752539959" lon="-8.239611656652286"><ele>549.5</ele><time>2026-04-18T09:11:52Z</time></trkpt><trkpt lat="42.616888638755256" lon="-8.23968371120122"><ele>549.0</ele><time>2026-04-18T09:11:53Z</time></trkpt><trkpt lat="42.616782042379036" lon="-8.239768107188128"><ele>548.5</ele><time>2026-04-18T09:11:54Z</time></trkpt><trkpt lat="42.61665185785762" lon="-8.239827094966468"><ele>548.0</ele><time>2026-04-18T09:11:55Z</time></trkpt><trkpt lat="42.61651757118467" lon="-8.239856460025045"><ele>548.0</ele><time>2026-04-18T09:11:56Z</time></trkpt><trkpt lat="42.61637456424007" lon="-8.23987202522606"><ele>548.0</ele><time>2026-04-18T09:11:57Z</time></trkpt><trkpt lat="42.616221768689286" lon="-8.239895069074786"><ele>548.0</ele><time>2026-04-18T09:11:58Z</time></trkpt><trkpt lat="42.61608148651234" lon="-8.239941041635872"><ele>548.0</ele><time>2026-04-18T09:11:59Z</time></trkpt><trkpt lat="42.61593947394667" lon="-8.239967042058412"><ele>547.6666666666666</ele><time>2026-04-18T09:12:00Z</time></trkpt><trkpt lat="42.61579132022426" lon="-8.239965833182552"><ele>547.3333333333334</ele><time>2026-04-18T09:12:01Z</time></trkpt><trkpt lat="42.61562364484131" lon="-8.239941533984764"><ele>547.0</ele><time>2026-04-18T09:12:02Z</time></trkpt><trkpt lat="42.61546434866638" lon="-8.239910426953388"><ele>547.0</ele><time>2026-04-18T09:12:03Z</time></trkpt><trkpt lat="42.61532356796354" lon="-8.239893747358924"><ele>547.0</ele><time>2026-04-18T09:12:04Z</time></trkpt><trkpt lat="42.61522293631377" lon="-8.239928704371977"><ele>547.0</ele><time>2026-04-18T09:12:05Z</time></trkpt><trkpt lat="42.615114035218795" lon="-8.240016687162996"><ele>547.0</ele><time>2026-04-18T09:12:06Z</time></trkpt><trkpt lat="42.61498581529585" lon="-8.240140925394238"><ele>547.0</ele><time>2026-04-18T09:12:07Z</time></trkpt><trkpt lat="42.61483446700329" lon="-8.240266362213093"><ele>547.0</ele><time>2026-04-18T09:12:08Z</time></trkpt><trkpt lat="42.614685200459405" lon="-8.240384747757215"><ele>547.0</ele><time>2026-04-18T09:12:09Z</time></trkpt><trkpt lat="42.614557646221854" lon="-8.24043460101043"><ele>547.75</ele><time>2026-04-18T09:12:10Z</time></trkpt><trkpt lat="42.6144625991391" lon="-8.24046535860669"><ele>548.5</ele><time>2026-04-18T09:12:11Z</time></trkpt><trkpt lat="42.61434383181198" lon="-8.24050667819358"><ele>549.25</ele><time>2026-04-18T09:12:12Z</time></trkpt><trkpt lat="42.614246269603726" lon="-8.240508268186355"><ele>550.0</ele><time>2026-04-18T09:12:13Z</time></trkpt><trkpt lat="42.61410675872931" lon="-8.240533214507698"><ele>550.0</ele><time>2026-04-18T09:12:14Z</time></trkpt><trkpt lat="42.61396598326777" lon="-8.240532891260477"><ele>550.0</ele><time>2026-04-18T09:12:15Z</time></trkpt><trkpt lat="42.613824387089934" lon="-8.240510897169866"><ele>550.0</ele><time>2026-04-18T09:12:16Z</time></trkpt><trkpt lat="42.6136713357913" lon="-8.240506174198334"><ele>550.0</ele><time>2026-04-18T09:12:17Z</time></trkpt><trkpt lat="42.61353824056278" lon="-8.24053917488557"><ele>551.25</ele><time>2026-04-18T09:12:18Z</time></trkpt><trkpt lat="42.613443002270074" lon="-8.240589092424718"><ele>552.5</ele><time>2026-04-18T09:12:19Z</time></trkpt><trkpt lat="42.61335257806411" lon="-8.240673623745657"><ele>553.75</ele><time>2026-04-18T09:12:20Z</time></trkpt><trkpt lat="42.613232446314534" lon="-8.2407633834652"><ele>555.0</ele><time>2026-04-18T09:12:21Z</time></trkpt><trkpt lat="42.613092048489364" lon="-8.240786803205022"><ele>550.3333333333334</ele><time>2026-04-18T09:12:22Z</time></trkpt><trkpt lat="42.61294246072788" lon="-8.240835923619013"><ele>545.6666666666667</ele><time>2026-04-18T09:12:23Z</time></trkpt><trkpt lat="42.61278878886385" lon="-8.240945260094975"><ele>541.0</ele><time>2026-04-18T09:12:24Z</time></trkpt><trkpt lat="42.6126716517686" lon="-8.241050733300943"><ele>541.0</ele><time>2026-04-18T09:12:25Z</time></trkpt><trkpt lat="42.6125721009397" lon="-8.241145681799997"><ele>541.0</ele><time>2026-04-18T09:12:26Z</time></trkpt><trkpt lat="42.61248722664661" lon="-8.241251340818225"><ele>541.0</ele><time>2026-04-18T09:12:27Z</time></trkpt><trkpt lat="42.612411831669085" lon="-8.241361039512475"><ele>541.0</ele><time>2026-04-18T09:12:28Z</time></trkpt><trkpt lat="42.61236500114646" lon="-8.241501437777577"><ele>538.6</ele><time>2026-04-18T09:12:29Z</time></trkpt><trkpt lat="42.61229692808731" lon="-8.241644449481663"><ele>536.2</ele><time>2026-04-18T09:12:30Z</time></trkpt><trkpt lat="42.61224144235637" lon="-8.24176200842289"><ele>533.8</ele><time>2026-04-18T09:12:31Z</time></trkpt><trkpt lat="42.61217577577557" lon="-8.241866114621617"><ele>531.4</ele><time>2026-04-18T09:12:32Z</time></trkpt><trkpt lat="42.61207612449118" lon="-8.241933851197535"><ele>529.0</ele><time>2026-04-18T09:12:33Z</time></trkpt><trkpt lat="42.61194582193594" lon="-8.2419929475212"><ele>528.8</ele><time>2026-04-18T09:12:34Z</time></trkpt><trkpt lat="42.61179761017953" lon="-8.242025089569776"><ele>528.5999999999999</ele><time>2026-04-18T09:12:35Z</time></trkpt><trkpt lat="42.61167426899602" lon="-8.24202438921683"><ele>528.4</ele><time>2026-04-18T09:12:35.999Z</time></trkpt><trkpt lat="42.611602974597474" lon="-8.241996702916062"><ele>528.1999999999999</ele><time>2026-04-18T09:12:36.999Z</time></trkpt><trkpt lat="42.611530737442806" lon="-8.241937266951803"><ele>528.0</ele><time>2026-04-18T09:12:37.999Z</time></trkpt><trkpt lat="42.61145472395092" lon="-8.241859534945117"><ele>528.0</ele><time>2026-04-18T09:12:38.999Z</time></trkpt><trkpt lat="42.61138249717863" lon="-8.241771172867606"><ele>528.0</ele><time>2026-04-18T09:12:39.999Z</time></trkpt><trkpt lat="42.61133453582756" lon="-8.241664903412035"><ele>528.0</ele><time>2026-04-18T09:12:40.999Z</time></trkpt><trkpt lat="42.61130630923559" lon="-8.2415025722151"><ele>528.0</ele><time>2026-04-18T09:12:41.999Z</time></trkpt><trkpt lat="42.611279066482325" lon="-8.241291316100872"><ele>529.3333333333334</ele><time>2026-04-18T09:12:42.999Z</time></trkpt><trkpt lat="42.61123401505692" lon="-8.24106556036951"><ele>530.6666666666667</ele><time>2026-04-18T09:12:43.999Z</time></trkpt><trkpt lat="42.6111972113172" lon="-8.240824257990205"><ele>532.0</ele><time>2026-04-18T09:12:44.999Z</time></trkpt><trkpt lat="42.61116727032998" lon="-8.240624846427005"><ele>526.3333333333334</ele><time>2026-04-18T09:12:45.999Z</time></trkpt><trkpt lat="42.61113324359086" lon="-8.24043197333012"><ele>520.6666666666666</ele><time>2026-04-18T09:12:46.999Z</time></trkpt><trkpt lat="42.61111892423345" lon="-8.240231744943562"><ele>515.0</ele><time>2026-04-18T09:12:47.999Z</time></trkpt><trkpt lat="42.61110908103762" lon="-8.24000198842582"><ele>516.0</ele><time>2026-04-18T09:12:48.999Z</time></trkpt><trkpt lat="42.611095331926755" lon="-8.239760253902698"><ele>517.0</ele><time>2026-04-18T09:12:49.999Z</time></trkpt><trkpt lat="42.61106531082861" lon="-8.239552350268317"><ele>518.0</ele><time>2026-04-18T09:12:50.999Z</time></trkpt><trkpt lat="42.61104440392992" lon="-8.23938631969268"><ele>518.0</ele><time>2026-04-18T09:12:51.999Z</time></trkpt><trkpt lat="42.61104102613941" lon="-8.239234905619956"><ele>518.0</ele><time>2026-04-18T09:12:52.999Z</time></trkpt><trkpt lat="42.6110333049797" lon="-8.239104062563474"><ele>518.0</ele><time>2026-04-18T09:12:53.999Z</time></trkpt><trkpt lat="42.610966200890374" lon="-8.239007504662323"><ele>518.0</ele><time>2026-04-18T09:12:54.999Z</time></trkpt><trkpt lat="42.61086164582815" lon="-8.238920082387772"><ele>518.0</ele><time>2026-04-18T09:12:55.999Z</time></trkpt><trkpt lat="42.61070093866093" lon="-8.23875837547148"><ele>515.6666666666666</ele><time>2026-04-18T09:12:56.999Z</time></trkpt><trkpt lat="42.6105357058556" lon="-8.238572216367373"><ele>513.3333333333334</ele><time>2026-04-18T09:12:57.999Z</time></trkpt><trkpt lat="42.610345979997014" lon="-8.238391732521585"><ele>511.0</ele><time>2026-04-18T09:12:58.999Z</time></trkpt><trkpt lat="42.6101487227146" lon="-8.238235254482673"><ele>514.3333333333334</ele><time>2026-04-18T09:12:59.999Z</time></trkpt><trkpt lat="42.60999151153477" lon="-8.238101145666473"><ele>517.6666666666666</ele><time>2026-04-18T09:13:00.999Z</time></trkpt><trkpt lat="42.60985241145703" lon="-8.23796897181374"><ele>521.0</ele><time>2026-04-18T09:13:01.999Z</time></trkpt><trkpt lat="42.609733941367296" lon="-8.23783527905401"><ele>521.0</ele><time>2026-04-18T09:13:02.999Z</time></trkpt><trkpt lat="42.609595940007594" lon="-8.237681733428689"><ele>521.0</ele><time>2026-04-18T09:13:03.999Z</time></trkpt><trkpt lat="42.60947361079172" lon="-8.237514735417445"><ele>521.0</ele><time>2026-04-18T09:13:04.999Z</time></trkpt><trkpt lat="42.609378616718665" lon="-8.237390855343858"><ele>517.8</ele><time>2026-04-18T09:13:05.999Z</time></trkpt><trkpt lat="42.60934711597972" lon="-8.23730126383815"><ele>514.6</ele><time>2026-04-18T09:13:06.999Z</time></trkpt><trkpt lat="42.60933411398951" lon="-8.23720120383019"><ele>511.4</ele><time>2026-04-18T09:13:07.999Z</time></trkpt><trkpt lat="42.6093532147628" lon="-8.23704831748101"><ele>508.2</ele><time>2026-04-18T09:13:08.999Z</time></trkpt><trkpt lat="42.609391931462845" lon="-8.23687217230274"><ele>505.0</ele><time>2026-04-18T09:13:09.999Z</time></trkpt><trkpt lat="42.6094531121618" lon="-8.236701575232484"><ele>510.5</ele><time>2026-04-18T09:13:10.999Z</time></trkpt><trkpt lat="42.60952682269322" lon="-8.236525110586593"><ele>516.0</ele><time>2026-04-18T09:13:11.999Z</time></trkpt><trkpt lat="42.609584648506306" lon="-8.23636603854629"><ele>521.5</ele><time>2026-04-18T09:13:12.999Z</time></trkpt><trkpt lat="42.6095959427403" lon="-8.236207022709952"><ele>527.0</ele><time>2026-04-18T09:13:13.999Z</time></trkpt><trkpt lat="42.60958121324872" lon="-8.23598201051304"><ele>527.3333333333333</ele><time>2026-04-18T09:13:14.999Z</time></trkpt><trkpt lat="42.60957244843864" lon="-8.235732678192948"><ele>527.6666666666666</ele><time>2026-04-18T09:13:15.999Z</time></trkpt><trkpt lat="42.60954471944582" lon="-8.235517293687042"><ele>528.0</ele><time>2026-04-18T09:13:16.999Z</time></trkpt><trkpt lat="42.60950286254541" lon="-8.235327803485152"><ele>524.8</ele><time>2026-04-18T09:13:17.999Z</time></trkpt><trkpt lat="42.609468256651255" lon="-8.235189004387081"><ele>521.5999999999999</ele><time>2026-04-18T09:13:18.999Z</time></trkpt><trkpt lat="42.60942251278206" lon="-8.23505718607122"><ele>518.4000000000001</ele><time>2026-04-18T09:13:20Z</time></trkpt><trkpt lat="42.609377516706566" lon="-8.234944628494729"><ele>515.2</ele><time>2026-04-18T09:13:21Z</time></trkpt><trkpt lat="42.60938142631216" lon="-8.234816893160053"><ele>512.0</ele><time>2026-04-18T09:13:22Z</time></trkpt><trkpt lat="42.60937308932806" lon="-8.234669864145822"><ele>512.0</ele><time>2026-04-18T09:13:23Z</time></trkpt><trkpt lat="42.609333781603965" lon="-8.234544214253383"><ele>512.0</ele><time>2026-04-18T09:13:24Z</time></trkpt><trkpt lat="42.609243237639305" lon="-8.23441715576642"><ele>512.0</ele><time>2026-04-18T09:13:25Z</time></trkpt><trkpt lat="42.60915067091815" lon="-8.234254044293658"><ele>512.0</ele><time>2026-04-18T09:13:26Z</time></trkpt><trkpt lat="42.60905358042942" lon="-8.234077900125042"><ele>514.6666666666666</ele><time>2026-04-18T09:13:27Z</time></trkpt><trkpt lat="42.60892653571518" lon="-8.23391586704628"><ele>517.3333333333334</ele><time>2026-04-18T09:13:28Z</time></trkpt><trkpt lat="42.608804911242586" lon="-8.233750702776987"><ele>520.0</ele><time>2026-04-18T09:13:29Z</time></trkpt><trkpt lat="42.6086863481383" lon="-8.233571063549835"><ele>519.2</ele><time>2026-04-18T09:13:30Z</time></trkpt><trkpt lat="42.60861039648968" lon="-8.233397457633517"><ele>518.4</ele><time>2026-04-18T09:13:31Z</time></trkpt><trkpt lat="42.60854823131811" lon="-8.2332670435948"><ele>517.6</ele><time>2026-04-18T09:13:32Z</time></trkpt><trkpt lat="42.60849009340139" lon="-8.233189898741363"><ele>516.8</ele><time>2026-04-18T09:13:33Z</time></trkpt><trkpt lat="42.60841927372143" lon="-8.233160296052853"><ele>516.0</ele><time>2026-04-18T09:13:34Z</time></trkpt><trkpt lat="42.60830897340609" lon="-8.233136454745095"><ele>516.0</ele><time>2026-04-18T09:13:35Z</time></trkpt><trkpt lat="42.60818026252944" lon="-8.233087005246713"><ele>516.0</ele><time>2026-04-18T09:13:36Z</time></trkpt><trkpt lat="42.60806052929016" lon="-8.233074006570963"><ele>516.0</ele><time>2026-04-18T09:13:37Z</time></trkpt><trkpt lat="42.60792158730509" lon="-8.23309364218628"><ele>516.0</ele><time>2026-04-18T09:13:38Z</time></trkpt><trkpt lat="42.60777402179148" lon="-8.23313601835993"><ele>511.4</ele><time>2026-04-18T09:13:39Z</time></trkpt><trkpt lat="42.60763500116387" lon="-8.233187085122104"><ele>506.8</ele><time>2026-04-18T09:13:40Z</time></trkpt><trkpt lat="42.60752682804456" lon="-8.233205942620692"><ele>502.19999999999993</ele><time>2026-04-18T09:13:41Z</time></trkpt><trkpt lat="42.60744880626501" lon="-8.233231232009434"><ele>497.59999999999997</ele><time>2026-04-18T09:13:42Z</time></trkpt><trkpt lat="42.60738650972715" lon="-8.233245767611436"><ele>493.0</ele><time>2026-04-18T09:13:43Z</time></trkpt><trkpt lat="42.60734401040682" lon="-8.233309590850448"><ele>493.0</ele><time>2026-04-18T09:13:45Z</time></trkpt><trkpt lat="42.60747694704404" lon="-8.233404583708342"><ele>493.0</ele><time>2026-04-18T09:13:47Z</time></trkpt><trkpt lat="42.60758841327849" lon="-8.233410568828885"><ele>493.0</ele><time>2026-04-18T09:13:48Z</time></trkpt><trkpt lat="42.607711675979914" lon="-8.23339766334399"><ele>493.0</ele><time>2026-04-18T09:13:49Z</time></trkpt><trkpt lat="42.60780405226521" lon="-8.23334237741379"><ele>494.2</ele><time>2026-04-18T09:13:50Z</time></trkpt><trkpt lat="42.60791499984256" lon="-8.233314186915141"><ele>495.4</ele><time>2026-04-18T09:13:51Z</time></trkpt><trkpt lat="42.60801197020389" lon="-8.233311241158768"><ele>496.59999999999997</ele><time>2026-04-18T09:13:52Z</time></trkpt><trkpt lat="42.60809945499116" lon="-8.233378415263552"><ele>497.79999999999995</ele><time>2026-04-18T09:13:53Z</time></trkpt><trkpt lat="42.60815864882915" lon="-8.233473251277537"><ele>499.0</ele><time>2026-04-18T09:13:54Z</time></trkpt><trkpt lat="42.608136790571706" lon="-8.233597342333614"><ele>499.0</ele><time>2026-04-18T09:13:56Z</time></trkpt><trkpt lat="42.608087164635684" lon="-8.233688985810145"><ele>499.0</ele><time>2026-04-18T09:13:58Z</time></trkpt><trkpt lat="42.608009047123325" lon="-8.233781913363838"><ele>499.0</ele><time>2026-04-18T09:14:00Z</time></trkpt><trkpt lat="42.60791341025687" lon="-8.233990834913682"><ele>499.0</ele><time>2026-04-18T09:14:01Z</time></trkpt><trkpt lat="42.60786514216165" lon="-8.234086796620456"><ele>497.25</ele><time>2026-04-18T09:14:02Z</time></trkpt><trkpt lat="42.60784491747044" lon="-8.234198083414029"><ele>495.5</ele><time>2026-04-18T09:14:03Z</time></trkpt><trkpt lat="42.60795063070332" lon="-8.23427638794252"><ele>493.75</ele><time>2026-04-18T09:14:04Z</time></trkpt><trkpt lat="42.608049047405125" lon="-8.23440781513065"><ele>492.0</ele><time>2026-04-18T09:14:05Z</time></trkpt><trkpt lat="42.60812813828798" lon="-8.234515606610847"><ele>492.0</ele><time>2026-04-18T09:14:06Z</time></trkpt><trkpt lat="42.60822179099873" lon="-8.234654148229138"><ele>492.0</ele><time>2026-04-18T09:14:07Z</time></trkpt><trkpt lat="42.608302473347266" lon="-8.234799675336802"><ele>492.0</ele><time>2026-04-18T09:14:08Z</time></trkpt><trkpt lat="42.60834844108968" lon="-8.23491133827647"><ele>492.0</ele><time>2026-04-18T09:14:09Z</time></trkpt><trkpt lat="42.60833985871042" lon="-8.23502647387362"><ele>493.5</ele><time>2026-04-18T09:14:10Z</time></trkpt><trkpt lat="42.60831408942915" lon="-8.235112395628441"><ele>495.0</ele><time>2026-04-18T09:14:11Z</time></trkpt><trkpt lat="42.60825755114814" lon="-8.235208696300692"><ele>496.5</ele><time>2026-04-18T09:14:12Z</time></trkpt><trkpt lat="42.608140345720145" lon="-8.235241821769728"><ele>498.0</ele><time>2026-04-18T09:14:13Z</time></trkpt><trkpt lat="42.60796791005826" lon="-8.235286784206632"><ele>497.5</ele><time>2026-04-18T09:14:14Z</time></trkpt><trkpt lat="42.607812077577925" lon="-8.235320308172616"><ele>497.0</ele><time>2026-04-18T09:14:15Z</time></trkpt><trkpt lat="42.60767069010713" lon="-8.235347298171877"><ele>496.5</ele><time>2026-04-18T09:14:16Z</time></trkpt><trkpt lat="42.607577285151784" lon="-8.235397451189643"><ele>496.0</ele><time>2026-04-18T09:14:17Z</time></trkpt><trkpt lat="42.60750007748298" lon="-8.235456818087613"><ele>496.0</ele><time>2026-04-18T09:14:18Z</time></trkpt><trkpt lat="42.60756667098991" lon="-8.235396201562684"><ele>496.0</ele><time>2026-04-18T09:14:33Z</time></trkpt><trkpt lat="42.60771744380436" lon="-8.235411111643108"><ele>496.0</ele><time>2026-04-18T09:14:35Z</time></trkpt><trkpt lat="42.60781312561174" lon="-8.235496438116698"><ele>496.0</ele><time>2026-04-18T09:14:36Z</time></trkpt><trkpt lat="42.60789091828492" lon="-8.235599730344019"><ele>499.0</ele><time>2026-04-18T09:14:37Z</time></trkpt><trkpt lat="42.60795446882854" lon="-8.235727888092367"><ele>502.0</ele><time>2026-04-18T09:14:38Z</time></trkpt><trkpt lat="42.60806133023881" lon="-8.235874116504004"><ele>505.0</ele><time>2026-04-18T09:14:39Z</time></trkpt><trkpt lat="42.60815423387851" lon="-8.236052937621286"><ele>508.0</ele><time>2026-04-18T09:14:40Z</time></trkpt><trkpt lat="42.60820829945257" lon="-8.236225174778296"><ele>508.0</ele><time>2026-04-18T09:14:41Z</time></trkpt><trkpt lat="42.60820846142684" lon="-8.23638185218507"><ele>507.99999999999994</ele><time>2026-04-18T09:14:42Z</time></trkpt><trkpt lat="42.60819412106288" lon="-8.236479776969642"><ele>507.99999999999994</ele><time>2026-04-18T09:14:43Z</time></trkpt><trkpt lat="42.60807934983283" lon="-8.23658852395793"><ele>508.0</ele><time>2026-04-18T09:14:45Z</time></trkpt><trkpt lat="42.60798500486226" lon="-8.23660451405125"><ele>508.0</ele><time>2026-04-18T09:14:46Z</time></trkpt><trkpt lat="42.60787309106576" lon="-8.236627777223752"><ele>513.75</ele><time>2026-04-18T09:14:47Z</time></trkpt><trkpt lat="42.60776114772437" lon="-8.236647380803065"><ele>519.5</ele><time>2026-04-18T09:14:48Z</time></trkpt><trkpt lat="42.607628533210786" lon="-8.23666496842156"><ele>525.25</ele><time>2026-04-18T09:14:49Z</time></trkpt><trkpt lat="42.60749797888337" lon="-8.236731572591255"><ele>531.0</ele><time>2026-04-18T09:14:50Z</time></trkpt><trkpt lat="42.607376562839036" lon="-8.236790131906671"><ele>531.0</ele><time>2026-04-18T09:14:51Z</time></trkpt><trkpt lat="42.607305495396005" lon="-8.236857538468954"><ele>531.0</ele><time>2026-04-18T09:14:51.999Z</time></trkpt><trkpt lat="42.607273689793615" lon="-8.236933897031467"><ele>531.0</ele><time>2026-04-18T09:14:52.999Z</time></trkpt><trkpt lat="42.607274794991945" lon="-8.237097632456258"><ele>531.0</ele><time>2026-04-18T09:14:54.999Z</time></trkpt><trkpt lat="42.60728834458383" lon="-8.237213744499423"><ele>531.0</ele><time>2026-04-18T09:14:55.999Z</time></trkpt><trkpt lat="42.60730221558353" lon="-8.237366242481725"><ele>532.75</ele><time>2026-04-18T09:14:56.999Z</time></trkpt><trkpt lat="42.60728674406242" lon="-8.237519716119255"><ele>534.5</ele><time>2026-04-18T09:14:57.999Z</time></trkpt><trkpt lat="42.60722785028576" lon="-8.237674087201183"><ele>536.25</ele><time>2026-04-18T09:14:58.999Z</time></trkpt><trkpt lat="42.6071714415866" lon="-8.237860201518389"><ele>538.0</ele><time>2026-04-18T09:14:59.999Z</time></trkpt><trkpt lat="42.60709949556456" lon="-8.238033236859456"><ele>538.4</ele><time>2026-04-18T09:15:00.999Z</time></trkpt><trkpt lat="42.6070436225918" lon="-8.238147111038815"><ele>538.8</ele><time>2026-04-18T09:15:01.999Z</time></trkpt><trkpt lat="42.606992751305505" lon="-8.238205562422923"><ele>539.2</ele><time>2026-04-18T09:15:02.999Z</time></trkpt><trkpt lat="42.606907777137074" lon="-8.23818718087196"><ele>539.6</ele><time>2026-04-18T09:15:03.999Z</time></trkpt><trkpt lat="42.6067912787754" lon="-8.23816805046152"><ele>540.0</ele><time>2026-04-18T09:15:04.999Z</time></trkpt><trkpt lat="42.60667868778176" lon="-8.238137512329581"><ele>543.25</ele><time>2026-04-18T09:15:05.999Z</time></trkpt><trkpt lat="42.60655057277756" lon="-8.238105863731812"><ele>546.5</ele><time>2026-04-18T09:15:06.999Z</time></trkpt><trkpt lat="42.60643000949959" lon="-8.238142182032325"><ele>549.75</ele><time>2026-04-18T09:15:07.999Z</time></trkpt><trkpt lat="42.60630253553158" lon="-8.238219831814481"><ele>553.0</ele><time>2026-04-18T09:15:08.999Z</time></trkpt><trkpt lat="42.60619444268427" lon="-8.238323386949878"><ele>559.6666666666667</ele><time>2026-04-18T09:15:09.999Z</time></trkpt><trkpt lat="42.60609249375888" lon="-8.23846228242796"><ele>566.3333333333334</ele><time>2026-04-18T09:15:10.999Z</time></trkpt><trkpt lat="42.60600845494203" lon="-8.238629054602796"><ele>573.0</ele><time>2026-04-18T09:15:11.999Z</time></trkpt><trkpt lat="42.605907177729854" lon="-8.238821318544138"><ele>574.0</ele><time>2026-04-18T09:15:12.999Z</time></trkpt><trkpt lat="42.60580771832683" lon="-8.239033289408047"><ele>575.0</ele><time>2026-04-18T09:15:13.999Z</time></trkpt><trkpt lat="42.60569811904734" lon="-8.239265302849265"><ele>576.0</ele><time>2026-04-18T09:15:14.999Z</time></trkpt><trkpt lat="42.60556530178131" lon="-8.23949424933078"><ele>576.0</ele><time>2026-04-18T09:15:15.999Z</time></trkpt><trkpt lat="42.605416626589125" lon="-8.239714164809529"><ele>576.0</ele><time>2026-04-18T09:15:16.999Z</time></trkpt><trkpt lat="42.605269193881284" lon="-8.239915383641483"><ele>576.0</ele><time>2026-04-18T09:15:17.999Z</time></trkpt><trkpt lat="42.60513693079012" lon="-8.240080551495359"><ele>579.5</ele><time>2026-04-18T09:15:18.999Z</time></trkpt><trkpt lat="42.60503740056177" lon="-8.240236356584715"><ele>583.0</ele><time>2026-04-18T09:15:19.999Z</time></trkpt><trkpt lat="42.6049312572379" lon="-8.240337177293435"><ele>586.5</ele><time>2026-04-18T09:15:20.999Z</time></trkpt><trkpt lat="42.604847660312366" lon="-8.240407053821027"><ele>590.0</ele><time>2026-04-18T09:15:21.999Z</time></trkpt><trkpt lat="42.604754154867976" lon="-8.240424293535815"><ele>590.0</ele><time>2026-04-18T09:15:22.999Z</time></trkpt><trkpt lat="42.604644138151144" lon="-8.240412499802842"><ele>590.0</ele><time>2026-04-18T09:15:23.999Z</time></trkpt><trkpt lat="42.60452654402549" lon="-8.240366884966488"><ele>590.0</ele><time>2026-04-18T09:15:24.999Z</time></trkpt><trkpt lat="42.604380058534915" lon="-8.240316973152717"><ele>590.0</ele><time>2026-04-18T09:15:26Z</time></trkpt><trkpt lat="42.60421709309652" lon="-8.240313022177718"><ele>593.5</ele><time>2026-04-18T09:15:27Z</time></trkpt><trkpt lat="42.604037120965316" lon="-8.240321920967586"><ele>597.0</ele><time>2026-04-18T09:15:28Z</time></trkpt><trkpt lat="42.60389419503207" lon="-8.240341737465561"><ele>600.5</ele><time>2026-04-18T09:15:29Z</time></trkpt><trkpt lat="42.603779871970495" lon="-8.240404237570713"><ele>604.0</ele><time>2026-04-18T09:15:30Z</time></trkpt><trkpt lat="42.60369615615159" lon="-8.240499898519449"><ele>604.0</ele><time>2026-04-18T09:15:30.999Z</time></trkpt><trkpt lat="42.60366436744973" lon="-8.2406283584433"><ele>604.0</ele><time>2026-04-18T09:15:31.999Z</time></trkpt><trkpt lat="42.603618627506776" lon="-8.24077740234892"><ele>604.0</ele><time>2026-04-18T09:15:32.999Z</time></trkpt><trkpt lat="42.603583729843514" lon="-8.240938112302533"><ele>604.0</ele><time>2026-04-18T09:15:33.999Z</time></trkpt><trkpt lat="42.60356323936523" lon="-8.24110751440202"><ele>606.0</ele><time>2026-04-18T09:15:34.999Z</time></trkpt><trkpt lat="42.60353093677576" lon="-8.241248887590741"><ele>608.0</ele><time>2026-04-18T09:15:35.999Z</time></trkpt><trkpt lat="42.60347894072106" lon="-8.241364104727664"><ele>610.0</ele><time>2026-04-18T09:15:36.999Z</time></trkpt><trkpt lat="42.60340170166609" lon="-8.24143542644123"><ele>612.0</ele><time>2026-04-18T09:15:37.999Z</time></trkpt><trkpt lat="42.603331117716124" lon="-8.241461254244706"><ele>614.0</ele><time>2026-04-18T09:15:38.999Z</time></trkpt><trkpt lat="42.60327943894942" lon="-8.24140662314047"><ele>616.0</ele><time>2026-04-18T09:15:39.999Z</time></trkpt><trkpt lat="42.6032393011573" lon="-8.241331696756838"><ele>616.0</ele><time>2026-04-18T09:15:40.999Z</time></trkpt><trkpt lat="42.60320766508419" lon="-8.241217725050136"><ele>616.0</ele><time>2026-04-18T09:15:41.999Z</time></trkpt><trkpt lat="42.60318600454367" lon="-8.24108556038142"><ele>616.0</ele><time>2026-04-18T09:15:42.999Z</time></trkpt><trkpt lat="42.60314689322755" lon="-8.24093479898251"><ele>616.0</ele><time>2026-04-18T09:15:43.999Z</time></trkpt><trkpt lat="42.60308057601751" lon="-8.240780478569071"><ele>616.0</ele><time>2026-04-18T09:15:44.999Z</time></trkpt><trkpt lat="42.602984647046085" lon="-8.240608922405606"><ele>615.3333333333334</ele><time>2026-04-18T09:15:45.999Z</time></trkpt><trkpt lat="42.60288939042269" lon="-8.240455110758269"><ele>614.6666666666666</ele><time>2026-04-18T09:15:46.999Z</time></trkpt><trkpt lat="42.60277621031506" lon="-8.240293737867395"><ele>614.0</ele><time>2026-04-18T09:15:47.999Z</time></trkpt><trkpt lat="42.60264890469128" lon="-8.240140679444968"><ele>618.0</ele><time>2026-04-18T09:15:48.999Z</time></trkpt><trkpt lat="42.602528616942244" lon="-8.24000727016601"><ele>622.0</ele><time>2026-04-18T09:15:49.999Z</time></trkpt><trkpt lat="42.60240741964596" lon="-8.239953390089"><ele>626.0</ele><time>2026-04-18T09:15:50.999Z</time></trkpt><trkpt lat="42.6022902693296" lon="-8.239954946382934"><ele>630.0</ele><time>2026-04-18T09:15:51.999Z</time></trkpt><trkpt lat="42.6021451495722" lon="-8.239985503468045"><ele>630.0</ele><time>2026-04-18T09:15:52.999Z</time></trkpt><trkpt lat="42.60200703276868" lon="-8.240008121473162"><ele>630.0</ele><time>2026-04-18T09:15:53.999Z</time></trkpt><trkpt lat="42.60186731830229" lon="-8.240030461735383"><ele>630.0</ele><time>2026-04-18T09:15:54.999Z</time></trkpt><trkpt lat="42.60173486046455" lon="-8.240029060726823"><ele>630.0</ele><time>2026-04-18T09:15:55.999Z</time></trkpt><trkpt lat="42.60161969203171" lon="-8.239987461548868"><ele>631.25</ele><time>2026-04-18T09:15:56.999Z</time></trkpt><trkpt lat="42.60149318866959" lon="-8.239931344420096"><ele>632.5</ele><time>2026-04-18T09:15:57.999Z</time></trkpt><trkpt lat="42.60135047598673" lon="-8.239868577603456"><ele>633.75</ele><time>2026-04-18T09:15:58.999Z</time></trkpt><trkpt lat="42.60119077191928" lon="-8.239813585576261"><ele>635.0</ele><time>2026-04-18T09:15:59.999Z</time></trkpt><trkpt lat="42.60101367934034" lon="-8.239782959069654"><ele>635.0</ele><time>2026-04-18T09:16:00.999Z</time></trkpt><trkpt lat="42.60082478688534" lon="-8.239762963443896"><ele>635.0</ele><time>2026-04-18T09:16:01.999Z</time></trkpt><trkpt lat="42.60062563476447" lon="-8.239739999780301"><ele>635.0</ele><time>2026-04-18T09:16:02.999Z</time></trkpt><trkpt lat="42.60043545044488" lon="-8.239726657500539"><ele>637.6666666666666</ele><time>2026-04-18T09:16:03.999Z</time></trkpt><trkpt lat="42.60023814821233" lon="-8.23969942809698"><ele>640.3333333333334</ele><time>2026-04-18T09:16:04.999Z</time></trkpt><trkpt lat="42.60005988847847" lon="-8.23965678439199"><ele>643.0</ele><time>2026-04-18T09:16:05.999Z</time></trkpt><trkpt lat="42.59990396150716" lon="-8.239617569307176"><ele>643.0</ele><time>2026-04-18T09:16:06.999Z</time></trkpt><trkpt lat="42.599769281864404" lon="-8.239564511142854"><ele>643.0</ele><time>2026-04-18T09:16:07.999Z</time></trkpt><trkpt lat="42.599655923174275" lon="-8.23948863324726"><ele>643.0</ele><time>2026-04-18T09:16:08.999Z</time></trkpt><trkpt lat="42.599533744952176" lon="-8.239392570526464"><ele>643.0</ele><time>2026-04-18T09:16:09.999Z</time></trkpt><trkpt lat="42.59940507737599" lon="-8.239289958289922"><ele>646.6666666666667</ele><time>2026-04-18T09:16:10.999Z</time></trkpt><trkpt lat="42.599271352525314" lon="-8.239195557039785"><ele>650.3333333333334</ele><time>2026-04-18T09:16:11.999Z</time></trkpt><trkpt lat="42.59911614865189" lon="-8.239096717265028"><ele>654.0</ele><time>2026-04-18T09:16:12.999Z</time></trkpt><trkpt lat="42.59898577144984" lon="-8.239002704251954"><ele>653.0</ele><time>2026-04-18T09:16:13.999Z</time></trkpt><trkpt lat="42.59886751740824" lon="-8.238927752024118"><ele>652.0</ele><time>2026-04-18T09:16:14.999Z</time></trkpt><trkpt lat="42.598738322186975" lon="-8.238889074022572"><ele>651.0</ele><time>2026-04-18T09:16:15.999Z</time></trkpt><trkpt lat="42.59860550345119" lon="-8.238901332268338"><ele>650.0</ele><time>2026-04-18T09:16:16.999Z</time></trkpt><trkpt lat="42.598458099934916" lon="-8.238951390546344"><ele>650.0</ele><time>2026-04-18T09:16:17.999Z</time></trkpt><trkpt lat="42.598325040658764" lon="-8.238999337677042"><ele>650.0</ele><time>2026-04-18T09:16:18.999Z</time></trkpt><trkpt lat="42.598208224304415" lon="-8.23900294456493"><ele>650.0</ele><time>2026-04-18T09:16:19.999Z</time></trkpt><trkpt lat="42.59813938868186" lon="-8.238953672324868"><ele>650.0</ele><time>2026-04-18T09:16:20.999Z</time></trkpt><trkpt lat="42.598106688432765" lon="-8.23885541826342"><ele>650.0</ele><time>2026-04-18T09:16:21.999Z</time></trkpt><trkpt lat="42.598089248585055" lon="-8.238733624906219"><ele>650.0</ele><time>2026-04-18T09:16:22.999Z</time></trkpt><trkpt lat="42.59805600100712" lon="-8.238580639442487"><ele>650.0</ele><time>2026-04-18T09:16:23.999Z</time></trkpt><trkpt lat="42.597999354703184" lon="-8.238430232610167"><ele>650.0</ele><time>2026-04-18T09:16:24.999Z</time></trkpt><trkpt lat="42.59794293252166" lon="-8.238302866099176"><ele>650.0</ele><time>2026-04-18T09:16:25.999Z</time></trkpt><trkpt lat="42.597886330445434" lon="-8.238146526432052"><ele>653.4</ele><time>2026-04-18T09:16:26.999Z</time></trkpt><trkpt lat="42.59782079186816" lon="-8.238090253355752"><ele>656.8</ele><time>2026-04-18T09:16:27.999Z</time></trkpt><trkpt lat="42.597712391175065" lon="-8.23813446153328"><ele>660.2</ele><time>2026-04-18T09:16:29.999Z</time></trkpt><trkpt lat="42.59761719112721" lon="-8.238246805328266"><ele>663.6</ele><time>2026-04-18T09:16:31.999Z</time></trkpt><trkpt lat="42.59755204266206" lon="-8.238360209812596"><ele>667.0</ele><time>2026-04-18T09:16:32.999Z</time></trkpt><trkpt lat="42.597523608692356" lon="-8.23850150581116"><ele>667.0</ele><time>2026-04-18T09:16:33.999Z</time></trkpt><trkpt lat="42.597483275720215" lon="-8.238653908952056"><ele>667.0</ele><time>2026-04-18T09:16:34.999Z</time></trkpt><trkpt lat="42.59745201885749" lon="-8.238754355378022"><ele>667.0</ele><time>2026-04-18T09:16:35.999Z</time></trkpt><trkpt lat="42.59743374284847" lon="-8.238843901628451"><ele>667.0</ele><time>2026-04-18T09:16:36.999Z</time></trkpt><trkpt lat="42.59733513276552" lon="-8.238935778961338"><ele>667.0</ele><time>2026-04-18T09:16:38.999Z</time></trkpt><trkpt lat="42.5972478611001" lon="-8.238930693971346"><ele>668.8</ele><time>2026-04-18T09:16:40.999Z</time></trkpt><trkpt lat="42.59719607022266" lon="-8.238982774148795"><ele>670.6</ele><time>2026-04-18T09:16:42.999Z</time></trkpt><trkpt lat="42.59722811698785" lon="-8.23915277528238"><ele>672.4</ele><time>2026-04-18T09:16:44.999Z</time></trkpt><trkpt lat="42.59723798476357" lon="-8.239271720441648"><ele>674.1999999999999</ele><time>2026-04-18T09:16:45.999Z</time></trkpt><trkpt lat="42.59724591513205" lon="-8.239396120499773"><ele>676.0</ele><time>2026-04-18T09:16:46.999Z</time></trkpt><trkpt lat="42.59723535546732" lon="-8.239498381123923"><ele>676.0</ele><time>2026-04-18T09:16:47.999Z</time></trkpt><trkpt lat="42.597215677584344" lon="-8.23960313206243"><ele>676.0</ele><time>2026-04-18T09:16:48.999Z</time></trkpt><trkpt lat="42.59719133834599" lon="-8.23972145355716"><ele>676.0</ele><time>2026-04-18T09:16:49.999Z</time></trkpt><trkpt lat="42.5971841425229" lon="-8.239869226159005"><ele>676.0</ele><time>2026-04-18T09:16:50.999Z</time></trkpt><trkpt lat="42.597185844117604" lon="-8.240062169081492"><ele>676.0</ele><time>2026-04-18T09:16:51.999Z</time></trkpt><trkpt lat="42.59719376529802" lon="-8.240232006588393"><ele>678.0</ele><time>2026-04-18T09:16:52.999Z</time></trkpt><trkpt lat="42.59718841160663" lon="-8.24039530958381"><ele>680.0</ele><time>2026-04-18T09:16:53.999Z</time></trkpt><trkpt lat="42.597194208467" lon="-8.240557690088421"><ele>682.0</ele><time>2026-04-18T09:16:54.999Z</time></trkpt><trkpt lat="42.597199896929695" lon="-8.24071198604748"><ele>684.0</ele><time>2026-04-18T09:16:55.999Z</time></trkpt><trkpt lat="42.59720117934456" lon="-8.240857713804507"><ele>686.2</ele><time>2026-04-18T09:16:56.999Z</time></trkpt><trkpt lat="42.59718327265774" lon="-8.240987320350703"><ele>688.4000000000001</ele><time>2026-04-18T09:16:57.999Z</time></trkpt><trkpt lat="42.597172863937224" lon="-8.241113127820805"><ele>690.6</ele><time>2026-04-18T09:16:58.999Z</time></trkpt><trkpt lat="42.597205381765704" lon="-8.241234285915418"><ele>692.8</ele><time>2026-04-18T09:16:59.999Z</time></trkpt><trkpt lat="42.59725468916474" lon="-8.24134848569214"><ele>695.0</ele><time>2026-04-18T09:17:00.999Z</time></trkpt><trkpt lat="42.59726533504763" lon="-8.24148284605193"><ele>697.4</ele><time>2026-04-18T09:17:01.999Z</time></trkpt><trkpt lat="42.597259104619354" lon="-8.241609064222278"><ele>699.8</ele><time>2026-04-18T09:17:02.999Z</time></trkpt><trkpt lat="42.597224995146235" lon="-8.241738980224916"><ele>702.2</ele><time>2026-04-18T09:17:03.998Z</time></trkpt><trkpt lat="42.59720259672607" lon="-8.241869556782161"><ele>704.6</ele><time>2026-04-18T09:17:04.998Z</time></trkpt><trkpt lat="42.597182546442156" lon="-8.242000357424244"><ele>707.0</ele><time>2026-04-18T09:17:05.998Z</time></trkpt><trkpt lat="42.59718339284571" lon="-8.242158489566409"><ele>707.0</ele><time>2026-04-18T09:17:07.998Z</time></trkpt><trkpt lat="42.59721456068114" lon="-8.24226356861222"><ele>707.0</ele><time>2026-04-18T09:17:08.998Z</time></trkpt><trkpt lat="42.597246969930964" lon="-8.242388293681277"><ele>707.0</ele><time>2026-04-18T09:17:09.998Z</time></trkpt><trkpt lat="42.597251235535175" lon="-8.242512685945014"><ele>707.0</ele><time>2026-04-18T09:17:10.998Z</time></trkpt><trkpt lat="42.59723650420817" lon="-8.242659297917474"><ele>707.0</ele><time>2026-04-18T09:17:11.998Z</time></trkpt><trkpt lat="42.59720182184465" lon="-8.242789690449165"><ele>709.5</ele><time>2026-04-18T09:17:12.998Z</time></trkpt><trkpt lat="42.59717486284232" lon="-8.242900680146368"><ele>712.0</ele><time>2026-04-18T09:17:13.998Z</time></trkpt><trkpt lat="42.597169719973756" lon="-8.243011856213922"><ele>714.5</ele><time>2026-04-18T09:17:14.998Z</time></trkpt><trkpt lat="42.597186496908975" lon="-8.24314681701083"><ele>717.0</ele><time>2026-04-18T09:17:15.998Z</time></trkpt><trkpt lat="42.59722426603742" lon="-8.243245019552594"><ele>719.5</ele><time>2026-04-18T09:17:16.998Z</time></trkpt><trkpt lat="42.59729556167044" lon="-8.243277881135379"><ele>722.0</ele><time>2026-04-18T09:17:17.998Z</time></trkpt><trkpt lat="42.597384061643" lon="-8.243360433447677"><ele>725.5</ele><time>2026-04-18T09:17:18.998Z</time></trkpt><trkpt lat="42.59746492352955" lon="-8.243444333289863"><ele>729.0</ele><time>2026-04-18T09:17:19.998Z</time></trkpt><trkpt lat="42.597574864533485" lon="-8.243512206580656"><ele>732.5</ele><time>2026-04-18T09:17:20.998Z</time></trkpt><trkpt lat="42.59769420387056" lon="-8.243604436685708"><ele>736.0</ele><time>2026-04-18T09:17:21.998Z</time></trkpt><trkpt lat="42.59778338437732" lon="-8.243699111329695"><ele>736.0</ele><time>2026-04-18T09:17:22.998Z</time></trkpt><trkpt lat="42.59781993263804" lon="-8.24379883748407"><ele>736.0</ele><time>2026-04-18T09:17:23.998Z</time></trkpt><trkpt lat="42.597846829726926" lon="-8.243932010155241"><ele>736.0</ele><time>2026-04-18T09:17:24.998Z</time></trkpt><trkpt lat="42.59790008804294" lon="-8.244153891583373"><ele>736.0</ele><time>2026-04-18T09:17:25.998Z</time></trkpt><trkpt lat="42.59797117628996" lon="-8.244369883364778"><ele>736.6666666666667</ele><time>2026-04-18T09:17:26.998Z</time></trkpt><trkpt lat="42.59804967646513" lon="-8.244576151206278"><ele>737.3333333333334</ele><time>2026-04-18T09:17:27.998Z</time></trkpt><trkpt lat="42.5981252687979" lon="-8.244817288246884"><ele>738.0</ele><time>2026-04-18T09:17:28.998Z</time></trkpt><trkpt lat="42.598176029871674" lon="-8.245037591660633"><ele>740.5</ele><time>2026-04-18T09:17:29.998Z</time></trkpt><trkpt lat="42.59823246140342" lon="-8.245251829937907"><ele>743.0</ele><time>2026-04-18T09:17:30.998Z</time></trkpt><trkpt lat="42.59828586203674" lon="-8.245446340022099"><ele>745.5</ele><time>2026-04-18T09:17:32Z</time></trkpt><trkpt lat="42.59832620195781" lon="-8.24560118031476"><ele>748.0</ele><time>2026-04-18T09:17:33Z</time></trkpt><trkpt lat="42.59833735564846" lon="-8.245692924691484"><ele>750.2</ele><time>2026-04-18T09:17:34Z</time></trkpt><trkpt lat="42.59831644491457" lon="-8.245802852371174"><ele>752.4</ele><time>2026-04-18T09:17:36Z</time></trkpt><trkpt lat="42.59830589308496" lon="-8.245916779768368"><ele>754.6</ele><time>2026-04-18T09:17:37Z</time></trkpt><trkpt lat="42.59830432506217" lon="-8.246030510785602"><ele>756.8000000000001</ele><time>2026-04-18T09:17:38Z</time></trkpt><trkpt lat="42.59824094897358" lon="-8.246154616512614"><ele>759.0</ele><time>2026-04-18T09:17:39Z</time></trkpt><trkpt lat="42.59820926821253" lon="-8.246306005996159"><ele>759.0</ele><time>2026-04-18T09:17:40Z</time></trkpt><trkpt lat="42.59819718667286" lon="-8.246434781239923"><ele>759.0</ele><time>2026-04-18T09:17:41Z</time></trkpt><trkpt lat="42.59817741391819" lon="-8.24658539527071"><ele>759.0</ele><time>2026-04-18T09:17:42Z</time></trkpt><trkpt lat="42.598148380537715" lon="-8.246752246279689"><ele>759.0</ele><time>2026-04-18T09:17:43Z</time></trkpt><trkpt lat="42.59813353924127" lon="-8.246928921536007"><ele>759.8000000000001</ele><time>2026-04-18T09:17:44Z</time></trkpt><trkpt lat="42.5981256359803" lon="-8.247099147907651"><ele>760.6</ele><time>2026-04-18T09:17:45Z</time></trkpt><trkpt lat="42.598114211336494" lon="-8.247238967496823"><ele>761.4</ele><time>2026-04-18T09:17:46Z</time></trkpt><trkpt lat="42.59808796949014" lon="-8.247354256140031"><ele>762.2</ele><time>2026-04-18T09:17:47Z</time></trkpt><trkpt lat="42.5980239296842" lon="-8.247461789897613"><ele>763.0</ele><time>2026-04-18T09:17:48Z</time></trkpt><trkpt lat="42.597932427585356" lon="-8.247565559801494"><ele>763.5</ele><time>2026-04-18T09:17:49Z</time></trkpt><trkpt lat="42.59784824678513" lon="-8.2476825537101"><ele>764.0</ele><time>2026-04-18T09:17:50Z</time></trkpt><trkpt lat="42.597768624404985" lon="-8.247778742677077"><ele>764.5</ele><time>2026-04-18T09:17:51Z</time></trkpt><trkpt lat="42.59772377032136" lon="-8.24785398402682"><ele>765.0</ele><time>2026-04-18T09:17:53Z</time></trkpt><trkpt lat="42.597649330338946" lon="-8.247851247108121"><ele>765.5</ele><time>2026-04-18T09:18:00.999Z</time></trkpt><trkpt lat="42.59760925391013" lon="-8.247927065440022"><ele>766.0</ele><time>2026-04-18T09:18:02.999Z</time></trkpt><trkpt lat="42.59746508239667" lon="-8.248079231469278"><ele>768.8333333333334</ele><time>2026-04-18T09:18:11.999Z</time></trkpt><trkpt lat="42.59740927624376" lon="-8.248137273103103"><ele>771.6666666666667</ele><time>2026-04-18T09:18:12.999Z</time></trkpt><trkpt lat="42.59734816325897" lon="-8.248199231851657"><ele>774.5</ele><time>2026-04-18T09:18:13.999Z</time></trkpt><trkpt lat="42.59729902990878" lon="-8.248252842487537"><ele>777.3333333333334</ele><time>2026-04-18T09:18:14.999Z</time></trkpt><trkpt lat="42.59723765076985" lon="-8.248311127131112"><ele>780.1666666666666</ele><time>2026-04-18T09:18:15.999Z</time></trkpt><trkpt lat="42.59716627946915" lon="-8.24837151434101"><ele>783.0</ele><time>2026-04-18T09:18:16.999Z</time></trkpt><trkpt lat="42.59709582514598" lon="-8.248452022781716"><ele>783.0</ele><time>2026-04-18T09:18:17.999Z</time></trkpt><trkpt lat="42.59701789631202" lon="-8.248528249964114"><ele>783.0</ele><time>2026-04-18T09:18:18.999Z</time></trkpt><trkpt lat="42.596947916299484" lon="-8.248615226690983"><ele>783.0</ele><time>2026-04-18T09:18:19.999Z</time></trkpt><trkpt lat="42.59687510263758" lon="-8.248703884894327"><ele>783.0</ele><time>2026-04-18T09:18:20.999Z</time></trkpt><trkpt lat="42.59679070005749" lon="-8.248793265128201"><ele>783.0</ele><time>2026-04-18T09:18:21.999Z</time></trkpt><trkpt lat="42.596701432714816" lon="-8.248891713217052"><ele>786.0</ele><time>2026-04-18T09:18:22.999Z</time></trkpt><trkpt lat="42.59661378460677" lon="-8.249019872564137"><ele>789.0</ele><time>2026-04-18T09:18:23.999Z</time></trkpt><trkpt lat="42.59653618205538" lon="-8.24915863009644"><ele>792.0</ele><time>2026-04-18T09:18:24.999Z</time></trkpt><trkpt lat="42.59643395698513" lon="-8.249308111203288"><ele>795.0</ele><time>2026-04-18T09:18:25.999Z</time></trkpt><trkpt lat="42.59632339190622" lon="-8.249456441207645"><ele>795.0</ele><time>2026-04-18T09:18:26.999Z</time></trkpt><trkpt lat="42.59620264454862" lon="-8.24961673894084"><ele>795.0</ele><time>2026-04-18T09:18:27.999Z</time></trkpt><trkpt lat="42.596087966576405" lon="-8.249749225101434"><ele>795.0</ele><time>2026-04-18T09:18:28.999Z</time></trkpt><trkpt lat="42.595971291801675" lon="-8.249842386450062"><ele>798.0</ele><time>2026-04-18T09:18:29.999Z</time></trkpt><trkpt lat="42.595849242357865" lon="-8.249925342796919"><ele>801.0</ele><time>2026-04-18T09:18:30.999Z</time></trkpt><trkpt lat="42.595709198175896" lon="-8.249989082306573"><ele>804.0</ele><time>2026-04-18T09:18:31.999Z</time></trkpt><trkpt lat="42.59560025409076" lon="-8.250032150047764"><ele>807.0</ele><time>2026-04-18T09:18:32.999Z</time></trkpt><trkpt lat="42.59548749876487" lon="-8.250082825267123"><ele>807.0</ele><time>2026-04-18T09:18:33.999Z</time></trkpt><trkpt lat="42.59536336929551" lon="-8.250138818082696"><ele>807.0</ele><time>2026-04-18T09:18:34.999Z</time></trkpt><trkpt lat="42.595251929190745" lon="-8.250221201364134"><ele>807.0</ele><time>2026-04-18T09:18:35.999Z</time></trkpt><trkpt lat="42.59518405154515" lon="-8.250312921217411"><ele>807.0</ele><time>2026-04-18T09:18:36.999Z</time></trkpt><trkpt lat="42.59504774739122" lon="-8.250216058022877"><ele>809.3333333333334</ele><time>2026-04-18T09:18:47.999Z</time></trkpt><trkpt lat="42.59498885962377" lon="-8.250157290433908"><ele>811.6666666666667</ele><time>2026-04-18T09:18:48.999Z</time></trkpt><trkpt lat="42.59490447158744" lon="-8.250065961256173"><ele>814.0</ele><time>2026-04-18T09:18:49.999Z</time></trkpt><trkpt lat="42.59482138724625" lon="-8.249971198285326"><ele>816.3333333333334</ele><time>2026-04-18T09:18:50.999Z</time></trkpt><trkpt lat="42.59474122662223" lon="-8.249910987950305"><ele>818.6666666666667</ele><time>2026-04-18T09:18:51.999Z</time></trkpt><trkpt lat="42.59467610541904" lon="-8.249892239065472"><ele>821.0</ele><time>2026-04-18T09:18:52.999Z</time></trkpt><trkpt lat="42.59456517295837" lon="-8.249934770176656"><ele>822.8</ele><time>2026-04-18T09:18:54.999Z</time></trkpt><trkpt lat="42.594501827471994" lon="-8.249989174829329"><ele>824.5999999999999</ele><time>2026-04-18T09:18:55.999Z</time></trkpt><trkpt lat="42.59442007208733" lon="-8.250033145520192"><ele>826.4</ele><time>2026-04-18T09:18:56.999Z</time></trkpt><trkpt lat="42.59432113058258" lon="-8.250067275555248"><ele>828.2</ele><time>2026-04-18T09:18:57.999Z</time></trkpt><trkpt lat="42.59421867049528" lon="-8.250105378869064"><ele>830.0</ele><time>2026-04-18T09:18:58.999Z</time></trkpt><trkpt lat="42.594132255703286" lon="-8.250163127199485"><ele>830.0</ele><time>2026-04-18T09:18:59.999Z</time></trkpt><trkpt lat="42.59405277686734" lon="-8.250211833759142"><ele>830.0</ele><time>2026-04-18T09:19:00.999Z</time></trkpt><trkpt lat="42.59396581766595" lon="-8.250256871240756"><ele>830.0</ele><time>2026-04-18T09:19:01.999Z</time></trkpt><trkpt lat="42.59387155381466" lon="-8.250290754533518"><ele>830.0</ele><time>2026-04-18T09:19:02.999Z</time></trkpt><trkpt lat="42.593779557512974" lon="-8.250337207888954"><ele>830.0</ele><time>2026-04-18T09:19:03.999Z</time></trkpt><trkpt lat="42.5936908909156" lon="-8.250393503191853"><ele>830.6666666666667</ele><time>2026-04-18T09:19:04.999Z</time></trkpt><trkpt lat="42.59360141904285" lon="-8.250449179966326"><ele>831.3333333333334</ele><time>2026-04-18T09:19:05.999Z</time></trkpt><trkpt lat="42.59351039155496" lon="-8.250502812565076"><ele>832.0</ele><time>2026-04-18T09:19:06.999Z</time></trkpt><trkpt lat="42.593436605982355" lon="-8.250530397696368"><ele>832.6666666666667</ele><time>2026-04-18T09:19:07.999Z</time></trkpt><trkpt lat="42.59334093861594" lon="-8.250484695412537"><ele>833.3333333333334</ele><time>2026-04-18T09:19:09.999Z</time></trkpt><trkpt lat="42.593274394390136" lon="-8.250452377516307"><ele>834.0</ele><time>2026-04-18T09:19:10.999Z</time></trkpt><trkpt lat="42.593166636848075" lon="-8.25043714074004"><ele>834.0</ele><time>2026-04-18T09:19:11.999Z</time></trkpt><trkpt lat="42.5930398912177" lon="-8.250434524243174"><ele>834.0</ele><time>2026-04-18T09:19:12.999Z</time></trkpt><trkpt lat="42.592899132163716" lon="-8.250447011109586"><ele>834.0</ele><time>2026-04-18T09:19:13.999Z</time></trkpt><trkpt lat="42.592771456019065" lon="-8.250464963159056"><ele>834.0</ele><time>2026-04-18T09:19:14.999Z</time></trkpt><trkpt lat="42.59264346408847" lon="-8.250473567869609"><ele>831.75</ele><time>2026-04-18T09:19:15.999Z</time></trkpt><trkpt lat="42.59251830791442" lon="-8.250488811052048"><ele>829.5</ele><time>2026-04-18T09:19:16.999Z</time></trkpt><trkpt lat="42.592406575371754" lon="-8.250504238869379"><ele>827.25</ele><time>2026-04-18T09:19:17.998Z</time></trkpt><trkpt lat="42.5922954509331" lon="-8.25051940175143"><ele>825.0</ele><time>2026-04-18T09:19:18.998Z</time></trkpt><trkpt lat="42.59218669645171" lon="-8.250532955520617"><ele>825.0</ele><time>2026-04-18T09:19:19.998Z</time></trkpt><trkpt lat="42.5920768554751" lon="-8.250546388915113"><ele>825.0</ele><time>2026-04-18T09:19:20.998Z</time></trkpt><trkpt lat="42.591972944546654" lon="-8.250555330012881"><ele>825.0</ele><time>2026-04-18T09:19:21.998Z</time></trkpt><trkpt lat="42.59187392471696" lon="-8.250559447724212"><ele>825.0</ele><time>2026-04-18T09:19:22.998Z</time></trkpt><trkpt lat="42.59176867738122" lon="-8.250557608508998"><ele>825.0</ele><time>2026-04-18T09:19:23.998Z</time></trkpt><trkpt lat="42.5916562633684" lon="-8.250550018707727"><ele>821.0</ele><time>2026-04-18T09:19:24.998Z</time></trkpt><trkpt lat="42.591526362251074" lon="-8.250540600426778"><ele>817.0</ele><time>2026-04-18T09:19:25.998Z</time></trkpt><trkpt lat="42.591405768119785" lon="-8.25052925733858"><ele>813.0</ele><time>2026-04-18T09:19:26.998Z</time></trkpt><trkpt lat="42.59129464937435" lon="-8.250518272263324"><ele>809.0</ele><time>2026-04-18T09:19:27.998Z</time></trkpt><trkpt lat="42.59119587733493" lon="-8.250507957187722"><ele>811.0</ele><time>2026-04-18T09:19:28.998Z</time></trkpt><trkpt lat="42.591102645502914" lon="-8.250513937758795"><ele>813.0</ele><time>2026-04-18T09:19:29.998Z</time></trkpt><trkpt lat="42.59101738131211" lon="-8.250527038056278"><ele>815.0</ele><time>2026-04-18T09:19:30.998Z</time></trkpt><trkpt lat="42.59092735715963" lon="-8.250554799940694"><ele>817.0</ele><time>2026-04-18T09:19:31.998Z</time></trkpt><trkpt lat="42.5908288646577" lon="-8.250592719435494"><ele>819.0</ele><time>2026-04-18T09:19:32.998Z</time></trkpt><trkpt lat="42.59071323476586" lon="-8.250640502792866"><ele>819.0</ele><time>2026-04-18T09:19:33.998Z</time></trkpt><trkpt lat="42.590606155532875" lon="-8.250686118492423"><ele>819.0</ele><time>2026-04-18T09:19:34.998Z</time></trkpt><trkpt lat="42.590512720514994" lon="-8.250725467690065"><ele>819.0</ele><time>2026-04-18T09:19:35.998Z</time></trkpt><trkpt lat="42.590422359402176" lon="-8.250769130390536"><ele>819.0</ele><time>2026-04-18T09:19:36.998Z</time></trkpt><trkpt lat="42.5903333490415" lon="-8.250796728547067"><ele>819.0</ele><time>2026-04-18T09:19:38Z</time></trkpt><trkpt lat="42.590251181964085" lon="-8.250788211980954"><ele>816.8333333333334</ele><time>2026-04-18T09:19:39Z</time></trkpt><trkpt lat="42.59017351763331" lon="-8.250774157458384"><ele>814.6666666666667</ele><time>2026-04-18T09:19:40Z</time></trkpt><trkpt lat="42.59009788940822" lon="-8.250759521374041"><ele>812.5</ele><time>2026-04-18T09:19:41Z</time></trkpt><trkpt lat="42.590014845368806" lon="-8.250737879882214"><ele>810.3333333333334</ele><time>2026-04-18T09:19:42Z</time></trkpt><trkpt lat="42.58992813190409" lon="-8.250709589743519"><ele>808.1666666666667</ele><time>2026-04-18T09:19:43Z</time></trkpt><trkpt lat="42.589832934828635" lon="-8.250682476488953"><ele>806.0</ele><time>2026-04-18T09:19:44Z</time></trkpt><trkpt lat="42.5897473136027" lon="-8.25067029022419"><ele>806.0</ele><time>2026-04-18T09:19:45Z</time></trkpt><trkpt lat="42.58967500275666" lon="-8.250647286662232"><ele>806.0</ele><time>2026-04-18T09:19:46Z</time></trkpt><trkpt lat="42.58960400149481" lon="-8.250631835041007"><ele>806.0</ele><time>2026-04-18T09:19:47Z</time></trkpt><trkpt lat="42.589532948975304" lon="-8.250617736986007"><ele>806.0</ele><time>2026-04-18T09:19:48Z</time></trkpt><trkpt lat="42.58946236868467" lon="-8.25060591066064"><ele>806.0</ele><time>2026-04-18T09:19:49Z</time></trkpt><trkpt lat="42.589389070153246" lon="-8.250589980319871"><ele>806.0</ele><time>2026-04-18T09:19:50Z</time></trkpt><trkpt lat="42.589309644372946" lon="-8.250585884978255"><ele>806.0</ele><time>2026-04-18T09:19:51Z</time></trkpt><trkpt lat="42.58921990602711" lon="-8.250571781710972"><ele>801.5000000000001</ele><time>2026-04-18T09:19:52Z</time></trkpt><trkpt lat="42.58914651868553" lon="-8.250555886522758"><ele>797.0</ele><time>2026-04-18T09:19:53Z</time></trkpt><trkpt lat="42.58910254595986" lon="-8.250456262446203"><ele>792.5</ele><time>2026-04-18T09:19:56Z</time></trkpt><trkpt lat="42.58916561233548" lon="-8.250356248935395"><ele>788.0</ele><time>2026-04-18T09:19:58Z</time></trkpt><trkpt lat="42.589207465959625" lon="-8.250260578703275"><ele>783.5000000000001</ele><time>2026-04-18T09:19:59Z</time></trkpt><trkpt lat="42.58925303900029" lon="-8.250162144040962"><ele>779.0</ele><time>2026-04-18T09:20:00Z</time></trkpt><trkpt lat="42.58929043176114" lon="-8.25008558870247"><ele>779.0</ele><time>2026-04-18T09:20:01Z</time></trkpt><trkpt lat="42.589324634875645" lon="-8.249954940101027"><ele>779.0</ele><time>2026-04-18T09:20:03Z</time></trkpt><trkpt lat="42.58921748002154" lon="-8.249881962373445"><ele>779.0</ele><time>2026-04-18T09:20:05Z</time></trkpt><trkpt lat="42.5891391883643" lon="-8.249877395416307"><ele>779.0</ele><time>2026-04-18T09:20:06Z</time></trkpt><trkpt lat="42.589066457008805" lon="-8.24989684417231"><ele>779.0</ele><time>2026-04-18T09:20:07Z</time></trkpt><trkpt lat="42.58898929116434" lon="-8.249921275679187"><ele>779.0000000000001</ele><time>2026-04-18T09:20:08Z</time></trkpt><trkpt lat="42.58890176657983" lon="-8.249949392169102"><ele>779.0</ele><time>2026-04-18T09:20:09Z</time></trkpt><trkpt lat="42.588817045871096" lon="-8.249980815291947"><ele>779.0</ele><time>2026-04-18T09:20:09.999Z</time></trkpt><trkpt lat="42.588736145107994" lon="-8.250006722593046"><ele>779.0</ele><time>2026-04-18T09:20:10.999Z</time></trkpt><trkpt lat="42.58866055853583" lon="-8.25002512506775"><ele>779.0000000000001</ele><time>2026-04-18T09:20:11.999Z</time></trkpt><trkpt lat="42.58858722693703" lon="-8.250048460264065"><ele>779.0</ele><time>2026-04-18T09:20:12.999Z</time></trkpt><trkpt lat="42.58851577223975" lon="-8.25004861036438"><ele>776.8571428571429</ele><time>2026-04-18T09:20:13.999Z</time></trkpt><trkpt lat="42.58844180950714" lon="-8.250051821356633"><ele>774.7142857142858</ele><time>2026-04-18T09:20:14.999Z</time></trkpt><trkpt lat="42.58837780019862" lon="-8.25005383452606"><ele>772.5714285714287</ele><time>2026-04-18T09:20:15.999Z</time></trkpt><trkpt lat="42.588311696376515" lon="-8.250048902750732"><ele>770.4285714285714</ele><time>2026-04-18T09:20:16.999Z</time></trkpt><trkpt lat="42.58824241901605" lon="-8.250054692938743"><ele>768.2857142857142</ele><time>2026-04-18T09:20:17.999Z</time></trkpt><trkpt lat="42.5881635876122" lon="-8.250062690043226"><ele>766.1428571428572</ele><time>2026-04-18T09:20:18.999Z</time></trkpt><trkpt lat="42.588087349593415" lon="-8.250069518438737"><ele>764.0</ele><time>2026-04-18T09:20:19.999Z</time></trkpt><trkpt lat="42.58802040944928" lon="-8.250078906791355"><ele>764.0</ele><time>2026-04-18T09:20:20.999Z</time></trkpt><trkpt lat="42.58791207913846" lon="-8.250087283400509"><ele>764.0</ele><time>2026-04-18T09:20:22.999Z</time></trkpt><trkpt lat="42.58784255805906" lon="-8.250094195901973"><ele>764.0</ele><time>2026-04-18T09:20:23.999Z</time></trkpt><trkpt lat="42.58775392662619" lon="-8.250099828369297"><ele>764.0</ele><time>2026-04-18T09:20:24.999Z</time></trkpt><trkpt lat="42.58765689659682" lon="-8.250120821312452"><ele>764.0</ele><time>2026-04-18T09:20:25.999Z</time></trkpt><trkpt lat="42.58755526397162" lon="-8.250145450967302"><ele>761.4000000000001</ele><time>2026-04-18T09:20:26.999Z</time></trkpt><trkpt lat="42.58744951353977" lon="-8.250145296834358"><ele>758.8</ele><time>2026-04-18T09:20:27.999Z</time></trkpt><trkpt lat="42.5873477572773" lon="-8.250130294454996"><ele>756.2</ele><time>2026-04-18T09:20:28.999Z</time></trkpt><trkpt lat="42.58724180413217" lon="-8.250105169072151"><ele>753.5999999999999</ele><time>2026-04-18T09:20:29.999Z</time></trkpt><trkpt lat="42.58713902547737" lon="-8.250092110909552"><ele>751.0</ele><time>2026-04-18T09:20:30.999Z</time></trkpt><trkpt lat="42.587038273238214" lon="-8.250082818768247"><ele>749.5</ele><time>2026-04-18T09:20:31.999Z</time></trkpt><trkpt lat="42.58695273682582" lon="-8.250078204385481"><ele>748.0</ele><time>2026-04-18T09:20:32.999Z</time></trkpt><trkpt lat="42.586872425505454" lon="-8.250065247072916"><ele>746.5</ele><time>2026-04-18T09:20:33.999Z</time></trkpt><trkpt lat="42.5867904806512" lon="-8.250050651187815"><ele>745.0</ele><time>2026-04-18T09:20:34.999Z</time></trkpt><trkpt lat="42.58670019460284" lon="-8.25003266226795"><ele>743.5</ele><time>2026-04-18T09:20:35.999Z</time></trkpt><trkpt lat="42.586599506898494" lon="-8.250016867919433"><ele>742.0</ele><time>2026-04-18T09:20:36.999Z</time></trkpt><trkpt lat="42.58650656942628" lon="-8.25001633983607"><ele>742.0</ele><time>2026-04-18T09:20:37.999Z</time></trkpt><trkpt lat="42.58641585150673" lon="-8.250025132166977"><ele>742.0</ele><time>2026-04-18T09:20:38.999Z</time></trkpt><trkpt lat="42.58631691263361" lon="-8.250025553711106"><ele>742.0</ele><time>2026-04-18T09:20:39.999Z</time></trkpt><trkpt lat="42.586209400463105" lon="-8.25002445143784"><ele>742.0</ele><time>2026-04-18T09:20:40.999Z</time></trkpt><trkpt lat="42.58610369752562" lon="-8.250013872019887"><ele>742.0</ele><time>2026-04-18T09:20:41.999Z</time></trkpt><trkpt lat="42.586018373478204" lon="-8.250036402243058"><ele>741.6666666666667</ele><time>2026-04-18T09:20:42.999Z</time></trkpt><trkpt lat="42.58591897010437" lon="-8.25006228058196"><ele>741.3333333333334</ele><time>2026-04-18T09:20:43.999Z</time></trkpt><trkpt lat="42.58582137339385" lon="-8.250078508222199"><ele>741.0</ele><time>2026-04-18T09:20:44.999Z</time></trkpt><trkpt lat="42.58574171330773" lon="-8.250082489901326"><ele>740.6666666666666</ele><time>2026-04-18T09:20:45.999Z</time></trkpt><trkpt lat="42.58566152372141" lon="-8.250080299412836"><ele>740.3333333333333</ele><time>2026-04-18T09:20:46.999Z</time></trkpt><trkpt lat="42.58558069319384" lon="-8.25004163023857"><ele>740.0</ele><time>2026-04-18T09:20:47.999Z</time></trkpt><trkpt lat="42.58550621563837" lon="-8.24998034078967"><ele>740.0</ele><time>2026-04-18T09:20:48.999Z</time></trkpt><trkpt lat="42.58543718062801" lon="-8.249904576051327"><ele>740.0</ele><time>2026-04-18T09:20:49.999Z</time></trkpt><trkpt lat="42.585375929338994" lon="-8.249802385301019"><ele>740.0</ele><time>2026-04-18T09:20:50.999Z</time></trkpt><trkpt lat="42.58532384556697" lon="-8.24967962130632"><ele>740.0</ele><time>2026-04-18T09:20:51.999Z</time></trkpt><trkpt lat="42.58526336266081" lon="-8.249536626741127"><ele>740.0</ele><time>2026-04-18T09:20:52.999Z</time></trkpt><trkpt lat="42.58521030161853" lon="-8.249413453872899"><ele>738.6666666666666</ele><time>2026-04-18T09:20:53.999Z</time></trkpt><trkpt lat="42.5851611610514" lon="-8.24931171323371"><ele>737.3333333333333</ele><time>2026-04-18T09:20:54.999Z</time></trkpt><trkpt lat="42.58512603506241" lon="-8.249219349346207"><ele>736.0</ele><time>2026-04-18T09:20:55.999Z</time></trkpt><trkpt lat="42.58510529687238" lon="-8.249115447025211"><ele>734.6666666666666</ele><time>2026-04-18T09:20:56.999Z</time></trkpt><trkpt lat="42.58508797790973" lon="-8.248987893336842"><ele>733.3333333333334</ele><time>2026-04-18T09:20:57.999Z</time></trkpt><trkpt lat="42.585060835084604" lon="-8.248873964244655"><ele>732.0</ele><time>2026-04-18T09:20:58.999Z</time></trkpt><trkpt lat="42.58503777968154" lon="-8.248758476764404"><ele>729.0</ele><time>2026-04-18T09:20:59.999Z</time></trkpt><trkpt lat="42.58500408168654" lon="-8.248652675652844"><ele>726.0</ele><time>2026-04-18T09:21:00.999Z</time></trkpt><trkpt lat="42.58495816725147" lon="-8.248554074388672"><ele>723.0</ele><time>2026-04-18T09:21:01.999Z</time></trkpt><trkpt lat="42.58490079924198" lon="-8.248471353718651"><ele>720.0</ele><time>2026-04-18T09:21:02.999Z</time></trkpt><trkpt lat="42.58482396164949" lon="-8.24840191183468"><ele>717.0</ele><time>2026-04-18T09:21:03.999Z</time></trkpt><trkpt lat="42.58472193717249" lon="-8.248316554600327"><ele>717.0</ele><time>2026-04-18T09:21:04.999Z</time></trkpt><trkpt lat="42.58463243029931" lon="-8.248259214743154"><ele>717.0</ele><time>2026-04-18T09:21:05.999Z</time></trkpt><trkpt lat="42.58456968047355" lon="-8.2482100990028"><ele>717.0</ele><time>2026-04-18T09:21:06.999Z</time></trkpt><trkpt lat="42.584488497322695" lon="-8.248128823166693"><ele>717.0</ele><time>2026-04-18T09:21:08.999Z</time></trkpt><trkpt lat="42.584432332398414" lon="-8.24805784065586"><ele>717.0</ele><time>2026-04-18T09:21:10.999Z</time></trkpt><trkpt lat="42.58437455105907" lon="-8.2480000461119"><ele>717.0</ele><time>2026-04-18T09:21:11.999Z</time></trkpt><trkpt lat="42.58430561291994" lon="-8.247924307807118"><ele>715.2</ele><time>2026-04-18T09:21:12.999Z</time></trkpt><trkpt lat="42.58422364779847" lon="-8.247826517039922"><ele>713.4000000000001</ele><time>2026-04-18T09:21:13.999Z</time></trkpt><trkpt lat="42.58413535391599" lon="-8.247757069029717"><ele>711.5999999999999</ele><time>2026-04-18T09:21:14.999Z</time></trkpt><trkpt lat="42.584045831548515" lon="-8.247689687503001"><ele>709.8</ele><time>2026-04-18T09:21:15.999Z</time></trkpt><trkpt lat="42.58398974808363" lon="-8.247573047974415"><ele>708.0</ele><time>2026-04-18T09:21:17.999Z</time></trkpt><trkpt lat="42.58396425085846" lon="-8.247455501622087"><ele>708.0</ele><time>2026-04-18T09:21:18.999Z</time></trkpt><trkpt lat="42.58392155210483" lon="-8.247342628717941"><ele>708.0</ele><time>2026-04-18T09:21:19.999Z</time></trkpt><trkpt lat="42.58386812219119" lon="-8.24728363278823"><ele>708.0</ele><time>2026-04-18T09:21:20.999Z</time></trkpt><trkpt lat="42.58380695466918" lon="-8.247248402012517"><ele>708.0</ele><time>2026-04-18T09:21:21.999Z</time></trkpt><trkpt lat="42.58373411280015" lon="-8.247244595457508"><ele>708.0</ele><time>2026-04-18T09:21:22.999Z</time></trkpt><trkpt lat="42.58367360679748" lon="-8.247282789327341"><ele>708.0</ele><time>2026-04-18T09:21:23.999Z</time></trkpt><trkpt lat="42.58363396287786" lon="-8.247380356522417"><ele>707.4</ele><time>2026-04-18T09:21:24.999Z</time></trkpt><trkpt lat="42.58359448213995" lon="-8.247515676990956"><ele>706.8</ele><time>2026-04-18T09:21:25.999Z</time></trkpt><trkpt lat="42.58357134017444" lon="-8.24765788067237"><ele>706.2</ele><time>2026-04-18T09:21:26.999Z</time></trkpt><trkpt lat="42.58355831145361" lon="-8.247769619173352"><ele>705.6</ele><time>2026-04-18T09:21:27.999Z</time></trkpt><trkpt lat="42.583537466030165" lon="-8.247883353486484"><ele>705.0</ele><time>2026-04-18T09:21:28.999Z</time></trkpt><trkpt lat="42.58351187740934" lon="-8.248011485455399"><ele>706.0</ele><time>2026-04-18T09:21:29.999Z</time></trkpt><trkpt lat="42.583472347785964" lon="-8.24816882398324"><ele>707.0</ele><time>2026-04-18T09:21:30.999Z</time></trkpt><trkpt lat="42.58342226564036" lon="-8.248328180849695"><ele>708.0</ele><time>2026-04-18T09:21:31.999Z</time></trkpt><trkpt lat="42.583391283563905" lon="-8.24846240988409"><ele>709.0</ele><time>2026-04-18T09:21:32.999Z</time></trkpt><trkpt lat="42.58338910469158" lon="-8.248594700138874"><ele>709.0</ele><time>2026-04-18T09:21:33.999Z</time></trkpt><trkpt lat="42.5833782113477" lon="-8.24873338586921"><ele>709.0</ele><time>2026-04-18T09:21:34.998Z</time></trkpt><trkpt lat="42.58336689917242" lon="-8.248886638995884"><ele>709.0</ele><time>2026-04-18T09:21:35.998Z</time></trkpt><trkpt lat="42.583347744346526" lon="-8.249049399957016"><ele>709.0</ele><time>2026-04-18T09:21:36.998Z</time></trkpt><trkpt lat="42.58332290010958" lon="-8.249198202259404"><ele>711.2</ele><time>2026-04-18T09:21:37.998Z</time></trkpt><trkpt lat="42.583285558259654" lon="-8.249306257246307"><ele>713.4000000000001</ele><time>2026-04-18T09:21:38.998Z</time></trkpt><trkpt lat="42.58324178073874" lon="-8.24941541650975"><ele>715.6</ele><time>2026-04-18T09:21:39.998Z</time></trkpt><trkpt lat="42.58319436339264" lon="-8.249556742339998"><ele>717.8</ele><time>2026-04-18T09:21:40.998Z</time></trkpt><trkpt lat="42.583155206850584" lon="-8.249693363178219"><ele>720.0</ele><time>2026-04-18T09:21:41.998Z</time></trkpt><trkpt lat="42.583107938485014" lon="-8.249804870604903"><ele>723.0</ele><time>2026-04-18T09:21:42.998Z</time></trkpt><trkpt lat="42.5830549553727" lon="-8.249925156744514"><ele>726.0</ele><time>2026-04-18T09:21:44Z</time></trkpt><trkpt lat="42.58302331671513" lon="-8.250032725776775"><ele>729.0</ele><time>2026-04-18T09:21:45Z</time></trkpt><trkpt lat="42.58302986307364" lon="-8.25019361630632"><ele>732.0</ele><time>2026-04-18T09:21:47Z</time></trkpt><trkpt lat="42.583036779139015" lon="-8.250305667648684"><ele>735.0</ele><time>2026-04-18T09:21:48Z</time></trkpt><trkpt lat="42.5830419817134" lon="-8.250426028712875"><ele>735.0</ele><time>2026-04-18T09:21:50Z</time></trkpt><trkpt lat="42.58303877861765" lon="-8.250517655807512"><ele>735.0</ele><time>2026-04-18T09:21:51Z</time></trkpt><trkpt lat="42.58304638433597" lon="-8.2506488677041"><ele>735.0</ele><time>2026-04-18T09:21:52Z</time></trkpt><trkpt lat="42.58306952023577" lon="-8.250808973786516"><ele>735.0</ele><time>2026-04-18T09:21:53Z</time></trkpt><trkpt lat="42.583096697174895" lon="-8.250964139291474"><ele>735.0</ele><time>2026-04-18T09:21:54Z</time></trkpt><trkpt lat="42.58312364162726" lon="-8.251105848281213"><ele>736.5</ele><time>2026-04-18T09:21:55Z</time></trkpt><trkpt lat="42.58314392934264" lon="-8.251220682244602"><ele>738.0</ele><time>2026-04-18T09:21:56Z</time></trkpt><trkpt lat="42.58318322877073" lon="-8.251333326065916"><ele>739.5</ele><time>2026-04-18T09:21:57Z</time></trkpt><trkpt lat="42.5832198856361" lon="-8.251422470920478"><ele>741.0</ele><time>2026-04-18T09:21:58Z</time></trkpt><trkpt lat="42.58328359703588" lon="-8.251391603456423"><ele>742.5</ele><time>2026-04-18T09:22:00Z</time></trkpt><trkpt lat="42.5833205713474" lon="-8.251310563216979"><ele>744.0</ele><time>2026-04-18T09:22:01Z</time></trkpt><trkpt lat="42.58335164954167" lon="-8.251199260219167"><ele>744.0</ele><time>2026-04-18T09:22:02Z</time></trkpt><trkpt lat="42.583396111532295" lon="-8.25109174238234"><ele>744.0</ele><time>2026-04-18T09:22:03Z</time></trkpt><trkpt lat="42.58346501887585" lon="-8.251016988868537"><ele>744.0</ele><time>2026-04-18T09:22:04Z</time></trkpt><trkpt lat="42.583541181124325" lon="-8.250943461108369"><ele>744.0</ele><time>2026-04-18T09:22:05Z</time></trkpt><trkpt lat="42.58362771489235" lon="-8.250856887236132"><ele>744.0</ele><time>2026-04-18T09:22:06Z</time></trkpt><trkpt lat="42.58371840124491" lon="-8.250789999772357"><ele>746.5</ele><time>2026-04-18T09:22:07Z</time></trkpt><trkpt lat="42.58380386867787" lon="-8.250758250341054"><ele>749.0</ele><time>2026-04-18T09:22:08Z</time></trkpt><trkpt lat="42.583882736425444" lon="-8.250761313825826"><ele>751.5</ele><time>2026-04-18T09:22:09Z</time></trkpt><trkpt lat="42.583965879494" lon="-8.25076850580156"><ele>754.0</ele><time>2026-04-18T09:22:10Z</time></trkpt><trkpt lat="42.58403255208352" lon="-8.250763751059596"><ele>756.5</ele><time>2026-04-18T09:22:11Z</time></trkpt><trkpt lat="42.58406594078647" lon="-8.250845456233323"><ele>759.0</ele><time>2026-04-18T09:22:13Z</time></trkpt><trkpt lat="42.584038882931026" lon="-8.250932686277144"><ele>759.0</ele><time>2026-04-18T09:22:14Z</time></trkpt><trkpt lat="42.584004038693145" lon="-8.251032901395579"><ele>759.0</ele><time>2026-04-18T09:22:15Z</time></trkpt><trkpt lat="42.58397199968769" lon="-8.251122953166014"><ele>759.0</ele><time>2026-04-18T09:22:16Z</time></trkpt><trkpt lat="42.58396617665639" lon="-8.251223330189575"><ele>759.0</ele><time>2026-04-18T09:22:17Z</time></trkpt><trkpt lat="42.58398592966134" lon="-8.251349152123172"><ele>759.0</ele><time>2026-04-18T09:22:18Z</time></trkpt><trkpt lat="42.5840126203295" lon="-8.251454924462287"><ele>759.0</ele><time>2026-04-18T09:22:19Z</time></trkpt><trkpt lat="42.58405457354914" lon="-8.251544162085167"><ele>760.0</ele><time>2026-04-18T09:22:20Z</time></trkpt><trkpt lat="42.58410879578879" lon="-8.251616659872981"><ele>761.0</ele><time>2026-04-18T09:22:21Z</time></trkpt><trkpt lat="42.584175351286426" lon="-8.251698664888224"><ele>762.0</ele><time>2026-04-18T09:22:21.999Z</time></trkpt><trkpt lat="42.58424046379442" lon="-8.251779975322288"><ele>763.0</ele><time>2026-04-18T09:22:22.999Z</time></trkpt><trkpt lat="42.58430879296166" lon="-8.25185218251692"><ele>764.0</ele><time>2026-04-18T09:22:23.999Z</time></trkpt><trkpt lat="42.58438078675969" lon="-8.251909726746227"><ele>765.0</ele><time>2026-04-18T09:22:24.999Z</time></trkpt><trkpt lat="42.58446105442258" lon="-8.251968316844968"><ele>766.8</ele><time>2026-04-18T09:22:25.999Z</time></trkpt><trkpt lat="42.5845419093346" lon="-8.2520288975355"><ele>768.6</ele><time>2026-04-18T09:22:26.999Z</time></trkpt><trkpt lat="42.58462666255287" lon="-8.252100395888691"><ele>770.4000000000001</ele><time>2026-04-18T09:22:27.999Z</time></trkpt><trkpt lat="42.58472168258666" lon="-8.252169601298817"><ele>772.2</ele><time>2026-04-18T09:22:28.999Z</time></trkpt><trkpt lat="42.584823190247086" lon="-8.252231197990852"><ele>774.0</ele><time>2026-04-18T09:22:29.999Z</time></trkpt><trkpt lat="42.58491259994763" lon="-8.252265734406917"><ele>774.0</ele><time>2026-04-18T09:22:30.999Z</time></trkpt><trkpt lat="42.58499846766383" lon="-8.252259750534753"><ele>774.0</ele><time>2026-04-18T09:22:31.999Z</time></trkpt><trkpt lat="42.585092958600185" lon="-8.252219867086875"><ele>774.0</ele><time>2026-04-18T09:22:32.999Z</time></trkpt><trkpt lat="42.5851843767174" lon="-8.252153693251843"><ele>774.0</ele><time>2026-04-18T09:22:33.999Z</time></trkpt><trkpt lat="42.58526893194754" lon="-8.252093540729982"><ele>774.0</ele><time>2026-04-18T09:22:34.999Z</time></trkpt><trkpt lat="42.58537246937004" lon="-8.252044932762848"><ele>775.0</ele><time>2026-04-18T09:22:35.999Z</time></trkpt><trkpt lat="42.5854508283193" lon="-8.252015141498486"><ele>776.0</ele><time>2026-04-18T09:22:36.999Z</time></trkpt><trkpt lat="42.58552599180961" lon="-8.252007326545241"><ele>777.0</ele><time>2026-04-18T09:22:37.999Z</time></trkpt><trkpt lat="42.58560326618464" lon="-8.252023593316585"><ele>778.0</ele><time>2026-04-18T09:22:38.999Z</time></trkpt><trkpt lat="42.58567369447155" lon="-8.252052109613656"><ele>779.0</ele><time>2026-04-18T09:22:39.999Z</time></trkpt><trkpt lat="42.5857521949249" lon="-8.252106070380101"><ele>780.0</ele><time>2026-04-18T09:22:40.999Z</time></trkpt><trkpt lat="42.585818062543474" lon="-8.25218416443712"><ele>780.0</ele><time>2026-04-18T09:22:41.999Z</time></trkpt><trkpt lat="42.58584766503517" lon="-8.252271480332672"><ele>780.0</ele><time>2026-04-18T09:22:42.999Z</time></trkpt><trkpt lat="42.58583277774586" lon="-8.252360528315316"><ele>780.0</ele><time>2026-04-18T09:22:43.999Z</time></trkpt><trkpt lat="42.58579019126714" lon="-8.252455146835244"><ele>780.0</ele><time>2026-04-18T09:22:44.999Z</time></trkpt><trkpt lat="42.585752580276925" lon="-8.252553535434618"><ele>780.0</ele><time>2026-04-18T09:22:45.999Z</time></trkpt><trkpt lat="42.58572769516243" lon="-8.252650390818978"><ele>780.0</ele><time>2026-04-18T09:22:46.999Z</time></trkpt><trkpt lat="42.58570609223104" lon="-8.252754332077158"><ele>782.1428571428571</ele><time>2026-04-18T09:22:47.999Z</time></trkpt><trkpt lat="42.58570848413442" lon="-8.252846759657828"><ele>784.2857142857142</ele><time>2026-04-18T09:22:48.999Z</time></trkpt><trkpt lat="42.585742017617235" lon="-8.252948105725176"><ele>786.4285714285714</ele><time>2026-04-18T09:22:49.999Z</time></trkpt><trkpt lat="42.58579457560929" lon="-8.253011325472091"><ele>788.5714285714286</ele><time>2026-04-18T09:22:50.999Z</time></trkpt><trkpt lat="42.58586090798877" lon="-8.253035895280277"><ele>790.7142857142858</ele><time>2026-04-18T09:22:51.999Z</time></trkpt><trkpt lat="42.58594076367284" lon="-8.253055831361698"><ele>792.8571428571429</ele><time>2026-04-18T09:22:52.999Z</time></trkpt><trkpt lat="42.58601570097208" lon="-8.253046437587251"><ele>795.0</ele><time>2026-04-18T09:22:53.999Z</time></trkpt><trkpt lat="42.586094191681916" lon="-8.253010549384172"><ele>795.0</ele><time>2026-04-18T09:22:54.999Z</time></trkpt><trkpt lat="42.5861739797729" lon="-8.252937266628985"><ele>795.0</ele><time>2026-04-18T09:22:55.999Z</time></trkpt><trkpt lat="42.586266407407805" lon="-8.25289674793716"><ele>795.0</ele><time>2026-04-18T09:22:56.999Z</time></trkpt><trkpt lat="42.58636375658331" lon="-8.252870389582712"><ele>795.0</ele><time>2026-04-18T09:22:57.999Z</time></trkpt><trkpt lat="42.58646704205528" lon="-8.252834046890085"><ele>795.0</ele><time>2026-04-18T09:22:58.999Z</time></trkpt><trkpt lat="42.58655742923075" lon="-8.252822266598558"><ele>797.2857142857143</ele><time>2026-04-18T09:22:59.999Z</time></trkpt><trkpt lat="42.58664093436694" lon="-8.252814060325663"><ele>799.5714285714287</ele><time>2026-04-18T09:23:00.999Z</time></trkpt><trkpt lat="42.58671683691418" lon="-8.252810716620111"><ele>801.8571428571429</ele><time>2026-04-18T09:23:01.999Z</time></trkpt><trkpt lat="42.586783320162354" lon="-8.25281602026194"><ele>804.1428571428571</ele><time>2026-04-18T09:23:02.999Z</time></trkpt><trkpt lat="42.58684749471653" lon="-8.252832430985594"><ele>806.4285714285714</ele><time>2026-04-18T09:23:03.999Z</time></trkpt><trkpt lat="42.586920858848124" lon="-8.252839380031173"><ele>808.7142857142857</ele><time>2026-04-18T09:23:04.999Z</time></trkpt><trkpt lat="42.58698747377393" lon="-8.252848362090809"><ele>811.0</ele><time>2026-04-18T09:23:05.999Z</time></trkpt><trkpt lat="42.587090838623865" lon="-8.252900057176994"><ele>813.4999999999999</ele><time>2026-04-18T09:23:07.999Z</time></trkpt><trkpt lat="42.58712351992502" lon="-8.252980368784572"><ele>816.0</ele><time>2026-04-18T09:23:08.999Z</time></trkpt><trkpt lat="42.58716613564347" lon="-8.253078458725842"><ele>818.5</ele><time>2026-04-18T09:23:09.999Z</time></trkpt><trkpt lat="42.58720571127942" lon="-8.253191345794201"><ele>821.0</ele><time>2026-04-18T09:23:10.999Z</time></trkpt><trkpt lat="42.587239996039386" lon="-8.253303623837542"><ele>823.4999999999999</ele><time>2026-04-18T09:23:11.999Z</time></trkpt><trkpt lat="42.58727342793253" lon="-8.253398497564959"><ele>826.0</ele><time>2026-04-18T09:23:12.999Z</time></trkpt><trkpt lat="42.587303087712364" lon="-8.253497395193312"><ele>827.4999999999999</ele><time>2026-04-18T09:23:13.999Z</time></trkpt><trkpt lat="42.58733702462953" lon="-8.253578554370431"><ele>829.0</ele><time>2026-04-18T09:23:14.999Z</time></trkpt><trkpt lat="42.58737417760725" lon="-8.25367997542197"><ele>830.5</ele><time>2026-04-18T09:23:15.999Z</time></trkpt><trkpt lat="42.58742415456197" lon="-8.25378569856247"><ele>832.0</ele><time>2026-04-18T09:23:16.999Z</time></trkpt><trkpt lat="42.58747656017536" lon="-8.253899041078721"><ele>833.4999999999999</ele><time>2026-04-18T09:23:17.999Z</time></trkpt><trkpt lat="42.58753842490984" lon="-8.25399663846488"><ele>835.0</ele><time>2026-04-18T09:23:18.999Z</time></trkpt><trkpt lat="42.58761025779263" lon="-8.25407064705511"><ele>835.1666666666666</ele><time>2026-04-18T09:23:19.999Z</time></trkpt><trkpt lat="42.58768187649253" lon="-8.254128351226216"><ele>835.3333333333333</ele><time>2026-04-18T09:23:20.999Z</time></trkpt><trkpt lat="42.58774736887041" lon="-8.254174129207495"><ele>835.5</ele><time>2026-04-18T09:23:21.999Z</time></trkpt><trkpt lat="42.58782586911501" lon="-8.254237892346866"><ele>835.6666666666667</ele><time>2026-04-18T09:23:22.999Z</time></trkpt><trkpt lat="42.58791102287083" lon="-8.254307072009565"><ele>835.8333333333334</ele><time>2026-04-18T09:23:23.999Z</time></trkpt><trkpt lat="42.58799946303011" lon="-8.254371696495955"><ele>836.0</ele><time>2026-04-18T09:23:24.999Z</time></trkpt><trkpt lat="42.58808586902711" lon="-8.254438994029334"><ele>836.4</ele><time>2026-04-18T09:23:25.999Z</time></trkpt><trkpt lat="42.58817294768272" lon="-8.254510079234619"><ele>836.8</ele><time>2026-04-18T09:23:26.999Z</time></trkpt><trkpt lat="42.58825624011076" lon="-8.254588069779993"><ele>837.1999999999999</ele><time>2026-04-18T09:23:27.999Z</time></trkpt><trkpt lat="42.58833480217561" lon="-8.254664179280043"><ele>837.5999999999999</ele><time>2026-04-18T09:23:28.999Z</time></trkpt><trkpt lat="42.58842003896761" lon="-8.254740257045"><ele>838.0</ele><time>2026-04-18T09:23:29.999Z</time></trkpt><trkpt lat="42.58852972231241" lon="-8.254825924212742"><ele>838.0</ele><time>2026-04-18T09:23:30.999Z</time></trkpt><trkpt lat="42.588637748406896" lon="-8.254913883350781"><ele>838.0</ele><time>2026-04-18T09:23:31.999Z</time></trkpt><trkpt lat="42.58873101229431" lon="-8.254989094738985"><ele>838.0</ele><time>2026-04-18T09:23:32.999Z</time></trkpt><trkpt lat="42.58884409549033" lon="-8.255079086513126"><ele>838.0</ele><time>2026-04-18T09:23:33.999Z</time></trkpt><trkpt lat="42.58897759832448" lon="-8.25517884800407"><ele>842.25</ele><time>2026-04-18T09:23:34.999Z</time></trkpt><trkpt lat="42.589106441944594" lon="-8.255271153140832"><ele>846.5</ele><time>2026-04-18T09:23:35.999Z</time></trkpt><trkpt lat="42.589217857949144" lon="-8.255353373023388"><ele>850.75</ele><time>2026-04-18T09:23:36.999Z</time></trkpt><trkpt lat="42.58932493648783" lon="-8.255439507249708"><ele>855.0</ele><time>2026-04-18T09:23:37.999Z</time></trkpt><trkpt lat="42.589432063095096" lon="-8.255515406705635"><ele>855.75</ele><time>2026-04-18T09:23:38.999Z</time></trkpt><trkpt lat="42.58953686657624" lon="-8.255583701123175"><ele>856.5</ele><time>2026-04-18T09:23:39.999Z</time></trkpt><trkpt lat="42.58963633065918" lon="-8.255650837514098"><ele>857.25</ele><time>2026-04-18T09:23:40.999Z</time></trkpt><trkpt lat="42.58974560607567" lon="-8.255715754219437"><ele>858.0</ele><time>2026-04-18T09:23:41.999Z</time></trkpt><trkpt lat="42.58985059449053" lon="-8.255760961369447"><ele>858.0</ele><time>2026-04-18T09:23:42.999Z</time></trkpt><trkpt lat="42.58994179899443" lon="-8.255814285601769"><ele>858.0</ele><time>2026-04-18T09:23:43.999Z</time></trkpt><trkpt lat="42.590022606760286" lon="-8.255899777808793"><ele>858.0</ele><time>2026-04-18T09:23:44.998Z</time></trkpt><trkpt lat="42.59009745040606" lon="-8.25601641416987"><ele>858.0</ele><time>2026-04-18T09:23:45.998Z</time></trkpt><trkpt lat="42.590163428279716" lon="-8.256141965246641"><ele>858.0</ele><time>2026-04-18T09:23:46.998Z</time></trkpt><trkpt lat="42.590217261136424" lon="-8.256280577444954"><ele>858.0</ele><time>2026-04-18T09:23:47.998Z</time></trkpt><trkpt lat="42.59026864318383" lon="-8.256439745953452"><ele>858.0</ele><time>2026-04-18T09:23:48.998Z</time></trkpt><trkpt lat="42.5903233454196" lon="-8.256596593589558"><ele>858.0</ele><time>2026-04-18T09:23:50Z</time></trkpt><trkpt lat="42.59039307280286" lon="-8.25675093716263"><ele>858.0</ele><time>2026-04-18T09:23:51Z</time></trkpt><trkpt lat="42.59044456543287" lon="-8.256901220875594"><ele>860.75</ele><time>2026-04-18T09:23:52Z</time></trkpt><trkpt lat="42.5904923618925" lon="-8.257037736856253"><ele>863.5</ele><time>2026-04-18T09:23:53Z</time></trkpt><trkpt lat="42.590543773729024" lon="-8.257154363982563"><ele>866.25</ele><time>2026-04-18T09:23:54Z</time></trkpt><trkpt lat="42.59059951338335" lon="-8.25728522927276"><ele>869.0</ele><time>2026-04-18T09:23:55Z</time></trkpt><trkpt lat="42.59066627116825" lon="-8.257432253348236"><ele>869.0</ele><time>2026-04-18T09:23:56Z</time></trkpt><trkpt lat="42.59073181120245" lon="-8.257600704074271"><ele>869.0</ele><time>2026-04-18T09:23:57Z</time></trkpt><trkpt lat="42.59079844346047" lon="-8.257779566415268"><ele>869.0</ele><time>2026-04-18T09:23:58Z</time></trkpt><trkpt lat="42.590862187138505" lon="-8.257945204284384"><ele>869.0</ele><time>2026-04-18T09:23:59Z</time></trkpt><trkpt lat="42.590913704681306" lon="-8.258057389093615"><ele>869.0</ele><time>2026-04-18T09:24:00Z</time></trkpt><trkpt lat="42.590973070515936" lon="-8.258114973467157"><ele>869.0000000000001</ele><time>2026-04-18T09:24:01Z</time></trkpt><trkpt lat="42.59104837629078" lon="-8.258190087882603"><ele>869.0000000000001</ele><time>2026-04-18T09:24:02Z</time></trkpt><trkpt lat="42.591101045377506" lon="-8.258303053513076"><ele>869.0</ele><time>2026-04-18T09:24:03Z</time></trkpt><trkpt lat="42.591142216480236" lon="-8.258453145756835"><ele>869.0</ele><time>2026-04-18T09:24:04Z</time></trkpt><trkpt lat="42.59116879765547" lon="-8.258623668297853"><ele>872.6666666666667</ele><time>2026-04-18T09:24:05Z</time></trkpt><trkpt lat="42.59119054699713" lon="-8.258811228013615"><ele>876.3333333333333</ele><time>2026-04-18T09:24:06Z</time></trkpt><trkpt lat="42.59121749565414" lon="-8.259023925124607"><ele>880.0</ele><time>2026-04-18T09:24:07Z</time></trkpt><trkpt lat="42.591254813283825" lon="-8.259239863834702"><ele>880.75</ele><time>2026-04-18T09:24:08Z</time></trkpt><trkpt lat="42.59127502976455" lon="-8.259433114866724"><ele>881.5</ele><time>2026-04-18T09:24:09Z</time></trkpt><trkpt lat="42.59127246471662" lon="-8.259611840217522"><ele>882.25</ele><time>2026-04-18T09:24:10Z</time></trkpt><trkpt lat="42.59125915993962" lon="-8.259779085369004"><ele>883.0</ele><time>2026-04-18T09:24:11Z</time></trkpt><trkpt lat="42.59123583460227" lon="-8.259944188034513"><ele>881.8</ele><time>2026-04-18T09:24:12Z</time></trkpt><trkpt lat="42.591224693001166" lon="-8.260123151421089"><ele>880.5999999999999</ele><time>2026-04-18T09:24:13Z</time></trkpt><trkpt lat="42.59122502621406" lon="-8.26029643811392"><ele>879.4000000000001</ele><time>2026-04-18T09:24:14Z</time></trkpt><trkpt lat="42.59122195772502" lon="-8.2604357757974"><ele>878.2</ele><time>2026-04-18T09:24:15Z</time></trkpt><trkpt lat="42.591194483962056" lon="-8.260547696867029"><ele>877.0</ele><time>2026-04-18T09:24:16Z</time></trkpt><trkpt lat="42.59114008791243" lon="-8.260664067851435"><ele>877.0</ele><time>2026-04-18T09:24:17Z</time></trkpt><trkpt lat="42.59109033867014" lon="-8.26080492079989"><ele>877.0</ele><time>2026-04-18T09:24:18Z</time></trkpt><trkpt lat="42.59105401374533" lon="-8.260947169911878"><ele>877.0</ele><time>2026-04-18T09:24:19Z</time></trkpt><trkpt lat="42.59100904380621" lon="-8.261070666477115"><ele>877.0</ele><time>2026-04-18T09:24:20Z</time></trkpt><trkpt lat="42.590959239772715" lon="-8.261199416287004"><ele>877.0</ele><time>2026-04-18T09:24:21Z</time></trkpt><trkpt lat="42.59089937081568" lon="-8.261358698907042"><ele>879.0</ele><time>2026-04-18T09:24:22Z</time></trkpt><trkpt lat="42.59084740622921" lon="-8.26153143478013"><ele>881.0</ele><time>2026-04-18T09:24:23Z</time></trkpt><trkpt lat="42.59082080397698" lon="-8.26170385834167"><ele>883.0</ele><time>2026-04-18T09:24:24Z</time></trkpt><trkpt lat="42.590810263248905" lon="-8.261896394798027"><ele>885.0</ele><time>2026-04-18T09:24:25Z</time></trkpt><trkpt lat="42.59079123610048" lon="-8.262110638813704"><ele>887.0</ele><time>2026-04-18T09:24:26Z</time></trkpt><trkpt lat="42.59077915573222" lon="-8.26232163724305"><ele>889.0</ele><time>2026-04-18T09:24:27Z</time></trkpt><trkpt lat="42.59077068050261" lon="-8.262543729417816"><ele>891.0</ele><time>2026-04-18T09:24:28Z</time></trkpt><trkpt lat="42.590763762333886" lon="-8.262718022129777"><ele>893.0</ele><time>2026-04-18T09:24:29Z</time></trkpt><trkpt lat="42.59073474624581" lon="-8.262874720904685"><ele>893.0</ele><time>2026-04-18T09:24:30Z</time></trkpt><trkpt lat="42.59068628615261" lon="-8.263027001452874"><ele>893.0</ele><time>2026-04-18T09:24:31Z</time></trkpt><trkpt lat="42.59064405476529" lon="-8.263188031845038"><ele>893.0</ele><time>2026-04-18T09:24:32Z</time></trkpt><trkpt lat="42.59059833203737" lon="-8.263343604505094"><ele>893.0</ele><time>2026-04-18T09:24:33Z</time></trkpt><trkpt lat="42.59053482540736" lon="-8.263505227531862"><ele>895.0</ele><time>2026-04-18T09:24:34Z</time></trkpt><trkpt lat="42.5904644348725" lon="-8.263673826191408"><ele>897.0</ele><time>2026-04-18T09:24:35Z</time></trkpt><trkpt lat="42.59039895167753" lon="-8.26383631859221"><ele>899.0</ele><time>2026-04-18T09:24:35.999Z</time></trkpt><trkpt lat="42.59035441616345" lon="-8.263979482749319"><ele>901.0</ele><time>2026-04-18T09:24:36.999Z</time></trkpt><trkpt lat="42.59033927188345" lon="-8.264124689347927"><ele>895.8</ele><time>2026-04-18T09:24:37.999Z</time></trkpt><trkpt lat="42.59031527180827" lon="-8.264287650336898"><ele>890.5999999999999</ele><time>2026-04-18T09:24:38.999Z</time></trkpt><trkpt lat="42.590278670918885" lon="-8.264421822749528"><ele>885.4</ele><time>2026-04-18T09:24:39.999Z</time></trkpt><trkpt lat="42.59021975281407" lon="-8.264514132683896"><ele>880.2</ele><time>2026-04-18T09:24:40.999Z</time></trkpt><trkpt lat="42.590143426326" lon="-8.264578320372602"><ele>875.0</ele><time>2026-04-18T09:24:41.999Z</time></trkpt><trkpt lat="42.59003500472925" lon="-8.264581937715445"><ele>875.0</ele><time>2026-04-18T09:24:42.999Z</time></trkpt><trkpt lat="42.58991845731831" lon="-8.26458020317071"><ele>875.0</ele><time>2026-04-18T09:24:43.999Z</time></trkpt><trkpt lat="42.58979583124684" lon="-8.264568313181226"><ele>875.0</ele><time>2026-04-18T09:24:44.999Z</time></trkpt><trkpt lat="42.58968624584648" lon="-8.264569237011695"><ele>875.0</ele><time>2026-04-18T09:24:45.999Z</time></trkpt><trkpt lat="42.58957441908145" lon="-8.26457257967236"><ele>870.75</ele><time>2026-04-18T09:24:46.999Z</time></trkpt><trkpt lat="42.58946064362096" lon="-8.264578232834738"><ele>866.5</ele><time>2026-04-18T09:24:47.999Z</time></trkpt><trkpt lat="42.58934502231775" lon="-8.26461909697712"><ele>862.25</ele><time>2026-04-18T09:24:48.999Z</time></trkpt><trkpt lat="42.589225448127955" lon="-8.264688019468739"><ele>858.0</ele><time>2026-04-18T09:24:49.999Z</time></trkpt><trkpt lat="42.58910657556248" lon="-8.264723268983893"><ele>858.0</ele><time>2026-04-18T09:24:50.999Z</time></trkpt><trkpt lat="42.58897117856185" lon="-8.26471988207462"><ele>858.0</ele><time>2026-04-18T09:24:51.999Z</time></trkpt><trkpt lat="42.58885730024328" lon="-8.264706417271377"><ele>858.0</ele><time>2026-04-18T09:24:52.999Z</time></trkpt><trkpt lat="42.58878772969785" lon="-8.264692120421241"><ele>858.0</ele><time>2026-04-18T09:24:53.999Z</time></trkpt><trkpt lat="42.58872082663521" lon="-8.26471270727266"><ele>858.0</ele><time>2026-04-18T09:24:55.999Z</time></trkpt><trkpt lat="42.58868238546639" lon="-8.264823156680679"><ele>858.0</ele><time>2026-04-18T09:24:57.999Z</time></trkpt><trkpt lat="42.5886148522069" lon="-8.264837331719683"><ele>858.0</ele><time>2026-04-18T09:25:04.999Z</time></trkpt><trkpt lat="42.58868707376693" lon="-8.26484375344214"><ele>858.0</ele><time>2026-04-18T09:25:15.999Z</time></trkpt><trkpt lat="42.58874367844652" lon="-8.264742786732766"><ele>858.0</ele><time>2026-04-18T09:25:18.999Z</time></trkpt><trkpt lat="42.588668977187844" lon="-8.264733303939947"><ele>858.0</ele><time>2026-04-18T09:25:22.999Z</time></trkpt><trkpt lat="42.58868822094991" lon="-8.2648859304528"><ele>858.0</ele><time>2026-04-18T09:25:25.999Z</time></trkpt><trkpt lat="42.58871689759237" lon="-8.264963113409223"><ele>861.2857142857143</ele><time>2026-04-18T09:25:26.999Z</time></trkpt><trkpt lat="42.58876062811994" lon="-8.265026424848603"><ele>864.5714285714287</ele><time>2026-04-18T09:25:27.999Z</time></trkpt><trkpt lat="42.5888170023844" lon="-8.26509184291247"><ele>867.8571428571429</ele><time>2026-04-18T09:25:28.999Z</time></trkpt><trkpt lat="42.588882009673135" lon="-8.265142751598747"><ele>871.1428571428571</ele><time>2026-04-18T09:25:29.999Z</time></trkpt><trkpt lat="42.58893906151103" lon="-8.265194625910558"><ele>874.4285714285714</ele><time>2026-04-18T09:25:30.999Z</time></trkpt><trkpt lat="42.58900841918733" lon="-8.265238087137853"><ele>877.7142857142857</ele><time>2026-04-18T09:25:31.999Z</time></trkpt><trkpt lat="42.58907300220984" lon="-8.265287614202622"><ele>881.0</ele><time>2026-04-18T09:25:32.999Z</time></trkpt><trkpt lat="42.58913524057073" lon="-8.265334523646997"><ele>881.0000000000001</ele><time>2026-04-18T09:25:33.999Z</time></trkpt><trkpt lat="42.58919418885027" lon="-8.265376212927277"><ele>881.0</ele><time>2026-04-18T09:25:34.999Z</time></trkpt><trkpt lat="42.589253798111656" lon="-8.265421648498974"><ele>881.0</ele><time>2026-04-18T09:25:35.999Z</time></trkpt><trkpt lat="42.589312702388355" lon="-8.265459345450974"><ele>881.0</ele><time>2026-04-18T09:25:36.999Z</time></trkpt><trkpt lat="42.589434129174904" lon="-8.265505739709633"><ele>881.0000000000001</ele><time>2026-04-18T09:25:38.999Z</time></trkpt><trkpt lat="42.58949444100808" lon="-8.265536515060704"><ele>881.0</ele><time>2026-04-18T09:25:39.999Z</time></trkpt><trkpt lat="42.58956182708447" lon="-8.265589806211382"><ele>884.8333333333334</ele><time>2026-04-18T09:25:40.999Z</time></trkpt><trkpt lat="42.58963449364446" lon="-8.265635228887778"><ele>888.6666666666667</ele><time>2026-04-18T09:25:41.999Z</time></trkpt><trkpt lat="42.58971659354043" lon="-8.265678746247199"><ele>892.5</ele><time>2026-04-18T09:25:42.999Z</time></trkpt><trkpt lat="42.589793949423" lon="-8.265740206759553"><ele>896.3333333333333</ele><time>2026-04-18T09:25:43.999Z</time></trkpt><trkpt lat="42.58987402028635" lon="-8.26580636748193"><ele>900.1666666666666</ele><time>2026-04-18T09:25:44.999Z</time></trkpt><trkpt lat="42.58994075116122" lon="-8.265870788991162"><ele>904.0</ele><time>2026-04-18T09:25:45.999Z</time></trkpt><trkpt lat="42.59001094659922" lon="-8.26592658124186"><ele>904.0</ele><time>2026-04-18T09:25:46.999Z</time></trkpt><trkpt lat="42.59007999060901" lon="-8.265999702820787"><ele>904.0000000000001</ele><time>2026-04-18T09:25:47.999Z</time></trkpt><trkpt lat="42.590145587028054" lon="-8.266090387994282"><ele>904.0000000000001</ele><time>2026-04-18T09:25:48.999Z</time></trkpt><trkpt lat="42.59020992842494" lon="-8.266198510009746"><ele>904.0</ele><time>2026-04-18T09:25:49.999Z</time></trkpt><trkpt lat="42.590280241583436" lon="-8.266312063937418"><ele>904.0</ele><time>2026-04-18T09:25:50.999Z</time></trkpt><trkpt lat="42.590358082428565" lon="-8.266417998568166"><ele>907.8000000000001</ele><time>2026-04-18T09:25:51.999Z</time></trkpt><trkpt lat="42.59044649487574" lon="-8.266508975630392"><ele>911.6000000000001</ele><time>2026-04-18T09:25:52.999Z</time></trkpt><trkpt lat="42.590543564951986" lon="-8.266576069332396"><ele>915.4</ele><time>2026-04-18T09:25:53.999Z</time></trkpt><trkpt lat="42.590645236690314" lon="-8.266608811982712"><ele>919.2</ele><time>2026-04-18T09:25:54.999Z</time></trkpt><trkpt lat="42.59073652440158" lon="-8.2666028369154"><ele>923.0</ele><time>2026-04-18T09:25:56Z</time></trkpt><trkpt lat="42.59083360148106" lon="-8.266566923109279"><ele>923.0</ele><time>2026-04-18T09:25:57Z</time></trkpt><trkpt lat="42.59093103040453" lon="-8.266514754418523"><ele>923.0</ele><time>2026-04-18T09:25:58Z</time></trkpt><trkpt lat="42.59103508487883" lon="-8.266455804421197"><ele>923.0</ele><time>2026-04-18T09:25:59Z</time></trkpt><trkpt lat="42.591150563935635" lon="-8.266394677108703"><ele>923.0</ele><time>2026-04-18T09:26:00Z</time></trkpt><trkpt lat="42.59128977078731" lon="-8.266316849884866"><ele>930.0</ele><time>2026-04-18T09:26:01Z</time></trkpt><trkpt lat="42.591427422754144" lon="-8.2662154200477"><ele>937.0</ele><time>2026-04-18T09:26:02Z</time></trkpt><trkpt lat="42.59153807155087" lon="-8.266079762779492"><ele>944.0</ele><time>2026-04-18T09:26:03Z</time></trkpt><trkpt lat="42.591633949152715" lon="-8.265914982751404"><ele>944.0</ele><time>2026-04-18T09:26:04Z</time></trkpt><trkpt lat="42.59171236516185" lon="-8.265722594545327"><ele>944.0</ele><time>2026-04-18T09:26:05Z</time></trkpt><trkpt lat="42.59177569178737" lon="-8.265545476793"><ele>944.0</ele><time>2026-04-18T09:26:06Z</time></trkpt><trkpt lat="42.59183564122865" lon="-8.265427431632531"><ele>944.0</ele><time>2026-04-18T09:26:07Z</time></trkpt><trkpt lat="42.59192153722046" lon="-8.265369680974894"><ele>949.75</ele><time>2026-04-18T09:26:08Z</time></trkpt><trkpt lat="42.59202815428898" lon="-8.265361833464533"><ele>955.5</ele><time>2026-04-18T09:26:09Z</time></trkpt><trkpt lat="42.592143150705766" lon="-8.265391381300597"><ele>961.25</ele><time>2026-04-18T09:26:10Z</time></trkpt><trkpt lat="42.59226494761189" lon="-8.26542673204297"><ele>967.0</ele><time>2026-04-18T09:26:11Z</time></trkpt><trkpt lat="42.592397007347664" lon="-8.265424767721358"><ele>967.0</ele><time>2026-04-18T09:26:12Z</time></trkpt><trkpt lat="42.59252753275319" lon="-8.265375877961054"><ele>967.0</ele><time>2026-04-18T09:26:13Z</time></trkpt><trkpt lat="42.592655902699256" lon="-8.265283008837274"><ele>967.0</ele><time>2026-04-18T09:26:14Z</time></trkpt><trkpt lat="42.5927956595645" lon="-8.26515117123495"><ele>968.75</ele><time>2026-04-18T09:26:15Z</time></trkpt><trkpt lat="42.592938488903144" lon="-8.265008044288376"><ele>970.5</ele><time>2026-04-18T09:26:16Z</time></trkpt><trkpt lat="42.59306649587347" lon="-8.264930258656848"><ele>972.25</ele><time>2026-04-18T09:26:17Z</time></trkpt><trkpt lat="42.59319472206135" lon="-8.264898913657046"><ele>974.0</ele><time>2026-04-18T09:26:18Z</time></trkpt><trkpt lat="42.593324582750114" lon="-8.264906441416903"><ele>974.0</ele><time>2026-04-18T09:26:19Z</time></trkpt><trkpt lat="42.593473329603924" lon="-8.26495295769316"><ele>974.0</ele><time>2026-04-18T09:26:20Z</time></trkpt><trkpt lat="42.593628950137514" lon="-8.265015340401662"><ele>974.0</ele><time>2026-04-18T09:26:21Z</time></trkpt><trkpt lat="42.59380814300592" lon="-8.265067743792919"><ele>974.3333333333334</ele><time>2026-04-18T09:26:22Z</time></trkpt><trkpt lat="42.59399770080546" lon="-8.265071491694732"><ele>974.6666666666667</ele><time>2026-04-18T09:26:23Z</time></trkpt><trkpt lat="42.59417170289678" lon="-8.265020829989579"><ele>975.0</ele><time>2026-04-18T09:26:24Z</time></trkpt><trkpt lat="42.59431701723979" lon="-8.26492583374066"><ele>975.0</ele><time>2026-04-18T09:26:25Z</time></trkpt><trkpt lat="42.59446872612494" lon="-8.264796789211664"><ele>975.0</ele><time>2026-04-18T09:26:26Z</time></trkpt><trkpt lat="42.594644712645966" lon="-8.264692454036478"><ele>975.0</ele><time>2026-04-18T09:26:27Z</time></trkpt><trkpt lat="42.59485185685235" lon="-8.264647182879065"><ele>979.6666666666667</ele><time>2026-04-18T09:26:28Z</time></trkpt><trkpt lat="42.59506215950385" lon="-8.264642134241832"><ele>984.3333333333334</ele><time>2026-04-18T09:26:29Z</time></trkpt><trkpt lat="42.595266296455264" lon="-8.2646585008217"><ele>989.0</ele><time>2026-04-18T09:26:30Z</time></trkpt><trkpt lat="42.59546399688731" lon="-8.264692740286334"><ele>993.3333333333334</ele><time>2026-04-18T09:26:31Z</time></trkpt><trkpt lat="42.59564732304733" lon="-8.264696540145003"><ele>997.6666666666667</ele><time>2026-04-18T09:26:32Z</time></trkpt><trkpt lat="42.595833943960734" lon="-8.264671461893347"><ele>1002.0</ele><time>2026-04-18T09:26:33Z</time></trkpt><trkpt lat="42.596007066673096" lon="-8.264638744594038"><ele>1002.0</ele><time>2026-04-18T09:26:34Z</time></trkpt><trkpt lat="42.596169409636204" lon="-8.264598823251083"><ele>1002.0</ele><time>2026-04-18T09:26:35Z</time></trkpt><trkpt lat="42.596349156950275" lon="-8.264540693552949"><ele>1002.0</ele><time>2026-04-18T09:26:36Z</time></trkpt><trkpt lat="42.59654203176883" lon="-8.264482737685297"><ele>1001.6666666666667</ele><time>2026-04-18T09:26:37Z</time></trkpt><trkpt lat="42.596728879235975" lon="-8.264442249399181"><ele>1001.3333333333334</ele><time>2026-04-18T09:26:38Z</time></trkpt><trkpt lat="42.59688923918432" lon="-8.264434151215081"><ele>1001.0</ele><time>2026-04-18T09:26:39Z</time></trkpt><trkpt lat="42.59703230480062" lon="-8.26446536762956"><ele>1000.0</ele><time>2026-04-18T09:26:40Z</time></trkpt><trkpt lat="42.59718144158698" lon="-8.264531615077088"><ele>999.0</ele><time>2026-04-18T09:26:41Z</time></trkpt><trkpt lat="42.59733401519035" lon="-8.26461581194002"><ele>998.0</ele><time>2026-04-18T09:26:42Z</time></trkpt><trkpt lat="42.59750243245707" lon="-8.264720121525125"><ele>996.6666666666667</ele><time>2026-04-18T09:26:43Z</time></trkpt><trkpt lat="42.597689569327045" lon="-8.264828991407647"><ele>995.3333333333333</ele><time>2026-04-18T09:26:44Z</time></trkpt><trkpt lat="42.597887718065905" lon="-8.264963550740568"><ele>994.0</ele><time>2026-04-18T09:26:45Z</time></trkpt><trkpt lat="42.598072581526964" lon="-8.265103777643796"><ele>994.0</ele><time>2026-04-18T09:26:46Z</time></trkpt><trkpt lat="42.598233020915636" lon="-8.265226066549634"><ele>994.0</ele><time>2026-04-18T09:26:47Z</time></trkpt><trkpt lat="42.59836506106629" lon="-8.265336332119901"><ele>994.0</ele><time>2026-04-18T09:26:48Z</time></trkpt><trkpt lat="42.59846275587965" lon="-8.26543734324943"><ele>994.0</ele><time>2026-04-18T09:26:49Z</time></trkpt><trkpt lat="42.59854341911385" lon="-8.265535664415449"><ele>994.0000000000001</ele><time>2026-04-18T09:26:50Z</time></trkpt><trkpt lat="42.598590223793536" lon="-8.265623704476166"><ele>994.0000000000001</ele><time>2026-04-18T09:26:51Z</time></trkpt><trkpt lat="42.59859568472736" lon="-8.265730708575317"><ele>994.0</ele><time>2026-04-18T09:26:51.999Z</time></trkpt><trkpt lat="42.598575631010675" lon="-8.265870902455022"><ele>994.0</ele><time>2026-04-18T09:26:52.999Z</time></trkpt><trkpt lat="42.59854637314472" lon="-8.266068554391703"><ele>993.0</ele><time>2026-04-18T09:26:53.999Z</time></trkpt><trkpt lat="42.59855800726577" lon="-8.266302014969998"><ele>992.0</ele><time>2026-04-18T09:26:54.999Z</time></trkpt><trkpt lat="42.598651975826606" lon="-8.266549481399247"><ele>991.0</ele><time>2026-04-18T09:26:55.999Z</time></trkpt><trkpt lat="42.598720249625806" lon="-8.266815924410894"><ele>989.0</ele><time>2026-04-18T09:26:56.999Z</time></trkpt><trkpt lat="42.59881842837639" lon="-8.267149324097284"><ele>987.0</ele><time>2026-04-18T09:26:57.999Z</time></trkpt><trkpt lat="42.59890099056154" lon="-8.267470758063478"><ele>984.6666666666667</ele><time>2026-04-18T09:26:58.999Z</time></trkpt><trkpt lat="42.59895430890803" lon="-8.267731147761987"><ele>982.3333333333334</ele><time>2026-04-18T09:26:59.999Z</time></trkpt><trkpt lat="42.598995105726225" lon="-8.267991249589695"><ele>980.0</ele><time>2026-04-18T09:27:00.999Z</time></trkpt><trkpt lat="42.599033205209935" lon="-8.26822214370619"><ele>977.3333333333334</ele><time>2026-04-18T09:27:01.999Z</time></trkpt><trkpt lat="42.599054750708646" lon="-8.268456763592708"><ele>974.6666666666667</ele><time>2026-04-18T09:27:02.999Z</time></trkpt><trkpt lat="42.59907187487497" lon="-8.268701017316989"><ele>972.0</ele><time>2026-04-18T09:27:03.999Z</time></trkpt><trkpt lat="42.599092410914864" lon="-8.268984343920334"><ele>967.5</ele><time>2026-04-18T09:27:04.999Z</time></trkpt><trkpt lat="42.59911305617726" lon="-8.269298275328735"><ele>963.0</ele><time>2026-04-18T09:27:05.999Z</time></trkpt><trkpt lat="42.599140871921385" lon="-8.269616532329273"><ele>958.0</ele><time>2026-04-18T09:27:06.999Z</time></trkpt><trkpt lat="42.59917650745337" lon="-8.269954682222826"><ele>953.0</ele><time>2026-04-18T09:27:07.999Z</time></trkpt><trkpt lat="42.59920536991271" lon="-8.270267001309694"><ele>953.0</ele><time>2026-04-18T09:27:08.999Z</time></trkpt><trkpt lat="42.59923603465292" lon="-8.27054870509691"><ele>953.0</ele><time>2026-04-18T09:27:09.999Z</time></trkpt><trkpt lat="42.59927369805548" lon="-8.27087015826343"><ele>953.0</ele><time>2026-04-18T09:27:10.999Z</time></trkpt><trkpt lat="42.59930930725436" lon="-8.27117090394401"><ele>947.6666666666667</ele><time>2026-04-18T09:27:11.999Z</time></trkpt><trkpt lat="42.59935416999108" lon="-8.271464526655071"><ele>942.3333333333333</ele><time>2026-04-18T09:27:12.999Z</time></trkpt><trkpt lat="42.59939257948488" lon="-8.271730215481524"><ele>937.0</ele><time>2026-04-18T09:27:13.999Z</time></trkpt><trkpt lat="42.59940781217949" lon="-8.271882340640857"><ele>937.0</ele><time>2026-04-18T09:27:14.999Z</time></trkpt><trkpt lat="42.59942766204276" lon="-8.272067123667746"><ele>937.0</ele><time>2026-04-18T09:27:15.999Z</time></trkpt><trkpt lat="42.599433150216264" lon="-8.272244273012186"><ele>937.0</ele><time>2026-04-18T09:27:16.999Z</time></trkpt><trkpt lat="42.599426445635984" lon="-8.272424387181587"><ele>937.0</ele><time>2026-04-18T09:27:17.999Z</time></trkpt><trkpt lat="42.59940100723985" lon="-8.27262670754487"><ele>934.6666666666666</ele><time>2026-04-18T09:27:18.999Z</time></trkpt><trkpt lat="42.599361545492776" lon="-8.272855036270167"><ele>932.3333333333333</ele><time>2026-04-18T09:27:19.999Z</time></trkpt><trkpt lat="42.59931683949933" lon="-8.273115852451836"><ele>930.0</ele><time>2026-04-18T09:27:20.999Z</time></trkpt><trkpt lat="42.599267937597624" lon="-8.273378965739074"><ele>925.6666666666667</ele><time>2026-04-18T09:27:21.999Z</time></trkpt><trkpt lat="42.59922554350796" lon="-8.27361988704572"><ele>921.3333333333334</ele><time>2026-04-18T09:27:22.999Z</time></trkpt><trkpt lat="42.59918344341912" lon="-8.27383290751584"><ele>917.0</ele><time>2026-04-18T09:27:23.999Z</time></trkpt><trkpt lat="42.599132749012384" lon="-8.274025140883301"><ele>914.25</ele><time>2026-04-18T09:27:24.999Z</time></trkpt><trkpt lat="42.59906759109321" lon="-8.274200724727375"><ele>911.5</ele><time>2026-04-18T09:27:25.999Z</time></trkpt><trkpt lat="42.59898797292273" lon="-8.274374018420703"><ele>908.75</ele><time>2026-04-18T09:27:26.999Z</time></trkpt><trkpt lat="42.59890772809465" lon="-8.274544651307213"><ele>906.0</ele><time>2026-04-18T09:27:27.999Z</time></trkpt><trkpt lat="42.59883328425765" lon="-8.274711127105187"><ele>903.75</ele><time>2026-04-18T09:27:28.999Z</time></trkpt><trkpt lat="42.59875726338322" lon="-8.274873865066555"><ele>901.5</ele><time>2026-04-18T09:27:29.999Z</time></trkpt><trkpt lat="42.598686415543526" lon="-8.275038390968911"><ele>899.25</ele><time>2026-04-18T09:27:30.999Z</time></trkpt><trkpt lat="42.59860881461926" lon="-8.27520799786483"><ele>897.0</ele><time>2026-04-18T09:27:31.999Z</time></trkpt><trkpt lat="42.59853211028821" lon="-8.275400440568335"><ele>894.6666666666667</ele><time>2026-04-18T09:27:32.999Z</time></trkpt><trkpt lat="42.59844606004575" lon="-8.275607716284414"><ele>892.3333333333334</ele><time>2026-04-18T09:27:33.999Z</time></trkpt><trkpt lat="42.598355446018296" lon="-8.275833307985435"><ele>890.0</ele><time>2026-04-18T09:27:34.999Z</time></trkpt><trkpt lat="42.59826810269513" lon="-8.276051955238959"><ele>890.0</ele><time>2026-04-18T09:27:35.999Z</time></trkpt><trkpt lat="42.598189219326635" lon="-8.276242856047634"><ele>890.0</ele><time>2026-04-18T09:27:36.999Z</time></trkpt><trkpt lat="42.59810554704473" lon="-8.276423113939185"><ele>890.0</ele><time>2026-04-18T09:27:37.999Z</time></trkpt><trkpt lat="42.59804582249119" lon="-8.276599421764312"><ele>887.3333333333334</ele><time>2026-04-18T09:27:38.999Z</time></trkpt><trkpt lat="42.59797563300701" lon="-8.276779611496845"><ele>884.6666666666667</ele><time>2026-04-18T09:27:39.999Z</time></trkpt><trkpt lat="42.59789384351876" lon="-8.276965103450598"><ele>882.0</ele><time>2026-04-18T09:27:40.999Z</time></trkpt><trkpt lat="42.59781348747145" lon="-8.277162007075633"><ele>882.0</ele><time>2026-04-18T09:27:41.999Z</time></trkpt><trkpt lat="42.59774172984351" lon="-8.277351610309266"><ele>882.0</ele><time>2026-04-18T09:27:42.999Z</time></trkpt><trkpt lat="42.597675747896034" lon="-8.277527236392181"><ele>882.0</ele><time>2026-04-18T09:27:43.999Z</time></trkpt><trkpt lat="42.59762468342766" lon="-8.277698667098832"><ele>882.0</ele><time>2026-04-18T09:27:44.999Z</time></trkpt><trkpt lat="42.59758877125009" lon="-8.27788642424408"><ele>882.0</ele><time>2026-04-18T09:27:45.999Z</time></trkpt><trkpt lat="42.59757316928316" lon="-8.278060052521479"><ele>882.0</ele><time>2026-04-18T09:27:46.999Z</time></trkpt><trkpt lat="42.597594335934495" lon="-8.278221464169063"><ele>882.0</ele><time>2026-04-18T09:27:47.999Z</time></trkpt><trkpt lat="42.59765139116013" lon="-8.27838505887795"><ele>882.0</ele><time>2026-04-18T09:27:48.999Z</time></trkpt><trkpt lat="42.59773007974432" lon="-8.278545216566684"><ele>882.75</ele><time>2026-04-18T09:27:49.999Z</time></trkpt><trkpt lat="42.597836472171025" lon="-8.278693815652765"><ele>883.5</ele><time>2026-04-18T09:27:50.999Z</time></trkpt><trkpt lat="42.59794218991448" lon="-8.27884426177967"><ele>884.25</ele><time>2026-04-18T09:27:51.999Z</time></trkpt><trkpt lat="42.598024400669885" lon="-8.279002198312698"><ele>885.0</ele><time>2026-04-18T09:27:52.999Z</time></trkpt><trkpt lat="42.5980744757937" lon="-8.27917002136896"><ele>885.0</ele><time>2026-04-18T09:27:53.999Z</time></trkpt><trkpt lat="42.59809266379404" lon="-8.279339471214458"><ele>885.0</ele><time>2026-04-18T09:27:54.999Z</time></trkpt><trkpt lat="42.59807215413476" lon="-8.279503165672285"><ele>885.0</ele><time>2026-04-18T09:27:55.999Z</time></trkpt><trkpt lat="42.598020497450186" lon="-8.279682661379184"><ele>885.0</ele><time>2026-04-18T09:27:56.999Z</time></trkpt><trkpt lat="42.597950175404016" lon="-8.279833271545295"><ele>884.5</ele><time>2026-04-18T09:27:57.999Z</time></trkpt><trkpt lat="42.597869709647824" lon="-8.27995776916772"><ele>884.0</ele><time>2026-04-18T09:27:58.999Z</time></trkpt><trkpt lat="42.59776293470343" lon="-8.280044887360305"><ele>883.5</ele><time>2026-04-18T09:27:59.999Z</time></trkpt><trkpt lat="42.59761141319445" lon="-8.280112881000592"><ele>883.0</ele><time>2026-04-18T09:28:00.999Z</time></trkpt><trkpt lat="42.597435738357156" lon="-8.280157075443642"><ele>886.3333333333333</ele><time>2026-04-18T09:28:02Z</time></trkpt><trkpt lat="42.59725502587001" lon="-8.280170673250616"><ele>889.6666666666667</ele><time>2026-04-18T09:28:03Z</time></trkpt><trkpt lat="42.59707487310102" lon="-8.280190046755262"><ele>893.0</ele><time>2026-04-18T09:28:04Z</time></trkpt><trkpt lat="42.596894548920254" lon="-8.280225196969862"><ele>895.3333333333334</ele><time>2026-04-18T09:28:05Z</time></trkpt><trkpt lat="42.59671089489295" lon="-8.280261937212888"><ele>897.6666666666667</ele><time>2026-04-18T09:28:06Z</time></trkpt><trkpt lat="42.59653200072391" lon="-8.280304621082982"><ele>900.0</ele><time>2026-04-18T09:28:07Z</time></trkpt><trkpt lat="42.596347449264556" lon="-8.28036070959281"><ele>900.6666666666667</ele><time>2026-04-18T09:28:08Z</time></trkpt><trkpt lat="42.596168826305124" lon="-8.280431928752646"><ele>901.3333333333334</ele><time>2026-04-18T09:28:09Z</time></trkpt><trkpt lat="42.59600863414105" lon="-8.280514653884817"><ele>902.0</ele><time>2026-04-18T09:28:10Z</time></trkpt><trkpt lat="42.59584965650377" lon="-8.280619819143155"><ele>900.6666666666667</ele><time>2026-04-18T09:28:11Z</time></trkpt><trkpt lat="42.595681431805616" lon="-8.280745037644712"><ele>899.3333333333333</ele><time>2026-04-18T09:28:12Z</time></trkpt><trkpt lat="42.59550958461987" lon="-8.280891507133259"><ele>898.0</ele><time>2026-04-18T09:28:13Z</time></trkpt><trkpt lat="42.59533751693546" lon="-8.281051700229494"><ele>897.0</ele><time>2026-04-18T09:28:14Z</time></trkpt><trkpt lat="42.595182077947314" lon="-8.281211986372691"><ele>896.0</ele><time>2026-04-18T09:28:15Z</time></trkpt><trkpt lat="42.595036385177735" lon="-8.281384730557365"><ele>895.0</ele><time>2026-04-18T09:28:16Z</time></trkpt><trkpt lat="42.594888900190455" lon="-8.281593151204756"><ele>895.0</ele><time>2026-04-18T09:28:17Z</time></trkpt><trkpt lat="42.59475334807889" lon="-8.281781986723768"><ele>895.0</ele><time>2026-04-18T09:28:18Z</time></trkpt><trkpt lat="42.59463745382983" lon="-8.281947852522714"><ele>895.0</ele><time>2026-04-18T09:28:19Z</time></trkpt><trkpt lat="42.59452418386766" lon="-8.282088001164341"><ele>894.6</ele><time>2026-04-18T09:28:20Z</time></trkpt><trkpt lat="42.59442075765087" lon="-8.282211317729896"><ele>894.2</ele><time>2026-04-18T09:28:21Z</time></trkpt><trkpt lat="42.594348369585525" lon="-8.282319400267161"><ele>893.8</ele><time>2026-04-18T09:28:22Z</time></trkpt><trkpt lat="42.594305765789976" lon="-8.282420400938927"><ele>893.4</ele><time>2026-04-18T09:28:23Z</time></trkpt><trkpt lat="42.59428823075627" lon="-8.282518766615592"><ele>893.0</ele><time>2026-04-18T09:28:24Z</time></trkpt><trkpt lat="42.59431488404483" lon="-8.282598027873144"><ele>893.0</ele><time>2026-04-18T09:28:25Z</time></trkpt><trkpt lat="42.59439558649704" lon="-8.282694437939497"><ele>893.0</ele><time>2026-04-18T09:28:26Z</time></trkpt><trkpt lat="42.59449039082234" lon="-8.282814633119957"><ele>893.0</ele><time>2026-04-18T09:28:27Z</time></trkpt><trkpt lat="42.59460021106831" lon="-8.282979130824234"><ele>893.0</ele><time>2026-04-18T09:28:28Z</time></trkpt><trkpt lat="42.59470084824237" lon="-8.283164720695442"><ele>892.5</ele><time>2026-04-18T09:28:29Z</time></trkpt><trkpt lat="42.594794449365864" lon="-8.28336302898753"><ele>892.0</ele><time>2026-04-18T09:28:30Z</time></trkpt><trkpt lat="42.594865409741075" lon="-8.283505845101867"><ele>891.5</ele><time>2026-04-18T09:28:31Z</time></trkpt><trkpt lat="42.59490449195644" lon="-8.283596486113213"><ele>891.0</ele><time>2026-04-18T09:28:32Z</time></trkpt><trkpt lat="42.594900374386334" lon="-8.28376040448642"><ele>891.0</ele><time>2026-04-18T09:28:34Z</time></trkpt><trkpt lat="42.594870685458744" lon="-8.28386273599025"><ele>890.9999999999999</ele><time>2026-04-18T09:28:35Z</time></trkpt><trkpt lat="42.59483104790191" lon="-8.28397613648327"><ele>890.9999999999999</ele><time>2026-04-18T09:28:36Z</time></trkpt><trkpt lat="42.59478510295452" lon="-8.28410978479112"><ele>891.0</ele><time>2026-04-18T09:28:37Z</time></trkpt><trkpt lat="42.59474925711869" lon="-8.284269073691934"><ele>891.0</ele><time>2026-04-18T09:28:38Z</time></trkpt><trkpt lat="42.594703376116044" lon="-8.284473038984201"><ele>889.6666666666667</ele><time>2026-04-18T09:28:39Z</time></trkpt><trkpt lat="42.59463650293409" lon="-8.284700400601565"><ele>888.3333333333334</ele><time>2026-04-18T09:28:40Z</time></trkpt><trkpt lat="42.594558553164354" lon="-8.284945040066182"><ele>887.0</ele><time>2026-04-18T09:28:41Z</time></trkpt><trkpt lat="42.594483325827035" lon="-8.285174419528536"><ele>883.3333333333334</ele><time>2026-04-18T09:28:42Z</time></trkpt><trkpt lat="42.59441693501216" lon="-8.285353713829736"><ele>879.6666666666667</ele><time>2026-04-18T09:28:43Z</time></trkpt><trkpt lat="42.5943299567101" lon="-8.285526147828948"><ele>876.0</ele><time>2026-04-18T09:28:44Z</time></trkpt><trkpt lat="42.594213226876604" lon="-8.285721330348093"><ele>874.3333333333333</ele><time>2026-04-18T09:28:45Z</time></trkpt><trkpt lat="42.59406472210981" lon="-8.285938494793507"><ele>872.6666666666666</ele><time>2026-04-18T09:28:46Z</time></trkpt><trkpt lat="42.59393201696889" lon="-8.286134207704745"><ele>871.0</ele><time>2026-04-18T09:28:47Z</time></trkpt><trkpt lat="42.593831084326176" lon="-8.28630256319828"><ele>869.5</ele><time>2026-04-18T09:28:48Z</time></trkpt><trkpt lat="42.59375529408159" lon="-8.286457061941578"><ele>868.0</ele><time>2026-04-18T09:28:49Z</time></trkpt><trkpt lat="42.593695148918215" lon="-8.28662483857218"><ele>866.5</ele><time>2026-04-18T09:28:50Z</time></trkpt><trkpt lat="42.59363597951027" lon="-8.286834934464004"><ele>865.0</ele><time>2026-04-18T09:28:51Z</time></trkpt><trkpt lat="42.59358940227186" lon="-8.287087972647363"><ele>862.3333333333333</ele><time>2026-04-18T09:28:52Z</time></trkpt><trkpt lat="42.593555728190594" lon="-8.287347533822166"><ele>859.6666666666667</ele><time>2026-04-18T09:28:53Z</time></trkpt><trkpt lat="42.59350815636429" lon="-8.287586507319093"><ele>857.0</ele><time>2026-04-18T09:28:54Z</time></trkpt><trkpt lat="42.59343697461027" lon="-8.287844092477677"><ele>857.0</ele><time>2026-04-18T09:28:55Z</time></trkpt><trkpt lat="42.593361431157014" lon="-8.288086940538784"><ele>857.0</ele><time>2026-04-18T09:28:56Z</time></trkpt><trkpt lat="42.59328141723166" lon="-8.288302906465926"><ele>857.0</ele><time>2026-04-18T09:28:57Z</time></trkpt><trkpt lat="42.593193905699245" lon="-8.28851405390439"><ele>854.0</ele><time>2026-04-18T09:28:58Z</time></trkpt><trkpt lat="42.59310813070269" lon="-8.288724442884778"><ele>851.0</ele><time>2026-04-18T09:28:59Z</time></trkpt><trkpt lat="42.59302781885429" lon="-8.288924645560256"><ele>848.0</ele><time>2026-04-18T09:29:00Z</time></trkpt><trkpt lat="42.5929522691392" lon="-8.289102661204511"><ele>846.0</ele><time>2026-04-18T09:29:01Z</time></trkpt><trkpt lat="42.59287847020372" lon="-8.289268213669109"><ele>844.0</ele><time>2026-04-18T09:29:02Z</time></trkpt><trkpt lat="42.592810246321754" lon="-8.289415366246129"><ele>842.0</ele><time>2026-04-18T09:29:03Z</time></trkpt><trkpt lat="42.59275069467056" lon="-8.289537048453079"><ele>840.0</ele><time>2026-04-18T09:29:03.999Z</time></trkpt><trkpt lat="42.59268475521184" lon="-8.28963685460744"><ele>839.75</ele><time>2026-04-18T09:29:04.999Z</time></trkpt><trkpt lat="42.59259842639335" lon="-8.289693583182155"><ele>839.5</ele><time>2026-04-18T09:29:05.999Z</time></trkpt><trkpt lat="42.59249634980487" lon="-8.289719429308938"><ele>839.25</ele><time>2026-04-18T09:29:06.999Z</time></trkpt><trkpt lat="42.59238164336394" lon="-8.289700168817618"><ele>839.0</ele><time>2026-04-18T09:29:07.999Z</time></trkpt><trkpt lat="42.592240270782504" lon="-8.289648064514155"><ele>839.0</ele><time>2026-04-18T09:29:08.999Z</time></trkpt><trkpt lat="42.59206756532066" lon="-8.289587890306183"><ele>839.0</ele><time>2026-04-18T09:29:09.999Z</time></trkpt><trkpt lat="42.59188105277223" lon="-8.289528548057378"><ele>839.0</ele><time>2026-04-18T09:29:10.999Z</time></trkpt><trkpt lat="42.59168313242363" lon="-8.289476991630096"><ele>837.6666666666667</ele><time>2026-04-18T09:29:11.999Z</time></trkpt><trkpt lat="42.59149936528837" lon="-8.289431449097703"><ele>836.3333333333333</ele><time>2026-04-18T09:29:12.999Z</time></trkpt><trkpt lat="42.591336956604316" lon="-8.289392718031209"><ele>835.0</ele><time>2026-04-18T09:29:13.999Z</time></trkpt><trkpt lat="42.591189509363325" lon="-8.289357996069628"><ele>834.8</ele><time>2026-04-18T09:29:14.999Z</time></trkpt><trkpt lat="42.59108542359093" lon="-8.289348026108943"><ele>834.6</ele><time>2026-04-18T09:29:15.999Z</time></trkpt><trkpt lat="42.591021434664746" lon="-8.28936566688487"><ele>834.4000000000001</ele><time>2026-04-18T09:29:16.999Z</time></trkpt><trkpt lat="42.59098331976473" lon="-8.289551049921885"><ele>834.2</ele><time>2026-04-18T09:29:18.999Z</time></trkpt><trkpt lat="42.59093300161533" lon="-8.289702549980419"><ele>834.0</ele><time>2026-04-18T09:29:19.999Z</time></trkpt><trkpt lat="42.59086735556606" lon="-8.289862893835993"><ele>832.4000000000001</ele><time>2026-04-18T09:29:20.999Z</time></trkpt><trkpt lat="42.59078891476898" lon="-8.289973921314548"><ele>830.8</ele><time>2026-04-18T09:29:21.999Z</time></trkpt><trkpt lat="42.59070790064911" lon="-8.290024865065087"><ele>829.2</ele><time>2026-04-18T09:29:22.999Z</time></trkpt><trkpt lat="42.59061461173012" lon="-8.2899976722903"><ele>827.5999999999999</ele><time>2026-04-18T09:29:23.999Z</time></trkpt><trkpt lat="42.59050349875381" lon="-8.289934078832635"><ele>826.0</ele><time>2026-04-18T09:29:24.999Z</time></trkpt><trkpt lat="42.590369972155344" lon="-8.289883922111711"><ele>826.75</ele><time>2026-04-18T09:29:25.999Z</time></trkpt><trkpt lat="42.59022437103431" lon="-8.289871408502593"><ele>827.5</ele><time>2026-04-18T09:29:26.999Z</time></trkpt><trkpt lat="42.59010005926114" lon="-8.289862073678988"><ele>828.25</ele><time>2026-04-18T09:29:27.999Z</time></trkpt><trkpt lat="42.590011261656315" lon="-8.289840231297342"><ele>829.0</ele><time>2026-04-18T09:29:28.999Z</time></trkpt><trkpt lat="42.58996872814247" lon="-8.28994721637844"><ele>829.0</ele><time>2026-04-18T09:29:30.999Z</time></trkpt><trkpt lat="42.58998312481421" lon="-8.290040103640075"><ele>829.0</ele><time>2026-04-18T09:29:31.999Z</time></trkpt><trkpt lat="42.59010615362505" lon="-8.290232392658995"><ele>829.0</ele><time>2026-04-18T09:29:33.999Z</time></trkpt><trkpt lat="42.59017151153909" lon="-8.29035323144719"><ele>829.0</ele><time>2026-04-18T09:29:34.999Z</time></trkpt><trkpt lat="42.59020429758479" lon="-8.29052660626797"><ele>829.75</ele><time>2026-04-18T09:29:35.999Z</time></trkpt><trkpt lat="42.590218492504896" lon="-8.290692991080435"><ele>830.5</ele><time>2026-04-18T09:29:36.999Z</time></trkpt><trkpt lat="42.590204183505094" lon="-8.29087963513701"><ele>831.25</ele><time>2026-04-18T09:29:37.999Z</time></trkpt><trkpt lat="42.59015325558971" lon="-8.291057541112199"><ele>832.0</ele><time>2026-04-18T09:29:38.999Z</time></trkpt><trkpt lat="42.590074497548024" lon="-8.291225536000969"><ele>832.0</ele><time>2026-04-18T09:29:39.999Z</time></trkpt><trkpt lat="42.590012779484105" lon="-8.291401005455073"><ele>832.0</ele><time>2026-04-18T09:29:40.999Z</time></trkpt><trkpt lat="42.58997034062433" lon="-8.291513602535685"><ele>832.0</ele><time>2026-04-18T09:29:41.999Z</time></trkpt><trkpt lat="42.58991851037998" lon="-8.291446886146117"><ele>832.0</ele><time>2026-04-18T09:29:42.999Z</time></trkpt><trkpt lat="42.58978475144155" lon="-8.291379531765267"><ele>832.0</ele><time>2026-04-18T09:29:44.999Z</time></trkpt><trkpt lat="42.58968453525426" lon="-8.29136966379415"><ele>832.0</ele><time>2026-04-18T09:29:45.999Z</time></trkpt><trkpt lat="42.58959315770324" lon="-8.291413751003478"><ele>832.0</ele><time>2026-04-18T09:29:46.999Z</time></trkpt><trkpt lat="42.58944320047379" lon="-8.29147417942225"><ele>832.0</ele><time>2026-04-18T09:29:47.999Z</time></trkpt><trkpt lat="42.58927761968501" lon="-8.29153835651255"><ele>833.5</ele><time>2026-04-18T09:29:48.999Z</time></trkpt><trkpt lat="42.58911956173242" lon="-8.291566365429397"><ele>835.0</ele><time>2026-04-18T09:29:49.999Z</time></trkpt><trkpt lat="42.588967808550215" lon="-8.291558838875433"><ele>836.5</ele><time>2026-04-18T09:29:50.999Z</time></trkpt><trkpt lat="42.588839240434226" lon="-8.291506290454455"><ele>838.0</ele><time>2026-04-18T09:29:51.999Z</time></trkpt><trkpt lat="42.58875929187023" lon="-8.291447606907663"><ele>839.0</ele><time>2026-04-18T09:29:52.999Z</time></trkpt><trkpt lat="42.58870813875261" lon="-8.29129950009669"><ele>840.0</ele><time>2026-04-18T09:29:53.999Z</time></trkpt><trkpt lat="42.58867478615071" lon="-8.291143583520522"><ele>841.0</ele><time>2026-04-18T09:29:54.999Z</time></trkpt><trkpt lat="42.58864310393928" lon="-8.29098111344608"><ele>842.0</ele><time>2026-04-18T09:29:55.999Z</time></trkpt><trkpt lat="42.58858707993955" lon="-8.290773325026368"><ele>846.3333333333334</ele><time>2026-04-18T09:29:56.999Z</time></trkpt><trkpt lat="42.588532924785966" lon="-8.290551408856503"><ele>850.6666666666667</ele><time>2026-04-18T09:29:57.999Z</time></trkpt><trkpt lat="42.588503132733486" lon="-8.2903153837734"><ele>855.0</ele><time>2026-04-18T09:29:58.999Z</time></trkpt><trkpt lat="42.588467224581514" lon="-8.290115269816658"><ele>855.0</ele><time>2026-04-18T09:29:59.999Z</time></trkpt><trkpt lat="42.588409396402945" lon="-8.289939041401938"><ele>855.0</ele><time>2026-04-18T09:30:00.999Z</time></trkpt><trkpt lat="42.588318213184074" lon="-8.289833686893333"><ele>855.0</ele><time>2026-04-18T09:30:01.999Z</time></trkpt><trkpt lat="42.58817661797814" lon="-8.289771733873103"><ele>855.0</ele><time>2026-04-18T09:30:02.999Z</time></trkpt><trkpt lat="42.58801228598129" lon="-8.28965399371535"><ele>853.0</ele><time>2026-04-18T09:30:03.999Z</time></trkpt><trkpt lat="42.58783359159516" lon="-8.289504542370858"><ele>851.0</ele><time>2026-04-18T09:30:04.999Z</time></trkpt><trkpt lat="42.587637576482464" lon="-8.2893606408598"><ele>849.0</ele><time>2026-04-18T09:30:05.999Z</time></trkpt><trkpt lat="42.58742039503107" lon="-8.289228260607794"><ele>849.0</ele><time>2026-04-18T09:30:06.999Z</time></trkpt><trkpt lat="42.58720825832473" lon="-8.289115362881024"><ele>849.0</ele><time>2026-04-18T09:30:08Z</time></trkpt><trkpt lat="42.58701677310476" lon="-8.289021444670615"><ele>849.0</ele><time>2026-04-18T09:30:09Z</time></trkpt><trkpt lat="42.58683039267156" lon="-8.288919737500839"><ele>850.6666666666667</ele><time>2026-04-18T09:30:10Z</time></trkpt><trkpt lat="42.586639579860794" lon="-8.288829168575397"><ele>852.3333333333334</ele><time>2026-04-18T09:30:11Z</time></trkpt><trkpt lat="42.586453395631004" lon="-8.288761381745259"><ele>854.0</ele><time>2026-04-18T09:30:12Z</time></trkpt><trkpt lat="42.58625769761739" lon="-8.288677932264712"><ele>855.6666666666667</ele><time>2026-04-18T09:30:13Z</time></trkpt><trkpt lat="42.58607703194608" lon="-8.288597261361256"><ele>857.3333333333333</ele><time>2026-04-18T09:30:14Z</time></trkpt><trkpt lat="42.58589516446882" lon="-8.288532830330631"><ele>859.0</ele><time>2026-04-18T09:30:15Z</time></trkpt><trkpt lat="42.58569606466798" lon="-8.288485738154092"><ele>859.0</ele><time>2026-04-18T09:30:16Z</time></trkpt><trkpt lat="42.58550516785598" lon="-8.28846491545398"><ele>859.0</ele><time>2026-04-18T09:30:17Z</time></trkpt><trkpt lat="42.58531666952034" lon="-8.288460672797985"><ele>859.0</ele><time>2026-04-18T09:30:18Z</time></trkpt><trkpt lat="42.585127872753404" lon="-8.28844254939989"><ele>861.5</ele><time>2026-04-18T09:30:19Z</time></trkpt><trkpt lat="42.584957761736305" lon="-8.288409188537864"><ele>864.0</ele><time>2026-04-18T09:30:20Z</time></trkpt><trkpt lat="42.58483393413901" lon="-8.288360319699764"><ele>866.5</ele><time>2026-04-18T09:30:21Z</time></trkpt><trkpt lat="42.58473002894555" lon="-8.288274385823293"><ele>869.0</ele><time>2026-04-18T09:30:22Z</time></trkpt><trkpt lat="42.584631910772416" lon="-8.288161641649085"><ele>869.5</ele><time>2026-04-18T09:30:23Z</time></trkpt><trkpt lat="42.58455454677538" lon="-8.288025465277817"><ele>870.0</ele><time>2026-04-18T09:30:24Z</time></trkpt><trkpt lat="42.58447850078891" lon="-8.287872509457593"><ele>870.5</ele><time>2026-04-18T09:30:25Z</time></trkpt><trkpt lat="42.584399194045844" lon="-8.287710007760277"><ele>871.0</ele><time>2026-04-18T09:30:26Z</time></trkpt><trkpt lat="42.584304513321754" lon="-8.287539938453635"><ele>873.6666666666666</ele><time>2026-04-18T09:30:27Z</time></trkpt><trkpt lat="42.584194706792836" lon="-8.287357876939023"><ele>876.3333333333333</ele><time>2026-04-18T09:30:28Z</time></trkpt><trkpt lat="42.58408265646876" lon="-8.287178932221348"><ele>879.0</ele><time>2026-04-18T09:30:29Z</time></trkpt><trkpt lat="42.58397302432817" lon="-8.286999323550152"><ele>879.6666666666667</ele><time>2026-04-18T09:30:30Z</time></trkpt><trkpt lat="42.58385673403891" lon="-8.286811303491767"><ele>880.3333333333334</ele><time>2026-04-18T09:30:31Z</time></trkpt><trkpt lat="42.58373119123624" lon="-8.286618332557296"><ele>881.0</ele><time>2026-04-18T09:30:32Z</time></trkpt><trkpt lat="42.58361618233402" lon="-8.28644633224048"><ele>882.3333333333334</ele><time>2026-04-18T09:30:33Z</time></trkpt><trkpt lat="42.58351181378149" lon="-8.286304823493566"><ele>883.6666666666667</ele><time>2026-04-18T09:30:34Z</time></trkpt><trkpt lat="42.5833987020598" lon="-8.286179999029953"><ele>885.0</ele><time>2026-04-18T09:30:35Z</time></trkpt><trkpt lat="42.58326444412161" lon="-8.286066976744486"><ele>885.0</ele><time>2026-04-18T09:30:36Z</time></trkpt><trkpt lat="42.58313602158096" lon="-8.285994191647884"><ele>885.0</ele><time>2026-04-18T09:30:37Z</time></trkpt><trkpt lat="42.58298619641728" lon="-8.28593431678857"><ele>885.0</ele><time>2026-04-18T09:30:38Z</time></trkpt><trkpt lat="42.58282082576516" lon="-8.285873825588848"><ele>885.0</ele><time>2026-04-18T09:30:39Z</time></trkpt><trkpt lat="42.582648970771864" lon="-8.28581519089144"><ele>885.0</ele><time>2026-04-18T09:30:40Z</time></trkpt><trkpt lat="42.58248586296579" lon="-8.285755031123747"><ele>885.0</ele><time>2026-04-18T09:30:41Z</time></trkpt><trkpt lat="42.58232135174173" lon="-8.285685787672866"><ele>884.6666666666667</ele><time>2026-04-18T09:30:42Z</time></trkpt><trkpt lat="42.58213415299802" lon="-8.28559447096596"><ele>884.3333333333334</ele><time>2026-04-18T09:30:43Z</time></trkpt><trkpt lat="42.58193459140147" lon="-8.285486518035798"><ele>884.0</ele><time>2026-04-18T09:30:44Z</time></trkpt><trkpt lat="42.581724817093864" lon="-8.285345358991732"><ele>883.0</ele><time>2026-04-18T09:30:45Z</time></trkpt><trkpt lat="42.581497894783716" lon="-8.285208794483477"><ele>882.0</ele><time>2026-04-18T09:30:46Z</time></trkpt><trkpt lat="42.58127007370679" lon="-8.285058754642082"><ele>880.6666666666667</ele><time>2026-04-18T09:30:47Z</time></trkpt><trkpt lat="42.58107610977664" lon="-8.28493835194812"><ele>879.3333333333334</ele><time>2026-04-18T09:30:48Z</time></trkpt><trkpt lat="42.580923388805644" lon="-8.284855353835622"><ele>878.0</ele><time>2026-04-18T09:30:49Z</time></trkpt><trkpt lat="42.58077541500446" lon="-8.284813930634588"><ele>878.0</ele><time>2026-04-18T09:30:50Z</time></trkpt><trkpt lat="42.58059307121246" lon="-8.284801648993607"><ele>878.0</ele><time>2026-04-18T09:30:51Z</time></trkpt><trkpt lat="42.58039294857877" lon="-8.28479935564336"><ele>878.0</ele><time>2026-04-18T09:30:52Z</time></trkpt><trkpt lat="42.580192184360705" lon="-8.284794153962238"><ele>876.3333333333334</ele><time>2026-04-18T09:30:53Z</time></trkpt><trkpt lat="42.579984667189876" lon="-8.284762000481987"><ele>874.6666666666667</ele><time>2026-04-18T09:30:54Z</time></trkpt><trkpt lat="42.57976344813124" lon="-8.284690189279937"><ele>873.0</ele><time>2026-04-18T09:30:55Z</time></trkpt><trkpt lat="42.579535199157796" lon="-8.28459612033858"><ele>874.5</ele><time>2026-04-18T09:30:56Z</time></trkpt><trkpt lat="42.57930476857871" lon="-8.284476353290337"><ele>876.0</ele><time>2026-04-18T09:30:57Z</time></trkpt><trkpt lat="42.579090920276144" lon="-8.284356320103441"><ele>876.0</ele><time>2026-04-18T09:30:58Z</time></trkpt><trkpt lat="42.57888907710725" lon="-8.284259837697885"><ele>876.0</ele><time>2026-04-18T09:30:59Z</time></trkpt><trkpt lat="42.57871018382685" lon="-8.284172609839699"><ele>876.0</ele><time>2026-04-18T09:31:00Z</time></trkpt><trkpt lat="42.5785480790433" lon="-8.28408624264664"><ele>876.3333333333333</ele><time>2026-04-18T09:31:01Z</time></trkpt><trkpt lat="42.57839737848359" lon="-8.284001498739261"><ele>876.6666666666666</ele><time>2026-04-18T09:31:02Z</time></trkpt><trkpt lat="42.578257263379136" lon="-8.283906678555871"><ele>877.0</ele><time>2026-04-18T09:31:03Z</time></trkpt><trkpt lat="42.57813484974167" lon="-8.283785388688866"><ele>877.0</ele><time>2026-04-18T09:31:04Z</time></trkpt><trkpt lat="42.578014268752305" lon="-8.283617028199544"><ele>877.0</ele><time>2026-04-18T09:31:05Z</time></trkpt><trkpt lat="42.57789285405779" lon="-8.283414680592443"><ele>877.0</ele><time>2026-04-18T09:31:06Z</time></trkpt><trkpt lat="42.57776983163747" lon="-8.283242614217858"><ele>876.8</ele><time>2026-04-18T09:31:07Z</time></trkpt><trkpt lat="42.57766574560787" lon="-8.283147146012633"><ele>876.6</ele><time>2026-04-18T09:31:08Z</time></trkpt><trkpt lat="42.57759547564951" lon="-8.283098334611"><ele>876.3999999999999</ele><time>2026-04-18T09:31:09Z</time></trkpt><trkpt lat="42.57748837367229" lon="-8.283091501551668"><ele>876.1999999999999</ele><time>2026-04-18T09:31:11Z</time></trkpt><trkpt lat="42.577431191426506" lon="-8.28317163942618"><ele>876.0</ele><time>2026-04-18T09:31:12Z</time></trkpt><trkpt lat="42.57737612373638" lon="-8.283290085450448"><ele>876.0</ele><time>2026-04-18T09:31:13Z</time></trkpt><trkpt lat="42.57729030834427" lon="-8.283417340745077"><ele>876.0</ele><time>2026-04-18T09:31:14Z</time></trkpt><trkpt lat="42.5771725293479" lon="-8.283537638609882"><ele>876.0</ele><time>2026-04-18T09:31:15Z</time></trkpt><trkpt lat="42.57703252778692" lon="-8.283677338335377"><ele>876.0</ele><time>2026-04-18T09:31:16Z</time></trkpt><trkpt lat="42.57689690849658" lon="-8.283830542140102"><ele>875.0</ele><time>2026-04-18T09:31:17Z</time></trkpt><trkpt lat="42.57677249649173" lon="-8.283963081541064"><ele>874.0</ele><time>2026-04-18T09:31:18Z</time></trkpt><trkpt lat="42.5766330611467" lon="-8.284083548933207"><ele>873.0</ele><time>2026-04-18T09:31:19Z</time></trkpt><trkpt lat="42.57645561788856" lon="-8.284156562863842"><ele>873.0</ele><time>2026-04-18T09:31:19.999Z</time></trkpt><trkpt lat="42.57625165957347" lon="-8.28420185352989"><ele>873.0</ele><time>2026-04-18T09:31:20.999Z</time></trkpt><trkpt lat="42.57606743843591" lon="-8.284245085914874"><ele>873.0</ele><time>2026-04-18T09:31:21.999Z</time></trkpt><trkpt lat="42.57590843386518" lon="-8.28429202755751"><ele>872.25</ele><time>2026-04-18T09:31:22.999Z</time></trkpt><trkpt lat="42.5757576388883" lon="-8.284322656295569"><ele>871.5</ele><time>2026-04-18T09:31:23.999Z</time></trkpt><trkpt lat="42.575615250051264" lon="-8.284333756772229"><ele>870.75</ele><time>2026-04-18T09:31:24.999Z</time></trkpt><trkpt lat="42.57547207165574" lon="-8.284314644224375"><ele>870.0</ele><time>2026-04-18T09:31:25.999Z</time></trkpt><trkpt lat="42.575292263566396" lon="-8.284246164226438"><ele>866.6666666666667</ele><time>2026-04-18T09:31:26.999Z</time></trkpt><trkpt lat="42.57508439142035" lon="-8.284155807911525"><ele>863.3333333333334</ele><time>2026-04-18T09:31:27.999Z</time></trkpt><trkpt lat="42.57486416054477" lon="-8.284069853727527"><ele>860.0</ele><time>2026-04-18T09:31:28.999Z</time></trkpt><trkpt lat="42.57467585695044" lon="-8.284005567875372"><ele>860.0</ele><time>2026-04-18T09:31:29.999Z</time></trkpt><trkpt lat="42.57453001095794" lon="-8.283941561227637"><ele>860.0</ele><time>2026-04-18T09:31:30.999Z</time></trkpt><trkpt lat="42.57441571333978" lon="-8.28389469555527"><ele>860.0</ele><time>2026-04-18T09:31:31.999Z</time></trkpt><trkpt lat="42.574313013969366" lon="-8.283839509335214"><ele>860.0</ele><time>2026-04-18T09:31:32.999Z</time></trkpt><trkpt lat="42.574222485621775" lon="-8.283766155873353"><ele>858.6666666666667</ele><time>2026-04-18T09:31:33.999Z</time></trkpt><trkpt lat="42.574153312991406" lon="-8.283673166490011"><ele>857.3333333333334</ele><time>2026-04-18T09:31:34.999Z</time></trkpt><trkpt lat="42.57410403233638" lon="-8.283562597211644"><ele>856.0</ele><time>2026-04-18T09:31:35.999Z</time></trkpt><trkpt lat="42.57406531538174" lon="-8.283465908885615"><ele>854.6666666666667</ele><time>2026-04-18T09:31:36.999Z</time></trkpt><trkpt lat="42.57399409502392" lon="-8.28339396300469"><ele>853.3333333333334</ele><time>2026-04-18T09:31:37.999Z</time></trkpt><trkpt lat="42.57391149747172" lon="-8.28337594620885"><ele>852.0</ele><time>2026-04-18T09:31:38.999Z</time></trkpt><trkpt lat="42.57382488263567" lon="-8.28343313972004"><ele>852.0</ele><time>2026-04-18T09:31:39.999Z</time></trkpt><trkpt lat="42.57370820744343" lon="-8.283516210399009"><ele>852.0</ele><time>2026-04-18T09:31:40.999Z</time></trkpt><trkpt lat="42.57358474808018" lon="-8.283571643256392"><ele>852.0</ele><time>2026-04-18T09:31:41.999Z</time></trkpt><trkpt lat="42.57345219242315" lon="-8.283591298956917"><ele>852.0</ele><time>2026-04-18T09:31:42.999Z</time></trkpt><trkpt lat="42.573278945377766" lon="-8.283485441934486"><ele>850.6666666666667</ele><time>2026-04-18T09:31:43.999Z</time></trkpt><trkpt lat="42.57311451416261" lon="-8.283405599507752"><ele>849.3333333333334</ele><time>2026-04-18T09:31:44.999Z</time></trkpt><trkpt lat="42.572926927125714" lon="-8.283332424991828"><ele>848.0</ele><time>2026-04-18T09:31:45.999Z</time></trkpt><trkpt lat="42.572747362271755" lon="-8.283283996232706"><ele>845.6666666666667</ele><time>2026-04-18T09:31:46.999Z</time></trkpt><trkpt lat="42.572558561363486" lon="-8.28324392604652"><ele>843.3333333333333</ele><time>2026-04-18T09:31:47.999Z</time></trkpt><trkpt lat="42.57234450419372" lon="-8.283210153513568"><ele>841.0</ele><time>2026-04-18T09:31:48.999Z</time></trkpt><trkpt lat="42.572119178494546" lon="-8.283171678296293"><ele>837.6666666666666</ele><time>2026-04-18T09:31:49.999Z</time></trkpt><trkpt lat="42.57191891481959" lon="-8.283144682189022"><ele>834.3333333333333</ele><time>2026-04-18T09:31:50.999Z</time></trkpt><trkpt lat="42.57172711816289" lon="-8.283140299553514"><ele>831.0</ele><time>2026-04-18T09:31:51.999Z</time></trkpt><trkpt lat="42.57153648691884" lon="-8.283155297834906"><ele>831.0</ele><time>2026-04-18T09:31:52.999Z</time></trkpt><trkpt lat="42.57138138039492" lon="-8.283184934582362"><ele>831.0</ele><time>2026-04-18T09:31:53.999Z</time></trkpt><trkpt lat="42.57124691936409" lon="-8.283239524839981"><ele>831.0</ele><time>2026-04-18T09:31:54.999Z</time></trkpt><trkpt lat="42.57110938084878" lon="-8.283336379066974"><ele>828.0</ele><time>2026-04-18T09:31:55.999Z</time></trkpt><trkpt lat="42.570961660712356" lon="-8.283484033325616"><ele>825.0</ele><time>2026-04-18T09:31:56.999Z</time></trkpt><trkpt lat="42.57082374935049" lon="-8.283643800641773"><ele>822.0</ele><time>2026-04-18T09:31:57.999Z</time></trkpt><trkpt lat="42.57069999760428" lon="-8.283767103953014"><ele>822.0</ele><time>2026-04-18T09:31:58.999Z</time></trkpt><trkpt lat="42.570583315106326" lon="-8.283838611871461"><ele>822.0</ele><time>2026-04-18T09:31:59.999Z</time></trkpt><trkpt lat="42.57046467082584" lon="-8.2838756526886"><ele>822.0</ele><time>2026-04-18T09:32:00.999Z</time></trkpt><trkpt lat="42.57034846128103" lon="-8.283868610958864"><ele>822.0</ele><time>2026-04-18T09:32:01.999Z</time></trkpt><trkpt lat="42.57025016686493" lon="-8.283827117706828"><ele>820.8</ele><time>2026-04-18T09:32:02.999Z</time></trkpt><trkpt lat="42.570162424515665" lon="-8.283772949429059"><ele>819.6</ele><time>2026-04-18T09:32:03.999Z</time></trkpt><trkpt lat="42.570097897353875" lon="-8.283740004892046"><ele>818.4</ele><time>2026-04-18T09:32:04.999Z</time></trkpt><trkpt lat="42.57002645544006" lon="-8.283719570753114"><ele>817.1999999999999</ele><time>2026-04-18T09:32:05.999Z</time></trkpt><trkpt lat="42.569932801019576" lon="-8.283741653073474"><ele>816.0</ele><time>2026-04-18T09:32:06.999Z</time></trkpt><trkpt lat="42.5698174709706" lon="-8.283779518679575"><ele>816.0</ele><time>2026-04-18T09:32:07.999Z</time></trkpt><trkpt lat="42.56969009854039" lon="-8.283826168813668"><ele>816.0</ele><time>2026-04-18T09:32:08.999Z</time></trkpt><trkpt lat="42.56954999351841" lon="-8.28388926260363"><ele>816.0</ele><time>2026-04-18T09:32:09.999Z</time></trkpt><trkpt lat="42.569394829084764" lon="-8.283973106856363"><ele>816.0</ele><time>2026-04-18T09:32:10.999Z</time></trkpt><trkpt lat="42.569216040491725" lon="-8.284083283413926"><ele>817.3333333333333</ele><time>2026-04-18T09:32:11.999Z</time></trkpt><trkpt lat="42.56902489856044" lon="-8.284190670545918"><ele>818.6666666666666</ele><time>2026-04-18T09:32:13Z</time></trkpt><trkpt lat="42.56884978980027" lon="-8.284251541430029"><ele>820.0</ele><time>2026-04-18T09:32:14Z</time></trkpt><trkpt lat="42.568696716862334" lon="-8.284279823635355"><ele>821.6666666666666</ele><time>2026-04-18T09:32:15Z</time></trkpt><trkpt lat="42.568539182967484" lon="-8.284239241965905"><ele>823.3333333333333</ele><time>2026-04-18T09:32:16Z</time></trkpt><trkpt lat="42.56836286959419" lon="-8.284155010837855"><ele>825.0</ele><time>2026-04-18T09:32:17Z</time></trkpt><trkpt lat="42.56817947307698" lon="-8.284062856965758"><ele>825.0</ele><time>2026-04-18T09:32:18Z</time></trkpt><trkpt lat="42.56799483404217" lon="-8.283977560871497"><ele>825.0</ele><time>2026-04-18T09:32:19Z</time></trkpt><trkpt lat="42.56782319921285" lon="-8.283876328103547"><ele>825.0</ele><time>2026-04-18T09:32:20Z</time></trkpt><trkpt lat="42.56763774470682" lon="-8.283748794066794"><ele>827.3333333333333</ele><time>2026-04-18T09:32:21Z</time></trkpt><trkpt lat="42.56744371752901" lon="-8.283619892807836"><ele>829.6666666666666</ele><time>2026-04-18T09:32:22Z</time></trkpt><trkpt lat="42.56727394503932" lon="-8.283492039386637"><ele>832.0</ele><time>2026-04-18T09:32:23Z</time></trkpt><trkpt lat="42.56709856201186" lon="-8.283378763857696"><ele>831.0</ele><time>2026-04-18T09:32:24Z</time></trkpt><trkpt lat="42.566922018271086" lon="-8.283280094017869"><ele>830.0</ele><time>2026-04-18T09:32:25Z</time></trkpt><trkpt lat="42.5667673609074" lon="-8.283208450541828"><ele>829.0</ele><time>2026-04-18T09:32:26Z</time></trkpt><trkpt lat="42.56661332568751" lon="-8.283187845497412"><ele>829.0</ele><time>2026-04-18T09:32:27Z</time></trkpt><trkpt lat="42.56643291359629" lon="-8.283217494438448"><ele>829.0</ele><time>2026-04-18T09:32:28Z</time></trkpt><trkpt lat="42.56622476228465" lon="-8.283295446658128"><ele>829.0</ele><time>2026-04-18T09:32:29Z</time></trkpt><trkpt lat="42.566002834999985" lon="-8.283385615624441"><ele>828.3333333333333</ele><time>2026-04-18T09:32:30Z</time></trkpt><trkpt lat="42.565774767930286" lon="-8.28346015669275"><ele>827.6666666666667</ele><time>2026-04-18T09:32:31Z</time></trkpt><trkpt lat="42.56556945478686" lon="-8.283522002636921"><ele>827.0</ele><time>2026-04-18T09:32:32Z</time></trkpt><trkpt lat="42.565384382617644" lon="-8.28357588284545"><ele>826.75</ele><time>2026-04-18T09:32:33Z</time></trkpt><trkpt lat="42.56523174090184" lon="-8.283637686925339"><ele>826.5</ele><time>2026-04-18T09:32:34Z</time></trkpt><trkpt lat="42.56510508837477" lon="-8.283709624979487"><ele>826.25</ele><time>2026-04-18T09:32:35Z</time></trkpt><trkpt lat="42.56500951416576" lon="-8.283823524031177"><ele>826.0</ele><time>2026-04-18T09:32:36Z</time></trkpt><trkpt lat="42.56493242889781" lon="-8.283987802393005"><ele>825.0</ele><time>2026-04-18T09:32:37Z</time></trkpt><trkpt lat="42.56487151123927" lon="-8.284193916864885"><ele>824.0</ele><time>2026-04-18T09:32:38Z</time></trkpt><trkpt lat="42.564813365425934" lon="-8.284384900905124"><ele>823.0</ele><time>2026-04-18T09:32:39Z</time></trkpt><trkpt lat="42.56472978182453" lon="-8.284520082735325"><ele>822.0</ele><time>2026-04-18T09:32:40Z</time></trkpt><trkpt lat="42.56462613335818" lon="-8.284608732841148"><ele>823.25</ele><time>2026-04-18T09:32:41Z</time></trkpt><trkpt lat="42.564505131330556" lon="-8.284674748554359"><ele>824.5</ele><time>2026-04-18T09:32:42Z</time></trkpt><trkpt lat="42.56438370880296" lon="-8.284703874266635"><ele>825.75</ele><time>2026-04-18T09:32:43Z</time></trkpt><trkpt lat="42.56426264089975" lon="-8.284696689961551"><ele>827.0</ele><time>2026-04-18T09:32:44Z</time></trkpt><trkpt lat="42.56414015655977" lon="-8.284666970872443"><ele>827.0</ele><time>2026-04-18T09:32:45Z</time></trkpt><trkpt lat="42.56400637229497" lon="-8.284607605820307"><ele>827.0</ele><time>2026-04-18T09:32:46Z</time></trkpt><trkpt lat="42.563872350860606" lon="-8.284524061505431"><ele>827.0</ele><time>2026-04-18T09:32:47Z</time></trkpt><trkpt lat="42.56373835060703" lon="-8.284411141152322"><ele>827.0</ele><time>2026-04-18T09:32:48Z</time></trkpt><trkpt lat="42.56359861342954" lon="-8.284290552557815"><ele>827.0</ele><time>2026-04-18T09:32:49Z</time></trkpt><trkpt lat="42.56344267488728" lon="-8.284187613367989"><ele>827.0</ele><time>2026-04-18T09:32:50Z</time></trkpt><trkpt lat="42.563274627095474" lon="-8.284099210601646"><ele>827.0</ele><time>2026-04-18T09:32:51Z</time></trkpt><trkpt lat="42.56310228560991" lon="-8.284019549714273"><ele>827.0</ele><time>2026-04-18T09:32:52Z</time></trkpt><trkpt lat="42.562950462294246" lon="-8.283953282376347"><ele>827.0</ele><time>2026-04-18T09:32:53Z</time></trkpt><trkpt lat="42.56281959697741" lon="-8.28389207113616"><ele>827.0</ele><time>2026-04-18T09:32:54Z</time></trkpt><trkpt lat="42.562701762798945" lon="-8.283836220368805"><ele>827.0</ele><time>2026-04-18T09:32:55Z</time></trkpt><trkpt lat="42.5625774616739" lon="-8.283771790902932"><ele>827.0</ele><time>2026-04-18T09:32:56Z</time></trkpt><trkpt lat="42.56244608913058" lon="-8.28370949325248"><ele>827.0</ele><time>2026-04-18T09:32:57Z</time></trkpt><trkpt lat="42.562309705143086" lon="-8.283629829196213"><ele>827.0</ele><time>2026-04-18T09:32:58Z</time></trkpt><trkpt lat="42.56217203832826" lon="-8.283516645850497"><ele>827.0</ele><time>2026-04-18T09:32:59Z</time></trkpt><trkpt lat="42.562038886842835" lon="-8.283393871052485"><ele>825.3333333333334</ele><time>2026-04-18T09:33:00Z</time></trkpt><trkpt lat="42.56190965423925" lon="-8.28324765777858"><ele>823.6666666666667</ele><time>2026-04-18T09:33:01Z</time></trkpt><trkpt lat="42.56179335078677" lon="-8.283075888672343"><ele>822.0</ele><time>2026-04-18T09:33:02Z</time></trkpt><trkpt lat="42.56167408564861" lon="-8.282866639296344"><ele>821.3333333333333</ele><time>2026-04-18T09:33:03Z</time></trkpt><trkpt lat="42.56155116064599" lon="-8.282632941046247"><ele>820.6666666666666</ele><time>2026-04-18T09:33:04Z</time></trkpt><trkpt lat="42.56142436375031" lon="-8.282413143143367"><ele>820.0</ele><time>2026-04-18T09:33:05Z</time></trkpt><trkpt lat="42.56130154674402" lon="-8.282210681089202"><ele>817.0</ele><time>2026-04-18T09:33:06Z</time></trkpt><trkpt lat="42.56117935280897" lon="-8.282029056658132"><ele>814.0</ele><time>2026-04-18T09:33:07Z</time></trkpt><trkpt lat="42.561055583205984" lon="-8.281859400765024"><ele>811.0</ele><time>2026-04-18T09:33:08Z</time></trkpt><trkpt lat="42.56093348856102" lon="-8.281659113166416"><ele>811.0</ele><time>2026-04-18T09:33:09Z</time></trkpt><trkpt lat="42.560803081110905" lon="-8.281443094768923"><ele>811.0</ele><time>2026-04-18T09:33:10Z</time></trkpt><trkpt lat="42.560650222768125" lon="-8.281215261183439"><ele>811.0</ele><time>2026-04-18T09:33:11Z</time></trkpt><trkpt lat="42.5604835606765" lon="-8.280982145992995"><ele>808.5</ele><time>2026-04-18T09:33:12Z</time></trkpt><trkpt lat="42.56030537720873" lon="-8.28073981187619"><ele>806.0</ele><time>2026-04-18T09:33:13Z</time></trkpt><trkpt lat="42.56011394636367" lon="-8.280510760638471"><ele>805.6666666666667</ele><time>2026-04-18T09:33:14Z</time></trkpt><trkpt lat="42.55994167126892" lon="-8.280286210709853"><ele>805.3333333333333</ele><time>2026-04-18T09:33:15Z</time></trkpt><trkpt lat="42.55980275616089" lon="-8.280099165477289"><ele>805.0</ele><time>2026-04-18T09:33:16Z</time></trkpt><trkpt lat="42.55970391939503" lon="-8.27995854532981"><ele>805.0</ele><time>2026-04-18T09:33:17Z</time></trkpt><trkpt lat="42.559641685697386" lon="-8.279853914937926"><ele>805.0</ele><time>2026-04-18T09:33:18Z</time></trkpt><trkpt lat="42.55961295287942" lon="-8.27977556948583"><ele>805.0</ele><time>2026-04-18T09:33:19Z</time></trkpt><trkpt lat="42.55964812692661" lon="-8.279639550807568"><ele>805.0</ele><time>2026-04-18T09:33:21Z</time></trkpt><trkpt lat="42.55970346695184" lon="-8.279535229095384"><ele>805.0</ele><time>2026-04-18T09:33:22Z</time></trkpt><trkpt lat="42.55978491009904" lon="-8.279406665356708"><ele>805.75</ele><time>2026-04-18T09:33:23Z</time></trkpt><trkpt lat="42.55986894057925" lon="-8.279258184196793"><ele>806.5</ele><time>2026-04-18T09:33:24Z</time></trkpt><trkpt lat="42.55990887675548" lon="-8.279108998608828"><ele>807.25</ele><time>2026-04-18T09:33:25Z</time></trkpt><trkpt lat="42.55991388075779" lon="-8.278978526497442"><ele>808.0</ele><time>2026-04-18T09:33:26Z</time></trkpt><trkpt lat="42.559869512618306" lon="-8.278849784638302"><ele>808.0</ele><time>2026-04-18T09:33:27Z</time></trkpt><trkpt lat="42.55979401806852" lon="-8.278711635368317"><ele>808.0</ele><time>2026-04-18T09:33:28Z</time></trkpt><trkpt lat="42.55970487522032" lon="-8.278556519096815"><ele>808.0</ele><time>2026-04-18T09:33:29Z</time></trkpt><trkpt lat="42.55960957085597" lon="-8.278364446713177"><ele>808.0</ele><time>2026-04-18T09:33:30Z</time></trkpt><trkpt lat="42.55950460294801" lon="-8.278172486922124"><ele>809.6666666666666</ele><time>2026-04-18T09:33:31Z</time></trkpt><trkpt lat="42.55937001990622" lon="-8.27803266018236"><ele>811.3333333333333</ele><time>2026-04-18T09:33:32Z</time></trkpt><trkpt lat="42.559221405095755" lon="-8.277909724747765"><ele>813.0</ele><time>2026-04-18T09:33:33Z</time></trkpt><trkpt lat="42.55905738805845" lon="-8.277813192078526"><ele>813.0</ele><time>2026-04-18T09:33:34Z</time></trkpt><trkpt lat="42.5589291353767" lon="-8.277733997977322"><ele>813.0</ele><time>2026-04-18T09:33:34.999Z</time></trkpt><trkpt lat="42.55878225095079" lon="-8.277667870026196"><ele>813.0</ele><time>2026-04-18T09:33:35.999Z</time></trkpt><trkpt lat="42.55860734905133" lon="-8.277617075478771"><ele>814.3333333333333</ele><time>2026-04-18T09:33:36.999Z</time></trkpt><trkpt lat="42.55845164350666" lon="-8.277528081781226"><ele>815.6666666666666</ele><time>2026-04-18T09:33:37.999Z</time></trkpt><trkpt lat="42.55828218351531" lon="-8.27739194117807"><ele>817.0</ele><time>2026-04-18T09:33:38.999Z</time></trkpt><trkpt lat="42.55809570487764" lon="-8.277230794847682"><ele>814.0</ele><time>2026-04-18T09:33:39.999Z</time></trkpt><trkpt lat="42.55787829684229" lon="-8.277099536978207"><ele>811.0</ele><time>2026-04-18T09:33:40.999Z</time></trkpt><trkpt lat="42.55765796117201" lon="-8.276998937277215"><ele>811.0</ele><time>2026-04-18T09:33:41.999Z</time></trkpt><trkpt lat="42.557475034472446" lon="-8.276914674784718"><ele>811.0</ele><time>2026-04-18T09:33:42.999Z</time></trkpt><trkpt lat="42.55734091765754" lon="-8.276841825932317"><ele>811.0</ele><time>2026-04-18T09:33:43.999Z</time></trkpt><trkpt lat="42.55721825248072" lon="-8.27675709860596"><ele>811.0</ele><time>2026-04-18T09:33:44.999Z</time></trkpt><trkpt lat="42.55709459351846" lon="-8.27664590944127"><ele>811.0</ele><time>2026-04-18T09:33:45.999Z</time></trkpt><trkpt lat="42.556969944363495" lon="-8.276478886352013"><ele>811.0</ele><time>2026-04-18T09:33:46.999Z</time></trkpt><trkpt lat="42.55684981778146" lon="-8.276283022245794"><ele>813.6666666666666</ele><time>2026-04-18T09:33:47.999Z</time></trkpt><trkpt lat="42.55673069028361" lon="-8.276065764848711"><ele>816.3333333333333</ele><time>2026-04-18T09:33:48.999Z</time></trkpt><trkpt lat="42.556600206837125" lon="-8.275843552018943"><ele>819.0</ele><time>2026-04-18T09:33:49.999Z</time></trkpt><trkpt lat="42.55647709845605" lon="-8.275625514763918"><ele>820.3333333333333</ele><time>2026-04-18T09:33:50.999Z</time></trkpt><trkpt lat="42.55637465355859" lon="-8.275430413490266"><ele>821.6666666666666</ele><time>2026-04-18T09:33:51.999Z</time></trkpt><trkpt lat="42.55627967401949" lon="-8.275281121953098"><ele>823.0</ele><time>2026-04-18T09:33:52.999Z</time></trkpt><trkpt lat="42.5561497568303" lon="-8.275157393685147"><ele>824.5</ele><time>2026-04-18T09:33:53.999Z</time></trkpt><trkpt lat="42.55601570792126" lon="-8.274977145229455"><ele>826.0</ele><time>2026-04-18T09:33:54.999Z</time></trkpt><trkpt lat="42.55590119781386" lon="-8.274854242901945"><ele>827.5</ele><time>2026-04-18T09:33:55.999Z</time></trkpt><trkpt lat="42.55584818198024" lon="-8.274742871633196"><ele>829.0</ele><time>2026-04-18T09:33:56.999Z</time></trkpt><trkpt lat="42.55585916163441" lon="-8.274635256459568"><ele>829.0</ele><time>2026-04-18T09:33:57.999Z</time></trkpt><trkpt lat="42.55588755174319" lon="-8.274513205881428"><ele>829.0</ele><time>2026-04-18T09:33:58.999Z</time></trkpt><trkpt lat="42.55593874750333" lon="-8.274356020071831"><ele>829.0</ele><time>2026-04-18T09:33:59.999Z</time></trkpt><trkpt lat="42.55594562963446" lon="-8.274191799043445"><ele>829.0</ele><time>2026-04-18T09:34:00.999Z</time></trkpt><trkpt lat="42.555987223019756" lon="-8.273949270011341"><ele>828.6666666666666</ele><time>2026-04-18T09:34:01.999Z</time></trkpt><trkpt lat="42.556036875590884" lon="-8.273678499630234"><ele>828.3333333333333</ele><time>2026-04-18T09:34:02.999Z</time></trkpt><trkpt lat="42.55610612261465" lon="-8.273383807251257"><ele>828.0</ele><time>2026-04-18T09:34:03.999Z</time></trkpt><trkpt lat="42.55618874854154" lon="-8.273105162014716"><ele>827.0</ele><time>2026-04-18T09:34:04.999Z</time></trkpt><trkpt lat="42.55627601662848" lon="-8.272937982368738"><ele>826.0</ele><time>2026-04-18T09:34:05.999Z</time></trkpt><trkpt lat="42.556336948854295" lon="-8.272736209354107"><ele>825.0</ele><time>2026-04-18T09:34:06.999Z</time></trkpt><trkpt lat="42.55636014012781" lon="-8.272602259413022"><ele>824.0</ele><time>2026-04-18T09:34:07.999Z</time></trkpt><trkpt lat="42.556340985900775" lon="-8.27251824114467"><ele>824.0</ele><time>2026-04-18T09:34:08.999Z</time></trkpt><trkpt lat="42.556321801326696" lon="-8.272401902344585"><ele>824.0</ele><time>2026-04-18T09:34:09.999Z</time></trkpt><trkpt lat="42.55635046058958" lon="-8.27229696695405"><ele>824.0</ele><time>2026-04-18T09:34:10.999Z</time></trkpt><trkpt lat="42.55640772013844" lon="-8.272207137065255"><ele>824.0</ele><time>2026-04-18T09:34:11.999Z</time></trkpt><trkpt lat="42.556481960108734" lon="-8.27210637037333"><ele>824.0</ele><time>2026-04-18T09:34:12.999Z</time></trkpt><trkpt lat="42.556611272921245" lon="-8.271957433115126"><ele>825.6666666666667</ele><time>2026-04-18T09:34:13.999Z</time></trkpt><trkpt lat="42.55675230832579" lon="-8.271799519724617"><ele>827.3333333333333</ele><time>2026-04-18T09:34:14.999Z</time></trkpt><trkpt lat="42.55691039294138" lon="-8.271656767869676"><ele>829.0</ele><time>2026-04-18T09:34:15.999Z</time></trkpt><trkpt lat="42.557090304967296" lon="-8.271530244374137"><ele>830.6666666666666</ele><time>2026-04-18T09:34:16.999Z</time></trkpt><trkpt lat="42.55727809006809" lon="-8.271415629644848"><ele>832.3333333333333</ele><time>2026-04-18T09:34:17.999Z</time></trkpt><trkpt lat="42.55740085630754" lon="-8.271292739589143"><ele>834.0</ele><time>2026-04-18T09:34:19Z</time></trkpt><trkpt lat="42.557521320194475" lon="-8.271143767083812"><ele>834.0</ele><time>2026-04-18T09:34:20Z</time></trkpt><trkpt lat="42.55763003516948" lon="-8.270963491972006"><ele>834.0</ele><time>2026-04-18T09:34:21Z</time></trkpt><trkpt lat="42.55773511072513" lon="-8.27075118443487"><ele>834.0</ele><time>2026-04-18T09:34:22Z</time></trkpt><trkpt lat="42.557834126659024" lon="-8.270583898899432"><ele>832.0</ele><time>2026-04-18T09:34:23Z</time></trkpt><trkpt lat="42.557941213944815" lon="-8.270423563097541"><ele>830.0</ele><time>2026-04-18T09:34:24Z</time></trkpt><trkpt lat="42.558024743052904" lon="-8.270257000417564"><ele>828.0</ele><time>2026-04-18T09:34:25Z</time></trkpt><trkpt lat="42.558095656161456" lon="-8.27004515746571"><ele>828.0</ele><time>2026-04-18T09:34:26Z</time></trkpt><trkpt lat="42.55817915795504" lon="-8.26982287184911"><ele>828.0</ele><time>2026-04-18T09:34:27Z</time></trkpt><trkpt lat="42.55824679568922" lon="-8.269576184526725"><ele>828.0</ele><time>2026-04-18T09:34:28Z</time></trkpt><trkpt lat="42.55828416476018" lon="-8.269321737376618"><ele>827.6666666666667</ele><time>2026-04-18T09:34:29Z</time></trkpt><trkpt lat="42.55834601261457" lon="-8.2691114693723"><ele>827.3333333333334</ele><time>2026-04-18T09:34:30Z</time></trkpt><trkpt lat="42.55843763466364" lon="-8.268869684629152"><ele>827.0</ele><time>2026-04-18T09:34:31Z</time></trkpt><trkpt lat="42.55851895617581" lon="-8.26864552067058"><ele>826.6666666666667</ele><time>2026-04-18T09:34:32Z</time></trkpt><trkpt lat="42.5586262866902" lon="-8.268430428806454"><ele>826.3333333333333</ele><time>2026-04-18T09:34:33Z</time></trkpt><trkpt lat="42.55875932118739" lon="-8.268283559169593"><ele>826.0</ele><time>2026-04-18T09:34:34Z</time></trkpt><trkpt lat="42.558894172357796" lon="-8.26815229451137"><ele>828.6666666666666</ele><time>2026-04-18T09:34:35Z</time></trkpt><trkpt lat="42.55905414811624" lon="-8.26807596146445"><ele>831.3333333333333</ele><time>2026-04-18T09:34:36Z</time></trkpt><trkpt lat="42.55923969080779" lon="-8.268011891434927"><ele>834.0</ele><time>2026-04-18T09:34:37Z</time></trkpt><trkpt lat="42.55944686121263" lon="-8.267976779613361"><ele>833.0</ele><time>2026-04-18T09:34:38Z</time></trkpt><trkpt lat="42.55966268556884" lon="-8.267943887812518"><ele>832.0</ele><time>2026-04-18T09:34:39Z</time></trkpt><trkpt lat="42.559867970584364" lon="-8.267930704497624"><ele>831.0</ele><time>2026-04-18T09:34:40Z</time></trkpt><trkpt lat="42.560044307470704" lon="-8.26791342725386"><ele>831.0</ele><time>2026-04-18T09:34:41Z</time></trkpt><trkpt lat="42.560158129978205" lon="-8.267874629388418"><ele>831.0</ele><time>2026-04-18T09:34:42Z</time></trkpt><trkpt lat="42.56024732082026" lon="-8.267826333798133"><ele>831.0</ele><time>2026-04-18T09:34:43Z</time></trkpt><trkpt lat="42.56030681031633" lon="-8.267760806313921"><ele>831.0</ele><time>2026-04-18T09:34:44Z</time></trkpt><trkpt lat="42.560391933662885" lon="-8.26769824524281"><ele>831.0</ele><time>2026-04-18T09:34:45Z</time></trkpt><trkpt lat="42.56041638935391" lon="-8.267439210903408"><ele>831.0</ele><time>2026-04-18T09:34:46Z</time></trkpt><trkpt lat="42.56043422531622" lon="-8.267240228895474"><ele>831.0</ele><time>2026-04-18T09:34:47Z</time></trkpt><trkpt lat="42.56038813404088" lon="-8.267036955195293"><ele>831.0</ele><time>2026-04-18T09:34:48Z</time></trkpt><trkpt lat="42.560340589970224" lon="-8.266858325385206"><ele>831.0</ele><time>2026-04-18T09:34:49Z</time></trkpt><trkpt lat="42.56028922993151" lon="-8.266634588561447"><ele>828.3333333333333</ele><time>2026-04-18T09:34:50Z</time></trkpt><trkpt lat="42.56026294483827" lon="-8.26641922256724"><ele>825.6666666666666</ele><time>2026-04-18T09:34:51Z</time></trkpt><trkpt lat="42.56026288750024" lon="-8.266216291867199"><ele>823.0</ele><time>2026-04-18T09:34:52Z</time></trkpt><trkpt lat="42.56027689662332" lon="-8.266002194730373"><ele>823.0</ele><time>2026-04-18T09:34:53Z</time></trkpt><trkpt lat="42.5603089402815" lon="-8.265781375700005"><ele>823.0</ele><time>2026-04-18T09:34:54Z</time></trkpt><trkpt lat="42.56036053782463" lon="-8.265553432674674"><ele>823.0</ele><time>2026-04-18T09:34:55Z</time></trkpt><trkpt lat="42.56042388605689" lon="-8.265321684864194"><ele>825.0</ele><time>2026-04-18T09:34:56Z</time></trkpt><trkpt lat="42.560485240469646" lon="-8.265093998816562"><ele>827.0</ele><time>2026-04-18T09:34:57Z</time></trkpt><trkpt lat="42.56055185599799" lon="-8.264864278551405"><ele>829.0</ele><time>2026-04-18T09:34:58Z</time></trkpt><trkpt lat="42.560603633323055" lon="-8.264617743076611"><ele>831.0</ele><time>2026-04-18T09:34:59Z</time></trkpt><trkpt lat="42.56064884293581" lon="-8.264352472560413"><ele>833.0</ele><time>2026-04-18T09:35:00Z</time></trkpt><trkpt lat="42.56070234702586" lon="-8.264096367337146"><ele>835.0</ele><time>2026-04-18T09:35:01Z</time></trkpt><trkpt lat="42.560767155705946" lon="-8.263829721323173"><ele>835.3333333333333</ele><time>2026-04-18T09:35:02Z</time></trkpt><trkpt lat="42.560837894339066" lon="-8.263567641716957"><ele>835.6666666666667</ele><time>2026-04-18T09:35:03Z</time></trkpt><trkpt lat="42.56090771560398" lon="-8.26334611683415"><ele>836.0</ele><time>2026-04-18T09:35:04Z</time></trkpt><trkpt lat="42.56096710857143" lon="-8.263112868852174"><ele>836.0</ele><time>2026-04-18T09:35:05Z</time></trkpt><trkpt lat="42.56102833399943" lon="-8.262849499385078"><ele>836.0</ele><time>2026-04-18T09:35:06Z</time></trkpt><trkpt lat="42.561085726834484" lon="-8.262577034725027"><ele>836.0</ele><time>2026-04-18T09:35:07Z</time></trkpt><trkpt lat="42.56114246882937" lon="-8.262345793927189"><ele>841.0</ele><time>2026-04-18T09:35:08Z</time></trkpt><trkpt lat="42.56121320171318" lon="-8.26213555551629"><ele>846.0</ele><time>2026-04-18T09:35:09Z</time></trkpt><trkpt lat="42.56129423703032" lon="-8.261906922638483"><ele>851.0</ele><time>2026-04-18T09:35:10Z</time></trkpt><trkpt lat="42.561414268770065" lon="-8.261611060042272"><ele>855.0</ele><time>2026-04-18T09:35:11Z</time></trkpt><trkpt lat="42.561489200658876" lon="-8.261312444315683"><ele>859.0</ele><time>2026-04-18T09:35:12Z</time></trkpt><trkpt lat="42.561513021596646" lon="-8.26098300339011"><ele>859.0</ele><time>2026-04-18T09:35:13Z</time></trkpt><trkpt lat="42.56152077452902" lon="-8.260658112641211"><ele>859.0</ele><time>2026-04-18T09:35:14Z</time></trkpt><trkpt lat="42.56152760849935" lon="-8.260370455607996"><ele>862.0</ele><time>2026-04-18T09:35:15Z</time></trkpt><trkpt lat="42.56151387057878" lon="-8.26012188285414"><ele>865.0</ele><time>2026-04-18T09:35:16Z</time></trkpt><trkpt lat="42.56148978600428" lon="-8.25983046223272"><ele>868.0</ele><time>2026-04-18T09:35:17Z</time></trkpt><trkpt lat="42.561466194764016" lon="-8.259545630081412"><ele>870.0</ele><time>2026-04-18T09:35:18Z</time></trkpt><trkpt lat="42.561466923731686" lon="-8.259279869063443"><ele>872.0</ele><time>2026-04-18T09:35:19Z</time></trkpt><trkpt lat="42.56147293189382" lon="-8.259005021302697"><ele>874.0</ele><time>2026-04-18T09:35:20Z</time></trkpt><trkpt lat="42.56149214119305" lon="-8.258715007920628"><ele>874.0</ele><time>2026-04-18T09:35:21Z</time></trkpt><trkpt lat="42.56151707276683" lon="-8.258467288294534"><ele>874.0</ele><time>2026-04-18T09:35:22Z</time></trkpt><trkpt lat="42.561544140897816" lon="-8.258253164448279"><ele>874.0</ele><time>2026-04-18T09:35:23Z</time></trkpt><trkpt lat="42.56158956577924" lon="-8.258041014356365"><ele>874.0</ele><time>2026-04-18T09:35:24Z</time></trkpt><trkpt lat="42.561653205768096" lon="-8.257843015276514"><ele>874.0</ele><time>2026-04-18T09:35:25Z</time></trkpt><trkpt lat="42.56171986384257" lon="-8.257692237856274"><ele>874.0</ele><time>2026-04-18T09:35:26Z</time></trkpt><trkpt lat="42.5618057659895" lon="-8.257546834407497"><ele>874.0</ele><time>2026-04-18T09:35:27Z</time></trkpt><trkpt lat="42.56190955664094" lon="-8.257412276462922"><ele>874.0</ele><time>2026-04-18T09:35:28Z</time></trkpt><trkpt lat="42.56202825375244" lon="-8.25728921607617"><ele>874.0</ele><time>2026-04-18T09:35:29Z</time></trkpt><trkpt lat="42.562131232125324" lon="-8.257208879081961"><ele>874.0</ele><time>2026-04-18T09:35:30Z</time></trkpt><trkpt lat="42.56224380863483" lon="-8.257176309159133"><ele>874.0</ele><time>2026-04-18T09:35:31Z</time></trkpt><trkpt lat="42.56235712740936" lon="-8.257206559983036"><ele>872.0</ele><time>2026-04-18T09:35:32Z</time></trkpt><trkpt lat="42.562477882326434" lon="-8.257267225365966"><ele>870.0</ele><time>2026-04-18T09:35:33Z</time></trkpt><trkpt lat="42.5626272114197" lon="-8.257327839121501"><ele>868.0</ele><time>2026-04-18T09:35:34Z</time></trkpt><trkpt lat="42.562754902539666" lon="-8.257336615890393"><ele>866.0</ele><time>2026-04-18T09:35:35Z</time></trkpt><trkpt lat="42.56287032489926" lon="-8.257305196055315"><ele>871.25</ele><time>2026-04-18T09:35:36Z</time></trkpt><trkpt lat="42.562969444085226" lon="-8.257244199830954"><ele>876.5</ele><time>2026-04-18T09:35:37Z</time></trkpt><trkpt lat="42.56305401866719" lon="-8.257149438202742"><ele>881.75</ele><time>2026-04-18T09:35:38Z</time></trkpt><trkpt lat="42.56312273366446" lon="-8.257007352400063"><ele>887.0</ele><time>2026-04-18T09:35:39Z</time></trkpt><trkpt lat="42.56316300988972" lon="-8.256833755591087"><ele>887.0</ele><time>2026-04-18T09:35:40Z</time></trkpt><trkpt lat="42.56315490059803" lon="-8.256631151405516"><ele>887.0</ele><time>2026-04-18T09:35:41Z</time></trkpt><trkpt lat="42.56311699080138" lon="-8.256404042458465"><ele>887.0</ele><time>2026-04-18T09:35:42Z</time></trkpt><trkpt lat="42.56309252082301" lon="-8.256152733745603"><ele>888.3333333333334</ele><time>2026-04-18T09:35:43Z</time></trkpt><trkpt lat="42.56308618812665" lon="-8.255879664896504"><ele>889.6666666666667</ele><time>2026-04-18T09:35:44Z</time></trkpt><trkpt lat="42.56306210017265" lon="-8.255595767521271"><ele>891.0</ele><time>2026-04-18T09:35:45Z</time></trkpt><trkpt lat="42.56305424410108" lon="-8.255366872549438"><ele>891.75</ele><time>2026-04-18T09:35:46Z</time></trkpt><trkpt lat="42.56306032952108" lon="-8.255177738903322"><ele>892.5</ele><time>2026-04-18T09:35:46.999Z</time></trkpt><trkpt lat="42.56308356516414" lon="-8.25502011480141"><ele>893.25</ele><time>2026-04-18T09:35:47.999Z</time></trkpt><trkpt lat="42.56312918587184" lon="-8.254860568166157"><ele>894.0</ele><time>2026-04-18T09:35:48.999Z</time></trkpt><trkpt lat="42.563207528175624" lon="-8.254714698961237"><ele>895.0</ele><time>2026-04-18T09:35:49.999Z</time></trkpt><trkpt lat="42.563310772488755" lon="-8.254599814063422"><ele>896.0</ele><time>2026-04-18T09:35:50.999Z</time></trkpt><trkpt lat="42.56342997523321" lon="-8.254526155351746"><ele>897.0</ele><time>2026-04-18T09:35:51.999Z</time></trkpt><trkpt lat="42.56356220351774" lon="-8.25448195467067"><ele>898.0</ele><time>2026-04-18T09:35:52.999Z</time></trkpt><trkpt lat="42.563704427445614" lon="-8.254451560090995"><ele>898.0</ele><time>2026-04-18T09:35:53.999Z</time></trkpt><trkpt lat="42.56384894329805" lon="-8.254384860216637"><ele>898.0</ele><time>2026-04-18T09:35:54.999Z</time></trkpt><trkpt lat="42.56399448204013" lon="-8.2542926365258"><ele>898.0</ele><time>2026-04-18T09:35:55.999Z</time></trkpt><trkpt lat="42.56411394562629" lon="-8.25421673546803"><ele>898.0</ele><time>2026-04-18T09:35:56.999Z</time></trkpt><trkpt lat="42.56421338693493" lon="-8.254176890417915"><ele>897.9999999999999</ele><time>2026-04-18T09:35:57.999Z</time></trkpt><trkpt lat="42.5642981939451" lon="-8.254157253079862"><ele>898.0</ele><time>2026-04-18T09:35:58.999Z</time></trkpt><trkpt lat="42.564374110271544" lon="-8.254172759216948"><ele>898.0</ele><time>2026-04-18T09:35:59.999Z</time></trkpt><trkpt lat="42.564438272124136" lon="-8.25422202611472"><ele>898.0</ele><time>2026-04-18T09:36:00.999Z</time></trkpt><trkpt lat="42.564494829450325" lon="-8.254310874685254"><ele>897.9999999999999</ele><time>2026-04-18T09:36:01.999Z</time></trkpt><trkpt lat="42.56455490938297" lon="-8.254432693786827"><ele>898.0</ele><time>2026-04-18T09:36:02.999Z</time></trkpt><trkpt lat="42.564642977614696" lon="-8.254560695857066"><ele>892.5999999999999</ele><time>2026-04-18T09:36:03.999Z</time></trkpt><trkpt lat="42.56473958275929" lon="-8.254678181373162"><ele>887.1999999999999</ele><time>2026-04-18T09:36:04.999Z</time></trkpt><trkpt lat="42.56482765038231" lon="-8.254707100390872"><ele>881.8</ele><time>2026-04-18T09:36:06.999Z</time></trkpt><trkpt lat="42.5648222959367" lon="-8.254576822774673"><ele>876.4</ele><time>2026-04-18T09:36:08.999Z</time></trkpt><trkpt lat="42.56477624367066" lon="-8.25447473012749"><ele>871.0</ele><time>2026-04-18T09:36:09.999Z</time></trkpt><trkpt lat="42.5647081549614" lon="-8.254370401996308"><ele>871.0</ele><time>2026-04-18T09:36:10.999Z</time></trkpt><trkpt lat="42.564632044014715" lon="-8.25422610498447"><ele>871.0</ele><time>2026-04-18T09:36:11.999Z</time></trkpt><trkpt lat="42.56456299041887" lon="-8.254056536486067"><ele>871.0</ele><time>2026-04-18T09:36:12.999Z</time></trkpt><trkpt lat="42.5645420708433" lon="-8.253885570017545"><ele>871.0</ele><time>2026-04-18T09:36:13.999Z</time></trkpt><trkpt lat="42.564552209070484" lon="-8.253749631474193"><ele>871.25</ele><time>2026-04-18T09:36:14.999Z</time></trkpt><trkpt lat="42.56458501688516" lon="-8.25360825913013"><ele>871.5</ele><time>2026-04-18T09:36:15.999Z</time></trkpt><trkpt lat="42.56464531531628" lon="-8.253433517690617"><ele>871.75</ele><time>2026-04-18T09:36:16.999Z</time></trkpt><trkpt lat="42.564707707153374" lon="-8.25324162476924"><ele>872.0</ele><time>2026-04-18T09:36:17.999Z</time></trkpt><trkpt lat="42.564799367383806" lon="-8.253072719237224"><ele>878.0</ele><time>2026-04-18T09:36:18.999Z</time></trkpt><trkpt lat="42.564923246316276" lon="-8.252912046903921"><ele>884.0</ele><time>2026-04-18T09:36:19.999Z</time></trkpt><trkpt lat="42.56508603646083" lon="-8.252813986090349"><ele>890.0</ele><time>2026-04-18T09:36:20.999Z</time></trkpt><trkpt lat="42.565219230024795" lon="-8.25272074391331"><ele>890.0</ele><time>2026-04-18T09:36:21.999Z</time></trkpt><trkpt lat="42.56530999053518" lon="-8.252660106490485"><ele>890.0</ele><time>2026-04-18T09:36:22.999Z</time></trkpt><trkpt lat="42.56536308011267" lon="-8.252598231102407"><ele>890.0</ele><time>2026-04-18T09:36:25Z</time></trkpt><trkpt lat="42.565352973679325" lon="-8.25244927841854"><ele>890.0</ele><time>2026-04-18T09:37:12Z</time></trkpt><trkpt lat="42.56535305046283" lon="-8.252336778167974"><ele>890.0</ele><time>2026-04-18T09:37:13Z</time></trkpt><trkpt lat="42.56535926597954" lon="-8.252211852495309"><ele>884.4</ele><time>2026-04-18T09:37:14Z</time></trkpt><trkpt lat="42.565387856894496" lon="-8.2520842347119"><ele>878.8</ele><time>2026-04-18T09:37:15Z</time></trkpt><trkpt lat="42.565435606050656" lon="-8.251961589201478"><ele>873.2</ele><time>2026-04-18T09:37:16Z</time></trkpt><trkpt lat="42.56550553019137" lon="-8.251853207655977"><ele>867.6</ele><time>2026-04-18T09:37:17Z</time></trkpt><trkpt lat="42.56558420579309" lon="-8.251775527424574"><ele>862.0</ele><time>2026-04-18T09:37:18Z</time></trkpt><trkpt lat="42.56565485440987" lon="-8.25170089398086"><ele>862.0</ele><time>2026-04-18T09:37:19Z</time></trkpt><trkpt lat="42.565710469296945" lon="-8.251604752925173"><ele>862.0</ele><time>2026-04-18T09:37:20Z</time></trkpt><trkpt lat="42.56577344598026" lon="-8.251482281866148"><ele>862.0</ele><time>2026-04-18T09:37:21Z</time></trkpt><trkpt lat="42.56584595592698" lon="-8.25133238877412"><ele>862.0</ele><time>2026-04-18T09:37:22Z</time></trkpt><trkpt lat="42.56590547034308" lon="-8.251155777445222"><ele>862.6666666666666</ele><time>2026-04-18T09:37:23Z</time></trkpt><trkpt lat="42.56595614576852" lon="-8.250919333631295"><ele>863.3333333333333</ele><time>2026-04-18T09:37:24Z</time></trkpt><trkpt lat="42.56599809363215" lon="-8.250638761313652"><ele>864.0</ele><time>2026-04-18T09:37:25Z</time></trkpt><trkpt lat="42.56604476582128" lon="-8.250383795753125"><ele>864.0</ele><time>2026-04-18T09:37:26Z</time></trkpt><trkpt lat="42.566086081761014" lon="-8.250130746236165"><ele>864.0</ele><time>2026-04-18T09:37:27Z</time></trkpt><trkpt lat="42.56613351439841" lon="-8.249855981230668"><ele>864.0</ele><time>2026-04-18T09:37:28Z</time></trkpt><trkpt lat="42.56619257884346" lon="-8.24960358409572"><ele>854.6666666666667</ele><time>2026-04-18T09:37:29Z</time></trkpt><trkpt lat="42.56624629533006" lon="-8.249365486453156"><ele>845.3333333333334</ele><time>2026-04-18T09:37:30Z</time></trkpt><trkpt lat="42.56629854815449" lon="-8.249116152989453"><ele>836.0</ele><time>2026-04-18T09:37:31Z</time></trkpt><trkpt lat="42.5663475616449" lon="-8.248903494621036"><ele>836.0</ele><time>2026-04-18T09:37:32Z</time></trkpt><trkpt lat="42.5664028144594" lon="-8.248733014817876"><ele>836.0</ele><time>2026-04-18T09:37:33Z</time></trkpt><trkpt lat="42.56647419060096" lon="-8.248555634664696"><ele>836.0</ele><time>2026-04-18T09:37:34Z</time></trkpt><trkpt lat="42.566546277618244" lon="-8.2483794563308"><ele>836.0</ele><time>2026-04-18T09:37:35Z</time></trkpt><trkpt lat="42.566622398622236" lon="-8.24819580999591"><ele>837.0</ele><time>2026-04-18T09:37:36Z</time></trkpt><trkpt lat="42.566716255764355" lon="-8.248011947914863"><ele>838.0</ele><time>2026-04-18T09:37:37Z</time></trkpt><trkpt lat="42.566807410773045" lon="-8.247853350781162"><ele>839.0</ele><time>2026-04-18T09:37:38Z</time></trkpt><trkpt lat="42.56688272933736" lon="-8.247699146726971"><ele>840.0</ele><time>2026-04-18T09:37:39Z</time></trkpt><trkpt lat="42.56694523872431" lon="-8.247504602056447"><ele>839.6666666666667</ele><time>2026-04-18T09:37:40Z</time></trkpt><trkpt lat="42.567011784626445" lon="-8.2472665282177"><ele>839.3333333333334</ele><time>2026-04-18T09:37:41Z</time></trkpt><trkpt lat="42.56708669902933" lon="-8.247049896481899"><ele>839.0</ele><time>2026-04-18T09:37:42Z</time></trkpt><trkpt lat="42.567166989399134" lon="-8.246858021382618"><ele>833.0</ele><time>2026-04-18T09:37:43Z</time></trkpt><trkpt lat="42.56724288012129" lon="-8.246665734486044"><ele>827.0</ele><time>2026-04-18T09:37:44Z</time></trkpt><trkpt lat="42.56730325570769" lon="-8.24648778110008"><ele>821.0</ele><time>2026-04-18T09:37:45Z</time></trkpt><trkpt lat="42.567366931627404" lon="-8.2463162735037"><ele>815.0</ele><time>2026-04-18T09:37:46Z</time></trkpt><trkpt lat="42.56744758439886" lon="-8.246136722085842"><ele>815.0</ele><time>2026-04-18T09:37:47Z</time></trkpt><trkpt lat="42.56754203289529" lon="-8.245924921323592"><ele>815.0</ele><time>2026-04-18T09:37:48Z</time></trkpt><trkpt lat="42.567645995144744" lon="-8.245721541108507"><ele>815.0</ele><time>2026-04-18T09:37:49Z</time></trkpt><trkpt lat="42.5677523578274" lon="-8.245573481881511"><ele>815.75</ele><time>2026-04-18T09:37:50Z</time></trkpt><trkpt lat="42.56784715007695" lon="-8.245465491633414"><ele>816.5</ele><time>2026-04-18T09:37:51Z</time></trkpt><trkpt lat="42.567944794935165" lon="-8.24537461790119"><ele>817.25</ele><time>2026-04-18T09:37:52Z</time></trkpt><trkpt lat="42.56806888021781" lon="-8.245291486152087"><ele>818.0</ele><time>2026-04-18T09:37:53Z</time></trkpt><trkpt lat="42.56822088386435" lon="-8.245215874501648"><ele>814.75</ele><time>2026-04-18T09:37:54Z</time></trkpt><trkpt lat="42.56837685390026" lon="-8.245157069559038"><ele>811.5</ele><time>2026-04-18T09:37:55Z</time></trkpt><trkpt lat="42.568497031112905" lon="-8.245119970160314"><ele>808.25</ele><time>2026-04-18T09:37:56Z</time></trkpt><trkpt lat="42.5685973727999" lon="-8.245059138930475"><ele>805.0</ele><time>2026-04-18T09:37:57Z</time></trkpt><trkpt lat="42.568689375631" lon="-8.245000782789324"><ele>803.0</ele><time>2026-04-18T09:37:58Z</time></trkpt><trkpt lat="42.56880229263187" lon="-8.24494090663778"><ele>801.0</ele><time>2026-04-18T09:37:59Z</time></trkpt><trkpt lat="42.568936392160026" lon="-8.24487369413129"><ele>799.0</ele><time>2026-04-18T09:37:59.999Z</time></trkpt><trkpt lat="42.56907205646981" lon="-8.244824505371897"><ele>797.0</ele><time>2026-04-18T09:38:00.999Z</time></trkpt><trkpt lat="42.56919645715678" lon="-8.244752140587972"><ele>797.0</ele><time>2026-04-18T09:38:01.998Z</time></trkpt><trkpt lat="42.56934366940812" lon="-8.244646865636529"><ele>797.0</ele><time>2026-04-18T09:38:02.998Z</time></trkpt><trkpt lat="42.56948683299873" lon="-8.244528335553133"><ele>797.0</ele><time>2026-04-18T09:38:03.998Z</time></trkpt><trkpt lat="42.56961768658573" lon="-8.244430473167911"><ele>791.25</ele><time>2026-04-18T09:38:04.998Z</time></trkpt><trkpt lat="42.56972450504708" lon="-8.244327542681297"><ele>785.5</ele><time>2026-04-18T09:38:05.998Z</time></trkpt><trkpt lat="42.56982295601973" lon="-8.244197027458958"><ele>779.75</ele><time>2026-04-18T09:38:06.998Z</time></trkpt><trkpt lat="42.56992103602792" lon="-8.244072291838082"><ele>774.0</ele><time>2026-04-18T09:38:07.998Z</time></trkpt><trkpt lat="42.57001897311331" lon="-8.243970166420976"><ele>774.8333333333334</ele><time>2026-04-18T09:38:08.998Z</time></trkpt><trkpt lat="42.57010983153445" lon="-8.24389231209383"><ele>775.6666666666667</ele><time>2026-04-18T09:38:09.998Z</time></trkpt><trkpt lat="42.57018119064064" lon="-8.243825121319903"><ele>776.5</ele><time>2026-04-18T09:38:10.998Z</time></trkpt><trkpt lat="42.570237451552906" lon="-8.243768866359433"><ele>777.3333333333334</ele><time>2026-04-18T09:38:11.998Z</time></trkpt><trkpt lat="42.57029046287479" lon="-8.243715178826431"><ele>778.1666666666667</ele><time>2026-04-18T09:38:12.998Z</time></trkpt><trkpt lat="42.570382160688126" lon="-8.243660750094165"><ele>779.0</ele><time>2026-04-18T09:38:14.998Z</time></trkpt><trkpt lat="42.57042457514775" lon="-8.24373677138231"><ele>775.8571428571429</ele><time>2026-04-18T09:38:17.998Z</time></trkpt><trkpt lat="42.57042160225522" lon="-8.243856296427138"><ele>772.7142857142858</ele><time>2026-04-18T09:38:19.998Z</time></trkpt><trkpt lat="42.57043943152419" lon="-8.243958761245485"><ele>769.5714285714287</ele><time>2026-04-18T09:38:20.998Z</time></trkpt><trkpt lat="42.57044646588683" lon="-8.24406256021229"><ele>766.4285714285714</ele><time>2026-04-18T09:38:21.998Z</time></trkpt><trkpt lat="42.570450848695565" lon="-8.244155368250471"><ele>763.2857142857142</ele><time>2026-04-18T09:38:22.998Z</time></trkpt><trkpt lat="42.57046008576507" lon="-8.244243202483728"><ele>760.1428571428572</ele><time>2026-04-18T09:38:23.998Z</time></trkpt><trkpt lat="42.57046574488079" lon="-8.244330054682717"><ele>757.0</ele><time>2026-04-18T09:38:24.998Z</time></trkpt><trkpt lat="42.57047087915426" lon="-8.24442572518314"><ele>756.8571428571429</ele><time>2026-04-18T09:38:25.998Z</time></trkpt><trkpt lat="42.57047957464518" lon="-8.244526396952997"><ele>756.7142857142857</ele><time>2026-04-18T09:38:26.998Z</time></trkpt><trkpt lat="42.57048643280933" lon="-8.24462143327483"><ele>756.5714285714286</ele><time>2026-04-18T09:38:27.998Z</time></trkpt><trkpt lat="42.57049968078773" lon="-8.244720505666333"><ele>756.4285714285714</ele><time>2026-04-18T09:38:28.998Z</time></trkpt><trkpt lat="42.57049519139821" lon="-8.244819546919295"><ele>756.2857142857142</ele><time>2026-04-18T09:38:29.998Z</time></trkpt><trkpt lat="42.57048693928412" lon="-8.24491818510258"><ele>756.1428571428571</ele><time>2026-04-18T09:38:31Z</time></trkpt><trkpt lat="42.57048129386225" lon="-8.245013123602671"><ele>756.0</ele><time>2026-04-18T09:38:32Z</time></trkpt><trkpt lat="42.570472439418715" lon="-8.245115902235133"><ele>755.5</ele><time>2026-04-18T09:38:33Z</time></trkpt><trkpt lat="42.57046082064577" lon="-8.245217219148463"><ele>755.0</ele><time>2026-04-18T09:38:34Z</time></trkpt><trkpt lat="42.57045403289134" lon="-8.24530984758409"><ele>754.5</ele><time>2026-04-18T09:38:35Z</time></trkpt><trkpt lat="42.57043440031837" lon="-8.245406478387546"><ele>754.0</ele><time>2026-04-18T09:38:36Z</time></trkpt><trkpt lat="42.57040348585539" lon="-8.245502098620992"><ele>753.5</ele><time>2026-04-18T09:38:37Z</time></trkpt><trkpt lat="42.57037014839963" lon="-8.245608704382528"><ele>753.0</ele><time>2026-04-18T09:38:38Z</time></trkpt><trkpt lat="42.57034210449336" lon="-8.245710595238876"><ele>753.0</ele><time>2026-04-18T09:38:39Z</time></trkpt><trkpt lat="42.57032566789921" lon="-8.245804921834194"><ele>753.0</ele><time>2026-04-18T09:38:40Z</time></trkpt><trkpt lat="42.57029919533073" lon="-8.245959113576983"><ele>753.0</ele><time>2026-04-18T09:38:42Z</time></trkpt><trkpt lat="42.5703537856081" lon="-8.246041475332925"><ele>753.0</ele><time>2026-04-18T09:38:44Z</time></trkpt><trkpt lat="42.57042692013349" lon="-8.246029632819004"><ele>753.0</ele><time>2026-04-18T09:38:45Z</time></trkpt><trkpt lat="42.570510536377604" lon="-8.245986658788597"><ele>753.0</ele><time>2026-04-18T09:38:46Z</time></trkpt><trkpt lat="42.570601167660364" lon="-8.245943034130264"><ele>749.8333333333334</ele><time>2026-04-18T09:38:46.999Z</time></trkpt><trkpt lat="42.57068389443081" lon="-8.24591923319965"><ele>746.6666666666666</ele><time>2026-04-18T09:38:47.999Z</time></trkpt><trkpt lat="42.57076931066918" lon="-8.245896546109734"><ele>743.5</ele><time>2026-04-18T09:38:48.999Z</time></trkpt><trkpt lat="42.570849233314036" lon="-8.245868754084613"><ele>740.3333333333333</ele><time>2026-04-18T09:38:49.999Z</time></trkpt><trkpt lat="42.570924569242145" lon="-8.245820508588924"><ele>737.1666666666666</ele><time>2026-04-18T09:38:50.999Z</time></trkpt><trkpt lat="42.5710063487527" lon="-8.245779267670066"><ele>734.0</ele><time>2026-04-18T09:38:51.999Z</time></trkpt><trkpt lat="42.571092355595646" lon="-8.245741095823863"><ele>734.0</ele><time>2026-04-18T09:38:52.999Z</time></trkpt><trkpt lat="42.571175006779384" lon="-8.245694327639589"><ele>734.0</ele><time>2026-04-18T09:38:53.999Z</time></trkpt><trkpt lat="42.5712488847382" lon="-8.245634310089425"><ele>734.0</ele><time>2026-04-18T09:38:54.999Z</time></trkpt><trkpt lat="42.57132724609106" lon="-8.245564561802613"><ele>734.0</ele><time>2026-04-18T09:38:55.999Z</time></trkpt><trkpt lat="42.57140257154868" lon="-8.245492296450186"><ele>734.0</ele><time>2026-04-18T09:38:56.999Z</time></trkpt><trkpt lat="42.57146700927464" lon="-8.24540452674712"><ele>732.4000000000001</ele><time>2026-04-18T09:38:57.999Z</time></trkpt><trkpt lat="42.57153885780402" lon="-8.24531661306803"><ele>730.8</ele><time>2026-04-18T09:38:58.999Z</time></trkpt><trkpt lat="42.571612397922635" lon="-8.245242595698219"><ele>729.2</ele><time>2026-04-18T09:38:59.999Z</time></trkpt><trkpt lat="42.57168300957297" lon="-8.245159151853182"><ele>727.5999999999999</ele><time>2026-04-18T09:39:00.999Z</time></trkpt><trkpt lat="42.57174760412918" lon="-8.24506507561605"><ele>726.0</ele><time>2026-04-18T09:39:01.999Z</time></trkpt><trkpt lat="42.571804864218784" lon="-8.244977867464645"><ele>726.0</ele><time>2026-04-18T09:39:02.999Z</time></trkpt><trkpt lat="42.57186518686932" lon="-8.244901036652234"><ele>726.0</ele><time>2026-04-18T09:39:03.999Z</time></trkpt><trkpt lat="42.57192120410086" lon="-8.244813922345628"><ele>726.0</ele><time>2026-04-18T09:39:04.999Z</time></trkpt><trkpt lat="42.57196993010131" lon="-8.244734998942326"><ele>726.0</ele><time>2026-04-18T09:39:05.999Z</time></trkpt><trkpt lat="42.57200843861156" lon="-8.244648483890703"><ele>726.0</ele><time>2026-04-18T09:39:06.999Z</time></trkpt><trkpt lat="42.572037417037116" lon="-8.244559452424895"><ele>726.0</ele><time>2026-04-18T09:39:07.999Z</time></trkpt><trkpt lat="42.57205983915133" lon="-8.244466801386936"><ele>722.0</ele><time>2026-04-18T09:39:08.999Z</time></trkpt><trkpt lat="42.57208796976714" lon="-8.244357330157435"><ele>718.0</ele><time>2026-04-18T09:39:10.999Z</time></trkpt><trkpt lat="42.572187199101634" lon="-8.244509760059055"><ele>714.0</ele><time>2026-04-18T09:39:13.999Z</time></trkpt><trkpt lat="42.57221973243535" lon="-8.244585116476214"><ele>710.0</ele><time>2026-04-18T09:39:14.999Z</time></trkpt><trkpt lat="42.57226364048837" lon="-8.244660156060213"><ele>706.0</ele><time>2026-04-18T09:39:15.999Z</time></trkpt><trkpt lat="42.572305316393454" lon="-8.244726752342585"><ele>702.0</ele><time>2026-04-18T09:39:16.999Z</time></trkpt><trkpt lat="42.572377611653245" lon="-8.244824539032011"><ele>700.8</ele><time>2026-04-18T09:39:18.999Z</time></trkpt><trkpt lat="42.57243673075281" lon="-8.244768831441105"><ele>699.6</ele><time>2026-04-18T09:39:20.999Z</time></trkpt><trkpt lat="42.572437967109344" lon="-8.244572154830307"><ele>698.4</ele><time>2026-04-18T09:39:22.999Z</time></trkpt><trkpt lat="42.57240632187523" lon="-8.244456185999558"><ele>697.1999999999999</ele><time>2026-04-18T09:39:23.999Z</time></trkpt><trkpt lat="42.57238341616726" lon="-8.244324372750338"><ele>696.0</ele><time>2026-04-18T09:39:24.999Z</time></trkpt><trkpt lat="42.572361584416754" lon="-8.244195725440315"><ele>696.0</ele><time>2026-04-18T09:39:25.999Z</time></trkpt><trkpt lat="42.572337528793504" lon="-8.24406344585363"><ele>696.0</ele><time>2026-04-18T09:39:26.999Z</time></trkpt><trkpt lat="42.572310408107704" lon="-8.243937563873951"><ele>696.0</ele><time>2026-04-18T09:39:27.999Z</time></trkpt><trkpt lat="42.57229106892064" lon="-8.243817715398983"><ele>696.0</ele><time>2026-04-18T09:39:28.999Z</time></trkpt><trkpt lat="42.57227882747264" lon="-8.243693782256445"><ele>696.0</ele><time>2026-04-18T09:39:29.999Z</time></trkpt><trkpt lat="42.5722667693806" lon="-8.243561755214653"><ele>694.4</ele><time>2026-04-18T09:39:30.999Z</time></trkpt><trkpt lat="42.572259167006486" lon="-8.243429417224409"><ele>692.8</ele><time>2026-04-18T09:39:31.999Z</time></trkpt><trkpt lat="42.572251144267575" lon="-8.243300193233866"><ele>691.1999999999999</ele><time>2026-04-18T09:39:32.999Z</time></trkpt><trkpt lat="42.57223828824678" lon="-8.243169295002406"><ele>689.5999999999999</ele><time>2026-04-18T09:39:33.999Z</time></trkpt><trkpt lat="42.57222279812951" lon="-8.243041407870122"><ele>688.0</ele><time>2026-04-18T09:39:34.999Z</time></trkpt><trkpt lat="42.57220148740415" lon="-8.24291986241281"><ele>685.2</ele><time>2026-04-18T09:39:35.999Z</time></trkpt><trkpt lat="42.57216638039674" lon="-8.242795948938538"><ele>682.4</ele><time>2026-04-18T09:39:36.999Z</time></trkpt><trkpt lat="42.572118022856195" lon="-8.242679324079475"><ele>679.6</ele><time>2026-04-18T09:39:37.999Z</time></trkpt><trkpt lat="42.57206529244149" lon="-8.242576874088408"><ele>676.8000000000001</ele><time>2026-04-18T09:39:38.999Z</time></trkpt><trkpt lat="42.57201569275385" lon="-8.242465963516775"><ele>674.0</ele><time>2026-04-18T09:39:39.999Z</time></trkpt><trkpt lat="42.57197080975166" lon="-8.242346369589116"><ele>680.0</ele><time>2026-04-18T09:39:40.999Z</time></trkpt><trkpt lat="42.571929166502066" lon="-8.242223654225825"><ele>686.0</ele><time>2026-04-18T09:39:41.999Z</time></trkpt><trkpt lat="42.57189319725096" lon="-8.242110091519084"><ele>692.0</ele><time>2026-04-18T09:39:42.999Z</time></trkpt><trkpt lat="42.571882594494646" lon="-8.241993124446175"><ele>698.0</ele><time>2026-04-18T09:39:43.999Z</time></trkpt><trkpt lat="42.57188705835424" lon="-8.241866513567778"><ele>704.0</ele><time>2026-04-18T09:39:44.999Z</time></trkpt><trkpt lat="42.57189442470115" lon="-8.24173513986518"><ele>704.0</ele><time>2026-04-18T09:39:45.999Z</time></trkpt><trkpt lat="42.57188995575887" lon="-8.241596613528188"><ele>704.0</ele><time>2026-04-18T09:39:46.999Z</time></trkpt><trkpt lat="42.57187678650608" lon="-8.241467984082513"><ele>704.0</ele><time>2026-04-18T09:39:47.999Z</time></trkpt><trkpt lat="42.57186700013078" lon="-8.2413413825289"><ele>704.0</ele><time>2026-04-18T09:39:48.999Z</time></trkpt><trkpt lat="42.57186572806498" lon="-8.241215234278927"><ele>704.0</ele><time>2026-04-18T09:39:49.999Z</time></trkpt><trkpt lat="42.571860669517754" lon="-8.24109219993459"><ele>703.0</ele><time>2026-04-18T09:39:50.999Z</time></trkpt><trkpt lat="42.57184473991801" lon="-8.24097071172231"><ele>702.0</ele><time>2026-04-18T09:39:51.999Z</time></trkpt><trkpt lat="42.57182883738557" lon="-8.2408492974198"><ele>701.0</ele><time>2026-04-18T09:39:52.999Z</time></trkpt><trkpt lat="42.57184108566202" lon="-8.24072661989881"><ele>700.0</ele><time>2026-04-18T09:39:53.999Z</time></trkpt><trkpt lat="42.57185747688643" lon="-8.240602447553492"><ele>699.0</ele><time>2026-04-18T09:39:54.999Z</time></trkpt><trkpt lat="42.57186022119886" lon="-8.240472290998285"><ele>696.0</ele><time>2026-04-18T09:39:55.999Z</time></trkpt><trkpt lat="42.571836078776606" lon="-8.240342823449517"><ele>693.0</ele><time>2026-04-18T09:39:56.999Z</time></trkpt><trkpt lat="42.57179527755566" lon="-8.2402171411383"><ele>690.0</ele><time>2026-04-18T09:39:57.999Z</time></trkpt><trkpt lat="42.571754841565145" lon="-8.240098678200978"><ele>687.0</ele><time>2026-04-18T09:39:58.999Z</time></trkpt><trkpt lat="42.57172194232546" lon="-8.239972788391608"><ele>684.0</ele><time>2026-04-18T09:39:59.999Z</time></trkpt><trkpt lat="42.571680659850465" lon="-8.239850687146067"><ele>680.8333333333334</ele><time>2026-04-18T09:40:00.999Z</time></trkpt><trkpt lat="42.57163045218226" lon="-8.239743853143734"><ele>677.6666666666666</ele><time>2026-04-18T09:40:01.999Z</time></trkpt><trkpt lat="42.571573864311496" lon="-8.239650188887392"><ele>674.5</ele><time>2026-04-18T09:40:02.999Z</time></trkpt><trkpt lat="42.57152020777742" lon="-8.239567268940805"><ele>671.3333333333333</ele><time>2026-04-18T09:40:03.999Z</time></trkpt><trkpt lat="42.57146035576533" lon="-8.239490761580631"><ele>668.1666666666666</ele><time>2026-04-18T09:40:04.999Z</time></trkpt><trkpt lat="42.571394595250176" lon="-8.239422634296051"><ele>665.0</ele><time>2026-04-18T09:40:05.999Z</time></trkpt><trkpt lat="42.57132018872204" lon="-8.239362970257606"><ele>665.0</ele><time>2026-04-18T09:40:06.999Z</time></trkpt><trkpt lat="42.57123212035189" lon="-8.23930092575042"><ele>665.0</ele><time>2026-04-18T09:40:07.999Z</time></trkpt><trkpt lat="42.57114619275092" lon="-8.239245663855954"><ele>665.0</ele><time>2026-04-18T09:40:08.999Z</time></trkpt><trkpt lat="42.571072664688714" lon="-8.239178185319373"><ele>665.0</ele><time>2026-04-18T09:40:09.999Z</time></trkpt><trkpt lat="42.57100645311966" lon="-8.239100803640152"><ele>665.0</ele><time>2026-04-18T09:40:10.999Z</time></trkpt><trkpt lat="42.570945541528765" lon="-8.23901212021339"><ele>664.2</ele><time>2026-04-18T09:40:11.998Z</time></trkpt><trkpt lat="42.570887461883196" lon="-8.238918864387216"><ele>663.4</ele><time>2026-04-18T09:40:12.998Z</time></trkpt><trkpt lat="42.57083507892374" lon="-8.23881772376642"><ele>662.5999999999999</ele><time>2026-04-18T09:40:13.998Z</time></trkpt><trkpt lat="42.57078329899393" lon="-8.238713444352461"><ele>661.8</ele><time>2026-04-18T09:40:14.998Z</time></trkpt><trkpt lat="42.570728597426516" lon="-8.238603417195757"><ele>661.0</ele><time>2026-04-18T09:40:15.998Z</time></trkpt><trkpt lat="42.57066722281681" lon="-8.238493045891671"><ele>661.0</ele><time>2026-04-18T09:40:16.998Z</time></trkpt><trkpt lat="42.570598902236675" lon="-8.238389427744442"><ele>661.0</ele><time>2026-04-18T09:40:17.998Z</time></trkpt><trkpt lat="42.57052807772935" lon="-8.238290473568172"><ele>661.0</ele><time>2026-04-18T09:40:18.998Z</time></trkpt><trkpt lat="42.570450986718036" lon="-8.238189783586073"><ele>661.0</ele><time>2026-04-18T09:40:19.998Z</time></trkpt><trkpt lat="42.57037447242777" lon="-8.238090259352342"><ele>661.0</ele><time>2026-04-18T09:40:20.998Z</time></trkpt><trkpt lat="42.5703104107523" lon="-8.238007100146307"><ele>660.8</ele><time>2026-04-18T09:40:21.998Z</time></trkpt><trkpt lat="42.570246663446326" lon="-8.237923370928067"><ele>660.5999999999999</ele><time>2026-04-18T09:40:22.998Z</time></trkpt><trkpt lat="42.57018300791738" lon="-8.237827386149428"><ele>660.4</ele><time>2026-04-18T09:40:23.998Z</time></trkpt><trkpt lat="42.57012569059996" lon="-8.237721302503946"><ele>660.2</ele><time>2026-04-18T09:40:24.998Z</time></trkpt><trkpt lat="42.570072929635096" lon="-8.237609506463684"><ele>660.0</ele><time>2026-04-18T09:40:25.998Z</time></trkpt><trkpt lat="42.57002575907233" lon="-8.23749111332642"><ele>660.0</ele><time>2026-04-18T09:40:26.998Z</time></trkpt><trkpt lat="42.5699825564073" lon="-8.237369514187105"><ele>660.0</ele><time>2026-04-18T09:40:27.998Z</time></trkpt><trkpt lat="42.569939216029375" lon="-8.237241884131851"><ele>660.0</ele><time>2026-04-18T09:40:28.998Z</time></trkpt><trkpt lat="42.569890480490265" lon="-8.237122505607683"><ele>660.0</ele><time>2026-04-18T09:40:29.998Z</time></trkpt><trkpt lat="42.56983974150104" lon="-8.23701931714398"><ele>660.0</ele><time>2026-04-18T09:40:30.998Z</time></trkpt><trkpt lat="42.569785823569234" lon="-8.236921316679394"><ele>656.6</ele><time>2026-04-18T09:40:31.998Z</time></trkpt><trkpt lat="42.56972943272268" lon="-8.236823887274136"><ele>653.2</ele><time>2026-04-18T09:40:32.998Z</time></trkpt><trkpt lat="42.56966745105131" lon="-8.23673098062729"><ele>649.8</ele><time>2026-04-18T09:40:33.998Z</time></trkpt><trkpt lat="42.56959645426336" lon="-8.236638160232804"><ele>646.4</ele><time>2026-04-18T09:40:34.998Z</time></trkpt><trkpt lat="42.569518515818864" lon="-8.236562776769071"><ele>643.0</ele><time>2026-04-18T09:40:35.998Z</time></trkpt><trkpt lat="42.569435823562614" lon="-8.236519374162707"><ele>643.0</ele><time>2026-04-18T09:40:37Z</time></trkpt><trkpt lat="42.569356653472255" lon="-8.236500222966733"><ele>643.0</ele><time>2026-04-18T09:40:38Z</time></trkpt><trkpt lat="42.56926296446891" lon="-8.23644422182204"><ele>643.0</ele><time>2026-04-18T09:40:40Z</time></trkpt><trkpt lat="42.56925339440609" lon="-8.236324540625061"><ele>643.0</ele><time>2026-04-18T09:40:42Z</time></trkpt><trkpt lat="42.569292259744614" lon="-8.23625113938888"><ele>643.0</ele><time>2026-04-18T09:40:43Z</time></trkpt><trkpt lat="42.569381285185315" lon="-8.23617551966695"><ele>643.0</ele><time>2026-04-18T09:40:44Z</time></trkpt><trkpt lat="42.569468415519346" lon="-8.23613067877805"><ele>639.1666666666667</ele><time>2026-04-18T09:40:45Z</time></trkpt><trkpt lat="42.56955735798134" lon="-8.236095624212506"><ele>635.3333333333334</ele><time>2026-04-18T09:40:46Z</time></trkpt><trkpt lat="42.569646339352985" lon="-8.236068320082405"><ele>631.5</ele><time>2026-04-18T09:40:47Z</time></trkpt><trkpt lat="42.56973364965195" lon="-8.236056861831685"><ele>627.6666666666666</ele><time>2026-04-18T09:40:48Z</time></trkpt><trkpt lat="42.56981853682325" lon="-8.236057607352777"><ele>623.8333333333333</ele><time>2026-04-18T09:40:49Z</time></trkpt><trkpt lat="42.56990276192473" lon="-8.236066458251152"><ele>620.0</ele><time>2026-04-18T09:40:50Z</time></trkpt><trkpt lat="42.5699881866313" lon="-8.23607681394344"><ele>620.0</ele><time>2026-04-18T09:40:51Z</time></trkpt><trkpt lat="42.570072372326244" lon="-8.236091835673248"><ele>620.0</ele><time>2026-04-18T09:40:52Z</time></trkpt><trkpt lat="42.57015720977608" lon="-8.236109678436371"><ele>620.0</ele><time>2026-04-18T09:40:53Z</time></trkpt><trkpt lat="42.57022964775768" lon="-8.236089235289636"><ele>620.0</ele><time>2026-04-18T09:40:54Z</time></trkpt><trkpt lat="42.570283139508895" lon="-8.23603536805705"><ele>620.0</ele><time>2026-04-18T09:40:55Z</time></trkpt><trkpt lat="42.57029235132629" lon="-8.235933554814185"><ele>620.0</ele><time>2026-04-18T09:40:56Z</time></trkpt><trkpt lat="42.570271575962025" lon="-8.235813206771734"><ele>620.0</ele><time>2026-04-18T09:40:57Z</time></trkpt><trkpt lat="42.57022729687338" lon="-8.235703186610202"><ele>620.0</ele><time>2026-04-18T09:40:58Z</time></trkpt><trkpt lat="42.57018565735476" lon="-8.235588307882882"><ele>620.0</ele><time>2026-04-18T09:40:59Z</time></trkpt><trkpt lat="42.57014665233176" lon="-8.235465064764462"><ele>620.0</ele><time>2026-04-18T09:41:00Z</time></trkpt><trkpt lat="42.570109164345176" lon="-8.235354691493612"><ele>620.0</ele><time>2026-04-18T09:41:01Z</time></trkpt><trkpt lat="42.570070309943134" lon="-8.23524981782211"><ele>617.0</ele><time>2026-04-18T09:41:01.999Z</time></trkpt><trkpt lat="42.570027122693446" lon="-8.235153904110197"><ele>614.0</ele><time>2026-04-18T09:41:02.999Z</time></trkpt><trkpt lat="42.56997972114534" lon="-8.235066529017434"><ele>611.0</ele><time>2026-04-18T09:41:03.999Z</time></trkpt><trkpt lat="42.56992059422784" lon="-8.234990823279324"><ele>608.0</ele><time>2026-04-18T09:41:04.999Z</time></trkpt><trkpt lat="42.569851407546615" lon="-8.234941127261852"><ele>605.0</ele><time>2026-04-18T09:41:05.999Z</time></trkpt><trkpt lat="42.56978114197447" lon="-8.234903799328416"><ele>602.0</ele><time>2026-04-18T09:41:06.999Z</time></trkpt><trkpt lat="42.569710433532215" lon="-8.234869740726113"><ele>602.0</ele><time>2026-04-18T09:41:07.999Z</time></trkpt><trkpt lat="42.56963386822904" lon="-8.234843459302395"><ele>602.0</ele><time>2026-04-18T09:41:08.999Z</time></trkpt><trkpt lat="42.56955690892414" lon="-8.234834516590073"><ele>602.0</ele><time>2026-04-18T09:41:09.999Z</time></trkpt><trkpt lat="42.56948194067178" lon="-8.234853555509238"><ele>602.0</ele><time>2026-04-18T09:41:10.999Z</time></trkpt><trkpt lat="42.56940156531541" lon="-8.234878378047917"><ele>602.0</ele><time>2026-04-18T09:41:11.999Z</time></trkpt><trkpt lat="42.56930646174793" lon="-8.234909411626901"><ele>602.0</ele><time>2026-04-18T09:41:12.999Z</time></trkpt><trkpt lat="42.56921885815979" lon="-8.234932253073923"><ele>601.5</ele><time>2026-04-18T09:41:13.999Z</time></trkpt><trkpt lat="42.56913343669423" lon="-8.23495079571617"><ele>601.0</ele><time>2026-04-18T09:41:14.999Z</time></trkpt><trkpt lat="42.56904814793167" lon="-8.234976094980281"><ele>600.5</ele><time>2026-04-18T09:41:15.999Z</time></trkpt><trkpt lat="42.56896919669671" lon="-8.235018276493788"><ele>600.0</ele><time>2026-04-18T09:41:16.999Z</time></trkpt><trkpt lat="42.56889868988428" lon="-8.235072455734025"><ele>599.5</ele><time>2026-04-18T09:41:17.999Z</time></trkpt><trkpt lat="42.56884144362634" lon="-8.235141492184074"><ele>599.0</ele><time>2026-04-18T09:41:18.999Z</time></trkpt><trkpt lat="42.56878079424204" lon="-8.235225831322103"><ele>599.0</ele><time>2026-04-18T09:41:19.999Z</time></trkpt><trkpt lat="42.56872088229266" lon="-8.235318062107664"><ele>599.0</ele><time>2026-04-18T09:41:20.999Z</time></trkpt><trkpt lat="42.56866505096126" lon="-8.23539859363966"><ele>599.0</ele><time>2026-04-18T09:41:21.999Z</time></trkpt><trkpt lat="42.5686096197448" lon="-8.235466898653264"><ele>599.0</ele><time>2026-04-18T09:41:22.999Z</time></trkpt><trkpt lat="42.568540860221596" lon="-8.235516989680402"><ele>599.0</ele><time>2026-04-18T09:41:23.999Z</time></trkpt><trkpt lat="42.568427904036646" lon="-8.235465357386863"><ele>599.0</ele><time>2026-04-18T09:41:25.999Z</time></trkpt><trkpt lat="42.56840159005145" lon="-8.23536145762724"><ele>599.0</ele><time>2026-04-18T09:41:26.999Z</time></trkpt><trkpt lat="42.56839690996318" lon="-8.235227779346303"><ele>599.0</ele><time>2026-04-18T09:41:27.999Z</time></trkpt><trkpt lat="42.56839944285869" lon="-8.235092335347518"><ele>599.0</ele><time>2026-04-18T09:41:28.999Z</time></trkpt><trkpt lat="42.5683925521479" lon="-8.234972760598453"><ele>599.0</ele><time>2026-04-18T09:41:29.999Z</time></trkpt><trkpt lat="42.56836584638747" lon="-8.234881540288463"><ele>599.0</ele><time>2026-04-18T09:41:30.999Z</time></trkpt><trkpt lat="42.56834211167361" lon="-8.234766364083113"><ele>599.0</ele><time>2026-04-18T09:41:31.999Z</time></trkpt><trkpt lat="42.56830915177921" lon="-8.234644986586598"><ele>597.1666666666666</ele><time>2026-04-18T09:41:32.999Z</time></trkpt><trkpt lat="42.56828267465306" lon="-8.234535939608936"><ele>595.3333333333333</ele><time>2026-04-18T09:41:33.999Z</time></trkpt><trkpt lat="42.56829215255705" lon="-8.234417088848257"><ele>593.5</ele><time>2026-04-18T09:41:34.999Z</time></trkpt><trkpt lat="42.56829350025113" lon="-8.234304860482828"><ele>591.6666666666666</ele><time>2026-04-18T09:41:35.999Z</time></trkpt><trkpt lat="42.56829353449138" lon="-8.234187774200363"><ele>589.8333333333334</ele><time>2026-04-18T09:41:36.999Z</time></trkpt><trkpt lat="42.56828877548718" lon="-8.234069836665563"><ele>588.0</ele><time>2026-04-18T09:41:37.999Z</time></trkpt><trkpt lat="42.56827634122002" lon="-8.233948711820679"><ele>585.8333333333334</ele><time>2026-04-18T09:41:38.999Z</time></trkpt><trkpt lat="42.56824617717081" lon="-8.2338401015729"><ele>583.6666666666666</ele><time>2026-04-18T09:41:39.999Z</time></trkpt><trkpt lat="42.56819663569827" lon="-8.233749156252282"><ele>581.5</ele><time>2026-04-18T09:41:40.999Z</time></trkpt><trkpt lat="42.56811695626868" lon="-8.233687891901267"><ele>579.3333333333333</ele><time>2026-04-18T09:41:41.999Z</time></trkpt><trkpt lat="42.56802652129349" lon="-8.233654671969191"><ele>577.1666666666666</ele><time>2026-04-18T09:41:42.999Z</time></trkpt><trkpt lat="42.56793894199216" lon="-8.23361990566778"><ele>575.0</ele><time>2026-04-18T09:41:43.999Z</time></trkpt><trkpt lat="42.56783968893547" lon="-8.233579249628468"><ele>574.2</ele><time>2026-04-18T09:41:44.999Z</time></trkpt><trkpt lat="42.56774118529956" lon="-8.233564235578015"><ele>573.4</ele><time>2026-04-18T09:41:45.999Z</time></trkpt><trkpt lat="42.56764495979673" lon="-8.233570371209643"><ele>572.6</ele><time>2026-04-18T09:41:46.999Z</time></trkpt><trkpt lat="42.567547890816236" lon="-8.233587006702527"><ele>571.8</ele><time>2026-04-18T09:41:47.999Z</time></trkpt><trkpt lat="42.567451324871016" lon="-8.233607356544118"><ele>571.0</ele><time>2026-04-18T09:41:48.999Z</time></trkpt><trkpt lat="42.567358234923475" lon="-8.233639182876203"><ele>571.0</ele><time>2026-04-18T09:41:49.999Z</time></trkpt><trkpt lat="42.56727131969795" lon="-8.233680611608834"><ele>571.0</ele><time>2026-04-18T09:41:50.999Z</time></trkpt><trkpt lat="42.56718146583559" lon="-8.23370951363506"><ele>571.0</ele><time>2026-04-18T09:41:51.999Z</time></trkpt><trkpt lat="42.56708851774259" lon="-8.23370222024843"><ele>571.0</ele><time>2026-04-18T09:41:52.999Z</time></trkpt><trkpt lat="42.567002640469774" lon="-8.233653680331205"><ele>571.0</ele><time>2026-04-18T09:41:53.999Z</time></trkpt><trkpt lat="42.56691827534956" lon="-8.233575515197717"><ele>569.8333333333334</ele><time>2026-04-18T09:41:54.999Z</time></trkpt><trkpt lat="42.56684532912872" lon="-8.23351396720328"><ele>568.6666666666667</ele><time>2026-04-18T09:41:55.999Z</time></trkpt><trkpt lat="42.56675586790925" lon="-8.23347821286858"><ele>567.5</ele><time>2026-04-18T09:41:56.999Z</time></trkpt><trkpt lat="42.566663391959594" lon="-8.23346893366104"><ele>566.3333333333334</ele><time>2026-04-18T09:41:57.999Z</time></trkpt><trkpt lat="42.566573463653185" lon="-8.233461569960433"><ele>565.1666666666666</ele><time>2026-04-18T09:41:58.999Z</time></trkpt><trkpt lat="42.566497298974674" lon="-8.233439310159628"><ele>564.0</ele><time>2026-04-18T09:41:59.999Z</time></trkpt><trkpt lat="42.56644444749429" lon="-8.23338992414626"><ele>564.0</ele><time>2026-04-18T09:42:00.999Z</time></trkpt><trkpt lat="42.56642945395436" lon="-8.233220459469996"><ele>564.0</ele><time>2026-04-18T09:42:02.999Z</time></trkpt><trkpt lat="42.56646615448793" lon="-8.233111923725296"><ele>564.0</ele><time>2026-04-18T09:42:03.999Z</time></trkpt><trkpt lat="42.56653105627164" lon="-8.23299354287121"><ele>564.0</ele><time>2026-04-18T09:42:04.999Z</time></trkpt><trkpt lat="42.566622005619614" lon="-8.232893695469313"><ele>564.0</ele><time>2026-04-18T09:42:05.999Z</time></trkpt><trkpt lat="42.56670210231776" lon="-8.232817832816801"><ele>559.8</ele><time>2026-04-18T09:42:06.999Z</time></trkpt><trkpt lat="42.56675920506959" lon="-8.232746325914365"><ele>555.5999999999999</ele><time>2026-04-18T09:42:07.999Z</time></trkpt><trkpt lat="42.56677331629092" lon="-8.232603724755126"><ele>551.4</ele><time>2026-04-18T09:42:09.999Z</time></trkpt><trkpt lat="42.56671486012037" lon="-8.2325692609876"><ele>547.1999999999999</ele><time>2026-04-18T09:42:10.999Z</time></trkpt><trkpt lat="42.56660662504224" lon="-8.232584982056093"><ele>543.0</ele><time>2026-04-18T09:42:11.999Z</time></trkpt><trkpt lat="42.56649334635016" lon="-8.232622830250905"><ele>543.0</ele><time>2026-04-18T09:42:12.999Z</time></trkpt><trkpt lat="42.56639257120951" lon="-8.23265119691772"><ele>543.0</ele><time>2026-04-18T09:42:13.999Z</time></trkpt><trkpt lat="42.56629329844424" lon="-8.232675486691093"><ele>543.0</ele><time>2026-04-18T09:42:14.999Z</time></trkpt><trkpt lat="42.566198714534515" lon="-8.232704309089012"><ele>543.0</ele><time>2026-04-18T09:42:15.999Z</time></trkpt><trkpt lat="42.56610586376856" lon="-8.232737439925224"><ele>543.0</ele><time>2026-04-18T09:42:16.999Z</time></trkpt><trkpt lat="42.56601531401785" lon="-8.232773694157327"><ele>539.8</ele><time>2026-04-18T09:42:17.999Z</time></trkpt><trkpt lat="42.56592513398842" lon="-8.232809363316264"><ele>536.5999999999999</ele><time>2026-04-18T09:42:18.999Z</time></trkpt><trkpt lat="42.56583491419937" lon="-8.232845837030077"><ele>533.4000000000001</ele><time>2026-04-18T09:42:19.999Z</time></trkpt><trkpt lat="42.56574710857417" lon="-8.23289094316655"><ele>530.2</ele><time>2026-04-18T09:42:20.999Z</time></trkpt><trkpt lat="42.565657306358204" lon="-8.232941360987946"><ele>527.0</ele><time>2026-04-18T09:42:21.999Z</time></trkpt><trkpt lat="42.565562709182196" lon="-8.232990339915979"><ele>527.0</ele><time>2026-04-18T09:42:22.999Z</time></trkpt><trkpt lat="42.56546960205071" lon="-8.233037574656244"><ele>527.0</ele><time>2026-04-18T09:42:23.999Z</time></trkpt><trkpt lat="42.565377025363276" lon="-8.233079333236727"><ele>527.0</ele><time>2026-04-18T09:42:24.998Z</time></trkpt><trkpt lat="42.56528923027396" lon="-8.233121343376634"><ele>527.0</ele><time>2026-04-18T09:42:25.998Z</time></trkpt><trkpt lat="42.56520344805983" lon="-8.233163627396232"><ele>527.0</ele><time>2026-04-18T09:42:26.998Z</time></trkpt><trkpt lat="42.56512226022405" lon="-8.23321248699258"><ele>525.0</ele><time>2026-04-18T09:42:27.998Z</time></trkpt><trkpt lat="42.565050312101704" lon="-8.233276983847274"><ele>523.0</ele><time>2026-04-18T09:42:28.998Z</time></trkpt><trkpt lat="42.5649848411885" lon="-8.233360120880196"><ele>521.0</ele><time>2026-04-18T09:42:29.998Z</time></trkpt><trkpt lat="42.56493983454612" lon="-8.233468640373143"><ele>519.0</ele><time>2026-04-18T09:42:30.998Z</time></trkpt><trkpt lat="42.56491373377575" lon="-8.233589716433798"><ele>517.0</ele><time>2026-04-18T09:42:31.998Z</time></trkpt><trkpt lat="42.56490272341463" lon="-8.233716458518725"><ele>517.0</ele><time>2026-04-18T09:42:32.998Z</time></trkpt><trkpt lat="42.56488039068092" lon="-8.233839986258918"><ele>517.0</ele><time>2026-04-18T09:42:33.998Z</time></trkpt><trkpt lat="42.564829344476294" lon="-8.233933966568555"><ele>517.0</ele><time>2026-04-18T09:42:34.998Z</time></trkpt><trkpt lat="42.56474783698568" lon="-8.233994788166578"><ele>517.0</ele><time>2026-04-18T09:42:35.998Z</time></trkpt><trkpt lat="42.564658524570106" lon="-8.234002417762323"><ele>517.0</ele><time>2026-04-18T09:42:36.998Z</time></trkpt><trkpt lat="42.564571597413405" lon="-8.23396762687522"><ele>517.4</ele><time>2026-04-18T09:42:37.998Z</time></trkpt><trkpt lat="42.56447483652038" lon="-8.233941600683327"><ele>517.8000000000001</ele><time>2026-04-18T09:42:38.998Z</time></trkpt><trkpt lat="42.56437659247865" lon="-8.233954236655048"><ele>518.2</ele><time>2026-04-18T09:42:39.998Z</time></trkpt><trkpt lat="42.56428563346505" lon="-8.233991051287779"><ele>518.6</ele><time>2026-04-18T09:42:40.998Z</time></trkpt><trkpt lat="42.56420418276144" lon="-8.234016489155296"><ele>519.0</ele><time>2026-04-18T09:42:41.998Z</time></trkpt><trkpt lat="42.56412790449413" lon="-8.234038074390043"><ele>519.0</ele><time>2026-04-18T09:42:43Z</time></trkpt><trkpt lat="42.564053679340894" lon="-8.23403855221825"><ele>519.0</ele><time>2026-04-18T09:42:44Z</time></trkpt><trkpt lat="42.56398042126622" lon="-8.234024136923479"><ele>519.0</ele><time>2026-04-18T09:42:45Z</time></trkpt><trkpt lat="42.56390987599229" lon="-8.233986548415283"><ele>519.0</ele><time>2026-04-18T09:42:46Z</time></trkpt><trkpt lat="42.56384276952992" lon="-8.23394188190715"><ele>519.0</ele><time>2026-04-18T09:42:47Z</time></trkpt><trkpt lat="42.563776221226696" lon="-8.233892632015396"><ele>519.0</ele><time>2026-04-18T09:42:48Z</time></trkpt><trkpt lat="42.56370037044899" lon="-8.233839494968192"><ele>516.6666666666666</ele><time>2026-04-18T09:42:49Z</time></trkpt><trkpt lat="42.56362403739849" lon="-8.233780284894989"><ele>514.3333333333334</ele><time>2026-04-18T09:42:50Z</time></trkpt><trkpt lat="42.56355374970948" lon="-8.233735481908983"><ele>512.0</ele><time>2026-04-18T09:42:51Z</time></trkpt><trkpt lat="42.56347286214102" lon="-8.23373563752458"><ele>509.6666666666667</ele><time>2026-04-18T09:42:52Z</time></trkpt><trkpt lat="42.563394364293075" lon="-8.233773524351145"><ele>507.33333333333337</ele><time>2026-04-18T09:42:53Z</time></trkpt><trkpt lat="42.56333236664388" lon="-8.23379503326818"><ele>505.0</ele><time>2026-04-18T09:42:54Z</time></trkpt><trkpt lat="42.563283568234255" lon="-8.23373645862105"><ele>505.00000000000006</ele><time>2026-04-18T09:42:55Z</time></trkpt><trkpt lat="42.563249817569485" lon="-8.233635568766115"><ele>505.0</ele><time>2026-04-18T09:42:56Z</time></trkpt><trkpt lat="42.563236266988376" lon="-8.233523098067469"><ele>505.0</ele><time>2026-04-18T09:42:57Z</time></trkpt><trkpt lat="42.56322611756899" lon="-8.233416282204102"><ele>505.0</ele><time>2026-04-18T09:42:58Z</time></trkpt><trkpt lat="42.56319832812546" lon="-8.233313380251829"><ele>505.00000000000006</ele><time>2026-04-18T09:42:59Z</time></trkpt><trkpt lat="42.5631531386429" lon="-8.23320712532738"><ele>505.0</ele><time>2026-04-18T09:43:00Z</time></trkpt><trkpt lat="42.56309068409047" lon="-8.233103886526981"><ele>504.2</ele><time>2026-04-18T09:43:01Z</time></trkpt><trkpt lat="42.56301645019242" lon="-8.233006504444232"><ele>503.4</ele><time>2026-04-18T09:43:02Z</time></trkpt><trkpt lat="42.56294645813116" lon="-8.232919744606408"><ele>502.6</ele><time>2026-04-18T09:43:03Z</time></trkpt><trkpt lat="42.56288312066433" lon="-8.232835871716002"><ele>501.8</ele><time>2026-04-18T09:43:04Z</time></trkpt><trkpt lat="42.56281994844687" lon="-8.23275066896164"><ele>501.0</ele><time>2026-04-18T09:43:05Z</time></trkpt><trkpt lat="42.56275595673605" lon="-8.23266397316408"><ele>502.3333333333333</ele><time>2026-04-18T09:43:06Z</time></trkpt><trkpt lat="42.56268972985154" lon="-8.23257671187744"><ele>503.66666666666663</ele><time>2026-04-18T09:43:07Z</time></trkpt><trkpt lat="42.56261720546205" lon="-8.232497020106324"><ele>505.0</ele><time>2026-04-18T09:43:08Z</time></trkpt><trkpt lat="42.56256905304003" lon="-8.23241227919337"><ele>506.3333333333333</ele><time>2026-04-18T09:43:09Z</time></trkpt><trkpt lat="42.562516247737555" lon="-8.232333255849028"><ele>507.66666666666663</ele><time>2026-04-18T09:43:10Z</time></trkpt><trkpt lat="42.56246625987038" lon="-8.232250928056104"><ele>509.0</ele><time>2026-04-18T09:43:11Z</time></trkpt><trkpt lat="42.56240944025927" lon="-8.23216644267746"><ele>509.0</ele><time>2026-04-18T09:43:12Z</time></trkpt><trkpt lat="42.56234478615041" lon="-8.23206495984181"><ele>509.0</ele><time>2026-04-18T09:43:13Z</time></trkpt><trkpt lat="42.56227916330444" lon="-8.231960352693466"><ele>509.0</ele><time>2026-04-18T09:43:14Z</time></trkpt><trkpt lat="42.562218011931655" lon="-8.231856593785695"><ele>509.0</ele><time>2026-04-18T09:43:15Z</time></trkpt><trkpt lat="42.562160961726256" lon="-8.231750467809842"><ele>509.0</ele><time>2026-04-18T09:43:16Z</time></trkpt><trkpt lat="42.562111381330446" lon="-8.231641000880732"><ele>508.99999999999994</ele><time>2026-04-18T09:43:16.999Z</time></trkpt><trkpt lat="42.56206499250782" lon="-8.23153391555062"><ele>509.0</ele><time>2026-04-18T09:43:17.999Z</time></trkpt><trkpt lat="42.562020987368506" lon="-8.231448789004684"><ele>509.0</ele><time>2026-04-18T09:43:18.999Z</time></trkpt><trkpt lat="42.561961294376815" lon="-8.231375898003739"><ele>509.0</ele><time>2026-04-18T09:43:19.999Z</time></trkpt><trkpt lat="42.56188428806695" lon="-8.231333567279565"><ele>508.99999999999994</ele><time>2026-04-18T09:43:20.999Z</time></trkpt><trkpt lat="42.56178775621677" lon="-8.231312774407426"><ele>509.0</ele><time>2026-04-18T09:43:21.999Z</time></trkpt><trkpt lat="42.56168899351774" lon="-8.23131462378708"><ele>508.79999999999995</ele><time>2026-04-18T09:43:22.999Z</time></trkpt><trkpt lat="42.56159092263914" lon="-8.231334317716291"><ele>508.59999999999997</ele><time>2026-04-18T09:43:23.999Z</time></trkpt><trkpt lat="42.561491265209554" lon="-8.231367316436652"><ele>508.4</ele><time>2026-04-18T09:43:24.999Z</time></trkpt><trkpt lat="42.561402670264165" lon="-8.231410037967015"><ele>508.2</ele><time>2026-04-18T09:43:25.999Z</time></trkpt><trkpt lat="42.561319854386916" lon="-8.231463041008464"><ele>508.0</ele><time>2026-04-18T09:43:26.999Z</time></trkpt><trkpt lat="42.56124074946373" lon="-8.231535976798225"><ele>509.59999999999997</ele><time>2026-04-18T09:43:27.999Z</time></trkpt><trkpt lat="42.56116874708512" lon="-8.231625760911365"><ele>511.19999999999993</ele><time>2026-04-18T09:43:28.999Z</time></trkpt><trkpt lat="42.56110795207114" lon="-8.231733009270213"><ele>512.8</ele><time>2026-04-18T09:43:29.999Z</time></trkpt><trkpt lat="42.561047707870536" lon="-8.231841051230347"><ele>514.4</ele><time>2026-04-18T09:43:30.999Z</time></trkpt><trkpt lat="42.5609778709993" lon="-8.231930340672873"><ele>516.0</ele><time>2026-04-18T09:43:31.999Z</time></trkpt><trkpt lat="42.56089439588987" lon="-8.23198083332079"><ele>516.0</ele><time>2026-04-18T09:43:32.999Z</time></trkpt><trkpt lat="42.560796925103354" lon="-8.231978921724822"><ele>516.0</ele><time>2026-04-18T09:43:33.999Z</time></trkpt><trkpt lat="42.56069766359454" lon="-8.231959433577318"><ele>516.0</ele><time>2026-04-18T09:43:34.999Z</time></trkpt><trkpt lat="42.560596356235514" lon="-8.231935547187499"><ele>516.0</ele><time>2026-04-18T09:43:35.999Z</time></trkpt><trkpt lat="42.56049671535746" lon="-8.231919474908725"><ele>516.0</ele><time>2026-04-18T09:43:36.999Z</time></trkpt><trkpt lat="42.56040202290733" lon="-8.231901349911487"><ele>517.0</ele><time>2026-04-18T09:43:37.999Z</time></trkpt><trkpt lat="42.56030729330491" lon="-8.231874331706369"><ele>518.0</ele><time>2026-04-18T09:43:38.999Z</time></trkpt><trkpt lat="42.56021315415726" lon="-8.231850936696176"><ele>519.0</ele><time>2026-04-18T09:43:39.999Z</time></trkpt><trkpt lat="42.56011492264061" lon="-8.231836025216252"><ele>520.0</ele><time>2026-04-18T09:43:40.999Z</time></trkpt><trkpt lat="42.56001222383366" lon="-8.231829992756278"><ele>521.0</ele><time>2026-04-18T09:43:41.999Z</time></trkpt><trkpt lat="42.55991616928635" lon="-8.231825083722681"><ele>521.0</ele><time>2026-04-18T09:43:42.999Z</time></trkpt><trkpt lat="42.55983373132579" lon="-8.231785150505205"><ele>521.0</ele><time>2026-04-18T09:43:43.999Z</time></trkpt><trkpt lat="42.55977201197375" lon="-8.231694195443644"><ele>521.0</ele><time>2026-04-18T09:43:44.999Z</time></trkpt><trkpt lat="42.55972223914104" lon="-8.231575342074015"><ele>521.0</ele><time>2026-04-18T09:43:45.999Z</time></trkpt><trkpt lat="42.55966391695229" lon="-8.231468175108434"><ele>521.0</ele><time>2026-04-18T09:43:46.999Z</time></trkpt><trkpt lat="42.55958390160059" lon="-8.231384488163345"><ele>520.2</ele><time>2026-04-18T09:43:47.999Z</time></trkpt><trkpt lat="42.55949302434637" lon="-8.231325543491053"><ele>519.4000000000001</ele><time>2026-04-18T09:43:48.999Z</time></trkpt><trkpt lat="42.559400232154225" lon="-8.231267769978896"><ele>518.6</ele><time>2026-04-18T09:43:49.999Z</time></trkpt><trkpt lat="42.559312986569715" lon="-8.231200334955666"><ele>517.8000000000001</ele><time>2026-04-18T09:43:50.999Z</time></trkpt><trkpt lat="42.55922082450577" lon="-8.231141401346854"><ele>517.0</ele><time>2026-04-18T09:43:51.999Z</time></trkpt><trkpt lat="42.5591264941615" lon="-8.23110071196292"><ele>517.0</ele><time>2026-04-18T09:43:52.999Z</time></trkpt><trkpt lat="42.55902898688679" lon="-8.231074945471855"><ele>517.0</ele><time>2026-04-18T09:43:53.999Z</time></trkpt><trkpt lat="42.55893006247137" lon="-8.231056208758828"><ele>517.0</ele><time>2026-04-18T09:43:54.999Z</time></trkpt><trkpt lat="42.558826825781516" lon="-8.231049411707497"><ele>517.0</ele><time>2026-04-18T09:43:55.999Z</time></trkpt><trkpt lat="42.558722820595904" lon="-8.23104870664597"><ele>517.0</ele><time>2026-04-18T09:43:56.999Z</time></trkpt><trkpt lat="42.558620393265684" lon="-8.231058235008094"><ele>516.8000000000001</ele><time>2026-04-18T09:43:57.999Z</time></trkpt><trkpt lat="42.55852677490797" lon="-8.231076400708579"><ele>516.6</ele><time>2026-04-18T09:43:58.999Z</time></trkpt><trkpt lat="42.558435594722106" lon="-8.231103576559011"><ele>516.4000000000001</ele><time>2026-04-18T09:43:59.999Z</time></trkpt><trkpt lat="42.55834818712932" lon="-8.231134403629339"><ele>516.2</ele><time>2026-04-18T09:44:00.999Z</time></trkpt><trkpt lat="42.55826259890481" lon="-8.231161845286215"><ele>516.0</ele><time>2026-04-18T09:44:01.999Z</time></trkpt><trkpt lat="42.55816743154698" lon="-8.231179584331711"><ele>516.0</ele><time>2026-04-18T09:44:02.999Z</time></trkpt><trkpt lat="42.55807514117817" lon="-8.23118163690616"><ele>516.0</ele><time>2026-04-18T09:44:03.999Z</time></trkpt><trkpt lat="42.55798947484462" lon="-8.231174909313959"><ele>516.0</ele><time>2026-04-18T09:44:04.999Z</time></trkpt><trkpt lat="42.55790024375553" lon="-8.23115747583454"><ele>516.0</ele><time>2026-04-18T09:44:05.999Z</time></trkpt><trkpt lat="42.55780809546399" lon="-8.231126725755423"><ele>516.0</ele><time>2026-04-18T09:44:06.999Z</time></trkpt><trkpt lat="42.55771726723402" lon="-8.231081117277306"><ele>518.2</ele><time>2026-04-18T09:44:07.999Z</time></trkpt><trkpt lat="42.55763284028417" lon="-8.231018430927536"><ele>520.4000000000001</ele><time>2026-04-18T09:44:08.999Z</time></trkpt><trkpt lat="42.55755136063536" lon="-8.230943299658055"><ele>522.6</ele><time>2026-04-18T09:44:09.999Z</time></trkpt><trkpt lat="42.5574673151299" lon="-8.230865525734606"><ele>524.8000000000001</ele><time>2026-04-18T09:44:10.999Z</time></trkpt><trkpt lat="42.5573861671748" lon="-8.23079781201706"><ele>527.0</ele><time>2026-04-18T09:44:11.999Z</time></trkpt><trkpt lat="42.55730150282206" lon="-8.230739023971305"><ele>527.0</ele><time>2026-04-18T09:44:12.999Z</time></trkpt><trkpt lat="42.55721918378064" lon="-8.230672882066882"><ele>527.0</ele><time>2026-04-18T09:44:13.999Z</time></trkpt><trkpt lat="42.55711696828366" lon="-8.230573514028457"><ele>527.0</ele><time>2026-04-18T09:44:14.999Z</time></trkpt><trkpt lat="42.55698745279311" lon="-8.230460831408207"><ele>527.0</ele><time>2026-04-18T09:44:15.999Z</time></trkpt><trkpt lat="42.55684442098913" lon="-8.230362968779591"><ele>527.5</ele><time>2026-04-18T09:44:16.999Z</time></trkpt><trkpt lat="42.556712950930645" lon="-8.23024506862396"><ele>528.0</ele><time>2026-04-18T09:44:17.999Z</time></trkpt><trkpt lat="42.55660338862832" lon="-8.230116071929867"><ele>528.5</ele><time>2026-04-18T09:44:18.999Z</time></trkpt><trkpt lat="42.55649561979172" lon="-8.22998337836074"><ele>529.0</ele><time>2026-04-18T09:44:19.999Z</time></trkpt><trkpt lat="42.55639957400823" lon="-8.22988118973189"><ele>530.75</ele><time>2026-04-18T09:44:20.999Z</time></trkpt><trkpt lat="42.55632426595699" lon="-8.229805932351617"><ele>532.5</ele><time>2026-04-18T09:44:21.999Z</time></trkpt><trkpt lat="42.55621738707132" lon="-8.229775061798904"><ele>534.25</ele><time>2026-04-18T09:44:22.999Z</time></trkpt><trkpt lat="42.55607986618289" lon="-8.229799631301212"><ele>536.0</ele><time>2026-04-18T09:44:23.999Z</time></trkpt><trkpt lat="42.55594327738405" lon="-8.229840061700724"><ele>536.0</ele><time>2026-04-18T09:44:24.999Z</time></trkpt><trkpt lat="42.55582328610532" lon="-8.229913878992663"><ele>536.0</ele><time>2026-04-18T09:44:25.999Z</time></trkpt><trkpt lat="42.55574492131965" lon="-8.230022984931706"><ele>536.0</ele><time>2026-04-18T09:44:26.999Z</time></trkpt><trkpt lat="42.55569925775577" lon="-8.230152075133669"><ele>536.0</ele><time>2026-04-18T09:44:27.999Z</time></trkpt><trkpt lat="42.55569720704729" lon="-8.230270712732235"><ele>536.0</ele><time>2026-04-18T09:44:28.999Z</time></trkpt><trkpt lat="42.555731215788725" lon="-8.230395438620407"><ele>536.0</ele><time>2026-04-18T09:44:29.999Z</time></trkpt><trkpt lat="42.55579657789289" lon="-8.23055614832621"><ele>536.0</ele><time>2026-04-18T09:44:30.999Z</time></trkpt><trkpt lat="42.555847499288156" lon="-8.23075325804167"><ele>536.0</ele><time>2026-04-18T09:44:31.999Z</time></trkpt><trkpt lat="42.55587369999638" lon="-8.230977289012571"><ele>538.3333333333333</ele><time>2026-04-18T09:44:32.999Z</time></trkpt><trkpt lat="42.55588779391947" lon="-8.231222359679768"><ele>540.6666666666666</ele><time>2026-04-18T09:44:33.999Z</time></trkpt><trkpt lat="42.55590600365029" lon="-8.231489878000342"><ele>543.0</ele><time>2026-04-18T09:44:34.999Z</time></trkpt><trkpt lat="42.55591397051521" lon="-8.231775268841474"><ele>545.6666666666666</ele><time>2026-04-18T09:44:35.999Z</time></trkpt><trkpt lat="42.55591155036266" lon="-8.232062490451797"><ele>548.3333333333333</ele><time>2026-04-18T09:44:36.999Z</time></trkpt><trkpt lat="42.5559168083079" lon="-8.232331961999062"><ele>551.0</ele><time>2026-04-18T09:44:37.999Z</time></trkpt><trkpt lat="42.55593516516365" lon="-8.232585038090908"><ele>551.25</ele><time>2026-04-18T09:44:38.999Z</time></trkpt><trkpt lat="42.55595614044665" lon="-8.232784372175042"><ele>551.5</ele><time>2026-04-18T09:44:39.999Z</time></trkpt><trkpt lat="42.55598332769659" lon="-8.232952814534185"><ele>551.75</ele><time>2026-04-18T09:44:40.998Z</time></trkpt><trkpt lat="42.55600603069523" lon="-8.233089832134493"><ele>552.0</ele><time>2026-04-18T09:44:41.998Z</time></trkpt><trkpt lat="42.55600699171258" lon="-8.233238108461297"><ele>553.0</ele><time>2026-04-18T09:44:42.998Z</time></trkpt><trkpt lat="42.55600238361407" lon="-8.233433507038553"><ele>554.0</ele><time>2026-04-18T09:44:43.998Z</time></trkpt><trkpt lat="42.55595867542026" lon="-8.233621775049727"><ele>555.0</ele><time>2026-04-18T09:44:44.998Z</time></trkpt><trkpt lat="42.55589803968344" lon="-8.233812905900217"><ele>556.0</ele><time>2026-04-18T09:44:45.998Z</time></trkpt><trkpt lat="42.55583743364084" lon="-8.233977714494724"><ele>556.0</ele><time>2026-04-18T09:44:46.998Z</time></trkpt><trkpt lat="42.55579943277113" lon="-8.234090214601823"><ele>556.0</ele><time>2026-04-18T09:44:47.998Z</time></trkpt><trkpt lat="42.555933404411604" lon="-8.234003384800284"><ele>556.0</ele><time>2026-04-18T09:44:53Z</time></trkpt><trkpt lat="42.55595999296239" lon="-8.23388141296468"><ele>556.0</ele><time>2026-04-18T09:44:54Z</time></trkpt><trkpt lat="42.55600607299907" lon="-8.233733908761822"><ele>556.0</ele><time>2026-04-18T09:44:55Z</time></trkpt><trkpt lat="42.55608738122845" lon="-8.233590307879611"><ele>556.0</ele><time>2026-04-18T09:44:56Z</time></trkpt><trkpt lat="42.556160450150045" lon="-8.233449376534514"><ele>556.0</ele><time>2026-04-18T09:44:57Z</time></trkpt><trkpt lat="42.556227982722596" lon="-8.233305583132484"><ele>556.0</ele><time>2026-04-18T09:44:58Z</time></trkpt><trkpt lat="42.556280732397134" lon="-8.23313104665234"><ele>562.25</ele><time>2026-04-18T09:44:59Z</time></trkpt><trkpt lat="42.5563151765014" lon="-8.232946787532013"><ele>568.5</ele><time>2026-04-18T09:45:00Z</time></trkpt><trkpt lat="42.55635801202161" lon="-8.232796105803779"><ele>574.75</ele><time>2026-04-18T09:45:01Z</time></trkpt><trkpt lat="42.556411603031975" lon="-8.232690016155237"><ele>581.0</ele><time>2026-04-18T09:45:02Z</time></trkpt><trkpt lat="42.55648931030937" lon="-8.232597430476472"><ele>581.0</ele><time>2026-04-18T09:45:03Z</time></trkpt><trkpt lat="42.55659456624416" lon="-8.232519568751641"><ele>581.0</ele><time>2026-04-18T09:45:04Z</time></trkpt><trkpt lat="42.55669972021391" lon="-8.232469654086888"><ele>581.0</ele><time>2026-04-18T09:45:05Z</time></trkpt><trkpt lat="42.556811605058314" lon="-8.232445775615668"><ele>581.0</ele><time>2026-04-18T09:45:06Z</time></trkpt><trkpt lat="42.556936448715994" lon="-8.232426205339108"><ele>581.0</ele><time>2026-04-18T09:45:07Z</time></trkpt><trkpt lat="42.55704235290946" lon="-8.232393666217062"><ele>581.0</ele><time>2026-04-18T09:45:08Z</time></trkpt><trkpt lat="42.55710504122142" lon="-8.232373870635433"><ele>581.0</ele><time>2026-04-18T09:45:09Z</time></trkpt><trkpt lat="42.55717026860836" lon="-8.232402147483754"><ele>581.0</ele><time>2026-04-18T09:45:11Z</time></trkpt><trkpt lat="42.55712976801292" lon="-8.232515542742982"><ele>581.0</ele><time>2026-04-18T09:45:13Z</time></trkpt><trkpt lat="42.55705938197026" lon="-8.232547890028137"><ele>581.0</ele><time>2026-04-18T09:45:14Z</time></trkpt><trkpt lat="42.55697512097696" lon="-8.2325991427312"><ele>581.0</ele><time>2026-04-18T09:45:15Z</time></trkpt><trkpt lat="42.556889024483596" lon="-8.232699030460719"><ele>581.0</ele><time>2026-04-18T09:45:16Z</time></trkpt><trkpt lat="42.55681638766324" lon="-8.232823520129296"><ele>581.0</ele><time>2026-04-18T09:45:17Z</time></trkpt><trkpt lat="42.55673713403539" lon="-8.232983400691484"><ele>581.0</ele><time>2026-04-18T09:45:18Z</time></trkpt><trkpt lat="42.55669331361028" lon="-8.233162940457008"><ele>585.3333333333333</ele><time>2026-04-18T09:45:19Z</time></trkpt><trkpt lat="42.556680691647" lon="-8.233336773786993"><ele>589.6666666666666</ele><time>2026-04-18T09:45:20Z</time></trkpt><trkpt lat="42.556673756204425" lon="-8.233549014803856"><ele>594.0</ele><time>2026-04-18T09:45:21Z</time></trkpt><trkpt lat="42.556637553508374" lon="-8.233769681215955"><ele>598.3333333333334</ele><time>2026-04-18T09:45:22Z</time></trkpt><trkpt lat="42.55657341334657" lon="-8.233998969942721"><ele>602.6666666666667</ele><time>2026-04-18T09:45:23Z</time></trkpt><trkpt lat="42.55649725122555" lon="-8.234244128719766"><ele>607.0</ele><time>2026-04-18T09:45:24Z</time></trkpt><trkpt lat="42.556431875150736" lon="-8.234491765021286"><ele>607.0</ele><time>2026-04-18T09:45:25Z</time></trkpt><trkpt lat="42.556373455481" lon="-8.23471376737556"><ele>607.0</ele><time>2026-04-18T09:45:26Z</time></trkpt><trkpt lat="42.55633172008498" lon="-8.234906022943166"><ele>607.0</ele><time>2026-04-18T09:45:27Z</time></trkpt><trkpt lat="42.55632045613375" lon="-8.235103037534053"><ele>610.75</ele><time>2026-04-18T09:45:28Z</time></trkpt><trkpt lat="42.55630172536437" lon="-8.235304161667766"><ele>614.5</ele><time>2026-04-18T09:45:28.999Z</time></trkpt><trkpt lat="42.55627733948377" lon="-8.235486824925063"><ele>618.25</ele><time>2026-04-18T09:45:29.999Z</time></trkpt><trkpt lat="42.55625102915417" lon="-8.235641342131848"><ele>622.0</ele><time>2026-04-18T09:45:30.999Z</time></trkpt><trkpt lat="42.55623840578946" lon="-8.23576942460457"><ele>624.4</ele><time>2026-04-18T09:45:31.999Z</time></trkpt><trkpt lat="42.55623542378055" lon="-8.235897645084965"><ele>626.8000000000001</ele><time>2026-04-18T09:45:32.999Z</time></trkpt><trkpt lat="42.556230585747365" lon="-8.236045514754027"><ele>629.2</ele><time>2026-04-18T09:45:33.999Z</time></trkpt><trkpt lat="42.556227290625046" lon="-8.236197504806311"><ele>631.6</ele><time>2026-04-18T09:45:34.999Z</time></trkpt><trkpt lat="42.55620510871278" lon="-8.23631871100005"><ele>634.0</ele><time>2026-04-18T09:45:35.999Z</time></trkpt><trkpt lat="42.55615998323014" lon="-8.236395424548268"><ele>631.75</ele><time>2026-04-18T09:45:36.999Z</time></trkpt><trkpt lat="42.55607641803158" lon="-8.23643929389718"><ele>629.5</ele><time>2026-04-18T09:45:37.999Z</time></trkpt><trkpt lat="42.555963750522835" lon="-8.23647803242075"><ele>627.25</ele><time>2026-04-18T09:45:38.999Z</time></trkpt><trkpt lat="42.55584656729925" lon="-8.236547108120167"><ele>625.0</ele><time>2026-04-18T09:45:39.999Z</time></trkpt><trkpt lat="42.55575345561071" lon="-8.236646921125034"><ele>625.0</ele><time>2026-04-18T09:45:40.999Z</time></trkpt><trkpt lat="42.55567047261075" lon="-8.236765233762238"><ele>625.0</ele><time>2026-04-18T09:45:41.999Z</time></trkpt><trkpt lat="42.55557519178159" lon="-8.23690665753911"><ele>625.0</ele><time>2026-04-18T09:45:42.999Z</time></trkpt><trkpt lat="42.55548448171176" lon="-8.237077134016035"><ele>625.0</ele><time>2026-04-18T09:45:43.999Z</time></trkpt><trkpt lat="42.55541502274101" lon="-8.237240989539574"><ele>622.2</ele><time>2026-04-18T09:45:44.999Z</time></trkpt><trkpt lat="42.55537038766134" lon="-8.237383719369012"><ele>619.4</ele><time>2026-04-18T09:45:45.999Z</time></trkpt><trkpt lat="42.555356595548055" lon="-8.237531541116507"><ele>616.6</ele><time>2026-04-18T09:45:46.999Z</time></trkpt><trkpt lat="42.55537039448563" lon="-8.237679579016074"><ele>613.8</ele><time>2026-04-18T09:45:47.999Z</time></trkpt><trkpt lat="42.55540572149678" lon="-8.23782539987672"><ele>611.0</ele><time>2026-04-18T09:45:48.999Z</time></trkpt><trkpt lat="42.55545399599144" lon="-8.237982170937618"><ele>619.75</ele><time>2026-04-18T09:45:49.999Z</time></trkpt><trkpt lat="42.55550945708958" lon="-8.238148594406095"><ele>628.5</ele><time>2026-04-18T09:45:50.999Z</time></trkpt><trkpt lat="42.55556965936498" lon="-8.23832792700814"><ele>637.25</ele><time>2026-04-18T09:45:51.999Z</time></trkpt><trkpt lat="42.55563139560438" lon="-8.238510721715688"><ele>646.0</ele><time>2026-04-18T09:45:52.999Z</time></trkpt><trkpt lat="42.555692317931175" lon="-8.238715687332123"><ele>646.0</ele><time>2026-04-18T09:45:53.999Z</time></trkpt><trkpt lat="42.55575006358667" lon="-8.23891922542499"><ele>646.0</ele><time>2026-04-18T09:45:54.999Z</time></trkpt><trkpt lat="42.55580966054567" lon="-8.239121915012193"><ele>646.0</ele><time>2026-04-18T09:45:55.999Z</time></trkpt><trkpt lat="42.555861338462265" lon="-8.239307175445182"><ele>645.5999999999999</ele><time>2026-04-18T09:45:56.999Z</time></trkpt><trkpt lat="42.555904304938586" lon="-8.239464126337094"><ele>645.2</ele><time>2026-04-18T09:45:57.999Z</time></trkpt><trkpt lat="42.55593237128026" lon="-8.239600237318749"><ele>644.8</ele><time>2026-04-18T09:45:58.999Z</time></trkpt><trkpt lat="42.55595426743707" lon="-8.239698502636847"><ele>644.4000000000001</ele><time>2026-04-18T09:45:59.999Z</time></trkpt><trkpt lat="42.55605649720984" lon="-8.239560851006997"><ele>644.0</ele><time>2026-04-18T09:46:03.999Z</time></trkpt><trkpt lat="42.55602182313434" lon="-8.239449101013006"><ele>644.0</ele><time>2026-04-18T09:46:04.999Z</time></trkpt><trkpt lat="42.55598605490685" lon="-8.239305356317209"><ele>644.0</ele><time>2026-04-18T09:46:05.999Z</time></trkpt><trkpt lat="42.55596371750417" lon="-8.239139369071104"><ele>644.0</ele><time>2026-04-18T09:46:06.999Z</time></trkpt><trkpt lat="42.55597209467938" lon="-8.238950766538988"><ele>644.0</ele><time>2026-04-18T09:46:07.999Z</time></trkpt><trkpt lat="42.55598369321738" lon="-8.238712453806588"><ele>644.5</ele><time>2026-04-18T09:46:08.999Z</time></trkpt><trkpt lat="42.55599480792929" lon="-8.238483631330102"><ele>645.0</ele><time>2026-04-18T09:46:09.999Z</time></trkpt><trkpt lat="42.55601997910102" lon="-8.238292620432087"><ele>645.5</ele><time>2026-04-18T09:46:10.999Z</time></trkpt><trkpt lat="42.55605802864785" lon="-8.238123900247182"><ele>646.0</ele><time>2026-04-18T09:46:11.999Z</time></trkpt><trkpt lat="42.55611410553793" lon="-8.23796281643269"><ele>644.3333333333334</ele><time>2026-04-18T09:46:12.999Z</time></trkpt><trkpt lat="42.556193593365116" lon="-8.237810776808075"><ele>642.6666666666666</ele><time>2026-04-18T09:46:13.999Z</time></trkpt><trkpt lat="42.556316652547444" lon="-8.237656211525772"><ele>641.0</ele><time>2026-04-18T09:46:14.999Z</time></trkpt><trkpt lat="42.55644743563535" lon="-8.23751062171071"><ele>643.6666666666666</ele><time>2026-04-18T09:46:15.999Z</time></trkpt><trkpt lat="42.556586380943635" lon="-8.237377484165906"><ele>646.3333333333334</ele><time>2026-04-18T09:46:16.999Z</time></trkpt><trkpt lat="42.55672756797748" lon="-8.237283364646792"><ele>649.0</ele><time>2026-04-18T09:46:17.999Z</time></trkpt><trkpt lat="42.55683805169454" lon="-8.23716602968328"><ele>649.0</ele><time>2026-04-18T09:46:18.999Z</time></trkpt><trkpt lat="42.55695450338763" lon="-8.237022344974525"><ele>649.0</ele><time>2026-04-18T09:46:19.999Z</time></trkpt><trkpt lat="42.557089498047645" lon="-8.236879749106151"><ele>649.0</ele><time>2026-04-18T09:46:20.999Z</time></trkpt><trkpt lat="42.55721308941414" lon="-8.236723507914427"><ele>652.5</ele><time>2026-04-18T09:46:21.999Z</time></trkpt><trkpt lat="42.55731963861713" lon="-8.236566303693358"><ele>656.0</ele><time>2026-04-18T09:46:22.999Z</time></trkpt><trkpt lat="42.55741778367177" lon="-8.236422643982317"><ele>659.5</ele><time>2026-04-18T09:46:23.999Z</time></trkpt><trkpt lat="42.557516556399" lon="-8.236291837914148"><ele>663.0</ele><time>2026-04-18T09:46:24.999Z</time></trkpt><trkpt lat="42.55760859051872" lon="-8.23617009473235"><ele>663.0</ele><time>2026-04-18T09:46:25.999Z</time></trkpt><trkpt lat="42.55770346221758" lon="-8.236050897777758"><ele>663.0</ele><time>2026-04-18T09:46:26.999Z</time></trkpt><trkpt lat="42.55781745714854" lon="-8.235918447900604"><ele>663.0</ele><time>2026-04-18T09:46:27.999Z</time></trkpt><trkpt lat="42.55794107801139" lon="-8.235796949135034"><ele>663.0</ele><time>2026-04-18T09:46:28.999Z</time></trkpt><trkpt lat="42.558043952231856" lon="-8.235713031897422"><ele>666.5999999999999</ele><time>2026-04-18T09:46:29.999Z</time></trkpt><trkpt lat="42.55812588259007" lon="-8.23570037582749"><ele>670.1999999999999</ele><time>2026-04-18T09:46:30.999Z</time></trkpt><trkpt lat="42.55818975154314" lon="-8.235776560510999"><ele>673.8</ele><time>2026-04-18T09:46:32.999Z</time></trkpt><trkpt lat="42.558129983515535" lon="-8.235951569444731"><ele>677.4</ele><time>2026-04-18T09:46:34.999Z</time></trkpt><trkpt lat="42.55804030446427" lon="-8.236030588329832"><ele>681.0</ele><time>2026-04-18T09:46:35.999Z</time></trkpt><trkpt lat="42.55795928003742" lon="-8.236142069638417"><ele>681.0</ele><time>2026-04-18T09:46:36.999Z</time></trkpt><trkpt lat="42.55789004247959" lon="-8.236292967848259"><ele>681.0</ele><time>2026-04-18T09:46:37.999Z</time></trkpt><trkpt lat="42.557833357743334" lon="-8.236488689479865"><ele>681.0</ele><time>2026-04-18T09:46:38.999Z</time></trkpt><trkpt lat="42.55776892672653" lon="-8.236702714886405"><ele>679.3333333333334</ele><time>2026-04-18T09:46:39.999Z</time></trkpt><trkpt lat="42.55768024535934" lon="-8.236968268473058"><ele>677.6666666666667</ele><time>2026-04-18T09:46:40.999Z</time></trkpt><trkpt lat="42.55759115812805" lon="-8.237226701902436"><ele>676.0</ele><time>2026-04-18T09:46:41.999Z</time></trkpt><trkpt lat="42.5574864438559" lon="-8.237493447518814"><ele>681.3333333333334</ele><time>2026-04-18T09:46:42.999Z</time></trkpt><trkpt lat="42.5573920063348" lon="-8.237729608662502"><ele>686.6666666666666</ele><time>2026-04-18T09:46:43.999Z</time></trkpt><trkpt lat="42.55733053958826" lon="-8.237970295457979"><ele>692.0</ele><time>2026-04-18T09:46:44.999Z</time></trkpt><trkpt lat="42.557262903821204" lon="-8.238197120773998"><ele>694.5</ele><time>2026-04-18T09:46:45.999Z</time></trkpt><trkpt lat="42.557224851886" lon="-8.238394723833599"><ele>697.0</ele><time>2026-04-18T09:46:46.999Z</time></trkpt><trkpt lat="42.557200494516216" lon="-8.23858916299455"><ele>699.5</ele><time>2026-04-18T09:46:47.999Z</time></trkpt><trkpt lat="42.557208893524304" lon="-8.238775568690254"><ele>702.0</ele><time>2026-04-18T09:46:48.999Z</time></trkpt><trkpt lat="42.557239736800994" lon="-8.239004867616032"><ele>703.6666666666666</ele><time>2026-04-18T09:46:49.999Z</time></trkpt><trkpt lat="42.557278032613304" lon="-8.239249803455674"><ele>705.3333333333333</ele><time>2026-04-18T09:46:50.998Z</time></trkpt><trkpt lat="42.55732365296161" lon="-8.23950703034783"><ele>707.0</ele><time>2026-04-18T09:46:51.998Z</time></trkpt><trkpt lat="42.557353273241844" lon="-8.23978806598678"><ele>707.3333333333333</ele><time>2026-04-18T09:46:52.998Z</time></trkpt><trkpt lat="42.557364578458206" lon="-8.240082153702298"><ele>707.6666666666666</ele><time>2026-04-18T09:46:54Z</time></trkpt><trkpt lat="42.55737453216606" lon="-8.240390710422227"><ele>708.0</ele><time>2026-04-18T09:46:55Z</time></trkpt><trkpt lat="42.55739364085739" lon="-8.240645897283892"><ele>708.0</ele><time>2026-04-18T09:46:56Z</time></trkpt><trkpt lat="42.557418251208645" lon="-8.240815302755196"><ele>708.0</ele><time>2026-04-18T09:46:57Z</time></trkpt><trkpt lat="42.55744483058337" lon="-8.24096996616944"><ele>708.0</ele><time>2026-04-18T09:46:58Z</time></trkpt><trkpt lat="42.55748736234735" lon="-8.241162105718534"><ele>708.0</ele><time>2026-04-18T09:46:59Z</time></trkpt><trkpt lat="42.55753634134075" lon="-8.241395720812902"><ele>707.0</ele><time>2026-04-18T09:47:00Z</time></trkpt><trkpt lat="42.557573101182776" lon="-8.241637469685623"><ele>706.0</ele><time>2026-04-18T09:47:01Z</time></trkpt><trkpt lat="42.557607900327405" lon="-8.241866377133123"><ele>705.0</ele><time>2026-04-18T09:47:02Z</time></trkpt><trkpt lat="42.557629981390285" lon="-8.242060893349084"><ele>705.0</ele><time>2026-04-18T09:47:03Z</time></trkpt><trkpt lat="42.557636877009585" lon="-8.242223584142147"><ele>705.0</ele><time>2026-04-18T09:47:04Z</time></trkpt><trkpt lat="42.5576132772394" lon="-8.242364501092187"><ele>705.0</ele><time>2026-04-18T09:47:05Z</time></trkpt><trkpt lat="42.55756214538024" lon="-8.242497917332063"><ele>705.0</ele><time>2026-04-18T09:47:06Z</time></trkpt><trkpt lat="42.55747795064635" lon="-8.242647972193824"><ele>707.0</ele><time>2026-04-18T09:47:07Z</time></trkpt><trkpt lat="42.55735860421129" lon="-8.242807540909894"><ele>709.0</ele><time>2026-04-18T09:47:08Z</time></trkpt><trkpt lat="42.55721790163031" lon="-8.242982372464827"><ele>711.0</ele><time>2026-04-18T09:47:09Z</time></trkpt><trkpt lat="42.55708240128641" lon="-8.24316666073641"><ele>708.3333333333334</ele><time>2026-04-18T09:47:10Z</time></trkpt><trkpt lat="42.55695963401543" lon="-8.243347843731568"><ele>705.6666666666667</ele><time>2026-04-18T09:47:11Z</time></trkpt><trkpt lat="42.556833245655326" lon="-8.243519229921601"><ele>703.0</ele><time>2026-04-18T09:47:12Z</time></trkpt><trkpt lat="42.556700114169004" lon="-8.24371202142827"><ele>703.0</ele><time>2026-04-18T09:47:13Z</time></trkpt><trkpt lat="42.556590566208065" lon="-8.243908645569997"><ele>703.0</ele><time>2026-04-18T09:47:14Z</time></trkpt><trkpt lat="42.55651009117663" lon="-8.244088721659166"><ele>703.0</ele><time>2026-04-18T09:47:15Z</time></trkpt><trkpt lat="42.556435751868136" lon="-8.244278813614892"><ele>707.0</ele><time>2026-04-18T09:47:16Z</time></trkpt><trkpt lat="42.55637854145303" lon="-8.244474267563495"><ele>711.0</ele><time>2026-04-18T09:47:17Z</time></trkpt><trkpt lat="42.556342551095156" lon="-8.244649734469046"><ele>715.0</ele><time>2026-04-18T09:47:18Z</time></trkpt><trkpt lat="42.55632681743311" lon="-8.24480639950567"><ele>719.0</ele><time>2026-04-18T09:47:19Z</time></trkpt><trkpt lat="42.55629924224194" lon="-8.24490921645091"><ele>719.4000000000001</ele><time>2026-04-18T09:47:20Z</time></trkpt><trkpt lat="42.55623692722099" lon="-8.244952196631424"><ele>719.8</ele><time>2026-04-18T09:47:21Z</time></trkpt><trkpt lat="42.55615864303026" lon="-8.244942843579523"><ele>720.2</ele><time>2026-04-18T09:47:22Z</time></trkpt><trkpt lat="42.55606220798445" lon="-8.244920402405759"><ele>720.5999999999999</ele><time>2026-04-18T09:47:23Z</time></trkpt><trkpt lat="42.555944283232066" lon="-8.244920733096006"><ele>721.0</ele><time>2026-04-18T09:47:24Z</time></trkpt><trkpt lat="42.55581821777785" lon="-8.244889430563587"><ele>721.0</ele><time>2026-04-18T09:47:25Z</time></trkpt><trkpt lat="42.555688518384976" lon="-8.244811217160036"><ele>721.0</ele><time>2026-04-18T09:47:26Z</time></trkpt><trkpt lat="42.555567358084865" lon="-8.244740420679593"><ele>721.0</ele><time>2026-04-18T09:47:27Z</time></trkpt><trkpt lat="42.555469616377984" lon="-8.244731555063161"><ele>721.0</ele><time>2026-04-18T09:47:28Z</time></trkpt><trkpt lat="42.555395722052275" lon="-8.244736094045557"><ele>721.0</ele><time>2026-04-18T09:47:29Z</time></trkpt><trkpt lat="42.555332049544674" lon="-8.244813728062887"><ele>718.75</ele><time>2026-04-18T09:47:30Z</time></trkpt><trkpt lat="42.5552816244423" lon="-8.244935476114094"><ele>716.5</ele><time>2026-04-18T09:47:31Z</time></trkpt><trkpt lat="42.55525140268189" lon="-8.24513315262877"><ele>714.25</ele><time>2026-04-18T09:47:32Z</time></trkpt><trkpt lat="42.555270781193954" lon="-8.245340088136377"><ele>712.0</ele><time>2026-04-18T09:47:33Z</time></trkpt><trkpt lat="42.555316446652824" lon="-8.24558046900326"><ele>711.6666666666667</ele><time>2026-04-18T09:47:34Z</time></trkpt><trkpt lat="42.555370573857665" lon="-8.245828020833232"><ele>711.3333333333334</ele><time>2026-04-18T09:47:35Z</time></trkpt><trkpt lat="42.55540192311142" lon="-8.246092121829284"><ele>711.0</ele><time>2026-04-18T09:47:36Z</time></trkpt><trkpt lat="42.55542027925485" lon="-8.246372681429325"><ele>727.5</ele><time>2026-04-18T09:47:37Z</time></trkpt><trkpt lat="42.55542734350601" lon="-8.246693184935998"><ele>744.0</ele><time>2026-04-18T09:47:38Z</time></trkpt><trkpt lat="42.55541015109996" lon="-8.247004171187625"><ele>746.0</ele><time>2026-04-18T09:47:39Z</time></trkpt><trkpt lat="42.55538027324753" lon="-8.247307407473855"><ele>748.0</ele><time>2026-04-18T09:47:40Z</time></trkpt><trkpt lat="42.55536999173193" lon="-8.2476079618342"><ele>750.0</ele><time>2026-04-18T09:47:41Z</time></trkpt><trkpt lat="42.555398532904164" lon="-8.247798920428774"><ele>750.0</ele><time>2026-04-18T09:47:41.999Z</time></trkpt><trkpt lat="42.5554341776652" lon="-8.248051836116957"><ele>750.0</ele><time>2026-04-18T09:47:42.999Z</time></trkpt><trkpt lat="42.555459176704225" lon="-8.248277300040865"><ele>750.0</ele><time>2026-04-18T09:47:43.999Z</time></trkpt><trkpt lat="42.5555431269479" lon="-8.248526953785294"><ele>750.0</ele><time>2026-04-18T09:47:44.999Z</time></trkpt><trkpt lat="42.55562814372664" lon="-8.248784062358615"><ele>750.0</ele><time>2026-04-18T09:47:45.999Z</time></trkpt><trkpt lat="42.555696761851586" lon="-8.24903139795914"><ele>750.0</ele><time>2026-04-18T09:47:46.999Z</time></trkpt><trkpt lat="42.555731563173694" lon="-8.249258927771168"><ele>750.0</ele><time>2026-04-18T09:47:47.999Z</time></trkpt><trkpt lat="42.55574033592064" lon="-8.249394800741262"><ele>750.0</ele><time>2026-04-18T09:47:48.999Z</time></trkpt><trkpt lat="42.555818979636896" lon="-8.24942589851178"><ele>750.0</ele><time>2026-04-18T09:47:51.999Z</time></trkpt><trkpt lat="42.55586543979793" lon="-8.249328508401279"><ele>750.0</ele><time>2026-04-18T09:47:52.999Z</time></trkpt><trkpt lat="42.5558764011886" lon="-8.249205640822668"><ele>750.0</ele><time>2026-04-18T09:47:53.999Z</time></trkpt><trkpt lat="42.55588595933925" lon="-8.249027104047263"><ele>750.3333333333334</ele><time>2026-04-18T09:47:54.999Z</time></trkpt><trkpt lat="42.55589357568461" lon="-8.248828864201528"><ele>750.6666666666667</ele><time>2026-04-18T09:47:55.999Z</time></trkpt><trkpt lat="42.55590548095774" lon="-8.248601024090698"><ele>751.0</ele><time>2026-04-18T09:47:56.999Z</time></trkpt><trkpt lat="42.55590903965173" lon="-8.248368771718155"><ele>751.0</ele><time>2026-04-18T09:47:57.999Z</time></trkpt><trkpt lat="42.55589804503998" lon="-8.24816450394757"><ele>751.0</ele><time>2026-04-18T09:47:58.999Z</time></trkpt><trkpt lat="42.555930081295884" lon="-8.248041268614479"><ele>751.0</ele><time>2026-04-18T09:47:59.999Z</time></trkpt><trkpt lat="42.55594629694556" lon="-8.24793337028184"><ele>751.0</ele><time>2026-04-18T09:48:00.999Z</time></trkpt><trkpt lat="42.556007209331476" lon="-8.247890522561244"><ele>751.0</ele><time>2026-04-18T09:48:01.999Z</time></trkpt><trkpt lat="42.55608847669382" lon="-8.247972780610636"><ele>751.0</ele><time>2026-04-18T09:48:03.999Z</time></trkpt><trkpt lat="42.556098483999236" lon="-8.248065935936479"><ele>751.0</ele><time>2026-04-18T09:48:04.999Z</time></trkpt><trkpt lat="42.55610399447367" lon="-8.248197865522867"><ele>751.0</ele><time>2026-04-18T09:48:05.999Z</time></trkpt><trkpt lat="42.556098678561995" lon="-8.248325317356606"><ele>751.0</ele><time>2026-04-18T09:48:06.999Z</time></trkpt><trkpt lat="42.556138415644526" lon="-8.24853235941978"><ele>751.0</ele><time>2026-04-18T09:48:07.999Z</time></trkpt><trkpt lat="42.55619226363614" lon="-8.248762490774165"><ele>763.0</ele><time>2026-04-18T09:48:08.999Z</time></trkpt><trkpt lat="42.55625830989228" lon="-8.24902600142406"><ele>775.0</ele><time>2026-04-18T09:48:09.999Z</time></trkpt><trkpt lat="42.55631535744755" lon="-8.249295793691426"><ele>787.0</ele><time>2026-04-18T09:48:10.999Z</time></trkpt><trkpt lat="42.55634794489689" lon="-8.24950268007206"><ele>787.0</ele><time>2026-04-18T09:48:11.999Z</time></trkpt><trkpt lat="42.5563461368881" lon="-8.249709237497985"><ele>787.0</ele><time>2026-04-18T09:48:12.999Z</time></trkpt><trkpt lat="42.55630500555009" lon="-8.24989370977499"><ele>787.0</ele><time>2026-04-18T09:48:13.999Z</time></trkpt><trkpt lat="42.556266728324054" lon="-8.250012669764468"><ele>787.0</ele><time>2026-04-18T09:48:14.999Z</time></trkpt><trkpt lat="42.55621650064659" lon="-8.250083941009049"><ele>780.0</ele><time>2026-04-18T09:48:15.999Z</time></trkpt><trkpt lat="42.556107598076004" lon="-8.250133124335875"><ele>773.0</ele><time>2026-04-18T09:48:16.999Z</time></trkpt><trkpt lat="42.555997106203996" lon="-8.250220241770453"><ele>766.0</ele><time>2026-04-18T09:48:17.999Z</time></trkpt><trkpt lat="42.555896875828296" lon="-8.250373272547103"><ele>759.0</ele><time>2026-04-18T09:48:18.999Z</time></trkpt><trkpt lat="42.55582125347515" lon="-8.250526331961522"><ele>762.5</ele><time>2026-04-18T09:48:19.999Z</time></trkpt><trkpt lat="42.555763881184625" lon="-8.250681502764598"><ele>766.0</ele><time>2026-04-18T09:48:20.999Z</time></trkpt><trkpt lat="42.5557085345365" lon="-8.250872781890967"><ele>769.5</ele><time>2026-04-18T09:48:21.999Z</time></trkpt><trkpt lat="42.55566360187289" lon="-8.251058786880773"><ele>773.0</ele><time>2026-04-18T09:48:22.999Z</time></trkpt><trkpt lat="42.55567137669352" lon="-8.251248518511138"><ele>773.0</ele><time>2026-04-18T09:48:23.999Z</time></trkpt><trkpt lat="42.555719869784795" lon="-8.251407671222637"><ele>773.0</ele><time>2026-04-18T09:48:24.999Z</time></trkpt><trkpt lat="42.55580095094776" lon="-8.251580818776448"><ele>773.0</ele><time>2026-04-18T09:48:25.999Z</time></trkpt><trkpt lat="42.55587562935812" lon="-8.25173524911279"><ele>773.0</ele><time>2026-04-18T09:48:26.999Z</time></trkpt><trkpt lat="42.55593010511933" lon="-8.251816000286563"><ele>773.0</ele><time>2026-04-18T09:48:27.999Z</time></trkpt><trkpt lat="42.5559997726045" lon="-8.251766354563255"><ele>773.0</ele><time>2026-04-18T09:48:29.999Z</time></trkpt><trkpt lat="42.55602899773807" lon="-8.25168275152044"><ele>773.0</ele><time>2026-04-18T09:48:30.999Z</time></trkpt><trkpt lat="42.55602714325474" lon="-8.25156013747474"><ele>773.0</ele><time>2026-04-18T09:48:31.999Z</time></trkpt><trkpt lat="42.55599096311809" lon="-8.251413700200805"><ele>773.0</ele><time>2026-04-18T09:48:32.999Z</time></trkpt><trkpt lat="42.55599315459575" lon="-8.251239541612765"><ele>773.0</ele><time>2026-04-18T09:48:33.999Z</time></trkpt><trkpt lat="42.55602467610431" lon="-8.251083158641325"><ele>773.0</ele><time>2026-04-18T09:48:34.999Z</time></trkpt><trkpt lat="42.556195749676675" lon="-8.251180196851761"><ele>773.0</ele><time>2026-04-18T09:48:38.999Z</time></trkpt><trkpt lat="42.556230506110445" lon="-8.25131226451011"><ele>773.0</ele><time>2026-04-18T09:48:39.999Z</time></trkpt><trkpt lat="42.556287361611695" lon="-8.251478453245703"><ele>780.3333333333334</ele><time>2026-04-18T09:48:40.999Z</time></trkpt><trkpt lat="42.55637401588539" lon="-8.251654750334351"><ele>787.6666666666667</ele><time>2026-04-18T09:48:41.999Z</time></trkpt><trkpt lat="42.556484636282086" lon="-8.251822823242374"><ele>795.0</ele><time>2026-04-18T09:48:42.999Z</time></trkpt><trkpt lat="42.55661949330552" lon="-8.251959837329009"><ele>795.0</ele><time>2026-04-18T09:48:43.999Z</time></trkpt><trkpt lat="42.55677626599834" lon="-8.25207797015939"><ele>795.0</ele><time>2026-04-18T09:48:44.999Z</time></trkpt><trkpt lat="42.556957933142" lon="-8.252171341560889"><ele>795.0</ele><time>2026-04-18T09:48:45.999Z</time></trkpt><trkpt lat="42.55716793116855" lon="-8.252260332477341"><ele>795.3333333333333</ele><time>2026-04-18T09:48:46.999Z</time></trkpt><trkpt lat="42.55737872324975" lon="-8.252362516407077"><ele>795.6666666666666</ele><time>2026-04-18T09:48:47.999Z</time></trkpt><trkpt lat="42.5575619039321" lon="-8.25244532092187"><ele>796.0</ele><time>2026-04-18T09:48:48.999Z</time></trkpt><trkpt lat="42.55773792475035" lon="-8.252504358936061"><ele>799.3333333333333</ele><time>2026-04-18T09:48:49.999Z</time></trkpt><trkpt lat="42.557928670986165" lon="-8.25254701194843"><ele>802.6666666666667</ele><time>2026-04-18T09:48:50.999Z</time></trkpt><trkpt lat="42.55813689030803" lon="-8.252572325315002"><ele>806.0</ele><time>2026-04-18T09:48:51.999Z</time></trkpt><trkpt lat="42.55835582698038" lon="-8.252578146288378"><ele>806.0</ele><time>2026-04-18T09:48:52.999Z</time></trkpt><trkpt lat="42.55858600736146" lon="-8.252588403094851"><ele>806.0</ele><time>2026-04-18T09:48:53.999Z</time></trkpt><trkpt lat="42.55880999870132" lon="-8.25262231740662"><ele>809.6666666666667</ele><time>2026-04-18T09:48:54.999Z</time></trkpt><trkpt lat="42.55900159114622" lon="-8.252665852594026"><ele>813.3333333333333</ele><time>2026-04-18T09:48:55.999Z</time></trkpt><trkpt lat="42.55916771244404" lon="-8.252712453679893"><ele>817.0</ele><time>2026-04-18T09:48:56.999Z</time></trkpt><trkpt lat="42.55930415753477" lon="-8.252753695121664"><ele>817.0</ele><time>2026-04-18T09:48:57.999Z</time></trkpt><trkpt lat="42.55941014261725" lon="-8.252793777266247"><ele>817.0</ele><time>2026-04-18T09:48:58.999Z</time></trkpt><trkpt lat="42.55949986023901" lon="-8.25285948107072"><ele>817.0</ele><time>2026-04-18T09:49:00Z</time></trkpt><trkpt lat="42.55956938976193" lon="-8.252965092179464"><ele>817.0</ele><time>2026-04-18T09:49:01Z</time></trkpt><trkpt lat="42.559612767343744" lon="-8.253083466306052"><ele>817.0</ele><time>2026-04-18T09:49:02Z</time></trkpt><trkpt lat="42.559623731807726" lon="-8.253213041195677"><ele>821.25</ele><time>2026-04-18T09:49:03Z</time></trkpt><trkpt lat="42.55959330527392" lon="-8.253365555444354"><ele>825.5</ele><time>2026-04-18T09:49:04Z</time></trkpt><trkpt lat="42.55954988205603" lon="-8.253558065470456"><ele>829.75</ele><time>2026-04-18T09:49:05Z</time></trkpt><trkpt lat="42.55952198713277" lon="-8.253770522477067"><ele>834.0</ele><time>2026-04-18T09:49:06Z</time></trkpt><trkpt lat="42.55952901556649" lon="-8.253973043025292"><ele>833.25</ele><time>2026-04-18T09:49:07Z</time></trkpt><trkpt lat="42.55956798709124" lon="-8.25413384821426"><ele>832.5</ele><time>2026-04-18T09:49:08Z</time></trkpt><trkpt lat="42.55962198934148" lon="-8.25431427149313"><ele>831.75</ele><time>2026-04-18T09:49:09Z</time></trkpt><trkpt lat="42.5596864757137" lon="-8.254527412656048"><ele>831.0</ele><time>2026-04-18T09:49:10Z</time></trkpt><trkpt lat="42.5597627723431" lon="-8.25473968214425"><ele>827.0</ele><time>2026-04-18T09:49:11Z</time></trkpt><trkpt lat="42.559858278433005" lon="-8.254964839350965"><ele>823.0</ele><time>2026-04-18T09:49:12Z</time></trkpt><trkpt lat="42.5599651469091" lon="-8.255201487117855"><ele>819.0</ele><time>2026-04-18T09:49:13Z</time></trkpt><trkpt lat="42.560068590049404" lon="-8.255407053911462"><ele>819.0</ele><time>2026-04-18T09:49:14Z</time></trkpt><trkpt lat="42.560147083322796" lon="-8.255584670270583"><ele>819.0</ele><time>2026-04-18T09:49:15Z</time></trkpt><trkpt lat="42.56021295886927" lon="-8.255725326728513"><ele>819.0</ele><time>2026-04-18T09:49:16Z</time></trkpt><trkpt lat="42.56029022755653" lon="-8.255814702198911"><ele>819.0</ele><time>2026-04-18T09:49:17Z</time></trkpt><trkpt lat="42.560369420689945" lon="-8.25588007551095"><ele>819.8333333333334</ele><time>2026-04-18T09:49:18Z</time></trkpt><trkpt lat="42.560445111396284" lon="-8.255905287406886"><ele>820.6666666666667</ele><time>2026-04-18T09:49:19Z</time></trkpt><trkpt lat="42.56052762953398" lon="-8.255886914206034"><ele>821.5</ele><time>2026-04-18T09:49:20Z</time></trkpt><trkpt lat="42.56062772709275" lon="-8.255844936293418"><ele>822.3333333333334</ele><time>2026-04-18T09:49:21Z</time></trkpt><trkpt lat="42.56072541335461" lon="-8.255848663692461"><ele>823.1666666666667</ele><time>2026-04-18T09:49:22Z</time></trkpt><trkpt lat="42.56080134967271" lon="-8.25587614675155"><ele>824.0</ele><time>2026-04-18T09:49:23Z</time></trkpt><trkpt lat="42.56083342192182" lon="-8.256008169078832"><ele>824.0</ele><time>2026-04-18T09:49:25Z</time></trkpt><trkpt lat="42.56079346269611" lon="-8.256081794304265"><ele>824.0</ele><time>2026-04-18T09:49:26Z</time></trkpt><trkpt lat="42.56073307348152" lon="-8.256145182057232"><ele>824.0</ele><time>2026-04-18T09:49:27Z</time></trkpt><trkpt lat="42.56068589796423" lon="-8.25623574820714"><ele>824.0</ele><time>2026-04-18T09:49:28Z</time></trkpt><trkpt lat="42.56063312612978" lon="-8.25639499468425"><ele>824.0</ele><time>2026-04-18T09:49:29Z</time></trkpt><trkpt lat="42.56061367646262" lon="-8.256614343379336"><ele>825.6666666666667</ele><time>2026-04-18T09:49:30Z</time></trkpt><trkpt lat="42.56054102635098" lon="-8.256766119256314"><ele>827.3333333333333</ele><time>2026-04-18T09:49:31Z</time></trkpt><trkpt lat="42.5604239891891" lon="-8.256908189223847"><ele>829.0</ele><time>2026-04-18T09:49:32Z</time></trkpt><trkpt lat="42.56031069746321" lon="-8.257060212924314"><ele>828.25</ele><time>2026-04-18T09:49:33Z</time></trkpt><trkpt lat="42.56022415841071" lon="-8.257169779048391"><ele>827.5</ele><time>2026-04-18T09:49:34Z</time></trkpt><trkpt lat="42.56010907236483" lon="-8.257278114611303"><ele>826.75</ele><time>2026-04-18T09:49:35Z</time></trkpt><trkpt lat="42.56000451924242" lon="-8.25737308125965"><ele>826.0</ele><time>2026-04-18T09:49:36Z</time></trkpt><trkpt lat="42.559891822813206" lon="-8.257449263670766"><ele>826.0</ele><time>2026-04-18T09:49:37Z</time></trkpt><trkpt lat="42.559760387778525" lon="-8.25751237232608"><ele>826.0</ele><time>2026-04-18T09:49:38Z</time></trkpt><trkpt lat="42.559623846619424" lon="-8.257531556475945"><ele>826.0</ele><time>2026-04-18T09:49:39Z</time></trkpt><trkpt lat="42.55948044100661" lon="-8.257529732932657"><ele>826.0</ele><time>2026-04-18T09:49:40Z</time></trkpt><trkpt lat="42.55932846860491" lon="-8.257548943153106"><ele>823.0</ele><time>2026-04-18T09:49:41Z</time></trkpt><trkpt lat="42.55920655511122" lon="-8.257611601551329"><ele>820.0</ele><time>2026-04-18T09:49:42Z</time></trkpt><trkpt lat="42.55911982113198" lon="-8.257675785060682"><ele>817.0</ele><time>2026-04-18T09:49:43Z</time></trkpt><trkpt lat="42.55904907192783" lon="-8.257744956047576"><ele>814.0</ele><time>2026-04-18T09:49:44Z</time></trkpt><trkpt lat="42.55897776803838" lon="-8.257809214855504"><ele>811.0</ele><time>2026-04-18T09:49:45Z</time></trkpt><trkpt lat="42.558900196083044" lon="-8.25785940727423"><ele>811.0</ele><time>2026-04-18T09:49:46Z</time></trkpt><trkpt lat="42.5588111666878" lon="-8.2578790181801"><ele>811.0</ele><time>2026-04-18T09:49:47Z</time></trkpt><trkpt lat="42.55870608029871" lon="-8.25788001089551"><ele>811.0</ele><time>2026-04-18T09:49:48Z</time></trkpt><trkpt lat="42.55859538753356" lon="-8.25787592694139"><ele>811.0</ele><time>2026-04-18T09:49:49Z</time></trkpt><trkpt lat="42.5584863642061" lon="-8.257875818927282"><ele>811.0</ele><time>2026-04-18T09:49:50Z</time></trkpt><trkpt lat="42.55835651125952" lon="-8.257883533826593"><ele>808.25</ele><time>2026-04-18T09:49:51Z</time></trkpt><trkpt lat="42.55821276906181" lon="-8.257892527844195"><ele>805.5</ele><time>2026-04-18T09:49:52Z</time></trkpt><trkpt lat="42.55807440202842" lon="-8.257895386148235"><ele>802.75</ele><time>2026-04-18T09:49:53Z</time></trkpt><trkpt lat="42.55794307277886" lon="-8.25790936494514"><ele>800.0</ele><time>2026-04-18T09:49:54Z</time></trkpt><trkpt lat="42.55782265767115" lon="-8.257918258014307"><ele>796.25</ele><time>2026-04-18T09:49:55Z</time></trkpt><trkpt lat="42.55769794947972" lon="-8.257930139755262"><ele>792.5</ele><time>2026-04-18T09:49:56Z</time></trkpt><trkpt lat="42.55755129102823" lon="-8.257937442968794"><ele>788.75</ele><time>2026-04-18T09:49:57Z</time></trkpt><trkpt lat="42.5573842518433" lon="-8.257943545911123"><ele>785.0</ele><time>2026-04-18T09:49:57.999Z</time></trkpt><trkpt lat="42.55723188533273" lon="-8.257954679542149"><ele>785.0</ele><time>2026-04-18T09:49:58.999Z</time></trkpt><trkpt lat="42.5570851915055" lon="-8.257970800300644"><ele>785.0</ele><time>2026-04-18T09:49:59.999Z</time></trkpt><trkpt lat="42.556947017080944" lon="-8.257988416324832"><ele>785.0</ele><time>2026-04-18T09:50:00.999Z</time></trkpt><trkpt lat="42.556830151431264" lon="-8.257997342629837"><ele>785.0</ele><time>2026-04-18T09:50:01.999Z</time></trkpt><trkpt lat="42.55669559933854" lon="-8.25800851205157"><ele>781.0</ele><time>2026-04-18T09:50:02.999Z</time></trkpt><trkpt lat="42.55652079108488" lon="-8.258043519168686"><ele>777.0</ele><time>2026-04-18T09:50:03.999Z</time></trkpt><trkpt lat="42.5563445969677" lon="-8.258082297300126"><ele>773.0</ele><time>2026-04-18T09:50:04.999Z</time></trkpt><trkpt lat="42.55620086722734" lon="-8.258109307907047"><ele>772.5</ele><time>2026-04-18T09:50:05.999Z</time></trkpt><trkpt lat="42.55606153921863" lon="-8.25814718795107"><ele>772.0</ele><time>2026-04-18T09:50:06.999Z</time></trkpt><trkpt lat="42.55591014060955" lon="-8.258191003171106"><ele>771.5</ele><time>2026-04-18T09:50:07.999Z</time></trkpt><trkpt lat="42.55577527992991" lon="-8.258216749200084"><ele>771.0</ele><time>2026-04-18T09:50:08.999Z</time></trkpt><trkpt lat="42.55566631128277" lon="-8.25824286153801"><ele>771.0</ele><time>2026-04-18T09:50:09.999Z</time></trkpt><trkpt lat="42.55555558156904" lon="-8.258287452619747"><ele>771.0</ele><time>2026-04-18T09:50:10.999Z</time></trkpt><trkpt lat="42.55543991015489" lon="-8.258344719530415"><ele>771.0</ele><time>2026-04-18T09:50:11.999Z</time></trkpt><trkpt lat="42.55533690459234" lon="-8.258419065137769"><ele>771.0</ele><time>2026-04-18T09:50:12.999Z</time></trkpt><trkpt lat="42.55523412162336" lon="-8.25850975045358"><ele>767.25</ele><time>2026-04-18T09:50:13.999Z</time></trkpt><trkpt lat="42.55513756815975" lon="-8.258625740668197"><ele>763.5</ele><time>2026-04-18T09:50:14.999Z</time></trkpt><trkpt lat="42.55502586677398" lon="-8.258760552483563"><ele>759.75</ele><time>2026-04-18T09:50:15.999Z</time></trkpt><trkpt lat="42.554921556292825" lon="-8.258889910757656"><ele>756.0</ele><time>2026-04-18T09:50:16.999Z</time></trkpt><trkpt lat="42.55482420761153" lon="-8.258988730686896"><ele>754.5999999999999</ele><time>2026-04-18T09:50:17.999Z</time></trkpt><trkpt lat="42.5547340750667" lon="-8.259080252816533"><ele>753.2</ele><time>2026-04-18T09:50:18.999Z</time></trkpt><trkpt lat="42.554640621159706" lon="-8.259182232760992"><ele>751.8</ele><time>2026-04-18T09:50:19.999Z</time></trkpt><trkpt lat="42.55455206546217" lon="-8.25927153576428"><ele>750.4000000000001</ele><time>2026-04-18T09:50:20.999Z</time></trkpt><trkpt lat="42.554473807666426" lon="-8.259348920483795"><ele>749.0</ele><time>2026-04-18T09:50:21.999Z</time></trkpt><trkpt lat="42.554379987140294" lon="-8.25942349290874"><ele>744.6666666666666</ele><time>2026-04-18T09:50:22.999Z</time></trkpt><trkpt lat="42.55426021969348" lon="-8.259531207425237"><ele>740.3333333333334</ele><time>2026-04-18T09:50:23.999Z</time></trkpt><trkpt lat="42.554126794721846" lon="-8.259680711202307"><ele>736.0</ele><time>2026-04-18T09:50:24.999Z</time></trkpt><trkpt lat="42.55400680764085" lon="-8.259827202366278"><ele>732.5</ele><time>2026-04-18T09:50:25.999Z</time></trkpt><trkpt lat="42.55390285476804" lon="-8.25993829802703"><ele>729.0</ele><time>2026-04-18T09:50:26.999Z</time></trkpt><trkpt lat="42.5538209070848" lon="-8.260061945460002"><ele>725.5</ele><time>2026-04-18T09:50:27.999Z</time></trkpt><trkpt lat="42.55375799813149" lon="-8.260193698354163"><ele>722.0</ele><time>2026-04-18T09:50:28.999Z</time></trkpt><trkpt lat="42.553700155927274" lon="-8.260323715525075"><ele>720.0</ele><time>2026-04-18T09:50:29.999Z</time></trkpt><trkpt lat="42.55363401569557" lon="-8.260462293394275"><ele>718.0</ele><time>2026-04-18T09:50:30.999Z</time></trkpt><trkpt lat="42.553569758419776" lon="-8.260597339508175"><ele>716.0</ele><time>2026-04-18T09:50:31.999Z</time></trkpt><trkpt lat="42.55350689048356" lon="-8.260730850593182"><ele>714.0</ele><time>2026-04-18T09:50:32.999Z</time></trkpt><trkpt lat="42.553441180976925" lon="-8.260863617218703"><ele>712.3333333333334</ele><time>2026-04-18T09:50:33.999Z</time></trkpt><trkpt lat="42.55337634008227" lon="-8.260978630910468"><ele>710.6666666666666</ele><time>2026-04-18T09:50:34.999Z</time></trkpt><trkpt lat="42.553328604756594" lon="-8.261083087399243"><ele>709.0</ele><time>2026-04-18T09:50:35.999Z</time></trkpt><trkpt lat="42.553300659858856" lon="-8.261167652915463"><ele>707.3333333333333</ele><time>2026-04-18T09:50:36.999Z</time></trkpt><trkpt lat="42.553309035519504" lon="-8.261268371414921"><ele>705.6666666666666</ele><time>2026-04-18T09:50:38.999Z</time></trkpt><trkpt lat="42.55337210264488" lon="-8.261372451218701"><ele>704.0</ele><time>2026-04-18T09:50:40.999Z</time></trkpt><trkpt lat="42.55339868415469" lon="-8.261451714199625"><ele>701.3333333333333</ele><time>2026-04-18T09:50:41.999Z</time></trkpt><trkpt lat="42.55341657003943" lon="-8.26160046806214"><ele>698.6666666666666</ele><time>2026-04-18T09:50:43.999Z</time></trkpt><trkpt lat="42.55343009060169" lon="-8.261751615054237"><ele>696.0</ele><time>2026-04-18T09:50:45.999Z</time></trkpt><trkpt lat="42.55360941477186" lon="-8.261983969735958"><ele>696.0</ele><time>2026-04-18T09:50:53.999Z</time></trkpt><trkpt lat="42.55365916479057" lon="-8.262076074484304"><ele>696.0</ele><time>2026-04-18T09:50:54.999Z</time></trkpt><trkpt lat="42.55366027556434" lon="-8.262227617864145"><ele>696.0</ele><time>2026-04-18T09:50:56.999Z</time></trkpt><trkpt lat="42.553604001546226" lon="-8.262290026646168"><ele>696.0</ele><time>2026-04-18T09:50:57.999Z</time></trkpt><trkpt lat="42.55352238672456" lon="-8.262331277387748"><ele>696.0</ele><time>2026-04-18T09:50:58.999Z</time></trkpt><trkpt lat="42.5534003359942" lon="-8.26234860967998"><ele>697.3333333333334</ele><time>2026-04-18T09:50:59.999Z</time></trkpt><trkpt lat="42.55325617679704" lon="-8.262385543115021"><ele>698.6666666666667</ele><time>2026-04-18T09:51:00.999Z</time></trkpt><trkpt lat="42.55310369207837" lon="-8.262442982536335"><ele>700.0</ele><time>2026-04-18T09:51:01.999Z</time></trkpt><trkpt lat="42.55295459860262" lon="-8.262525656082286"><ele>700.0</ele><time>2026-04-18T09:51:02.999Z</time></trkpt><trkpt lat="42.55281171409405" lon="-8.262656739498391"><ele>700.0</ele><time>2026-04-18T09:51:03.999Z</time></trkpt><trkpt lat="42.552638596728166" lon="-8.262803818412387"><ele>700.0</ele><time>2026-04-18T09:51:04.999Z</time></trkpt><trkpt lat="42.55243169358556" lon="-8.262914121493033"><ele>700.0</ele><time>2026-04-18T09:51:06Z</time></trkpt><trkpt lat="42.55222357580317" lon="-8.262999091781126"><ele>700.0</ele><time>2026-04-18T09:51:07Z</time></trkpt><trkpt lat="42.55205332969444" lon="-8.26305223501359"><ele>700.0</ele><time>2026-04-18T09:51:08Z</time></trkpt><trkpt lat="42.55190066397448" lon="-8.263129018122791"><ele>702.3333333333334</ele><time>2026-04-18T09:51:09Z</time></trkpt><trkpt lat="42.55172980821294" lon="-8.263262195565316"><ele>704.6666666666666</ele><time>2026-04-18T09:51:10Z</time></trkpt><trkpt lat="42.551571741837826" lon="-8.263400696044231"><ele>707.0</ele><time>2026-04-18T09:51:11Z</time></trkpt><trkpt lat="42.55143397838009" lon="-8.263549289707331"><ele>707.0</ele><time>2026-04-18T09:51:12Z</time></trkpt><trkpt lat="42.551287823659514" lon="-8.263667392966546"><ele>707.0</ele><time>2026-04-18T09:51:13Z</time></trkpt><trkpt lat="42.551087651054964" lon="-8.263730382519155"><ele>707.0</ele><time>2026-04-18T09:51:14Z</time></trkpt><trkpt lat="42.550888802282174" lon="-8.263799909577802"><ele>708.25</ele><time>2026-04-18T09:51:15Z</time></trkpt><trkpt lat="42.550723127041714" lon="-8.26386043867115"><ele>709.5</ele><time>2026-04-18T09:51:16Z</time></trkpt><trkpt lat="42.55060951945212" lon="-8.263867317786437"><ele>710.75</ele><time>2026-04-18T09:51:17Z</time></trkpt><trkpt lat="42.5504881829342" lon="-8.263834417556614"><ele>712.0</ele><time>2026-04-18T09:51:18Z</time></trkpt><trkpt lat="42.55038928420224" lon="-8.263817400983683"><ele>714.5</ele><time>2026-04-18T09:51:19Z</time></trkpt><trkpt lat="42.5502824329025" lon="-8.263848932476362"><ele>717.0</ele><time>2026-04-18T09:51:20Z</time></trkpt><trkpt lat="42.55016778971188" lon="-8.263950913149271"><ele>719.5</ele><time>2026-04-18T09:51:21Z</time></trkpt><trkpt lat="42.550023731960366" lon="-8.264092316888606"><ele>722.0</ele><time>2026-04-18T09:51:22Z</time></trkpt><trkpt lat="42.54985906353682" lon="-8.264236790204796"><ele>722.3333333333333</ele><time>2026-04-18T09:51:23Z</time></trkpt><trkpt lat="42.54968259214249" lon="-8.264374612174597"><ele>722.6666666666666</ele><time>2026-04-18T09:51:24Z</time></trkpt><trkpt lat="42.549496099035764" lon="-8.264503990788075"><ele>723.0</ele><time>2026-04-18T09:51:25Z</time></trkpt><trkpt lat="42.54930974801042" lon="-8.264633366163817"><ele>723.0</ele><time>2026-04-18T09:51:26Z</time></trkpt><trkpt lat="42.549157580088426" lon="-8.264746051638225"><ele>723.0</ele><time>2026-04-18T09:51:27Z</time></trkpt><trkpt lat="42.54902685502281" lon="-8.264838276728693"><ele>723.0</ele><time>2026-04-18T09:51:28Z</time></trkpt><trkpt lat="42.548918458958106" lon="-8.264916312116238"><ele>723.0</ele><time>2026-04-18T09:51:29Z</time></trkpt><trkpt lat="42.548859554090164" lon="-8.264974482626725"><ele>725.0</ele><time>2026-04-18T09:51:30Z</time></trkpt><trkpt lat="42.54882615059538" lon="-8.265135482319204"><ele>727.0</ele><time>2026-04-18T09:51:32Z</time></trkpt><trkpt lat="42.54881915050681" lon="-8.265248034379923"><ele>729.0</ele><time>2026-04-18T09:51:33Z</time></trkpt><trkpt lat="42.54882438056225" lon="-8.26539356704234"><ele>731.0</ele><time>2026-04-18T09:51:34Z</time></trkpt><trkpt lat="42.54883122530644" lon="-8.26553198219928"><ele>733.0</ele><time>2026-04-18T09:51:35Z</time></trkpt><trkpt lat="42.54881838049523" lon="-8.265709880303723"><ele>736.25</ele><time>2026-04-18T09:51:36Z</time></trkpt><trkpt lat="42.54881852846998" lon="-8.2658959648489"><ele>739.5</ele><time>2026-04-18T09:51:37Z</time></trkpt><trkpt lat="42.54883771281746" lon="-8.266063839571967"><ele>742.75</ele><time>2026-04-18T09:51:38Z</time></trkpt><trkpt lat="42.54888039189554" lon="-8.266258228200654"><ele>746.0</ele><time>2026-04-18T09:51:39Z</time></trkpt><trkpt lat="42.548911426920355" lon="-8.266504559304975"><ele>748.3333333333333</ele><time>2026-04-18T09:51:40Z</time></trkpt><trkpt lat="42.54893703080662" lon="-8.266737476649999"><ele>750.6666666666666</ele><time>2026-04-18T09:51:41Z</time></trkpt><trkpt lat="42.548945443399084" lon="-8.266978928666333"><ele>753.0</ele><time>2026-04-18T09:51:42Z</time></trkpt><trkpt lat="42.54893590467113" lon="-8.26719956030345"><ele>754.8</ele><time>2026-04-18T09:51:43Z</time></trkpt><trkpt lat="42.54904043921975" lon="-8.267315438802202"><ele>756.5999999999999</ele><time>2026-04-18T09:51:44Z</time></trkpt><trkpt lat="42.54905295839332" lon="-8.267442422805392"><ele>758.4000000000001</ele><time>2026-04-18T09:51:45Z</time></trkpt><trkpt lat="42.54902705213886" lon="-8.267534947491361"><ele>760.2</ele><time>2026-04-18T09:51:47Z</time></trkpt><trkpt lat="42.54893720437488" lon="-8.267523147779466"><ele>762.0</ele><time>2026-04-18T09:51:48Z</time></trkpt><trkpt lat="42.54882277335481" lon="-8.267495275877303"><ele>761.6</ele><time>2026-04-18T09:51:49Z</time></trkpt><trkpt lat="42.5487087157632" lon="-8.267576887931908"><ele>761.2</ele><time>2026-04-18T09:51:50Z</time></trkpt><trkpt lat="42.548606844337144" lon="-8.267664925639275"><ele>760.8</ele><time>2026-04-18T09:51:51Z</time></trkpt><trkpt lat="42.54850740031356" lon="-8.267735341941734"><ele>760.4</ele><time>2026-04-18T09:51:52Z</time></trkpt><trkpt lat="42.54844673332394" lon="-8.267790579686167"><ele>760.0</ele><time>2026-04-18T09:51:53Z</time></trkpt><trkpt lat="42.54836053005512" lon="-8.267700456421942"><ele>760.0</ele><time>2026-04-18T09:51:54Z</time></trkpt><trkpt lat="42.54827398578815" lon="-8.267665887093965"><ele>760.0</ele><time>2026-04-18T09:51:55Z</time></trkpt><trkpt lat="42.54816406455814" lon="-8.26771326551615"><ele>760.0</ele><time>2026-04-18T09:51:56Z</time></trkpt><trkpt lat="42.54806890086875" lon="-8.267767477783933"><ele>760.0</ele><time>2026-04-18T09:51:57Z</time></trkpt><trkpt lat="42.54798280936549" lon="-8.267745282976547"><ele>760.0</ele><time>2026-04-18T09:51:58Z</time></trkpt><trkpt lat="42.54791097004474" lon="-8.267595062092589"><ele>760.0</ele><time>2026-04-18T09:52:00Z</time></trkpt><trkpt lat="42.54791534716174" lon="-8.267423112696264"><ele>760.0</ele><time>2026-04-18T09:52:01Z</time></trkpt><trkpt lat="42.54786609264951" lon="-8.267169629489738"><ele>760.0</ele><time>2026-04-18T09:52:02Z</time></trkpt><trkpt lat="42.547781253126445" lon="-8.266967348900648"><ele>760.75</ele><time>2026-04-18T09:52:03Z</time></trkpt><trkpt lat="42.54768306346519" lon="-8.266856589775196"><ele>761.5</ele><time>2026-04-18T09:52:04Z</time></trkpt><trkpt lat="42.547568443577596" lon="-8.266783636972272"><ele>762.25</ele><time>2026-04-18T09:52:05Z</time></trkpt><trkpt lat="42.5474556412957" lon="-8.266719643270529"><ele>763.0</ele><time>2026-04-18T09:52:06Z</time></trkpt><trkpt lat="42.547317859734385" lon="-8.266666963310888"><ele>763.0</ele><time>2026-04-18T09:52:07Z</time></trkpt><trkpt lat="42.54716170726668" lon="-8.266664386384504"><ele>763.0</ele><time>2026-04-18T09:52:08Z</time></trkpt><trkpt lat="42.54697454193437" lon="-8.26670189677614"><ele>763.0</ele><time>2026-04-18T09:52:09Z</time></trkpt><trkpt lat="42.546762000350085" lon="-8.266702133052474"><ele>764.3333333333334</ele><time>2026-04-18T09:52:09.999Z</time></trkpt><trkpt lat="42.54656892968568" lon="-8.266689680186948"><ele>765.6666666666666</ele><time>2026-04-18T09:52:10.999Z</time></trkpt><trkpt lat="42.5464279318669" lon="-8.26665772579938"><ele>767.0</ele><time>2026-04-18T09:52:11.999Z</time></trkpt><trkpt lat="42.54630991732174" lon="-8.266639788179507"><ele>767.0</ele><time>2026-04-18T09:52:12.999Z</time></trkpt><trkpt lat="42.546216150976875" lon="-8.266735233978029"><ele>767.0</ele><time>2026-04-18T09:52:14.999Z</time></trkpt><trkpt lat="42.54617761756122" lon="-8.266862364281282"><ele>767.0</ele><time>2026-04-18T09:52:16.999Z</time></trkpt><trkpt lat="42.54623329642912" lon="-8.267019085525348"><ele>767.0</ele><time>2026-04-18T09:52:17.999Z</time></trkpt><trkpt lat="42.54628495534524" lon="-8.267165380308425"><ele>770.0</ele><time>2026-04-18T09:52:18.999Z</time></trkpt><trkpt lat="42.5463434976126" lon="-8.267360725999685"><ele>773.0</ele><time>2026-04-18T09:52:19.999Z</time></trkpt><trkpt lat="42.54641234504861" lon="-8.267558466406035"><ele>776.0</ele><time>2026-04-18T09:52:20.999Z</time></trkpt><trkpt lat="42.546480341434204" lon="-8.267789042868818"><ele>776.0</ele><time>2026-04-18T09:52:21.999Z</time></trkpt><trkpt lat="42.5465409018258" lon="-8.268032883461256"><ele>776.0</ele><time>2026-04-18T09:52:22.999Z</time></trkpt><trkpt lat="42.54659448515771" lon="-8.268248874911919"><ele>776.0</ele><time>2026-04-18T09:52:23.999Z</time></trkpt><trkpt lat="42.54661491310151" lon="-8.268393302851974"><ele>778.5</ele><time>2026-04-18T09:52:24.999Z</time></trkpt><trkpt lat="42.54665685984716" lon="-8.26856366781023"><ele>781.0</ele><time>2026-04-18T09:52:25.999Z</time></trkpt><trkpt lat="42.546693001837546" lon="-8.268768968773522"><ele>783.5</ele><time>2026-04-18T09:52:26.999Z</time></trkpt><trkpt lat="42.54672021808316" lon="-8.268942889900751"><ele>786.0</ele><time>2026-04-18T09:52:27.999Z</time></trkpt><trkpt lat="42.546727010945844" lon="-8.269039445496897"><ele>787.8</ele><time>2026-04-18T09:52:28.999Z</time></trkpt><trkpt lat="42.54673515480234" lon="-8.269155831861179"><ele>789.5999999999999</ele><time>2026-04-18T09:52:31.999Z</time></trkpt><trkpt lat="42.546734801862826" lon="-8.269269996051298"><ele>791.4</ele><time>2026-04-18T09:52:32.999Z</time></trkpt><trkpt lat="42.54676229312094" lon="-8.2694141258002"><ele>793.2</ele><time>2026-04-18T09:52:33.999Z</time></trkpt><trkpt lat="42.54679513315165" lon="-8.269581993029774"><ele>795.0</ele><time>2026-04-18T09:52:34.999Z</time></trkpt><trkpt lat="42.54684065627835" lon="-8.269787601536983"><ele>797.6666666666667</ele><time>2026-04-18T09:52:35.999Z</time></trkpt><trkpt lat="42.546887438914396" lon="-8.269996566329484"><ele>800.3333333333334</ele><time>2026-04-18T09:52:36.999Z</time></trkpt><trkpt lat="42.54693834994333" lon="-8.270205208328685"><ele>803.0</ele><time>2026-04-18T09:52:37.999Z</time></trkpt><trkpt lat="42.546966071570225" lon="-8.270385110606084"><ele>803.0</ele><time>2026-04-18T09:52:38.999Z</time></trkpt><trkpt lat="42.54698553516526" lon="-8.270549495532387"><ele>803.0</ele><time>2026-04-18T09:52:39.999Z</time></trkpt><trkpt lat="42.54699666997471" lon="-8.270744835848975"><ele>803.0</ele><time>2026-04-18T09:52:40.999Z</time></trkpt><trkpt lat="42.54700187448687" lon="-8.270976939075151"><ele>803.0</ele><time>2026-04-18T09:52:41.999Z</time></trkpt><trkpt lat="42.54700844702466" lon="-8.271140816224037"><ele>804.25</ele><time>2026-04-18T09:52:42.999Z</time></trkpt><trkpt lat="42.5470216605385" lon="-8.271301905000714"><ele>805.5</ele><time>2026-04-18T09:52:43.999Z</time></trkpt><trkpt lat="42.54704361965841" lon="-8.271480346224743"><ele>806.75</ele><time>2026-04-18T09:52:44.999Z</time></trkpt><trkpt lat="42.54707014431539" lon="-8.27168464918784"><ele>808.0</ele><time>2026-04-18T09:52:45.999Z</time></trkpt><trkpt lat="42.547136887886296" lon="-8.271881784481955"><ele>810.0</ele><time>2026-04-18T09:52:46.999Z</time></trkpt><trkpt lat="42.54723638348391" lon="-8.272053004181815"><ele>812.0</ele><time>2026-04-18T09:52:47.999Z</time></trkpt><trkpt lat="42.547357544411696" lon="-8.272235113157771"><ele>814.0</ele><time>2026-04-18T09:52:48.999Z</time></trkpt><trkpt lat="42.54748486638054" lon="-8.272436340017371"><ele>816.0</ele><time>2026-04-18T09:52:49.999Z</time></trkpt><trkpt lat="42.54761889313028" lon="-8.27262735558584"><ele>818.0</ele><time>2026-04-18T09:52:50.999Z</time></trkpt><trkpt lat="42.547761344555894" lon="-8.27278271606084"><ele>820.0</ele><time>2026-04-18T09:52:51.999Z</time></trkpt><trkpt lat="42.547929112816796" lon="-8.272912866314773"><ele>820.25</ele><time>2026-04-18T09:52:52.999Z</time></trkpt><trkpt lat="42.54804513384113" lon="-8.273092437127586"><ele>820.5</ele><time>2026-04-18T09:52:53.999Z</time></trkpt><trkpt lat="42.54812217054387" lon="-8.273250777431665"><ele>820.75</ele><time>2026-04-18T09:52:54.999Z</time></trkpt><trkpt lat="42.54818463582551" lon="-8.273374152593117"><ele>821.0</ele><time>2026-04-18T09:52:55.999Z</time></trkpt><trkpt lat="42.54824385401845" lon="-8.273510453025589"><ele>821.0</ele><time>2026-04-18T09:52:56.999Z</time></trkpt><trkpt lat="42.54828781474601" lon="-8.273610742901027"><ele>821.0</ele><time>2026-04-18T09:52:57.999Z</time></trkpt><trkpt lat="42.54828976802467" lon="-8.273760654068198"><ele>821.0</ele><time>2026-04-18T09:52:59.999Z</time></trkpt><trkpt lat="42.5482446898196" lon="-8.27385982774094"><ele>821.0</ele><time>2026-04-18T09:53:00.999Z</time></trkpt><trkpt lat="42.54817737651098" lon="-8.273981623880621"><ele>821.0</ele><time>2026-04-18T09:53:01.999Z</time></trkpt><trkpt lat="42.54808465896491" lon="-8.274091151791097"><ele>819.25</ele><time>2026-04-18T09:53:02.999Z</time></trkpt><trkpt lat="42.54796901127317" lon="-8.274171164003002"><ele>817.5</ele><time>2026-04-18T09:53:03.999Z</time></trkpt><trkpt lat="42.54784712154554" lon="-8.27421773419754"><ele>815.75</ele><time>2026-04-18T09:53:04.999Z</time></trkpt><trkpt lat="42.547687821981405" lon="-8.274235917913558"><ele>814.0</ele><time>2026-04-18T09:53:05.999Z</time></trkpt><trkpt lat="42.547517740585846" lon="-8.274259491098853"><ele>817.5</ele><time>2026-04-18T09:53:06.999Z</time></trkpt><trkpt lat="42.54737394126552" lon="-8.274316956666997"><ele>821.0</ele><time>2026-04-18T09:53:07.999Z</time></trkpt><trkpt lat="42.547274354761704" lon="-8.27442657672917"><ele>824.5</ele><time>2026-04-18T09:53:08.999Z</time></trkpt><trkpt lat="42.547182358028" lon="-8.274566455801162"><ele>828.0</ele><time>2026-04-18T09:53:09.999Z</time></trkpt><trkpt lat="42.547112675604566" lon="-8.27473525710447"><ele>824.75</ele><time>2026-04-18T09:53:10.999Z</time></trkpt><trkpt lat="42.54709596927309" lon="-8.274908680482502"><ele>821.5</ele><time>2026-04-18T09:53:12Z</time></trkpt><trkpt lat="42.547119890288734" lon="-8.275090007529784"><ele>818.25</ele><time>2026-04-18T09:53:13Z</time></trkpt><trkpt lat="42.547137236246" lon="-8.27528313072619"><ele>815.0</ele><time>2026-04-18T09:53:14Z</time></trkpt><trkpt lat="42.547155583490586" lon="-8.275453394800246"><ele>815.0</ele><time>2026-04-18T09:53:15Z</time></trkpt><trkpt lat="42.54712903857049" lon="-8.275576769730918"><ele>815.0</ele><time>2026-04-18T09:53:16Z</time></trkpt><trkpt lat="42.547062766176936" lon="-8.275717428504874"><ele>815.0</ele><time>2026-04-18T09:53:17Z</time></trkpt><trkpt lat="42.546967458018955" lon="-8.275894347842199"><ele>815.0</ele><time>2026-04-18T09:53:18Z</time></trkpt><trkpt lat="42.546877402139145" lon="-8.276038831712006"><ele>820.0</ele><time>2026-04-18T09:53:19Z</time></trkpt><trkpt lat="42.54676321448621" lon="-8.276136770871027"><ele>825.0</ele><time>2026-04-18T09:53:20Z</time></trkpt><trkpt lat="42.546591211509956" lon="-8.276256224163575"><ele>830.0</ele><time>2026-04-18T09:53:21Z</time></trkpt><trkpt lat="42.546421472878414" lon="-8.276375527944614"><ele>828.0</ele><time>2026-04-18T09:53:22Z</time></trkpt><trkpt lat="42.54627252288281" lon="-8.276488739583202"><ele>826.0</ele><time>2026-04-18T09:53:23Z</time></trkpt><trkpt lat="42.54611966727269" lon="-8.276591173264572"><ele>824.0</ele><time>2026-04-18T09:53:24Z</time></trkpt><trkpt lat="42.54594516405175" lon="-8.276691630542619"><ele>824.0</ele><time>2026-04-18T09:53:25Z</time></trkpt><trkpt lat="42.545754488053845" lon="-8.276790908202798"><ele>824.0</ele><time>2026-04-18T09:53:26Z</time></trkpt><trkpt lat="42.54557083987966" lon="-8.27686904718888"><ele>824.0</ele><time>2026-04-18T09:53:27Z</time></trkpt><trkpt lat="42.54540111982132" lon="-8.276931153532997"><ele>825.6666666666667</ele><time>2026-04-18T09:53:28Z</time></trkpt><trkpt lat="42.54520305502362" lon="-8.276969497399241"><ele>827.3333333333333</ele><time>2026-04-18T09:53:29Z</time></trkpt><trkpt lat="42.54498636437051" lon="-8.276995510395686"><ele>829.0</ele><time>2026-04-18T09:53:30Z</time></trkpt><trkpt lat="42.54477859598534" lon="-8.277020756163552"><ele>829.0</ele><time>2026-04-18T09:53:31Z</time></trkpt><trkpt lat="42.544591028847854" lon="-8.277051725382112"><ele>829.0</ele><time>2026-04-18T09:53:32Z</time></trkpt><trkpt lat="42.54439163090324" lon="-8.27709286637992"><ele>829.0</ele><time>2026-04-18T09:53:33Z</time></trkpt><trkpt lat="42.54418747934536" lon="-8.277150213268978"><ele>832.0</ele><time>2026-04-18T09:53:34Z</time></trkpt><trkpt lat="42.54397308989357" lon="-8.27723696101034"><ele>835.0</ele><time>2026-04-18T09:53:35Z</time></trkpt><trkpt lat="42.54374508992014" lon="-8.277332861645084"><ele>829.5</ele><time>2026-04-18T09:53:36Z</time></trkpt><trkpt lat="42.54351675918897" lon="-8.277425329776845"><ele>824.0</ele><time>2026-04-18T09:53:37Z</time></trkpt><trkpt lat="42.54329322190675" lon="-8.277536695073072"><ele>824.0</ele><time>2026-04-18T09:53:38Z</time></trkpt><trkpt lat="42.54305296958507" lon="-8.277673544796263"><ele>824.0</ele><time>2026-04-18T09:53:39Z</time></trkpt><trkpt lat="42.54280700084546" lon="-8.277820521845785"><ele>830.0</ele><time>2026-04-18T09:53:40Z</time></trkpt><trkpt lat="42.542553164153155" lon="-8.277959837619857"><ele>836.0</ele><time>2026-04-18T09:53:41Z</time></trkpt><trkpt lat="42.54233039611104" lon="-8.278078279219756"><ele>830.6666666666667</ele><time>2026-04-18T09:53:42Z</time></trkpt><trkpt lat="42.54212336494793" lon="-8.278178899216567"><ele>825.3333333333333</ele><time>2026-04-18T09:53:43Z</time></trkpt><trkpt lat="42.541907746630876" lon="-8.278283590017613"><ele>820.0</ele><time>2026-04-18T09:53:44Z</time></trkpt><trkpt lat="42.54171426097776" lon="-8.278364071608957"><ele>820.0</ele><time>2026-04-18T09:53:45Z</time></trkpt><trkpt lat="42.54152135523167" lon="-8.278433228478109"><ele>820.0</ele><time>2026-04-18T09:53:46Z</time></trkpt><trkpt lat="42.541315528053225" lon="-8.27849612505148"><ele>820.0</ele><time>2026-04-18T09:53:47Z</time></trkpt><trkpt lat="42.541094105434986" lon="-8.278568869810767"><ele>822.0</ele><time>2026-04-18T09:53:48Z</time></trkpt><trkpt lat="42.54086897411248" lon="-8.278645090494326"><ele>824.0</ele><time>2026-04-18T09:53:49Z</time></trkpt><trkpt lat="42.54066231098958" lon="-8.278718480677318"><ele>826.0</ele><time>2026-04-18T09:53:50Z</time></trkpt><trkpt lat="42.54049285258592" lon="-8.278781824166014"><ele>825.3333333333333</ele><time>2026-04-18T09:53:51Z</time></trkpt><trkpt lat="42.54034536763141" lon="-8.278825113629152"><ele>824.6666666666667</ele><time>2026-04-18T09:53:52Z</time></trkpt><trkpt lat="42.54016285225537" lon="-8.278871246456907"><ele>824.0</ele><time>2026-04-18T09:53:53Z</time></trkpt><trkpt lat="42.53995689224324" lon="-8.278870359187364"><ele>824.0</ele><time>2026-04-18T09:53:54Z</time></trkpt><trkpt lat="42.539733518788594" lon="-8.278852787775145"><ele>824.0</ele><time>2026-04-18T09:53:55Z</time></trkpt><trkpt lat="42.539539830448625" lon="-8.278847574232818"><ele>824.0</ele><time>2026-04-18T09:53:56Z</time></trkpt><trkpt lat="42.53936449614388" lon="-8.27883845127879"><ele>822.0</ele><time>2026-04-18T09:53:57Z</time></trkpt><trkpt lat="42.53919466675413" lon="-8.278860215786539"><ele>820.0</ele><time>2026-04-18T09:53:58Z</time></trkpt><trkpt lat="42.538994549037554" lon="-8.278952015492473"><ele>818.0</ele><time>2026-04-18T09:53:59Z</time></trkpt><trkpt lat="42.53877962410937" lon="-8.279068389383655"><ele>810.0</ele><time>2026-04-18T09:54:00Z</time></trkpt><trkpt lat="42.538558406598966" lon="-8.279167097538068"><ele>802.0</ele><time>2026-04-18T09:54:01Z</time></trkpt><trkpt lat="42.53833503050701" lon="-8.279268852130667"><ele>802.0</ele><time>2026-04-18T09:54:02Z</time></trkpt><trkpt lat="42.53814057823313" lon="-8.279351900862272"><ele>802.0</ele><time>2026-04-18T09:54:03Z</time></trkpt><trkpt lat="42.53796153432381" lon="-8.279427471600448"><ele>802.0</ele><time>2026-04-18T09:54:04Z</time></trkpt><trkpt lat="42.53777577655838" lon="-8.279496460354348"><ele>803.3333333333333</ele><time>2026-04-18T09:54:05Z</time></trkpt><trkpt lat="42.53757877782888" lon="-8.279557108459892"><ele>804.6666666666667</ele><time>2026-04-18T09:54:06Z</time></trkpt><trkpt lat="42.53740455787201" lon="-8.279633400080767"><ele>806.0</ele><time>2026-04-18T09:54:07Z</time></trkpt><trkpt lat="42.53723510849973" lon="-8.279705788512834"><ele>803.0</ele><time>2026-04-18T09:54:08Z</time></trkpt><trkpt lat="42.53706048381898" lon="-8.27980433752248"><ele>800.0</ele><time>2026-04-18T09:54:09Z</time></trkpt><trkpt lat="42.53689027576739" lon="-8.27990618492046"><ele>797.0</ele><time>2026-04-18T09:54:10Z</time></trkpt><trkpt lat="42.53675058265258" lon="-8.280000887616753"><ele>797.0000000000001</ele><time>2026-04-18T09:54:11Z</time></trkpt><trkpt lat="42.53665943745988" lon="-8.280066238495293"><ele>797.0</ele><time>2026-04-18T09:54:12Z</time></trkpt><trkpt lat="42.536601976959126" lon="-8.280126993350379"><ele>797.0</ele><time>2026-04-18T09:54:13Z</time></trkpt><trkpt lat="42.536594957660206" lon="-8.280223914758038"><ele>797.0</ele><time>2026-04-18T09:54:15Z</time></trkpt><trkpt lat="42.53664011406326" lon="-8.280290109285026"><ele>797.0000000000001</ele><time>2026-04-18T09:54:16Z</time></trkpt><trkpt lat="42.53672617725631" lon="-8.280365800885477"><ele>797.0</ele><time>2026-04-18T09:54:17Z</time></trkpt><trkpt lat="42.53681334251918" lon="-8.280444456076488"><ele>797.0</ele><time>2026-04-18T09:54:18Z</time></trkpt><trkpt lat="42.53692232279392" lon="-8.280511551288942"><ele>797.0</ele><time>2026-04-18T09:54:19Z</time></trkpt><trkpt lat="42.53703245514822" lon="-8.280561011767702"><ele>797.0</ele><time>2026-04-18T09:54:20Z</time></trkpt><trkpt lat="42.53721025223274" lon="-8.280604997020845"><ele>797.0</ele><time>2026-04-18T09:54:21Z</time></trkpt><trkpt lat="42.537363366930315" lon="-8.280663687347543"><ele>792.3333333333334</ele><time>2026-04-18T09:54:22Z</time></trkpt><trkpt lat="42.537530644633684" lon="-8.280742277298835"><ele>787.6666666666667</ele><time>2026-04-18T09:54:23Z</time></trkpt><trkpt lat="42.537719218401016" lon="-8.28079858428311"><ele>783.0</ele><time>2026-04-18T09:54:23.999Z</time></trkpt><trkpt lat="42.53790050210626" lon="-8.28083154298499"><ele>779.0</ele><time>2026-04-18T09:54:24.999Z</time></trkpt><trkpt lat="42.53805676664962" lon="-8.280881122257608"><ele>775.0</ele><time>2026-04-18T09:54:25.999Z</time></trkpt><trkpt lat="42.538231688818115" lon="-8.28093879791137"><ele>771.0</ele><time>2026-04-18T09:54:26.999Z</time></trkpt><trkpt lat="42.53841257293677" lon="-8.28098567742455"><ele>771.0</ele><time>2026-04-18T09:54:27.999Z</time></trkpt><trkpt lat="42.538599582069445" lon="-8.28101384278238"><ele>771.0</ele><time>2026-04-18T09:54:28.999Z</time></trkpt><trkpt lat="42.53877083529554" lon="-8.281029978680417"><ele>771.0</ele><time>2026-04-18T09:54:29.999Z</time></trkpt><trkpt lat="42.538928347930955" lon="-8.281042630743658"><ele>769.25</ele><time>2026-04-18T09:54:30.999Z</time></trkpt><trkpt lat="42.53907006571225" lon="-8.281056218127661"><ele>767.5</ele><time>2026-04-18T09:54:31.999Z</time></trkpt><trkpt lat="42.53921419121778" lon="-8.281072319695262"><ele>765.75</ele><time>2026-04-18T09:54:32.999Z</time></trkpt><trkpt lat="42.53933952584733" lon="-8.281089400791158"><ele>764.0</ele><time>2026-04-18T09:54:33.999Z</time></trkpt><trkpt lat="42.539440556637544" lon="-8.281096585293096"><ele>764.0</ele><time>2026-04-18T09:54:34.999Z</time></trkpt><trkpt lat="42.539519331015455" lon="-8.281081897245224"><ele>764.0</ele><time>2026-04-18T09:54:35.999Z</time></trkpt><trkpt lat="42.53960485394979" lon="-8.281044475767612"><ele>764.0</ele><time>2026-04-18T09:54:36.999Z</time></trkpt><trkpt lat="42.53972772832932" lon="-8.281036413900749"><ele>764.0</ele><time>2026-04-18T09:54:37.999Z</time></trkpt><trkpt lat="42.53984811813826" lon="-8.281102755739349"><ele>764.0</ele><time>2026-04-18T09:54:38.999Z</time></trkpt><trkpt lat="42.539981452397434" lon="-8.281209290047405"><ele>763.3333333333333</ele><time>2026-04-18T09:54:39.999Z</time></trkpt><trkpt lat="42.54014281905142" lon="-8.281301362936345"><ele>762.6666666666666</ele><time>2026-04-18T09:54:40.999Z</time></trkpt><trkpt lat="42.54030572483042" lon="-8.281353219228423"><ele>762.0</ele><time>2026-04-18T09:54:41.999Z</time></trkpt><trkpt lat="42.540483555302984" lon="-8.281389044813832"><ele>760.6666666666666</ele><time>2026-04-18T09:54:42.999Z</time></trkpt><trkpt lat="42.54067851521312" lon="-8.281436153165648"><ele>759.3333333333333</ele><time>2026-04-18T09:54:43.999Z</time></trkpt><trkpt lat="42.5408789624598" lon="-8.281492225305607"><ele>758.0</ele><time>2026-04-18T09:54:44.999Z</time></trkpt><trkpt lat="42.5410599241526" lon="-8.281539360660009"><ele>759.3333333333333</ele><time>2026-04-18T09:54:45.999Z</time></trkpt><trkpt lat="42.541223041454856" lon="-8.281576614424337"><ele>760.6666666666666</ele><time>2026-04-18T09:54:46.999Z</time></trkpt><trkpt lat="42.54136754166985" lon="-8.281599833297005"><ele>762.0</ele><time>2026-04-18T09:54:47.999Z</time></trkpt><trkpt lat="42.541519423471286" lon="-8.281642412393518"><ele>762.0</ele><time>2026-04-18T09:54:48.999Z</time></trkpt><trkpt lat="42.54167871998563" lon="-8.28170624719558"><ele>762.0</ele><time>2026-04-18T09:54:49.999Z</time></trkpt><trkpt lat="42.54183157709616" lon="-8.281768640074766"><ele>762.0</ele><time>2026-04-18T09:54:50.999Z</time></trkpt><trkpt lat="42.54197929540202" lon="-8.28183910515461"><ele>759.0</ele><time>2026-04-18T09:54:51.999Z</time></trkpt><trkpt lat="42.54212704940032" lon="-8.281907289623865"><ele>756.0</ele><time>2026-04-18T09:54:52.999Z</time></trkpt><trkpt lat="42.542298388651744" lon="-8.2819869607987"><ele>753.0</ele><time>2026-04-18T09:54:53.999Z</time></trkpt><trkpt lat="42.54250435554698" lon="-8.282073218915519"><ele>753.0</ele><time>2026-04-18T09:54:54.999Z</time></trkpt><trkpt lat="42.54268325461368" lon="-8.282142627591718"><ele>753.0</ele><time>2026-04-18T09:54:55.999Z</time></trkpt><trkpt lat="42.54283810946753" lon="-8.282198812488582"><ele>753.0</ele><time>2026-04-18T09:54:56.999Z</time></trkpt><trkpt lat="42.54298324550931" lon="-8.28225775800992"><ele>750.5</ele><time>2026-04-18T09:54:57.999Z</time></trkpt><trkpt lat="42.54311575988706" lon="-8.282297844450863"><ele>748.0</ele><time>2026-04-18T09:54:58.999Z</time></trkpt><trkpt lat="42.54327426337434" lon="-8.282352970823387"><ele>745.5</ele><time>2026-04-18T09:54:59.999Z</time></trkpt><trkpt lat="42.54341250800396" lon="-8.282408752055233"><ele>743.0</ele><time>2026-04-18T09:55:00.999Z</time></trkpt><trkpt lat="42.54352901349441" lon="-8.282451504007751"><ele>743.0</ele><time>2026-04-18T09:55:01.999Z</time></trkpt><trkpt lat="42.543680610452306" lon="-8.282481092243193"><ele>743.0</ele><time>2026-04-18T09:55:02.999Z</time></trkpt><trkpt lat="42.543873964574196" lon="-8.282520403763785"><ele>743.0</ele><time>2026-04-18T09:55:03.999Z</time></trkpt><trkpt lat="42.54405311969517" lon="-8.28256005238436"><ele>735.3333333333333</ele><time>2026-04-18T09:55:04.999Z</time></trkpt><trkpt lat="42.5442078446481" lon="-8.282595160223144"><ele>727.6666666666666</ele><time>2026-04-18T09:55:05.999Z</time></trkpt><trkpt lat="42.544363816578205" lon="-8.28262816492393"><ele>720.0</ele><time>2026-04-18T09:55:06.999Z</time></trkpt><trkpt lat="42.54450738520213" lon="-8.282667558424352"><ele>716.8</ele><time>2026-04-18T09:55:07.999Z</time></trkpt><trkpt lat="42.54462863984375" lon="-8.282710191206911"><ele>713.6</ele><time>2026-04-18T09:55:08.999Z</time></trkpt><trkpt lat="42.54474866736692" lon="-8.282744835903577"><ele>710.4000000000001</ele><time>2026-04-18T09:55:09.999Z</time></trkpt><trkpt lat="42.54485530709713" lon="-8.282771987430783"><ele>707.2</ele><time>2026-04-18T09:55:10.999Z</time></trkpt><trkpt lat="42.54492257684173" lon="-8.282790116386483"><ele>704.0</ele><time>2026-04-18T09:55:11.999Z</time></trkpt><trkpt lat="42.544989380937295" lon="-8.282877848581712"><ele>704.0</ele><time>2026-04-18T09:55:13.999Z</time></trkpt><trkpt lat="42.54496754639965" lon="-8.282971378489428"><ele>704.0</ele><time>2026-04-18T09:55:14.999Z</time></trkpt><trkpt lat="42.544920825478606" lon="-8.283115437220138"><ele>704.0</ele><time>2026-04-18T09:55:15.999Z</time></trkpt><trkpt lat="42.54487593268027" lon="-8.28330246279978"><ele>704.0</ele><time>2026-04-18T09:55:16.999Z</time></trkpt><trkpt lat="42.544825150700696" lon="-8.283527411277545"><ele>702.3333333333333</ele><time>2026-04-18T09:55:18Z</time></trkpt><trkpt lat="42.54480220341612" lon="-8.283764297394976"><ele>700.6666666666666</ele><time>2026-04-18T09:55:19Z</time></trkpt><trkpt lat="42.544781015342465" lon="-8.284036135532338"><ele>699.0</ele><time>2026-04-18T09:55:20Z</time></trkpt><trkpt lat="42.54473964900737" lon="-8.28427181637743"><ele>697.5</ele><time>2026-04-18T09:55:21Z</time></trkpt><trkpt lat="42.544707973769306" lon="-8.284463231646074"><ele>696.0</ele><time>2026-04-18T09:55:22Z</time></trkpt><trkpt lat="42.544683306196276" lon="-8.284639458360585"><ele>694.5</ele><time>2026-04-18T09:55:23Z</time></trkpt><trkpt lat="42.544656196007665" lon="-8.284831353650883"><ele>693.0</ele><time>2026-04-18T09:55:24Z</time></trkpt><trkpt lat="42.544632461939536" lon="-8.285045270962861"><ele>692.75</ele><time>2026-04-18T09:55:25Z</time></trkpt><trkpt lat="42.54461113060624" lon="-8.285253925087513"><ele>692.5</ele><time>2026-04-18T09:55:26Z</time></trkpt><trkpt lat="42.544585014587014" lon="-8.28543201277402"><ele>692.25</ele><time>2026-04-18T09:55:27Z</time></trkpt><trkpt lat="42.544555338452454" lon="-8.285594868514242"><ele>692.0</ele><time>2026-04-18T09:55:28Z</time></trkpt><trkpt lat="42.544501048490844" lon="-8.285773621048461"><ele>692.0</ele><time>2026-04-18T09:55:29Z</time></trkpt><trkpt lat="42.54443094283141" lon="-8.285954452686273"><ele>692.0</ele><time>2026-04-18T09:55:30Z</time></trkpt><trkpt lat="42.5443505496932" lon="-8.286130146196431"><ele>692.0</ele><time>2026-04-18T09:55:31Z</time></trkpt><trkpt lat="42.544249429701026" lon="-8.286339850094995"><ele>689.3333333333333</ele><time>2026-04-18T09:55:32Z</time></trkpt><trkpt lat="42.54414889489455" lon="-8.286559792096744"><ele>686.6666666666666</ele><time>2026-04-18T09:55:33Z</time></trkpt><trkpt lat="42.54406849065213" lon="-8.286796934347691"><ele>684.0</ele><time>2026-04-18T09:55:34Z</time></trkpt><trkpt lat="42.544019488310916" lon="-8.287023117445772"><ele>684.0</ele><time>2026-04-18T09:55:35Z</time></trkpt><trkpt lat="42.54397180506918" lon="-8.287241580938021"><ele>684.0</ele><time>2026-04-18T09:55:36Z</time></trkpt><trkpt lat="42.5439218795302" lon="-8.287472239842197"><ele>684.0</ele><time>2026-04-18T09:55:37Z</time></trkpt><trkpt lat="42.5438872038856" lon="-8.28768578984068"><ele>682.3333333333334</ele><time>2026-04-18T09:55:38Z</time></trkpt><trkpt lat="42.5438433590057" lon="-8.287902991579841"><ele>680.6666666666667</ele><time>2026-04-18T09:55:39Z</time></trkpt><trkpt lat="42.54377130443788" lon="-8.288135780016336"><ele>679.0</ele><time>2026-04-18T09:55:40Z</time></trkpt><trkpt lat="42.543682023042" lon="-8.288360653684057"><ele>679.0</ele><time>2026-04-18T09:55:41Z</time></trkpt><trkpt lat="42.54359194445719" lon="-8.288598859915199"><ele>679.0</ele><time>2026-04-18T09:55:42Z</time></trkpt><trkpt lat="42.54353485111392" lon="-8.288793042053289"><ele>679.0</ele><time>2026-04-18T09:55:43Z</time></trkpt><trkpt lat="42.54349784715733" lon="-8.288964161825227"><ele>676.75</ele><time>2026-04-18T09:55:44Z</time></trkpt><trkpt lat="42.54346370320278" lon="-8.289122520330073"><ele>674.5</ele><time>2026-04-18T09:55:45Z</time></trkpt><trkpt lat="42.54341975100209" lon="-8.28927490585548"><ele>672.25</ele><time>2026-04-18T09:55:46Z</time></trkpt><trkpt lat="42.54335314302175" lon="-8.289452118880137"><ele>670.0</ele><time>2026-04-18T09:55:47Z</time></trkpt><trkpt lat="42.543269483755914" lon="-8.289633483181502"><ele>668.8</ele><time>2026-04-18T09:55:48Z</time></trkpt><trkpt lat="42.54318734229284" lon="-8.289784630756495"><ele>667.6</ele><time>2026-04-18T09:55:49Z</time></trkpt><trkpt lat="42.54310839190298" lon="-8.289890754813717"><ele>666.4000000000001</ele><time>2026-04-18T09:55:50Z</time></trkpt><trkpt lat="42.54303943607788" lon="-8.28998625675438"><ele>665.2</ele><time>2026-04-18T09:55:51Z</time></trkpt><trkpt lat="42.542984801402895" lon="-8.290051341755875"><ele>664.0</ele><time>2026-04-18T09:55:52Z</time></trkpt><trkpt lat="42.54290671301157" lon="-8.290090450571752"><ele>664.25</ele><time>2026-04-18T09:55:54Z</time></trkpt><trkpt lat="42.54277424450741" lon="-8.289974188442276"><ele>664.5</ele><time>2026-04-18T09:55:56Z</time></trkpt><trkpt lat="42.54269196607372" lon="-8.289857488044891"><ele>664.75</ele><time>2026-04-18T09:55:57Z</time></trkpt><trkpt lat="42.54260107106913" lon="-8.289716698628462"><ele>665.0</ele><time>2026-04-18T09:55:58Z</time></trkpt><trkpt lat="42.54249704187871" lon="-8.289575631921855"><ele>667.0</ele><time>2026-04-18T09:55:59Z</time></trkpt><trkpt lat="42.542408103576655" lon="-8.289421735887737"><ele>669.0</ele><time>2026-04-18T09:56:00Z</time></trkpt><trkpt lat="42.54233280333231" lon="-8.289246663917702"><ele>671.0</ele><time>2026-04-18T09:56:01Z</time></trkpt><trkpt lat="42.5422654211211" lon="-8.289031389690365"><ele>674.0</ele><time>2026-04-18T09:56:02Z</time></trkpt><trkpt lat="42.54221124143031" lon="-8.288812330488012"><ele>677.0</ele><time>2026-04-18T09:56:03Z</time></trkpt><trkpt lat="42.54214027268801" lon="-8.288632616528814"><ele>680.0</ele><time>2026-04-18T09:56:04Z</time></trkpt><trkpt lat="42.54206495219257" lon="-8.288482982203655"><ele>679.3333333333333</ele><time>2026-04-18T09:56:05Z</time></trkpt><trkpt lat="42.54196046663482" lon="-8.288313102341313"><ele>678.6666666666666</ele><time>2026-04-18T09:56:06Z</time></trkpt><trkpt lat="42.541818411511386" lon="-8.288132253703964"><ele>678.0</ele><time>2026-04-18T09:56:07Z</time></trkpt><trkpt lat="42.541696375456915" lon="-8.287983176146035"><ele>679.5</ele><time>2026-04-18T09:56:08Z</time></trkpt><trkpt lat="42.54160392566645" lon="-8.287857425790104"><ele>681.0</ele><time>2026-04-18T09:56:09Z</time></trkpt><trkpt lat="42.541507038447016" lon="-8.287749087038303"><ele>682.5</ele><time>2026-04-18T09:56:10Z</time></trkpt><trkpt lat="42.54141915605088" lon="-8.287672785888295"><ele>684.0</ele><time>2026-04-18T09:56:11Z</time></trkpt><trkpt lat="42.541343826195984" lon="-8.287608868071384"><ele>684.0</ele><time>2026-04-18T09:56:12Z</time></trkpt><trkpt lat="42.54127136066527" lon="-8.28752858415211"><ele>684.0</ele><time>2026-04-18T09:56:13Z</time></trkpt><trkpt lat="42.54118961994319" lon="-8.287450745317114"><ele>684.0</ele><time>2026-04-18T09:56:14Z</time></trkpt><trkpt lat="42.54110449171767" lon="-8.287371835596131"><ele>684.0</ele><time>2026-04-18T09:56:15Z</time></trkpt><trkpt lat="42.54101762793581" lon="-8.287296834666"><ele>684.0</ele><time>2026-04-18T09:56:16Z</time></trkpt><trkpt lat="42.54093291939487" lon="-8.287223856158324"><ele>684.8000000000001</ele><time>2026-04-18T09:56:17Z</time></trkpt><trkpt lat="42.54085240903142" lon="-8.28716779058689"><ele>685.6</ele><time>2026-04-18T09:56:18Z</time></trkpt><trkpt lat="42.540763706048885" lon="-8.287115644846898"><ele>686.4</ele><time>2026-04-18T09:56:19Z</time></trkpt><trkpt lat="42.54066158474939" lon="-8.287055706255176"><ele>687.2</ele><time>2026-04-18T09:56:20Z</time></trkpt><trkpt lat="42.54055241227092" lon="-8.286980110499911"><ele>688.0</ele><time>2026-04-18T09:56:21Z</time></trkpt><trkpt lat="42.54044895178413" lon="-8.286890298568334"><ele>687.25</ele><time>2026-04-18T09:56:22Z</time></trkpt><trkpt lat="42.5403426228066" lon="-8.286779996599165"><ele>686.5</ele><time>2026-04-18T09:56:23Z</time></trkpt><trkpt lat="42.54024092534296" lon="-8.28663000674748"><ele>685.75</ele><time>2026-04-18T09:56:24Z</time></trkpt><trkpt lat="42.540149596577486" lon="-8.286474332891615"><ele>685.0</ele><time>2026-04-18T09:56:25Z</time></trkpt><trkpt lat="42.54006087379303" lon="-8.286286414542408"><ele>688.0</ele><time>2026-04-18T09:56:26Z</time></trkpt><trkpt lat="42.53999617931401" lon="-8.286078401225332"><ele>691.0</ele><time>2026-04-18T09:56:27Z</time></trkpt><trkpt lat="42.539940763109875" lon="-8.285857640683925"><ele>694.0</ele><time>2026-04-18T09:56:28Z</time></trkpt><trkpt lat="42.53988599462526" lon="-8.285693595400936"><ele>694.0</ele><time>2026-04-18T09:56:29Z</time></trkpt><trkpt lat="42.53982117210791" lon="-8.285581199610675"><ele>694.0</ele><time>2026-04-18T09:56:30Z</time></trkpt><trkpt lat="42.53976155935602" lon="-8.285524671915113"><ele>694.0</ele><time>2026-04-18T09:56:31Z</time></trkpt><trkpt lat="42.53965509685162" lon="-8.28558569339499"><ele>694.0</ele><time>2026-04-18T09:56:33Z</time></trkpt><trkpt lat="42.53957721999446" lon="-8.285720402858573"><ele>694.0</ele><time>2026-04-18T09:56:34Z</time></trkpt><trkpt lat="42.539495744698385" lon="-8.285872189082664"><ele>694.6666666666667</ele><time>2026-04-18T09:56:35Z</time></trkpt><trkpt lat="42.53940209995043" lon="-8.286023395767831"><ele>695.3333333333334</ele><time>2026-04-18T09:56:36Z</time></trkpt><trkpt lat="42.53927730287894" lon="-8.286132215974995"><ele>696.0</ele><time>2026-04-18T09:56:37Z</time></trkpt><trkpt lat="42.539131557244104" lon="-8.286372126406627"><ele>694.0</ele><time>2026-04-18T09:56:37.999Z</time></trkpt><trkpt lat="42.539000648866086" lon="-8.286587328477918"><ele>692.0</ele><time>2026-04-18T09:56:38.999Z</time></trkpt><trkpt lat="42.5389092840865" lon="-8.286797706050045"><ele>690.0</ele><time>2026-04-18T09:56:39.999Z</time></trkpt><trkpt lat="42.53886793156905" lon="-8.286945071396287"><ele>690.0</ele><time>2026-04-18T09:56:40.999Z</time></trkpt><trkpt lat="42.53883950116788" lon="-8.287200465949347"><ele>690.0</ele><time>2026-04-18T09:56:41.999Z</time></trkpt><trkpt lat="42.53886240039777" lon="-8.287471535498698"><ele>690.0</ele><time>2026-04-18T09:56:42.999Z</time></trkpt><trkpt lat="42.538865024139675" lon="-8.287728608391358"><ele>688.3333333333334</ele><time>2026-04-18T09:56:43.999Z</time></trkpt><trkpt lat="42.53885498554644" lon="-8.287988464584618"><ele>686.6666666666667</ele><time>2026-04-18T09:56:44.999Z</time></trkpt><trkpt lat="42.53887035456341" lon="-8.288260571932728"><ele>685.0</ele><time>2026-04-18T09:56:45.999Z</time></trkpt><trkpt lat="42.53890208271645" lon="-8.288525043828914"><ele>683.75</ele><time>2026-04-18T09:56:46.999Z</time></trkpt><trkpt lat="42.53892524019109" lon="-8.28875783745534"><ele>682.5</ele><time>2026-04-18T09:56:47.999Z</time></trkpt><trkpt lat="42.53893175008268" lon="-8.288938937554905"><ele>681.25</ele><time>2026-04-18T09:56:48.999Z</time></trkpt><trkpt lat="42.53891883438536" lon="-8.289090236051996"><ele>680.0</ele><time>2026-04-18T09:56:49.999Z</time></trkpt><trkpt lat="42.53889413839914" lon="-8.289282152365157"><ele>677.3333333333333</ele><time>2026-04-18T09:56:50.999Z</time></trkpt><trkpt lat="42.538845383430015" lon="-8.289511691340744"><ele>674.6666666666666</ele><time>2026-04-18T09:56:51.999Z</time></trkpt><trkpt lat="42.53879997378377" lon="-8.289729345703059"><ele>672.0</ele><time>2026-04-18T09:56:52.999Z</time></trkpt><trkpt lat="42.53880104887594" lon="-8.289895058882001"><ele>671.2</ele><time>2026-04-18T09:56:53.999Z</time></trkpt><trkpt lat="42.538823341057935" lon="-8.29001535494751"><ele>670.4000000000001</ele><time>2026-04-18T09:56:54.999Z</time></trkpt><trkpt lat="42.53883298521662" lon="-8.29015244623017"><ele>669.5999999999999</ele><time>2026-04-18T09:56:56.999Z</time></trkpt><trkpt lat="42.538754544083915" lon="-8.29018250450026"><ele>668.8</ele><time>2026-04-18T09:56:58.999Z</time></trkpt><trkpt lat="42.5386496450657" lon="-8.290066258574114"><ele>668.0</ele><time>2026-04-18T09:57:00.999Z</time></trkpt><trkpt lat="42.5385415555594" lon="-8.289968083317378"><ele>668.0</ele><time>2026-04-18T09:57:01.999Z</time></trkpt><trkpt lat="42.5383787620603" lon="-8.2898214530986"><ele>668.0</ele><time>2026-04-18T09:57:02.999Z</time></trkpt><trkpt lat="42.538208670721914" lon="-8.289695763837976"><ele>668.0</ele><time>2026-04-18T09:57:03.999Z</time></trkpt><trkpt lat="42.53799712776655" lon="-8.2895383181368"><ele>669.3333333333333</ele><time>2026-04-18T09:57:04.999Z</time></trkpt><trkpt lat="42.53780349817527" lon="-8.289413222389069"><ele>670.6666666666666</ele><time>2026-04-18T09:57:05.999Z</time></trkpt><trkpt lat="42.537675462323044" lon="-8.289316825321874"><ele>672.0</ele><time>2026-04-18T09:57:06.999Z</time></trkpt><trkpt lat="42.537542004103386" lon="-8.289205926098953"><ele>672.0</ele><time>2026-04-18T09:57:07.999Z</time></trkpt><trkpt lat="42.53747970409569" lon="-8.289124351971816"><ele>672.0</ele><time>2026-04-18T09:57:08.999Z</time></trkpt><trkpt lat="42.537516325983596" lon="-8.288989260998857"><ele>672.0</ele><time>2026-04-18T09:57:09.999Z</time></trkpt><trkpt lat="42.53752739105147" lon="-8.288867293371073"><ele>672.0</ele><time>2026-04-18T09:57:10.999Z</time></trkpt><trkpt lat="42.53750608191544" lon="-8.28872049000471"><ele>672.0</ele><time>2026-04-18T09:57:11.999Z</time></trkpt><trkpt lat="42.537470056659934" lon="-8.288540903457584"><ele>673.2</ele><time>2026-04-18T09:57:12.999Z</time></trkpt><trkpt lat="42.53743269246613" lon="-8.28837779745718"><ele>674.4000000000001</ele><time>2026-04-18T09:57:13.999Z</time></trkpt><trkpt lat="42.53738112979243" lon="-8.28825431557976"><ele>675.5999999999999</ele><time>2026-04-18T09:57:14.999Z</time></trkpt><trkpt lat="42.537311881427414" lon="-8.28826082240754"><ele>676.8</ele><time>2026-04-18T09:57:15.999Z</time></trkpt><trkpt lat="42.53722934267602" lon="-8.288335239245944"><ele>678.0</ele><time>2026-04-18T09:57:16.999Z</time></trkpt><trkpt lat="42.53710853466567" lon="-8.288438667832443"><ele>678.6666666666666</ele><time>2026-04-18T09:57:17.999Z</time></trkpt><trkpt lat="42.53698904737549" lon="-8.28850974830637"><ele>679.3333333333333</ele><time>2026-04-18T09:57:18.999Z</time></trkpt><trkpt lat="42.53683311702311" lon="-8.28852777402477"><ele>680.0</ele><time>2026-04-18T09:57:19.999Z</time></trkpt><trkpt lat="42.53664654133971" lon="-8.288558651316034"><ele>680.0</ele><time>2026-04-18T09:57:20.999Z</time></trkpt><trkpt lat="42.5364196602603" lon="-8.28856706905372"><ele>680.0</ele><time>2026-04-18T09:57:21.999Z</time></trkpt><trkpt lat="42.53622109214542" lon="-8.288614486309301"><ele>680.0</ele><time>2026-04-18T09:57:22.999Z</time></trkpt><trkpt lat="42.536028749268574" lon="-8.288708023574834"><ele>678.6666666666666</ele><time>2026-04-18T09:57:24Z</time></trkpt><trkpt lat="42.53584968068644" lon="-8.288809557325045"><ele>677.3333333333334</ele><time>2026-04-18T09:57:25Z</time></trkpt><trkpt lat="42.53568375692266" lon="-8.28890158855123"><ele>676.0</ele><time>2026-04-18T09:57:26Z</time></trkpt><trkpt lat="42.53551667898544" lon="-8.288981641803353"><ele>678.3333333333334</ele><time>2026-04-18T09:57:27Z</time></trkpt><trkpt lat="42.53536824393175" lon="-8.289034217323538"><ele>680.6666666666666</ele><time>2026-04-18T09:57:28Z</time></trkpt><trkpt lat="42.535210442844935" lon="-8.28905754954355"><ele>683.0</ele><time>2026-04-18T09:57:29Z</time></trkpt><trkpt lat="42.53505974974213" lon="-8.289076122713999"><ele>683.0</ele><time>2026-04-18T09:57:30Z</time></trkpt><trkpt lat="42.534968867372584" lon="-8.289085595391384"><ele>683.0</ele><time>2026-04-18T09:57:32Z</time></trkpt><trkpt lat="42.53481931990546" lon="-8.289065319679018"><ele>683.0</ele><time>2026-04-18T09:57:34Z</time></trkpt><trkpt lat="42.53474922336218" lon="-8.289000665766109"><ele>683.0</ele><time>2026-04-18T09:57:35Z</time></trkpt><trkpt lat="42.53469586118738" lon="-8.288920782130305"><ele>683.0</ele><time>2026-04-18T09:57:36Z</time></trkpt><trkpt lat="42.534613144066334" lon="-8.288807885892451"><ele>682.3333333333333</ele><time>2026-04-18T09:57:37Z</time></trkpt><trkpt lat="42.534535435506264" lon="-8.288714992145591"><ele>681.6666666666666</ele><time>2026-04-18T09:57:38Z</time></trkpt><trkpt lat="42.534533077782534" lon="-8.288455774338292"><ele>681.0</ele><time>2026-04-18T09:57:39Z</time></trkpt><trkpt lat="42.53446419746354" lon="-8.288194405545564"><ele>684.3333333333334</ele><time>2026-04-18T09:57:40Z</time></trkpt><trkpt lat="42.534407504497125" lon="-8.28795649049323"><ele>687.6666666666667</ele><time>2026-04-18T09:57:41Z</time></trkpt><trkpt lat="42.53431330526436" lon="-8.28771098170045"><ele>691.0</ele><time>2026-04-18T09:57:42Z</time></trkpt><trkpt lat="42.534209931815155" lon="-8.287421599138026"><ele>694.0</ele><time>2026-04-18T09:57:43Z</time></trkpt><trkpt lat="42.534099783212675" lon="-8.287183342400853"><ele>697.0</ele><time>2026-04-18T09:57:44Z</time></trkpt><trkpt lat="42.53400406318129" lon="-8.286988208664033"><ele>700.0</ele><time>2026-04-18T09:57:45Z</time></trkpt><trkpt lat="42.53391371196693" lon="-8.286778556422828"><ele>700.0</ele><time>2026-04-18T09:57:46Z</time></trkpt><trkpt lat="42.533855877532936" lon="-8.286618026951635"><ele>700.0</ele><time>2026-04-18T09:57:47Z</time></trkpt><trkpt lat="42.533803970141015" lon="-8.286519882295643"><ele>700.0</ele><time>2026-04-18T09:57:48Z</time></trkpt><trkpt lat="42.53372694961437" lon="-8.286500595772681"><ele>700.0</ele><time>2026-04-18T09:57:49Z</time></trkpt><trkpt lat="42.533616361763066" lon="-8.286449304924878"><ele>700.0</ele><time>2026-04-18T09:57:51Z</time></trkpt><trkpt lat="42.533523496232384" lon="-8.286554838626573"><ele>699.3333333333334</ele><time>2026-04-18T09:57:52Z</time></trkpt><trkpt lat="42.53341643010951" lon="-8.286697903055972"><ele>698.6666666666666</ele><time>2026-04-18T09:57:53Z</time></trkpt><trkpt lat="42.53323646468709" lon="-8.286869863968658"><ele>698.0</ele><time>2026-04-18T09:57:54Z</time></trkpt><trkpt lat="42.533023953862475" lon="-8.287034474886136"><ele>696.3333333333333</ele><time>2026-04-18T09:57:55Z</time></trkpt><trkpt lat="42.53288212933831" lon="-8.28718340255022"><ele>694.6666666666666</ele><time>2026-04-18T09:57:56Z</time></trkpt><trkpt lat="42.532764020646034" lon="-8.28734080543775"><ele>693.0</ele><time>2026-04-18T09:57:57Z</time></trkpt><trkpt lat="42.532654260198285" lon="-8.287483740922857"><ele>691.0</ele><time>2026-04-18T09:57:58Z</time></trkpt><trkpt lat="42.53254862571635" lon="-8.287632549653777"><ele>689.0</ele><time>2026-04-18T09:57:59Z</time></trkpt><trkpt lat="42.532476238592956" lon="-8.287764508984488"><ele>687.0</ele><time>2026-04-18T09:58:00Z</time></trkpt><trkpt lat="42.532395916752385" lon="-8.287946986245233"><ele>685.0</ele><time>2026-04-18T09:58:01Z</time></trkpt><trkpt lat="42.532328343258555" lon="-8.288148921515305"><ele>683.5</ele><time>2026-04-18T09:58:02Z</time></trkpt><trkpt lat="42.53224937706651" lon="-8.288333031506369"><ele>682.0</ele><time>2026-04-18T09:58:03Z</time></trkpt><trkpt lat="42.53216396392783" lon="-8.288481118838826"><ele>680.5</ele><time>2026-04-18T09:58:04Z</time></trkpt><trkpt lat="42.532085260571925" lon="-8.288568547256112"><ele>679.0</ele><time>2026-04-18T09:58:05Z</time></trkpt><trkpt lat="42.53198863539138" lon="-8.288675469171652"><ele>677.8000000000001</ele><time>2026-04-18T09:58:06Z</time></trkpt><trkpt lat="42.53187778104608" lon="-8.288697595367458"><ele>676.6</ele><time>2026-04-18T09:58:07Z</time></trkpt><trkpt lat="42.53175662613128" lon="-8.288681290635031"><ele>675.4</ele><time>2026-04-18T09:58:08Z</time></trkpt><trkpt lat="42.531639080142334" lon="-8.288636054313717"><ele>674.2</ele><time>2026-04-18T09:58:09Z</time></trkpt><trkpt lat="42.531554740368364" lon="-8.288589263131675"><ele>673.0</ele><time>2026-04-18T09:58:10Z</time></trkpt><trkpt lat="42.53149476446188" lon="-8.288532502696757"><ele>673.0</ele><time>2026-04-18T09:58:11Z</time></trkpt><trkpt lat="42.53144506503586" lon="-8.28843606570115"><ele>673.0</ele><time>2026-04-18T09:58:12Z</time></trkpt><trkpt lat="42.53142983521969" lon="-8.288276273591094"><ele>673.0</ele><time>2026-04-18T09:58:13Z</time></trkpt><trkpt lat="42.53140354775572" lon="-8.288127724406069"><ele>673.0</ele><time>2026-04-18T09:58:14Z</time></trkpt><trkpt lat="42.53139993589602" lon="-8.28789748037647"><ele>673.6666666666667</ele><time>2026-04-18T09:58:15Z</time></trkpt><trkpt lat="42.53139196234868" lon="-8.287732168427757"><ele>674.3333333333334</ele><time>2026-04-18T09:58:16Z</time></trkpt><trkpt lat="42.53137187245759" lon="-8.287644098407041"><ele>675.0</ele><time>2026-04-18T09:58:17Z</time></trkpt><trkpt lat="42.531303330142336" lon="-8.28759915300979"><ele>675.6666666666666</ele><time>2026-04-18T09:58:19Z</time></trkpt><trkpt lat="42.531234710143174" lon="-8.28758228871198"><ele>676.3333333333333</ele><time>2026-04-18T09:58:20Z</time></trkpt><trkpt lat="42.53113561179585" lon="-8.287574067133969"><ele>677.0</ele><time>2026-04-18T09:58:21Z</time></trkpt><trkpt lat="42.53101984289455" lon="-8.287651826336212"><ele>677.4000000000001</ele><time>2026-04-18T09:58:22Z</time></trkpt><trkpt lat="42.530884555132246" lon="-8.287751374184573"><ele>677.8000000000001</ele><time>2026-04-18T09:58:23Z</time></trkpt><trkpt lat="42.53075693392283" lon="-8.28782662619838"><ele>678.2</ele><time>2026-04-18T09:58:24Z</time></trkpt><trkpt lat="42.53068512561159" lon="-8.287865378844025"><ele>678.6</ele><time>2026-04-18T09:58:25Z</time></trkpt><trkpt lat="42.530618766407784" lon="-8.287904418926678"><ele>679.0</ele><time>2026-04-18T09:58:26Z</time></trkpt><trkpt lat="42.53059330431265" lon="-8.287817775861443"><ele>679.0</ele><time>2026-04-18T09:58:27Z</time></trkpt><trkpt lat="42.530641734078706" lon="-8.287648072000941"><ele>679.0</ele><time>2026-04-18T09:58:28Z</time></trkpt><trkpt lat="42.53065181953978" lon="-8.287446798404703"><ele>679.0</ele><time>2026-04-18T09:58:29Z</time></trkpt><trkpt lat="42.530668153174375" lon="-8.28719686636058"><ele>682.6666666666667</ele><time>2026-04-18T09:58:30Z</time></trkpt><trkpt lat="42.53068123112815" lon="-8.28694972308307"><ele>686.3333333333334</ele><time>2026-04-18T09:58:31Z</time></trkpt><trkpt lat="42.53067640735296" lon="-8.286720904314612"><ele>690.0</ele><time>2026-04-18T09:58:32Z</time></trkpt><trkpt lat="42.53068175316746" lon="-8.286494859542863"><ele>692.6666666666666</ele><time>2026-04-18T09:58:33Z</time></trkpt><trkpt lat="42.530671389358965" lon="-8.286259474361284"><ele>695.3333333333333</ele><time>2026-04-18T09:58:34Z</time></trkpt><trkpt lat="42.53065162333821" lon="-8.286028740685591"><ele>698.0</ele><time>2026-04-18T09:58:35Z</time></trkpt><trkpt lat="42.530616817383304" lon="-8.285822843240556"><ele>698.0</ele><time>2026-04-18T09:58:36Z</time></trkpt><trkpt lat="42.53056375374486" lon="-8.285641612789993"><ele>698.0</ele><time>2026-04-18T09:58:37Z</time></trkpt><trkpt lat="42.5304766233297" lon="-8.28548235643499"><ele>698.0</ele><time>2026-04-18T09:58:38Z</time></trkpt><trkpt lat="42.53037128383391" lon="-8.285334225788601"><ele>698.0</ele><time>2026-04-18T09:58:39Z</time></trkpt><trkpt lat="42.53027693574157" lon="-8.285166373676535"><ele>700.6666666666666</ele><time>2026-04-18T09:58:40Z</time></trkpt><trkpt lat="42.53019784512311" lon="-8.28496812537369"><ele>703.3333333333334</ele><time>2026-04-18T09:58:41Z</time></trkpt><trkpt lat="42.53011378727863" lon="-8.284790971230949"><ele>706.0</ele><time>2026-04-18T09:58:42Z</time></trkpt><trkpt lat="42.53000324381116" lon="-8.284666061053615"><ele>708.25</ele><time>2026-04-18T09:58:43Z</time></trkpt><trkpt lat="42.529870499637376" lon="-8.28457247049939"><ele>710.5</ele><time>2026-04-18T09:58:44Z</time></trkpt><trkpt lat="42.52972892133159" lon="-8.28450157571368"><ele>712.75</ele><time>2026-04-18T09:58:45Z</time></trkpt><trkpt lat="42.52958662818702" lon="-8.284463124615511"><ele>715.0</ele><time>2026-04-18T09:58:46Z</time></trkpt><trkpt lat="42.529450820825446" lon="-8.284419628514032"><ele>715.0</ele><time>2026-04-18T09:58:47Z</time></trkpt><trkpt lat="42.52930272558839" lon="-8.28438485111351"><ele>715.0</ele><time>2026-04-18T09:58:48Z</time></trkpt><trkpt lat="42.52915001455849" lon="-8.284381139431666"><ele>715.0</ele><time>2026-04-18T09:58:48.999Z</time></trkpt><trkpt lat="42.5290186620899" lon="-8.284409880841785"><ele>715.0</ele><time>2026-04-18T09:58:49.999Z</time></trkpt><trkpt lat="42.528901884638096" lon="-8.284452594793258"><ele>715.0</ele><time>2026-04-18T09:58:50.999Z</time></trkpt><trkpt lat="42.52893792844961" lon="-8.284558716373777"><ele>715.0</ele><time>2026-04-18T09:58:53.999Z</time></trkpt><trkpt lat="42.52895237382841" lon="-8.284644572124094"><ele>715.0</ele><time>2026-04-18T09:58:54.999Z</time></trkpt><trkpt lat="42.52900057461344" lon="-8.284787757068361"><ele>715.0</ele><time>2026-04-18T09:58:55.999Z</time></trkpt><trkpt lat="42.52905773775634" lon="-8.284947860251963"><ele>715.0</ele><time>2026-04-18T09:58:56.999Z</time></trkpt><trkpt lat="42.52911724666895" lon="-8.285086145524504"><ele>713.0</ele><time>2026-04-18T09:58:57.999Z</time></trkpt><trkpt lat="42.5291373786003" lon="-8.285170828353936"><ele>711.0</ele><time>2026-04-18T09:58:58.999Z</time></trkpt><trkpt lat="42.52911580138458" lon="-8.285269940617635"><ele>709.0</ele><time>2026-04-18T09:58:59.999Z</time></trkpt><trkpt lat="42.529057055435835" lon="-8.285373212759266"><ele>707.0</ele><time>2026-04-18T09:59:00.999Z</time></trkpt><trkpt lat="42.52895085557015" lon="-8.285513854316164"><ele>705.0</ele><time>2026-04-18T09:59:01.999Z</time></trkpt><trkpt lat="42.52882384608446" lon="-8.285658626796097"><ele>704.5</ele><time>2026-04-18T09:59:02.999Z</time></trkpt><trkpt lat="42.5287062085898" lon="-8.285801328533115"><ele>704.0</ele><time>2026-04-18T09:59:03.999Z</time></trkpt><trkpt lat="42.528603852801176" lon="-8.285881285293195"><ele>703.5</ele><time>2026-04-18T09:59:04.999Z</time></trkpt><trkpt lat="42.52846189337348" lon="-8.285933398705179"><ele>703.0</ele><time>2026-04-18T09:59:05.999Z</time></trkpt><trkpt lat="42.528307325585565" lon="-8.285954788484208"><ele>703.0</ele><time>2026-04-18T09:59:06.999Z</time></trkpt><trkpt lat="42.528129253356646" lon="-8.28595011682775"><ele>703.0</ele><time>2026-04-18T09:59:07.999Z</time></trkpt><trkpt lat="42.52797005726764" lon="-8.285960444844019"><ele>703.0</ele><time>2026-04-18T09:59:08.999Z</time></trkpt><trkpt lat="42.52784323722541" lon="-8.286036984336711"><ele>704.6666666666667</ele><time>2026-04-18T09:59:09.999Z</time></trkpt><trkpt lat="42.52772610686761" lon="-8.2861483523162"><ele>706.3333333333334</ele><time>2026-04-18T09:59:10.999Z</time></trkpt><trkpt lat="42.52760144499326" lon="-8.286294191456237"><ele>708.0</ele><time>2026-04-18T09:59:11.999Z</time></trkpt><trkpt lat="42.52748303574865" lon="-8.286433853827806"><ele>705.25</ele><time>2026-04-18T09:59:12.999Z</time></trkpt><trkpt lat="42.52737220287524" lon="-8.28651598522025"><ele>702.5</ele><time>2026-04-18T09:59:13.999Z</time></trkpt><trkpt lat="42.52725529294211" lon="-8.286587439979758"><ele>699.75</ele><time>2026-04-18T09:59:14.999Z</time></trkpt><trkpt lat="42.52713805493308" lon="-8.28661107629385"><ele>697.0</ele><time>2026-04-18T09:59:15.999Z</time></trkpt><trkpt lat="42.52701160421006" lon="-8.286593898155486"><ele>696.75</ele><time>2026-04-18T09:59:16.999Z</time></trkpt><trkpt lat="42.52688254352677" lon="-8.286532958890488"><ele>696.5</ele><time>2026-04-18T09:59:17.999Z</time></trkpt><trkpt lat="42.526751937475176" lon="-8.286452418652756"><ele>696.25</ele><time>2026-04-18T09:59:18.999Z</time></trkpt><trkpt lat="42.52660057578264" lon="-8.28635543464494"><ele>696.0</ele><time>2026-04-18T09:59:19.999Z</time></trkpt><trkpt lat="42.5264420642294" lon="-8.286233330668036"><ele>698.3333333333334</ele><time>2026-04-18T09:59:20.999Z</time></trkpt><trkpt lat="42.526279441329" lon="-8.286091153673741"><ele>700.6666666666667</ele><time>2026-04-18T09:59:21.999Z</time></trkpt><trkpt lat="42.5261173642406" lon="-8.285954179069797"><ele>703.0</ele><time>2026-04-18T09:59:22.999Z</time></trkpt><trkpt lat="42.52600431423237" lon="-8.285849992589732"><ele>703.0</ele><time>2026-04-18T09:59:23.999Z</time></trkpt><trkpt lat="42.52593960455592" lon="-8.28577817542753"><ele>703.0</ele><time>2026-04-18T09:59:24.999Z</time></trkpt><trkpt lat="42.52589980342355" lon="-8.285617293918543"><ele>703.0</ele><time>2026-04-18T09:59:26.999Z</time></trkpt><trkpt lat="42.52590962586029" lon="-8.285499719460729"><ele>703.0</ele><time>2026-04-18T09:59:27.999Z</time></trkpt><trkpt lat="42.52582123985476" lon="-8.285374217371615"><ele>703.0</ele><time>2026-04-18T09:59:28.999Z</time></trkpt><trkpt lat="42.52583593308221" lon="-8.285251328562373"><ele>706.0</ele><time>2026-04-18T09:59:30Z</time></trkpt><trkpt lat="42.52589410921432" lon="-8.285105822228443"><ele>709.0</ele><time>2026-04-18T09:59:31Z</time></trkpt><trkpt lat="42.525939288096794" lon="-8.284961476011016"><ele>712.0</ele><time>2026-04-18T09:59:32Z</time></trkpt><trkpt lat="42.525981913103514" lon="-8.284767011836673"><ele>715.0</ele><time>2026-04-18T09:59:33Z</time></trkpt><trkpt lat="42.52602456269148" lon="-8.28451806789318"><ele>719.3333333333334</ele><time>2026-04-18T09:59:34Z</time></trkpt><trkpt lat="42.52606046651373" lon="-8.284288907242182"><ele>723.6666666666666</ele><time>2026-04-18T09:59:35Z</time></trkpt><trkpt lat="42.52608801802462" lon="-8.284083163039307"><ele>728.0</ele><time>2026-04-18T09:59:36Z</time></trkpt><trkpt lat="42.52611648706954" lon="-8.2838769360655"><ele>732.25</ele><time>2026-04-18T09:59:37Z</time></trkpt><trkpt lat="42.52614953456041" lon="-8.28367633249002"><ele>736.5</ele><time>2026-04-18T09:59:38Z</time></trkpt><trkpt lat="42.52617933103022" lon="-8.283473899143232"><ele>740.75</ele><time>2026-04-18T09:59:39Z</time></trkpt><trkpt lat="42.526180563163415" lon="-8.283302294319778"><ele>745.0</ele><time>2026-04-18T09:59:40Z</time></trkpt><trkpt lat="42.526140529081516" lon="-8.283216075365083"><ele>745.0</ele><time>2026-04-18T09:59:41Z</time></trkpt><trkpt lat="42.52603868599144" lon="-8.28320808961598"><ele>745.0</ele><time>2026-04-18T09:59:43Z</time></trkpt><trkpt lat="42.52592650302956" lon="-8.283162525902803"><ele>745.0</ele><time>2026-04-18T09:59:44Z</time></trkpt><trkpt lat="42.52579602029508" lon="-8.28311201398217"><ele>745.0</ele><time>2026-04-18T09:59:45Z</time></trkpt><trkpt lat="42.52560893357207" lon="-8.283013103615216"><ele>750.0</ele><time>2026-04-18T09:59:46Z</time></trkpt><trkpt lat="42.52541802320332" lon="-8.282923093314743"><ele>755.0</ele><time>2026-04-18T09:59:47Z</time></trkpt><trkpt lat="42.525186740503784" lon="-8.282792356072056"><ele>755.0</ele><time>2026-04-18T09:59:48Z</time></trkpt><trkpt lat="42.524998897744496" lon="-8.282696231398443"><ele>755.0</ele><time>2026-04-18T09:59:49Z</time></trkpt><trkpt lat="42.52486780922481" lon="-8.282623827510006"><ele>755.0</ele><time>2026-04-18T09:59:50Z</time></trkpt><trkpt lat="42.524739009321024" lon="-8.282528415348025"><ele>755.0</ele><time>2026-04-18T09:59:51Z</time></trkpt><trkpt lat="42.524630938377314" lon="-8.282436469383718"><ele>755.0</ele><time>2026-04-18T09:59:52Z</time></trkpt><trkpt lat="42.52451029657527" lon="-8.282464368435546"><ele>755.0</ele><time>2026-04-18T09:59:54Z</time></trkpt><trkpt lat="42.52452220766522" lon="-8.282577989270209"><ele>755.0</ele><time>2026-04-18T09:59:55Z</time></trkpt><trkpt lat="42.52450473006996" lon="-8.282678768990248"><ele>755.0</ele><time>2026-04-18T09:59:56Z</time></trkpt><trkpt lat="42.524467408310414" lon="-8.282839526448763"><ele>757.0</ele><time>2026-04-18T09:59:57Z</time></trkpt><trkpt lat="42.52442022053685" lon="-8.28302573796966"><ele>759.0</ele><time>2026-04-18T09:59:58Z</time></trkpt><trkpt lat="42.52441290776571" lon="-8.283240187455325"><ele>761.0</ele><time>2026-04-18T09:59:59Z</time></trkpt><trkpt lat="42.524419914253166" lon="-8.283431912468679"><ele>763.0</ele><time>2026-04-18T10:00:00Z</time></trkpt><trkpt lat="42.52443525978834" lon="-8.28361018413587"><ele>759.0</ele><time>2026-04-18T10:00:01Z</time></trkpt><trkpt lat="42.52440145457794" lon="-8.2837631561738"><ele>755.0</ele><time>2026-04-18T10:00:03Z</time></trkpt><trkpt lat="42.524331312443536" lon="-8.283903808234081"><ele>751.0</ele><time>2026-04-18T10:00:04Z</time></trkpt><trkpt lat="42.524223552905795" lon="-8.283970125146247"><ele>747.0</ele><time>2026-04-18T10:00:06Z</time></trkpt><trkpt lat="42.52409637370387" lon="-8.283862421765773"><ele>747.0</ele><time>2026-04-18T10:00:07Z</time></trkpt><trkpt lat="42.52388627129747" lon="-8.283757473262545"><ele>747.0</ele><time>2026-04-18T10:00:08Z</time></trkpt><trkpt lat="42.52367622103031" lon="-8.283634770333403"><ele>750.0</ele><time>2026-04-18T10:00:09Z</time></trkpt><trkpt lat="42.52348717107218" lon="-8.283524692148601"><ele>753.0</ele><time>2026-04-18T10:00:10Z</time></trkpt><trkpt lat="42.523256293563776" lon="-8.283391108508502"><ele>753.0</ele><time>2026-04-18T10:00:11Z</time></trkpt><trkpt lat="42.5230365252886" lon="-8.283287413550447"><ele>753.0</ele><time>2026-04-18T10:00:12Z</time></trkpt><trkpt lat="42.52286774524355" lon="-8.283213303879851"><ele>753.0</ele><time>2026-04-18T10:00:13Z</time></trkpt><trkpt lat="42.522707928451396" lon="-8.283150702319615"><ele>753.0</ele><time>2026-04-18T10:00:13.999Z</time></trkpt><trkpt lat="42.52258299298372" lon="-8.283128541895547"><ele>753.0</ele><time>2026-04-18T10:00:14.999Z</time></trkpt><trkpt lat="42.52244347718897" lon="-8.283122581813592"><ele>753.0</ele><time>2026-04-18T10:00:15.999Z</time></trkpt><trkpt lat="42.52226835116361" lon="-8.283143962944958"><ele>753.0</ele><time>2026-04-18T10:00:16.999Z</time></trkpt><trkpt lat="42.52202342710979" lon="-8.28315494545054"><ele>753.0</ele><time>2026-04-18T10:00:17.999Z</time></trkpt><trkpt lat="42.521813891619864" lon="-8.28314422586975"><ele>753.0</ele><time>2026-04-18T10:00:18.999Z</time></trkpt><trkpt lat="42.52161357655775" lon="-8.283134331275107"><ele>753.0</ele><time>2026-04-18T10:00:19.999Z</time></trkpt><trkpt lat="42.52140376701268" lon="-8.28312063401809"><ele>755.0</ele><time>2026-04-18T10:00:20.999Z</time></trkpt><trkpt lat="42.52118430917782" lon="-8.283110767471166"><ele>757.0</ele><time>2026-04-18T10:00:21.999Z</time></trkpt><trkpt lat="42.52095652719469" lon="-8.283099970687795"><ele>759.0</ele><time>2026-04-18T10:00:22.999Z</time></trkpt><trkpt lat="42.52075622118435" lon="-8.283091747790742"><ele>759.0</ele><time>2026-04-18T10:00:23.999Z</time></trkpt><trkpt lat="42.5206042803129" lon="-8.283106372892929"><ele>759.0</ele><time>2026-04-18T10:00:24.999Z</time></trkpt><trkpt lat="42.520492569555365" lon="-8.28316466320156"><ele>759.0</ele><time>2026-04-18T10:00:25.999Z</time></trkpt><trkpt lat="42.52040665189917" lon="-8.283250959207859"><ele>759.0</ele><time>2026-04-18T10:00:26.999Z</time></trkpt><trkpt lat="42.52029440422731" lon="-8.283406941121461"><ele>762.0</ele><time>2026-04-18T10:00:27.999Z</time></trkpt><trkpt lat="42.52016959394397" lon="-8.283554733648941"><ele>765.0</ele><time>2026-04-18T10:00:28.999Z</time></trkpt><trkpt lat="42.520078909483196" lon="-8.283737941391369"><ele>768.0</ele><time>2026-04-18T10:00:29.999Z</time></trkpt><trkpt lat="42.520006088579194" lon="-8.283990194137187"><ele>768.0</ele><time>2026-04-18T10:00:30.999Z</time></trkpt><trkpt lat="42.51993504192754" lon="-8.284236310483578"><ele>768.0</ele><time>2026-04-18T10:00:31.999Z</time></trkpt><trkpt lat="42.51987858338527" lon="-8.284495146699632"><ele>768.0</ele><time>2026-04-18T10:00:32.999Z</time></trkpt><trkpt lat="42.519822711259145" lon="-8.284727003491328"><ele>768.5999999999999</ele><time>2026-04-18T10:00:33.999Z</time></trkpt><trkpt lat="42.519749793515146" lon="-8.284855504417663"><ele>769.1999999999999</ele><time>2026-04-18T10:00:34.999Z</time></trkpt><trkpt lat="42.51967902019836" lon="-8.284951883991269"><ele>769.8</ele><time>2026-04-18T10:00:35.999Z</time></trkpt><trkpt lat="42.5196011030821" lon="-8.284980003498942"><ele>770.4</ele><time>2026-04-18T10:00:36.999Z</time></trkpt><trkpt lat="42.519533619712305" lon="-8.285010808010883"><ele>771.0</ele><time>2026-04-18T10:00:37.999Z</time></trkpt><trkpt lat="42.5194419549205" lon="-8.285004757926151"><ele>771.0</ele><time>2026-04-18T10:00:38.999Z</time></trkpt><trkpt lat="42.51937213983357" lon="-8.284978123858862"><ele>771.0</ele><time>2026-04-18T10:00:39.999Z</time></trkpt><trkpt lat="42.519293043650016" lon="-8.284923756572859"><ele>771.0</ele><time>2026-04-18T10:00:40.999Z</time></trkpt><trkpt lat="42.51923518924724" lon="-8.284878144145386"><ele>771.0</ele><time>2026-04-18T10:00:41.999Z</time></trkpt><trkpt lat="42.51920995412352" lon="-8.284769075965503"><ele>771.0</ele><time>2026-04-18T10:00:42.999Z</time></trkpt><trkpt lat="42.51918408235481" lon="-8.28463717647803"><ele>771.0</ele><time>2026-04-18T10:00:43.999Z</time></trkpt><trkpt lat="42.519213452606465" lon="-8.284465525250532"><ele>772.4</ele><time>2026-04-18T10:00:44.999Z</time></trkpt><trkpt lat="42.519256616871296" lon="-8.284302170719128"><ele>773.8</ele><time>2026-04-18T10:00:45.999Z</time></trkpt><trkpt lat="42.51928787181162" lon="-8.284159391307519"><ele>775.1999999999999</ele><time>2026-04-18T10:00:46.999Z</time></trkpt><trkpt lat="42.5193134247963" lon="-8.284027835277598"><ele>776.5999999999999</ele><time>2026-04-18T10:00:47.999Z</time></trkpt><trkpt lat="42.51933782146345" lon="-8.283891641849655"><ele>778.0</ele><time>2026-04-18T10:00:48.999Z</time></trkpt><trkpt lat="42.51936804431852" lon="-8.28375613102353"><ele>778.8</ele><time>2026-04-18T10:00:49.999Z</time></trkpt><trkpt lat="42.51938531189114" lon="-8.283626417381434"><ele>779.5999999999999</ele><time>2026-04-18T10:00:50.999Z</time></trkpt><trkpt lat="42.51940575734303" lon="-8.283502031892438"><ele>780.4000000000001</ele><time>2026-04-18T10:00:51.999Z</time></trkpt><trkpt lat="42.519418291342646" lon="-8.283377001583478"><ele>781.2</ele><time>2026-04-18T10:00:52.999Z</time></trkpt><trkpt lat="42.51942134511989" lon="-8.283276766823374"><ele>782.0</ele><time>2026-04-18T10:00:53.999Z</time></trkpt><trkpt lat="42.51936723004306" lon="-8.28317573025877"><ele>782.0</ele><time>2026-04-18T10:00:55.999Z</time></trkpt><trkpt lat="42.519247928190914" lon="-8.283124402424274"><ele>782.0</ele><time>2026-04-18T10:00:57.999Z</time></trkpt><trkpt lat="42.51916600596278" lon="-8.283075053646584"><ele>782.0</ele><time>2026-04-18T10:00:58.999Z</time></trkpt><trkpt lat="42.5190781560681" lon="-8.283037575008713"><ele>782.0</ele><time>2026-04-18T10:00:59.999Z</time></trkpt><trkpt lat="42.518987033340466" lon="-8.283006982675992"><ele>782.0</ele><time>2026-04-18T10:01:00.999Z</time></trkpt><trkpt lat="42.51888688710492" lon="-8.282981888278727"><ele>783.2</ele><time>2026-04-18T10:01:01.999Z</time></trkpt><trkpt lat="42.518792875990414" lon="-8.282982484188755"><ele>784.4000000000001</ele><time>2026-04-18T10:01:02.999Z</time></trkpt><trkpt lat="42.51869658427231" lon="-8.282979644848977"><ele>785.5999999999999</ele><time>2026-04-18T10:01:03.998Z</time></trkpt><trkpt lat="42.518601610433294" lon="-8.282978006428312"><ele>786.8</ele><time>2026-04-18T10:01:04.998Z</time></trkpt><trkpt lat="42.518507778934094" lon="-8.282968572046737"><ele>788.0</ele><time>2026-04-18T10:01:05.998Z</time></trkpt><trkpt lat="42.51841337290845" lon="-8.282955229271804"><ele>788.0000000000001</ele><time>2026-04-18T10:01:06.998Z</time></trkpt><trkpt lat="42.51832500845972" lon="-8.28292213584479"><ele>788.0</ele><time>2026-04-18T10:01:07.998Z</time></trkpt><trkpt lat="42.51824222152032" lon="-8.282876492883355"><ele>788.0</ele><time>2026-04-18T10:01:08.998Z</time></trkpt><trkpt lat="42.518167653670986" lon="-8.28282236779878"><ele>788.0</ele><time>2026-04-18T10:01:09.998Z</time></trkpt><trkpt lat="42.51809685616409" lon="-8.282759139770508"><ele>788.0000000000001</ele><time>2026-04-18T10:01:10.998Z</time></trkpt><trkpt lat="42.518030811354784" lon="-8.282693732646573"><ele>788.0</ele><time>2026-04-18T10:01:11.998Z</time></trkpt><trkpt lat="42.51796380903411" lon="-8.282620995240732"><ele>788.1666666666667</ele><time>2026-04-18T10:01:12.998Z</time></trkpt><trkpt lat="42.51789811469986" lon="-8.282543595720545"><ele>788.3333333333334</ele><time>2026-04-18T10:01:13.998Z</time></trkpt><trkpt lat="42.51783493988958" lon="-8.282473842553234"><ele>788.5</ele><time>2026-04-18T10:01:14.998Z</time></trkpt><trkpt lat="42.51777157263288" lon="-8.282393786613735"><ele>788.6666666666667</ele><time>2026-04-18T10:01:15.998Z</time></trkpt><trkpt lat="42.517708818126316" lon="-8.282311074439402"><ele>788.8333333333334</ele><time>2026-04-18T10:01:16.998Z</time></trkpt><trkpt lat="42.51765303777709" lon="-8.282215737838909"><ele>789.0</ele><time>2026-04-18T10:01:17.998Z</time></trkpt><trkpt lat="42.517606564775775" lon="-8.282127062568554"><ele>790.1666666666666</ele><time>2026-04-18T10:01:18.998Z</time></trkpt><trkpt lat="42.517580169971545" lon="-8.282036697329362"><ele>791.3333333333333</ele><time>2026-04-18T10:01:19.998Z</time></trkpt><trkpt lat="42.517549793822425" lon="-8.281953429431132"><ele>792.5</ele><time>2026-04-18T10:01:20.998Z</time></trkpt><trkpt lat="42.51752345920933" lon="-8.28186530469461"><ele>793.6666666666666</ele><time>2026-04-18T10:01:21.998Z</time></trkpt><trkpt lat="42.5175033634851" lon="-8.281769816181733"><ele>794.8333333333333</ele><time>2026-04-18T10:01:22.998Z</time></trkpt><trkpt lat="42.5174856779585" lon="-8.281679826477141"><ele>796.0</ele><time>2026-04-18T10:01:23.998Z</time></trkpt><trkpt lat="42.51746470977061" lon="-8.281539961135651"><ele>796.1999999999999</ele><time>2026-04-18T10:01:25.998Z</time></trkpt><trkpt lat="42.51745121646495" lon="-8.281415763683952"><ele>796.4</ele><time>2026-04-18T10:01:27.998Z</time></trkpt><trkpt lat="42.517439401634654" lon="-8.281225091851741"><ele>796.6</ele><time>2026-04-18T10:01:29.998Z</time></trkpt><trkpt lat="42.517453889284724" lon="-8.281119210435753"><ele>796.8</ele><time>2026-04-18T10:01:30.998Z</time></trkpt><trkpt lat="42.51749663150566" lon="-8.281025751277332"><ele>797.0</ele><time>2026-04-18T10:01:31.998Z</time></trkpt><trkpt lat="42.5175484691863" lon="-8.280965535082935"><ele>797.0</ele><time>2026-04-18T10:01:32.998Z</time></trkpt><trkpt lat="42.51755288332447" lon="-8.280876403909636"><ele>797.0</ele><time>2026-04-18T10:01:34.998Z</time></trkpt><trkpt lat="42.51742469581569" lon="-8.280851296466066"><ele>797.0</ele><time>2026-04-18T10:01:37Z</time></trkpt><trkpt lat="42.51735008244005" lon="-8.280846835902025"><ele>797.0</ele><time>2026-04-18T10:01:38Z</time></trkpt><trkpt lat="42.51728194564861" lon="-8.280861398215245"><ele>797.0</ele><time>2026-04-18T10:01:39Z</time></trkpt><trkpt lat="42.51716452650436" lon="-8.280924602902584"><ele>797.0</ele><time>2026-04-18T10:01:41Z</time></trkpt><trkpt lat="42.517100021754054" lon="-8.280956311823331"><ele>797.0</ele><time>2026-04-18T10:01:42Z</time></trkpt><trkpt lat="42.51702954351015" lon="-8.280986271180852"><ele>797.0</ele><time>2026-04-18T10:01:43Z</time></trkpt><trkpt lat="42.51695801257108" lon="-8.281014471128403"><ele>797.0</ele><time>2026-04-18T10:01:44Z</time></trkpt><trkpt lat="42.51688752300867" lon="-8.281047502137941"><ele>797.0</ele><time>2026-04-18T10:01:45Z</time></trkpt><trkpt lat="42.51681410739131" lon="-8.281085640836348"><ele>797.0</ele><time>2026-04-18T10:01:46Z</time></trkpt><trkpt lat="42.51673774019519" lon="-8.281111269231154"><ele>797.0</ele><time>2026-04-18T10:01:47Z</time></trkpt><trkpt lat="42.51666964451497" lon="-8.281144319940971"><ele>797.6666666666667</ele><time>2026-04-18T10:01:48Z</time></trkpt><trkpt lat="42.51659219989389" lon="-8.281174684811047"><ele>798.3333333333334</ele><time>2026-04-18T10:01:49Z</time></trkpt><trkpt lat="42.51651089836629" lon="-8.28120068877217"><ele>799.0</ele><time>2026-04-18T10:01:50Z</time></trkpt><trkpt lat="42.51643391918847" lon="-8.281233822623665"><ele>799.6666666666667</ele><time>2026-04-18T10:01:51Z</time></trkpt><trkpt lat="42.5163649271878" lon="-8.281266256457672"><ele>800.3333333333334</ele><time>2026-04-18T10:01:52Z</time></trkpt><trkpt lat="42.516300017757274" lon="-8.281310520499131"><ele>801.0</ele><time>2026-04-18T10:01:53Z</time></trkpt><trkpt lat="42.51623484974582" lon="-8.28135996817237"><ele>801.1428571428571</ele><time>2026-04-18T10:01:54Z</time></trkpt><trkpt lat="42.516174683637416" lon="-8.281409500677174"><ele>801.2857142857142</ele><time>2026-04-18T10:01:55Z</time></trkpt><trkpt lat="42.51611440423594" lon="-8.281458110475327"><ele>801.4285714285714</ele><time>2026-04-18T10:01:56Z</time></trkpt><trkpt lat="42.51604907148741" lon="-8.281509521558437"><ele>801.5714285714286</ele><time>2026-04-18T10:01:56.999Z</time></trkpt><trkpt lat="42.51598139715481" lon="-8.28156366542015"><ele>801.7142857142858</ele><time>2026-04-18T10:01:57.999Z</time></trkpt><trkpt lat="42.51591787367081" lon="-8.281626759310214"><ele>801.8571428571429</ele><time>2026-04-18T10:01:58.999Z</time></trkpt><trkpt lat="42.515859262911796" lon="-8.281689595730738"><ele>802.0</ele><time>2026-04-18T10:01:59.999Z</time></trkpt><trkpt lat="42.51579162397834" lon="-8.281758568270035"><ele>802.0</ele><time>2026-04-18T10:02:00.999Z</time></trkpt><trkpt lat="42.51571899377925" lon="-8.281833247928969"><ele>802.0</ele><time>2026-04-18T10:02:01.999Z</time></trkpt><trkpt lat="42.5156546795026" lon="-8.281904102661185"><ele>802.0</ele><time>2026-04-18T10:02:02.999Z</time></trkpt><trkpt lat="42.51557422862959" lon="-8.282006896133499"><ele>802.0</ele><time>2026-04-18T10:02:04.999Z</time></trkpt><trkpt lat="42.51550784207653" lon="-8.28206056607811"><ele>802.0</ele><time>2026-04-18T10:02:05.999Z</time></trkpt><trkpt lat="42.51542509902812" lon="-8.282129521847116"><ele>802.5</ele><time>2026-04-18T10:02:06.999Z</time></trkpt><trkpt lat="42.515335730458574" lon="-8.282217912033028"><ele>803.0</ele><time>2026-04-18T10:02:07.999Z</time></trkpt><trkpt lat="42.51523648479285" lon="-8.282304902309422"><ele>803.5</ele><time>2026-04-18T10:02:08.999Z</time></trkpt><trkpt lat="42.51512054024526" lon="-8.282391483347421"><ele>804.0</ele><time>2026-04-18T10:02:09.999Z</time></trkpt><trkpt lat="42.51498357274993" lon="-8.282472522755846"><ele>804.0</ele><time>2026-04-18T10:02:10.999Z</time></trkpt><trkpt lat="42.514831820863" lon="-8.282555970351792"><ele>804.0</ele><time>2026-04-18T10:02:11.999Z</time></trkpt><trkpt lat="42.514651740356115" lon="-8.282629938174532"><ele>804.0</ele><time>2026-04-18T10:02:12.999Z</time></trkpt><trkpt lat="42.51447491899454" lon="-8.282693353297276"><ele>807.6666666666667</ele><time>2026-04-18T10:02:13.999Z</time></trkpt><trkpt lat="42.51431678816535" lon="-8.282764617171685"><ele>811.3333333333334</ele><time>2026-04-18T10:02:14.999Z</time></trkpt><trkpt lat="42.514162991442454" lon="-8.28286316604197"><ele>815.0</ele><time>2026-04-18T10:02:15.999Z</time></trkpt><trkpt lat="42.514024262313825" lon="-8.282968002312817"><ele>815.0</ele><time>2026-04-18T10:02:16.999Z</time></trkpt><trkpt lat="42.51391645970205" lon="-8.283071923498973"><ele>815.0</ele><time>2026-04-18T10:02:17.999Z</time></trkpt><trkpt lat="42.513847510485206" lon="-8.283199533391054"><ele>815.0</ele><time>2026-04-18T10:02:18.999Z</time></trkpt><trkpt lat="42.51380176973065" lon="-8.283370880952397"><ele>815.0</ele><time>2026-04-18T10:02:19.999Z</time></trkpt><trkpt lat="42.51376231740653" lon="-8.283575634637993"><ele>814.0</ele><time>2026-04-18T10:02:20.999Z</time></trkpt><trkpt lat="42.51372919432435" lon="-8.283780310378438"><ele>813.0</ele><time>2026-04-18T10:02:21.999Z</time></trkpt><trkpt lat="42.513721995936635" lon="-8.283973361067387"><ele>812.0</ele><time>2026-04-18T10:02:22.999Z</time></trkpt><trkpt lat="42.51374135503201" lon="-8.284115809564973"><ele>811.0</ele><time>2026-04-18T10:02:23.999Z</time></trkpt><trkpt lat="42.513811353713535" lon="-8.284233853909686"><ele>811.0</ele><time>2026-04-18T10:02:24.999Z</time></trkpt><trkpt lat="42.51391247819898" lon="-8.284333853871697"><ele>811.0</ele><time>2026-04-18T10:02:25.999Z</time></trkpt><trkpt lat="42.51404567113601" lon="-8.284399710308493"><ele>811.0</ele><time>2026-04-18T10:02:26.999Z</time></trkpt><trkpt lat="42.51419645529788" lon="-8.284463410076045"><ele>811.0</ele><time>2026-04-18T10:02:27.999Z</time></trkpt><trkpt lat="42.514312854642284" lon="-8.284567784567145"><ele>811.0</ele><time>2026-04-18T10:02:28.999Z</time></trkpt><trkpt lat="42.514428554938576" lon="-8.284735250894714"><ele>811.0</ele><time>2026-04-18T10:02:29.999Z</time></trkpt><trkpt lat="42.51457143580311" lon="-8.284937406941268"><ele>811.0</ele><time>2026-04-18T10:02:30.999Z</time></trkpt><trkpt lat="42.51471141099186" lon="-8.2851603161741"><ele>812.0</ele><time>2026-04-18T10:02:31.999Z</time></trkpt><trkpt lat="42.51485326218272" lon="-8.28536580318907"><ele>813.0</ele><time>2026-04-18T10:02:32.999Z</time></trkpt><trkpt lat="42.51501383055705" lon="-8.285563748508563"><ele>814.0</ele><time>2026-04-18T10:02:33.999Z</time></trkpt><trkpt lat="42.5151899474807" lon="-8.28577496530067"><ele>813.3333333333333</ele><time>2026-04-18T10:02:34.999Z</time></trkpt><trkpt lat="42.51534680776338" lon="-8.285964978940983"><ele>812.6666666666667</ele><time>2026-04-18T10:02:35.999Z</time></trkpt><trkpt lat="42.515480735326236" lon="-8.286130164718347"><ele>812.0</ele><time>2026-04-18T10:02:36.999Z</time></trkpt><trkpt lat="42.51558140135617" lon="-8.28629135626908"><ele>816.3333333333334</ele><time>2026-04-18T10:02:37.999Z</time></trkpt><trkpt lat="42.51567356718013" lon="-8.286487799225995"><ele>820.6666666666667</ele><time>2026-04-18T10:02:38.999Z</time></trkpt><trkpt lat="42.51577785254575" lon="-8.286693963025614"><ele>825.0</ele><time>2026-04-18T10:02:39.999Z</time></trkpt><trkpt lat="42.5159003587293" lon="-8.286896143146233"><ele>825.0</ele><time>2026-04-18T10:02:40.999Z</time></trkpt><trkpt lat="42.51602327302944" lon="-8.287069778232455"><ele>825.0</ele><time>2026-04-18T10:02:41.999Z</time></trkpt><trkpt lat="42.516118977659964" lon="-8.287232748709986"><ele>825.0</ele><time>2026-04-18T10:02:42.999Z</time></trkpt><trkpt lat="42.5161909038246" lon="-8.287395817303818"><ele>822.75</ele><time>2026-04-18T10:02:43.999Z</time></trkpt><trkpt lat="42.516243798999824" lon="-8.287568829744599"><ele>820.5</ele><time>2026-04-18T10:02:44.999Z</time></trkpt><trkpt lat="42.51628102719021" lon="-8.287762126828076"><ele>818.25</ele><time>2026-04-18T10:02:45.999Z</time></trkpt><trkpt lat="42.51630480576298" lon="-8.287958443604584"><ele>816.0</ele><time>2026-04-18T10:02:46.999Z</time></trkpt><trkpt lat="42.51630071701124" lon="-8.288146617203743"><ele>816.0</ele><time>2026-04-18T10:02:47.999Z</time></trkpt><trkpt lat="42.516280476529325" lon="-8.288319602753766"><ele>816.0</ele><time>2026-04-18T10:02:48.999Z</time></trkpt><trkpt lat="42.516243417142704" lon="-8.288464585349706"><ele>816.0</ele><time>2026-04-18T10:02:49.999Z</time></trkpt><trkpt lat="42.516199047195094" lon="-8.288597813920452"><ele>816.0</ele><time>2026-04-18T10:02:50.999Z</time></trkpt><trkpt lat="42.5161530177251" lon="-8.288745169349962"><ele>816.0</ele><time>2026-04-18T10:02:51.999Z</time></trkpt><trkpt lat="42.51612758525589" lon="-8.28886393743667"><ele>816.0</ele><time>2026-04-18T10:02:52.999Z</time></trkpt><trkpt lat="42.51620848570198" lon="-8.288876561527962"><ele>816.0</ele><time>2026-04-18T10:02:55.999Z</time></trkpt><trkpt lat="42.516251829263524" lon="-8.288807069516912"><ele>816.0</ele><time>2026-04-18T10:02:56.999Z</time></trkpt><trkpt lat="42.516280880262286" lon="-8.288703558611902"><ele>816.0</ele><time>2026-04-18T10:02:57.999Z</time></trkpt><trkpt lat="42.51633658056715" lon="-8.288568875515928"><ele>816.0</ele><time>2026-04-18T10:02:58.999Z</time></trkpt><trkpt lat="42.516395129235676" lon="-8.288429610262389"><ele>816.0</ele><time>2026-04-18T10:02:59.999Z</time></trkpt><trkpt lat="42.516432363131564" lon="-8.288284768704303"><ele>816.0</ele><time>2026-04-18T10:03:00.999Z</time></trkpt><trkpt lat="42.516432455754995" lon="-8.28811111291948"><ele>816.0</ele><time>2026-04-18T10:03:01.999Z</time></trkpt><trkpt lat="42.51641713284968" lon="-8.287907020949268"><ele>816.0</ele><time>2026-04-18T10:03:02.999Z</time></trkpt><trkpt lat="42.51642462414302" lon="-8.287692215991992"><ele>814.5</ele><time>2026-04-18T10:03:03.999Z</time></trkpt><trkpt lat="42.51643821194294" lon="-8.287516100062243"><ele>813.0</ele><time>2026-04-18T10:03:04.999Z</time></trkpt><trkpt lat="42.51643909720001" lon="-8.287373598620709"><ele>811.5</ele><time>2026-04-18T10:03:05.999Z</time></trkpt><trkpt lat="42.516405830379874" lon="-8.287242636672383"><ele>810.0</ele><time>2026-04-18T10:03:06.999Z</time></trkpt><trkpt lat="42.51634491822247" lon="-8.287072842238725"><ele>810.6666666666667</ele><time>2026-04-18T10:03:07.999Z</time></trkpt><trkpt lat="42.51627471746215" lon="-8.286853770374197"><ele>811.3333333333334</ele><time>2026-04-18T10:03:08.999Z</time></trkpt><trkpt lat="42.5162169127403" lon="-8.286633342639412"><ele>812.0</ele><time>2026-04-18T10:03:09.999Z</time></trkpt><trkpt lat="42.51617739236745" lon="-8.28641920505377"><ele>812.0</ele><time>2026-04-18T10:03:10.999Z</time></trkpt><trkpt lat="42.51616399745732" lon="-8.286267154061225"><ele>812.0</ele><time>2026-04-18T10:03:11.999Z</time></trkpt><trkpt lat="42.51616268898331" lon="-8.28616757362097"><ele>812.0</ele><time>2026-04-18T10:03:12.999Z</time></trkpt><trkpt lat="42.51618791309375" lon="-8.286047713577782"><ele>812.0</ele><time>2026-04-18T10:03:14.999Z</time></trkpt><trkpt lat="42.51630703964927" lon="-8.28607512760992"><ele>812.0</ele><time>2026-04-18T10:03:16.999Z</time></trkpt><trkpt lat="42.51638180549515" lon="-8.28616798649266"><ele>808.3333333333334</ele><time>2026-04-18T10:03:17.999Z</time></trkpt><trkpt lat="42.51646459623026" lon="-8.286293561127309"><ele>804.6666666666667</ele><time>2026-04-18T10:03:18.999Z</time></trkpt><trkpt lat="42.51657392459298" lon="-8.286442568806228"><ele>801.0</ele><time>2026-04-18T10:03:19.999Z</time></trkpt><trkpt lat="42.516703758635046" lon="-8.286608226997192"><ele>801.0</ele><time>2026-04-18T10:03:20.998Z</time></trkpt><trkpt lat="42.51684620503544" lon="-8.286789484832628"><ele>801.0</ele><time>2026-04-18T10:03:21.998Z</time></trkpt><trkpt lat="42.51697114514915" lon="-8.286967099359268"><ele>801.0</ele><time>2026-04-18T10:03:22.998Z</time></trkpt><trkpt lat="42.517086254639814" lon="-8.287134392218373"><ele>797.25</ele><time>2026-04-18T10:03:23.998Z</time></trkpt><trkpt lat="42.5171807387575" lon="-8.287301143950838"><ele>793.5</ele><time>2026-04-18T10:03:24.998Z</time></trkpt><trkpt lat="42.51725724557291" lon="-8.287478037690926"><ele>789.75</ele><time>2026-04-18T10:03:25.998Z</time></trkpt><trkpt lat="42.51730223561525" lon="-8.287644356744043"><ele>786.0</ele><time>2026-04-18T10:03:26.998Z</time></trkpt><trkpt lat="42.51731528135414" lon="-8.287839740998846"><ele>786.0</ele><time>2026-04-18T10:03:27.998Z</time></trkpt><trkpt lat="42.5173358583382" lon="-8.28801762904974"><ele>786.0</ele><time>2026-04-18T10:03:28.998Z</time></trkpt><trkpt lat="42.51737502086113" lon="-8.288139780258925"><ele>786.0</ele><time>2026-04-18T10:03:29.998Z</time></trkpt><trkpt lat="42.51746143978506" lon="-8.288168849072742"><ele>786.0</ele><time>2026-04-18T10:03:30.998Z</time></trkpt><trkpt lat="42.51757954695122" lon="-8.288155610548445"><ele>786.0</ele><time>2026-04-18T10:03:31.998Z</time></trkpt><trkpt lat="42.517724681550085" lon="-8.288139784601103"><ele>785.6666666666667</ele><time>2026-04-18T10:03:32.998Z</time></trkpt><trkpt lat="42.51788506874225" lon="-8.28811545437615"><ele>785.3333333333334</ele><time>2026-04-18T10:03:33.998Z</time></trkpt><trkpt lat="42.51804565435704" lon="-8.288115109607462"><ele>785.0</ele><time>2026-04-18T10:03:34.998Z</time></trkpt><trkpt lat="42.518186220577384" lon="-8.288126652326794"><ele>785.0</ele><time>2026-04-18T10:03:35.998Z</time></trkpt><trkpt lat="42.51831022441925" lon="-8.288202014233029"><ele>785.0</ele><time>2026-04-18T10:03:36.998Z</time></trkpt><trkpt lat="42.5184342878014" lon="-8.288306961202895"><ele>785.0</ele><time>2026-04-18T10:03:37.998Z</time></trkpt><trkpt lat="42.518558118947006" lon="-8.28841831588216"><ele>785.0</ele><time>2026-04-18T10:03:38.998Z</time></trkpt><trkpt lat="42.51866353570482" lon="-8.288559782230582"><ele>779.0</ele><time>2026-04-18T10:03:39.998Z</time></trkpt><trkpt lat="42.51875541138857" lon="-8.288728440580055"><ele>773.0</ele><time>2026-04-18T10:03:40.998Z</time></trkpt><trkpt lat="42.5188414256506" lon="-8.288913030787318"><ele>767.0</ele><time>2026-04-18T10:03:42Z</time></trkpt><trkpt lat="42.51891666263054" lon="-8.28912719083311"><ele>767.0</ele><time>2026-04-18T10:03:43Z</time></trkpt><trkpt lat="42.51896550467588" lon="-8.289325232207071"><ele>767.0</ele><time>2026-04-18T10:03:44Z</time></trkpt><trkpt lat="42.51898405642469" lon="-8.289552325617061"><ele>767.0</ele><time>2026-04-18T10:03:45Z</time></trkpt><trkpt lat="42.5189937912132" lon="-8.289801500871494"><ele>768.6666666666666</ele><time>2026-04-18T10:03:46Z</time></trkpt><trkpt lat="42.51902468266821" lon="-8.290015484472635"><ele>770.3333333333333</ele><time>2026-04-18T10:03:47Z</time></trkpt><trkpt lat="42.51909106310552" lon="-8.290182806795753"><ele>772.0</ele><time>2026-04-18T10:03:48Z</time></trkpt><trkpt lat="42.5192240523781" lon="-8.29035263053668"><ele>772.0</ele><time>2026-04-18T10:03:49Z</time></trkpt><trkpt lat="42.519342349221766" lon="-8.29053350004382"><ele>772.0</ele><time>2026-04-18T10:03:50Z</time></trkpt><trkpt lat="42.51947178566983" lon="-8.290675021215689"><ele>772.0</ele><time>2026-04-18T10:03:51Z</time></trkpt><trkpt lat="42.51956880176678" lon="-8.290785079200736"><ele>770.75</ele><time>2026-04-18T10:03:52Z</time></trkpt><trkpt lat="42.51964951835012" lon="-8.290905860657242"><ele>769.5</ele><time>2026-04-18T10:03:53Z</time></trkpt><trkpt lat="42.519733940278186" lon="-8.291072078528735"><ele>768.25</ele><time>2026-04-18T10:03:54Z</time></trkpt><trkpt lat="42.51982687034522" lon="-8.291265373264755"><ele>767.0</ele><time>2026-04-18T10:03:55Z</time></trkpt><trkpt lat="42.519922858067766" lon="-8.291469016771904"><ele>767.0</ele><time>2026-04-18T10:03:56Z</time></trkpt><trkpt lat="42.5199689808985" lon="-8.291662057535651"><ele>767.0</ele><time>2026-04-18T10:03:57Z</time></trkpt><trkpt lat="42.520013986291175" lon="-8.29185605696428"><ele>767.0</ele><time>2026-04-18T10:03:58Z</time></trkpt><trkpt lat="42.52005861252419" lon="-8.2920603996075"><ele>763.6666666666666</ele><time>2026-04-18T10:03:59Z</time></trkpt><trkpt lat="42.52008016696315" lon="-8.292283007655923"><ele>760.3333333333334</ele><time>2026-04-18T10:04:00Z</time></trkpt><trkpt lat="42.52007383226077" lon="-8.2924853836779"><ele>757.0</ele><time>2026-04-18T10:04:01Z</time></trkpt><trkpt lat="42.52006475189191" lon="-8.292672725632304"><ele>757.0</ele><time>2026-04-18T10:04:02Z</time></trkpt><trkpt lat="42.52002139090722" lon="-8.292877065284653"><ele>757.0</ele><time>2026-04-18T10:04:03Z</time></trkpt><trkpt lat="42.5199686869301" lon="-8.293094700440008"><ele>757.0</ele><time>2026-04-18T10:04:04Z</time></trkpt><trkpt lat="42.51991527693632" lon="-8.29330839252484"><ele>754.0</ele><time>2026-04-18T10:04:05Z</time></trkpt><trkpt lat="42.51988208884245" lon="-8.293486134746738"><ele>751.0</ele><time>2026-04-18T10:04:06Z</time></trkpt><trkpt lat="42.51982283884089" lon="-8.29365877780563"><ele>748.0</ele><time>2026-04-18T10:04:07Z</time></trkpt><trkpt lat="42.51975517438263" lon="-8.293830528169817"><ele>745.0</ele><time>2026-04-18T10:04:08Z</time></trkpt><trkpt lat="42.51969874261906" lon="-8.293995050493036"><ele>745.75</ele><time>2026-04-18T10:04:09Z</time></trkpt><trkpt lat="42.51964052189809" lon="-8.294138893871272"><ele>746.5</ele><time>2026-04-18T10:04:10Z</time></trkpt><trkpt lat="42.51956879191576" lon="-8.294251567180362"><ele>747.25</ele><time>2026-04-18T10:04:11Z</time></trkpt><trkpt lat="42.5194666010445" lon="-8.294349011032683"><ele>748.0</ele><time>2026-04-18T10:04:11.999Z</time></trkpt><trkpt lat="42.51935466692865" lon="-8.294443765552312"><ele>748.0</ele><time>2026-04-18T10:04:12.999Z</time></trkpt><trkpt lat="42.519224665272105" lon="-8.294545275519717"><ele>748.0</ele><time>2026-04-18T10:04:13.999Z</time></trkpt><trkpt lat="42.5191007620528" lon="-8.294635994755401"><ele>748.0</ele><time>2026-04-18T10:04:14.999Z</time></trkpt><trkpt lat="42.51896585221296" lon="-8.294719334474873"><ele>748.0</ele><time>2026-04-18T10:04:15.999Z</time></trkpt><trkpt lat="42.51883966089524" lon="-8.29478764485478"><ele>745.75</ele><time>2026-04-18T10:04:16.999Z</time></trkpt><trkpt lat="42.51870574318582" lon="-8.294847047216575"><ele>743.5</ele><time>2026-04-18T10:04:17.999Z</time></trkpt><trkpt lat="42.518557941645355" lon="-8.29489804852396"><ele>741.25</ele><time>2026-04-18T10:04:18.999Z</time></trkpt><trkpt lat="42.5184213590368" lon="-8.29492917650468"><ele>739.0</ele><time>2026-04-18T10:04:19.999Z</time></trkpt><trkpt lat="42.518317075977365" lon="-8.294948062981039"><ele>739.0</ele><time>2026-04-18T10:04:20.999Z</time></trkpt><trkpt lat="42.518235304373555" lon="-8.294957593163213"><ele>739.0</ele><time>2026-04-18T10:04:21.999Z</time></trkpt><trkpt lat="42.51814201470189" lon="-8.294946352283606"><ele>739.0</ele><time>2026-04-18T10:04:22.999Z</time></trkpt><trkpt lat="42.51803987903138" lon="-8.294929625909859"><ele>739.0</ele><time>2026-04-18T10:04:23.999Z</time></trkpt><trkpt lat="42.517911457473836" lon="-8.294916662409236"><ele>739.0</ele><time>2026-04-18T10:04:24.999Z</time></trkpt><trkpt lat="42.517751485878904" lon="-8.29488564040766"><ele>740.0</ele><time>2026-04-18T10:04:25.999Z</time></trkpt><trkpt lat="42.51757554794684" lon="-8.294861297166914"><ele>741.0</ele><time>2026-04-18T10:04:26.999Z</time></trkpt><trkpt lat="42.51736841805301" lon="-8.294831677093425"><ele>742.0</ele><time>2026-04-18T10:04:27.999Z</time></trkpt><trkpt lat="42.51715250244081" lon="-8.294802793842303"><ele>741.6666666666667</ele><time>2026-04-18T10:04:28.999Z</time></trkpt><trkpt lat="42.516929895107694" lon="-8.294768389664961"><ele>741.3333333333334</ele><time>2026-04-18T10:04:29.999Z</time></trkpt><trkpt lat="42.51673656892576" lon="-8.294720955706818"><ele>741.0</ele><time>2026-04-18T10:04:30.999Z</time></trkpt><trkpt lat="42.51655322019092" lon="-8.294668746100484"><ele>746.3333333333334</ele><time>2026-04-18T10:04:31.999Z</time></trkpt><trkpt lat="42.51638503980062" lon="-8.294594691641903"><ele>751.6666666666667</ele><time>2026-04-18T10:04:32.999Z</time></trkpt><trkpt lat="42.516257912156775" lon="-8.294506141220927"><ele>757.0</ele><time>2026-04-18T10:04:33.999Z</time></trkpt><trkpt lat="42.516163781828425" lon="-8.294382034475397"><ele>757.0</ele><time>2026-04-18T10:04:34.999Z</time></trkpt><trkpt lat="42.51607946570707" lon="-8.29422754173055"><ele>757.0</ele><time>2026-04-18T10:04:35.999Z</time></trkpt><trkpt lat="42.515997492466944" lon="-8.294093300316467"><ele>757.0</ele><time>2026-04-18T10:04:36.999Z</time></trkpt><trkpt lat="42.51591263515629" lon="-8.294040504521583"><ele>757.0</ele><time>2026-04-18T10:04:37.999Z</time></trkpt><trkpt lat="42.51579552327857" lon="-8.294031966796506"><ele>757.0</ele><time>2026-04-18T10:04:38.999Z</time></trkpt><trkpt lat="42.51564399218556" lon="-8.294121289882119"><ele>757.0</ele><time>2026-04-18T10:04:39.999Z</time></trkpt><trkpt lat="42.51546487305381" lon="-8.294144907065508"><ele>757.0</ele><time>2026-04-18T10:04:40.999Z</time></trkpt><trkpt lat="42.51526182243837" lon="-8.294144898626072"><ele>758.0</ele><time>2026-04-18T10:04:41.999Z</time></trkpt><trkpt lat="42.51509023067591" lon="-8.294138644817348"><ele>759.0</ele><time>2026-04-18T10:04:42.999Z</time></trkpt><trkpt lat="42.514899716713195" lon="-8.294086300838854"><ele>760.0</ele><time>2026-04-18T10:04:43.999Z</time></trkpt><trkpt lat="42.514697890083326" lon="-8.293991613000086"><ele>765.0</ele><time>2026-04-18T10:04:44.999Z</time></trkpt><trkpt lat="42.5144913550139" lon="-8.293902845964972"><ele>770.0</ele><time>2026-04-18T10:04:45.999Z</time></trkpt><trkpt lat="42.51428274890375" lon="-8.293832217069447"><ele>775.0</ele><time>2026-04-18T10:04:46.999Z</time></trkpt><trkpt lat="42.51411429745465" lon="-8.293802546622278"><ele>775.0</ele><time>2026-04-18T10:04:47.999Z</time></trkpt><trkpt lat="42.5139583074736" lon="-8.293743910871477"><ele>775.0</ele><time>2026-04-18T10:04:48.999Z</time></trkpt><trkpt lat="42.5137735695626" lon="-8.29365954130984"><ele>775.0</ele><time>2026-04-18T10:04:49.999Z</time></trkpt><trkpt lat="42.51362373901043" lon="-8.293609310931005"><ele>774.8333333333333</ele><time>2026-04-18T10:04:50.999Z</time></trkpt><trkpt lat="42.513517250108464" lon="-8.29360850657461"><ele>774.6666666666666</ele><time>2026-04-18T10:04:51.999Z</time></trkpt><trkpt lat="42.513427125268656" lon="-8.293640483304133"><ele>774.5</ele><time>2026-04-18T10:04:52.999Z</time></trkpt><trkpt lat="42.513354778346056" lon="-8.293690527262196"><ele>774.3333333333333</ele><time>2026-04-18T10:04:53.999Z</time></trkpt><trkpt lat="42.513294371334965" lon="-8.29376993818638"><ele>774.1666666666666</ele><time>2026-04-18T10:04:54.999Z</time></trkpt><trkpt lat="42.513278079168614" lon="-8.293856204012222"><ele>774.0</ele><time>2026-04-18T10:04:55.999Z</time></trkpt><trkpt lat="42.51330066582259" lon="-8.293940241214523"><ele>773.5</ele><time>2026-04-18T10:04:56.999Z</time></trkpt><trkpt lat="42.513355196862214" lon="-8.294019463362414"><ele>773.0</ele><time>2026-04-18T10:04:57.999Z</time></trkpt><trkpt lat="42.5134371999694" lon="-8.294100434005031"><ele>772.5</ele><time>2026-04-18T10:04:58.999Z</time></trkpt><trkpt lat="42.513537268399006" lon="-8.294211312424794"><ele>772.0</ele><time>2026-04-18T10:04:59.999Z</time></trkpt><trkpt lat="42.51363129238879" lon="-8.294380497630744"><ele>772.0</ele><time>2026-04-18T10:05:00.999Z</time></trkpt><trkpt lat="42.51373354555403" lon="-8.294556019198689"><ele>772.0</ele><time>2026-04-18T10:05:01.999Z</time></trkpt><trkpt lat="42.51385278359502" lon="-8.294761225437874"><ele>772.0</ele><time>2026-04-18T10:05:02.999Z</time></trkpt><trkpt lat="42.513972498202435" lon="-8.294953297566682"><ele>769.6666666666666</ele><time>2026-04-18T10:05:03.999Z</time></trkpt><trkpt lat="42.51408436169052" lon="-8.295153149319521"><ele>767.3333333333333</ele><time>2026-04-18T10:05:04.999Z</time></trkpt><trkpt lat="42.51417938389018" lon="-8.295357368327775"><ele>765.0</ele><time>2026-04-18T10:05:05.999Z</time></trkpt><trkpt lat="42.51426277616301" lon="-8.295556248554956"><ele>766.25</ele><time>2026-04-18T10:05:06.999Z</time></trkpt><trkpt lat="42.51432094826661" lon="-8.295754573501073"><ele>767.5</ele><time>2026-04-18T10:05:07.999Z</time></trkpt><trkpt lat="42.514347407433206" lon="-8.295938312855295"><ele>768.75</ele><time>2026-04-18T10:05:08.999Z</time></trkpt><trkpt lat="42.51435983117591" lon="-8.296122517066424"><ele>770.0</ele><time>2026-04-18T10:05:09.999Z</time></trkpt><trkpt lat="42.5143691869005" lon="-8.296280171213821"><ele>770.0</ele><time>2026-04-18T10:05:10.999Z</time></trkpt><trkpt lat="42.514368236012444" lon="-8.296377090999442"><ele>770.0</ele><time>2026-04-18T10:05:11.999Z</time></trkpt><trkpt lat="42.51439591107107" lon="-8.29653621129309"><ele>770.0</ele><time>2026-04-18T10:05:13.999Z</time></trkpt><trkpt lat="42.51441232640777" lon="-8.296683204231128"><ele>770.0</ele><time>2026-04-18T10:05:14.999Z</time></trkpt><trkpt lat="42.51443044317961" lon="-8.296881152757251"><ele>770.0</ele><time>2026-04-18T10:05:15.999Z</time></trkpt><trkpt lat="42.51445777688736" lon="-8.297105528327226"><ele>766.3333333333334</ele><time>2026-04-18T10:05:16.999Z</time></trkpt><trkpt lat="42.51450944360959" lon="-8.297335958123968"><ele>762.6666666666667</ele><time>2026-04-18T10:05:17.999Z</time></trkpt><trkpt lat="42.51457669415998" lon="-8.297608497150229"><ele>759.0</ele><time>2026-04-18T10:05:18.999Z</time></trkpt><trkpt lat="42.514617125955624" lon="-8.297892104507671"><ele>757.3333333333334</ele><time>2026-04-18T10:05:19.999Z</time></trkpt><trkpt lat="42.514653421329506" lon="-8.298154130223336"><ele>755.6666666666667</ele><time>2026-04-18T10:05:20.999Z</time></trkpt><trkpt lat="42.51471328729337" lon="-8.298385676569476"><ele>754.0</ele><time>2026-04-18T10:05:21.999Z</time></trkpt><trkpt lat="42.51477000066715" lon="-8.298631865907197"><ele>754.0</ele><time>2026-04-18T10:05:22.999Z</time></trkpt><trkpt lat="42.51483395042128" lon="-8.298874285866047"><ele>754.0</ele><time>2026-04-18T10:05:23.999Z</time></trkpt><trkpt lat="42.514907166586184" lon="-8.299064580904247"><ele>754.0</ele><time>2026-04-18T10:05:24.999Z</time></trkpt><trkpt lat="42.51500075037261" lon="-8.299296229606025"><ele>752.0</ele><time>2026-04-18T10:05:25.999Z</time></trkpt><trkpt lat="42.51512562947229" lon="-8.299543790911926"><ele>750.0</ele><time>2026-04-18T10:05:26.999Z</time></trkpt><trkpt lat="42.51521882554311" lon="-8.29976471372313"><ele>748.0</ele><time>2026-04-18T10:05:27.999Z</time></trkpt><trkpt lat="42.515306663166946" lon="-8.2999798797621"><ele>746.3333333333334</ele><time>2026-04-18T10:05:28.999Z</time></trkpt><trkpt lat="42.515398324819294" lon="-8.300175290314039"><ele>744.6666666666666</ele><time>2026-04-18T10:05:29.999Z</time></trkpt><trkpt lat="42.51549663899673" lon="-8.300358613720707"><ele>743.0</ele><time>2026-04-18T10:05:30.999Z</time></trkpt><trkpt lat="42.51561341313876" lon="-8.300530585481106"><ele>738.3333333333333</ele><time>2026-04-18T10:05:31.999Z</time></trkpt><trkpt lat="42.515760171452285" lon="-8.300690710659177"><ele>733.6666666666666</ele><time>2026-04-18T10:05:32.999Z</time></trkpt><trkpt lat="42.515932049789704" lon="-8.300851295350453"><ele>729.0</ele><time>2026-04-18T10:05:33.999Z</time></trkpt><trkpt lat="42.516123764236724" lon="-8.301021652535349"><ele>727.0</ele><time>2026-04-18T10:05:34.998Z</time></trkpt><trkpt lat="42.516322433570785" lon="-8.3011923730324"><ele>725.0</ele><time>2026-04-18T10:05:35.998Z</time></trkpt><trkpt lat="42.516533278076686" lon="-8.301387051832979"><ele>719.0</ele><time>2026-04-18T10:05:36.998Z</time></trkpt><trkpt lat="42.51673671866426" lon="-8.301560689129843"><ele>713.0</ele><time>2026-04-18T10:05:37.998Z</time></trkpt><trkpt lat="42.516928286979926" lon="-8.301727613345319"><ele>712.5</ele><time>2026-04-18T10:05:38.998Z</time></trkpt><trkpt lat="42.51712005929517" lon="-8.301908574080974"><ele>712.0</ele><time>2026-04-18T10:05:39.998Z</time></trkpt><trkpt lat="42.517323793176196" lon="-8.302096150798816"><ele>707.3333333333334</ele><time>2026-04-18T10:05:40.998Z</time></trkpt><trkpt lat="42.51750601282171" lon="-8.302276515923031"><ele>702.6666666666666</ele><time>2026-04-18T10:05:41.998Z</time></trkpt><trkpt lat="42.51768142035545" lon="-8.302462147160544"><ele>698.0</ele><time>2026-04-18T10:05:42.998Z</time></trkpt><trkpt lat="42.51783194274224" lon="-8.302634033744441"><ele>698.3333333333333</ele><time>2026-04-18T10:05:43.998Z</time></trkpt><trkpt lat="42.51796482133118" lon="-8.302792256256206"><ele>698.6666666666666</ele><time>2026-04-18T10:05:44.998Z</time></trkpt><trkpt lat="42.51810683866097" lon="-8.302934598170058"><ele>699.0</ele><time>2026-04-18T10:05:45.998Z</time></trkpt><trkpt lat="42.51826536230316" lon="-8.30308182717962"><ele>694.6666666666666</ele><time>2026-04-18T10:05:46.998Z</time></trkpt><trkpt lat="42.51840722469326" lon="-8.303206733994923"><ele>690.3333333333333</ele><time>2026-04-18T10:05:48Z</time></trkpt><trkpt lat="42.51852208061549" lon="-8.303333725696477"><ele>686.0</ele><time>2026-04-18T10:05:49Z</time></trkpt><trkpt lat="42.51863350040415" lon="-8.303474761234849"><ele>684.6666666666666</ele><time>2026-04-18T10:05:50Z</time></trkpt><trkpt lat="42.518748022413625" lon="-8.303634064481493"><ele>683.3333333333334</ele><time>2026-04-18T10:05:51Z</time></trkpt><trkpt lat="42.51886962595513" lon="-8.303836369625218"><ele>682.0</ele><time>2026-04-18T10:05:52Z</time></trkpt><trkpt lat="42.51898761198891" lon="-8.304038983325123"><ele>678.6666666666667</ele><time>2026-04-18T10:05:53Z</time></trkpt><trkpt lat="42.519096095788555" lon="-8.304229359474695"><ele>675.3333333333334</ele><time>2026-04-18T10:05:54Z</time></trkpt><trkpt lat="42.519190971241855" lon="-8.304387584276641"><ele>672.0</ele><time>2026-04-18T10:05:55Z</time></trkpt><trkpt lat="42.51929598582715" lon="-8.304515652515265"><ele>672.0</ele><time>2026-04-18T10:05:56Z</time></trkpt><trkpt lat="42.519436671477244" lon="-8.304656468972269"><ele>672.0</ele><time>2026-04-18T10:05:57Z</time></trkpt><trkpt lat="42.51958747804798" lon="-8.30482214851483"><ele>672.0</ele><time>2026-04-18T10:05:58Z</time></trkpt><trkpt lat="42.51974216810255" lon="-8.305007263462688"><ele>667.3333333333334</ele><time>2026-04-18T10:05:59Z</time></trkpt><trkpt lat="42.51988139252715" lon="-8.305154398751277"><ele>662.6666666666667</ele><time>2026-04-18T10:06:00Z</time></trkpt><trkpt lat="42.52000083476746" lon="-8.305303290298989"><ele>658.0</ele><time>2026-04-18T10:06:01Z</time></trkpt><trkpt lat="42.5200974237456" lon="-8.305451866445193"><ele>656.2</ele><time>2026-04-18T10:06:02Z</time></trkpt><trkpt lat="42.520154040594555" lon="-8.305590699250011"><ele>654.4</ele><time>2026-04-18T10:06:03Z</time></trkpt><trkpt lat="42.52018583379171" lon="-8.305713496104953"><ele>652.6</ele><time>2026-04-18T10:06:04Z</time></trkpt><trkpt lat="42.52018220762465" lon="-8.305807096600835"><ele>650.8000000000001</ele><time>2026-04-18T10:06:05Z</time></trkpt><trkpt lat="42.52015167077426" lon="-8.30589983146557"><ele>649.0</ele><time>2026-04-18T10:06:06Z</time></trkpt><trkpt lat="42.52009710588534" lon="-8.30600789664196"><ele>649.0</ele><time>2026-04-18T10:06:07Z</time></trkpt><trkpt lat="42.51999649479586" lon="-8.306111299701476"><ele>649.0</ele><time>2026-04-18T10:06:08Z</time></trkpt><trkpt lat="42.51989412769919" lon="-8.306204815706874"><ele>649.0</ele><time>2026-04-18T10:06:09Z</time></trkpt><trkpt lat="42.51980184209642" lon="-8.306285663894272"><ele>649.0</ele><time>2026-04-18T10:06:10Z</time></trkpt><trkpt lat="42.51962173451917" lon="-8.306397433566872"><ele>646.25</ele><time>2026-04-18T10:06:11Z</time></trkpt><trkpt lat="42.51947154071222" lon="-8.306505689682327"><ele>643.5</ele><time>2026-04-18T10:06:12Z</time></trkpt><trkpt lat="42.519370057488004" lon="-8.306573584510062"><ele>640.75</ele><time>2026-04-18T10:06:13Z</time></trkpt><trkpt lat="42.51928717519879" lon="-8.306625995127241"><ele>638.0</ele><time>2026-04-18T10:06:14Z</time></trkpt><trkpt lat="42.51920373090703" lon="-8.306641566614935"><ele>638.0</ele><time>2026-04-18T10:06:15Z</time></trkpt><trkpt lat="42.519082041114956" lon="-8.306549041865429"><ele>638.0</ele><time>2026-04-18T10:06:17Z</time></trkpt><trkpt lat="42.519001677344804" lon="-8.306446710748666"><ele>638.0</ele><time>2026-04-18T10:06:18Z</time></trkpt><trkpt lat="42.518898374692846" lon="-8.306327861253953"><ele>638.0</ele><time>2026-04-18T10:06:19Z</time></trkpt><trkpt lat="42.51875941985281" lon="-8.306216534514085"><ele>643.0</ele><time>2026-04-18T10:06:20Z</time></trkpt><trkpt lat="42.51860285180885" lon="-8.306067640108576"><ele>648.0</ele><time>2026-04-18T10:06:21Z</time></trkpt><trkpt lat="42.51846554557113" lon="-8.3059491470121"><ele>653.0</ele><time>2026-04-18T10:06:22Z</time></trkpt><trkpt lat="42.518292533341345" lon="-8.305869612663846"><ele>653.0</ele><time>2026-04-18T10:06:23Z</time></trkpt><trkpt lat="42.51813677024004" lon="-8.305793986211992"><ele>653.0</ele><time>2026-04-18T10:06:24Z</time></trkpt><trkpt lat="42.517994052706754" lon="-8.30571037386249"><ele>653.0</ele><time>2026-04-18T10:06:25Z</time></trkpt><trkpt lat="42.51783994303585" lon="-8.30556379071521"><ele>654.0</ele><time>2026-04-18T10:06:26Z</time></trkpt><trkpt lat="42.517674100083795" lon="-8.305350600000457"><ele>655.0</ele><time>2026-04-18T10:06:27Z</time></trkpt><trkpt lat="42.51752140480488" lon="-8.305171672845725"><ele>656.0</ele><time>2026-04-18T10:06:27.999Z</time></trkpt><trkpt lat="42.51738933912836" lon="-8.30500577766512"><ele>656.0</ele><time>2026-04-18T10:06:28.999Z</time></trkpt><trkpt lat="42.5172605822049" lon="-8.304816404736238"><ele>656.0</ele><time>2026-04-18T10:06:29.999Z</time></trkpt><trkpt lat="42.51710644694696" lon="-8.304588648940513"><ele>656.0</ele><time>2026-04-18T10:06:30.999Z</time></trkpt><trkpt lat="42.516952507458136" lon="-8.304394564433498"><ele>657.6666666666666</ele><time>2026-04-18T10:06:31.999Z</time></trkpt><trkpt lat="42.51680302910055" lon="-8.304216169610738"><ele>659.3333333333334</ele><time>2026-04-18T10:06:32.999Z</time></trkpt><trkpt lat="42.51662216643905" lon="-8.304049310260648"><ele>661.0</ele><time>2026-04-18T10:06:33.999Z</time></trkpt><trkpt lat="42.516437761163886" lon="-8.30389940541122"><ele>665.5</ele><time>2026-04-18T10:06:34.999Z</time></trkpt><trkpt lat="42.51624195676755" lon="-8.30373099811032"><ele>670.0</ele><time>2026-04-18T10:06:35.999Z</time></trkpt><trkpt lat="42.51602579931891" lon="-8.303568565446456"><ele>670.0</ele><time>2026-04-18T10:06:36.999Z</time></trkpt><trkpt lat="42.515815601299074" lon="-8.303390851998177"><ele>670.0</ele><time>2026-04-18T10:06:37.999Z</time></trkpt><trkpt lat="42.515606307525275" lon="-8.303230802848924"><ele>670.0</ele><time>2026-04-18T10:06:38.999Z</time></trkpt><trkpt lat="42.51542045449625" lon="-8.30311481046771"><ele>670.0</ele><time>2026-04-18T10:06:39.999Z</time></trkpt><trkpt lat="42.515274884319865" lon="-8.30300539383444"><ele>670.0</ele><time>2026-04-18T10:06:40.999Z</time></trkpt><trkpt lat="42.51514469589422" lon="-8.30286251976637"><ele>675.3333333333334</ele><time>2026-04-18T10:06:41.999Z</time></trkpt><trkpt lat="42.51501918826924" lon="-8.3026634616857"><ele>680.6666666666666</ele><time>2026-04-18T10:06:42.999Z</time></trkpt><trkpt lat="42.51489719153097" lon="-8.302454601286817"><ele>686.0</ele><time>2026-04-18T10:06:43.999Z</time></trkpt><trkpt lat="42.51476248800238" lon="-8.302263426965004"><ele>689.3333333333333</ele><time>2026-04-18T10:06:44.999Z</time></trkpt><trkpt lat="42.51463377417173" lon="-8.302101139187624"><ele>692.6666666666666</ele><time>2026-04-18T10:06:45.999Z</time></trkpt><trkpt lat="42.51447526680473" lon="-8.301966637430514"><ele>696.0</ele><time>2026-04-18T10:06:46.999Z</time></trkpt><trkpt lat="42.5142989362334" lon="-8.301859751055348"><ele>696.0</ele><time>2026-04-18T10:06:47.999Z</time></trkpt><trkpt lat="42.514093862491755" lon="-8.301733861516643"><ele>696.0</ele><time>2026-04-18T10:06:48.999Z</time></trkpt><trkpt lat="42.51389336328823" lon="-8.301609636228983"><ele>696.0</ele><time>2026-04-18T10:06:49.999Z</time></trkpt><trkpt lat="42.51374503322994" lon="-8.301482391406369"><ele>699.6666666666666</ele><time>2026-04-18T10:06:50.999Z</time></trkpt><trkpt lat="42.51361058075621" lon="-8.301306621700613"><ele>703.3333333333333</ele><time>2026-04-18T10:06:51.999Z</time></trkpt><trkpt lat="42.513474780888615" lon="-8.301125875381333"><ele>707.0</ele><time>2026-04-18T10:06:52.999Z</time></trkpt><trkpt lat="42.5133835346379" lon="-8.30100326230312"><ele>707.0</ele><time>2026-04-18T10:06:53.999Z</time></trkpt><trkpt lat="42.51332657318932" lon="-8.300920587450877"><ele>707.0</ele><time>2026-04-18T10:06:54.999Z</time></trkpt><trkpt lat="42.5132532772259" lon="-8.3008506794189"><ele>707.0</ele><time>2026-04-18T10:06:56.999Z</time></trkpt><trkpt lat="42.51318335557175" lon="-8.300859974354568"><ele>707.0</ele><time>2026-04-18T10:06:57.999Z</time></trkpt><trkpt lat="42.513100080505076" lon="-8.300902647378896"><ele>707.0</ele><time>2026-04-18T10:06:58.999Z</time></trkpt><trkpt lat="42.51299653997979" lon="-8.300992708806838"><ele>707.0</ele><time>2026-04-18T10:06:59.999Z</time></trkpt><trkpt lat="42.51292334168655" lon="-8.301125615306878"><ele>707.0</ele><time>2026-04-18T10:07:00.999Z</time></trkpt><trkpt lat="42.51291796845579" lon="-8.301261081409118"><ele>707.0</ele><time>2026-04-18T10:07:01.999Z</time></trkpt><trkpt lat="42.51294419921848" lon="-8.301404665180346"><ele>707.0</ele><time>2026-04-18T10:07:02.999Z</time></trkpt><trkpt lat="42.51293598360569" lon="-8.301523542206711"><ele>707.0</ele><time>2026-04-18T10:07:03.999Z</time></trkpt><trkpt lat="42.51287032738507" lon="-8.301621976343272"><ele>708.4000000000001</ele><time>2026-04-18T10:07:04.999Z</time></trkpt><trkpt lat="42.512775046727704" lon="-8.301668296940448"><ele>709.8000000000001</ele><time>2026-04-18T10:07:05.999Z</time></trkpt><trkpt lat="42.51267775747087" lon="-8.301668915099503"><ele>711.2</ele><time>2026-04-18T10:07:06.999Z</time></trkpt><trkpt lat="42.512578552245664" lon="-8.301596222907015"><ele>712.6</ele><time>2026-04-18T10:07:07.999Z</time></trkpt><trkpt lat="42.51250208644005" lon="-8.301486426123363"><ele>714.0</ele><time>2026-04-18T10:07:08.999Z</time></trkpt><trkpt lat="42.51240880619088" lon="-8.301351573219977"><ele>715.6666666666666</ele><time>2026-04-18T10:07:09.999Z</time></trkpt><trkpt lat="42.512315149282244" lon="-8.30122151952931"><ele>717.3333333333333</ele><time>2026-04-18T10:07:10.999Z</time></trkpt><trkpt lat="42.51218264524631" lon="-8.300996706450713"><ele>719.0</ele><time>2026-04-18T10:07:11.999Z</time></trkpt><trkpt lat="42.51206409675584" lon="-8.300790579185401"><ele>724.3333333333333</ele><time>2026-04-18T10:07:12.999Z</time></trkpt><trkpt lat="42.51192906828601" lon="-8.300574526669884"><ele>729.6666666666666</ele><time>2026-04-18T10:07:13.999Z</time></trkpt><trkpt lat="42.51177798892435" lon="-8.30032983488919"><ele>735.0</ele><time>2026-04-18T10:07:14.999Z</time></trkpt><trkpt lat="42.51160755200821" lon="-8.300078675453314"><ele>735.0</ele><time>2026-04-18T10:07:15.999Z</time></trkpt><trkpt lat="42.51144038561926" lon="-8.299852273742676"><ele>735.0</ele><time>2026-04-18T10:07:16.999Z</time></trkpt><trkpt lat="42.511258017447794" lon="-8.299628373059647"><ele>738.0</ele><time>2026-04-18T10:07:17.999Z</time></trkpt><trkpt lat="42.51107882973098" lon="-8.299393811015664"><ele>741.0</ele><time>2026-04-18T10:07:18.999Z</time></trkpt><trkpt lat="42.510933226088206" lon="-8.299184564207987"><ele>741.0</ele><time>2026-04-18T10:07:19.999Z</time></trkpt><trkpt lat="42.510848400817004" lon="-8.299029884953347"><ele>741.0</ele><time>2026-04-18T10:07:20.999Z</time></trkpt><trkpt lat="42.51076006341178" lon="-8.298844393081499"><ele>741.0</ele><time>2026-04-18T10:07:21.999Z</time></trkpt><trkpt lat="42.510708513628025" lon="-8.2986990690123"><ele>741.0</ele><time>2026-04-18T10:07:22.999Z</time></trkpt><trkpt lat="42.5106714638416" lon="-8.298557448250474"><ele>743.3333333333334</ele><time>2026-04-18T10:07:23.999Z</time></trkpt><trkpt lat="42.510697674683996" lon="-8.29840718621237"><ele>745.6666666666667</ele><time>2026-04-18T10:07:24.999Z</time></trkpt><trkpt lat="42.51075022495128" lon="-8.298188881464938"><ele>748.0</ele><time>2026-04-18T10:07:25.999Z</time></trkpt><trkpt lat="42.510823148235474" lon="-8.297946607660244"><ele>750.0</ele><time>2026-04-18T10:07:26.999Z</time></trkpt><trkpt lat="42.51087680643706" lon="-8.297700093438994"><ele>752.0</ele><time>2026-04-18T10:07:27.999Z</time></trkpt><trkpt lat="42.51091953487756" lon="-8.297398772529245"><ele>754.0</ele><time>2026-04-18T10:07:28.999Z</time></trkpt><trkpt lat="42.51093175647875" lon="-8.297143947815695"><ele>757.3333333333334</ele><time>2026-04-18T10:07:29.999Z</time></trkpt><trkpt lat="42.51088667173938" lon="-8.296944758271149"><ele>760.6666666666666</ele><time>2026-04-18T10:07:30.999Z</time></trkpt><trkpt lat="42.51082668813534" lon="-8.296663970895292"><ele>764.0</ele><time>2026-04-18T10:07:31.999Z</time></trkpt><trkpt lat="42.510755518648125" lon="-8.296383930028327"><ele>769.5</ele><time>2026-04-18T10:07:32.999Z</time></trkpt><trkpt lat="42.51069139580043" lon="-8.296080796875351"><ele>775.0</ele><time>2026-04-18T10:07:33.999Z</time></trkpt><trkpt lat="42.51063400527055" lon="-8.29579227083109"><ele>777.0</ele><time>2026-04-18T10:07:34.999Z</time></trkpt><trkpt lat="42.51058584503834" lon="-8.29555881608765"><ele>779.0</ele><time>2026-04-18T10:07:35.999Z</time></trkpt><trkpt lat="42.510546898551524" lon="-8.295372022585278"><ele>781.0</ele><time>2026-04-18T10:07:36.999Z</time></trkpt><trkpt lat="42.510478974775914" lon="-8.295240904763808"><ele>783.0</ele><time>2026-04-18T10:07:37.999Z</time></trkpt><trkpt lat="42.51036566062212" lon="-8.295156911121037"><ele>783.0</ele><time>2026-04-18T10:07:38.999Z</time></trkpt><trkpt lat="42.510259585626315" lon="-8.29507257766735"><ele>783.0</ele><time>2026-04-18T10:07:39.999Z</time></trkpt><trkpt lat="42.510144343884825" lon="-8.294917776293998"><ele>783.0</ele><time>2026-04-18T10:07:40.999Z</time></trkpt><trkpt lat="42.50999168894759" lon="-8.294952580671069"><ele>783.0</ele><time>2026-04-18T10:07:41.999Z</time></trkpt><trkpt lat="42.509924958998916" lon="-8.295047614954706"><ele>783.0</ele><time>2026-04-18T10:07:42.999Z</time></trkpt><trkpt lat="42.5099108408882" lon="-8.295205566361208"><ele>783.0</ele><time>2026-04-18T10:07:43.999Z</time></trkpt><trkpt lat="42.50987503610693" lon="-8.295356173549866"><ele>783.0</ele><time>2026-04-18T10:07:44.999Z</time></trkpt><trkpt lat="42.50976337533344" lon="-8.295588128392122"><ele>783.0</ele><time>2026-04-18T10:07:45.999Z</time></trkpt><trkpt lat="42.50965191740224" lon="-8.295732643710496"><ele>783.0</ele><time>2026-04-18T10:07:46.999Z</time></trkpt><trkpt lat="42.50958811121263" lon="-8.295768529941784"><ele>783.0</ele><time>2026-04-18T10:07:47.999Z</time></trkpt><trkpt lat="42.50948512297821" lon="-8.29593603353478"><ele>783.0</ele><time>2026-04-18T10:07:50.998Z</time></trkpt><trkpt lat="42.50942169466185" lon="-8.296062425092101"><ele>783.0</ele><time>2026-04-18T10:07:51.998Z</time></trkpt><trkpt lat="42.50935017428863" lon="-8.296155975055466"><ele>783.0</ele><time>2026-04-18T10:07:52.998Z</time></trkpt><trkpt lat="42.50927024240883" lon="-8.296214338196755"><ele>783.0</ele><time>2026-04-18T10:07:54Z</time></trkpt><trkpt lat="42.50915377511672" lon="-8.296213502415426"><ele>783.0</ele><time>2026-04-18T10:07:55Z</time></trkpt><trkpt lat="42.50901231025807" lon="-8.296219035241192"><ele>783.0</ele><time>2026-04-18T10:07:56Z</time></trkpt><trkpt lat="42.508853207523146" lon="-8.296233271547633"><ele>783.0</ele><time>2026-04-18T10:07:57Z</time></trkpt><trkpt lat="42.5086458777994" lon="-8.296292662480463"><ele>786.5</ele><time>2026-04-18T10:07:58Z</time></trkpt><trkpt lat="42.50848636962483" lon="-8.296292373039089"><ele>790.0</ele><time>2026-04-18T10:07:59Z</time></trkpt><trkpt lat="42.508201727241094" lon="-8.296381491968665"><ele>785.0</ele><time>2026-04-18T10:08:00Z</time></trkpt><trkpt lat="42.507995992190295" lon="-8.296441706306855"><ele>780.0</ele><time>2026-04-18T10:08:01Z</time></trkpt><trkpt lat="42.507789688717416" lon="-8.29652074076667"><ele>775.0</ele><time>2026-04-18T10:08:02Z</time></trkpt><trkpt lat="42.50760504404033" lon="-8.296609598211818"><ele>775.0</ele><time>2026-04-18T10:08:03Z</time></trkpt><trkpt lat="42.507513634557895" lon="-8.296643308456924"><ele>775.0</ele><time>2026-04-18T10:08:04Z</time></trkpt><trkpt lat="42.50738287469473" lon="-8.296699246283307"><ele>775.0</ele><time>2026-04-18T10:08:05Z</time></trkpt><trkpt lat="42.50727786424193" lon="-8.296772943364273"><ele>775.0</ele><time>2026-04-18T10:08:06Z</time></trkpt><trkpt lat="42.50719000164441" lon="-8.296873864393383"><ele>775.0</ele><time>2026-04-18T10:08:07Z</time></trkpt><trkpt lat="42.50712421230229" lon="-8.296944438308012"><ele>775.0</ele><time>2026-04-18T10:08:08Z</time></trkpt><trkpt lat="42.50704888583287" lon="-8.296979378086114"><ele>775.0</ele><time>2026-04-18T10:08:09Z</time></trkpt><trkpt lat="42.506988104967995" lon="-8.296924444985732"><ele>775.0</ele><time>2026-04-18T10:08:10Z</time></trkpt><trkpt lat="42.50691310408657" lon="-8.296831320981818"><ele>775.0</ele><time>2026-04-18T10:08:11Z</time></trkpt><trkpt lat="42.50681114801021" lon="-8.296724997432218"><ele>773.0</ele><time>2026-04-18T10:08:12Z</time></trkpt><trkpt lat="42.5066401919268" lon="-8.296596441253165"><ele>771.0</ele><time>2026-04-18T10:08:13Z</time></trkpt><trkpt lat="42.5064985131225" lon="-8.296496095147583"><ele>769.0</ele><time>2026-04-18T10:08:14Z</time></trkpt><trkpt lat="42.50636103136389" lon="-8.296386038778799"><ele>774.25</ele><time>2026-04-18T10:08:15Z</time></trkpt><trkpt lat="42.50623743877826" lon="-8.296262767056223"><ele>779.5</ele><time>2026-04-18T10:08:16Z</time></trkpt><trkpt lat="42.506115249959464" lon="-8.296155479461664"><ele>784.75</ele><time>2026-04-18T10:08:17Z</time></trkpt><trkpt lat="42.50602504028221" lon="-8.296086950011727"><ele>790.0</ele><time>2026-04-18T10:08:18Z</time></trkpt><trkpt lat="42.50594996056281" lon="-8.296087292216106"><ele>790.0</ele><time>2026-04-18T10:08:20Z</time></trkpt><trkpt lat="42.505855582474005" lon="-8.296168548153517"><ele>790.0</ele><time>2026-04-18T10:08:21Z</time></trkpt><trkpt lat="42.505757828163986" lon="-8.296288109256228"><ele>790.0</ele><time>2026-04-18T10:08:22Z</time></trkpt><trkpt lat="42.50566113262233" lon="-8.296401195312537"><ele>790.0</ele><time>2026-04-18T10:08:23Z</time></trkpt><trkpt lat="42.505528681903435" lon="-8.296481734828179"><ele>786.0</ele><time>2026-04-18T10:08:24Z</time></trkpt><trkpt lat="42.50537306838104" lon="-8.29654343736217"><ele>782.0</ele><time>2026-04-18T10:08:25Z</time></trkpt><trkpt lat="42.50519526337738" lon="-8.296568999594"><ele>778.0</ele><time>2026-04-18T10:08:26Z</time></trkpt><trkpt lat="42.50499853608188" lon="-8.29657671314755"><ele>778.0</ele><time>2026-04-18T10:08:27Z</time></trkpt><trkpt lat="42.50485755113759" lon="-8.296605333022775"><ele>778.0</ele><time>2026-04-18T10:08:28Z</time></trkpt><trkpt lat="42.50476104560947" lon="-8.296648352755248"><ele>778.0</ele><time>2026-04-18T10:08:29Z</time></trkpt><trkpt lat="42.50464036662852" lon="-8.296686919437679"><ele>778.0</ele><time>2026-04-18T10:08:30Z</time></trkpt><trkpt lat="42.504546330175344" lon="-8.297000657500147"><ele>782.0</ele><time>2026-04-18T10:08:31Z</time></trkpt><trkpt lat="42.504445288267696" lon="-8.297178890132471"><ele>786.0</ele><time>2026-04-18T10:08:32Z</time></trkpt><trkpt lat="42.504382023257925" lon="-8.29735448537004"><ele>790.0</ele><time>2026-04-18T10:08:33Z</time></trkpt><trkpt lat="42.50437438789336" lon="-8.2975716215998"><ele>790.0</ele><time>2026-04-18T10:08:34Z</time></trkpt><trkpt lat="42.50439653020391" lon="-8.297771697840346"><ele>790.0</ele><time>2026-04-18T10:08:35Z</time></trkpt><trkpt lat="42.50441587449282" lon="-8.297929458711897"><ele>790.0</ele><time>2026-04-18T10:08:36Z</time></trkpt><trkpt lat="42.50437154145503" lon="-8.298007512745997"><ele>790.0</ele><time>2026-04-18T10:08:36.999Z</time></trkpt><trkpt lat="42.50430859698502" lon="-8.298042321583337"><ele>790.0</ele><time>2026-04-18T10:08:37.999Z</time></trkpt><trkpt lat="42.50421074767264" lon="-8.298108943360484"><ele>788.6666666666666</ele><time>2026-04-18T10:08:38.999Z</time></trkpt><trkpt lat="42.50408224829849" lon="-8.29814501926981"><ele>787.3333333333333</ele><time>2026-04-18T10:08:39.999Z</time></trkpt><trkpt lat="42.50389195795985" lon="-8.298198592391547"><ele>786.0</ele><time>2026-04-18T10:08:40.999Z</time></trkpt><trkpt lat="42.50369495790479" lon="-8.298246787399206"><ele>786.0</ele><time>2026-04-18T10:08:41.999Z</time></trkpt><trkpt lat="42.50345873535036" lon="-8.298294346238793"><ele>786.0</ele><time>2026-04-18T10:08:42.999Z</time></trkpt><trkpt lat="42.50323184888559" lon="-8.298337455698688"><ele>786.0</ele><time>2026-04-18T10:08:43.999Z</time></trkpt><trkpt lat="42.503007854213095" lon="-8.298380346628516"><ele>786.0</ele><time>2026-04-18T10:08:44.999Z</time></trkpt><trkpt lat="42.50275915457367" lon="-8.298422805619566"><ele>792.5</ele><time>2026-04-18T10:08:45.999Z</time></trkpt><trkpt lat="42.50249632912277" lon="-8.298455082360451"><ele>799.0</ele><time>2026-04-18T10:08:46.999Z</time></trkpt><trkpt lat="42.50223438066948" lon="-8.298479020869902"><ele>800.6666666666666</ele><time>2026-04-18T10:08:47.999Z</time></trkpt><trkpt lat="42.50197363981987" lon="-8.29849771268024"><ele>802.3333333333333</ele><time>2026-04-18T10:08:48.999Z</time></trkpt><trkpt lat="42.50178992173703" lon="-8.298488181621625"><ele>804.0</ele><time>2026-04-18T10:08:49.999Z</time></trkpt><trkpt lat="42.501560574388556" lon="-8.298504486429463"><ele>804.0</ele><time>2026-04-18T10:08:50.999Z</time></trkpt><trkpt lat="42.50134845167369" lon="-8.298537121226984"><ele>804.0</ele><time>2026-04-18T10:08:51.999Z</time></trkpt><trkpt lat="42.50117064528743" lon="-8.298589084633559"><ele>804.0</ele><time>2026-04-18T10:08:52.999Z</time></trkpt><trkpt lat="42.50098951756747" lon="-8.298695735536182"><ele>801.6666666666667</ele><time>2026-04-18T10:08:53.999Z</time></trkpt><trkpt lat="42.50085702232456" lon="-8.298799507077133"><ele>799.3333333333334</ele><time>2026-04-18T10:08:54.999Z</time></trkpt><trkpt lat="42.50076107651461" lon="-8.298951359591584"><ele>797.0</ele><time>2026-04-18T10:08:55.999Z</time></trkpt><trkpt lat="42.500688781757304" lon="-8.299182219981093"><ele>797.0</ele><time>2026-04-18T10:08:56.999Z</time></trkpt><trkpt lat="42.50064138713735" lon="-8.299438280804358"><ele>797.0</ele><time>2026-04-18T10:08:57.999Z</time></trkpt><trkpt lat="42.50059871738895" lon="-8.299674222770825"><ele>797.0</ele><time>2026-04-18T10:08:58.999Z</time></trkpt><trkpt lat="42.50053338948935" lon="-8.29983748945963"><ele>794.3333333333334</ele><time>2026-04-18T10:08:59.999Z</time></trkpt><trkpt lat="42.50045059280645" lon="-8.29998412214955"><ele>791.6666666666667</ele><time>2026-04-18T10:09:00.999Z</time></trkpt><trkpt lat="42.500350787341446" lon="-8.300126570680353"><ele>789.0</ele><time>2026-04-18T10:09:01.999Z</time></trkpt><trkpt lat="42.500191663598045" lon="-8.300281433276474"><ele>791.6666666666667</ele><time>2026-04-18T10:09:02.999Z</time></trkpt><trkpt lat="42.50006062035219" lon="-8.30043821587787"><ele>794.3333333333334</ele><time>2026-04-18T10:09:03.999Z</time></trkpt><trkpt lat="42.49991224147188" lon="-8.300677429978855"><ele>797.0</ele><time>2026-04-18T10:09:04.999Z</time></trkpt><trkpt lat="42.49976665298216" lon="-8.30094196815078"><ele>797.0</ele><time>2026-04-18T10:09:05.999Z</time></trkpt><trkpt lat="42.49962892411412" lon="-8.301208609536733"><ele>797.0</ele><time>2026-04-18T10:09:06.999Z</time></trkpt><trkpt lat="42.499504798042025" lon="-8.301463051709927"><ele>797.0</ele><time>2026-04-18T10:09:07.999Z</time></trkpt><trkpt lat="42.49941903451605" lon="-8.301632138221384"><ele>797.0</ele><time>2026-04-18T10:09:08.999Z</time></trkpt><trkpt lat="42.49933080399196" lon="-8.30176612459987"><ele>797.0</ele><time>2026-04-18T10:09:09.999Z</time></trkpt><trkpt lat="42.49925810909273" lon="-8.301894476835761"><ele>797.0</ele><time>2026-04-18T10:09:10.999Z</time></trkpt><trkpt lat="42.4991948052139" lon="-8.30199303097985"><ele>797.0000000000001</ele><time>2026-04-18T10:09:11.999Z</time></trkpt><trkpt lat="42.499143532803956" lon="-8.302089273606983"><ele>797.0</ele><time>2026-04-18T10:09:12.999Z</time></trkpt><trkpt lat="42.499105430326715" lon="-8.30223443484266"><ele>797.0</ele><time>2026-04-18T10:09:14.999Z</time></trkpt><trkpt lat="42.49912920636207" lon="-8.302333340645552"><ele>797.0</ele><time>2026-04-18T10:09:15.999Z</time></trkpt><trkpt lat="42.49918550384452" lon="-8.302417935377305"><ele>797.0000000000001</ele><time>2026-04-18T10:09:16.999Z</time></trkpt><trkpt lat="42.499123956852856" lon="-8.302446604759089"><ele>797.0</ele><time>2026-04-18T10:09:19.999Z</time></trkpt><trkpt lat="42.49905753107006" lon="-8.302388809864487"><ele>795.8</ele><time>2026-04-18T10:09:20.999Z</time></trkpt><trkpt lat="42.49898229524979" lon="-8.302404069683881"><ele>794.6</ele><time>2026-04-18T10:09:22.999Z</time></trkpt><trkpt lat="42.498985271592666" lon="-8.30249897926155"><ele>793.4</ele><time>2026-04-18T10:09:23.999Z</time></trkpt><trkpt lat="42.499031703459075" lon="-8.30260990211167"><ele>792.1999999999999</ele><time>2026-04-18T10:09:24.999Z</time></trkpt><trkpt lat="42.499093055387455" lon="-8.30275198723931"><ele>791.0</ele><time>2026-04-18T10:09:25.999Z</time></trkpt><trkpt lat="42.499138988746914" lon="-8.302908526506698"><ele>791.0</ele><time>2026-04-18T10:09:26.999Z</time></trkpt><trkpt lat="42.49916174433667" lon="-8.30307799239883"><ele>791.0</ele><time>2026-04-18T10:09:27.999Z</time></trkpt><trkpt lat="42.49918651225336" lon="-8.303258587879279"><ele>791.0</ele><time>2026-04-18T10:09:28.999Z</time></trkpt><trkpt lat="42.49920695930309" lon="-8.303446678977377"><ele>791.0</ele><time>2026-04-18T10:09:29.999Z</time></trkpt><trkpt lat="42.49922239412211" lon="-8.30364507354529"><ele>791.0</ele><time>2026-04-18T10:09:30.999Z</time></trkpt><trkpt lat="42.499255038052716" lon="-8.303870329401951"><ele>791.0</ele><time>2026-04-18T10:09:31.999Z</time></trkpt><trkpt lat="42.49929971411414" lon="-8.304073917591296"><ele>791.0</ele><time>2026-04-18T10:09:32.999Z</time></trkpt><trkpt lat="42.49936595619999" lon="-8.30425319446977"><ele>791.0</ele><time>2026-04-18T10:09:33.999Z</time></trkpt><trkpt lat="42.499366404427946" lon="-8.30440100530115"><ele>791.0</ele><time>2026-04-18T10:09:35.999Z</time></trkpt><trkpt lat="42.499312383090434" lon="-8.304677236741504"><ele>791.0</ele><time>2026-04-18T10:09:36.999Z</time></trkpt><trkpt lat="42.49925305581603" lon="-8.304893032929009"><ele>793.6666666666667</ele><time>2026-04-18T10:09:37.999Z</time></trkpt><trkpt lat="42.49917783052266" lon="-8.305095441785596"><ele>796.3333333333333</ele><time>2026-04-18T10:09:38.999Z</time></trkpt><trkpt lat="42.49907342985862" lon="-8.305268867433501"><ele>799.0</ele><time>2026-04-18T10:09:39.999Z</time></trkpt><trkpt lat="42.49896837946183" lon="-8.305437084987442"><ele>800.0</ele><time>2026-04-18T10:09:40.999Z</time></trkpt><trkpt lat="42.498876971573935" lon="-8.305600563853359"><ele>801.0</ele><time>2026-04-18T10:09:41.999Z</time></trkpt><trkpt lat="42.498786381334504" lon="-8.305798687042547"><ele>802.0</ele><time>2026-04-18T10:09:42.999Z</time></trkpt><trkpt lat="42.49868419529231" lon="-8.306037642274863"><ele>804.3333333333333</ele><time>2026-04-18T10:09:43.999Z</time></trkpt><trkpt lat="42.49858681875826" lon="-8.306253006170444"><ele>806.6666666666667</ele><time>2026-04-18T10:09:44.999Z</time></trkpt><trkpt lat="42.49849416260147" lon="-8.306474578637134"><ele>809.0</ele><time>2026-04-18T10:09:45.999Z</time></trkpt><trkpt lat="42.49840036162047" lon="-8.306753694882355"><ele>809.3333333333334</ele><time>2026-04-18T10:09:46.999Z</time></trkpt><trkpt lat="42.49829660977151" lon="-8.306971329089219"><ele>809.6666666666667</ele><time>2026-04-18T10:09:47.999Z</time></trkpt><trkpt lat="42.498165568201976" lon="-8.30718918782542"><ele>810.0</ele><time>2026-04-18T10:09:48.999Z</time></trkpt><trkpt lat="42.49806815398752" lon="-8.307400641656812"><ele>810.0</ele><time>2026-04-18T10:09:49.999Z</time></trkpt><trkpt lat="42.497979910342856" lon="-8.307585307586994"><ele>810.0</ele><time>2026-04-18T10:09:50.999Z</time></trkpt><trkpt lat="42.49784687450112" lon="-8.307773900747232"><ele>810.0</ele><time>2026-04-18T10:09:51.999Z</time></trkpt><trkpt lat="42.49771409487373" lon="-8.307942896862668"><ele>812.0</ele><time>2026-04-18T10:09:52.999Z</time></trkpt><trkpt lat="42.497619608539914" lon="-8.308076941697173"><ele>814.0</ele><time>2026-04-18T10:09:53.999Z</time></trkpt><trkpt lat="42.497561398257254" lon="-8.308190123476756"><ele>816.0</ele><time>2026-04-18T10:09:54.999Z</time></trkpt><trkpt lat="42.497532770433494" lon="-8.308328967102863"><ele>818.0</ele><time>2026-04-18T10:09:55.999Z</time></trkpt><trkpt lat="42.49748677185855" lon="-8.308464961436092"><ele>818.0</ele><time>2026-04-18T10:09:56.999Z</time></trkpt><trkpt lat="42.49747861723035" lon="-8.308674762385506"><ele>818.0</ele><time>2026-04-18T10:09:57.999Z</time></trkpt><trkpt lat="42.497439536172074" lon="-8.30884884690233"><ele>818.0</ele><time>2026-04-18T10:09:58.999Z</time></trkpt><trkpt lat="42.49744483199444" lon="-8.309003547940911"><ele>818.0</ele><time>2026-04-18T10:10:00Z</time></trkpt><trkpt lat="42.49740963356103" lon="-8.309145839694319"><ele>819.8</ele><time>2026-04-18T10:10:01Z</time></trkpt><trkpt lat="42.497358682399295" lon="-8.309271902297223"><ele>821.5999999999999</ele><time>2026-04-18T10:10:03Z</time></trkpt><trkpt lat="42.497293661772666" lon="-8.309228521617504"><ele>823.4000000000001</ele><time>2026-04-18T10:10:05Z</time></trkpt><trkpt lat="42.49720964220242" lon="-8.309195284488545"><ele>825.2</ele><time>2026-04-18T10:10:06Z</time></trkpt><trkpt lat="42.49705951040548" lon="-8.309183972449027"><ele>827.0</ele><time>2026-04-18T10:10:07Z</time></trkpt><trkpt lat="42.49691728478154" lon="-8.309194298372317"><ele>828.3333333333334</ele><time>2026-04-18T10:10:08Z</time></trkpt><trkpt lat="42.496773725727024" lon="-8.30923550584732"><ele>829.6666666666667</ele><time>2026-04-18T10:10:09Z</time></trkpt><trkpt lat="42.49660670071719" lon="-8.309285372731477"><ele>831.0</ele><time>2026-04-18T10:10:10Z</time></trkpt><trkpt lat="42.4964806931316" lon="-8.309400552180472"><ele>831.0</ele><time>2026-04-18T10:10:11Z</time></trkpt><trkpt lat="42.496358993298486" lon="-8.309540262793814"><ele>831.0</ele><time>2026-04-18T10:10:12Z</time></trkpt><trkpt lat="42.4962556680957" lon="-8.309684660865887"><ele>831.0</ele><time>2026-04-18T10:10:13Z</time></trkpt><trkpt lat="42.49613250872292" lon="-8.309800419056662"><ele>833.3333333333333</ele><time>2026-04-18T10:10:14Z</time></trkpt><trkpt lat="42.49599401984698" lon="-8.309906704624195"><ele>835.6666666666666</ele><time>2026-04-18T10:10:15Z</time></trkpt><trkpt lat="42.49583164798274" lon="-8.310017666713318"><ele>838.0</ele><time>2026-04-18T10:10:16Z</time></trkpt><trkpt lat="42.495656499275626" lon="-8.310130789529277"><ele>838.0</ele><time>2026-04-18T10:10:17Z</time></trkpt><trkpt lat="42.49550090981545" lon="-8.310249856709078"><ele>838.0</ele><time>2026-04-18T10:10:18Z</time></trkpt><trkpt lat="42.495393363539236" lon="-8.310357769776848"><ele>838.0</ele><time>2026-04-18T10:10:19Z</time></trkpt><trkpt lat="42.495306656608676" lon="-8.310479773157912"><ele>838.0</ele><time>2026-04-18T10:10:20Z</time></trkpt><trkpt lat="42.495224955416866" lon="-8.310628669572935"><ele>836.6666666666666</ele><time>2026-04-18T10:10:21Z</time></trkpt><trkpt lat="42.49513763983288" lon="-8.310811172199497"><ele>835.3333333333333</ele><time>2026-04-18T10:10:22Z</time></trkpt><trkpt lat="42.495062797102996" lon="-8.311013113528666"><ele>834.0</ele><time>2026-04-18T10:10:23Z</time></trkpt><trkpt lat="42.49499370066962" lon="-8.311222974337028"><ele>834.0</ele><time>2026-04-18T10:10:24Z</time></trkpt><trkpt lat="42.49493311761992" lon="-8.311388230597965"><ele>834.0</ele><time>2026-04-18T10:10:25Z</time></trkpt><trkpt lat="42.494882991185825" lon="-8.311503219865088"><ele>834.0</ele><time>2026-04-18T10:10:26Z</time></trkpt><trkpt lat="42.49482758068614" lon="-8.311575394274291"><ele>834.0</ele><time>2026-04-18T10:10:27Z</time></trkpt><trkpt lat="42.49468766723568" lon="-8.311590769829763"><ele>832.75</ele><time>2026-04-18T10:10:29Z</time></trkpt><trkpt lat="42.49458297743878" lon="-8.311634867996654"><ele>831.5</ele><time>2026-04-18T10:10:30Z</time></trkpt><trkpt lat="42.49449583509255" lon="-8.311707511375365"><ele>830.25</ele><time>2026-04-18T10:10:31Z</time></trkpt><trkpt lat="42.49441529816778" lon="-8.311816375866647"><ele>829.0</ele><time>2026-04-18T10:10:32Z</time></trkpt><trkpt lat="42.49431078072529" lon="-8.311969765131007"><ele>829.0</ele><time>2026-04-18T10:10:33Z</time></trkpt><trkpt lat="42.49420182543705" lon="-8.312154809902774"><ele>829.0</ele><time>2026-04-18T10:10:34Z</time></trkpt><trkpt lat="42.49409394037802" lon="-8.312365054312718"><ele>829.0</ele><time>2026-04-18T10:10:35Z</time></trkpt><trkpt lat="42.49401399599789" lon="-8.31259116818337"><ele>833.0</ele><time>2026-04-18T10:10:36Z</time></trkpt><trkpt lat="42.49395999870231" lon="-8.312816635565595"><ele>837.0</ele><time>2026-04-18T10:10:37Z</time></trkpt><trkpt lat="42.493930070262174" lon="-8.313033004070313"><ele>841.0</ele><time>2026-04-18T10:10:38Z</time></trkpt><trkpt lat="42.49391008863263" lon="-8.313282273014517"><ele>843.0</ele><time>2026-04-18T10:10:39Z</time></trkpt><trkpt lat="42.493887859757336" lon="-8.313541423002809"><ele>845.0</ele><time>2026-04-18T10:10:40Z</time></trkpt><trkpt lat="42.49388338766712" lon="-8.313768227773858"><ele>847.0</ele><time>2026-04-18T10:10:41Z</time></trkpt><trkpt lat="42.49388780342881" lon="-8.313992799693"><ele>847.4000000000001</ele><time>2026-04-18T10:10:42Z</time></trkpt><trkpt lat="42.49388119810194" lon="-8.314174266173742"><ele>847.8000000000001</ele><time>2026-04-18T10:10:43Z</time></trkpt><trkpt lat="42.49385110991707" lon="-8.314277916723398"><ele>848.2</ele><time>2026-04-18T10:10:44Z</time></trkpt><trkpt lat="42.4938015512917" lon="-8.314371320771556"><ele>848.6</ele><time>2026-04-18T10:10:45Z</time></trkpt><trkpt lat="42.49370557848641" lon="-8.314422717976958"><ele>849.0</ele><time>2026-04-18T10:10:46Z</time></trkpt><trkpt lat="42.493589809262815" lon="-8.314454895370766"><ele>847.25</ele><time>2026-04-18T10:10:47Z</time></trkpt><trkpt lat="42.493462021201125" lon="-8.314546262597936"><ele>845.5</ele><time>2026-04-18T10:10:48Z</time></trkpt><trkpt lat="42.493355387899356" lon="-8.314670363430498"><ele>843.75</ele><time>2026-04-18T10:10:49Z</time></trkpt><trkpt lat="42.493277255241885" lon="-8.314794672531116"><ele>842.0</ele><time>2026-04-18T10:10:50Z</time></trkpt><trkpt lat="42.49318513889887" lon="-8.314934564617012"><ele>842.0</ele><time>2026-04-18T10:10:51Z</time></trkpt><trkpt lat="42.493053059023765" lon="-8.315130836207857"><ele>842.0</ele><time>2026-04-18T10:10:52Z</time></trkpt><trkpt lat="42.4929350382154" lon="-8.315330531161413"><ele>842.0</ele><time>2026-04-18T10:10:52.999Z</time></trkpt><trkpt lat="42.492861111766416" lon="-8.315452667167994"><ele>840.25</ele><time>2026-04-18T10:10:53.999Z</time></trkpt><trkpt lat="42.49282423477745" lon="-8.315584526899881"><ele>838.5</ele><time>2026-04-18T10:10:54.999Z</time></trkpt><trkpt lat="42.49277232978864" lon="-8.315787560151303"><ele>836.75</ele><time>2026-04-18T10:10:55.999Z</time></trkpt><trkpt lat="42.49271439295858" lon="-8.315976963578745"><ele>835.0</ele><time>2026-04-18T10:10:56.999Z</time></trkpt><trkpt lat="42.492668930062045" lon="-8.316078978296034"><ele>835.0</ele><time>2026-04-18T10:10:57.999Z</time></trkpt><trkpt lat="42.492508265058106" lon="-8.316105038395287"><ele>835.0</ele><time>2026-04-18T10:10:59.999Z</time></trkpt><trkpt lat="42.49236266624871" lon="-8.316088870042162"><ele>835.0</ele><time>2026-04-18T10:11:00.999Z</time></trkpt><trkpt lat="42.49219980824218" lon="-8.316085772098615"><ele>831.3333333333333</ele><time>2026-04-18T10:11:01.999Z</time></trkpt><trkpt lat="42.49202542387515" lon="-8.316086325928904"><ele>827.6666666666667</ele><time>2026-04-18T10:11:02.999Z</time></trkpt><trkpt lat="42.49185965647279" lon="-8.316122001963091"><ele>824.0</ele><time>2026-04-18T10:11:03.999Z</time></trkpt><trkpt lat="42.49170128436264" lon="-8.316198278839128"><ele>824.0</ele><time>2026-04-18T10:11:04.999Z</time></trkpt><trkpt lat="42.49152282990779" lon="-8.316315275356478"><ele>824.0</ele><time>2026-04-18T10:11:05.999Z</time></trkpt><trkpt lat="42.49134798113639" lon="-8.316413270579252"><ele>824.0</ele><time>2026-04-18T10:11:06.999Z</time></trkpt><trkpt lat="42.491201292439975" lon="-8.316480296388761"><ele>828.5</ele><time>2026-04-18T10:11:07.999Z</time></trkpt><trkpt lat="42.491081602001124" lon="-8.316507112519645"><ele>833.0</ele><time>2026-04-18T10:11:08.999Z</time></trkpt><trkpt lat="42.49093414535272" lon="-8.31647855921132"><ele>837.5</ele><time>2026-04-18T10:11:09.999Z</time></trkpt><trkpt lat="42.490764951617166" lon="-8.316432841412416"><ele>842.0</ele><time>2026-04-18T10:11:10.999Z</time></trkpt><trkpt lat="42.49062303604109" lon="-8.316418333691834"><ele>842.0</ele><time>2026-04-18T10:11:11.999Z</time></trkpt><trkpt lat="42.490498661970214" lon="-8.316481266102754"><ele>842.0</ele><time>2026-04-18T10:11:12.999Z</time></trkpt><trkpt lat="42.49035699379677" lon="-8.31652726569573"><ele>842.0</ele><time>2026-04-18T10:11:13.999Z</time></trkpt><trkpt lat="42.49020747285152" lon="-8.316588143910174"><ele>842.0</ele><time>2026-04-18T10:11:14.999Z</time></trkpt><trkpt lat="42.49003266157477" lon="-8.316680440670828"><ele>838.6666666666667</ele><time>2026-04-18T10:11:15.999Z</time></trkpt><trkpt lat="42.48988028295038" lon="-8.316714740915605"><ele>835.3333333333333</ele><time>2026-04-18T10:11:16.999Z</time></trkpt><trkpt lat="42.48972659250253" lon="-8.316684396499753"><ele>832.0</ele><time>2026-04-18T10:11:17.999Z</time></trkpt><trkpt lat="42.489590601150375" lon="-8.316613951728579"><ele>829.3333333333333</ele><time>2026-04-18T10:11:18.999Z</time></trkpt><trkpt lat="42.489445851863806" lon="-8.316514502233831"><ele>826.6666666666667</ele><time>2026-04-18T10:11:19.999Z</time></trkpt><trkpt lat="42.48925663896519" lon="-8.316406817028763"><ele>824.0</ele><time>2026-04-18T10:11:20.999Z</time></trkpt><trkpt lat="42.48910235094208" lon="-8.316296329031953"><ele>821.0</ele><time>2026-04-18T10:11:21.999Z</time></trkpt><trkpt lat="42.48896375276932" lon="-8.316182331092199"><ele>818.0</ele><time>2026-04-18T10:11:22.999Z</time></trkpt><trkpt lat="42.488839435547256" lon="-8.316066403799676"><ele>815.0</ele><time>2026-04-18T10:11:23.999Z</time></trkpt><trkpt lat="42.48872287223647" lon="-8.31596126688001"><ele>815.0</ele><time>2026-04-18T10:11:24.999Z</time></trkpt><trkpt lat="42.48862518034123" lon="-8.315889050723724"><ele>815.0</ele><time>2026-04-18T10:11:25.999Z</time></trkpt><trkpt lat="42.48855581119352" lon="-8.315837090691163"><ele>815.0</ele><time>2026-04-18T10:11:26.999Z</time></trkpt><trkpt lat="42.48848079814928" lon="-8.31584186600968"><ele>815.0</ele><time>2026-04-18T10:11:28.999Z</time></trkpt><trkpt lat="42.48850143037404" lon="-8.316062220264728"><ele>815.0</ele><time>2026-04-18T10:11:39.999Z</time></trkpt><trkpt lat="42.488539365454464" lon="-8.316192639405967"><ele>815.0</ele><time>2026-04-18T10:11:40.999Z</time></trkpt><trkpt lat="42.48855761940018" lon="-8.31634982351119"><ele>815.0</ele><time>2026-04-18T10:11:41.999Z</time></trkpt><trkpt lat="42.48856749279833" lon="-8.316529277982575"><ele>815.0</ele><time>2026-04-18T10:11:42.999Z</time></trkpt><trkpt lat="42.4885603190646" lon="-8.316696538462354"><ele>815.0</ele><time>2026-04-18T10:11:43.999Z</time></trkpt><trkpt lat="42.488536527820116" lon="-8.316842301650828"><ele>814.5</ele><time>2026-04-18T10:11:44.999Z</time></trkpt><trkpt lat="42.48847741737817" lon="-8.316983008037152"><ele>814.0</ele><time>2026-04-18T10:11:45.999Z</time></trkpt><trkpt lat="42.488391928985095" lon="-8.317141600898633"><ele>813.5</ele><time>2026-04-18T10:11:46.999Z</time></trkpt><trkpt lat="42.48830035043296" lon="-8.317351955121715"><ele>813.0</ele><time>2026-04-18T10:11:47.999Z</time></trkpt><trkpt lat="42.48822501169516" lon="-8.317606435203633"><ele>812.6666666666667</ele><time>2026-04-18T10:11:48.999Z</time></trkpt><trkpt lat="42.48818900628345" lon="-8.317897415419782"><ele>812.3333333333334</ele><time>2026-04-18T10:11:49.999Z</time></trkpt><trkpt lat="42.488142225190245" lon="-8.318136174372794"><ele>812.0</ele><time>2026-04-18T10:11:50.999Z</time></trkpt><trkpt lat="42.48811913413235" lon="-8.318331578414513"><ele>812.6666666666667</ele><time>2026-04-18T10:11:51.999Z</time></trkpt><trkpt lat="42.48813632570035" lon="-8.318531909403822"><ele>813.3333333333333</ele><time>2026-04-18T10:11:52.999Z</time></trkpt><trkpt lat="42.48816198141316" lon="-8.318786814110503"><ele>814.0</ele><time>2026-04-18T10:11:53.999Z</time></trkpt><trkpt lat="42.48816438742058" lon="-8.31904959105031"><ele>816.0</ele><time>2026-04-18T10:11:54.999Z</time></trkpt><trkpt lat="42.48815124323496" lon="-8.319324251783355"><ele>818.0</ele><time>2026-04-18T10:11:55.999Z</time></trkpt><trkpt lat="42.48813039000734" lon="-8.319600997193415"><ele>820.0</ele><time>2026-04-18T10:11:56.999Z</time></trkpt><trkpt lat="42.48811314291168" lon="-8.319913105272091"><ele>821.3333333333333</ele><time>2026-04-18T10:11:57.999Z</time></trkpt><trkpt lat="42.48807980050323" lon="-8.32017605453317"><ele>822.6666666666667</ele><time>2026-04-18T10:11:58.999Z</time></trkpt><trkpt lat="42.48806331391696" lon="-8.320401241148964"><ele>824.0</ele><time>2026-04-18T10:11:59.999Z</time></trkpt><trkpt lat="42.48806093460924" lon="-8.320615911301738"><ele>824.0</ele><time>2026-04-18T10:12:00.999Z</time></trkpt><trkpt lat="42.48807170702363" lon="-8.320832418962882"><ele>824.0</ele><time>2026-04-18T10:12:01.999Z</time></trkpt><trkpt lat="42.48809116356112" lon="-8.32105566529891"><ele>824.0</ele><time>2026-04-18T10:12:02.999Z</time></trkpt><trkpt lat="42.48812958848886" lon="-8.321270167984235"><ele>823.0</ele><time>2026-04-18T10:12:03.999Z</time></trkpt><trkpt lat="42.48818908236607" lon="-8.321470628269543"><ele>822.0</ele><time>2026-04-18T10:12:04.999Z</time></trkpt><trkpt lat="42.48826612752796" lon="-8.321681015038715"><ele>821.0</ele><time>2026-04-18T10:12:06Z</time></trkpt><trkpt lat="42.488360909207955" lon="-8.321899671157393"><ele>821.0</ele><time>2026-04-18T10:12:07Z</time></trkpt><trkpt lat="42.48848459207706" lon="-8.32210774408863"><ele>821.0</ele><time>2026-04-18T10:12:08Z</time></trkpt><trkpt lat="42.48862229473795" lon="-8.32229023225006"><ele>821.0</ele><time>2026-04-18T10:12:09Z</time></trkpt><trkpt lat="42.48875505136282" lon="-8.32245376854613"><ele>826.0</ele><time>2026-04-18T10:12:10Z</time></trkpt><trkpt lat="42.48885638996284" lon="-8.322622547664121"><ele>831.0</ele><time>2026-04-18T10:12:11Z</time></trkpt><trkpt lat="42.488935292276395" lon="-8.322805264961914"><ele>836.0</ele><time>2026-04-18T10:12:12Z</time></trkpt><trkpt lat="42.48900452507696" lon="-8.32300733818064"><ele>831.3333333333334</ele><time>2026-04-18T10:12:13Z</time></trkpt><trkpt lat="42.48908944832439" lon="-8.323216668093059"><ele>826.6666666666667</ele><time>2026-04-18T10:12:14Z</time></trkpt><trkpt lat="42.489190851263835" lon="-8.32336706165986"><ele>822.0</ele><time>2026-04-18T10:12:15Z</time></trkpt><trkpt lat="42.489314164737976" lon="-8.323463824024058"><ele>822.0</ele><time>2026-04-18T10:12:16Z</time></trkpt><trkpt lat="42.48946191356809" lon="-8.323543051906979"><ele>822.0</ele><time>2026-04-18T10:12:17Z</time></trkpt><trkpt lat="42.489562850012646" lon="-8.323625014182689"><ele>822.0</ele><time>2026-04-18T10:12:18Z</time></trkpt><trkpt lat="42.48962061277934" lon="-8.323710589614787"><ele>822.0</ele><time>2026-04-18T10:12:19Z</time></trkpt><trkpt lat="42.489642908346006" lon="-8.323816455736825"><ele>822.0</ele><time>2026-04-18T10:12:20Z</time></trkpt><trkpt lat="42.489635663214784" lon="-8.3239203780285"><ele>823.1666666666666</ele><time>2026-04-18T10:12:21Z</time></trkpt><trkpt lat="42.48961717190478" lon="-8.324004618963809"><ele>824.3333333333333</ele><time>2026-04-18T10:12:22Z</time></trkpt><trkpt lat="42.48954598685678" lon="-8.324076165197132"><ele>825.5</ele><time>2026-04-18T10:12:23Z</time></trkpt><trkpt lat="42.48947505061622" lon="-8.324151614687102"><ele>826.6666666666666</ele><time>2026-04-18T10:12:24Z</time></trkpt><trkpt lat="42.48939448319065" lon="-8.324244108706063"><ele>827.8333333333333</ele><time>2026-04-18T10:12:25Z</time></trkpt><trkpt lat="42.48934471069858" lon="-8.324358571925757"><ele>829.0</ele><time>2026-04-18T10:12:26Z</time></trkpt><trkpt lat="42.48930441607328" lon="-8.324428312985765"><ele>826.0</ele><time>2026-04-18T10:12:27Z</time></trkpt><trkpt lat="42.489271938445285" lon="-8.32450148781396"><ele>823.0</ele><time>2026-04-18T10:12:28Z</time></trkpt><trkpt lat="42.4892678140309" lon="-8.324698782989708"><ele>820.0</ele><time>2026-04-18T10:12:29Z</time></trkpt><trkpt lat="42.489303666909215" lon="-8.324821553209366"><ele>817.0</ele><time>2026-04-18T10:12:30Z</time></trkpt><trkpt lat="42.48939842512519" lon="-8.324945707142323"><ele>814.0</ele><time>2026-04-18T10:12:31Z</time></trkpt><trkpt lat="42.48952648527638" lon="-8.325093099746294"><ele>815.6666666666666</ele><time>2026-04-18T10:12:32Z</time></trkpt><trkpt lat="42.4896417930904" lon="-8.325175903537094"><ele>817.3333333333333</ele><time>2026-04-18T10:12:33Z</time></trkpt><trkpt lat="42.48979193828445" lon="-8.325217722241332"><ele>819.0</ele><time>2026-04-18T10:12:34Z</time></trkpt><trkpt lat="42.48995854000561" lon="-8.325246049986522"><ele>819.0</ele><time>2026-04-18T10:12:35Z</time></trkpt><trkpt lat="42.49012815658088" lon="-8.32526330433606"><ele>819.0</ele><time>2026-04-18T10:12:36Z</time></trkpt><trkpt lat="42.49030560942006" lon="-8.325285553235203"><ele>819.0</ele><time>2026-04-18T10:12:37Z</time></trkpt><trkpt lat="42.49045851683388" lon="-8.325318384489186"><ele>819.5</ele><time>2026-04-18T10:12:38Z</time></trkpt><trkpt lat="42.4905635496592" lon="-8.325382383074784"><ele>820.0</ele><time>2026-04-18T10:12:39Z</time></trkpt><trkpt lat="42.490674205289665" lon="-8.325479541685844"><ele>820.5</ele><time>2026-04-18T10:12:40Z</time></trkpt><trkpt lat="42.49077707268209" lon="-8.325598948199609"><ele>821.0</ele><time>2026-04-18T10:12:41Z</time></trkpt><trkpt lat="42.490882430776054" lon="-8.325799146319737"><ele>817.3333333333334</ele><time>2026-04-18T10:12:42Z</time></trkpt><trkpt lat="42.49101319259971" lon="-8.325994247836093"><ele>813.6666666666667</ele><time>2026-04-18T10:12:43Z</time></trkpt><trkpt lat="42.49114761984562" lon="-8.326142592225992"><ele>810.0</ele><time>2026-04-18T10:12:44Z</time></trkpt><trkpt lat="42.49130590787725" lon="-8.32626078802027"><ele>810.0</ele><time>2026-04-18T10:12:45Z</time></trkpt><trkpt lat="42.4914596274714" lon="-8.326346600786609"><ele>810.0</ele><time>2026-04-18T10:12:46Z</time></trkpt><trkpt lat="42.491634400856974" lon="-8.326489320541471"><ele>810.0</ele><time>2026-04-18T10:12:47Z</time></trkpt><trkpt lat="42.49176546728106" lon="-8.32659052009518"><ele>807.6</ele><time>2026-04-18T10:12:48Z</time></trkpt><trkpt lat="42.49186485106585" lon="-8.326651296522098"><ele>805.2</ele><time>2026-04-18T10:12:49Z</time></trkpt><trkpt lat="42.491960530739334" lon="-8.326701243050863"><ele>802.8</ele><time>2026-04-18T10:12:50Z</time></trkpt><trkpt lat="42.492009031348694" lon="-8.326789803669506"><ele>800.4</ele><time>2026-04-18T10:12:51Z</time></trkpt><trkpt lat="42.492030291178544" lon="-8.326897911707569"><ele>798.0</ele><time>2026-04-18T10:12:52Z</time></trkpt><trkpt lat="42.49197733556791" lon="-8.32704020265236"><ele>798.0</ele><time>2026-04-18T10:12:54Z</time></trkpt><trkpt lat="42.49183545043879" lon="-8.32710777360499"><ele>798.0</ele><time>2026-04-18T10:12:56Z</time></trkpt><trkpt lat="42.491728643240975" lon="-8.327130426709353"><ele>798.0</ele><time>2026-04-18T10:12:57Z</time></trkpt><trkpt lat="42.491641500708546" lon="-8.32719487330192"><ele>798.0</ele><time>2026-04-18T10:12:58Z</time></trkpt><trkpt lat="42.491537228335744" lon="-8.327284701980016"><ele>796.0</ele><time>2026-04-18T10:12:59Z</time></trkpt><trkpt lat="42.49145480514609" lon="-8.327383764804832"><ele>794.0</ele><time>2026-04-18T10:13:00Z</time></trkpt><trkpt lat="42.491398048089856" lon="-8.327487287762954"><ele>792.0</ele><time>2026-04-18T10:13:01Z</time></trkpt><trkpt lat="42.49137270636974" lon="-8.327599947111407"><ele>790.0</ele><time>2026-04-18T10:13:02Z</time></trkpt><trkpt lat="42.49136663696821" lon="-8.32774100563511"><ele>788.0</ele><time>2026-04-18T10:13:03Z</time></trkpt><trkpt lat="42.49137156322565" lon="-8.327925095248077"><ele>787.0</ele><time>2026-04-18T10:13:04Z</time></trkpt><trkpt lat="42.49135358679401" lon="-8.328088063383793"><ele>786.0</ele><time>2026-04-18T10:13:05Z</time></trkpt><trkpt lat="42.49133151468972" lon="-8.32825131908125"><ele>785.0</ele><time>2026-04-18T10:13:05.999Z</time></trkpt><trkpt lat="42.49131871667453" lon="-8.328418286748695"><ele>784.0</ele><time>2026-04-18T10:13:06.999Z</time></trkpt><trkpt lat="42.49128912568849" lon="-8.328555850744564"><ele>784.0</ele><time>2026-04-18T10:13:07.999Z</time></trkpt><trkpt lat="42.49126446948646" lon="-8.328693487922354"><ele>784.0</ele><time>2026-04-18T10:13:08.999Z</time></trkpt><trkpt lat="42.491111702666124" lon="-8.328839850982211"><ele>784.0</ele><time>2026-04-18T10:13:09.999Z</time></trkpt><trkpt lat="42.4910208896565" lon="-8.328933948594354"><ele>784.0</ele><time>2026-04-18T10:13:10.999Z</time></trkpt><trkpt lat="42.49094058375738" lon="-8.328968853148904"><ele>782.0</ele><time>2026-04-18T10:13:11.999Z</time></trkpt><trkpt lat="42.490861325822706" lon="-8.328961620339953"><ele>780.0</ele><time>2026-04-18T10:13:12.999Z</time></trkpt><trkpt lat="42.49077491596497" lon="-8.328921539601579"><ele>778.0</ele><time>2026-04-18T10:13:13.999Z</time></trkpt><trkpt lat="42.49068662488906" lon="-8.328907757994035"><ele>776.0</ele><time>2026-04-18T10:13:14.999Z</time></trkpt><trkpt lat="42.49064704665479" lon="-8.329001238302894"><ele>774.0</ele><time>2026-04-18T10:13:16.999Z</time></trkpt><trkpt lat="42.49079458455886" lon="-8.329205422187002"><ele>774.0</ele><time>2026-04-18T10:13:18.999Z</time></trkpt><trkpt lat="42.49086738694463" lon="-8.329337115002298"><ele>774.0</ele><time>2026-04-18T10:13:19.999Z</time></trkpt><trkpt lat="42.4909543285022" lon="-8.329522508824923"><ele>774.0</ele><time>2026-04-18T10:13:20.999Z</time></trkpt><trkpt lat="42.491074467405014" lon="-8.329758535115507"><ele>773.0</ele><time>2026-04-18T10:13:21.999Z</time></trkpt><trkpt lat="42.491194637269366" lon="-8.330006352000158"><ele>772.0</ele><time>2026-04-18T10:13:22.999Z</time></trkpt><trkpt lat="42.49131001389243" lon="-8.330228708302364"><ele>771.0</ele><time>2026-04-18T10:13:23.999Z</time></trkpt><trkpt lat="42.49140664782106" lon="-8.330394016054568"><ele>771.0</ele><time>2026-04-18T10:13:24.999Z</time></trkpt><trkpt lat="42.49148192517918" lon="-8.330529002088435"><ele>771.0</ele><time>2026-04-18T10:13:25.999Z</time></trkpt><trkpt lat="42.49149153792869" lon="-8.33062301671686"><ele>771.0</ele><time>2026-04-18T10:13:26.999Z</time></trkpt><trkpt lat="42.491407115158545" lon="-8.330694212907394"><ele>771.0</ele><time>2026-04-18T10:13:29.999Z</time></trkpt><trkpt lat="42.49129639031812" lon="-8.33070114693648"><ele>771.0</ele><time>2026-04-18T10:13:31.999Z</time></trkpt><trkpt lat="42.49121137227881" lon="-8.330759634616983"><ele>771.5</ele><time>2026-04-18T10:13:32.999Z</time></trkpt><trkpt lat="42.491087048404246" lon="-8.33088664551473"><ele>772.0</ele><time>2026-04-18T10:13:33.999Z</time></trkpt><trkpt lat="42.49096498404638" lon="-8.331010702542605"><ele>772.5</ele><time>2026-04-18T10:13:34.999Z</time></trkpt><trkpt lat="42.490856875580455" lon="-8.33110661921"><ele>773.0</ele><time>2026-04-18T10:13:35.999Z</time></trkpt><trkpt lat="42.490737322070764" lon="-8.331215081317437"><ele>773.0</ele><time>2026-04-18T10:13:36.999Z</time></trkpt><trkpt lat="42.49064969428197" lon="-8.331298579845525"><ele>773.0</ele><time>2026-04-18T10:13:37.999Z</time></trkpt><trkpt lat="42.49062352826524" lon="-8.331381129673481"><ele>773.0</ele><time>2026-04-18T10:13:38.999Z</time></trkpt><trkpt lat="42.49059283525992" lon="-8.33149926212486"><ele>773.0</ele><time>2026-04-18T10:13:39.999Z</time></trkpt><trkpt lat="42.49061348215322" lon="-8.33162115865427"><ele>773.0</ele><time>2026-04-18T10:13:40.999Z</time></trkpt><trkpt lat="42.49062966619253" lon="-8.331752668255264"><ele>774.6666666666667</ele><time>2026-04-18T10:13:41.999Z</time></trkpt><trkpt lat="42.49063147561754" lon="-8.331917471984807"><ele>776.3333333333333</ele><time>2026-04-18T10:13:42.999Z</time></trkpt><trkpt lat="42.49060342985484" lon="-8.33217343887357"><ele>778.0</ele><time>2026-04-18T10:13:43.999Z</time></trkpt><trkpt lat="42.490565155742466" lon="-8.332377171493166"><ele>778.5</ele><time>2026-04-18T10:13:44.999Z</time></trkpt><trkpt lat="42.49051264981484" lon="-8.332566371576474"><ele>779.0</ele><time>2026-04-18T10:13:45.999Z</time></trkpt><trkpt lat="42.49044884703911" lon="-8.332764022378441"><ele>779.5</ele><time>2026-04-18T10:13:46.999Z</time></trkpt><trkpt lat="42.49039435456093" lon="-8.332900181122996"><ele>780.0</ele><time>2026-04-18T10:13:47.999Z</time></trkpt><trkpt lat="42.49032279308613" lon="-8.333025726954618"><ele>783.3333333333333</ele><time>2026-04-18T10:13:48.999Z</time></trkpt><trkpt lat="42.490222650504" lon="-8.333161955344018"><ele>786.6666666666666</ele><time>2026-04-18T10:13:49.999Z</time></trkpt><trkpt lat="42.49011022249344" lon="-8.333338444867788"><ele>790.0</ele><time>2026-04-18T10:13:50.999Z</time></trkpt><trkpt lat="42.489982406731926" lon="-8.333534133206463"><ele>790.0</ele><time>2026-04-18T10:13:51.999Z</time></trkpt><trkpt lat="42.48985423354549" lon="-8.333717350817063"><ele>790.0</ele><time>2026-04-18T10:13:52.999Z</time></trkpt><trkpt lat="42.489748240277606" lon="-8.333859709610456"><ele>790.0</ele><time>2026-04-18T10:13:53.999Z</time></trkpt><trkpt lat="42.48964560736473" lon="-8.334019365415262"><ele>791.0</ele><time>2026-04-18T10:13:54.999Z</time></trkpt><trkpt lat="42.489547698555775" lon="-8.33420061662742"><ele>792.0</ele><time>2026-04-18T10:13:55.999Z</time></trkpt><trkpt lat="42.489430647504825" lon="-8.334375844135678"><ele>793.0</ele><time>2026-04-18T10:13:56.999Z</time></trkpt><trkpt lat="42.48933471551112" lon="-8.334500934733477"><ele>793.0</ele><time>2026-04-18T10:13:57.999Z</time></trkpt><trkpt lat="42.4892313995866" lon="-8.334610852828439"><ele>793.0</ele><time>2026-04-18T10:13:58.999Z</time></trkpt><trkpt lat="42.489116874780954" lon="-8.334715930820778"><ele>793.0</ele><time>2026-04-18T10:13:59.999Z</time></trkpt><trkpt lat="42.489012521982964" lon="-8.334797804860006"><ele>793.0</ele><time>2026-04-18T10:14:00.999Z</time></trkpt><trkpt lat="42.488868295907594" lon="-8.334857045331562"><ele>794.3333333333333</ele><time>2026-04-18T10:14:01.999Z</time></trkpt><trkpt lat="42.488707969481915" lon="-8.334890282207258"><ele>795.6666666666667</ele><time>2026-04-18T10:14:02.999Z</time></trkpt><trkpt lat="42.488533300054435" lon="-8.33498348363813"><ele>797.0</ele><time>2026-04-18T10:14:03.999Z</time></trkpt><trkpt lat="42.48834107825563" lon="-8.335098511345139"><ele>797.0</ele><time>2026-04-18T10:14:04.999Z</time></trkpt><trkpt lat="42.48815420635898" lon="-8.33520943918856"><ele>797.0</ele><time>2026-04-18T10:14:05.999Z</time></trkpt><trkpt lat="42.48797324287457" lon="-8.335287922698493"><ele>797.0</ele><time>2026-04-18T10:14:06.999Z</time></trkpt><trkpt lat="42.48781076614616" lon="-8.335340382224025"><ele>797.0</ele><time>2026-04-18T10:14:07.999Z</time></trkpt><trkpt lat="42.48766243244978" lon="-8.33537173907114"><ele>797.0</ele><time>2026-04-18T10:14:08.999Z</time></trkpt><trkpt lat="42.487519937975875" lon="-8.335404081577886"><ele>797.0</ele><time>2026-04-18T10:14:09.999Z</time></trkpt><trkpt lat="42.48736815633213" lon="-8.33545599038601"><ele>797.0</ele><time>2026-04-18T10:14:10.999Z</time></trkpt><trkpt lat="42.48720567512873" lon="-8.335502870904795"><ele>797.0</ele><time>2026-04-18T10:14:12Z</time></trkpt><trkpt lat="42.48703168239063" lon="-8.33552429354494"><ele>797.0</ele><time>2026-04-18T10:14:13Z</time></trkpt><trkpt lat="42.486846578411715" lon="-8.335539427734894"><ele>798.3333333333334</ele><time>2026-04-18T10:14:14Z</time></trkpt><trkpt lat="42.486642547928504" lon="-8.335576480467676"><ele>799.6666666666667</ele><time>2026-04-18T10:14:15Z</time></trkpt><trkpt lat="42.48644535396915" lon="-8.335630331970961"><ele>801.0</ele><time>2026-04-18T10:14:16Z</time></trkpt><trkpt lat="42.48625037384337" lon="-8.33569254632429"><ele>801.3333333333333</ele><time>2026-04-18T10:14:17Z</time></trkpt><trkpt lat="42.486058730209876" lon="-8.335755311915827"><ele>801.6666666666666</ele><time>2026-04-18T10:14:18Z</time></trkpt><trkpt lat="42.485874578094794" lon="-8.335803810304334"><ele>802.0</ele><time>2026-04-18T10:14:19Z</time></trkpt><trkpt lat="42.48570200731204" lon="-8.335833913398357"><ele>802.0</ele><time>2026-04-18T10:14:20Z</time></trkpt><trkpt lat="42.48554364285068" lon="-8.335857028532487"><ele>802.0</ele><time>2026-04-18T10:14:21Z</time></trkpt><trkpt lat="42.48539804876377" lon="-8.335886490359153"><ele>802.0</ele><time>2026-04-18T10:14:22Z</time></trkpt><trkpt lat="42.48526746584123" lon="-8.335928739110074"><ele>802.0</ele><time>2026-04-18T10:14:23Z</time></trkpt><trkpt lat="42.485159478287024" lon="-8.335988766753145"><ele>801.8</ele><time>2026-04-18T10:14:24Z</time></trkpt><trkpt lat="42.48507441038054" lon="-8.33606377566749"><ele>801.6</ele><time>2026-04-18T10:14:25Z</time></trkpt><trkpt lat="42.48501416265274" lon="-8.336172686412024"><ele>801.4</ele><time>2026-04-18T10:14:26Z</time></trkpt><trkpt lat="42.48497594863456" lon="-8.33632017516609"><ele>801.1999999999999</ele><time>2026-04-18T10:14:27Z</time></trkpt><trkpt lat="42.48494230983397" lon="-8.336477843499294"><ele>801.0</ele><time>2026-04-18T10:14:28Z</time></trkpt><trkpt lat="42.484916146281975" lon="-8.33659684086646"><ele>802.1999999999999</ele><time>2026-04-18T10:14:29Z</time></trkpt><trkpt lat="42.48483375723028" lon="-8.336603954580898"><ele>803.4</ele><time>2026-04-18T10:14:31Z</time></trkpt><trkpt lat="42.4847668218676" lon="-8.336571639985271"><ele>804.6</ele><time>2026-04-18T10:14:32Z</time></trkpt><trkpt lat="42.484687705235366" lon="-8.336512256618654"><ele>805.8</ele><time>2026-04-18T10:14:33Z</time></trkpt><trkpt lat="42.484594659089844" lon="-8.33645438265369"><ele>807.0</ele><time>2026-04-18T10:14:34Z</time></trkpt><trkpt lat="42.48447699254201" lon="-8.336409576976793"><ele>806.75</ele><time>2026-04-18T10:14:35Z</time></trkpt><trkpt lat="42.48433397366696" lon="-8.336368199947692"><ele>806.5</ele><time>2026-04-18T10:14:36Z</time></trkpt><trkpt lat="42.48416928481441" lon="-8.33634153567421"><ele>806.25</ele><time>2026-04-18T10:14:37Z</time></trkpt><trkpt lat="42.48405696379056" lon="-8.336339938982858"><ele>806.0</ele><time>2026-04-18T10:14:38Z</time></trkpt><trkpt lat="42.483963706723166" lon="-8.336462822294825"><ele>808.75</ele><time>2026-04-18T10:14:40Z</time></trkpt><trkpt lat="42.48390456724511" lon="-8.33653514732803"><ele>811.5</ele><time>2026-04-18T10:14:41Z</time></trkpt><trkpt lat="42.48379391061412" lon="-8.336637244252058"><ele>814.25</ele><time>2026-04-18T10:14:42Z</time></trkpt><trkpt lat="42.483689609348325" lon="-8.336739044435555"><ele>817.0</ele><time>2026-04-18T10:14:43Z</time></trkpt><trkpt lat="42.48357466106307" lon="-8.336803984275043"><ele>817.0</ele><time>2026-04-18T10:14:44Z</time></trkpt><trkpt lat="42.48348628953932" lon="-8.336873837883122"><ele>817.0</ele><time>2026-04-18T10:14:45Z</time></trkpt><trkpt lat="42.483440751962796" lon="-8.33695622869912"><ele>817.0</ele><time>2026-04-18T10:14:46Z</time></trkpt><trkpt lat="42.483545251959534" lon="-8.337074105117493"><ele>817.0</ele><time>2026-04-18T10:14:48Z</time></trkpt><trkpt lat="42.48361099357309" lon="-8.337147577892553"><ele>817.0</ele><time>2026-04-18T10:14:49Z</time></trkpt><trkpt lat="42.48369160206743" lon="-8.337220807601428"><ele>820.0</ele><time>2026-04-18T10:14:50Z</time></trkpt><trkpt lat="42.48378600987286" lon="-8.337271137127763"><ele>823.0</ele><time>2026-04-18T10:14:51Z</time></trkpt><trkpt lat="42.48390429145812" lon="-8.337310200981467"><ele>826.0</ele><time>2026-04-18T10:14:52Z</time></trkpt><trkpt lat="42.4840412157779" lon="-8.337378787883454"><ele>829.0</ele><time>2026-04-18T10:14:53Z</time></trkpt><trkpt lat="42.48416204003629" lon="-8.337465022086826"><ele>829.0</ele><time>2026-04-18T10:14:54Z</time></trkpt><trkpt lat="42.484239581260006" lon="-8.337545814078288"><ele>829.0</ele><time>2026-04-18T10:14:55Z</time></trkpt><trkpt lat="42.48427378261449" lon="-8.33764500978365"><ele>829.0</ele><time>2026-04-18T10:14:56Z</time></trkpt><trkpt lat="42.484296160841595" lon="-8.337789917846038"><ele>829.0</ele><time>2026-04-18T10:14:57Z</time></trkpt><trkpt lat="42.48433993684773" lon="-8.33798634929635"><ele>829.0</ele><time>2026-04-18T10:14:58Z</time></trkpt><trkpt lat="42.4844005076298" lon="-8.338191367009166"><ele>830.3333333333333</ele><time>2026-04-18T10:14:59Z</time></trkpt><trkpt lat="42.48447837213018" lon="-8.338434845585928"><ele>831.6666666666667</ele><time>2026-04-18T10:15:00Z</time></trkpt><trkpt lat="42.48455327309381" lon="-8.338669661782683"><ele>833.0</ele><time>2026-04-18T10:15:01Z</time></trkpt><trkpt lat="42.48463056426936" lon="-8.338887839862368"><ele>833.0</ele><time>2026-04-18T10:15:02Z</time></trkpt><trkpt lat="42.484701272324045" lon="-8.339096609277176"><ele>833.0</ele><time>2026-04-18T10:15:03Z</time></trkpt><trkpt lat="42.48478299884305" lon="-8.339289912504501"><ele>833.0</ele><time>2026-04-18T10:15:04Z</time></trkpt><trkpt lat="42.48486807458084" lon="-8.339460240194986"><ele>833.0</ele><time>2026-04-18T10:15:05Z</time></trkpt><trkpt lat="42.48493447466029" lon="-8.33958482485541"><ele>833.0</ele><time>2026-04-18T10:15:06Z</time></trkpt><trkpt lat="42.48496514106069" lon="-8.339685879993327"><ele>833.0</ele><time>2026-04-18T10:15:07Z</time></trkpt><trkpt lat="42.484904352139736" lon="-8.339787776454951"><ele>833.0</ele><time>2026-04-18T10:15:09Z</time></trkpt><trkpt lat="42.48482683904946" lon="-8.33979041130351"><ele>833.0</ele><time>2026-04-18T10:15:10Z</time></trkpt><trkpt lat="42.48472271548059" lon="-8.339767957252048"><ele>833.5</ele><time>2026-04-18T10:15:11Z</time></trkpt><trkpt lat="42.484595602459876" lon="-8.339755026094448"><ele>834.0</ele><time>2026-04-18T10:15:12Z</time></trkpt><trkpt lat="42.48445477473844" lon="-8.339750328342644"><ele>834.5</ele><time>2026-04-18T10:15:13Z</time></trkpt><trkpt lat="42.48429529389588" lon="-8.339750363388152"><ele>835.0</ele><time>2026-04-18T10:15:14Z</time></trkpt><trkpt lat="42.48412191206089" lon="-8.339760903832001"><ele>835.0</ele><time>2026-04-18T10:15:15Z</time></trkpt><trkpt lat="42.48393963354338" lon="-8.339794168280124"><ele>835.0</ele><time>2026-04-18T10:15:16Z</time></trkpt><trkpt lat="42.483753738212975" lon="-8.339843275612713"><ele>835.0</ele><time>2026-04-18T10:15:17Z</time></trkpt><trkpt lat="42.48356806544302" lon="-8.33990131902925"><ele>834.6666666666666</ele><time>2026-04-18T10:15:18Z</time></trkpt><trkpt lat="42.483380787935936" lon="-8.339961215514851"><ele>834.3333333333333</ele><time>2026-04-18T10:15:19Z</time></trkpt><trkpt lat="42.48319377270101" lon="-8.34000607038083"><ele>834.0</ele><time>2026-04-18T10:15:20Z</time></trkpt><trkpt lat="42.483015634581385" lon="-8.340047436814162"><ele>832.0</ele><time>2026-04-18T10:15:20.999Z</time></trkpt><trkpt lat="42.48283013641572" lon="-8.34009581894562"><ele>830.0</ele><time>2026-04-18T10:15:21.999Z</time></trkpt><trkpt lat="42.48262982613136" lon="-8.340158479667311"><ele>828.0</ele><time>2026-04-18T10:15:22.999Z</time></trkpt><trkpt lat="42.48243729561693" lon="-8.340211591904893"><ele>828.0</ele><time>2026-04-18T10:15:23.999Z</time></trkpt><trkpt lat="42.482240002408496" lon="-8.340271829068541"><ele>828.0</ele><time>2026-04-18T10:15:24.999Z</time></trkpt><trkpt lat="42.482051860646" lon="-8.340345070700973"><ele>828.0</ele><time>2026-04-18T10:15:25.999Z</time></trkpt><trkpt lat="42.48187912805724" lon="-8.34040929916651"><ele>826.5</ele><time>2026-04-18T10:15:26.999Z</time></trkpt><trkpt lat="42.48172160049363" lon="-8.34046342798274"><ele>825.0</ele><time>2026-04-18T10:15:27.999Z</time></trkpt><trkpt lat="42.48158713707415" lon="-8.340531467318195"><ele>823.5</ele><time>2026-04-18T10:15:28.999Z</time></trkpt><trkpt lat="42.481450966938695" lon="-8.340585554643802"><ele>822.0</ele><time>2026-04-18T10:15:29.999Z</time></trkpt><trkpt lat="42.48129593141903" lon="-8.34060106339723"><ele>822.0</ele><time>2026-04-18T10:15:30.999Z</time></trkpt><trkpt lat="42.48112769344973" lon="-8.340580378270861"><ele>822.0</ele><time>2026-04-18T10:15:31.999Z</time></trkpt><trkpt lat="42.48096823168891" lon="-8.34052866026127"><ele>822.0</ele><time>2026-04-18T10:15:32.999Z</time></trkpt><trkpt lat="42.48080018917144" lon="-8.340431521556875"><ele>819.6666666666667</ele><time>2026-04-18T10:15:33.999Z</time></trkpt><trkpt lat="42.48062476695417" lon="-8.340332755486722"><ele>817.3333333333334</ele><time>2026-04-18T10:15:34.999Z</time></trkpt><trkpt lat="42.48045939528624" lon="-8.340250337980729"><ele>815.0</ele><time>2026-04-18T10:15:35.999Z</time></trkpt><trkpt lat="42.48031388647921" lon="-8.340198320343587"><ele>814.5</ele><time>2026-04-18T10:15:36.999Z</time></trkpt><trkpt lat="42.4801956217384" lon="-8.340168491171282"><ele>814.0</ele><time>2026-04-18T10:15:37.999Z</time></trkpt><trkpt lat="42.48008170302197" lon="-8.340151141389356"><ele>813.5</ele><time>2026-04-18T10:15:38.999Z</time></trkpt><trkpt lat="42.4799606716702" lon="-8.34016407805644"><ele>813.0</ele><time>2026-04-18T10:15:39.999Z</time></trkpt><trkpt lat="42.47981698577593" lon="-8.340210675498646"><ele>813.0</ele><time>2026-04-18T10:15:40.999Z</time></trkpt><trkpt lat="42.47966213041924" lon="-8.34028425877967"><ele>813.0</ele><time>2026-04-18T10:15:41.999Z</time></trkpt><trkpt lat="42.47950051049288" lon="-8.340372102190404"><ele>813.0</ele><time>2026-04-18T10:15:42.999Z</time></trkpt><trkpt lat="42.47933420300125" lon="-8.340471799054107"><ele>812.3333333333333</ele><time>2026-04-18T10:15:43.999Z</time></trkpt><trkpt lat="42.47917107513527" lon="-8.340605625273236"><ele>811.6666666666666</ele><time>2026-04-18T10:15:44.999Z</time></trkpt><trkpt lat="42.479028685858424" lon="-8.340731968161354"><ele>811.0</ele><time>2026-04-18T10:15:45.999Z</time></trkpt><trkpt lat="42.47890609547889" lon="-8.34083361883872"><ele>811.0</ele><time>2026-04-18T10:15:46.999Z</time></trkpt><trkpt lat="42.47879555563958" lon="-8.340950197435477"><ele>811.0</ele><time>2026-04-18T10:15:47.999Z</time></trkpt><trkpt lat="42.478716616265054" lon="-8.341081665137704"><ele>811.0</ele><time>2026-04-18T10:15:48.999Z</time></trkpt><trkpt lat="42.478663002625375" lon="-8.341222814729575"><ele>811.0</ele><time>2026-04-18T10:15:49.999Z</time></trkpt><trkpt lat="42.4786537612481" lon="-8.341335553865198"><ele>811.1999999999999</ele><time>2026-04-18T10:15:50.999Z</time></trkpt><trkpt lat="42.47866903517299" lon="-8.341441532697266"><ele>811.4</ele><time>2026-04-18T10:15:51.999Z</time></trkpt><trkpt lat="42.478705218276566" lon="-8.341519035806504"><ele>811.6</ele><time>2026-04-18T10:15:52.999Z</time></trkpt><trkpt lat="42.478761121783485" lon="-8.341576964258232"><ele>811.8</ele><time>2026-04-18T10:15:53.999Z</time></trkpt><trkpt lat="42.478870191083175" lon="-8.341645877867371"><ele>812.0</ele><time>2026-04-18T10:15:54.999Z</time></trkpt><trkpt lat="42.47898574092099" lon="-8.341740891450094"><ele>812.0</ele><time>2026-04-18T10:15:55.999Z</time></trkpt><trkpt lat="42.47909546882543" lon="-8.341861206217054"><ele>812.0</ele><time>2026-04-18T10:15:56.999Z</time></trkpt><trkpt lat="42.479201304352884" lon="-8.341986133579493"><ele>812.0</ele><time>2026-04-18T10:15:57.999Z</time></trkpt><trkpt lat="42.479305334789125" lon="-8.342089881578966"><ele>812.0</ele><time>2026-04-18T10:15:58.999Z</time></trkpt><trkpt lat="42.479417999020114" lon="-8.342206764338178"><ele>810.3333333333334</ele><time>2026-04-18T10:15:59.999Z</time></trkpt><trkpt lat="42.47953888961772" lon="-8.342363491122738"><ele>808.6666666666667</ele><time>2026-04-18T10:16:00.999Z</time></trkpt><trkpt lat="42.47967807640101" lon="-8.34255350923703"><ele>807.0</ele><time>2026-04-18T10:16:01.999Z</time></trkpt><trkpt lat="42.47983204336577" lon="-8.342750013405427"><ele>807.0</ele><time>2026-04-18T10:16:02.999Z</time></trkpt><trkpt lat="42.48000912725111" lon="-8.342917067712156"><ele>807.0</ele><time>2026-04-18T10:16:03.999Z</time></trkpt><trkpt lat="42.48014151680049" lon="-8.343047133463063"><ele>807.0</ele><time>2026-04-18T10:16:04.999Z</time></trkpt><trkpt lat="42.480259989171856" lon="-8.34313673459889"><ele>804.5</ele><time>2026-04-18T10:16:05.999Z</time></trkpt><trkpt lat="42.480403755368144" lon="-8.343194910298111"><ele>802.0</ele><time>2026-04-18T10:16:06.999Z</time></trkpt><trkpt lat="42.480556566320914" lon="-8.343244340843023"><ele>799.5</ele><time>2026-04-18T10:16:07.999Z</time></trkpt><trkpt lat="42.48069471000243" lon="-8.343290097368666"><ele>797.0</ele><time>2026-04-18T10:16:08.999Z</time></trkpt><trkpt lat="42.48083819710681" lon="-8.343321504498752"><ele>796.6666666666667</ele><time>2026-04-18T10:16:09.999Z</time></trkpt><trkpt lat="42.480989971360856" lon="-8.343265843500637"><ele>796.3333333333333</ele><time>2026-04-18T10:16:10.999Z</time></trkpt><trkpt lat="42.48114420367712" lon="-8.34321863612459"><ele>796.0</ele><time>2026-04-18T10:16:11.999Z</time></trkpt><trkpt lat="42.481324007936514" lon="-8.343157611967362"><ele>798.0</ele><time>2026-04-18T10:16:12.999Z</time></trkpt><trkpt lat="42.481502378379844" lon="-8.34306065384536"><ele>800.0</ele><time>2026-04-18T10:16:13.999Z</time></trkpt><trkpt lat="42.48168162928293" lon="-8.342970069169052"><ele>802.0</ele><time>2026-04-18T10:16:14.999Z</time></trkpt><trkpt lat="42.48183828892347" lon="-8.342896068609452"><ele>802.0</ele><time>2026-04-18T10:16:15.999Z</time></trkpt><trkpt lat="42.48198957044688" lon="-8.342860211921181"><ele>802.0</ele><time>2026-04-18T10:16:16.999Z</time></trkpt><trkpt lat="42.48210735118911" lon="-8.342893626283983"><ele>802.0</ele><time>2026-04-18T10:16:18Z</time></trkpt><trkpt lat="42.4822302757174" lon="-8.342974036906543"><ele>802.0</ele><time>2026-04-18T10:16:19Z</time></trkpt><trkpt lat="42.48238719131543" lon="-8.343065339490348"><ele>797.3333333333333</ele><time>2026-04-18T10:16:20Z</time></trkpt><trkpt lat="42.48255492241962" lon="-8.343160713646007"><ele>792.6666666666667</ele><time>2026-04-18T10:16:21Z</time></trkpt><trkpt lat="42.482724579454306" lon="-8.34324944724524"><ele>788.0</ele><time>2026-04-18T10:16:22Z</time></trkpt><trkpt lat="42.482909881177726" lon="-8.343343947660049"><ele>789.3333333333334</ele><time>2026-04-18T10:16:23Z</time></trkpt><trkpt lat="42.48309719750477" lon="-8.343432846660004"><ele>790.6666666666667</ele><time>2026-04-18T10:16:24Z</time></trkpt><trkpt lat="42.48325363890897" lon="-8.34350018234213"><ele>792.0</ele><time>2026-04-18T10:16:25Z</time></trkpt><trkpt lat="42.48338547327922" lon="-8.343582482308372"><ele>792.0</ele><time>2026-04-18T10:16:26Z</time></trkpt><trkpt lat="42.483463163624855" lon="-8.343680272493911"><ele>792.0</ele><time>2026-04-18T10:16:27Z</time></trkpt><trkpt lat="42.48350613814977" lon="-8.343757419489235"><ele>792.0</ele><time>2026-04-18T10:16:28Z</time></trkpt><trkpt lat="42.4835994985766" lon="-8.34384889304993"><ele>792.0</ele><time>2026-04-18T10:16:29Z</time></trkpt><trkpt lat="42.48370541431744" lon="-8.343922953226826"><ele>792.0</ele><time>2026-04-18T10:16:30Z</time></trkpt><trkpt lat="42.483813689380156" lon="-8.34397786829401"><ele>790.0</ele><time>2026-04-18T10:16:31Z</time></trkpt><trkpt lat="42.483924757448115" lon="-8.34402587838448"><ele>788.0</ele><time>2026-04-18T10:16:32Z</time></trkpt><trkpt lat="42.48405164728316" lon="-8.34408499545173"><ele>786.0</ele><time>2026-04-18T10:16:33Z</time></trkpt><trkpt lat="42.48417050071897" lon="-8.344128261328963"><ele>784.0</ele><time>2026-04-18T10:16:34Z</time></trkpt><trkpt lat="42.48428791305033" lon="-8.344121627283766"><ele>784.0</ele><time>2026-04-18T10:16:35Z</time></trkpt><trkpt lat="42.48440920813675" lon="-8.344087940090436"><ele>784.0</ele><time>2026-04-18T10:16:36Z</time></trkpt><trkpt lat="42.48453755518227" lon="-8.344042992339256"><ele>784.0</ele><time>2026-04-18T10:16:37Z</time></trkpt><trkpt lat="42.48464735880772" lon="-8.343992771536282"><ele>784.0</ele><time>2026-04-18T10:16:38Z</time></trkpt><trkpt lat="42.48473247931057" lon="-8.343943466915233"><ele>784.6666666666666</ele><time>2026-04-18T10:16:39Z</time></trkpt><trkpt lat="42.48479426544518" lon="-8.3438966449845"><ele>785.3333333333333</ele><time>2026-04-18T10:16:40Z</time></trkpt><trkpt lat="42.48484976291499" lon="-8.343851269894188"><ele>786.0</ele><time>2026-04-18T10:16:41Z</time></trkpt><trkpt lat="42.484906933875074" lon="-8.343801606859843"><ele>786.6666666666667</ele><time>2026-04-18T10:16:42Z</time></trkpt><trkpt lat="42.48497122113499" lon="-8.343756981968744"><ele>787.3333333333334</ele><time>2026-04-18T10:16:43Z</time></trkpt><trkpt lat="42.48504874332493" lon="-8.3437107873448"><ele>788.0</ele><time>2026-04-18T10:16:44Z</time></trkpt><trkpt lat="42.48510509099131" lon="-8.343603080888252"><ele>788.0</ele><time>2026-04-18T10:16:45Z</time></trkpt><trkpt lat="42.48516314048903" lon="-8.343490256147076"><ele>788.0</ele><time>2026-04-18T10:16:46Z</time></trkpt><trkpt lat="42.485238923533714" lon="-8.343392222182793"><ele>788.0</ele><time>2026-04-18T10:16:47Z</time></trkpt><trkpt lat="42.485338628920104" lon="-8.343318958280726"><ele>788.0</ele><time>2026-04-18T10:16:48Z</time></trkpt><trkpt lat="42.48544749371838" lon="-8.343278583997714"><ele>788.0</ele><time>2026-04-18T10:16:49Z</time></trkpt><trkpt lat="42.48556058230964" lon="-8.343273791730322"><ele>786.75</ele><time>2026-04-18T10:16:50Z</time></trkpt><trkpt lat="42.48567966678311" lon="-8.343290372867193"><ele>785.5</ele><time>2026-04-18T10:16:51Z</time></trkpt><trkpt lat="42.48580484554966" lon="-8.343306021165592"><ele>784.25</ele><time>2026-04-18T10:16:52Z</time></trkpt><trkpt lat="42.48592606611684" lon="-8.343327790093547"><ele>783.0</ele><time>2026-04-18T10:16:53Z</time></trkpt><trkpt lat="42.48605137534531" lon="-8.343350053386585"><ele>783.0</ele><time>2026-04-18T10:16:54Z</time></trkpt><trkpt lat="42.48618277437853" lon="-8.34336876887876"><ele>783.0</ele><time>2026-04-18T10:16:55Z</time></trkpt><trkpt lat="42.48631532138543" lon="-8.343382934571126"><ele>783.0</ele><time>2026-04-18T10:16:56Z</time></trkpt><trkpt lat="42.48644341899988" lon="-8.343386125315863"><ele>783.0</ele><time>2026-04-18T10:16:57Z</time></trkpt><trkpt lat="42.48655398679224" lon="-8.343394897499099"><ele>782.4</ele><time>2026-04-18T10:16:58Z</time></trkpt><trkpt lat="42.48664890081921" lon="-8.34339801942176"><ele>781.8</ele><time>2026-04-18T10:16:59Z</time></trkpt><trkpt lat="42.48675207074133" lon="-8.343396247254928"><ele>781.2</ele><time>2026-04-18T10:17:00Z</time></trkpt><trkpt lat="42.486866217236354" lon="-8.343389055775475"><ele>780.6</ele><time>2026-04-18T10:17:01Z</time></trkpt><trkpt lat="42.486979381127824" lon="-8.343381180734895"><ele>780.0</ele><time>2026-04-18T10:17:02Z</time></trkpt><trkpt lat="42.487088230612876" lon="-8.343371884995548"><ele>779.6</ele><time>2026-04-18T10:17:03Z</time></trkpt><trkpt lat="42.48719505200452" lon="-8.343366130249429"><ele>779.2</ele><time>2026-04-18T10:17:04Z</time></trkpt><trkpt lat="42.4873059181943" lon="-8.343351535091452"><ele>778.8</ele><time>2026-04-18T10:17:05Z</time></trkpt><trkpt lat="42.48741368138894" lon="-8.343323589689764"><ele>778.4</ele><time>2026-04-18T10:17:06Z</time></trkpt><trkpt lat="42.487520591594865" lon="-8.343288980154158"><ele>778.0</ele><time>2026-04-18T10:17:07Z</time></trkpt><trkpt lat="42.48762532015527" lon="-8.343250048717236"><ele>778.0</ele><time>2026-04-18T10:17:08Z</time></trkpt><trkpt lat="42.487730600039164" lon="-8.34321458337961"><ele>778.0</ele><time>2026-04-18T10:17:09Z</time></trkpt><trkpt lat="42.48783538497491" lon="-8.343183136573352"><ele>778.0</ele><time>2026-04-18T10:17:10Z</time></trkpt><trkpt lat="42.48793472068509" lon="-8.34315437736708"><ele>778.0</ele><time>2026-04-18T10:17:11Z</time></trkpt><trkpt lat="42.48802835435237" lon="-8.343132254422912"><ele>778.0</ele><time>2026-04-18T10:17:12Z</time></trkpt><trkpt lat="42.4881154440368" lon="-8.343113247532406"><ele>777.1666666666666</ele><time>2026-04-18T10:17:13Z</time></trkpt><trkpt lat="42.48819705116262" lon="-8.343096984357881"><ele>776.3333333333333</ele><time>2026-04-18T10:17:14Z</time></trkpt><trkpt lat="42.48827406537789" lon="-8.343082261186558"><ele>775.5</ele><time>2026-04-18T10:17:15Z</time></trkpt><trkpt lat="42.48835861311135" lon="-8.343072398447791"><ele>774.6666666666667</ele><time>2026-04-18T10:17:16Z</time></trkpt><trkpt lat="42.48845598768343" lon="-8.343066475276773"><ele>773.8333333333334</ele><time>2026-04-18T10:17:17Z</time></trkpt><trkpt lat="42.48855565868333" lon="-8.343066426547763"><ele>773.0</ele><time>2026-04-18T10:17:18Z</time></trkpt><trkpt lat="42.488658187525196" lon="-8.34307356119624"><ele>773.25</ele><time>2026-04-18T10:17:19Z</time></trkpt><trkpt lat="42.48876923131795" lon="-8.34306866725178"><ele>773.5</ele><time>2026-04-18T10:17:20Z</time></trkpt><trkpt lat="42.4888861519513" lon="-8.343060304561043"><ele>773.75</ele><time>2026-04-18T10:17:21Z</time></trkpt><trkpt lat="42.48900510571667" lon="-8.343068286138218"><ele>774.0</ele><time>2026-04-18T10:17:22Z</time></trkpt><trkpt lat="42.48911633735575" lon="-8.343081261650054"><ele>774.0</ele><time>2026-04-18T10:17:23Z</time></trkpt><trkpt lat="42.48922229174724" lon="-8.343100521576593"><ele>774.0</ele><time>2026-04-18T10:17:24Z</time></trkpt><trkpt lat="42.489325101466356" lon="-8.343141268664226"><ele>774.0</ele><time>2026-04-18T10:17:25Z</time></trkpt><trkpt lat="42.48942441925732" lon="-8.343194687600267"><ele>774.0</ele><time>2026-04-18T10:17:26Z</time></trkpt><trkpt lat="42.48952544288555" lon="-8.343236060478409"><ele>774.0</ele><time>2026-04-18T10:17:27Z</time></trkpt><trkpt lat="42.48962777338953" lon="-8.343277975851844"><ele>772.6</ele><time>2026-04-18T10:17:28Z</time></trkpt><trkpt lat="42.489726864128734" lon="-8.34332456205157"><ele>771.2</ele><time>2026-04-18T10:17:29Z</time></trkpt><trkpt lat="42.48982874117245" lon="-8.343364766393107"><ele>769.8000000000001</ele><time>2026-04-18T10:17:30Z</time></trkpt><trkpt lat="42.489933703957036" lon="-8.3434003382133"><ele>768.4000000000001</ele><time>2026-04-18T10:17:31Z</time></trkpt><trkpt lat="42.490040330822445" lon="-8.343432783024133"><ele>767.0</ele><time>2026-04-18T10:17:32Z</time></trkpt><trkpt lat="42.490150224383264" lon="-8.343454947242185"><ele>767.0</ele><time>2026-04-18T10:17:32.999Z</time></trkpt><trkpt lat="42.490256900856785" lon="-8.343458419516411"><ele>767.0</ele><time>2026-04-18T10:17:33.999Z</time></trkpt><trkpt lat="42.49033579464046" lon="-8.343459086067028"><ele>767.0</ele><time>2026-04-18T10:17:34.999Z</time></trkpt><trkpt lat="42.49037721972487" lon="-8.343565210293441"><ele>767.0</ele><time>2026-04-18T10:17:36.999Z</time></trkpt><trkpt lat="42.49032380776658" lon="-8.343731711938329"><ele>767.0</ele><time>2026-04-18T10:17:38.999Z</time></trkpt><trkpt lat="42.49029004977061" lon="-8.343847526071627"><ele>766.0</ele><time>2026-04-18T10:17:39.999Z</time></trkpt><trkpt lat="42.4902640698644" lon="-8.343990674393947"><ele>765.0</ele><time>2026-04-18T10:17:40.999Z</time></trkpt><trkpt lat="42.49024426945204" lon="-8.344135251528572"><ele>764.0</ele><time>2026-04-18T10:17:41.999Z</time></trkpt><trkpt lat="42.490201967661534" lon="-8.34426787833476"><ele>763.0</ele><time>2026-04-18T10:17:42.999Z</time></trkpt><trkpt lat="42.49017228319495" lon="-8.344375735403691"><ele>762.0</ele><time>2026-04-18T10:17:43.999Z</time></trkpt><trkpt lat="42.49013542852301" lon="-8.344475376548866"><ele>762.0</ele><time>2026-04-18T10:17:44.999Z</time></trkpt><trkpt lat="42.49008291524087" lon="-8.344554528841911"><ele>762.0</ele><time>2026-04-18T10:17:45.999Z</time></trkpt><trkpt lat="42.49001805365715" lon="-8.344633060768173"><ele>762.0</ele><time>2026-04-18T10:17:46.999Z</time></trkpt><trkpt lat="42.48992952267616" lon="-8.344720709531929"><ele>762.0</ele><time>2026-04-18T10:17:47.999Z</time></trkpt><trkpt lat="42.489833350109656" lon="-8.34481736419881"><ele>762.0</ele><time>2026-04-18T10:17:48.999Z</time></trkpt><trkpt lat="42.489757368426474" lon="-8.344911791375694"><ele>761.6</ele><time>2026-04-18T10:17:49.999Z</time></trkpt><trkpt lat="42.48969630347945" lon="-8.345025021808786"><ele>761.2</ele><time>2026-04-18T10:17:50.999Z</time></trkpt><trkpt lat="42.48966671664351" lon="-8.345153463481754"><ele>760.8</ele><time>2026-04-18T10:17:51.999Z</time></trkpt><trkpt lat="42.48966227458806" lon="-8.345302808786904"><ele>760.4</ele><time>2026-04-18T10:17:52.999Z</time></trkpt><trkpt lat="42.48965855358411" lon="-8.345454157117677"><ele>760.0</ele><time>2026-04-18T10:17:53.999Z</time></trkpt><trkpt lat="42.48966265473985" lon="-8.345593001751963"><ele>760.0</ele><time>2026-04-18T10:17:54.999Z</time></trkpt><trkpt lat="42.48967832660853" lon="-8.345730981032458"><ele>760.0</ele><time>2026-04-18T10:17:55.999Z</time></trkpt><trkpt lat="42.489725850552176" lon="-8.345857575256668"><ele>760.0</ele><time>2026-04-18T10:17:56.999Z</time></trkpt><trkpt lat="42.48978041978951" lon="-8.345982845048463"><ele>760.0</ele><time>2026-04-18T10:17:57.999Z</time></trkpt><trkpt lat="42.48983004169622" lon="-8.34611079813117"><ele>760.0</ele><time>2026-04-18T10:17:58.999Z</time></trkpt><trkpt lat="42.48986262412258" lon="-8.346233530044907"><ele>760.0</ele><time>2026-04-18T10:17:59.999Z</time></trkpt><trkpt lat="42.48985248555826" lon="-8.346345086084666"><ele>760.0</ele><time>2026-04-18T10:18:00.999Z</time></trkpt><trkpt lat="42.48980465458418" lon="-8.346448471356513"><ele>760.0</ele><time>2026-04-18T10:18:01.999Z</time></trkpt><trkpt lat="42.48974301129124" lon="-8.346535764324985"><ele>760.0</ele><time>2026-04-18T10:18:02.999Z</time></trkpt><trkpt lat="42.489754142671835" lon="-8.346682690876"><ele>760.0</ele><time>2026-04-18T10:18:04.999Z</time></trkpt><trkpt lat="42.48980184051171" lon="-8.34676748230646"><ele>762.0</ele><time>2026-04-18T10:18:05.999Z</time></trkpt><trkpt lat="42.489843651100834" lon="-8.346871984195033"><ele>764.0</ele><time>2026-04-18T10:18:06.999Z</time></trkpt><trkpt lat="42.48987423681401" lon="-8.347007282893594"><ele>766.0</ele><time>2026-04-18T10:18:07.999Z</time></trkpt><trkpt lat="42.48990222596633" lon="-8.347161352437379"><ele>768.0</ele><time>2026-04-18T10:18:08.999Z</time></trkpt><trkpt lat="42.48993836754128" lon="-8.347335866286501"><ele>770.0</ele><time>2026-04-18T10:18:09.999Z</time></trkpt><trkpt lat="42.48997826511769" lon="-8.347475324865364"><ele>772.4</ele><time>2026-04-18T10:18:10.999Z</time></trkpt><trkpt lat="42.49002866068782" lon="-8.347548459415828"><ele>774.8</ele><time>2026-04-18T10:18:11.999Z</time></trkpt><trkpt lat="42.490096414326565" lon="-8.347573793788417"><ele>777.2</ele><time>2026-04-18T10:18:12.999Z</time></trkpt><trkpt lat="42.49019390172242" lon="-8.347594170398633"><ele>779.6</ele><time>2026-04-18T10:18:13.999Z</time></trkpt><trkpt lat="42.49030049432432" lon="-8.347605765660298"><ele>782.0</ele><time>2026-04-18T10:18:14.999Z</time></trkpt><trkpt lat="42.49043215625918" lon="-8.347602854711859"><ele>782.0</ele><time>2026-04-18T10:18:15.999Z</time></trkpt><trkpt lat="42.490529388280585" lon="-8.34763633038595"><ele>782.0</ele><time>2026-04-18T10:18:16.999Z</time></trkpt><trkpt lat="42.49056507501562" lon="-8.347777727018087"><ele>782.0</ele><time>2026-04-18T10:18:18.999Z</time></trkpt><trkpt lat="42.49056050509422" lon="-8.347867807808553"><ele>782.0</ele><time>2026-04-18T10:18:19.999Z</time></trkpt><trkpt lat="42.49052153924111" lon="-8.347961849918384"><ele>782.0</ele><time>2026-04-18T10:18:20.999Z</time></trkpt><trkpt lat="42.49040321249484" lon="-8.34803617254745"><ele>786.3333333333334</ele><time>2026-04-18T10:18:21.999Z</time></trkpt><trkpt lat="42.49029793912809" lon="-8.348170808331949"><ele>790.6666666666667</ele><time>2026-04-18T10:18:22.999Z</time></trkpt><trkpt lat="42.4901917826097" lon="-8.348344931139975"><ele>795.0</ele><time>2026-04-18T10:18:24Z</time></trkpt><trkpt lat="42.49006142697759" lon="-8.348526675374982"><ele>795.0</ele><time>2026-04-18T10:18:25Z</time></trkpt><trkpt lat="42.489930649316115" lon="-8.348718982670158"><ele>795.0</ele><time>2026-04-18T10:18:26Z</time></trkpt><trkpt lat="42.48983496311262" lon="-8.348926949589535"><ele>795.0</ele><time>2026-04-18T10:18:27Z</time></trkpt><trkpt lat="42.4897543779806" lon="-8.349171942410099"><ele>798.0</ele><time>2026-04-18T10:18:28Z</time></trkpt><trkpt lat="42.48965045679474" lon="-8.349465648044706"><ele>801.0</ele><time>2026-04-18T10:18:29Z</time></trkpt><trkpt lat="42.48957032435184" lon="-8.349722891382104"><ele>804.0</ele><time>2026-04-18T10:18:30Z</time></trkpt><trkpt lat="42.489516903186924" lon="-8.349905327241252"><ele>804.0</ele><time>2026-04-18T10:18:31Z</time></trkpt><trkpt lat="42.48945191939737" lon="-8.35001851872342"><ele>804.0</ele><time>2026-04-18T10:18:32Z</time></trkpt><trkpt lat="42.48937150568533" lon="-8.350068322787356"><ele>804.0</ele><time>2026-04-18T10:18:33Z</time></trkpt><trkpt lat="42.48927625117927" lon="-8.350078547074522"><ele>804.0</ele><time>2026-04-18T10:18:34Z</time></trkpt><trkpt lat="42.48915600439564" lon="-8.350101507672788"><ele>804.0</ele><time>2026-04-18T10:18:35Z</time></trkpt><trkpt lat="42.489031133575274" lon="-8.35014997767413"><ele>804.0</ele><time>2026-04-18T10:18:36Z</time></trkpt><trkpt lat="42.48890931473454" lon="-8.350229550978082"><ele>804.0</ele><time>2026-04-18T10:18:37Z</time></trkpt><trkpt lat="42.48884741319335" lon="-8.350305679478847"><ele>804.0</ele><time>2026-04-18T10:18:38Z</time></trkpt><trkpt lat="42.48886345409477" lon="-8.35041704093576"><ele>804.0</ele><time>2026-04-18T10:18:40Z</time></trkpt><trkpt lat="42.488943743932765" lon="-8.350494728134185"><ele>804.0</ele><time>2026-04-18T10:18:42Z</time></trkpt><trkpt lat="42.489020062371935" lon="-8.350567413389301"><ele>807.0</ele><time>2026-04-18T10:18:43Z</time></trkpt><trkpt lat="42.48911888539272" lon="-8.350688268904541"><ele>810.0</ele><time>2026-04-18T10:18:44Z</time></trkpt><trkpt lat="42.48920055202861" lon="-8.350812019892434"><ele>813.0</ele><time>2026-04-18T10:18:45Z</time></trkpt><trkpt lat="42.489302294077795" lon="-8.350944640596587"><ele>816.0</ele><time>2026-04-18T10:18:46Z</time></trkpt><trkpt lat="42.48941575631322" lon="-8.351110509604647"><ele>816.0</ele><time>2026-04-18T10:18:47Z</time></trkpt><trkpt lat="42.489538968721135" lon="-8.351278737933042"><ele>816.0</ele><time>2026-04-18T10:18:48Z</time></trkpt><trkpt lat="42.48966883316754" lon="-8.351427052560245"><ele>816.0</ele><time>2026-04-18T10:18:49Z</time></trkpt><trkpt lat="42.48980221227937" lon="-8.351539029866455"><ele>819.75</ele><time>2026-04-18T10:18:50Z</time></trkpt><trkpt lat="42.489937896427875" lon="-8.351604159065143"><ele>823.5</ele><time>2026-04-18T10:18:51Z</time></trkpt><trkpt lat="42.49007880063038" lon="-8.351639107751367"><ele>827.25</ele><time>2026-04-18T10:18:52Z</time></trkpt><trkpt lat="42.4902198381342" lon="-8.351685748847036"><ele>831.0</ele><time>2026-04-18T10:18:53Z</time></trkpt><trkpt lat="42.490363535520736" lon="-8.351757665644627"><ele>834.3333333333333</ele><time>2026-04-18T10:18:54Z</time></trkpt><trkpt lat="42.490505254856686" lon="-8.351867452641743"><ele>837.6666666666666</ele><time>2026-04-18T10:18:55Z</time></trkpt><trkpt lat="42.490645742387635" lon="-8.352003026752172"><ele>841.0</ele><time>2026-04-18T10:18:56Z</time></trkpt><trkpt lat="42.4907815177411" lon="-8.352105528259782"><ele>841.0</ele><time>2026-04-18T10:18:57Z</time></trkpt><trkpt lat="42.49090921015526" lon="-8.352127616331067"><ele>841.0</ele><time>2026-04-18T10:18:58Z</time></trkpt><trkpt lat="42.491002872836454" lon="-8.352050772788635"><ele>841.0</ele><time>2026-04-18T10:18:59Z</time></trkpt><trkpt lat="42.491110409640754" lon="-8.351993086432065"><ele>841.0</ele><time>2026-04-18T10:19:00Z</time></trkpt><trkpt lat="42.49122470578608" lon="-8.351894731179563"><ele>845.3333333333333</ele><time>2026-04-18T10:19:01Z</time></trkpt><trkpt lat="42.49138895960128" lon="-8.351783771885769"><ele>849.6666666666667</ele><time>2026-04-18T10:19:02Z</time></trkpt><trkpt lat="42.491590268611745" lon="-8.351705409621456"><ele>854.0</ele><time>2026-04-18T10:19:03Z</time></trkpt><trkpt lat="42.49178162995257" lon="-8.351631820505519"><ele>854.0</ele><time>2026-04-18T10:19:04Z</time></trkpt><trkpt lat="42.49202419077336" lon="-8.351546950834281"><ele>854.0</ele><time>2026-04-18T10:19:05Z</time></trkpt><trkpt lat="42.492253714433204" lon="-8.351481037092896"><ele>858.5</ele><time>2026-04-18T10:19:06Z</time></trkpt><trkpt lat="42.492512427255" lon="-8.351426653885978"><ele>863.0</ele><time>2026-04-18T10:19:07Z</time></trkpt><trkpt lat="42.49275863434851" lon="-8.35137349147457"><ele>865.6666666666667</ele><time>2026-04-18T10:19:08Z</time></trkpt><trkpt lat="42.49298352102399" lon="-8.35132205191382"><ele>868.3333333333333</ele><time>2026-04-18T10:19:09Z</time></trkpt><trkpt lat="42.4931793527283" lon="-8.351280210807968"><ele>871.0</ele><time>2026-04-18T10:19:10Z</time></trkpt><trkpt lat="42.49334391623437" lon="-8.35125957929085"><ele>871.0</ele><time>2026-04-18T10:19:11Z</time></trkpt><trkpt lat="42.49353701313598" lon="-8.351245081419266"><ele>871.0</ele><time>2026-04-18T10:19:12Z</time></trkpt><trkpt lat="42.49376947973888" lon="-8.351221858519263"><ele>871.0</ele><time>2026-04-18T10:19:13Z</time></trkpt><trkpt lat="42.49398805685131" lon="-8.351176502640005"><ele>872.75</ele><time>2026-04-18T10:19:14Z</time></trkpt><trkpt lat="42.49418035039691" lon="-8.351147320021232"><ele>874.5</ele><time>2026-04-18T10:19:15Z</time></trkpt><trkpt lat="42.494316651809385" lon="-8.351147382873304"><ele>876.25</ele><time>2026-04-18T10:19:16Z</time></trkpt><trkpt lat="42.494386072431745" lon="-8.35115944778585"><ele>878.0</ele><time>2026-04-18T10:19:17Z</time></trkpt><trkpt lat="42.49453818776686" lon="-8.351234064823872"><ele>879.0</ele><time>2026-04-18T10:19:18Z</time></trkpt><trkpt lat="42.4946794141444" lon="-8.351302352196656"><ele>880.0</ele><time>2026-04-18T10:19:19Z</time></trkpt><trkpt lat="42.49482530714989" lon="-8.351359494997267"><ele>881.0</ele><time>2026-04-18T10:19:20Z</time></trkpt><trkpt lat="42.49502717218311" lon="-8.351503629908398"><ele>884.5</ele><time>2026-04-18T10:19:21Z</time></trkpt><trkpt lat="42.49527048229423" lon="-8.351642156132932"><ele>888.0</ele><time>2026-04-18T10:19:22Z</time></trkpt><trkpt lat="42.49547776576536" lon="-8.351729257925436"><ele>888.0</ele><time>2026-04-18T10:19:23Z</time></trkpt><trkpt lat="42.49563296617693" lon="-8.35181951052002"><ele>888.0</ele><time>2026-04-18T10:19:24Z</time></trkpt><trkpt lat="42.49574869982964" lon="-8.351924657049585"><ele>888.0</ele><time>2026-04-18T10:19:25Z</time></trkpt><trkpt lat="42.49583943478471" lon="-8.352039092050914"><ele>888.0</ele><time>2026-04-18T10:19:26Z</time></trkpt><trkpt lat="42.49593042908671" lon="-8.352207088485653"><ele>893.0</ele><time>2026-04-18T10:19:27Z</time></trkpt><trkpt lat="42.49600986833388" lon="-8.352415306423683"><ele>898.0</ele><time>2026-04-18T10:19:28Z</time></trkpt><trkpt lat="42.49610340824687" lon="-8.352606200712149"><ele>903.0</ele><time>2026-04-18T10:19:29Z</time></trkpt><trkpt lat="42.496237395083234" lon="-8.352756043899047"><ele>902.2</ele><time>2026-04-18T10:19:30Z</time></trkpt><trkpt lat="42.496349047255734" lon="-8.352899700816014"><ele>901.4</ele><time>2026-04-18T10:19:31Z</time></trkpt><trkpt lat="42.49634201193544" lon="-8.352997009468774"><ele>900.6000000000001</ele><time>2026-04-18T10:19:32Z</time></trkpt><trkpt lat="42.49636591550674" lon="-8.353139504062113"><ele>899.8000000000001</ele><time>2026-04-18T10:19:33Z</time></trkpt><trkpt lat="42.49634278837342" lon="-8.353282986908352"><ele>899.0</ele><time>2026-04-18T10:19:34Z</time></trkpt><trkpt lat="42.49629785436043" lon="-8.353421282805348"><ele>899.0</ele><time>2026-04-18T10:19:35Z</time></trkpt><trkpt lat="42.496257568586735" lon="-8.35356873932555"><ele>899.0</ele><time>2026-04-18T10:19:36Z</time></trkpt><trkpt lat="42.49620885294919" lon="-8.353797788274761"><ele>899.0</ele><time>2026-04-18T10:19:37Z</time></trkpt><trkpt lat="42.49616183207471" lon="-8.354018362430411"><ele>904.6666666666667</ele><time>2026-04-18T10:19:38Z</time></trkpt><trkpt lat="42.49611740321084" lon="-8.354247425550467"><ele>910.3333333333333</ele><time>2026-04-18T10:19:39Z</time></trkpt><trkpt lat="42.496074069023784" lon="-8.354509772239528"><ele>916.0</ele><time>2026-04-18T10:19:40Z</time></trkpt><trkpt lat="42.49602228187543" lon="-8.354794391110218"><ele>917.0</ele><time>2026-04-18T10:19:41Z</time></trkpt><trkpt lat="42.49594399137343" lon="-8.35507183391304"><ele>918.0</ele><time>2026-04-18T10:19:42Z</time></trkpt><trkpt lat="42.49584715958774" lon="-8.355332918094136"><ele>919.0</ele><time>2026-04-18T10:19:43Z</time></trkpt><trkpt lat="42.495735297702" lon="-8.355582011510357"><ele>921.0</ele><time>2026-04-18T10:19:44Z</time></trkpt><trkpt lat="42.495618176196224" lon="-8.355849693067354"><ele>923.0</ele><time>2026-04-18T10:19:45Z</time></trkpt><trkpt lat="42.49551714311933" lon="-8.356124618846394"><ele>924.3333333333334</ele><time>2026-04-18T10:19:46Z</time></trkpt><trkpt lat="42.495439904105325" lon="-8.356396487605753"><ele>925.6666666666667</ele><time>2026-04-18T10:19:47Z</time></trkpt><trkpt lat="42.495391233062925" lon="-8.356660895853"><ele>927.0</ele><time>2026-04-18T10:19:47.999Z</time></trkpt><trkpt lat="42.4953482513992" lon="-8.356942316517015"><ele>930.0</ele><time>2026-04-18T10:19:48.999Z</time></trkpt><trkpt lat="42.4953134591265" lon="-8.357245603183864"><ele>933.0</ele><time>2026-04-18T10:19:49.999Z</time></trkpt><trkpt lat="42.49528052175583" lon="-8.357595038243385"><ele>933.0</ele><time>2026-04-18T10:19:50.999Z</time></trkpt><trkpt lat="42.49524992012146" lon="-8.357938832252696"><ele>933.0</ele><time>2026-04-18T10:19:51.999Z</time></trkpt><trkpt lat="42.49523089500713" lon="-8.358241844097428"><ele>935.0</ele><time>2026-04-18T10:19:52.999Z</time></trkpt><trkpt lat="42.49523950206835" lon="-8.358498537323081"><ele>937.0</ele><time>2026-04-18T10:19:53.999Z</time></trkpt><trkpt lat="42.49527159970206" lon="-8.358632373292583"><ele>939.0</ele><time>2026-04-18T10:19:55.999Z</time></trkpt><trkpt lat="42.49533509363557" lon="-8.358703591677058"><ele>941.0</ele><time>2026-04-18T10:19:56.999Z</time></trkpt><trkpt lat="42.495443230059955" lon="-8.358786762182552"><ele>941.3333333333334</ele><time>2026-04-18T10:19:57.999Z</time></trkpt><trkpt lat="42.49558909007701" lon="-8.358887879503458"><ele>941.6666666666667</ele><time>2026-04-18T10:19:58.999Z</time></trkpt><trkpt lat="42.49573107101861" lon="-8.359019764385089"><ele>942.0</ele><time>2026-04-18T10:19:59.999Z</time></trkpt><trkpt lat="42.49586297911015" lon="-8.359146653847446"><ele>942.0</ele><time>2026-04-18T10:20:00.999Z</time></trkpt><trkpt lat="42.49602567205445" lon="-8.359339068466149"><ele>942.0</ele><time>2026-04-18T10:20:01.999Z</time></trkpt><trkpt lat="42.49619814488569" lon="-8.359505155987632"><ele>942.0</ele><time>2026-04-18T10:20:02.999Z</time></trkpt><trkpt lat="42.4963488248303" lon="-8.359658130231992"><ele>941.0</ele><time>2026-04-18T10:20:03.999Z</time></trkpt><trkpt lat="42.49644485001498" lon="-8.359781837081629"><ele>940.0</ele><time>2026-04-18T10:20:04.999Z</time></trkpt><trkpt lat="42.4965014075715" lon="-8.359896348286277"><ele>939.0</ele><time>2026-04-18T10:20:05.999Z</time></trkpt><trkpt lat="42.49647785374103" lon="-8.360105862619454"><ele>938.0</ele><time>2026-04-18T10:20:07.999Z</time></trkpt><trkpt lat="42.49642642675683" lon="-8.36022913413868"><ele>938.0</ele><time>2026-04-18T10:20:08.999Z</time></trkpt><trkpt lat="42.496343573950085" lon="-8.36035859472515"><ele>938.0</ele><time>2026-04-18T10:20:09.999Z</time></trkpt><trkpt lat="42.49624575013817" lon="-8.360496360212037"><ele>938.0</ele><time>2026-04-18T10:20:10.999Z</time></trkpt><trkpt lat="42.496129790547386" lon="-8.360684425378228"><ele>938.0</ele><time>2026-04-18T10:20:11.999Z</time></trkpt><trkpt lat="42.496024106097074" lon="-8.360903789613165"><ele>940.3333333333334</ele><time>2026-04-18T10:20:12.999Z</time></trkpt><trkpt lat="42.495937720192515" lon="-8.36114308910275"><ele>942.6666666666667</ele><time>2026-04-18T10:20:13.999Z</time></trkpt><trkpt lat="42.49584882576043" lon="-8.36139427875374"><ele>945.0</ele><time>2026-04-18T10:20:14.999Z</time></trkpt><trkpt lat="42.4957454640222" lon="-8.361616584744336"><ele>946.5</ele><time>2026-04-18T10:20:15.999Z</time></trkpt><trkpt lat="42.49559855394593" lon="-8.361848223838"><ele>948.0</ele><time>2026-04-18T10:20:16.999Z</time></trkpt><trkpt lat="42.495431247358276" lon="-8.362061761049027"><ele>950.3333333333333</ele><time>2026-04-18T10:20:17.999Z</time></trkpt><trkpt lat="42.495279677554365" lon="-8.362227088257034"><ele>952.6666666666666</ele><time>2026-04-18T10:20:18.999Z</time></trkpt><trkpt lat="42.49511286089025" lon="-8.362357884918865"><ele>955.0</ele><time>2026-04-18T10:20:19.999Z</time></trkpt><trkpt lat="42.49496073693192" lon="-8.362417356153104"><ele>955.0</ele><time>2026-04-18T10:20:20.999Z</time></trkpt><trkpt lat="42.49478006402278" lon="-8.362460489032184"><ele>955.0</ele><time>2026-04-18T10:20:21.999Z</time></trkpt><trkpt lat="42.49458263230956" lon="-8.362501416041756"><ele>955.0</ele><time>2026-04-18T10:20:22.999Z</time></trkpt><trkpt lat="42.494403255502455" lon="-8.362582119703044"><ele>955.6666666666666</ele><time>2026-04-18T10:20:23.999Z</time></trkpt><trkpt lat="42.49422948143228" lon="-8.362686032579209"><ele>956.3333333333333</ele><time>2026-04-18T10:20:24.999Z</time></trkpt><trkpt lat="42.49408652266241" lon="-8.36282569335903"><ele>957.0</ele><time>2026-04-18T10:20:25.999Z</time></trkpt><trkpt lat="42.49395248524644" lon="-8.362947204460019"><ele>958.0</ele><time>2026-04-18T10:20:26.999Z</time></trkpt><trkpt lat="42.49389820468021" lon="-8.363118996052235"><ele>959.0</ele><time>2026-04-18T10:20:27.999Z</time></trkpt><trkpt lat="42.493881009676365" lon="-8.363304070750463"><ele>960.0</ele><time>2026-04-18T10:20:28.999Z</time></trkpt><trkpt lat="42.49390275249025" lon="-8.36346424946029"><ele>961.0</ele><time>2026-04-18T10:20:30Z</time></trkpt><trkpt lat="42.49395655617818" lon="-8.363620178603634"><ele>961.0</ele><time>2026-04-18T10:20:31Z</time></trkpt><trkpt lat="42.493994610826846" lon="-8.363795200611436"><ele>960.9999999999999</ele><time>2026-04-18T10:20:32Z</time></trkpt><trkpt lat="42.49401176943096" lon="-8.363937203044683"><ele>960.9999999999999</ele><time>2026-04-18T10:20:33Z</time></trkpt><trkpt lat="42.49399538514912" lon="-8.364037215138408"><ele>961.0</ele><time>2026-04-18T10:20:34Z</time></trkpt><trkpt lat="42.493922564702814" lon="-8.364094875999818"><ele>961.0</ele><time>2026-04-18T10:20:36Z</time></trkpt><trkpt lat="42.49382569005871" lon="-8.364127485273258"><ele>961.8</ele><time>2026-04-18T10:20:38Z</time></trkpt><trkpt lat="42.49373920618338" lon="-8.364187691959247"><ele>962.5999999999999</ele><time>2026-04-18T10:20:39Z</time></trkpt><trkpt lat="42.49364450096401" lon="-8.364246024380336"><ele>963.4</ele><time>2026-04-18T10:20:40Z</time></trkpt><trkpt lat="42.49356181772468" lon="-8.364315208826689"><ele>964.2</ele><time>2026-04-18T10:20:41Z</time></trkpt><trkpt lat="42.49346959001607" lon="-8.364400510393597"><ele>965.0</ele><time>2026-04-18T10:20:42Z</time></trkpt><trkpt lat="42.493392595267" lon="-8.364482359560387"><ele>965.0</ele><time>2026-04-18T10:20:43Z</time></trkpt><trkpt lat="42.49331684496574" lon="-8.36456955734359"><ele>965.0</ele><time>2026-04-18T10:20:44Z</time></trkpt><trkpt lat="42.49324461427795" lon="-8.364661555416882"><ele>965.0</ele><time>2026-04-18T10:20:45Z</time></trkpt><trkpt lat="42.493170905747206" lon="-8.364750256370785"><ele>965.0</ele><time>2026-04-18T10:20:46Z</time></trkpt><trkpt lat="42.493089552515855" lon="-8.364834597605771"><ele>965.0</ele><time>2026-04-18T10:20:47Z</time></trkpt><trkpt lat="42.49300271896354" lon="-8.364928855212199"><ele>964.2</ele><time>2026-04-18T10:20:48Z</time></trkpt><trkpt lat="42.49291333868263" lon="-8.36503092372221"><ele>963.4</ele><time>2026-04-18T10:20:49Z</time></trkpt><trkpt lat="42.492835275053395" lon="-8.365126572627814"><ele>962.5999999999999</ele><time>2026-04-18T10:20:50Z</time></trkpt><trkpt lat="42.492762256423745" lon="-8.365215140380045"><ele>961.8</ele><time>2026-04-18T10:20:51Z</time></trkpt><trkpt lat="42.4926941104636" lon="-8.365311978975678"><ele>961.0</ele><time>2026-04-18T10:20:52Z</time></trkpt><trkpt lat="42.49263619335515" lon="-8.365419857354464"><ele>961.1999999999999</ele><time>2026-04-18T10:20:53Z</time></trkpt><trkpt lat="42.49259977497042" lon="-8.36554540103119"><ele>961.3999999999999</ele><time>2026-04-18T10:20:54Z</time></trkpt><trkpt lat="42.49257744979854" lon="-8.36568785389762"><ele>961.6</ele><time>2026-04-18T10:20:55Z</time></trkpt><trkpt lat="42.49256391382892" lon="-8.36583260309545"><ele>961.8</ele><time>2026-04-18T10:20:56Z</time></trkpt><trkpt lat="42.49255139114549" lon="-8.365979371824057"><ele>962.0</ele><time>2026-04-18T10:20:57Z</time></trkpt><trkpt lat="42.492532264079536" lon="-8.36613212475247"><ele>962.0</ele><time>2026-04-18T10:20:58Z</time></trkpt><trkpt lat="42.49251579615792" lon="-8.366277231013662"><ele>962.0</ele><time>2026-04-18T10:20:59Z</time></trkpt><trkpt lat="42.49249968275771" lon="-8.366417116163545"><ele>962.0</ele><time>2026-04-18T10:21:00Z</time></trkpt><trkpt lat="42.49248431823678" lon="-8.366546567526484"><ele>962.0</ele><time>2026-04-18T10:21:01Z</time></trkpt><trkpt lat="42.492466791638456" lon="-8.3666720137914"><ele>962.0</ele><time>2026-04-18T10:21:02Z</time></trkpt><trkpt lat="42.492443125645956" lon="-8.366794263713318"><ele>962.4000000000001</ele><time>2026-04-18T10:21:03Z</time></trkpt><trkpt lat="42.49240249569885" lon="-8.366914584565047"><ele>962.8000000000001</ele><time>2026-04-18T10:21:04Z</time></trkpt><trkpt lat="42.49233458442632" lon="-8.367028346268059"><ele>963.2</ele><time>2026-04-18T10:21:05Z</time></trkpt><trkpt lat="42.49224683429542" lon="-8.367111674029298"><ele>963.6</ele><time>2026-04-18T10:21:06Z</time></trkpt><trkpt lat="42.4921433327667" lon="-8.367164650277426"><ele>964.0</ele><time>2026-04-18T10:21:07Z</time></trkpt><trkpt lat="42.49203615385246" lon="-8.36720435267131"><ele>964.75</ele><time>2026-04-18T10:21:08Z</time></trkpt><trkpt lat="42.49192892880275" lon="-8.367253044372196"><ele>965.5</ele><time>2026-04-18T10:21:09Z</time></trkpt><trkpt lat="42.49181356125139" lon="-8.367292345075318"><ele>966.25</ele><time>2026-04-18T10:21:10Z</time></trkpt><trkpt lat="42.49169880372157" lon="-8.367328747103311"><ele>967.0</ele><time>2026-04-18T10:21:11Z</time></trkpt><trkpt lat="42.49158213192575" lon="-8.367361382109241"><ele>967.0</ele><time>2026-04-18T10:21:12Z</time></trkpt><trkpt lat="42.49146908362695" lon="-8.367404232208118"><ele>967.0</ele><time>2026-04-18T10:21:13Z</time></trkpt><trkpt lat="42.49135540071148" lon="-8.367452142137502"><ele>967.0</ele><time>2026-04-18T10:21:14Z</time></trkpt><trkpt lat="42.49124652096824" lon="-8.367497329614414"><ele>967.0</ele><time>2026-04-18T10:21:15Z</time></trkpt><trkpt lat="42.49114048735977" lon="-8.367540193484368"><ele>965.4000000000001</ele><time>2026-04-18T10:21:16Z</time></trkpt><trkpt lat="42.49103588198707" lon="-8.367583733479027"><ele>963.8000000000001</ele><time>2026-04-18T10:21:17Z</time></trkpt><trkpt lat="42.49093097854923" lon="-8.367626714099794"><ele>962.2</ele><time>2026-04-18T10:21:18Z</time></trkpt><trkpt lat="42.49082413434984" lon="-8.36766618775742"><ele>960.6</ele><time>2026-04-18T10:21:19Z</time></trkpt><trkpt lat="42.49072369308719" lon="-8.3677022782203"><ele>959.0</ele><time>2026-04-18T10:21:20Z</time></trkpt><trkpt lat="42.4906271699771" lon="-8.36774741355046"><ele>959.0</ele><time>2026-04-18T10:21:21Z</time></trkpt><trkpt lat="42.490541234029436" lon="-8.367818209099275"><ele>959.0000000000001</ele><time>2026-04-18T10:21:22Z</time></trkpt><trkpt lat="42.49045759429429" lon="-8.367916835641662"><ele>959.0000000000001</ele><time>2026-04-18T10:21:23Z</time></trkpt><trkpt lat="42.4903831753713" lon="-8.368029565213307"><ele>959.0</ele><time>2026-04-18T10:21:24Z</time></trkpt><trkpt lat="42.49030821987696" lon="-8.368154846014265"><ele>959.0</ele><time>2026-04-18T10:21:25Z</time></trkpt><trkpt lat="42.49023376375393" lon="-8.368283647763024"><ele>959.0</ele><time>2026-04-18T10:21:26Z</time></trkpt><trkpt lat="42.490153333673405" lon="-8.368413612514804"><ele>959.0</ele><time>2026-04-18T10:21:27Z</time></trkpt><trkpt lat="42.49007263866233" lon="-8.368538779238293"><ele>959.0</ele><time>2026-04-18T10:21:28Z</time></trkpt><trkpt lat="42.489987994720465" lon="-8.368668523093218"><ele>959.0</ele><time>2026-04-18T10:21:29Z</time></trkpt><trkpt lat="42.489906529018626" lon="-8.368820422964815"><ele>960.0</ele><time>2026-04-18T10:21:30Z</time></trkpt><trkpt lat="42.489853202459564" lon="-8.368982900312815"><ele>961.0</ele><time>2026-04-18T10:21:31Z</time></trkpt><trkpt lat="42.48984011724502" lon="-8.369145685585268"><ele>962.0</ele><time>2026-04-18T10:21:32Z</time></trkpt><trkpt lat="42.489829890783696" lon="-8.369292800671763"><ele>963.0</ele><time>2026-04-18T10:21:33Z</time></trkpt><trkpt lat="42.48978523447108" lon="-8.369407636937385"><ele>963.0</ele><time>2026-04-18T10:21:34Z</time></trkpt><trkpt lat="42.48970534088696" lon="-8.369491067814467"><ele>963.0</ele><time>2026-04-18T10:21:35Z</time></trkpt><trkpt lat="42.48960917352043" lon="-8.369518188986383"><ele>963.0</ele><time>2026-04-18T10:21:36Z</time></trkpt><trkpt lat="42.48950452827895" lon="-8.369484273510064"><ele>963.0</ele><time>2026-04-18T10:21:37Z</time></trkpt><trkpt lat="42.489385935890375" lon="-8.369433392820703"><ele>963.0</ele><time>2026-04-18T10:21:38Z</time></trkpt><trkpt lat="42.48927999881391" lon="-8.369462002704477"><ele>962.8</ele><time>2026-04-18T10:21:39Z</time></trkpt><trkpt lat="42.489188125826544" lon="-8.369548428083105"><ele>962.5999999999999</ele><time>2026-04-18T10:21:40Z</time></trkpt><trkpt lat="42.48910772007623" lon="-8.369637679760007"><ele>962.4000000000001</ele><time>2026-04-18T10:21:41Z</time></trkpt><trkpt lat="42.48901842433851" lon="-8.369723683009179"><ele>962.2</ele><time>2026-04-18T10:21:42Z</time></trkpt><trkpt lat="42.48891711251724" lon="-8.36981433860479"><ele>962.0</ele><time>2026-04-18T10:21:43Z</time></trkpt><trkpt lat="42.4887900940854" lon="-8.36993000190493"><ele>962.6666666666667</ele><time>2026-04-18T10:21:44Z</time></trkpt><trkpt lat="42.48863793737124" lon="-8.370061959773743"><ele>963.3333333333333</ele><time>2026-04-18T10:21:45Z</time></trkpt><trkpt lat="42.488468286587015" lon="-8.370208180586008"><ele>964.0</ele><time>2026-04-18T10:21:46Z</time></trkpt><trkpt lat="42.48830349921921" lon="-8.370346845949895"><ele>964.0</ele><time>2026-04-18T10:21:47Z</time></trkpt><trkpt lat="42.488150570116886" lon="-8.370454762020131"><ele>964.0</ele><time>2026-04-18T10:21:48Z</time></trkpt><trkpt lat="42.48799355510798" lon="-8.370536300813127"><ele>964.0</ele><time>2026-04-18T10:21:49Z</time></trkpt><trkpt lat="42.48779918246186" lon="-8.37060427394834"><ele>962.0</ele><time>2026-04-18T10:21:50Z</time></trkpt><trkpt lat="42.48756730981552" lon="-8.370672894102952"><ele>960.0</ele><time>2026-04-18T10:21:51Z</time></trkpt><trkpt lat="42.48732472380764" lon="-8.370761505204158"><ele>960.0</ele><time>2026-04-18T10:21:52Z</time></trkpt><trkpt lat="42.48707642537426" lon="-8.370864707497873"><ele>960.0</ele><time>2026-04-18T10:21:53Z</time></trkpt><trkpt lat="42.48685049544341" lon="-8.37096578373323"><ele>960.0</ele><time>2026-04-18T10:21:54Z</time></trkpt><trkpt lat="42.486671989796974" lon="-8.371054377339682"><ele>960.0</ele><time>2026-04-18T10:21:55Z</time></trkpt><trkpt lat="42.48651529250396" lon="-8.371159104956792"><ele>960.0</ele><time>2026-04-18T10:21:56Z</time></trkpt><trkpt lat="42.48636528713324" lon="-8.371304114612883"><ele>959.3333333333333</ele><time>2026-04-18T10:21:57Z</time></trkpt><trkpt lat="42.4862100961164" lon="-8.371499837179657"><ele>958.6666666666666</ele><time>2026-04-18T10:21:58Z</time></trkpt><trkpt lat="42.48604587091955" lon="-8.371723439547514"><ele>958.0</ele><time>2026-04-18T10:21:58.999Z</time></trkpt><trkpt lat="42.48585612695216" lon="-8.37194517639628"><ele>958.0</ele><time>2026-04-18T10:21:59.999Z</time></trkpt><trkpt lat="42.48563932301593" lon="-8.372161581569406"><ele>958.0</ele><time>2026-04-18T10:22:00.999Z</time></trkpt><trkpt lat="42.485410734029216" lon="-8.372381079961544"><ele>955.5</ele><time>2026-04-18T10:22:01.999Z</time></trkpt><trkpt lat="42.485165702173006" lon="-8.372605150899597"><ele>953.0</ele><time>2026-04-18T10:22:02.999Z</time></trkpt><trkpt lat="42.48494612672842" lon="-8.37281209450106"><ele>953.0</ele><time>2026-04-18T10:22:03.999Z</time></trkpt><trkpt lat="42.484752355786945" lon="-8.373011611854386"><ele>953.0</ele><time>2026-04-18T10:22:04.999Z</time></trkpt><trkpt lat="42.48457009930147" lon="-8.373207475139907"><ele>951.0</ele><time>2026-04-18T10:22:05.999Z</time></trkpt><trkpt lat="42.48438174716844" lon="-8.37339052371563"><ele>949.0</ele><time>2026-04-18T10:22:06.999Z</time></trkpt><trkpt lat="42.48417326072457" lon="-8.373593217821224"><ele>949.0</ele><time>2026-04-18T10:22:07.999Z</time></trkpt><trkpt lat="42.48396110732704" lon="-8.373804495729116"><ele>949.0</ele><time>2026-04-18T10:22:08.999Z</time></trkpt><trkpt lat="42.48375743925806" lon="-8.374017278668122"><ele>950.0</ele><time>2026-04-18T10:22:09.999Z</time></trkpt><trkpt lat="42.48356620564406" lon="-8.37425190645207"><ele>951.0</ele><time>2026-04-18T10:22:10.999Z</time></trkpt><trkpt lat="42.48336773315015" lon="-8.374519256141914"><ele>949.5</ele><time>2026-04-18T10:22:11.999Z</time></trkpt><trkpt lat="42.48316972551676" lon="-8.374774427461915"><ele>948.0</ele><time>2026-04-18T10:22:12.999Z</time></trkpt><trkpt lat="42.48296972164849" lon="-8.37498907275742"><ele>950.0</ele><time>2026-04-18T10:22:13.999Z</time></trkpt><trkpt lat="42.48278544971679" lon="-8.37519468300621"><ele>952.0</ele><time>2026-04-18T10:22:14.999Z</time></trkpt><trkpt lat="42.48263275049286" lon="-8.375386700321021"><ele>954.0</ele><time>2026-04-18T10:22:15.999Z</time></trkpt><trkpt lat="42.482511702845976" lon="-8.375562367036954"><ele>954.0</ele><time>2026-04-18T10:22:16.999Z</time></trkpt><trkpt lat="42.48241364184439" lon="-8.37572487191732"><ele>954.0000000000001</ele><time>2026-04-18T10:22:17.999Z</time></trkpt><trkpt lat="42.482355110450925" lon="-8.375868426951467"><ele>954.0000000000001</ele><time>2026-04-18T10:22:18.999Z</time></trkpt><trkpt lat="42.48233360861216" lon="-8.375983559259089"><ele>954.0</ele><time>2026-04-18T10:22:19.999Z</time></trkpt><trkpt lat="42.48235683236588" lon="-8.376079945497025"><ele>954.0</ele><time>2026-04-18T10:22:20.999Z</time></trkpt><trkpt lat="42.482412058541385" lon="-8.376193450369591"><ele>954.0</ele><time>2026-04-18T10:22:21.999Z</time></trkpt><trkpt lat="42.482498738294495" lon="-8.376343315545657"><ele>954.0</ele><time>2026-04-18T10:22:22.999Z</time></trkpt><trkpt lat="42.48261712140139" lon="-8.376517244087758"><ele>954.0</ele><time>2026-04-18T10:22:23.999Z</time></trkpt><trkpt lat="42.4827508471342" lon="-8.376735059428519"><ele>952.0</ele><time>2026-04-18T10:22:24.999Z</time></trkpt><trkpt lat="42.48288286025249" lon="-8.376979438312608"><ele>950.0</ele><time>2026-04-18T10:22:25.999Z</time></trkpt><trkpt lat="42.48301834586469" lon="-8.377271240940281"><ele>946.5</ele><time>2026-04-18T10:22:26.999Z</time></trkpt><trkpt lat="42.48314232871913" lon="-8.37758071595989"><ele>943.0</ele><time>2026-04-18T10:22:27.998Z</time></trkpt><trkpt lat="42.4832654338469" lon="-8.377893727741904"><ele>941.5</ele><time>2026-04-18T10:22:28.998Z</time></trkpt><trkpt lat="42.48343965149343" lon="-8.378238659325481"><ele>940.0</ele><time>2026-04-18T10:22:29.998Z</time></trkpt><trkpt lat="42.48359452719567" lon="-8.37852404651485"><ele>940.0</ele><time>2026-04-18T10:22:30.998Z</time></trkpt><trkpt lat="42.48372725749711" lon="-8.378764883721981"><ele>940.0</ele><time>2026-04-18T10:22:31.998Z</time></trkpt><trkpt lat="42.483853799522734" lon="-8.378996422560785"><ele>940.0</ele><time>2026-04-18T10:22:32.998Z</time></trkpt><trkpt lat="42.483931598755" lon="-8.379144514069077"><ele>940.0</ele><time>2026-04-18T10:22:33.998Z</time></trkpt><trkpt lat="42.4839814507996" lon="-8.379288054996636"><ele>940.0</ele><time>2026-04-18T10:22:34.998Z</time></trkpt><trkpt lat="42.48412566108308" lon="-8.379380897295285"><ele>940.0</ele><time>2026-04-18T10:22:36Z</time></trkpt><trkpt lat="42.48429495149968" lon="-8.379446164589616"><ele>940.0</ele><time>2026-04-18T10:22:37Z</time></trkpt><trkpt lat="42.48449415822154" lon="-8.379505906906164"><ele>940.0</ele><time>2026-04-18T10:22:37.999Z</time></trkpt><trkpt lat="42.48468980321761" lon="-8.379536634376802"><ele>940.0</ele><time>2026-04-18T10:22:39Z</time></trkpt><trkpt lat="42.48492509481733" lon="-8.379509270439888"><ele>938.0</ele><time>2026-04-18T10:22:40Z</time></trkpt><trkpt lat="42.48517206212022" lon="-8.379443542764195"><ele>936.0</ele><time>2026-04-18T10:22:40.999Z</time></trkpt><trkpt lat="42.48542770466102" lon="-8.379347554736976"><ele>936.5</ele><time>2026-04-18T10:22:42Z</time></trkpt><trkpt lat="42.48566779855188" lon="-8.379287426459063"><ele>937.0</ele><time>2026-04-18T10:22:43Z</time></trkpt><trkpt lat="42.486024405250994" lon="-8.379131547140286"><ele>937.0</ele><time>2026-04-18T10:22:44Z</time></trkpt><trkpt lat="42.486244766281125" lon="-8.379074181946887"><ele>937.0</ele><time>2026-04-18T10:22:45Z</time></trkpt><trkpt lat="42.48641169578397" lon="-8.379065280281894"><ele>937.0</ele><time>2026-04-18T10:22:46Z</time></trkpt><trkpt lat="42.48654292282251" lon="-8.379087730435216"><ele>937.6666666666666</ele><time>2026-04-18T10:22:47Z</time></trkpt><trkpt lat="42.486736896169475" lon="-8.379117284873006"><ele>938.3333333333333</ele><time>2026-04-18T10:22:48Z</time></trkpt><trkpt lat="42.486939767830435" lon="-8.37914483854204"><ele>939.0</ele><time>2026-04-18T10:22:49Z</time></trkpt><trkpt lat="42.487152361024386" lon="-8.379171590976782"><ele>936.5</ele><time>2026-04-18T10:22:50Z</time></trkpt><trkpt lat="42.487353672361984" lon="-8.379242144487028"><ele>934.0</ele><time>2026-04-18T10:22:51Z</time></trkpt><trkpt lat="42.487589858065405" lon="-8.379348118442463"><ele>934.0</ele><time>2026-04-18T10:22:51.999Z</time></trkpt><trkpt lat="42.48783060521311" lon="-8.37945903642011"><ele>934.0</ele><time>2026-04-18T10:22:52.999Z</time></trkpt><trkpt lat="42.48806004261455" lon="-8.379583985225874"><ele>926.5</ele><time>2026-04-18T10:22:53.999Z</time></trkpt><trkpt lat="42.4883156031253" lon="-8.37973931252683"><ele>919.0</ele><time>2026-04-18T10:22:54.999Z</time></trkpt><trkpt lat="42.48856937480325" lon="-8.37987697057867"><ele>920.5</ele><time>2026-04-18T10:22:55.999Z</time></trkpt><trkpt lat="42.48878832319803" lon="-8.379964192233603"><ele>922.0</ele><time>2026-04-18T10:22:56.999Z</time></trkpt><trkpt lat="42.48900469852455" lon="-8.380031024413496"><ele>922.0</ele><time>2026-04-18T10:22:57.999Z</time></trkpt><trkpt lat="42.48919063850855" lon="-8.380106806680496"><ele>922.0</ele><time>2026-04-18T10:22:58.999Z</time></trkpt><trkpt lat="42.489362620197305" lon="-8.38020240437388"><ele>922.0</ele><time>2026-04-18T10:22:59.999Z</time></trkpt><trkpt lat="42.48954578605244" lon="-8.380321042131255"><ele>923.5</ele><time>2026-04-18T10:23:00.999Z</time></trkpt><trkpt lat="42.489776912133784" lon="-8.38047329045717"><ele>925.0</ele><time>2026-04-18T10:23:01.999Z</time></trkpt><trkpt lat="42.49001099257296" lon="-8.380630732174854"><ele>920.5</ele><time>2026-04-18T10:23:02.999Z</time></trkpt><trkpt lat="42.49020699733752" lon="-8.380797732753999"><ele>916.0</ele><time>2026-04-18T10:23:03.999Z</time></trkpt><trkpt lat="42.49037780005192" lon="-8.3809951244459"><ele>915.3333333333333</ele><time>2026-04-18T10:23:04.999Z</time></trkpt><trkpt lat="42.49052819920797" lon="-8.381206938041778"><ele>914.6666666666667</ele><time>2026-04-18T10:23:05.999Z</time></trkpt><trkpt lat="42.49067967370875" lon="-8.381381464197167"><ele>914.0</ele><time>2026-04-18T10:23:06.999Z</time></trkpt><trkpt lat="42.49085200878088" lon="-8.381556249739056"><ele>914.0</ele><time>2026-04-18T10:23:07.999Z</time></trkpt><trkpt lat="42.49103573672334" lon="-8.381727398048985"><ele>914.0</ele><time>2026-04-18T10:23:08.999Z</time></trkpt><trkpt lat="42.49125768222274" lon="-8.381902610293801"><ele>915.3333333333334</ele><time>2026-04-18T10:23:09.999Z</time></trkpt><trkpt lat="42.49145366535751" lon="-8.382052842279025"><ele>916.6666666666667</ele><time>2026-04-18T10:23:10.999Z</time></trkpt><trkpt lat="42.49162530921779" lon="-8.382187199454853"><ele>918.0</ele><time>2026-04-18T10:23:11.999Z</time></trkpt><trkpt lat="42.49183185366352" lon="-8.382331903353858"><ele>911.5</ele><time>2026-04-18T10:23:12.999Z</time></trkpt><trkpt lat="42.49203479512659" lon="-8.382485801130779"><ele>905.0</ele><time>2026-04-18T10:23:13.999Z</time></trkpt><trkpt lat="42.49227357878149" lon="-8.382650607693881"><ele>905.0</ele><time>2026-04-18T10:23:14.999Z</time></trkpt><trkpt lat="42.49256288698365" lon="-8.382829025651189"><ele>905.0</ele><time>2026-04-18T10:23:15.999Z</time></trkpt><trkpt lat="42.49283715871252" lon="-8.382987259817165"><ele>899.5</ele><time>2026-04-18T10:23:16.999Z</time></trkpt><trkpt lat="42.493090077517856" lon="-8.38313108667521"><ele>894.0</ele><time>2026-04-18T10:23:17.999Z</time></trkpt><trkpt lat="42.49328537782293" lon="-8.383262565017114"><ele>894.0</ele><time>2026-04-18T10:23:18.999Z</time></trkpt><trkpt lat="42.4934261637946" lon="-8.383368645046671"><ele>894.0</ele><time>2026-04-18T10:23:19.999Z</time></trkpt><trkpt lat="42.49355532254421" lon="-8.383459922789976"><ele>894.0</ele><time>2026-04-18T10:23:20.999Z</time></trkpt><trkpt lat="42.49365592032139" lon="-8.383527786104949"><ele>894.0</ele><time>2026-04-18T10:23:21.999Z</time></trkpt><trkpt lat="42.49383009187644" lon="-8.38363141085935"><ele>893.3333333333333</ele><time>2026-04-18T10:23:22.999Z</time></trkpt><trkpt lat="42.4940120537474" lon="-8.38372753395334"><ele>892.6666666666666</ele><time>2026-04-18T10:23:23.999Z</time></trkpt><trkpt lat="42.49423861245218" lon="-8.383838152042589"><ele>892.0</ele><time>2026-04-18T10:23:24.999Z</time></trkpt><trkpt lat="42.49446861744907" lon="-8.383967388931616"><ele>888.3333333333333</ele><time>2026-04-18T10:23:25.999Z</time></trkpt><trkpt lat="42.49467669425031" lon="-8.384089303600827"><ele>884.6666666666667</ele><time>2026-04-18T10:23:26.999Z</time></trkpt><trkpt lat="42.49487651975338" lon="-8.384195737888833"><ele>881.0</ele><time>2026-04-18T10:23:27.999Z</time></trkpt><trkpt lat="42.495071784714206" lon="-8.384226996294329"><ele>881.0</ele><time>2026-04-18T10:23:28.999Z</time></trkpt><trkpt lat="42.495262854264105" lon="-8.384296830710763"><ele>881.0</ele><time>2026-04-18T10:23:29.999Z</time></trkpt><trkpt lat="42.49543737662871" lon="-8.38437427387591"><ele>881.0</ele><time>2026-04-18T10:23:30.999Z</time></trkpt><trkpt lat="42.49559293599023" lon="-8.38446124517441"><ele>881.1999999999999</ele><time>2026-04-18T10:23:31.999Z</time></trkpt><trkpt lat="42.49571337823571" lon="-8.384543585041646"><ele>881.3999999999999</ele><time>2026-04-18T10:23:32.999Z</time></trkpt><trkpt lat="42.49580306285818" lon="-8.38460244126701"><ele>881.6</ele><time>2026-04-18T10:23:33.999Z</time></trkpt><trkpt lat="42.49587527537899" lon="-8.384629733837286"><ele>881.8</ele><time>2026-04-18T10:23:34.999Z</time></trkpt><trkpt lat="42.495948167377115" lon="-8.384624280285122"><ele>882.0</ele><time>2026-04-18T10:23:35.999Z</time></trkpt><trkpt lat="42.496051099987156" lon="-8.384559854252924"><ele>882.0</ele><time>2026-04-18T10:23:36.999Z</time></trkpt><trkpt lat="42.496172497965595" lon="-8.384485403183133"><ele>882.0</ele><time>2026-04-18T10:23:37.999Z</time></trkpt><trkpt lat="42.49631654499845" lon="-8.384413370003847"><ele>882.0</ele><time>2026-04-18T10:23:38.999Z</time></trkpt><trkpt lat="42.49649313672364" lon="-8.384333785136507"><ele>881.6666666666667</ele><time>2026-04-18T10:23:39.999Z</time></trkpt><trkpt lat="42.49668432387853" lon="-8.38424312982643"><ele>881.3333333333334</ele><time>2026-04-18T10:23:40.999Z</time></trkpt><trkpt lat="42.496900654952384" lon="-8.384139273971726"><ele>881.0</ele><time>2026-04-18T10:23:41.999Z</time></trkpt><trkpt lat="42.497139244126735" lon="-8.384028231863498"><ele>877.0</ele><time>2026-04-18T10:23:42.999Z</time></trkpt><trkpt lat="42.49737227703281" lon="-8.383904300094896"><ele>873.0</ele><time>2026-04-18T10:23:43.999Z</time></trkpt><trkpt lat="42.49759323359315" lon="-8.383767321166967"><ele>875.6666666666667</ele><time>2026-04-18T10:23:44.999Z</time></trkpt><trkpt lat="42.49778069572768" lon="-8.383636614437535"><ele>878.3333333333334</ele><time>2026-04-18T10:23:45.999Z</time></trkpt><trkpt lat="42.497967442456314" lon="-8.383472588751966"><ele>881.0</ele><time>2026-04-18T10:23:46.999Z</time></trkpt><trkpt lat="42.49812850124408" lon="-8.383319247997326"><ele>881.0</ele><time>2026-04-18T10:23:47.999Z</time></trkpt><trkpt lat="42.49828821685335" lon="-8.383198025779738"><ele>881.0</ele><time>2026-04-18T10:23:48.999Z</time></trkpt><trkpt lat="42.4984806521522" lon="-8.383066722545635"><ele>881.0</ele><time>2026-04-18T10:23:49.999Z</time></trkpt><trkpt lat="42.49868927844769" lon="-8.38289202652658"><ele>881.0</ele><time>2026-04-18T10:23:50.999Z</time></trkpt><trkpt lat="42.498900867725524" lon="-8.382684605786853"><ele>881.0</ele><time>2026-04-18T10:23:51.999Z</time></trkpt><trkpt lat="42.49912066548596" lon="-8.38246666449789"><ele>881.0</ele><time>2026-04-18T10:23:52.999Z</time></trkpt><trkpt lat="42.49934424804775" lon="-8.382228001277836"><ele>881.0</ele><time>2026-04-18T10:23:53.999Z</time></trkpt><trkpt lat="42.499536270377945" lon="-8.381998669396003"><ele>879.3333333333334</ele><time>2026-04-18T10:23:54.999Z</time></trkpt><trkpt lat="42.499705903103845" lon="-8.381789692775467"><ele>877.6666666666667</ele><time>2026-04-18T10:23:55.999Z</time></trkpt><trkpt lat="42.49985069775709" lon="-8.3816021176633"><ele>876.0</ele><time>2026-04-18T10:23:56.999Z</time></trkpt><trkpt lat="42.49996026215538" lon="-8.381443162888306"><ele>877.75</ele><time>2026-04-18T10:23:57.999Z</time></trkpt><trkpt lat="42.50004345445822" lon="-8.381298362231306"><ele>879.5</ele><time>2026-04-18T10:23:58.999Z</time></trkpt><trkpt lat="42.50009072584681" lon="-8.381149104856739"><ele>881.25</ele><time>2026-04-18T10:23:59.999Z</time></trkpt><trkpt lat="42.500102537330605" lon="-8.381011685957045"><ele>883.0</ele><time>2026-04-18T10:24:00.999Z</time></trkpt><trkpt lat="42.50008844777881" lon="-8.380871252756418"><ele>883.0</ele><time>2026-04-18T10:24:01.999Z</time></trkpt><trkpt lat="42.50004454370071" lon="-8.380701975245646"><ele>883.0</ele><time>2026-04-18T10:24:02.999Z</time></trkpt><trkpt lat="42.499984115160515" lon="-8.380514734699497"><ele>883.0</ele><time>2026-04-18T10:24:03.999Z</time></trkpt><trkpt lat="42.499924155327214" lon="-8.380305099268982"><ele>883.0</ele><time>2026-04-18T10:24:04.999Z</time></trkpt><trkpt lat="42.49986626047368" lon="-8.380062126396473"><ele>882.0</ele><time>2026-04-18T10:24:05.999Z</time></trkpt><trkpt lat="42.49980904483942" lon="-8.379796071344419"><ele>881.0</ele><time>2026-04-18T10:24:06.999Z</time></trkpt><trkpt lat="42.499770378962566" lon="-8.3795690074673"><ele>880.0</ele><time>2026-04-18T10:24:07.999Z</time></trkpt><trkpt lat="42.499747925884535" lon="-8.379396748444993"><ele>880.0</ele><time>2026-04-18T10:24:08.999Z</time></trkpt><trkpt lat="42.499737840518414" lon="-8.379266738323222"><ele>880.0</ele><time>2026-04-18T10:24:09.999Z</time></trkpt><trkpt lat="42.49978702690181" lon="-8.379127745693607"><ele>880.0</ele><time>2026-04-18T10:24:11.999Z</time></trkpt><trkpt lat="42.49987702513555" lon="-8.379057851486605"><ele>880.0</ele><time>2026-04-18T10:24:12.999Z</time></trkpt><trkpt lat="42.500012408353015" lon="-8.37897509616977"><ele>880.0</ele><time>2026-04-18T10:24:13.999Z</time></trkpt><trkpt lat="42.50017826988305" lon="-8.378862778755256"><ele>880.0</ele><time>2026-04-18T10:24:14.998Z</time></trkpt><trkpt lat="42.50034725437855" lon="-8.378712711090639"><ele>880.0</ele><time>2026-04-18T10:24:15.998Z</time></trkpt><trkpt lat="42.50053733265764" lon="-8.378548954653146"><ele>880.5</ele><time>2026-04-18T10:24:16.998Z</time></trkpt><trkpt lat="42.50074796550349" lon="-8.378424523360609"><ele>881.0</ele><time>2026-04-18T10:24:17.998Z</time></trkpt><trkpt lat="42.50098956938407" lon="-8.378298942916725"><ele>881.0</ele><time>2026-04-18T10:24:18.998Z</time></trkpt><trkpt lat="42.50123908688997" lon="-8.378141262523364"><ele>881.0</ele><time>2026-04-18T10:24:19.998Z</time></trkpt><trkpt lat="42.50149331562858" lon="-8.377971948903413"><ele>884.0</ele><time>2026-04-18T10:24:20.998Z</time></trkpt><trkpt lat="42.50175905042038" lon="-8.377795884064577"><ele>887.0</ele><time>2026-04-18T10:24:21.998Z</time></trkpt><trkpt lat="42.502034904177535" lon="-8.37762051222678"><ele>881.5</ele><time>2026-04-18T10:24:22.998Z</time></trkpt><trkpt lat="42.502285007275056" lon="-8.377459330565005"><ele>876.0</ele><time>2026-04-18T10:24:23.998Z</time></trkpt><trkpt lat="42.502495886383166" lon="-8.377314106821897"><ele>877.3333333333333</ele><time>2026-04-18T10:24:24.998Z</time></trkpt><trkpt lat="42.50268769291977" lon="-8.377182106396782"><ele>878.6666666666666</ele><time>2026-04-18T10:24:25.998Z</time></trkpt><trkpt lat="42.502876302318974" lon="-8.377045129777748"><ele>880.0</ele><time>2026-04-18T10:24:26.998Z</time></trkpt><trkpt lat="42.50306326390576" lon="-8.376913250483275"><ele>880.0</ele><time>2026-04-18T10:24:27.998Z</time></trkpt><trkpt lat="42.503246080874845" lon="-8.37677500126177"><ele>880.0</ele><time>2026-04-18T10:24:28.998Z</time></trkpt><trkpt lat="42.503417659552795" lon="-8.376627928466561"><ele>880.0</ele><time>2026-04-18T10:24:29.998Z</time></trkpt><trkpt lat="42.5035499005407" lon="-8.37650064180612"><ele>880.0</ele><time>2026-04-18T10:24:30.998Z</time></trkpt><trkpt lat="42.50367385888247" lon="-8.376404417239806"><ele>880.0</ele><time>2026-04-18T10:24:31.998Z</time></trkpt><trkpt lat="42.503819470639165" lon="-8.376369437100074"><ele>880.0</ele><time>2026-04-18T10:24:32.998Z</time></trkpt><trkpt lat="42.5039903990635" lon="-8.3763515996708"><ele>881.3333333333333</ele><time>2026-04-18T10:24:33.998Z</time></trkpt><trkpt lat="42.50416952901798" lon="-8.376259606034209"><ele>882.6666666666667</ele><time>2026-04-18T10:24:34.998Z</time></trkpt><trkpt lat="42.50433075349831" lon="-8.376130726163089"><ele>884.0</ele><time>2026-04-18T10:24:35.998Z</time></trkpt><trkpt lat="42.50445543806016" lon="-8.376013297296302"><ele>884.0</ele><time>2026-04-18T10:24:36.998Z</time></trkpt><trkpt lat="42.50457230820063" lon="-8.375856640639865"><ele>884.0</ele><time>2026-04-18T10:24:37.998Z</time></trkpt><trkpt lat="42.504691897076306" lon="-8.375646025492031"><ele>884.0</ele><time>2026-04-18T10:24:38.998Z</time></trkpt><trkpt lat="42.504818707771754" lon="-8.375412950786988"><ele>882.3333333333334</ele><time>2026-04-18T10:24:39.998Z</time></trkpt><trkpt lat="42.50495128795262" lon="-8.375198000511014"><ele>880.6666666666667</ele><time>2026-04-18T10:24:40.998Z</time></trkpt><trkpt lat="42.505049422153455" lon="-8.374999259256791"><ele>879.0</ele><time>2026-04-18T10:24:42Z</time></trkpt><trkpt lat="42.50511288110253" lon="-8.374814548807842"><ele>880.3333333333333</ele><time>2026-04-18T10:24:43Z</time></trkpt><trkpt lat="42.505179643151564" lon="-8.374626002023486"><ele>881.6666666666666</ele><time>2026-04-18T10:24:44Z</time></trkpt><trkpt lat="42.505251828794044" lon="-8.37442676451015"><ele>883.0</ele><time>2026-04-18T10:24:45Z</time></trkpt><trkpt lat="42.50530614160263" lon="-8.374187648067172"><ele>883.0</ele><time>2026-04-18T10:24:46Z</time></trkpt><trkpt lat="42.505330842361055" lon="-8.373944855594168"><ele>883.0</ele><time>2026-04-18T10:24:47Z</time></trkpt><trkpt lat="42.505339736040625" lon="-8.37377763507476"><ele>883.0</ele><time>2026-04-18T10:24:48Z</time></trkpt><trkpt lat="42.50535628979403" lon="-8.37366567151868"><ele>883.0</ele><time>2026-04-18T10:24:49Z</time></trkpt><trkpt lat="42.505394904213446" lon="-8.373565729505925"><ele>881.25</ele><time>2026-04-18T10:24:50Z</time></trkpt><trkpt lat="42.505471108241224" lon="-8.373477335240453"><ele>879.5</ele><time>2026-04-18T10:24:51Z</time></trkpt><trkpt lat="42.505592564470994" lon="-8.373394924936658"><ele>877.75</ele><time>2026-04-18T10:24:52Z</time></trkpt><trkpt lat="42.50574702402632" lon="-8.373373262561838"><ele>876.0</ele><time>2026-04-18T10:24:53Z</time></trkpt><trkpt lat="42.50591871936969" lon="-8.373372622460996"><ele>876.0</ele><time>2026-04-18T10:24:54Z</time></trkpt><trkpt lat="42.506113815754134" lon="-8.373344100309643"><ele>876.0</ele><time>2026-04-18T10:24:55Z</time></trkpt><trkpt lat="42.506333982960705" lon="-8.373310195531479"><ele>876.0</ele><time>2026-04-18T10:24:56Z</time></trkpt><trkpt lat="42.50656601947725" lon="-8.373250933065847"><ele>874.0</ele><time>2026-04-18T10:24:57Z</time></trkpt><trkpt lat="42.50681109502996" lon="-8.373201966590221"><ele>872.0</ele><time>2026-04-18T10:24:58Z</time></trkpt><trkpt lat="42.50703587413734" lon="-8.373182981169437"><ele>872.0</ele><time>2026-04-18T10:24:59Z</time></trkpt><trkpt lat="42.507241157663934" lon="-8.373173400374979"><ele>872.0</ele><time>2026-04-18T10:25:00Z</time></trkpt><trkpt lat="42.50743318965946" lon="-8.373128847772888"><ele>872.0</ele><time>2026-04-18T10:25:01Z</time></trkpt><trkpt lat="42.5076484372614" lon="-8.373050008561437"><ele>873.3333333333334</ele><time>2026-04-18T10:25:02Z</time></trkpt><trkpt lat="42.50785782722353" lon="-8.372961499798317"><ele>874.6666666666667</ele><time>2026-04-18T10:25:03Z</time></trkpt><trkpt lat="42.50803374157503" lon="-8.372910647651045"><ele>876.0</ele><time>2026-04-18T10:25:04Z</time></trkpt><trkpt lat="42.508167242438105" lon="-8.372876135493229"><ele>876.0</ele><time>2026-04-18T10:25:05Z</time></trkpt><trkpt lat="42.50826380807616" lon="-8.372829828736196"><ele>875.9999999999999</ele><time>2026-04-18T10:25:05.999Z</time></trkpt><trkpt lat="42.50831402551657" lon="-8.37274258381822"><ele>875.9999999999999</ele><time>2026-04-18T10:25:06.999Z</time></trkpt><trkpt lat="42.508346377484635" lon="-8.37261355560784"><ele>876.0</ele><time>2026-04-18T10:25:07.999Z</time></trkpt><trkpt lat="42.50838056261704" lon="-8.372437848086781"><ele>876.0</ele><time>2026-04-18T10:25:08.999Z</time></trkpt><trkpt lat="42.508425111649366" lon="-8.372221333732261"><ele>878.0</ele><time>2026-04-18T10:25:09.999Z</time></trkpt><trkpt lat="42.50847912895582" lon="-8.371970094182952"><ele>880.0</ele><time>2026-04-18T10:25:10.999Z</time></trkpt><trkpt lat="42.50852153580594" lon="-8.371746728643851"><ele>882.0</ele><time>2026-04-18T10:25:11.999Z</time></trkpt><trkpt lat="42.50856058453383" lon="-8.371607491413664"><ele>882.0</ele><time>2026-04-18T10:25:12.999Z</time></trkpt><trkpt lat="42.508617650746785" lon="-8.371520798506433"><ele>882.0</ele><time>2026-04-18T10:25:13.999Z</time></trkpt><trkpt lat="42.50870689985914" lon="-8.371471650596748"><ele>882.0</ele><time>2026-04-18T10:25:14.999Z</time></trkpt><trkpt lat="42.50883373872212" lon="-8.371443060686433"><ele>882.0</ele><time>2026-04-18T10:25:15.999Z</time></trkpt><trkpt lat="42.50900790545392" lon="-8.371410461611806"><ele>881.0</ele><time>2026-04-18T10:25:16.999Z</time></trkpt><trkpt lat="42.509191479992786" lon="-8.37135375081381"><ele>880.0</ele><time>2026-04-18T10:25:17.999Z</time></trkpt><trkpt lat="42.50936687123264" lon="-8.371271722023149"><ele>879.0</ele><time>2026-04-18T10:25:18.999Z</time></trkpt><trkpt lat="42.50949989868082" lon="-8.371175959640459"><ele>875.25</ele><time>2026-04-18T10:25:19.999Z</time></trkpt><trkpt lat="42.50960642947201" lon="-8.371054676932298"><ele>871.5</ele><time>2026-04-18T10:25:20.999Z</time></trkpt><trkpt lat="42.50970026918167" lon="-8.370917136781287"><ele>867.75</ele><time>2026-04-18T10:25:21.999Z</time></trkpt><trkpt lat="42.509779663180176" lon="-8.37076014539976"><ele>864.0</ele><time>2026-04-18T10:25:22.999Z</time></trkpt><trkpt lat="42.50985770968593" lon="-8.370575431237654"><ele>865.3333333333333</ele><time>2026-04-18T10:25:23.999Z</time></trkpt><trkpt lat="42.509952484596724" lon="-8.370386498867859"><ele>866.6666666666666</ele><time>2026-04-18T10:25:24.999Z</time></trkpt><trkpt lat="42.510050217245045" lon="-8.370162768142807"><ele>868.0</ele><time>2026-04-18T10:25:25.999Z</time></trkpt><trkpt lat="42.510142868594855" lon="-8.369927993277507"><ele>868.0</ele><time>2026-04-18T10:25:26.999Z</time></trkpt><trkpt lat="42.51022445769134" lon="-8.369744538937354"><ele>868.0</ele><time>2026-04-18T10:25:27.999Z</time></trkpt><trkpt lat="42.51030203687597" lon="-8.369525722371874"><ele>868.0</ele><time>2026-04-18T10:25:28.999Z</time></trkpt><trkpt lat="42.51035870649051" lon="-8.369261689496621"><ele>866.8</ele><time>2026-04-18T10:25:29.999Z</time></trkpt><trkpt lat="42.51039844113725" lon="-8.369069479626324"><ele>865.5999999999999</ele><time>2026-04-18T10:25:30.999Z</time></trkpt><trkpt lat="42.51041344655073" lon="-8.368916041470573"><ele>864.4000000000001</ele><time>2026-04-18T10:25:31.999Z</time></trkpt><trkpt lat="42.510409544696884" lon="-8.368807984424791"><ele>863.2</ele><time>2026-04-18T10:25:32.999Z</time></trkpt><trkpt lat="42.51032102089514" lon="-8.368741792277897"><ele>862.0</ele><time>2026-04-18T10:25:41.999Z</time></trkpt><trkpt lat="42.51029946428747" lon="-8.368586185796975"><ele>859.5</ele><time>2026-04-18T10:25:43.999Z</time></trkpt><trkpt lat="42.510248917841196" lon="-8.36839615653322"><ele>857.0</ele><time>2026-04-18T10:25:44.999Z</time></trkpt><trkpt lat="42.51016803278321" lon="-8.368250927053253"><ele>854.5</ele><time>2026-04-18T10:25:45.999Z</time></trkpt><trkpt lat="42.51007115694543" lon="-8.36812663684654"><ele>852.0</ele><time>2026-04-18T10:25:46.999Z</time></trkpt><trkpt lat="42.509957026665454" lon="-8.36801031270621"><ele>849.5</ele><time>2026-04-18T10:25:47.999Z</time></trkpt><trkpt lat="42.509840369556024" lon="-8.367934158937889"><ele>847.0</ele><time>2026-04-18T10:25:48.999Z</time></trkpt><trkpt lat="42.509718995013685" lon="-8.367903536143336"><ele>844.5</ele><time>2026-04-18T10:25:49.999Z</time></trkpt><trkpt lat="42.509610869516145" lon="-8.36786966632171"><ele>842.0</ele><time>2026-04-18T10:25:50.999Z</time></trkpt><trkpt lat="42.509523703653876" lon="-8.367799363611796"><ele>842.0</ele><time>2026-04-18T10:25:51.999Z</time></trkpt><trkpt lat="42.50946510892214" lon="-8.36770172625496"><ele>842.0</ele><time>2026-04-18T10:25:52.999Z</time></trkpt><trkpt lat="42.50943484735862" lon="-8.36754775444085"><ele>842.0</ele><time>2026-04-18T10:25:53.999Z</time></trkpt><trkpt lat="42.50939405190254" lon="-8.367342422586985"><ele>842.0</ele><time>2026-04-18T10:25:54.999Z</time></trkpt><trkpt lat="42.509359295850594" lon="-8.367163760393062"><ele>839.2</ele><time>2026-04-18T10:25:55.999Z</time></trkpt><trkpt lat="42.50932863941418" lon="-8.367019340338569"><ele>836.4000000000001</ele><time>2026-04-18T10:25:56.999Z</time></trkpt><trkpt lat="42.509304869168304" lon="-8.366931282663497"><ele>833.5999999999999</ele><time>2026-04-18T10:25:57.999Z</time></trkpt><trkpt lat="42.509159198272265" lon="-8.36693037090594"><ele>830.8</ele><time>2026-04-18T10:26:00.999Z</time></trkpt><trkpt lat="42.50905545533995" lon="-8.36695017716145"><ele>828.0</ele><time>2026-04-18T10:26:01.999Z</time></trkpt><trkpt lat="42.5088866529613" lon="-8.366970075985465"><ele>826.6666666666667</ele><time>2026-04-18T10:26:02.999Z</time></trkpt><trkpt lat="42.50871781149721" lon="-8.366978271486229"><ele>825.3333333333334</ele><time>2026-04-18T10:26:03.999Z</time></trkpt><trkpt lat="42.508538565037284" lon="-8.367022792791818"><ele>824.0</ele><time>2026-04-18T10:26:04.999Z</time></trkpt><trkpt lat="42.50835474381771" lon="-8.367051290514926"><ele>824.0</ele><time>2026-04-18T10:26:05.999Z</time></trkpt><trkpt lat="42.50816086971874" lon="-8.36705763157803"><ele>824.0</ele><time>2026-04-18T10:26:06.999Z</time></trkpt><trkpt lat="42.507988984634764" lon="-8.36706070450582"><ele>824.0</ele><time>2026-04-18T10:26:07.999Z</time></trkpt><trkpt lat="42.50784468556561" lon="-8.36709436042807"><ele>826.5000000000001</ele><time>2026-04-18T10:26:08.999Z</time></trkpt><trkpt lat="42.50771182527279" lon="-8.367121684052773"><ele>829.0</ele><time>2026-04-18T10:26:09.999Z</time></trkpt><trkpt lat="42.507637050198234" lon="-8.36711691303933"><ele>831.5</ele><time>2026-04-18T10:26:10.999Z</time></trkpt><trkpt lat="42.507584096585035" lon="-8.36706482768921"><ele>834.0</ele><time>2026-04-18T10:26:11.999Z</time></trkpt><trkpt lat="42.507565536469215" lon="-8.36697271438963"><ele>836.5000000000001</ele><time>2026-04-18T10:26:12.999Z</time></trkpt><trkpt lat="42.5075977976343" lon="-8.366839825060747"><ele>839.0</ele><time>2026-04-18T10:26:13.999Z</time></trkpt><trkpt lat="42.50766649498636" lon="-8.366750041706858"><ele>839.0</ele><time>2026-04-18T10:26:14.999Z</time></trkpt><trkpt lat="42.507746739440165" lon="-8.366690632198416"><ele>839.0</ele><time>2026-04-18T10:26:15.999Z</time></trkpt><trkpt lat="42.50783742540261" lon="-8.366585433269577"><ele>839.0</ele><time>2026-04-18T10:26:16.999Z</time></trkpt><trkpt lat="42.50792496289965" lon="-8.3664599660736"><ele>839.0</ele><time>2026-04-18T10:26:17.999Z</time></trkpt><trkpt lat="42.508010686236105" lon="-8.366337559889745"><ele>833.0</ele><time>2026-04-18T10:26:18.999Z</time></trkpt><trkpt lat="42.50810076421647" lon="-8.366217392462476"><ele>827.0</ele><time>2026-04-18T10:26:19.999Z</time></trkpt><trkpt lat="42.50816926293857" lon="-8.366090036518662"><ele>821.0</ele><time>2026-04-18T10:26:20.999Z</time></trkpt><trkpt lat="42.50825050412431" lon="-8.365937791730136"><ele>815.0</ele><time>2026-04-18T10:26:21.999Z</time></trkpt><trkpt lat="42.508327723113055" lon="-8.36576006217487"><ele>815.0</ele><time>2026-04-18T10:26:22.999Z</time></trkpt><trkpt lat="42.50838749696748" lon="-8.36558085576444"><ele>815.0</ele><time>2026-04-18T10:26:23.999Z</time></trkpt><trkpt lat="42.508444985391115" lon="-8.365420246645396"><ele>815.0</ele><time>2026-04-18T10:26:24.999Z</time></trkpt><trkpt lat="42.508501872500844" lon="-8.365245829653245"><ele>815.0</ele><time>2026-04-18T10:26:25.999Z</time></trkpt><trkpt lat="42.50857013365865" lon="-8.365063544419241"><ele>813.5</ele><time>2026-04-18T10:26:26.999Z</time></trkpt><trkpt lat="42.50862913719606" lon="-8.364944652184947"><ele>812.0</ele><time>2026-04-18T10:26:27.998Z</time></trkpt><trkpt lat="42.508703475929345" lon="-8.364829345947655"><ele>810.5</ele><time>2026-04-18T10:26:28.998Z</time></trkpt><trkpt lat="42.50877224659481" lon="-8.364719107482667"><ele>809.0</ele><time>2026-04-18T10:26:29.998Z</time></trkpt><trkpt lat="42.50885808453241" lon="-8.364588960146062"><ele>807.25</ele><time>2026-04-18T10:26:30.998Z</time></trkpt><trkpt lat="42.508941201560056" lon="-8.364409979321545"><ele>805.5</ele><time>2026-04-18T10:26:31.998Z</time></trkpt><trkpt lat="42.50903087674553" lon="-8.36427273443964"><ele>803.75</ele><time>2026-04-18T10:26:32.998Z</time></trkpt><trkpt lat="42.50914024892715" lon="-8.364172905102588"><ele>802.0</ele><time>2026-04-18T10:26:33.998Z</time></trkpt><trkpt lat="42.50924197437105" lon="-8.364052211778285"><ele>802.0</ele><time>2026-04-18T10:26:34.998Z</time></trkpt><trkpt lat="42.50953935341575" lon="-8.364066623394411"><ele>802.0</ele><time>2026-04-18T10:26:35.998Z</time></trkpt><trkpt lat="42.509732363609245" lon="-8.363993959208733"><ele>803.6666666666666</ele><time>2026-04-18T10:26:36.998Z</time></trkpt><trkpt lat="42.509909863637496" lon="-8.363890154018987"><ele>805.3333333333333</ele><time>2026-04-18T10:26:37.998Z</time></trkpt><trkpt lat="42.51009338535228" lon="-8.363804701621245"><ele>807.0</ele><time>2026-04-18T10:26:38.998Z</time></trkpt><trkpt lat="42.51026494534789" lon="-8.36375162720529"><ele>802.0</ele><time>2026-04-18T10:26:39.998Z</time></trkpt><trkpt lat="42.510443095971794" lon="-8.363689928546796"><ele>797.0</ele><time>2026-04-18T10:26:40.998Z</time></trkpt><trkpt lat="42.510626044900285" lon="-8.363596100358155"><ele>792.0</ele><time>2026-04-18T10:26:41.998Z</time></trkpt><trkpt lat="42.51084066538224" lon="-8.363459741656316"><ele>792.0</ele><time>2026-04-18T10:26:42.998Z</time></trkpt><trkpt lat="42.51102311759538" lon="-8.36333334474655"><ele>792.0</ele><time>2026-04-18T10:26:43.998Z</time></trkpt><trkpt lat="42.51116990441894" lon="-8.363236710939658"><ele>792.0</ele><time>2026-04-18T10:26:44.998Z</time></trkpt><trkpt lat="42.51130678793246" lon="-8.363109112776321"><ele>789.3333333333333</ele><time>2026-04-18T10:26:45.998Z</time></trkpt><trkpt lat="42.511433714929545" lon="-8.362953871381272"><ele>786.6666666666666</ele><time>2026-04-18T10:26:46.998Z</time></trkpt><trkpt lat="42.51158228444153" lon="-8.362814402806324"><ele>784.0</ele><time>2026-04-18T10:26:48Z</time></trkpt><trkpt lat="42.51174625494601" lon="-8.362666512846603"><ele>784.0</ele><time>2026-04-18T10:26:49Z</time></trkpt><trkpt lat="42.511882858786066" lon="-8.362548461531505"><ele>784.0</ele><time>2026-04-18T10:26:50Z</time></trkpt><trkpt lat="42.51196620964989" lon="-8.362441037856788"><ele>784.0</ele><time>2026-04-18T10:26:51Z</time></trkpt><trkpt lat="42.512024699893665" lon="-8.36232292509153"><ele>784.0</ele><time>2026-04-18T10:26:52Z</time></trkpt><trkpt lat="42.512030442471904" lon="-8.362217954713602"><ele>782.0</ele><time>2026-04-18T10:26:53Z</time></trkpt><trkpt lat="42.51202409730073" lon="-8.362042440311063"><ele>780.0</ele><time>2026-04-18T10:26:54Z</time></trkpt><trkpt lat="42.51206039176805" lon="-8.361842210097377"><ele>778.0</ele><time>2026-04-18T10:26:55Z</time></trkpt><trkpt lat="42.51202469717656" lon="-8.361704518963824"><ele>776.0</ele><time>2026-04-18T10:26:56Z</time></trkpt><trkpt lat="42.51193245073135" lon="-8.3615365079463"><ele>774.0</ele><time>2026-04-18T10:26:57Z</time></trkpt><trkpt lat="42.51189830521804" lon="-8.36134230493041"><ele>772.0</ele><time>2026-04-18T10:26:58Z</time></trkpt><trkpt lat="42.51186544380174" lon="-8.361142944590181"><ele>770.0</ele><time>2026-04-18T10:26:59Z</time></trkpt><trkpt lat="42.51188350331288" lon="-8.360964215243643"><ele>768.0</ele><time>2026-04-18T10:27:00Z</time></trkpt><trkpt lat="42.51193357402478" lon="-8.360830584573744"><ele>768.0</ele><time>2026-04-18T10:27:01Z</time></trkpt><trkpt lat="42.512018663500825" lon="-8.360677492278029"><ele>768.0</ele><time>2026-04-18T10:27:02Z</time></trkpt><trkpt lat="42.51211780155218" lon="-8.36052852793287"><ele>768.0</ele><time>2026-04-18T10:27:03Z</time></trkpt><trkpt lat="42.51218443126677" lon="-8.360404335523762"><ele>768.0</ele><time>2026-04-18T10:27:04Z</time></trkpt><trkpt lat="42.51224568692565" lon="-8.360294303685206"><ele>767.0</ele><time>2026-04-18T10:27:05Z</time></trkpt><trkpt lat="42.51234402997784" lon="-8.360212876541459"><ele>766.0</ele><time>2026-04-18T10:27:06Z</time></trkpt><trkpt lat="42.512450717446505" lon="-8.360160387284834"><ele>765.0</ele><time>2026-04-18T10:27:07Z</time></trkpt><trkpt lat="42.51254575442118" lon="-8.36010608502189"><ele>764.0</ele><time>2026-04-18T10:27:08Z</time></trkpt><trkpt lat="42.512624482540815" lon="-8.360010151242303"><ele>763.0</ele><time>2026-04-18T10:27:09Z</time></trkpt><trkpt lat="42.512733321687826" lon="-8.359918539592869"><ele>763.0</ele><time>2026-04-18T10:27:10Z</time></trkpt><trkpt lat="42.512841942101794" lon="-8.359826275006908"><ele>763.0</ele><time>2026-04-18T10:27:11Z</time></trkpt><trkpt lat="42.51293860265441" lon="-8.359805525624434"><ele>763.0</ele><time>2026-04-18T10:27:12Z</time></trkpt><trkpt lat="42.51305211335316" lon="-8.359821236763329"><ele>763.0</ele><time>2026-04-18T10:27:13Z</time></trkpt><trkpt lat="42.513195079528494" lon="-8.359829044623133"><ele>763.25</ele><time>2026-04-18T10:27:14Z</time></trkpt><trkpt lat="42.51334302268548" lon="-8.359802719704463"><ele>763.5</ele><time>2026-04-18T10:27:15Z</time></trkpt><trkpt lat="42.513485794262614" lon="-8.359731518666315"><ele>763.75</ele><time>2026-04-18T10:27:16Z</time></trkpt><trkpt lat="42.513610497654824" lon="-8.359644396347091"><ele>764.0</ele><time>2026-04-18T10:27:17Z</time></trkpt><trkpt lat="42.51373484497636" lon="-8.35954878955321"><ele>761.0</ele><time>2026-04-18T10:27:18Z</time></trkpt><trkpt lat="42.51385838410554" lon="-8.359433510618413"><ele>758.0</ele><time>2026-04-18T10:27:19Z</time></trkpt><trkpt lat="42.51399044547684" lon="-8.3592901263868"><ele>755.0</ele><time>2026-04-18T10:27:20Z</time></trkpt><trkpt lat="42.51412210346683" lon="-8.359149186710248"><ele>755.0</ele><time>2026-04-18T10:27:21Z</time></trkpt><trkpt lat="42.51424390429902" lon="-8.359018451456159"><ele>755.0</ele><time>2026-04-18T10:27:21.999Z</time></trkpt><trkpt lat="42.51433257813397" lon="-8.358917478224592"><ele>755.0</ele><time>2026-04-18T10:27:22.999Z</time></trkpt><trkpt lat="42.51439020709676" lon="-8.358819957553347"><ele>755.0</ele><time>2026-04-18T10:27:23.999Z</time></trkpt><trkpt lat="42.51443385213564" lon="-8.358708730107335"><ele>754.2</ele><time>2026-04-18T10:27:24.999Z</time></trkpt><trkpt lat="42.51447806861846" lon="-8.358573849272448"><ele>753.4</ele><time>2026-04-18T10:27:25.999Z</time></trkpt><trkpt lat="42.514499831045356" lon="-8.35843704238927"><ele>752.5999999999999</ele><time>2026-04-18T10:27:26.999Z</time></trkpt><trkpt lat="42.51447898340148" lon="-8.3582998827833"><ele>751.8</ele><time>2026-04-18T10:27:27.999Z</time></trkpt><trkpt lat="42.51440890255111" lon="-8.358149577782184"><ele>751.0</ele><time>2026-04-18T10:27:28.999Z</time></trkpt><trkpt lat="42.51431787809962" lon="-8.357991205206517"><ele>748.75</ele><time>2026-04-18T10:27:29.999Z</time></trkpt><trkpt lat="42.51424300546023" lon="-8.357806615650992"><ele>746.5</ele><time>2026-04-18T10:27:30.999Z</time></trkpt><trkpt lat="42.51417666950548" lon="-8.357630369282125"><ele>744.25</ele><time>2026-04-18T10:27:31.999Z</time></trkpt><trkpt lat="42.51412710356192" lon="-8.357461515062477"><ele>742.0</ele><time>2026-04-18T10:27:32.999Z</time></trkpt><trkpt lat="42.51409210202882" lon="-8.35728089539792"><ele>739.5</ele><time>2026-04-18T10:27:33.999Z</time></trkpt><trkpt lat="42.514062527868894" lon="-8.357093080041217"><ele>737.0</ele><time>2026-04-18T10:27:34.999Z</time></trkpt><trkpt lat="42.51404589261557" lon="-8.356941510703606"><ele>734.5</ele><time>2026-04-18T10:27:35.999Z</time></trkpt><trkpt lat="42.51403387370592" lon="-8.356802619035125"><ele>732.0</ele><time>2026-04-18T10:27:36.999Z</time></trkpt><trkpt lat="42.514020016505356" lon="-8.356639008927026"><ele>732.0</ele><time>2026-04-18T10:27:37.999Z</time></trkpt><trkpt lat="42.51400534999377" lon="-8.356432440313878"><ele>732.0</ele><time>2026-04-18T10:27:38.999Z</time></trkpt><trkpt lat="42.51398223044447" lon="-8.356235194570441"><ele>732.0</ele><time>2026-04-18T10:27:39.999Z</time></trkpt><trkpt lat="42.51398185901781" lon="-8.356083114111385"><ele>732.0</ele><time>2026-04-18T10:27:40.999Z</time></trkpt><trkpt lat="42.51403352709478" lon="-8.355898768935429"><ele>730.5</ele><time>2026-04-18T10:27:41.999Z</time></trkpt><trkpt lat="42.51410387602627" lon="-8.35569172813927"><ele>729.0</ele><time>2026-04-18T10:27:42.999Z</time></trkpt><trkpt lat="42.51415725232014" lon="-8.35552369513279"><ele>727.5</ele><time>2026-04-18T10:27:43.999Z</time></trkpt><trkpt lat="42.51417477185907" lon="-8.355380535751179"><ele>726.0</ele><time>2026-04-18T10:27:44.999Z</time></trkpt><trkpt lat="42.51415966439827" lon="-8.355275550690088"><ele>725.0</ele><time>2026-04-18T10:27:45.999Z</time></trkpt><trkpt lat="42.51410927224431" lon="-8.35517807425091"><ele>724.0</ele><time>2026-04-18T10:27:46.999Z</time></trkpt><trkpt lat="42.5140607034971" lon="-8.355069690810776"><ele>723.0</ele><time>2026-04-18T10:27:47.999Z</time></trkpt><trkpt lat="42.51397753595175" lon="-8.354893556492865"><ele>722.0</ele><time>2026-04-18T10:27:48.999Z</time></trkpt><trkpt lat="42.51389008552151" lon="-8.354748750763378"><ele>722.2</ele><time>2026-04-18T10:27:49.999Z</time></trkpt><trkpt lat="42.51388795132456" lon="-8.35459114919917"><ele>722.4000000000001</ele><time>2026-04-18T10:27:50.999Z</time></trkpt><trkpt lat="42.51390662447821" lon="-8.354463438816175"><ele>722.5999999999999</ele><time>2026-04-18T10:27:51.999Z</time></trkpt><trkpt lat="42.513958650241584" lon="-8.354338346857496"><ele>722.8</ele><time>2026-04-18T10:27:52.999Z</time></trkpt><trkpt lat="42.51402402705669" lon="-8.354216049948603"><ele>723.0</ele><time>2026-04-18T10:27:53.999Z</time></trkpt><trkpt lat="42.514099704342954" lon="-8.354131858193414"><ele>723.0</ele><time>2026-04-18T10:27:54.999Z</time></trkpt><trkpt lat="42.51417991783914" lon="-8.354104597505996"><ele>723.0</ele><time>2026-04-18T10:27:55.999Z</time></trkpt><trkpt lat="42.51427243454103" lon="-8.354117518244243"><ele>723.0</ele><time>2026-04-18T10:27:56.999Z</time></trkpt><trkpt lat="42.51437836968438" lon="-8.354152450631359"><ele>723.0</ele><time>2026-04-18T10:27:57.999Z</time></trkpt><trkpt lat="42.51448708899591" lon="-8.35421696549427"><ele>723.0</ele><time>2026-04-18T10:27:58.999Z</time></trkpt><trkpt lat="42.51459501464091" lon="-8.354280055418362"><ele>721.5999999999999</ele><time>2026-04-18T10:27:59.999Z</time></trkpt><trkpt lat="42.514674974864356" lon="-8.35430257276673"><ele>720.1999999999999</ele><time>2026-04-18T10:28:00.999Z</time></trkpt><trkpt lat="42.51479433589495" lon="-8.354258144810327"><ele>718.8</ele><time>2026-04-18T10:28:02.999Z</time></trkpt><trkpt lat="42.51486138087562" lon="-8.354182287827703"><ele>717.4</ele><time>2026-04-18T10:28:03.999Z</time></trkpt><trkpt lat="42.514936257329225" lon="-8.354111520330758"><ele>716.0</ele><time>2026-04-18T10:28:04.999Z</time></trkpt><trkpt lat="42.515013588248635" lon="-8.354079058331234"><ele>716.0</ele><time>2026-04-18T10:28:05.999Z</time></trkpt><trkpt lat="42.515115829299916" lon="-8.354058956086819"><ele>716.0</ele><time>2026-04-18T10:28:06.999Z</time></trkpt><trkpt lat="42.515247355151054" lon="-8.354030648292197"><ele>716.0</ele><time>2026-04-18T10:28:07.999Z</time></trkpt><trkpt lat="42.515395775905844" lon="-8.354008381984041"><ele>716.0</ele><time>2026-04-18T10:28:08.999Z</time></trkpt><trkpt lat="42.515518180104216" lon="-8.353981809408278"><ele>714.6666666666666</ele><time>2026-04-18T10:28:09.999Z</time></trkpt><trkpt lat="42.51565020725207" lon="-8.353895817917481"><ele>713.3333333333334</ele><time>2026-04-18T10:28:10.999Z</time></trkpt><trkpt lat="42.51578635510878" lon="-8.353773578636421"><ele>712.0</ele><time>2026-04-18T10:28:11.999Z</time></trkpt><trkpt lat="42.51590839249071" lon="-8.353644849195868"><ele>711.0</ele><time>2026-04-18T10:28:12.999Z</time></trkpt><trkpt lat="42.516014561379016" lon="-8.353528718436285"><ele>710.0</ele><time>2026-04-18T10:28:13.999Z</time></trkpt><trkpt lat="42.516101900109945" lon="-8.353413007836195"><ele>709.0</ele><time>2026-04-18T10:28:14.999Z</time></trkpt><trkpt lat="42.51615313522742" lon="-8.353283956861299"><ele>708.0</ele><time>2026-04-18T10:28:15.999Z</time></trkpt><trkpt lat="42.516190712908475" lon="-8.35313439999313"><ele>706.5</ele><time>2026-04-18T10:28:16.999Z</time></trkpt><trkpt lat="42.51622265641753" lon="-8.352944764119755"><ele>705.0</ele><time>2026-04-18T10:28:17.999Z</time></trkpt><trkpt lat="42.516247111324844" lon="-8.352744058870808"><ele>703.5</ele><time>2026-04-18T10:28:18.999Z</time></trkpt><trkpt lat="42.516276049275966" lon="-8.35257050676864"><ele>702.0</ele><time>2026-04-18T10:28:19.999Z</time></trkpt><trkpt lat="42.516307326702076" lon="-8.352365878007175"><ele>698.0</ele><time>2026-04-18T10:28:20.999Z</time></trkpt><trkpt lat="42.51634033810077" lon="-8.352188952393368"><ele>694.0</ele><time>2026-04-18T10:28:21.999Z</time></trkpt><trkpt lat="42.516380633497604" lon="-8.35202237003011"><ele>690.0</ele><time>2026-04-18T10:28:22.999Z</time></trkpt><trkpt lat="42.516425800471744" lon="-8.351851904307166"><ele>686.0</ele><time>2026-04-18T10:28:23.999Z</time></trkpt><trkpt lat="42.51648136064525" lon="-8.35165509433695"><ele>686.0</ele><time>2026-04-18T10:28:24.999Z</time></trkpt><trkpt lat="42.51654336544914" lon="-8.351473906910368"><ele>686.0</ele><time>2026-04-18T10:28:25.999Z</time></trkpt><trkpt lat="42.51660118630499" lon="-8.351319622334275"><ele>686.0</ele><time>2026-04-18T10:28:26.999Z</time></trkpt><trkpt lat="42.516653092095666" lon="-8.351147540527709"><ele>686.0</ele><time>2026-04-18T10:28:27.999Z</time></trkpt><trkpt lat="42.51673528517823" lon="-8.350924896826003"><ele>684.3333333333333</ele><time>2026-04-18T10:28:28.999Z</time></trkpt><trkpt lat="42.51684118425752" lon="-8.35068251694058"><ele>682.6666666666666</ele><time>2026-04-18T10:28:29.999Z</time></trkpt><trkpt lat="42.51694352567466" lon="-8.350460714607099"><ele>681.0</ele><time>2026-04-18T10:28:30.999Z</time></trkpt><trkpt lat="42.51702177355956" lon="-8.35028237405579"><ele>679.5</ele><time>2026-04-18T10:28:31.999Z</time></trkpt><trkpt lat="42.517096271063785" lon="-8.350139259636967"><ele>678.0</ele><time>2026-04-18T10:28:32.999Z</time></trkpt><trkpt lat="42.51718948064414" lon="-8.35000926700896"><ele>676.5</ele><time>2026-04-18T10:28:33.999Z</time></trkpt><trkpt lat="42.517308259192845" lon="-8.349861048073086"><ele>675.0</ele><time>2026-04-18T10:28:34.999Z</time></trkpt><trkpt lat="42.517432945602344" lon="-8.349717683021394"><ele>673.0</ele><time>2026-04-18T10:28:35.999Z</time></trkpt><trkpt lat="42.517538107141036" lon="-8.349622484148696"><ele>671.0</ele><time>2026-04-18T10:28:36.999Z</time></trkpt><trkpt lat="42.5176477751771" lon="-8.349563068012909"><ele>669.0</ele><time>2026-04-18T10:28:37.999Z</time></trkpt><trkpt lat="42.51776306093885" lon="-8.349531873754051"><ele>667.0</ele><time>2026-04-18T10:28:38.999Z</time></trkpt><trkpt lat="42.51790088670779" lon="-8.349518068197431"><ele>663.6666666666667</ele><time>2026-04-18T10:28:39.999Z</time></trkpt><trkpt lat="42.51806183320889" lon="-8.349502303665359"><ele>660.3333333333334</ele><time>2026-04-18T10:28:40.999Z</time></trkpt><trkpt lat="42.51824482077281" lon="-8.349473113614643"><ele>657.0</ele><time>2026-04-18T10:28:41.999Z</time></trkpt><trkpt lat="42.51842407153394" lon="-8.349455407136196"><ele>657.0</ele><time>2026-04-18T10:28:42.999Z</time></trkpt><trkpt lat="42.51858533744336" lon="-8.349468360817816"><ele>657.0</ele><time>2026-04-18T10:28:43.999Z</time></trkpt><trkpt lat="42.518745177839435" lon="-8.349485937200608"><ele>657.0</ele><time>2026-04-18T10:28:44.999Z</time></trkpt><trkpt lat="42.51887218798916" lon="-8.349493800339216"><ele>657.0</ele><time>2026-04-18T10:28:45.998Z</time></trkpt><trkpt lat="42.518965413508475" lon="-8.349486179973411"><ele>655.4000000000001</ele><time>2026-04-18T10:28:46.998Z</time></trkpt><trkpt lat="42.5190543476282" lon="-8.349466152615935"><ele>653.8000000000001</ele><time>2026-04-18T10:28:47.998Z</time></trkpt><trkpt lat="42.5191377248741" lon="-8.349437920050672"><ele>652.2</ele><time>2026-04-18T10:28:48.998Z</time></trkpt><trkpt lat="42.519234967878646" lon="-8.349440633024239"><ele>650.6</ele><time>2026-04-18T10:28:49.998Z</time></trkpt><trkpt lat="42.5193613006462" lon="-8.349487154919123"><ele>649.0</ele><time>2026-04-18T10:28:50.998Z</time></trkpt><trkpt lat="42.51950976345545" lon="-8.349546966426"><ele>648.0</ele><time>2026-04-18T10:28:51.998Z</time></trkpt><trkpt lat="42.51968299877658" lon="-8.34961626006581"><ele>647.0</ele><time>2026-04-18T10:28:52.998Z</time></trkpt><trkpt lat="42.51986751772001" lon="-8.349689045590964"><ele>646.0</ele><time>2026-04-18T10:28:54Z</time></trkpt><trkpt lat="42.520033112933355" lon="-8.34974895370016"><ele>646.0</ele><time>2026-04-18T10:28:55Z</time></trkpt><trkpt lat="42.52018370620552" lon="-8.349802695656567"><ele>646.0</ele><time>2026-04-18T10:28:56Z</time></trkpt><trkpt lat="42.52032737730715" lon="-8.349842604559651"><ele>646.0</ele><time>2026-04-18T10:28:57Z</time></trkpt><trkpt lat="42.520484067474165" lon="-8.34988716924725"><ele>644.25</ele><time>2026-04-18T10:28:58Z</time></trkpt><trkpt lat="42.5206328990045" lon="-8.349921949498086"><ele>642.5</ele><time>2026-04-18T10:28:59Z</time></trkpt><trkpt lat="42.52076123844221" lon="-8.349947517050715"><ele>640.75</ele><time>2026-04-18T10:29:00Z</time></trkpt><trkpt lat="42.52086222470574" lon="-8.349963550814122"><ele>639.0</ele><time>2026-04-18T10:29:01Z</time></trkpt><trkpt lat="42.52093500234654" lon="-8.349971070691568"><ele>639.0</ele><time>2026-04-18T10:29:02Z</time></trkpt><trkpt lat="42.52098425857974" lon="-8.350042840315693"><ele>639.0</ele><time>2026-04-18T10:29:04Z</time></trkpt><trkpt lat="42.52099957687322" lon="-8.35014594259995"><ele>639.0</ele><time>2026-04-18T10:29:05Z</time></trkpt><trkpt lat="42.52102478943481" lon="-8.350291420910679"><ele>639.0</ele><time>2026-04-18T10:29:06Z</time></trkpt><trkpt lat="42.52108488982792" lon="-8.350409810181576"><ele>639.0</ele><time>2026-04-18T10:29:07Z</time></trkpt><trkpt lat="42.52115508585718" lon="-8.3505307662289"><ele>639.5</ele><time>2026-04-18T10:29:08Z</time></trkpt><trkpt lat="42.52117992307575" lon="-8.350649376909024"><ele>640.0</ele><time>2026-04-18T10:29:09Z</time></trkpt><trkpt lat="42.52115540864317" lon="-8.350754523221728"><ele>640.5</ele><time>2026-04-18T10:29:10Z</time></trkpt><trkpt lat="42.521097951544" lon="-8.350849034204177"><ele>641.0</ele><time>2026-04-18T10:29:11Z</time></trkpt><trkpt lat="42.52102422252471" lon="-8.350935030171401"><ele>641.5</ele><time>2026-04-18T10:29:12Z</time></trkpt><trkpt lat="42.520952062425536" lon="-8.350989840194709"><ele>642.0</ele><time>2026-04-18T10:29:13Z</time></trkpt><trkpt lat="42.52095030779179" lon="-8.351090511585728"><ele>642.0</ele><time>2026-04-18T10:29:14Z</time></trkpt><trkpt lat="42.5209918956321" lon="-8.351242991562184"><ele>642.0</ele><time>2026-04-18T10:29:15Z</time></trkpt><trkpt lat="42.52102417585648" lon="-8.351384560628413"><ele>642.0</ele><time>2026-04-18T10:29:16Z</time></trkpt><trkpt lat="42.52104124213947" lon="-8.351526345444467"><ele>642.0</ele><time>2026-04-18T10:29:17Z</time></trkpt><trkpt lat="42.521010493705006" lon="-8.35166900722772"><ele>642.0</ele><time>2026-04-18T10:29:18Z</time></trkpt><trkpt lat="42.520960950786126" lon="-8.351822557709093"><ele>643.0</ele><time>2026-04-18T10:29:19Z</time></trkpt><trkpt lat="42.52090320470117" lon="-8.352037907994998"><ele>644.0</ele><time>2026-04-18T10:29:20Z</time></trkpt><trkpt lat="42.52086650592698" lon="-8.352225967751341"><ele>645.0</ele><time>2026-04-18T10:29:21Z</time></trkpt><trkpt lat="42.52085002380711" lon="-8.352345970911333"><ele>646.0</ele><time>2026-04-18T10:29:22Z</time></trkpt><trkpt lat="42.520798855265895" lon="-8.352517020709982"><ele>647.5999999999999</ele><time>2026-04-18T10:29:24Z</time></trkpt><trkpt lat="42.520784514116016" lon="-8.352645513290815"><ele>649.2</ele><time>2026-04-18T10:29:25Z</time></trkpt><trkpt lat="42.52083089828702" lon="-8.352765022518074"><ele>650.8</ele><time>2026-04-18T10:29:26Z</time></trkpt><trkpt lat="42.52089553417772" lon="-8.352886379937965"><ele>652.4000000000001</ele><time>2026-04-18T10:29:27Z</time></trkpt><trkpt lat="42.52099617183198" lon="-8.352971285046648"><ele>654.0</ele><time>2026-04-18T10:29:28Z</time></trkpt><trkpt lat="42.52116799432292" lon="-8.352977821670914"><ele>654.75</ele><time>2026-04-18T10:29:29Z</time></trkpt><trkpt lat="42.521295968639976" lon="-8.352989412333073"><ele>655.5</ele><time>2026-04-18T10:29:30Z</time></trkpt><trkpt lat="42.52142168722465" lon="-8.35302202806408"><ele>656.25</ele><time>2026-04-18T10:29:31Z</time></trkpt><trkpt lat="42.5215597814522" lon="-8.353106858151552"><ele>657.0</ele><time>2026-04-18T10:29:32Z</time></trkpt><trkpt lat="42.52165618353095" lon="-8.353194284038992"><ele>657.0</ele><time>2026-04-18T10:29:33Z</time></trkpt><trkpt lat="42.52170989719106" lon="-8.353278969987741"><ele>657.0</ele><time>2026-04-18T10:29:34Z</time></trkpt><trkpt lat="42.52176196419634" lon="-8.35340948518182"><ele>657.0</ele><time>2026-04-18T10:29:34.999Z</time></trkpt><trkpt lat="42.52181804892109" lon="-8.353575213558155"><ele>657.0</ele><time>2026-04-18T10:29:35.999Z</time></trkpt><trkpt lat="42.5218774694323" lon="-8.353749261169643"><ele>660.0</ele><time>2026-04-18T10:29:36.999Z</time></trkpt><trkpt lat="42.52192770015299" lon="-8.353944296997662"><ele>663.0</ele><time>2026-04-18T10:29:37.999Z</time></trkpt><trkpt lat="42.52192519738653" lon="-8.354137352909502"><ele>666.0</ele><time>2026-04-18T10:29:38.999Z</time></trkpt><trkpt lat="42.52190779291485" lon="-8.354354612610253"><ele>666.0</ele><time>2026-04-18T10:29:39.999Z</time></trkpt><trkpt lat="42.521916993294674" lon="-8.354518030992999"><ele>666.0</ele><time>2026-04-18T10:29:40.999Z</time></trkpt><trkpt lat="42.52193629682697" lon="-8.354686208865584"><ele>666.0</ele><time>2026-04-18T10:29:41.999Z</time></trkpt><trkpt lat="42.52202475915086" lon="-8.35474508617378"><ele>666.0</ele><time>2026-04-18T10:29:42.999Z</time></trkpt><trkpt lat="42.522121709126985" lon="-8.354880609167363"><ele>663.0</ele><time>2026-04-18T10:29:43.999Z</time></trkpt><trkpt lat="42.522225536629904" lon="-8.355056649215518"><ele>660.0</ele><time>2026-04-18T10:29:44.999Z</time></trkpt><trkpt lat="42.52231244417239" lon="-8.355205734571193"><ele>657.0</ele><time>2026-04-18T10:29:45.999Z</time></trkpt><trkpt lat="42.52239180088276" lon="-8.35536587321349"><ele>654.0</ele><time>2026-04-18T10:29:46.999Z</time></trkpt><trkpt lat="42.52246136799659" lon="-8.355485564373488"><ele>655.25</ele><time>2026-04-18T10:29:47.999Z</time></trkpt><trkpt lat="42.52252676386034" lon="-8.355614587979092"><ele>656.5</ele><time>2026-04-18T10:29:48.999Z</time></trkpt><trkpt lat="42.52254673797515" lon="-8.355740613417668"><ele>657.75</ele><time>2026-04-18T10:29:49.999Z</time></trkpt><trkpt lat="42.522519241742884" lon="-8.355881388655384"><ele>659.0</ele><time>2026-04-18T10:29:50.999Z</time></trkpt><trkpt lat="42.52248036443901" lon="-8.356072879626387"><ele>659.0</ele><time>2026-04-18T10:29:51.999Z</time></trkpt><trkpt lat="42.522437991564814" lon="-8.356242381756955"><ele>659.0</ele><time>2026-04-18T10:29:52.999Z</time></trkpt><trkpt lat="42.52241915066114" lon="-8.356444878429787"><ele>659.0</ele><time>2026-04-18T10:29:53.999Z</time></trkpt><trkpt lat="42.5223747318059" lon="-8.356616904386886"><ele>659.0</ele><time>2026-04-18T10:29:54.999Z</time></trkpt><trkpt lat="42.522307774304984" lon="-8.356757866815114"><ele>658.2</ele><time>2026-04-18T10:29:55.999Z</time></trkpt><trkpt lat="42.522221396898" lon="-8.356910599261834"><ele>657.4000000000001</ele><time>2026-04-18T10:29:56.999Z</time></trkpt><trkpt lat="42.522175339081244" lon="-8.357027849549654"><ele>656.6</ele><time>2026-04-18T10:29:57.999Z</time></trkpt><trkpt lat="42.52210868317982" lon="-8.357106240497133"><ele>655.8</ele><time>2026-04-18T10:29:58.999Z</time></trkpt><trkpt lat="42.5220503806804" lon="-8.357199632672746"><ele>655.0</ele><time>2026-04-18T10:29:59.999Z</time></trkpt><trkpt lat="42.52195066325919" lon="-8.357140954709063"><ele>656.6</ele><time>2026-04-18T10:30:00.999Z</time></trkpt><trkpt lat="42.5218912798278" lon="-8.357178970656982"><ele>658.2</ele><time>2026-04-18T10:30:02.999Z</time></trkpt><trkpt lat="42.52181578629926" lon="-8.357098011850976"><ele>659.8</ele><time>2026-04-18T10:30:11.999Z</time></trkpt><trkpt lat="42.52173837192006" lon="-8.357044362165759"><ele>661.4</ele><time>2026-04-18T10:30:12.999Z</time></trkpt><trkpt lat="42.521616032079834" lon="-8.357019290249628"><ele>663.0</ele><time>2026-04-18T10:33:35Z</time></trkpt><trkpt lat="42.521496579249614" lon="-8.357002305744738"><ele>663.0</ele><time>2026-04-18T10:33:36Z</time></trkpt><trkpt lat="42.52140558866785" lon="-8.357005488180695"><ele>663.0</ele><time>2026-04-18T10:33:37Z</time></trkpt><trkpt lat="42.521294111880664" lon="-8.35701551736997"><ele>663.0</ele><time>2026-04-18T10:33:38Z</time></trkpt><trkpt lat="42.521211742615996" lon="-8.357017153554882"><ele>663.0</ele><time>2026-04-18T10:33:39Z</time></trkpt><trkpt lat="42.52111083038433" lon="-8.357031918148442"><ele>663.0</ele><time>2026-04-18T10:33:41Z</time></trkpt><trkpt lat="42.52103303216013" lon="-8.357087634170663"><ele>662.6666666666666</ele><time>2026-04-18T10:33:43Z</time></trkpt><trkpt lat="42.52096844262486" lon="-8.357125536984755"><ele>662.3333333333334</ele><time>2026-04-18T10:33:44Z</time></trkpt><trkpt lat="42.52088760288141" lon="-8.357147950046304"><ele>662.0</ele><time>2026-04-18T10:33:46Z</time></trkpt><trkpt lat="42.52090138499969" lon="-8.357232926156277"><ele>661.6666666666667</ele><time>2026-04-18T10:33:49Z</time></trkpt><trkpt lat="42.52098237396803" lon="-8.357316931489692"><ele>661.3333333333334</ele><time>2026-04-18T10:33:51Z</time></trkpt><trkpt lat="42.521081536521216" lon="-8.357296506742273"><ele>661.0</ele><time>2026-04-18T10:33:53Z</time></trkpt><trkpt lat="42.521222034580475" lon="-8.357282412712353"><ele>659.1999999999999</ele><time>2026-04-18T10:33:54Z</time></trkpt><trkpt lat="42.52131583037189" lon="-8.357313496308258"><ele>657.4</ele><time>2026-04-18T10:33:55Z</time></trkpt><trkpt lat="42.52140129531949" lon="-8.35738400936926"><ele>655.6</ele><time>2026-04-18T10:33:56Z</time></trkpt><trkpt lat="42.521457316644735" lon="-8.35748685750274"><ele>653.8</ele><time>2026-04-18T10:33:57Z</time></trkpt><trkpt lat="42.521474628359975" lon="-8.357600137731044"><ele>652.0</ele><time>2026-04-18T10:33:58Z</time></trkpt><trkpt lat="42.52147306128682" lon="-8.357725784524884"><ele>652.0</ele><time>2026-04-18T10:33:58.999Z</time></trkpt><trkpt lat="42.52148918268584" lon="-8.357857441985521"><ele>652.0</ele><time>2026-04-18T10:33:59.999Z</time></trkpt><trkpt lat="42.52154408982809" lon="-8.357997595351359"><ele>652.0</ele><time>2026-04-18T10:34:00.999Z</time></trkpt><trkpt lat="42.5215992333372" lon="-8.35811488191939"><ele>652.0</ele><time>2026-04-18T10:34:01.999Z</time></trkpt><trkpt lat="42.52163958778768" lon="-8.358273516391806"><ele>652.0</ele><time>2026-04-18T10:34:02.999Z</time></trkpt><trkpt lat="42.521645580195326" lon="-8.358451025631036"><ele>654.5</ele><time>2026-04-18T10:34:03.999Z</time></trkpt><trkpt lat="42.52165968747859" lon="-8.358617106475915"><ele>657.0</ele><time>2026-04-18T10:34:04.999Z</time></trkpt><trkpt lat="42.52169924939359" lon="-8.358783231265232"><ele>659.5</ele><time>2026-04-18T10:34:05.999Z</time></trkpt><trkpt lat="42.52176649144348" lon="-8.35892810514049"><ele>662.0</ele><time>2026-04-18T10:34:06.999Z</time></trkpt><trkpt lat="42.52179770242868" lon="-8.359025284870317"><ele>664.0</ele><time>2026-04-18T10:34:07.999Z</time></trkpt><trkpt lat="42.52178533148063" lon="-8.359146506898368"><ele>666.0</ele><time>2026-04-18T10:34:09.999Z</time></trkpt><trkpt lat="42.5217181434529" lon="-8.359176884778519"><ele>668.0</ele><time>2026-04-18T10:34:10.999Z</time></trkpt><trkpt lat="42.521639227486766" lon="-8.359257653698926"><ele>670.0</ele><time>2026-04-18T10:34:11.999Z</time></trkpt><trkpt lat="42.52158916035547" lon="-8.359354042032793"><ele>672.0</ele><time>2026-04-18T10:34:12.999Z</time></trkpt><trkpt lat="42.521576653518046" lon="-8.359493003763593"><ele>672.0</ele><time>2026-04-18T10:34:13.999Z</time></trkpt><trkpt lat="42.52156410207022" lon="-8.359637754300493"><ele>672.0</ele><time>2026-04-18T10:34:14.999Z</time></trkpt><trkpt lat="42.521567050385904" lon="-8.359826285792321"><ele>672.0</ele><time>2026-04-18T10:34:15.999Z</time></trkpt><trkpt lat="42.521611506606654" lon="-8.360030542625314"><ele>672.0</ele><time>2026-04-18T10:34:16.999Z</time></trkpt><trkpt lat="42.52168269963908" lon="-8.360192488895434"><ele>673.3333333333334</ele><time>2026-04-18T10:34:17.999Z</time></trkpt><trkpt lat="42.52178049236952" lon="-8.360383964761999"><ele>674.6666666666667</ele><time>2026-04-18T10:34:18.999Z</time></trkpt><trkpt lat="42.52188232664675" lon="-8.360596984473485"><ele>676.0</ele><time>2026-04-18T10:34:19.999Z</time></trkpt><trkpt lat="42.521952089067256" lon="-8.360821450002723"><ele>675.3333333333334</ele><time>2026-04-18T10:34:20.999Z</time></trkpt><trkpt lat="42.522013852444836" lon="-8.361089727231892"><ele>674.6666666666666</ele><time>2026-04-18T10:34:21.999Z</time></trkpt><trkpt lat="42.522067768037004" lon="-8.361325683730476"><ele>674.0</ele><time>2026-04-18T10:34:22.999Z</time></trkpt><trkpt lat="42.522121800214215" lon="-8.361549313005689"><ele>676.6666666666666</ele><time>2026-04-18T10:34:23.999Z</time></trkpt><trkpt lat="42.52220543045635" lon="-8.361755899837343"><ele>679.3333333333334</ele><time>2026-04-18T10:34:24.999Z</time></trkpt><trkpt lat="42.52231200446734" lon="-8.361990093346968"><ele>682.0</ele><time>2026-04-18T10:34:25.999Z</time></trkpt><trkpt lat="42.52241038505951" lon="-8.362209556354092"><ele>683.5</ele><time>2026-04-18T10:34:26.999Z</time></trkpt><trkpt lat="42.522500409630766" lon="-8.362377567491137"><ele>685.0</ele><time>2026-04-18T10:34:27.999Z</time></trkpt><trkpt lat="42.522572715737155" lon="-8.362523095471765"><ele>686.5</ele><time>2026-04-18T10:34:28.999Z</time></trkpt><trkpt lat="42.52262330182149" lon="-8.362686519268596"><ele>688.0</ele><time>2026-04-18T10:34:29.999Z</time></trkpt><trkpt lat="42.52264139317633" lon="-8.362776866489945"><ele>688.0</ele><time>2026-04-18T10:34:30.999Z</time></trkpt><trkpt lat="42.52274412991865" lon="-8.362901613413595"><ele>688.0</ele><time>2026-04-18T10:34:33.999Z</time></trkpt><trkpt lat="42.52283647302787" lon="-8.362983241447141"><ele>688.0</ele><time>2026-04-18T10:34:34.999Z</time></trkpt><trkpt lat="42.52289097922584" lon="-8.363099091218912"><ele>688.0</ele><time>2026-04-18T10:34:35.999Z</time></trkpt><trkpt lat="42.52293479011457" lon="-8.363231037214836"><ele>687.0</ele><time>2026-04-18T10:34:36.999Z</time></trkpt><trkpt lat="42.52299459331144" lon="-8.363382761618025"><ele>686.0</ele><time>2026-04-18T10:34:37.999Z</time></trkpt><trkpt lat="42.523019241818076" lon="-8.36352424549397"><ele>685.0</ele><time>2026-04-18T10:34:38.999Z</time></trkpt><trkpt lat="42.52301688476494" lon="-8.36367121101407"><ele>684.0</ele><time>2026-04-18T10:34:39.999Z</time></trkpt><trkpt lat="42.522982124365846" lon="-8.363833280816213"><ele>683.6666666666666</ele><time>2026-04-18T10:34:40.999Z</time></trkpt><trkpt lat="42.52293354676773" lon="-8.364004772980481"><ele>683.3333333333333</ele><time>2026-04-18T10:34:41.999Z</time></trkpt><trkpt lat="42.522884687732116" lon="-8.364218618229351"><ele>683.0</ele><time>2026-04-18T10:34:42.999Z</time></trkpt><trkpt lat="42.52282115009671" lon="-8.36441843086711"><ele>688.6666666666666</ele><time>2026-04-18T10:34:43.999Z</time></trkpt><trkpt lat="42.52272120947954" lon="-8.364619955979816"><ele>694.3333333333334</ele><time>2026-04-18T10:34:44.999Z</time></trkpt><trkpt lat="42.522624404764485" lon="-8.36487769064819"><ele>700.0</ele><time>2026-04-18T10:34:45.999Z</time></trkpt><trkpt lat="42.52255632137903" lon="-8.365132250860494"><ele>700.0</ele><time>2026-04-18T10:34:46.999Z</time></trkpt><trkpt lat="42.52248708871828" lon="-8.36531857351863"><ele>700.0</ele><time>2026-04-18T10:34:47.999Z</time></trkpt><trkpt lat="42.52241530837035" lon="-8.365477033012475"><ele>700.0</ele><time>2026-04-18T10:34:48.999Z</time></trkpt><trkpt lat="42.52231929195432" lon="-8.365613887246774"><ele>700.0</ele><time>2026-04-18T10:34:49.999Z</time></trkpt><trkpt lat="42.52225863952319" lon="-8.365756058335927"><ele>699.3333333333334</ele><time>2026-04-18T10:34:50.999Z</time></trkpt><trkpt lat="42.5221994362333" lon="-8.365855826805419"><ele>698.6666666666667</ele><time>2026-04-18T10:34:51.999Z</time></trkpt><trkpt lat="42.522126478287646" lon="-8.365877418726184"><ele>698.0</ele><time>2026-04-18T10:34:52.999Z</time></trkpt><trkpt lat="42.52204583998366" lon="-8.365935145574278"><ele>697.3333333333334</ele><time>2026-04-18T10:34:53.999Z</time></trkpt><trkpt lat="42.521991338073015" lon="-8.36604318194"><ele>696.6666666666666</ele><time>2026-04-18T10:34:54.999Z</time></trkpt><trkpt lat="42.52198633595096" lon="-8.366164831002264"><ele>696.0</ele><time>2026-04-18T10:34:55.999Z</time></trkpt><trkpt lat="42.52201118593491" lon="-8.366252006008375"><ele>696.0</ele><time>2026-04-18T10:34:57.999Z</time></trkpt><trkpt lat="42.52217017234156" lon="-8.366328443266323"><ele>696.0</ele><time>2026-04-18T10:34:59.999Z</time></trkpt><trkpt lat="42.522328471569296" lon="-8.366411697577865"><ele>696.0</ele><time>2026-04-18T10:35:00.999Z</time></trkpt><trkpt lat="42.52247892554997" lon="-8.366518304825691"><ele>695.25</ele><time>2026-04-18T10:35:01.999Z</time></trkpt><trkpt lat="42.522612479283126" lon="-8.366537191730385"><ele>694.5</ele><time>2026-04-18T10:35:02.999Z</time></trkpt><trkpt lat="42.52270689082252" lon="-8.366611651037628"><ele>693.75</ele><time>2026-04-18T10:35:03.999Z</time></trkpt><trkpt lat="42.5228474814207" lon="-8.366634415424139"><ele>693.0</ele><time>2026-04-18T10:35:04.999Z</time></trkpt><trkpt lat="42.522963271761796" lon="-8.366664461012583"><ele>693.0</ele><time>2026-04-18T10:35:05.999Z</time></trkpt><trkpt lat="42.52309688766809" lon="-8.36672406125143"><ele>693.0</ele><time>2026-04-18T10:35:06.999Z</time></trkpt><trkpt lat="42.52325315312158" lon="-8.366818801651348"><ele>693.0</ele><time>2026-04-18T10:35:07.999Z</time></trkpt><trkpt lat="42.52338038706259" lon="-8.36689115938144"><ele>693.0</ele><time>2026-04-18T10:35:08.999Z</time></trkpt><trkpt lat="42.523540625275515" lon="-8.36687932259886"><ele>693.0</ele><time>2026-04-18T10:35:09.999Z</time></trkpt><trkpt lat="42.523689280709746" lon="-8.36688521176852"><ele>693.0</ele><time>2026-04-18T10:35:10.999Z</time></trkpt><trkpt lat="42.52380303522231" lon="-8.366835348879375"><ele>693.0</ele><time>2026-04-18T10:35:12Z</time></trkpt><trkpt lat="42.52390261342864" lon="-8.366769786109927"><ele>692.0</ele><time>2026-04-18T10:35:13Z</time></trkpt><trkpt lat="42.52399748396263" lon="-8.366669474095405"><ele>691.0</ele><time>2026-04-18T10:35:14Z</time></trkpt><trkpt lat="42.524075326987386" lon="-8.366553893838544"><ele>690.0</ele><time>2026-04-18T10:35:15Z</time></trkpt><trkpt lat="42.52411842283025" lon="-8.366399812391876"><ele>689.0</ele><time>2026-04-18T10:35:16Z</time></trkpt><trkpt lat="42.52419080320932" lon="-8.366204142787547"><ele>686.0</ele><time>2026-04-18T10:35:17Z</time></trkpt><trkpt lat="42.52428959069918" lon="-8.365943725744202"><ele>683.0</ele><time>2026-04-18T10:35:18Z</time></trkpt><trkpt lat="42.52438357362938" lon="-8.36570974837738"><ele>680.0</ele><time>2026-04-18T10:35:19Z</time></trkpt><trkpt lat="42.52448869864687" lon="-8.365516693312472"><ele>678.0</ele><time>2026-04-18T10:35:20Z</time></trkpt><trkpt lat="42.52461960212868" lon="-8.365332396528093"><ele>676.0</ele><time>2026-04-18T10:35:21Z</time></trkpt><trkpt lat="42.52473315597774" lon="-8.365198811907211"><ele>674.0</ele><time>2026-04-18T10:35:22Z</time></trkpt><trkpt lat="42.5248303338424" lon="-8.365095605841104"><ele>674.0</ele><time>2026-04-18T10:35:23Z</time></trkpt><trkpt lat="42.524917440195956" lon="-8.364990883728264"><ele>674.0</ele><time>2026-04-18T10:35:24Z</time></trkpt><trkpt lat="42.52498755222906" lon="-8.364904886148388"><ele>674.0</ele><time>2026-04-18T10:35:25Z</time></trkpt><trkpt lat="42.52506424741595" lon="-8.364851218485825"><ele>674.0</ele><time>2026-04-18T10:35:26Z</time></trkpt><trkpt lat="42.52516670898561" lon="-8.364846295070674"><ele>674.0</ele><time>2026-04-18T10:35:27Z</time></trkpt><trkpt lat="42.52526073303935" lon="-8.364886441268286"><ele>674.0</ele><time>2026-04-18T10:35:28Z</time></trkpt><trkpt lat="42.525353349704176" lon="-8.364955714813304"><ele>674.0</ele><time>2026-04-18T10:35:29Z</time></trkpt><trkpt lat="42.52539639479598" lon="-8.365063800341572"><ele>674.0</ele><time>2026-04-18T10:35:30Z</time></trkpt><trkpt lat="42.525408561153775" lon="-8.365213414526911"><ele>674.0</ele><time>2026-04-18T10:35:31Z</time></trkpt><trkpt lat="42.52541496628168" lon="-8.365352656308065"><ele>674.0</ele><time>2026-04-18T10:35:32Z</time></trkpt><trkpt lat="42.52540919533031" lon="-8.3654763727222"><ele>674.2</ele><time>2026-04-18T10:35:33Z</time></trkpt><trkpt lat="42.525391880398416" lon="-8.365571335031753"><ele>674.4000000000001</ele><time>2026-04-18T10:35:34Z</time></trkpt><trkpt lat="42.525341248197414" lon="-8.365672195024215"><ele>674.6</ele><time>2026-04-18T10:35:35Z</time></trkpt><trkpt lat="42.52526777591894" lon="-8.365747473466756"><ele>674.8</ele><time>2026-04-18T10:35:36Z</time></trkpt><trkpt lat="42.5251460120142" lon="-8.36582291488925"><ele>675.0</ele><time>2026-04-18T10:35:37Z</time></trkpt><trkpt lat="42.52502099872633" lon="-8.365938171450997"><ele>675.0</ele><time>2026-04-18T10:35:38Z</time></trkpt><trkpt lat="42.524899416637794" lon="-8.366055584058172"><ele>675.0</ele><time>2026-04-18T10:35:39Z</time></trkpt><trkpt lat="42.524814402950675" lon="-8.366273768398177"><ele>675.0</ele><time>2026-04-18T10:35:40Z</time></trkpt><trkpt lat="42.52475478943779" lon="-8.366452137130501"><ele>675.3333333333334</ele><time>2026-04-18T10:35:41Z</time></trkpt><trkpt lat="42.524745497333946" lon="-8.366648359435104"><ele>675.6666666666667</ele><time>2026-04-18T10:35:42Z</time></trkpt><trkpt lat="42.524711096130545" lon="-8.366880252230397"><ele>676.0</ele><time>2026-04-18T10:35:43Z</time></trkpt><trkpt lat="42.524660441691196" lon="-8.36710104392305"><ele>676.5999999999999</ele><time>2026-04-18T10:35:44Z</time></trkpt><trkpt lat="42.52461586359388" lon="-8.36731801109113"><ele>677.2</ele><time>2026-04-18T10:35:45Z</time></trkpt><trkpt lat="42.5245909092252" lon="-8.367487483285228"><ele>677.8</ele><time>2026-04-18T10:35:46Z</time></trkpt><trkpt lat="42.52464263001548" lon="-8.367536707959763"><ele>678.4000000000001</ele><time>2026-04-18T10:35:48Z</time></trkpt><trkpt lat="42.52469908951209" lon="-8.367617526124778"><ele>679.0</ele><time>2026-04-18T10:35:50Z</time></trkpt><trkpt lat="42.52475451606842" lon="-8.367510778274005"><ele>679.0</ele><time>2026-04-18T10:35:52Z</time></trkpt><trkpt lat="42.524813249676875" lon="-8.367553701734822"><ele>679.0</ele><time>2026-04-18T10:35:54Z</time></trkpt><trkpt lat="42.52488174933663" lon="-8.367739735218429"><ele>679.0</ele><time>2026-04-18T10:35:56Z</time></trkpt><trkpt lat="42.52493034216448" lon="-8.367904240718543"><ele>679.0</ele><time>2026-04-18T10:35:57Z</time></trkpt><trkpt lat="42.52498746456148" lon="-8.36807452792976"><ele>679.6</ele><time>2026-04-18T10:35:58Z</time></trkpt><trkpt lat="42.525050665794325" lon="-8.36822216792946"><ele>680.2</ele><time>2026-04-18T10:35:59Z</time></trkpt><trkpt lat="42.52510327697215" lon="-8.368369523303643"><ele>680.8000000000001</ele><time>2026-04-18T10:36:00Z</time></trkpt><trkpt lat="42.52515504096354" lon="-8.368513574289898"><ele>681.4000000000001</ele><time>2026-04-18T10:36:01Z</time></trkpt><trkpt lat="42.525185221786536" lon="-8.36859949209063"><ele>682.0</ele><time>2026-04-18T10:36:02Z</time></trkpt><trkpt lat="42.52525373595692" lon="-8.368689885492426"><ele>682.0</ele><time>2026-04-18T10:36:04Z</time></trkpt><trkpt lat="42.52529229155654" lon="-8.368769491596263"><ele>682.0</ele><time>2026-04-18T10:36:06Z</time></trkpt><trkpt lat="42.52534604497851" lon="-8.36884082695586"><ele>682.0</ele><time>2026-04-18T10:36:07Z</time></trkpt><trkpt lat="42.52544753006907" lon="-8.36880444924154"><ele>682.0</ele><time>2026-04-18T10:36:11Z</time></trkpt><trkpt lat="42.525543040501994" lon="-8.368825562477058"><ele>682.0</ele><time>2026-04-18T10:36:12Z</time></trkpt><trkpt lat="42.52565770169383" lon="-8.368807111790966"><ele>680.0</ele><time>2026-04-18T10:36:13Z</time></trkpt><trkpt lat="42.52575584736736" lon="-8.368812464910635"><ele>678.0</ele><time>2026-04-18T10:36:14Z</time></trkpt><trkpt lat="42.52584577202834" lon="-8.368853393005033"><ele>676.0</ele><time>2026-04-18T10:36:15Z</time></trkpt><trkpt lat="42.52592770801248" lon="-8.368892598245916"><ele>674.0</ele><time>2026-04-18T10:36:16Z</time></trkpt><trkpt lat="42.52600524002522" lon="-8.36891781351038"><ele>672.0</ele><time>2026-04-18T10:36:17Z</time></trkpt><trkpt lat="42.52605885025139" lon="-8.368981210168219"><ele>670.0</ele><time>2026-04-18T10:36:18Z</time></trkpt><trkpt lat="42.526121948890236" lon="-8.369059903744553"><ele>670.0</ele><time>2026-04-18T10:36:19Z</time></trkpt><trkpt lat="42.5261664845131" lon="-8.369166865158977"><ele>670.0</ele><time>2026-04-18T10:36:19.999Z</time></trkpt><trkpt lat="42.526212499095685" lon="-8.369266902981915"><ele>670.0</ele><time>2026-04-18T10:36:20.999Z</time></trkpt><trkpt lat="42.526220178516105" lon="-8.369370156704582"><ele>670.0</ele><time>2026-04-18T10:36:21.999Z</time></trkpt><trkpt lat="42.52619457524124" lon="-8.369548670954426"><ele>670.0</ele><time>2026-04-18T10:36:23.999Z</time></trkpt><trkpt lat="42.52615987732955" lon="-8.369638059712589"><ele>666.75</ele><time>2026-04-18T10:36:24.999Z</time></trkpt><trkpt lat="42.52609890974541" lon="-8.369733451866388"><ele>663.5</ele><time>2026-04-18T10:36:25.999Z</time></trkpt><trkpt lat="42.526014428799456" lon="-8.369890304934666"><ele>660.25</ele><time>2026-04-18T10:36:26.999Z</time></trkpt><trkpt lat="42.52589010045745" lon="-8.370063317034898"><ele>657.0</ele><time>2026-04-18T10:36:27.999Z</time></trkpt><trkpt lat="42.52574950302015" lon="-8.370219252978076"><ele>657.0</ele><time>2026-04-18T10:36:28.999Z</time></trkpt><trkpt lat="42.5255991580732" lon="-8.37031434155246"><ele>657.0</ele><time>2026-04-18T10:36:29.999Z</time></trkpt><trkpt lat="42.52532983235936" lon="-8.370582668711643"><ele>656.6666666666666</ele><time>2026-04-18T10:36:30.999Z</time></trkpt><trkpt lat="42.525220331231466" lon="-8.370718869328226"><ele>656.3333333333333</ele><time>2026-04-18T10:36:31.999Z</time></trkpt><trkpt lat="42.52509463952044" lon="-8.370860921065086"><ele>656.0</ele><time>2026-04-18T10:36:32.999Z</time></trkpt><trkpt lat="42.52496519688254" lon="-8.371006209658866"><ele>656.0</ele><time>2026-04-18T10:36:33.999Z</time></trkpt><trkpt lat="42.52482617186606" lon="-8.371188171274158"><ele>656.0</ele><time>2026-04-18T10:36:34.999Z</time></trkpt><trkpt lat="42.524695776290585" lon="-8.371378191141202"><ele>656.0</ele><time>2026-04-18T10:36:35.999Z</time></trkpt><trkpt lat="42.52459000983473" lon="-8.371545115288844"><ele>658.3333333333333</ele><time>2026-04-18T10:36:36.999Z</time></trkpt><trkpt lat="42.5244937560556" lon="-8.371701395821137"><ele>660.6666666666666</ele><time>2026-04-18T10:36:37.999Z</time></trkpt><trkpt lat="42.52441978898067" lon="-8.371879527044694"><ele>663.0</ele><time>2026-04-18T10:36:38.999Z</time></trkpt><trkpt lat="42.52434566884191" lon="-8.372062728300214"><ele>656.75</ele><time>2026-04-18T10:36:39.999Z</time></trkpt><trkpt lat="42.52426478129413" lon="-8.37221419532557"><ele>650.5</ele><time>2026-04-18T10:36:40.999Z</time></trkpt><trkpt lat="42.52418963590472" lon="-8.372352591411428"><ele>644.25</ele><time>2026-04-18T10:36:41.999Z</time></trkpt><trkpt lat="42.52413064056449" lon="-8.372508522784043"><ele>638.0</ele><time>2026-04-18T10:36:42.999Z</time></trkpt><trkpt lat="42.52408310356628" lon="-8.372662642168287"><ele>638.0</ele><time>2026-04-18T10:36:43.999Z</time></trkpt><trkpt lat="42.52406404111745" lon="-8.372785325611435"><ele>638.0</ele><time>2026-04-18T10:36:44.999Z</time></trkpt><trkpt lat="42.52404717593938" lon="-8.372892212478105"><ele>638.0</ele><time>2026-04-18T10:36:45.999Z</time></trkpt><trkpt lat="42.52402392793792" lon="-8.372972646731816"><ele>638.0</ele><time>2026-04-18T10:36:46.999Z</time></trkpt><trkpt lat="42.523981392723876" lon="-8.373035863366258"><ele>638.0</ele><time>2026-04-18T10:36:47.999Z</time></trkpt><trkpt lat="42.52392171665658" lon="-8.37316088425008"><ele>638.0</ele><time>2026-04-18T10:36:48.999Z</time></trkpt><trkpt lat="42.5238515907844" lon="-8.373329202307309"><ele>641.25</ele><time>2026-04-18T10:36:49.999Z</time></trkpt><trkpt lat="42.52378820982145" lon="-8.373475708516047"><ele>644.5</ele><time>2026-04-18T10:36:50.999Z</time></trkpt><trkpt lat="42.52372996494107" lon="-8.373595416002777"><ele>647.75</ele><time>2026-04-18T10:36:51.999Z</time></trkpt><trkpt lat="42.52366588445974" lon="-8.373721637526533"><ele>651.0</ele><time>2026-04-18T10:36:52.999Z</time></trkpt><trkpt lat="42.52360941883335" lon="-8.373845932737552"><ele>647.0</ele><time>2026-04-18T10:36:53.999Z</time></trkpt><trkpt lat="42.52356169333101" lon="-8.373976480280932"><ele>643.0</ele><time>2026-04-18T10:36:54.999Z</time></trkpt><trkpt lat="42.52352690684561" lon="-8.374109601486625"><ele>639.0</ele><time>2026-04-18T10:36:55.999Z</time></trkpt><trkpt lat="42.52349154090294" lon="-8.374239230101734"><ele>635.0</ele><time>2026-04-18T10:36:56.999Z</time></trkpt><trkpt lat="42.52345987669651" lon="-8.37435917082163"><ele>631.0</ele><time>2026-04-18T10:36:57.999Z</time></trkpt><trkpt lat="42.52342234934015" lon="-8.374498616226655"><ele>631.0</ele><time>2026-04-18T10:36:58.999Z</time></trkpt><trkpt lat="42.52337709644237" lon="-8.374666346129331"><ele>631.0</ele><time>2026-04-18T10:36:59.999Z</time></trkpt><trkpt lat="42.523330053266086" lon="-8.374805814114046"><ele>631.0</ele><time>2026-04-18T10:37:00.999Z</time></trkpt><trkpt lat="42.5232887080234" lon="-8.374954693370197"><ele>631.0</ele><time>2026-04-18T10:37:01.999Z</time></trkpt><trkpt lat="42.52325805020078" lon="-8.375113139614799"><ele>626.75</ele><time>2026-04-18T10:37:02.999Z</time></trkpt><trkpt lat="42.523205431043635" lon="-8.375302209537391"><ele>622.5</ele><time>2026-04-18T10:37:03.999Z</time></trkpt><trkpt lat="42.52314183937373" lon="-8.375483699715623"><ele>618.25</ele><time>2026-04-18T10:37:04.999Z</time></trkpt><trkpt lat="42.52308636855174" lon="-8.375640144010267"><ele>614.0</ele><time>2026-04-18T10:37:05.999Z</time></trkpt><trkpt lat="42.52303855421188" lon="-8.375782791695567"><ele>610.0</ele><time>2026-04-18T10:37:06.999Z</time></trkpt><trkpt lat="42.522978741103294" lon="-8.37591789641405"><ele>606.0</ele><time>2026-04-18T10:37:07.999Z</time></trkpt><trkpt lat="42.52290561245969" lon="-8.376041859119292"><ele>602.0</ele><time>2026-04-18T10:37:08.999Z</time></trkpt><trkpt lat="42.52280743893717" lon="-8.376165035729015"><ele>598.0</ele><time>2026-04-18T10:37:09.999Z</time></trkpt><trkpt lat="42.522706977557995" lon="-8.376289552103088"><ele>599.75</ele><time>2026-04-18T10:37:10.999Z</time></trkpt><trkpt lat="42.522619761357234" lon="-8.376429087322071"><ele>601.5</ele><time>2026-04-18T10:37:11.999Z</time></trkpt><trkpt lat="42.52251654237077" lon="-8.376538528038461"><ele>603.25</ele><time>2026-04-18T10:37:12.999Z</time></trkpt><trkpt lat="42.522422161836985" lon="-8.376643628532765"><ele>605.0</ele><time>2026-04-18T10:37:13.999Z</time></trkpt><trkpt lat="42.52233274175503" lon="-8.376755615266422"><ele>605.0</ele><time>2026-04-18T10:37:14.999Z</time></trkpt><trkpt lat="42.52224530157991" lon="-8.376863000385189"><ele>605.0</ele><time>2026-04-18T10:37:15.999Z</time></trkpt><trkpt lat="42.522150357644584" lon="-8.376971642085804"><ele>605.0</ele><time>2026-04-18T10:37:16.999Z</time></trkpt><trkpt lat="42.52205848665336" lon="-8.377103261326631"><ele>605.0</ele><time>2026-04-18T10:37:18Z</time></trkpt><trkpt lat="42.52196560278579" lon="-8.377238520257906"><ele>608.2</ele><time>2026-04-18T10:37:19Z</time></trkpt><trkpt lat="42.521890025204904" lon="-8.377350570695437"><ele>611.4</ele><time>2026-04-18T10:37:20Z</time></trkpt><trkpt lat="42.52182168887928" lon="-8.377467397230102"><ele>614.6</ele><time>2026-04-18T10:37:21Z</time></trkpt><trkpt lat="42.52177965919786" lon="-8.377589354471802"><ele>617.8</ele><time>2026-04-18T10:37:22Z</time></trkpt><trkpt lat="42.52175919182762" lon="-8.377748400881138"><ele>621.0</ele><time>2026-04-18T10:37:23Z</time></trkpt><trkpt lat="42.5217673199352" lon="-8.377918034111369"><ele>618.0</ele><time>2026-04-18T10:37:24Z</time></trkpt><trkpt lat="42.521811595332736" lon="-8.37807623571286"><ele>615.0</ele><time>2026-04-18T10:37:25Z</time></trkpt><trkpt lat="42.52188670288607" lon="-8.378259541236881"><ele>612.0</ele><time>2026-04-18T10:37:26Z</time></trkpt><trkpt lat="42.521918899554116" lon="-8.378421523827917"><ele>609.0</ele><time>2026-04-18T10:37:27Z</time></trkpt><trkpt lat="42.52191104419326" lon="-8.378557835441589"><ele>609.0</ele><time>2026-04-18T10:37:28Z</time></trkpt><trkpt lat="42.52189158402584" lon="-8.378696230288805"><ele>609.0</ele><time>2026-04-18T10:37:29Z</time></trkpt><trkpt lat="42.52185517023008" lon="-8.378815124445634"><ele>609.0</ele><time>2026-04-18T10:37:30Z</time></trkpt><trkpt lat="42.521799357149085" lon="-8.378970774208453"><ele>609.0</ele><time>2026-04-18T10:37:31Z</time></trkpt><trkpt lat="42.5217383051862" lon="-8.379110049328219"><ele>609.0</ele><time>2026-04-18T10:37:32Z</time></trkpt><trkpt lat="42.52165812614955" lon="-8.379211859078472"><ele>609.25</ele><time>2026-04-18T10:37:33Z</time></trkpt><trkpt lat="42.521545905295916" lon="-8.379298120412157"><ele>609.5</ele><time>2026-04-18T10:37:34Z</time></trkpt><trkpt lat="42.52141555003335" lon="-8.379393464931159"><ele>609.75</ele><time>2026-04-18T10:37:35Z</time></trkpt><trkpt lat="42.52127843071027" lon="-8.379503119277473"><ele>610.0</ele><time>2026-04-18T10:37:36Z</time></trkpt><trkpt lat="42.52114230334773" lon="-8.379618082826477"><ele>603.5</ele><time>2026-04-18T10:37:37Z</time></trkpt><trkpt lat="42.521027346460095" lon="-8.3797324731998"><ele>597.0</ele><time>2026-04-18T10:37:38Z</time></trkpt><trkpt lat="42.520933530530264" lon="-8.379861473916526"><ele>590.5</ele><time>2026-04-18T10:37:39Z</time></trkpt><trkpt lat="42.52084560461215" lon="-8.379990781628948"><ele>584.0</ele><time>2026-04-18T10:37:40Z</time></trkpt><trkpt lat="42.52077630697567" lon="-8.380096829994285"><ele>584.0</ele><time>2026-04-18T10:37:41Z</time></trkpt><trkpt lat="42.520713524459474" lon="-8.380198909247817"><ele>584.0</ele><time>2026-04-18T10:37:42Z</time></trkpt><trkpt lat="42.520642894406244" lon="-8.380317774930203"><ele>584.0</ele><time>2026-04-18T10:37:43Z</time></trkpt><trkpt lat="42.52055181472166" lon="-8.380431863224393"><ele>584.0</ele><time>2026-04-18T10:37:44Z</time></trkpt><trkpt lat="42.520441469376685" lon="-8.380563958527919"><ele>582.0</ele><time>2026-04-18T10:37:45Z</time></trkpt><trkpt lat="42.520307897503244" lon="-8.380692906355193"><ele>580.0</ele><time>2026-04-18T10:37:46Z</time></trkpt><trkpt lat="42.520187269756704" lon="-8.380798952548435"><ele>578.0</ele><time>2026-04-18T10:37:47Z</time></trkpt><trkpt lat="42.520109130435316" lon="-8.380871291919005"><ele>576.0</ele><time>2026-04-18T10:37:48Z</time></trkpt><trkpt lat="42.51999976137295" lon="-8.380919252205475"><ele>576.0</ele><time>2026-04-18T10:37:50Z</time></trkpt><trkpt lat="42.51990580564936" lon="-8.380904422275645"><ele>576.0</ele><time>2026-04-18T10:37:51Z</time></trkpt><trkpt lat="42.51979393191239" lon="-8.380882954835938"><ele>576.0</ele><time>2026-04-18T10:37:52Z</time></trkpt><trkpt lat="42.51967531200115" lon="-8.380872381004666"><ele>576.0</ele><time>2026-04-18T10:37:53Z</time></trkpt><trkpt lat="42.51955275961334" lon="-8.380862898095524"><ele>576.0</ele><time>2026-04-18T10:37:54Z</time></trkpt><trkpt lat="42.51941573594872" lon="-8.380849531391696"><ele>576.4</ele><time>2026-04-18T10:37:55Z</time></trkpt><trkpt lat="42.51928777771362" lon="-8.38082446264948"><ele>576.8</ele><time>2026-04-18T10:37:56Z</time></trkpt><trkpt lat="42.51916083041404" lon="-8.380765850875946"><ele>577.1999999999999</ele><time>2026-04-18T10:37:57Z</time></trkpt><trkpt lat="42.51906016702803" lon="-8.380703940866008"><ele>577.6</ele><time>2026-04-18T10:37:58Z</time></trkpt><trkpt lat="42.51898898617507" lon="-8.380696283718722"><ele>578.0</ele><time>2026-04-18T10:37:59Z</time></trkpt><trkpt lat="42.51892361852065" lon="-8.38081275385126"><ele>578.0</ele><time>2026-04-18T10:38:01Z</time></trkpt><trkpt lat="42.5188842328211" lon="-8.380882294471427"><ele>578.0</ele><time>2026-04-18T10:38:03Z</time></trkpt><trkpt lat="42.51885627813754" lon="-8.381072472554326"><ele>578.0</ele><time>2026-04-18T10:38:05Z</time></trkpt><trkpt lat="42.51883627671355" lon="-8.381214015340126"><ele>578.0</ele><time>2026-04-18T10:38:06Z</time></trkpt><trkpt lat="42.51878494716404" lon="-8.38131223145615"><ele>578.0</ele><time>2026-04-18T10:38:07Z</time></trkpt><trkpt lat="42.518724323196686" lon="-8.381412773521193"><ele>577.5</ele><time>2026-04-18T10:38:08Z</time></trkpt><trkpt lat="42.51867080898137" lon="-8.3814937014744"><ele>577.0</ele><time>2026-04-18T10:38:09Z</time></trkpt><trkpt lat="42.51858089847945" lon="-8.381580762994219"><ele>576.5</ele><time>2026-04-18T10:38:10Z</time></trkpt><trkpt lat="42.51848678625121" lon="-8.381691867313704"><ele>576.0</ele><time>2026-04-18T10:38:11Z</time></trkpt><trkpt lat="42.51839105312555" lon="-8.381823639181428"><ele>576.0</ele><time>2026-04-18T10:38:12Z</time></trkpt><trkpt lat="42.51831124154755" lon="-8.38193249380071"><ele>576.0</ele><time>2026-04-18T10:38:13Z</time></trkpt><trkpt lat="42.51822909506974" lon="-8.38201480672229"><ele>576.0</ele><time>2026-04-18T10:38:14Z</time></trkpt><trkpt lat="42.518129659294026" lon="-8.382080671495885"><ele>576.0</ele><time>2026-04-18T10:38:15Z</time></trkpt><trkpt lat="42.518011924692146" lon="-8.382161161672052"><ele>575.0</ele><time>2026-04-18T10:38:16Z</time></trkpt><trkpt lat="42.51788418261004" lon="-8.382271969442359"><ele>574.0</ele><time>2026-04-18T10:38:17Z</time></trkpt><trkpt lat="42.51777112557471" lon="-8.382422580484743"><ele>573.0</ele><time>2026-04-18T10:38:18Z</time></trkpt><trkpt lat="42.517669104835065" lon="-8.382556063073128"><ele>573.0</ele><time>2026-04-18T10:38:19Z</time></trkpt><trkpt lat="42.517577309833165" lon="-8.382669196365192"><ele>573.0</ele><time>2026-04-18T10:38:20Z</time></trkpt><trkpt lat="42.51750210325074" lon="-8.382812538687375"><ele>573.0</ele><time>2026-04-18T10:38:21Z</time></trkpt><trkpt lat="42.51745586748666" lon="-8.382947463754888"><ele>573.0</ele><time>2026-04-18T10:38:22Z</time></trkpt><trkpt lat="42.51738318517881" lon="-8.383022131379338"><ele>568.0</ele><time>2026-04-18T10:38:23Z</time></trkpt><trkpt lat="42.51727431971348" lon="-8.383077328369811"><ele>563.0</ele><time>2026-04-18T10:38:24Z</time></trkpt><trkpt lat="42.517167145522635" lon="-8.383103598979964"><ele>558.0</ele><time>2026-04-18T10:38:25Z</time></trkpt><trkpt lat="42.51704826136613" lon="-8.383072935726817"><ele>553.0</ele><time>2026-04-18T10:38:26Z</time></trkpt><trkpt lat="42.516928804452604" lon="-8.383048403885969"><ele>553.0</ele><time>2026-04-18T10:38:27Z</time></trkpt><trkpt lat="42.51679773418702" lon="-8.383027505827553"><ele>553.0</ele><time>2026-04-18T10:38:28Z</time></trkpt><trkpt lat="42.51669831087877" lon="-8.383051364704212"><ele>553.0</ele><time>2026-04-18T10:38:29Z</time></trkpt><trkpt lat="42.51659495573506" lon="-8.38314004842814"><ele>553.0</ele><time>2026-04-18T10:38:29.999Z</time></trkpt><trkpt lat="42.51646401312258" lon="-8.38326010035239"><ele>553.0</ele><time>2026-04-18T10:38:30.999Z</time></trkpt><trkpt lat="42.51634650516452" lon="-8.38337695761448"><ele>553.0</ele><time>2026-04-18T10:38:31.999Z</time></trkpt><trkpt lat="42.51627334826727" lon="-8.383463310652802"><ele>553.0</ele><time>2026-04-18T10:38:32.999Z</time></trkpt><trkpt lat="42.5162249464691" lon="-8.383557801080068"><ele>553.0</ele><time>2026-04-18T10:38:33.999Z</time></trkpt><trkpt lat="42.51622650007057" lon="-8.383691319064889"><ele>553.0</ele><time>2026-04-18T10:38:34.999Z</time></trkpt><trkpt lat="42.5162788784288" lon="-8.383861192671874"><ele>548.5</ele><time>2026-04-18T10:38:35.999Z</time></trkpt><trkpt lat="42.516296976777674" lon="-8.384020687330182"><ele>544.0</ele><time>2026-04-18T10:38:36.999Z</time></trkpt><trkpt lat="42.51631694880549" lon="-8.38420168756153"><ele>539.5</ele><time>2026-04-18T10:38:37.999Z</time></trkpt><trkpt lat="42.51632469814134" lon="-8.384390866256707"><ele>535.0</ele><time>2026-04-18T10:38:38.999Z</time></trkpt><trkpt lat="42.51635040298575" lon="-8.384566170930954"><ele>534.25</ele><time>2026-04-18T10:38:39.999Z</time></trkpt><trkpt lat="42.51634864984054" lon="-8.384767049144955"><ele>533.5</ele><time>2026-04-18T10:38:40.999Z</time></trkpt><trkpt lat="42.51634424723223" lon="-8.384943208149899"><ele>532.75</ele><time>2026-04-18T10:38:41.999Z</time></trkpt><trkpt lat="42.516328376303534" lon="-8.385093412160762"><ele>532.0</ele><time>2026-04-18T10:38:42.999Z</time></trkpt><trkpt lat="42.516300970386176" lon="-8.385183148557996"><ele>539.2</ele><time>2026-04-18T10:38:43.999Z</time></trkpt><trkpt lat="42.516226453464" lon="-8.38525119452973"><ele>546.4000000000001</ele><time>2026-04-18T10:38:44.999Z</time></trkpt><trkpt lat="42.516125575558824" lon="-8.385299547853629"><ele>553.5999999999999</ele><time>2026-04-18T10:38:45.999Z</time></trkpt><trkpt lat="42.516006674133564" lon="-8.385324969633578"><ele>560.8</ele><time>2026-04-18T10:38:46.999Z</time></trkpt><trkpt lat="42.515897344321225" lon="-8.38535891556271"><ele>568.0</ele><time>2026-04-18T10:38:47.999Z</time></trkpt><trkpt lat="42.515787043837214" lon="-8.385402821918545"><ele>568.0</ele><time>2026-04-18T10:38:48.999Z</time></trkpt><trkpt lat="42.51565563506084" lon="-8.385459381006733"><ele>568.0</ele><time>2026-04-18T10:38:49.999Z</time></trkpt><trkpt lat="42.51550845113706" lon="-8.385506574457219"><ele>568.0</ele><time>2026-04-18T10:38:50.999Z</time></trkpt><trkpt lat="42.515352310136585" lon="-8.3855407809142"><ele>568.0</ele><time>2026-04-18T10:38:51.999Z</time></trkpt><trkpt lat="42.51517655039226" lon="-8.3855699373191"><ele>558.0</ele><time>2026-04-18T10:38:52.999Z</time></trkpt><trkpt lat="42.515018839874884" lon="-8.385598601354415"><ele>548.0</ele><time>2026-04-18T10:38:53.999Z</time></trkpt><trkpt lat="42.514868611622184" lon="-8.385624459366086"><ele>538.0</ele><time>2026-04-18T10:38:54.999Z</time></trkpt><trkpt lat="42.51472644690191" lon="-8.385664479056004"><ele>538.0</ele><time>2026-04-18T10:38:55.999Z</time></trkpt><trkpt lat="42.51458248976006" lon="-8.385717090937034"><ele>538.0</ele><time>2026-04-18T10:38:56.999Z</time></trkpt><trkpt lat="42.51443818266642" lon="-8.385767643818674"><ele>538.0</ele><time>2026-04-18T10:38:57.999Z</time></trkpt><trkpt lat="42.51429461577071" lon="-8.385786271327145"><ele>538.0</ele><time>2026-04-18T10:38:58.999Z</time></trkpt><trkpt lat="42.51414124518851" lon="-8.385789027011016"><ele>537.3333333333334</ele><time>2026-04-18T10:38:59.999Z</time></trkpt><trkpt lat="42.513966789311" lon="-8.385796046779033"><ele>536.6666666666666</ele><time>2026-04-18T10:39:00.999Z</time></trkpt><trkpt lat="42.513798777493115" lon="-8.385804640026961"><ele>536.0</ele><time>2026-04-18T10:39:01.999Z</time></trkpt><trkpt lat="42.513643948281356" lon="-8.385825025804253"><ele>537.5</ele><time>2026-04-18T10:39:02.999Z</time></trkpt><trkpt lat="42.51351322330564" lon="-8.385822317763694"><ele>539.0</ele><time>2026-04-18T10:39:03.999Z</time></trkpt><trkpt lat="42.51336694107755" lon="-8.385812481782908"><ele>540.5</ele><time>2026-04-18T10:39:04.999Z</time></trkpt><trkpt lat="42.513227265336404" lon="-8.38580710607162"><ele>542.0</ele><time>2026-04-18T10:39:05.999Z</time></trkpt><trkpt lat="42.51308267128046" lon="-8.38580988140721"><ele>542.0</ele><time>2026-04-18T10:39:06.999Z</time></trkpt><trkpt lat="42.51297132450412" lon="-8.385803379668454"><ele>542.0</ele><time>2026-04-18T10:39:07.999Z</time></trkpt><trkpt lat="42.51289676248096" lon="-8.385766181725238"><ele>542.0</ele><time>2026-04-18T10:39:08.999Z</time></trkpt><trkpt lat="42.51280630489121" lon="-8.385732232316027"><ele>542.0</ele><time>2026-04-18T10:39:09.999Z</time></trkpt><trkpt lat="42.51270836958972" lon="-8.385685966313847"><ele>542.0</ele><time>2026-04-18T10:39:10.999Z</time></trkpt><trkpt lat="42.51261519250419" lon="-8.385681343810031"><ele>544.25</ele><time>2026-04-18T10:39:11.999Z</time></trkpt><trkpt lat="42.51250362968885" lon="-8.385714427698849"><ele>546.5</ele><time>2026-04-18T10:39:12.999Z</time></trkpt><trkpt lat="42.51237589804617" lon="-8.385708887204053"><ele>548.75</ele><time>2026-04-18T10:39:13.999Z</time></trkpt><trkpt lat="42.51227264452916" lon="-8.385744781273333"><ele>551.0</ele><time>2026-04-18T10:39:14.999Z</time></trkpt><trkpt lat="42.51218198314576" lon="-8.385826643593786"><ele>555.3333333333333</ele><time>2026-04-18T10:39:15.999Z</time></trkpt><trkpt lat="42.51201834427765" lon="-8.385942671412455"><ele>559.6666666666666</ele><time>2026-04-18T10:39:16.999Z</time></trkpt><trkpt lat="42.51181955670935" lon="-8.386150221568192"><ele>564.0</ele><time>2026-04-18T10:39:17.999Z</time></trkpt><trkpt lat="42.51169232569212" lon="-8.38623924846864"><ele>559.0</ele><time>2026-04-18T10:39:18.999Z</time></trkpt><trkpt lat="42.51155970469605" lon="-8.386391447950409"><ele>554.0</ele><time>2026-04-18T10:39:19.999Z</time></trkpt><trkpt lat="42.51144719980629" lon="-8.386522237598227"><ele>549.0</ele><time>2026-04-18T10:39:20.999Z</time></trkpt><trkpt lat="42.51137687645649" lon="-8.386645809908323"><ele>544.0</ele><time>2026-04-18T10:39:21.999Z</time></trkpt><trkpt lat="42.511331837455124" lon="-8.38679060567864"><ele>544.0</ele><time>2026-04-18T10:39:22.999Z</time></trkpt><trkpt lat="42.511307421195085" lon="-8.386928232782234"><ele>544.0</ele><time>2026-04-18T10:39:24Z</time></trkpt><trkpt lat="42.51129208541585" lon="-8.387049614161096"><ele>544.0</ele><time>2026-04-18T10:39:25Z</time></trkpt><trkpt lat="42.51128611182435" lon="-8.387155294749068"><ele>544.0</ele><time>2026-04-18T10:39:26Z</time></trkpt><trkpt lat="42.51126993309676" lon="-8.387282684489522"><ele>544.0</ele><time>2026-04-18T10:39:28Z</time></trkpt><trkpt lat="42.51122616600388" lon="-8.387355064914678"><ele>544.0</ele><time>2026-04-18T10:39:30Z</time></trkpt><trkpt lat="42.511164033933206" lon="-8.387371169301195"><ele>542.8</ele><time>2026-04-18T10:39:32Z</time></trkpt><trkpt lat="42.51109043584385" lon="-8.387454161313602"><ele>541.5999999999999</ele><time>2026-04-18T10:39:33Z</time></trkpt><trkpt lat="42.51097617717608" lon="-8.387482050880013"><ele>540.4</ele><time>2026-04-18T10:39:34Z</time></trkpt><trkpt lat="42.510928641131166" lon="-8.387562601400713"><ele>539.1999999999999</ele><time>2026-04-18T10:39:35Z</time></trkpt><trkpt lat="42.51078566626467" lon="-8.387585344849764"><ele>538.0</ele><time>2026-04-18T10:39:36Z</time></trkpt><trkpt lat="42.51068597202783" lon="-8.387597471608418"><ele>538.0</ele><time>2026-04-18T10:39:37Z</time></trkpt><trkpt lat="42.510436153785996" lon="-8.387663374128365"><ele>538.0</ele><time>2026-04-18T10:39:38Z</time></trkpt><trkpt lat="42.51035342363309" lon="-8.38761397946724"><ele>538.0</ele><time>2026-04-18T10:39:39Z</time></trkpt><trkpt lat="42.51024919733394" lon="-8.387619927785945"><ele>538.0</ele><time>2026-04-18T10:39:40Z</time></trkpt><trkpt lat="42.51016161386025" lon="-8.387603286282076"><ele>543.6666666666667</ele><time>2026-04-18T10:39:41Z</time></trkpt><trkpt lat="42.51004560288334" lon="-8.387642204992574"><ele>549.3333333333334</ele><time>2026-04-18T10:39:43Z</time></trkpt><trkpt lat="42.50987746591724" lon="-8.38760710582741"><ele>555.0</ele><time>2026-04-18T10:39:44Z</time></trkpt><trkpt lat="42.50968704847312" lon="-8.387509289204948"><ele>572.5</ele><time>2026-04-18T10:39:45Z</time></trkpt><trkpt lat="42.509468767749105" lon="-8.387627674674608"><ele>590.0</ele><time>2026-04-18T10:39:46Z</time></trkpt><trkpt lat="42.50924473327082" lon="-8.387642365545643"><ele>590.0</ele><time>2026-04-18T10:39:47Z</time></trkpt><trkpt lat="42.50913138405385" lon="-8.387655240410592"><ele>590.0</ele><time>2026-04-18T10:39:48Z</time></trkpt><trkpt lat="42.508984347349546" lon="-8.387656677265891"><ele>590.0</ele><time>2026-04-18T10:39:49Z</time></trkpt><trkpt lat="42.50880475242474" lon="-8.387653942270783"><ele>590.0</ele><time>2026-04-18T10:39:50Z</time></trkpt><trkpt lat="42.508611616586904" lon="-8.387724424790813"><ele>588.25</ele><time>2026-04-18T10:39:51Z</time></trkpt><trkpt lat="42.508648225489694" lon="-8.387562007138103"><ele>586.5</ele><time>2026-04-18T10:39:52Z</time></trkpt><trkpt lat="42.50858030829718" lon="-8.387713845829566"><ele>584.75</ele><time>2026-04-18T10:39:53Z</time></trkpt><trkpt lat="42.50853559250113" lon="-8.387887388908716"><ele>583.0</ele><time>2026-04-18T10:39:54Z</time></trkpt><trkpt lat="42.508429523721006" lon="-8.388010691242716"><ele>583.0</ele><time>2026-04-18T10:39:55Z</time></trkpt><trkpt lat="42.50840432934946" lon="-8.388183972600228"><ele>583.0</ele><time>2026-04-18T10:39:56Z</time></trkpt><trkpt lat="42.508334702069035" lon="-8.388329367031455"><ele>583.0</ele><time>2026-04-18T10:39:57Z</time></trkpt><trkpt lat="42.50814966933858" lon="-8.388389015367391"><ele>583.0</ele><time>2026-04-18T10:39:58Z</time></trkpt><trkpt lat="42.50805576260043" lon="-8.388484796956073"><ele>583.0</ele><time>2026-04-18T10:39:59Z</time></trkpt><trkpt lat="42.50792781541139" lon="-8.388571819425643"><ele>583.0</ele><time>2026-04-18T10:40:00Z</time></trkpt><trkpt lat="42.50786423432674" lon="-8.388770438633513"><ele>583.0</ele><time>2026-04-18T10:40:01Z</time></trkpt><trkpt lat="42.50772467611563" lon="-8.388844053349214"><ele>576.25</ele><time>2026-04-18T10:40:02Z</time></trkpt><trkpt lat="42.507607249847545" lon="-8.388967279187193"><ele>569.5</ele><time>2026-04-18T10:40:03Z</time></trkpt><trkpt lat="42.50751733764225" lon="-8.38909073870314"><ele>562.75</ele><time>2026-04-18T10:40:04Z</time></trkpt><trkpt lat="42.507441820206026" lon="-8.389118340140268"><ele>556.0</ele><time>2026-04-18T10:40:05Z</time></trkpt><trkpt lat="42.50731214941957" lon="-8.389141254138828"><ele>556.0</ele><time>2026-04-18T10:40:06Z</time></trkpt><trkpt lat="42.50715003864848" lon="-8.38912725302371"><ele>556.0</ele><time>2026-04-18T10:40:07Z</time></trkpt><trkpt lat="42.506912801694526" lon="-8.389064559277001"><ele>556.0</ele><time>2026-04-18T10:40:08Z</time></trkpt><trkpt lat="42.506747653510836" lon="-8.389012835469249"><ele>557.25</ele><time>2026-04-18T10:40:09Z</time></trkpt><trkpt lat="42.506599646419936" lon="-8.389003300186932"><ele>558.5</ele><time>2026-04-18T10:40:10Z</time></trkpt><trkpt lat="42.50642788337564" lon="-8.388973388400983"><ele>559.75</ele><time>2026-04-18T10:40:11Z</time></trkpt><trkpt lat="42.50630881320135" lon="-8.38898225377746"><ele>561.0</ele><time>2026-04-18T10:40:12Z</time></trkpt><trkpt lat="42.50622101098502" lon="-8.388972152812098"><ele>567.4</ele><time>2026-04-18T10:40:13Z</time></trkpt><trkpt lat="42.50609636726199" lon="-8.388963619883233"><ele>573.8</ele><time>2026-04-18T10:40:14Z</time></trkpt><trkpt lat="42.50608527969118" lon="-8.389092393027589"><ele>580.1999999999999</ele><time>2026-04-18T10:40:15Z</time></trkpt><trkpt lat="42.505973163839606" lon="-8.389126804480771"><ele>586.6</ele><time>2026-04-18T10:40:16Z</time></trkpt><trkpt lat="42.50590446051482" lon="-8.389194756826605"><ele>593.0</ele><time>2026-04-18T10:40:17Z</time></trkpt><trkpt lat="42.505745547578506" lon="-8.389330861204286"><ele>593.0</ele><time>2026-04-18T10:40:19Z</time></trkpt><trkpt lat="42.50574520213145" lon="-8.38945427551559"><ele>593.0</ele><time>2026-04-18T10:40:21Z</time></trkpt><trkpt lat="42.5058126816393" lon="-8.389642503720216"><ele>593.0</ele><time>2026-04-18T10:40:22Z</time></trkpt><trkpt lat="42.50590295210467" lon="-8.389804976707472"><ele>593.0</ele><time>2026-04-18T10:40:23Z</time></trkpt><trkpt lat="42.50602287009639" lon="-8.389992263691337"><ele>577.5</ele><time>2026-04-18T10:40:24Z</time></trkpt><trkpt lat="42.50633626552381" lon="-8.39016867885137"><ele>562.0</ele><time>2026-04-18T10:40:25Z</time></trkpt><trkpt lat="42.50650674542126" lon="-8.390323667013952"><ele>562.0</ele><time>2026-04-18T10:40:26Z</time></trkpt><trkpt lat="42.50663222419042" lon="-8.390495038300033"><ele>562.0</ele><time>2026-04-18T10:40:27Z</time></trkpt><trkpt lat="42.50674714482714" lon="-8.390669958210852"><ele>562.0</ele><time>2026-04-18T10:40:28Z</time></trkpt><trkpt lat="42.50681672939921" lon="-8.390853726758216"><ele>564.3333333333334</ele><time>2026-04-18T10:40:29Z</time></trkpt><trkpt lat="42.506870266788745" lon="-8.391073283378207"><ele>566.6666666666666</ele><time>2026-04-18T10:40:30Z</time></trkpt><trkpt lat="42.50694041040556" lon="-8.391299661261286"><ele>569.0</ele><time>2026-04-18T10:40:31Z</time></trkpt><trkpt lat="42.50703778663477" lon="-8.391543842551004"><ele>569.0</ele><time>2026-04-18T10:40:32Z</time></trkpt><trkpt lat="42.50698049266721" lon="-8.39176150664466"><ele>569.0</ele><time>2026-04-18T10:40:33Z</time></trkpt><trkpt lat="42.50689502861682" lon="-8.391966939879243"><ele>569.0</ele><time>2026-04-18T10:40:34Z</time></trkpt><trkpt lat="42.50679614530964" lon="-8.392162311566258"><ele>564.0</ele><time>2026-04-18T10:40:35Z</time></trkpt><trkpt lat="42.50669981197508" lon="-8.392383502709686"><ele>559.0</ele><time>2026-04-18T10:40:36Z</time></trkpt><trkpt lat="42.50661233538261" lon="-8.392568061006168"><ele>554.0</ele><time>2026-04-18T10:40:37Z</time></trkpt><trkpt lat="42.50651105494104" lon="-8.392696039740816"><ele>554.0</ele><time>2026-04-18T10:40:38Z</time></trkpt><trkpt lat="42.50640988188156" lon="-8.392854424155146"><ele>554.0</ele><time>2026-04-18T10:40:39Z</time></trkpt><trkpt lat="42.50630197353569" lon="-8.392959478208196"><ele>554.0</ele><time>2026-04-18T10:40:40Z</time></trkpt><trkpt lat="42.50620429872905" lon="-8.393050114553967"><ele>554.0</ele><time>2026-04-18T10:40:41Z</time></trkpt><trkpt lat="42.506131835879934" lon="-8.393125429484527"><ele>552.2</ele><time>2026-04-18T10:40:42Z</time></trkpt><trkpt lat="42.506071837383416" lon="-8.39322337265999"><ele>550.4</ele><time>2026-04-18T10:40:43Z</time></trkpt><trkpt lat="42.5059996548465" lon="-8.393303770311174"><ele>548.6</ele><time>2026-04-18T10:40:44Z</time></trkpt><trkpt lat="42.50592219832058" lon="-8.393377169344214"><ele>546.8</ele><time>2026-04-18T10:40:44.999Z</time></trkpt><trkpt lat="42.50584559790368" lon="-8.393450907447077"><ele>545.0</ele><time>2026-04-18T10:40:45.999Z</time></trkpt><trkpt lat="42.50576128795408" lon="-8.393483260896813"><ele>545.0</ele><time>2026-04-18T10:40:46.999Z</time></trkpt><trkpt lat="42.50568488524143" lon="-8.393554365320414"><ele>545.0</ele><time>2026-04-18T10:40:47.999Z</time></trkpt><trkpt lat="42.50561005102522" lon="-8.393610349804298"><ele>545.0</ele><time>2026-04-18T10:40:48.999Z</time></trkpt><trkpt lat="42.505545630099896" lon="-8.393672442145862"><ele>545.0</ele><time>2026-04-18T10:40:49.999Z</time></trkpt><trkpt lat="42.505459318995946" lon="-8.393732367902528"><ele>545.0</ele><time>2026-04-18T10:40:50.999Z</time></trkpt><trkpt lat="42.50538282952493" lon="-8.393789767744968"><ele>545.0</ele><time>2026-04-18T10:40:51.999Z</time></trkpt><trkpt lat="42.50530948545304" lon="-8.3938590163082"><ele>543.5</ele><time>2026-04-18T10:40:52.999Z</time></trkpt><trkpt lat="42.50520736714758" lon="-8.393943982394042"><ele>542.0</ele><time>2026-04-18T10:40:54.999Z</time></trkpt><trkpt lat="42.50514368552893" lon="-8.394001084128378"><ele>540.5</ele><time>2026-04-18T10:40:55.999Z</time></trkpt><trkpt lat="42.50506944600244" lon="-8.39406417821212"><ele>539.0</ele><time>2026-04-18T10:40:56.999Z</time></trkpt><trkpt lat="42.5050140423589" lon="-8.394135222892222"><ele>537.5</ele><time>2026-04-18T10:40:57.999Z</time></trkpt><trkpt lat="42.50496784597485" lon="-8.39423073019576"><ele>536.0</ele><time>2026-04-18T10:40:58.999Z</time></trkpt><trkpt lat="42.50488698181619" lon="-8.394289545475413"><ele>536.0</ele><time>2026-04-18T10:40:59.999Z</time></trkpt><trkpt lat="42.50477731839645" lon="-8.394341484516353"><ele>536.0</ele><time>2026-04-18T10:41:00.999Z</time></trkpt><trkpt lat="42.50466700259522" lon="-8.394375073200363"><ele>536.0</ele><time>2026-04-18T10:41:01.999Z</time></trkpt><trkpt lat="42.50454133264739" lon="-8.394403709869367"><ele>536.0</ele><time>2026-04-18T10:41:02.999Z</time></trkpt><trkpt lat="42.50444221843194" lon="-8.394440072798842"><ele>538.3333333333333</ele><time>2026-04-18T10:41:03.999Z</time></trkpt><trkpt lat="42.50434758176384" lon="-8.394466147818274"><ele>540.6666666666666</ele><time>2026-04-18T10:41:04.999Z</time></trkpt><trkpt lat="42.5042728326475" lon="-8.394479289155278"><ele>543.0</ele><time>2026-04-18T10:41:05.999Z</time></trkpt><trkpt lat="42.50418678190555" lon="-8.394485949349303"><ele>545.3333333333334</ele><time>2026-04-18T10:41:06.999Z</time></trkpt><trkpt lat="42.50410054944401" lon="-8.394497692335532"><ele>547.6666666666667</ele><time>2026-04-18T10:41:07.999Z</time></trkpt><trkpt lat="42.504002668319984" lon="-8.394503528025004"><ele>550.0</ele><time>2026-04-18T10:41:08.999Z</time></trkpt><trkpt lat="42.50390758177753" lon="-8.394527606639507"><ele>550.0</ele><time>2026-04-18T10:41:09.999Z</time></trkpt><trkpt lat="42.50380939452133" lon="-8.394541753334885"><ele>550.0</ele><time>2026-04-18T10:41:10.999Z</time></trkpt><trkpt lat="42.50370335852169" lon="-8.394578427288561"><ele>550.0</ele><time>2026-04-18T10:41:11.999Z</time></trkpt><trkpt lat="42.50360816081632" lon="-8.394603640567327"><ele>550.0</ele><time>2026-04-18T10:41:12.999Z</time></trkpt><trkpt lat="42.503501518451706" lon="-8.394631393016093"><ele>550.0</ele><time>2026-04-18T10:41:13.999Z</time></trkpt><trkpt lat="42.503373133145836" lon="-8.394630976948667"><ele>547.0</ele><time>2026-04-18T10:41:14.999Z</time></trkpt><trkpt lat="42.50327479462966" lon="-8.394638025999622"><ele>544.0</ele><time>2026-04-18T10:41:15.999Z</time></trkpt><trkpt lat="42.503230342773556" lon="-8.394699932289743"><ele>541.0</ele><time>2026-04-18T10:41:17.999Z</time></trkpt><trkpt lat="42.50341544879896" lon="-8.394664060183974"><ele>538.0</ele><time>2026-04-18T10:41:19.999Z</time></trkpt><trkpt lat="42.503538530672856" lon="-8.394674197571488"><ele>538.0</ele><time>2026-04-18T10:41:20.999Z</time></trkpt><trkpt lat="42.503709409479704" lon="-8.394717821154332"><ele>538.0</ele><time>2026-04-18T10:41:21.999Z</time></trkpt><trkpt lat="42.503837939634025" lon="-8.394772165793906"><ele>538.0</ele><time>2026-04-18T10:41:22.999Z</time></trkpt><trkpt lat="42.503921268392425" lon="-8.394807758375674"><ele>538.0</ele><time>2026-04-18T10:41:23.999Z</time></trkpt><trkpt lat="42.50403251289859" lon="-8.39485520851909"><ele>534.75</ele><time>2026-04-18T10:41:24.999Z</time></trkpt><trkpt lat="42.50414857246971" lon="-8.394912562405564"><ele>531.5</ele><time>2026-04-18T10:41:25.999Z</time></trkpt><trkpt lat="42.5042544584611" lon="-8.394948596703815"><ele>528.25</ele><time>2026-04-18T10:41:26.999Z</time></trkpt><trkpt lat="42.504396446376596" lon="-8.394998189721623"><ele>525.0</ele><time>2026-04-18T10:41:27.999Z</time></trkpt><trkpt lat="42.50458411294359" lon="-8.395030134311295"><ele>521.3333333333334</ele><time>2026-04-18T10:41:28.999Z</time></trkpt><trkpt lat="42.50478021324485" lon="-8.395034636339076"><ele>517.6666666666667</ele><time>2026-04-18T10:41:30Z</time></trkpt><trkpt lat="42.50496536508055" lon="-8.395092573818365"><ele>514.0</ele><time>2026-04-18T10:41:31Z</time></trkpt><trkpt lat="42.50512954629463" lon="-8.395143729092492"><ele>514.0</ele><time>2026-04-18T10:41:32Z</time></trkpt><trkpt lat="42.50524657218534" lon="-8.395168510885293"><ele>514.0</ele><time>2026-04-18T10:41:33Z</time></trkpt><trkpt lat="42.50539403994349" lon="-8.395178537804563"><ele>514.0</ele><time>2026-04-18T10:41:34Z</time></trkpt><trkpt lat="42.50555418731959" lon="-8.395126298418843"><ele>514.0</ele><time>2026-04-18T10:41:35Z</time></trkpt><trkpt lat="42.505718429092354" lon="-8.395047103004593"><ele>510.33333333333337</ele><time>2026-04-18T10:41:36Z</time></trkpt><trkpt lat="42.50586037197636" lon="-8.39495573294374"><ele>506.66666666666663</ele><time>2026-04-18T10:41:37Z</time></trkpt><trkpt lat="42.50601920477085" lon="-8.394919878896692"><ele>503.0</ele><time>2026-04-18T10:41:38Z</time></trkpt><trkpt lat="42.50616996640555" lon="-8.39492534330367"><ele>500.0</ele><time>2026-04-18T10:41:39Z</time></trkpt><trkpt lat="42.50630829110908" lon="-8.394949259089804"><ele>497.0</ele><time>2026-04-18T10:41:40Z</time></trkpt><trkpt lat="42.50644576484651" lon="-8.39495216005642"><ele>494.0</ele><time>2026-04-18T10:41:41Z</time></trkpt><trkpt lat="42.506559269503555" lon="-8.3949447428044"><ele>491.0</ele><time>2026-04-18T10:41:42Z</time></trkpt><trkpt lat="42.506686732392076" lon="-8.3949174899321"><ele>491.0</ele><time>2026-04-18T10:41:43Z</time></trkpt><trkpt lat="42.506820773461236" lon="-8.394877843468674"><ele>491.0</ele><time>2026-04-18T10:41:44Z</time></trkpt><trkpt lat="42.506942533008676" lon="-8.394818185333836"><ele>491.0</ele><time>2026-04-18T10:41:45Z</time></trkpt><trkpt lat="42.50706305845312" lon="-8.394731642734913"><ele>491.0</ele><time>2026-04-18T10:41:46Z</time></trkpt><trkpt lat="42.50719868565393" lon="-8.394643295023428"><ele>491.66666666666663</ele><time>2026-04-18T10:41:47Z</time></trkpt><trkpt lat="42.50731144365317" lon="-8.394525632137993"><ele>492.33333333333337</ele><time>2026-04-18T10:41:48Z</time></trkpt><trkpt lat="42.50740411933807" lon="-8.394364036333222"><ele>493.0</ele><time>2026-04-18T10:41:49Z</time></trkpt><trkpt lat="42.507549561586295" lon="-8.394203920000898"><ele>493.0</ele><time>2026-04-18T10:41:50Z</time></trkpt><trkpt lat="42.5077250392902" lon="-8.394039162000821"><ele>493.0</ele><time>2026-04-18T10:41:51Z</time></trkpt><trkpt lat="42.507884007929775" lon="-8.393907259175277"><ele>493.0</ele><time>2026-04-18T10:41:52Z</time></trkpt><trkpt lat="42.508061659123456" lon="-8.393777467070596"><ele>492.33333333333337</ele><time>2026-04-18T10:41:53Z</time></trkpt><trkpt lat="42.50825599582913" lon="-8.393705753046493"><ele>491.66666666666663</ele><time>2026-04-18T10:41:54Z</time></trkpt><trkpt lat="42.508477343415294" lon="-8.393591631536127"><ele>491.0</ele><time>2026-04-18T10:41:55Z</time></trkpt><trkpt lat="42.50871735562902" lon="-8.393456469891772"><ele>479.0</ele><time>2026-04-18T10:41:56Z</time></trkpt><trkpt lat="42.50899833956888" lon="-8.393228261504177"><ele>467.0</ele><time>2026-04-18T10:41:57Z</time></trkpt><trkpt lat="42.50923144466788" lon="-8.393077875747757"><ele>464.0</ele><time>2026-04-18T10:41:58Z</time></trkpt><trkpt lat="42.5094610239608" lon="-8.392932605477027"><ele>461.0</ele><time>2026-04-18T10:41:59Z</time></trkpt><trkpt lat="42.50969092206763" lon="-8.392768128317586"><ele>461.0</ele><time>2026-04-18T10:42:00Z</time></trkpt><trkpt lat="42.509942054501316" lon="-8.392565156675564"><ele>461.0</ele><time>2026-04-18T10:42:01Z</time></trkpt><trkpt lat="42.510165093403096" lon="-8.392386182766156"><ele>461.0</ele><time>2026-04-18T10:42:02Z</time></trkpt><trkpt lat="42.51034199112959" lon="-8.392251755962358"><ele>461.0</ele><time>2026-04-18T10:42:03Z</time></trkpt><trkpt lat="42.51050366291497" lon="-8.3921374404545"><ele>461.0</ele><time>2026-04-18T10:42:04Z</time></trkpt><trkpt lat="42.510624406168674" lon="-8.392036875700347"><ele>460.0</ele><time>2026-04-18T10:42:05Z</time></trkpt><trkpt lat="42.510793372213016" lon="-8.391937224181547"><ele>459.0</ele><time>2026-04-18T10:42:06Z</time></trkpt><trkpt lat="42.510957603254674" lon="-8.391826201171106"><ele>458.0</ele><time>2026-04-18T10:42:07Z</time></trkpt><trkpt lat="42.51110775755845" lon="-8.391696951396028"><ele>455.3333333333333</ele><time>2026-04-18T10:42:08Z</time></trkpt><trkpt lat="42.51125714590772" lon="-8.391577284914105"><ele>452.66666666666663</ele><time>2026-04-18T10:42:09Z</time></trkpt><trkpt lat="42.51143230639723" lon="-8.391483765388474"><ele>450.0</ele><time>2026-04-18T10:42:10Z</time></trkpt><trkpt lat="42.51160881028469" lon="-8.391435740557018"><ele>450.0</ele><time>2026-04-18T10:42:11Z</time></trkpt><trkpt lat="42.51177271289941" lon="-8.3913697661248"><ele>450.0</ele><time>2026-04-18T10:42:12Z</time></trkpt><trkpt lat="42.511915475469806" lon="-8.391315510857467"><ele>450.0</ele><time>2026-04-18T10:42:13Z</time></trkpt><trkpt lat="42.512064221796635" lon="-8.391278081480692"><ele>451.0</ele><time>2026-04-18T10:42:14Z</time></trkpt><trkpt lat="42.512236510031464" lon="-8.391246840350263"><ele>452.0</ele><time>2026-04-18T10:42:15Z</time></trkpt><trkpt lat="42.51242046134496" lon="-8.391212908740382"><ele>453.0</ele><time>2026-04-18T10:42:16Z</time></trkpt><trkpt lat="42.51257335198701" lon="-8.391162141115379"><ele>453.0</ele><time>2026-04-18T10:42:17Z</time></trkpt><trkpt lat="42.51269663123441" lon="-8.391126375955809"><ele>453.0</ele><time>2026-04-18T10:42:18Z</time></trkpt><trkpt lat="42.512777872405785" lon="-8.39103924258547"><ele>453.0</ele><time>2026-04-18T10:42:19Z</time></trkpt><trkpt lat="42.51288615587363" lon="-8.390899658573723"><ele>453.0</ele><time>2026-04-18T10:42:20Z</time></trkpt><trkpt lat="42.513025470786296" lon="-8.390752782593292"><ele>452.0</ele><time>2026-04-18T10:42:21Z</time></trkpt><trkpt lat="42.51319543478727" lon="-8.390606178115233"><ele>451.0</ele><time>2026-04-18T10:42:22Z</time></trkpt><trkpt lat="42.51337925242403" lon="-8.390486694833717"><ele>450.0</ele><time>2026-04-18T10:42:23Z</time></trkpt><trkpt lat="42.513588832025" lon="-8.39036269207832"><ele>446.33333333333337</ele><time>2026-04-18T10:42:24Z</time></trkpt><trkpt lat="42.5137622472738" lon="-8.390244879940143"><ele>442.6666666666667</ele><time>2026-04-18T10:42:25Z</time></trkpt><trkpt lat="42.5139058925985" lon="-8.390131958812306"><ele>439.0</ele><time>2026-04-18T10:42:26Z</time></trkpt><trkpt lat="42.51404698270849" lon="-8.390036064459093"><ele>439.0</ele><time>2026-04-18T10:42:27Z</time></trkpt><trkpt lat="42.514142563795126" lon="-8.389980716554778"><ele>439.0</ele><time>2026-04-18T10:42:28Z</time></trkpt><trkpt lat="42.51423088143733" lon="-8.38985449369009"><ele>439.0</ele><time>2026-04-18T10:42:29Z</time></trkpt><trkpt lat="42.51427759419983" lon="-8.389726620708135"><ele>439.0</ele><time>2026-04-18T10:42:30Z</time></trkpt><trkpt lat="42.51434271374166" lon="-8.389567820476648"><ele>439.5</ele><time>2026-04-18T10:42:31Z</time></trkpt><trkpt lat="42.51439840395765" lon="-8.389411287199607"><ele>440.0</ele><time>2026-04-18T10:42:32Z</time></trkpt><trkpt lat="42.514473875596785" lon="-8.389243412603518"><ele>440.5</ele><time>2026-04-18T10:42:33Z</time></trkpt><trkpt lat="42.514541188358024" lon="-8.389109298806746"><ele>441.0</ele><time>2026-04-18T10:42:34Z</time></trkpt><trkpt lat="42.51460215213723" lon="-8.38898554200701"><ele>441.0</ele><time>2026-04-18T10:42:35Z</time></trkpt><trkpt lat="42.51465075503509" lon="-8.388876863320052"><ele>441.0</ele><time>2026-04-18T10:42:36Z</time></trkpt><trkpt lat="42.51469345590541" lon="-8.38880162445736"><ele>441.0</ele><time>2026-04-18T10:42:37Z</time></trkpt><trkpt lat="42.51476357603374" lon="-8.388756642123154"><ele>441.0</ele><time>2026-04-18T10:42:38Z</time></trkpt><trkpt lat="42.514857254800866" lon="-8.388724450713207"><ele>441.0</ele><time>2026-04-18T10:42:39Z</time></trkpt><trkpt lat="42.51495829177092" lon="-8.388686638123476"><ele>441.0</ele><time>2026-04-18T10:42:40Z</time></trkpt><trkpt lat="42.51506442591398" lon="-8.388639141352362"><ele>442.75</ele><time>2026-04-18T10:42:41Z</time></trkpt><trkpt lat="42.515167028406566" lon="-8.388562893934074"><ele>444.5</ele><time>2026-04-18T10:42:42Z</time></trkpt><trkpt lat="42.51527024766185" lon="-8.388480570609222"><ele>446.25</ele><time>2026-04-18T10:42:43Z</time></trkpt><trkpt lat="42.51537527615318" lon="-8.38839984627613"><ele>448.0</ele><time>2026-04-18T10:42:44Z</time></trkpt><trkpt lat="42.5154807935865" lon="-8.388329406825012"><ele>448.0</ele><time>2026-04-18T10:42:45Z</time></trkpt><trkpt lat="42.51559019256986" lon="-8.388273973304623"><ele>447.99999999999994</ele><time>2026-04-18T10:42:46Z</time></trkpt><trkpt lat="42.515701433757634" lon="-8.388233680880953"><ele>447.99999999999994</ele><time>2026-04-18T10:42:47Z</time></trkpt><trkpt lat="42.51580960200719" lon="-8.388196427075655"><ele>448.0</ele><time>2026-04-18T10:42:48Z</time></trkpt><trkpt lat="42.51591014203019" lon="-8.388151473276745"><ele>448.0</ele><time>2026-04-18T10:42:49Z</time></trkpt><trkpt lat="42.516006233915846" lon="-8.388094354548928"><ele>448.00000000000006</ele><time>2026-04-18T10:42:50Z</time></trkpt><trkpt lat="42.5160939712961" lon="-8.388041839743767"><ele>448.0</ele><time>2026-04-18T10:42:51Z</time></trkpt><trkpt lat="42.516177261765115" lon="-8.387992989713249"><ele>448.0</ele><time>2026-04-18T10:42:52Z</time></trkpt><trkpt lat="42.5162461113922" lon="-8.387957648489285"><ele>448.0</ele><time>2026-04-18T10:42:53Z</time></trkpt><trkpt lat="42.51632364280034" lon="-8.387937934828976"><ele>448.00000000000006</ele><time>2026-04-18T10:42:54Z</time></trkpt><trkpt lat="42.51642808160084" lon="-8.387924443245206"><ele>448.0</ele><time>2026-04-18T10:42:55Z</time></trkpt><trkpt lat="42.516542863057865" lon="-8.387914099557957"><ele>454.5</ele><time>2026-04-18T10:42:56Z</time></trkpt><trkpt lat="42.516653725120506" lon="-8.387905864145868"><ele>461.0</ele><time>2026-04-18T10:42:57Z</time></trkpt><trkpt lat="42.51676458634271" lon="-8.387863187290305"><ele>467.5</ele><time>2026-04-18T10:42:58Z</time></trkpt><trkpt lat="42.51687973771771" lon="-8.387800683059682"><ele>474.0</ele><time>2026-04-18T10:42:59Z</time></trkpt><trkpt lat="42.51700103382825" lon="-8.387740902030846"><ele>468.5</ele><time>2026-04-18T10:43:00Z</time></trkpt><trkpt lat="42.51710806534482" lon="-8.38768187826752"><ele>463.0</ele><time>2026-04-18T10:43:01Z</time></trkpt><trkpt lat="42.51722188698637" lon="-8.387635474587693"><ele>457.5</ele><time>2026-04-18T10:43:01.999Z</time></trkpt><trkpt lat="42.51733752599181" lon="-8.387576490874588"><ele>452.0</ele><time>2026-04-18T10:43:02.999Z</time></trkpt><trkpt lat="42.517442026763845" lon="-8.38751593324715"><ele>452.0</ele><time>2026-04-18T10:43:03.999Z</time></trkpt><trkpt lat="42.51752934251726" lon="-8.387456435103585"><ele>452.00000000000006</ele><time>2026-04-18T10:43:04.999Z</time></trkpt><trkpt lat="42.51763798746277" lon="-8.38739473355331"><ele>452.00000000000006</ele><time>2026-04-18T10:43:05.999Z</time></trkpt><trkpt lat="42.517743262295625" lon="-8.38732914514686"><ele>452.0</ele><time>2026-04-18T10:43:06.999Z</time></trkpt><trkpt lat="42.51783679994527" lon="-8.387260637564397"><ele>452.0</ele><time>2026-04-18T10:43:07.999Z</time></trkpt><trkpt lat="42.51792794758284" lon="-8.387187167911538"><ele>451.8</ele><time>2026-04-18T10:43:08.999Z</time></trkpt><trkpt lat="42.51802110137706" lon="-8.387132084868163"><ele>451.6</ele><time>2026-04-18T10:43:09.999Z</time></trkpt><trkpt lat="42.518128608763405" lon="-8.38704040152987"><ele>451.40000000000003</ele><time>2026-04-18T10:43:10.999Z</time></trkpt><trkpt lat="42.518219326644534" lon="-8.386969717758193"><ele>451.20000000000005</ele><time>2026-04-18T10:43:11.999Z</time></trkpt><trkpt lat="42.518301288512326" lon="-8.386890657143459"><ele>451.0</ele><time>2026-04-18T10:43:12.999Z</time></trkpt><trkpt lat="42.5183931644566" lon="-8.386802044877523"><ele>451.0</ele><time>2026-04-18T10:43:13.999Z</time></trkpt><trkpt lat="42.51848977068261" lon="-8.386701804542962"><ele>451.0</ele><time>2026-04-18T10:43:14.999Z</time></trkpt><trkpt lat="42.5185839097001" lon="-8.386630915007348"><ele>451.0</ele><time>2026-04-18T10:43:15.999Z</time></trkpt><trkpt lat="42.51867324490352" lon="-8.386570323648721"><ele>451.0</ele><time>2026-04-18T10:43:16.999Z</time></trkpt><trkpt lat="42.51875521516397" lon="-8.3864936094865"><ele>451.0</ele><time>2026-04-18T10:43:17.999Z</time></trkpt><trkpt lat="42.51883243330916" lon="-8.386412508997823"><ele>449.8</ele><time>2026-04-18T10:43:18.999Z</time></trkpt><trkpt lat="42.51890303294481" lon="-8.38633786216294"><ele>448.6</ele><time>2026-04-18T10:43:19.999Z</time></trkpt><trkpt lat="42.518967736607244" lon="-8.386271595696668"><ele>447.4</ele><time>2026-04-18T10:43:20.999Z</time></trkpt><trkpt lat="42.519028859450984" lon="-8.38620460227289"><ele>446.2</ele><time>2026-04-18T10:43:21.999Z</time></trkpt><trkpt lat="42.519110078282566" lon="-8.38611153663334"><ele>445.0</ele><time>2026-04-18T10:43:22.999Z</time></trkpt><trkpt lat="42.51916938852369" lon="-8.385990551762422"><ele>445.0</ele><time>2026-04-18T10:43:23.999Z</time></trkpt><trkpt lat="42.51920192022339" lon="-8.385853933639767"><ele>445.0</ele><time>2026-04-18T10:43:24.999Z</time></trkpt><trkpt lat="42.51922561910047" lon="-8.38572866971897"><ele>445.0</ele><time>2026-04-18T10:43:25.999Z</time></trkpt><trkpt lat="42.519285659445465" lon="-8.385664078772948"><ele>445.0</ele><time>2026-04-18T10:43:26.999Z</time></trkpt><trkpt lat="42.51937797246135" lon="-8.385644503543617"><ele>445.0</ele><time>2026-04-18T10:43:27.999Z</time></trkpt><trkpt lat="42.51949148149537" lon="-8.385655155203652"><ele>444.0</ele><time>2026-04-18T10:43:28.999Z</time></trkpt><trkpt lat="42.51961031285609" lon="-8.385653309058663"><ele>443.0</ele><time>2026-04-18T10:43:29.999Z</time></trkpt><trkpt lat="42.51971679459795" lon="-8.385619437592368"><ele>442.0</ele><time>2026-04-18T10:43:30.999Z</time></trkpt><trkpt lat="42.51981420596454" lon="-8.385547579031513"><ele>441.0</ele><time>2026-04-18T10:43:31.999Z</time></trkpt><trkpt lat="42.51992482271828" lon="-8.385509798030636"><ele>443.25</ele><time>2026-04-18T10:43:32.999Z</time></trkpt><trkpt lat="42.52005255137392" lon="-8.38548686997783"><ele>445.5</ele><time>2026-04-18T10:43:33.999Z</time></trkpt><trkpt lat="42.52017199697878" lon="-8.385468820597252"><ele>447.75</ele><time>2026-04-18T10:43:34.999Z</time></trkpt><trkpt lat="42.52027516599522" lon="-8.385440626466545"><ele>450.0</ele><time>2026-04-18T10:43:36.001Z</time></trkpt><trkpt lat="42.52036671359826" lon="-8.385377903315788"><ele>448.4</ele><time>2026-04-18T10:43:37.001Z</time></trkpt><trkpt lat="42.520432942634415" lon="-8.385280384485684"><ele>446.8</ele><time>2026-04-18T10:43:38.001Z</time></trkpt><trkpt lat="42.520456188036746" lon="-8.385163661030697"><ele>445.20000000000005</ele><time>2026-04-18T10:43:39.001Z</time></trkpt><trkpt lat="42.52047203640988" lon="-8.385034198619739"><ele>443.6</ele><time>2026-04-18T10:43:40.001Z</time></trkpt><trkpt lat="42.520525697432845" lon="-8.38492759879122"><ele>442.0</ele><time>2026-04-18T10:43:41.001Z</time></trkpt><trkpt lat="42.52060559972727" lon="-8.384902432972117"><ele>442.0</ele><time>2026-04-18T10:43:42.001Z</time></trkpt><trkpt lat="42.520708862547195" lon="-8.384922867121016"><ele>442.00000000000006</ele><time>2026-04-18T10:43:43.001Z</time></trkpt><trkpt lat="42.52083197297297" lon="-8.384960746253315"><ele>442.00000000000006</ele><time>2026-04-18T10:43:44.001Z</time></trkpt><trkpt lat="42.52094542402133" lon="-8.3849924734525"><ele>442.0</ele><time>2026-04-18T10:43:45.001Z</time></trkpt><trkpt lat="42.52102687872538" lon="-8.384990619872976"><ele>442.0</ele><time>2026-04-18T10:43:46.001Z</time></trkpt><trkpt lat="42.52112545131481" lon="-8.384973940564723"><ele>442.0</ele><time>2026-04-18T10:43:47.001Z</time></trkpt><trkpt lat="42.52123208723571" lon="-8.384971574783018"><ele>442.0</ele><time>2026-04-18T10:43:48.001Z</time></trkpt><trkpt lat="42.52133800328309" lon="-8.384956145756682"><ele>442.0</ele><time>2026-04-18T10:43:49.001Z</time></trkpt><trkpt lat="42.52145733603058" lon="-8.384880818553874"><ele>442.0</ele><time>2026-04-18T10:43:50.001Z</time></trkpt><trkpt lat="42.52156454576745" lon="-8.384816186518828"><ele>444.25</ele><time>2026-04-18T10:43:51Z</time></trkpt><trkpt lat="42.5216464198557" lon="-8.384718468612908"><ele>446.5</ele><time>2026-04-18T10:43:52Z</time></trkpt><trkpt lat="42.52172530592307" lon="-8.384596261517297"><ele>448.75</ele><time>2026-04-18T10:43:53Z</time></trkpt><trkpt lat="42.52181472095798" lon="-8.384473744916441"><ele>451.0</ele><time>2026-04-18T10:43:54Z</time></trkpt><trkpt lat="42.521892909466295" lon="-8.384382575823366"><ele>451.0</ele><time>2026-04-18T10:43:55Z</time></trkpt><trkpt lat="42.52198779966466" lon="-8.38428641081724"><ele>451.0</ele><time>2026-04-18T10:43:56Z</time></trkpt><trkpt lat="42.52208044845679" lon="-8.384197421564313"><ele>451.0</ele><time>2026-04-18T10:43:57Z</time></trkpt><trkpt lat="42.52217408186232" lon="-8.384100619173608"><ele>451.0</ele><time>2026-04-18T10:43:58Z</time></trkpt><trkpt lat="42.52226227393407" lon="-8.384005434687317"><ele>450.0</ele><time>2026-04-18T10:43:59Z</time></trkpt><trkpt lat="42.52235696591638" lon="-8.383925097845077"><ele>449.0</ele><time>2026-04-18T10:44:00Z</time></trkpt><trkpt lat="42.52244234079464" lon="-8.38381938309466"><ele>448.0</ele><time>2026-04-18T10:44:01Z</time></trkpt><trkpt lat="42.522538552496925" lon="-8.383712356397737"><ele>447.0</ele><time>2026-04-18T10:44:02Z</time></trkpt><trkpt lat="42.52262847559458" lon="-8.38362910857712"><ele>447.0</ele><time>2026-04-18T10:44:03Z</time></trkpt><trkpt lat="42.52272411462837" lon="-8.383562515176507"><ele>447.00000000000006</ele><time>2026-04-18T10:44:04Z</time></trkpt><trkpt lat="42.52280760201971" lon="-8.383484634198334"><ele>447.00000000000006</ele><time>2026-04-18T10:44:05Z</time></trkpt><trkpt lat="42.522897474145324" lon="-8.383406189482889"><ele>447.0</ele><time>2026-04-18T10:44:06Z</time></trkpt><trkpt lat="42.52298453581856" lon="-8.383365724688451"><ele>447.0</ele><time>2026-04-18T10:44:07Z</time></trkpt><trkpt lat="42.523077543529986" lon="-8.38331719211219"><ele>443.25</ele><time>2026-04-18T10:44:08Z</time></trkpt><trkpt lat="42.523200308106716" lon="-8.383280937990067"><ele>439.5</ele><time>2026-04-18T10:44:09Z</time></trkpt><trkpt lat="42.52332324294106" lon="-8.383257099169233"><ele>435.75</ele><time>2026-04-18T10:44:10Z</time></trkpt><trkpt lat="42.523435983237576" lon="-8.383273459643354"><ele>432.0</ele><time>2026-04-18T10:44:11Z</time></trkpt><trkpt lat="42.52354936553286" lon="-8.383238929673299"><ele>432.0</ele><time>2026-04-18T10:44:12Z</time></trkpt><trkpt lat="42.52364791239883" lon="-8.38323546280709"><ele>432.00000000000006</ele><time>2026-04-18T10:44:13Z</time></trkpt><trkpt lat="42.5237379366781" lon="-8.383226310148718"><ele>432.00000000000006</ele><time>2026-04-18T10:44:13.999Z</time></trkpt><trkpt lat="42.52382351564912" lon="-8.383187883062758"><ele>432.0</ele><time>2026-04-18T10:44:14.999Z</time></trkpt><trkpt lat="42.52391573042002" lon="-8.383121145439272"><ele>432.0</ele><time>2026-04-18T10:44:15.999Z</time></trkpt><trkpt lat="42.52399930140733" lon="-8.383062021628785"><ele>433.0</ele><time>2026-04-18T10:44:16.999Z</time></trkpt><trkpt lat="42.52409721175069" lon="-8.38299096915353"><ele>434.00000000000006</ele><time>2026-04-18T10:44:17.999Z</time></trkpt><trkpt lat="42.52418506824038" lon="-8.382913290488911"><ele>435.00000000000006</ele><time>2026-04-18T10:44:18.999Z</time></trkpt><trkpt lat="42.524277929603684" lon="-8.382829436734198"><ele>436.0</ele><time>2026-04-18T10:44:19.999Z</time></trkpt><trkpt lat="42.52437501223726" lon="-8.382766410898675"><ele>437.0</ele><time>2026-04-18T10:44:20.999Z</time></trkpt><trkpt lat="42.52445065463646" lon="-8.382613186670332"><ele>437.0</ele><time>2026-04-18T10:44:21.999Z</time></trkpt><trkpt lat="42.52455210127129" lon="-8.382515818857584"><ele>437.0</ele><time>2026-04-18T10:44:22.999Z</time></trkpt><trkpt lat="42.52464534553632" lon="-8.382437222518494"><ele>437.0</ele><time>2026-04-18T10:44:23.999Z</time></trkpt><trkpt lat="42.52473925081162" lon="-8.382356288430536"><ele>437.0</ele><time>2026-04-18T10:44:24.999Z</time></trkpt><trkpt lat="42.524853729157726" lon="-8.38228361031241"><ele>436.0</ele><time>2026-04-18T10:44:25.999Z</time></trkpt><trkpt lat="42.524968870258014" lon="-8.38224334575474"><ele>435.00000000000006</ele><time>2026-04-18T10:44:26.999Z</time></trkpt><trkpt lat="42.52505832744779" lon="-8.382171588741135"><ele>434.00000000000006</ele><time>2026-04-18T10:44:27.999Z</time></trkpt><trkpt lat="42.525146829954245" lon="-8.38210906838991"><ele>433.0</ele><time>2026-04-18T10:44:28.999Z</time></trkpt><trkpt lat="42.525235552876524" lon="-8.382048726391925"><ele>432.0</ele><time>2026-04-18T10:44:29.999Z</time></trkpt><trkpt lat="42.52532168415215" lon="-8.381987467533206"><ele>430.0</ele><time>2026-04-18T10:44:30.999Z</time></trkpt><trkpt lat="42.525406373400685" lon="-8.381937763886866"><ele>428.0</ele><time>2026-04-18T10:44:31.999Z</time></trkpt><trkpt lat="42.5255030258478" lon="-8.381896536610133"><ele>426.0</ele><time>2026-04-18T10:44:32.999Z</time></trkpt><trkpt lat="42.525590871309184" lon="-8.381850865111614"><ele>424.0</ele><time>2026-04-18T10:44:33.999Z</time></trkpt><trkpt lat="42.5256630585083" lon="-8.38180822934992"><ele>422.0</ele><time>2026-04-18T10:44:34.999Z</time></trkpt><trkpt lat="42.5257296005893" lon="-8.381753825239352"><ele>420.0</ele><time>2026-04-18T10:44:35.999Z</time></trkpt><trkpt lat="42.52579219842503" lon="-8.381678242690002"><ele>420.0</ele><time>2026-04-18T10:44:36.999Z</time></trkpt><trkpt lat="42.52584816275453" lon="-8.38158134521933"><ele>420.0</ele><time>2026-04-18T10:44:37.999Z</time></trkpt><trkpt lat="42.52588355023381" lon="-8.381454885922238"><ele>420.0</ele><time>2026-04-18T10:44:38.999Z</time></trkpt><trkpt lat="42.525923132738605" lon="-8.381337624094167"><ele>420.0</ele><time>2026-04-18T10:44:39.999Z</time></trkpt><trkpt lat="42.52600105167145" lon="-8.381244044904486"><ele>420.0</ele><time>2026-04-18T10:44:40.999Z</time></trkpt><trkpt lat="42.52609633487652" lon="-8.38119443417611"><ele>420.4</ele><time>2026-04-18T10:44:41.999Z</time></trkpt><trkpt lat="42.52619062111779" lon="-8.381132853146411"><ele>420.8</ele><time>2026-04-18T10:44:42.999Z</time></trkpt><trkpt lat="42.52628288587462" lon="-8.381074547948346"><ele>421.20000000000005</ele><time>2026-04-18T10:44:43.999Z</time></trkpt><trkpt lat="42.526345214887286" lon="-8.381004174669544"><ele>421.6</ele><time>2026-04-18T10:44:44.999Z</time></trkpt><trkpt lat="42.52640837210328" lon="-8.380919778919283"><ele>422.0</ele><time>2026-04-18T10:44:45.999Z</time></trkpt><trkpt lat="42.526470277484215" lon="-8.380819902784763"><ele>422.0</ele><time>2026-04-18T10:44:46.999Z</time></trkpt><trkpt lat="42.52654307111931" lon="-8.380742689584608"><ele>422.0</ele><time>2026-04-18T10:44:47.999Z</time></trkpt><trkpt lat="42.526635325903406" lon="-8.380705460339914"><ele>422.0</ele><time>2026-04-18T10:44:48.999Z</time></trkpt><trkpt lat="42.52673733635888" lon="-8.380672297453025"><ele>422.0</ele><time>2026-04-18T10:44:49.999Z</time></trkpt><trkpt lat="42.52681063110843" lon="-8.380610814020683"><ele>422.0</ele><time>2026-04-18T10:44:50.999Z</time></trkpt><trkpt lat="42.52687670029936" lon="-8.380536940942399"><ele>421.40000000000003</ele><time>2026-04-18T10:44:51.999Z</time></trkpt><trkpt lat="42.5269530750286" lon="-8.380497052732474"><ele>420.8</ele><time>2026-04-18T10:44:52.999Z</time></trkpt><trkpt lat="42.527056065817355" lon="-8.380455489305218"><ele>420.2</ele><time>2026-04-18T10:44:53.999Z</time></trkpt><trkpt lat="42.52715389601688" lon="-8.380411758231837"><ele>419.6</ele><time>2026-04-18T10:44:54.999Z</time></trkpt><trkpt lat="42.52723744160765" lon="-8.38035383285863"><ele>419.0</ele><time>2026-04-18T10:44:55.999Z</time></trkpt><trkpt lat="42.52730454236606" lon="-8.380268656416579"><ele>418.99999999999994</ele><time>2026-04-18T10:44:56.999Z</time></trkpt><trkpt lat="42.5273615978268" lon="-8.380167080086535"><ele>419.0</ele><time>2026-04-18T10:44:57.999Z</time></trkpt><trkpt lat="42.52741335474473" lon="-8.380073475673493"><ele>419.0</ele><time>2026-04-18T10:44:58.999Z</time></trkpt><trkpt lat="42.527469176194614" lon="-8.379981134947888"><ele>419.0</ele><time>2026-04-18T10:44:59.999Z</time></trkpt><trkpt lat="42.527497710885" lon="-8.379884784918403"><ele>418.99999999999994</ele><time>2026-04-18T10:45:00.999Z</time></trkpt><trkpt lat="42.527508765566324" lon="-8.37975986099708"><ele>419.0</ele><time>2026-04-18T10:45:01.999Z</time></trkpt><trkpt lat="42.527524381665586" lon="-8.379643005952682"><ele>419.0</ele><time>2026-04-18T10:45:02.999Z</time></trkpt><trkpt lat="42.527583624982654" lon="-8.37955632791599"><ele>419.0</ele><time>2026-04-18T10:45:04.999Z</time></trkpt><trkpt lat="42.527657231993224" lon="-8.379621921037115"><ele>419.0</ele><time>2026-04-18T10:45:06.999Z</time></trkpt><trkpt lat="42.52771430709359" lon="-8.379716778718091"><ele>419.0</ele><time>2026-04-18T10:45:07.999Z</time></trkpt><trkpt lat="42.527794942615344" lon="-8.37980537543741"><ele>419.0</ele><time>2026-04-18T10:45:08.999Z</time></trkpt><trkpt lat="42.52789143026048" lon="-8.379874653045755"><ele>417.0</ele><time>2026-04-18T10:45:09.999Z</time></trkpt><trkpt lat="42.52798185497577" lon="-8.37995037613739"><ele>415.0</ele><time>2026-04-18T10:45:10.998Z</time></trkpt><trkpt lat="42.52806238334303" lon="-8.380042754193365"><ele>413.0</ele><time>2026-04-18T10:45:11.998Z</time></trkpt><trkpt lat="42.52814629338702" lon="-8.380131770881388"><ele>411.0</ele><time>2026-04-18T10:45:12.998Z</time></trkpt><trkpt lat="42.52823259583038" lon="-8.380221115912729"><ele>409.0</ele><time>2026-04-18T10:45:13.998Z</time></trkpt><trkpt lat="42.52832100287673" lon="-8.380308830787486"><ele>409.0</ele><time>2026-04-18T10:45:14.998Z</time></trkpt><trkpt lat="42.52841001847344" lon="-8.380396787268745"><ele>409.0</ele><time>2026-04-18T10:45:15.998Z</time></trkpt><trkpt lat="42.52848720175254" lon="-8.380501277507964"><ele>409.0</ele><time>2026-04-18T10:45:16.998Z</time></trkpt><trkpt lat="42.52853444455451" lon="-8.380633294402479"><ele>409.0</ele><time>2026-04-18T10:45:17.998Z</time></trkpt><trkpt lat="42.52854695462233" lon="-8.380782390337833"><ele>409.0</ele><time>2026-04-18T10:45:18.998Z</time></trkpt><trkpt lat="42.52853903075636" lon="-8.380930985107618"><ele>406.25</ele><time>2026-04-18T10:45:19.998Z</time></trkpt><trkpt lat="42.528539389726774" lon="-8.3811044048939"><ele>403.5</ele><time>2026-04-18T10:45:20.998Z</time></trkpt><trkpt lat="42.52855984852562" lon="-8.381271347042073"><ele>400.75</ele><time>2026-04-18T10:45:21.998Z</time></trkpt><trkpt lat="42.52857383204544" lon="-8.381430313377876"><ele>398.0</ele><time>2026-04-18T10:45:22.998Z</time></trkpt><trkpt lat="42.528589284313334" lon="-8.381577895809295"><ele>396.4</ele><time>2026-04-18T10:45:23.998Z</time></trkpt><trkpt lat="42.528602573004" lon="-8.38172712752532"><ele>394.79999999999995</ele><time>2026-04-18T10:45:24.998Z</time></trkpt><trkpt lat="42.528619209208806" lon="-8.381876106953975"><ele>393.2</ele><time>2026-04-18T10:45:25.998Z</time></trkpt><trkpt lat="42.528638582358795" lon="-8.382028368833451"><ele>391.6</ele><time>2026-04-18T10:45:26.998Z</time></trkpt><trkpt lat="42.528647847471625" lon="-8.382174584875425"><ele>390.0</ele><time>2026-04-18T10:45:27.998Z</time></trkpt><trkpt lat="42.52863973430027" lon="-8.382319892436207"><ele>389.0</ele><time>2026-04-18T10:45:28.998Z</time></trkpt><trkpt lat="42.5286235121808" lon="-8.382457380994431"><ele>388.0</ele><time>2026-04-18T10:45:29.998Z</time></trkpt><trkpt lat="42.528596655904124" lon="-8.382595177246591"><ele>387.0</ele><time>2026-04-18T10:45:30.998Z</time></trkpt><trkpt lat="42.528601452894556" lon="-8.382708281292315"><ele>386.0</ele><time>2026-04-18T10:45:31.998Z</time></trkpt><trkpt lat="42.5286654517756" lon="-8.38280451205336"><ele>385.0</ele><time>2026-04-18T10:45:32.998Z</time></trkpt><trkpt lat="42.52876300996596" lon="-8.382862788742806"><ele>383.4</ele><time>2026-04-18T10:45:33.998Z</time></trkpt><trkpt lat="42.528875938525005" lon="-8.382901082647455"><ele>381.8</ele><time>2026-04-18T10:45:34.998Z</time></trkpt><trkpt lat="42.52898202997979" lon="-8.382929483785329"><ele>380.20000000000005</ele><time>2026-04-18T10:45:35.998Z</time></trkpt><trkpt lat="42.529086696737195" lon="-8.382962736935186"><ele>378.6</ele><time>2026-04-18T10:45:36.998Z</time></trkpt><trkpt lat="42.52919383659103" lon="-8.383012201288304"><ele>377.0</ele><time>2026-04-18T10:45:37.998Z</time></trkpt><trkpt lat="42.529293896024576" lon="-8.383071975008791"><ele>373.75</ele><time>2026-04-18T10:45:38.998Z</time></trkpt><trkpt lat="42.529384691708714" lon="-8.383139694480915"><ele>370.5</ele><time>2026-04-18T10:45:39.998Z</time></trkpt><trkpt lat="42.52947506054046" lon="-8.383215264079366"><ele>367.25</ele><time>2026-04-18T10:45:40.998Z</time></trkpt><trkpt lat="42.52957754775903" lon="-8.38328904579338"><ele>364.0</ele><time>2026-04-18T10:45:42Z</time></trkpt><trkpt lat="42.52969480439036" lon="-8.383353128115788"><ele>363.0</ele><time>2026-04-18T10:45:43Z</time></trkpt><trkpt lat="42.529810263165125" lon="-8.383405971070678"><ele>362.0</ele><time>2026-04-18T10:45:44Z</time></trkpt><trkpt lat="42.52991993540475" lon="-8.383458882376912"><ele>361.0</ele><time>2026-04-18T10:45:45Z</time></trkpt><trkpt lat="42.5300290230148" lon="-8.383517740078249"><ele>360.0</ele><time>2026-04-18T10:45:46Z</time></trkpt><trkpt lat="42.53013594390783" lon="-8.383578993845749"><ele>360.0</ele><time>2026-04-18T10:45:47Z</time></trkpt><trkpt lat="42.53024287699185" lon="-8.38363700321694"><ele>360.0</ele><time>2026-04-18T10:45:48Z</time></trkpt><trkpt lat="42.530349303927274" lon="-8.383690108563913"><ele>360.0</ele><time>2026-04-18T10:45:49Z</time></trkpt><trkpt lat="42.53045624575433" lon="-8.383740973479986"><ele>360.0</ele><time>2026-04-18T10:45:50Z</time></trkpt><trkpt lat="42.530563987247945" lon="-8.383793134397404"><ele>359.75</ele><time>2026-04-18T10:45:51Z</time></trkpt><trkpt lat="42.53066885656745" lon="-8.383845908286286"><ele>359.5</ele><time>2026-04-18T10:45:52Z</time></trkpt><trkpt lat="42.53077473758678" lon="-8.383895624713563"><ele>359.25</ele><time>2026-04-18T10:45:53Z</time></trkpt><trkpt lat="42.53088125124328" lon="-8.38394990636568"><ele>359.0</ele><time>2026-04-18T10:45:54Z</time></trkpt><trkpt lat="42.530981594961794" lon="-8.384017678431366"><ele>357.6</ele><time>2026-04-18T10:45:55Z</time></trkpt><trkpt lat="42.531053693849564" lon="-8.384087664845408"><ele>356.2</ele><time>2026-04-18T10:45:56Z</time></trkpt><trkpt lat="42.53113477963161" lon="-8.384136003000888"><ele>354.8</ele><time>2026-04-18T10:45:57Z</time></trkpt><trkpt lat="42.53122406457083" lon="-8.384134018259795"><ele>353.40000000000003</ele><time>2026-04-18T10:45:58Z</time></trkpt><trkpt lat="42.53130315520873" lon="-8.384070330558776"><ele>352.0</ele><time>2026-04-18T10:45:59Z</time></trkpt><trkpt lat="42.53138681192218" lon="-8.383942286729086"><ele>351.20000000000005</ele><time>2026-04-18T10:46:00Z</time></trkpt><trkpt lat="42.531450700944916" lon="-8.383834346478453"><ele>350.4</ele><time>2026-04-18T10:46:01Z</time></trkpt><trkpt lat="42.531524278291585" lon="-8.383792498324665"><ele>349.6</ele><time>2026-04-18T10:46:02Z</time></trkpt><trkpt lat="42.53163126462496" lon="-8.383817637795595"><ele>348.79999999999995</ele><time>2026-04-18T10:46:02.999Z</time></trkpt><trkpt lat="42.53172776918689" lon="-8.383888947062976"><ele>348.0</ele><time>2026-04-18T10:46:03.999Z</time></trkpt><trkpt lat="42.53184936963935" lon="-8.38395334661708"><ele>347.59999999999997</ele><time>2026-04-18T10:46:04.999Z</time></trkpt><trkpt lat="42.53195137231314" lon="-8.384039535626357"><ele>347.2</ele><time>2026-04-18T10:46:05.999Z</time></trkpt><trkpt lat="42.53203706424816" lon="-8.384141956413337"><ele>346.8</ele><time>2026-04-18T10:46:06.999Z</time></trkpt><trkpt lat="42.53210474375282" lon="-8.384244955566379"><ele>346.4</ele><time>2026-04-18T10:46:07.999Z</time></trkpt><trkpt lat="42.53220796822986" lon="-8.38427741839098"><ele>346.0</ele><time>2026-04-18T10:46:08.999Z</time></trkpt><trkpt lat="42.532329939453035" lon="-8.384302359997765"><ele>346.0</ele><time>2026-04-18T10:46:09.999Z</time></trkpt><trkpt lat="42.53244644727345" lon="-8.384340462752377"><ele>346.0</ele><time>2026-04-18T10:46:10.999Z</time></trkpt><trkpt lat="42.53254942404659" lon="-8.384383657139121"><ele>346.0</ele><time>2026-04-18T10:46:11.999Z</time></trkpt><trkpt lat="42.53263861670999" lon="-8.384428990063348"><ele>346.0</ele><time>2026-04-18T10:46:12.999Z</time></trkpt><trkpt lat="42.532712767068965" lon="-8.384498086108401"><ele>346.0</ele><time>2026-04-18T10:46:13.999Z</time></trkpt><trkpt lat="42.53275556575508" lon="-8.384619673538994"><ele>347.0</ele><time>2026-04-18T10:46:14.999Z</time></trkpt><trkpt lat="42.532737385173384" lon="-8.384785356501922"><ele>348.0</ele><time>2026-04-18T10:46:15.999Z</time></trkpt><trkpt lat="42.53269900762131" lon="-8.384932449626698"><ele>349.0</ele><time>2026-04-18T10:46:16.999Z</time></trkpt><trkpt lat="42.53267363926679" lon="-8.385088907329763"><ele>350.0</ele><time>2026-04-18T10:46:17.999Z</time></trkpt><trkpt lat="42.532660122936065" lon="-8.38525357015743"><ele>350.0</ele><time>2026-04-18T10:46:18.999Z</time></trkpt><trkpt lat="42.53264902048921" lon="-8.385418009723733"><ele>350.0</ele><time>2026-04-18T10:46:19.999Z</time></trkpt><trkpt lat="42.532615876087654" lon="-8.385559069047657"><ele>350.0</ele><time>2026-04-18T10:46:20.999Z</time></trkpt><trkpt lat="42.53258703630796" lon="-8.38570410952092"><ele>350.0</ele><time>2026-04-18T10:46:21.999Z</time></trkpt><trkpt lat="42.532547850213135" lon="-8.385842681103528"><ele>350.2</ele><time>2026-04-18T10:46:22.999Z</time></trkpt><trkpt lat="42.532492761516956" lon="-8.385967410456189"><ele>350.4</ele><time>2026-04-18T10:46:23.999Z</time></trkpt><trkpt lat="42.53243362447648" lon="-8.38609803000704"><ele>350.6</ele><time>2026-04-18T10:46:24.999Z</time></trkpt><trkpt lat="42.53236450587793" lon="-8.386214154130064"><ele>350.8</ele><time>2026-04-18T10:46:25.999Z</time></trkpt><trkpt lat="42.53231897109534" lon="-8.386350313465888"><ele>351.0</ele><time>2026-04-18T10:46:26.999Z</time></trkpt><trkpt lat="42.53230252453557" lon="-8.386501134226842"><ele>352.5</ele><time>2026-04-18T10:46:27.999Z</time></trkpt><trkpt lat="42.53229588919787" lon="-8.386651710783807"><ele>354.0</ele><time>2026-04-18T10:46:28.999Z</time></trkpt><trkpt lat="42.53229702090946" lon="-8.386805408505221"><ele>355.5</ele><time>2026-04-18T10:46:29.999Z</time></trkpt><trkpt lat="42.53231400021547" lon="-8.386959339651803"><ele>357.0</ele><time>2026-04-18T10:46:30.999Z</time></trkpt><trkpt lat="42.532335380800355" lon="-8.387117948892394"><ele>358.25</ele><time>2026-04-18T10:46:31.999Z</time></trkpt><trkpt lat="42.53236588176008" lon="-8.387272845715756"><ele>359.5</ele><time>2026-04-18T10:46:32.999Z</time></trkpt><trkpt lat="42.532400943423596" lon="-8.387422818236194"><ele>360.75</ele><time>2026-04-18T10:46:33.999Z</time></trkpt><trkpt lat="42.53242470614061" lon="-8.387578760009657"><ele>362.0</ele><time>2026-04-18T10:46:34.999Z</time></trkpt><trkpt lat="42.532431509088916" lon="-8.38773747858414"><ele>362.0</ele><time>2026-04-18T10:46:35.999Z</time></trkpt><trkpt lat="42.53242604650162" lon="-8.387895281349321"><ele>362.0</ele><time>2026-04-18T10:46:36.999Z</time></trkpt><trkpt lat="42.532405869519415" lon="-8.388049973566588"><ele>362.0</ele><time>2026-04-18T10:46:37.999Z</time></trkpt><trkpt lat="42.53237383979718" lon="-8.388202788491979"><ele>362.0</ele><time>2026-04-18T10:46:38.999Z</time></trkpt><trkpt lat="42.53233766136744" lon="-8.388348466826558"><ele>363.0</ele><time>2026-04-18T10:46:39.999Z</time></trkpt><trkpt lat="42.53230647292386" lon="-8.388495815637109"><ele>364.0</ele><time>2026-04-18T10:46:40.999Z</time></trkpt><trkpt lat="42.532280207747526" lon="-8.388642680405686"><ele>365.0</ele><time>2026-04-18T10:46:41.999Z</time></trkpt><trkpt lat="42.532253858328204" lon="-8.38879052334"><ele>366.0</ele><time>2026-04-18T10:46:42.999Z</time></trkpt><trkpt lat="42.53222624870801" lon="-8.388936760606825"><ele>367.0</ele><time>2026-04-18T10:46:43.999Z</time></trkpt><trkpt lat="42.53219733738987" lon="-8.38906736255313"><ele>367.3333333333333</ele><time>2026-04-18T10:46:44.999Z</time></trkpt><trkpt lat="42.53217954200063" lon="-8.389185164257519"><ele>367.66666666666663</ele><time>2026-04-18T10:46:45.999Z</time></trkpt><trkpt lat="42.53218311004799" lon="-8.389295485898034"><ele>368.0</ele><time>2026-04-18T10:46:46.999Z</time></trkpt><trkpt lat="42.53221039678757" lon="-8.389376613339541"><ele>368.3333333333333</ele><time>2026-04-18T10:46:47.999Z</time></trkpt><trkpt lat="42.53226347327171" lon="-8.389498848204628"><ele>368.6666666666667</ele><time>2026-04-18T10:46:49.999Z</time></trkpt><trkpt lat="42.532243776666604" lon="-8.38959430286188"><ele>369.0</ele><time>2026-04-18T10:46:50.999Z</time></trkpt><trkpt lat="42.53220172556011" lon="-8.389703164915206"><ele>369.6</ele><time>2026-04-18T10:46:51.999Z</time></trkpt><trkpt lat="42.53215410734507" lon="-8.389826757940595"><ele>370.2</ele><time>2026-04-18T10:46:52.999Z</time></trkpt><trkpt lat="42.53209804022512" lon="-8.389952220491407"><ele>370.8</ele><time>2026-04-18T10:46:53.999Z</time></trkpt><trkpt lat="42.532049745463006" lon="-8.390095715395155"><ele>371.40000000000003</ele><time>2026-04-18T10:46:54.999Z</time></trkpt><trkpt lat="42.53199996284291" lon="-8.390236092859148"><ele>372.0</ele><time>2026-04-18T10:46:55.999Z</time></trkpt><trkpt lat="42.53195758020392" lon="-8.390372781854133"><ele>369.8</ele><time>2026-04-18T10:46:56.999Z</time></trkpt><trkpt lat="42.531930230205134" lon="-8.390513921375643"><ele>367.6</ele><time>2026-04-18T10:46:57.999Z</time></trkpt><trkpt lat="42.53192383541723" lon="-8.39065218248803"><ele>365.40000000000003</ele><time>2026-04-18T10:46:58.999Z</time></trkpt><trkpt lat="42.53191956934316" lon="-8.390791965127738"><ele>363.20000000000005</ele><time>2026-04-18T10:46:59.999Z</time></trkpt><trkpt lat="42.531925922510155" lon="-8.390953523602473"><ele>361.0</ele><time>2026-04-18T10:47:00.999Z</time></trkpt><trkpt lat="42.53194293316449" lon="-8.391115731381499"><ele>361.0</ele><time>2026-04-18T10:47:01.999Z</time></trkpt><trkpt lat="42.531962282683075" lon="-8.39127122550766"><ele>361.0</ele><time>2026-04-18T10:47:02.999Z</time></trkpt><trkpt lat="42.53198368892555" lon="-8.39142174837645"><ele>361.0</ele><time>2026-04-18T10:47:03.999Z</time></trkpt><trkpt lat="42.53200713594903" lon="-8.391569894080678"><ele>361.0</ele><time>2026-04-18T10:47:04.999Z</time></trkpt><trkpt lat="42.53202726738033" lon="-8.391719134270591"><ele>360.6</ele><time>2026-04-18T10:47:05.999Z</time></trkpt><trkpt lat="42.532028479414016" lon="-8.391875607575424"><ele>360.20000000000005</ele><time>2026-04-18T10:47:06.999Z</time></trkpt><trkpt lat="42.53204223264954" lon="-8.392026465059665"><ele>359.79999999999995</ele><time>2026-04-18T10:47:07.999Z</time></trkpt><trkpt lat="42.53205181289919" lon="-8.39217446118408"><ele>359.4</ele><time>2026-04-18T10:47:08.999Z</time></trkpt><trkpt lat="42.532060958164124" lon="-8.392321461225844"><ele>359.0</ele><time>2026-04-18T10:47:09.999Z</time></trkpt><trkpt lat="42.532066102926606" lon="-8.392465398100343"><ele>359.0</ele><time>2026-04-18T10:47:10.999Z</time></trkpt><trkpt lat="42.532064988575144" lon="-8.39262397750644"><ele>359.0</ele><time>2026-04-18T10:47:11.999Z</time></trkpt><trkpt lat="42.5320542394105" lon="-8.392792467970668"><ele>359.0</ele><time>2026-04-18T10:47:12.999Z</time></trkpt><trkpt lat="42.53204667515045" lon="-8.392956349052229"><ele>359.0</ele><time>2026-04-18T10:47:13.999Z</time></trkpt><trkpt lat="42.532043665125556" lon="-8.393123008119145"><ele>355.25</ele><time>2026-04-18T10:47:14.999Z</time></trkpt><trkpt lat="42.532038738959805" lon="-8.393300268188687"><ele>351.5</ele><time>2026-04-18T10:47:15.999Z</time></trkpt><trkpt lat="42.53203903493977" lon="-8.393471450566068"><ele>347.75</ele><time>2026-04-18T10:47:16.999Z</time></trkpt><trkpt lat="42.53204120110253" lon="-8.39363438303602"><ele>344.0</ele><time>2026-04-18T10:47:17.999Z</time></trkpt><trkpt lat="42.53205073548931" lon="-8.393798011256884"><ele>343.4</ele><time>2026-04-18T10:47:18.999Z</time></trkpt><trkpt lat="42.53205317204459" lon="-8.393948167026535"><ele>342.79999999999995</ele><time>2026-04-18T10:47:19.999Z</time></trkpt><trkpt lat="42.5320630957582" lon="-8.39410623718784"><ele>342.20000000000005</ele><time>2026-04-18T10:47:20.999Z</time></trkpt><trkpt lat="42.532074382764655" lon="-8.39425191289605"><ele>341.6</ele><time>2026-04-18T10:47:21.999Z</time></trkpt><trkpt lat="42.53209126960441" lon="-8.394388448748442"><ele>341.0</ele><time>2026-04-18T10:47:22.999Z</time></trkpt><trkpt lat="42.53212766428772" lon="-8.394525197928514"><ele>341.0</ele><time>2026-04-18T10:47:23.999Z</time></trkpt><trkpt lat="42.532176234292905" lon="-8.394648472208484"><ele>341.0</ele><time>2026-04-18T10:47:24.999Z</time></trkpt><trkpt lat="42.53224630186489" lon="-8.394753219888752"><ele>341.0</ele><time>2026-04-18T10:47:25.999Z</time></trkpt><trkpt lat="42.532335372380075" lon="-8.394799935930122"><ele>341.0</ele><time>2026-04-18T10:47:26.998Z</time></trkpt><trkpt lat="42.53244177829848" lon="-8.394790284928483"><ele>341.0</ele><time>2026-04-18T10:47:27.998Z</time></trkpt><trkpt lat="42.532555745558234" lon="-8.394754895365214"><ele>341.0</ele><time>2026-04-18T10:47:28.998Z</time></trkpt><trkpt lat="42.53267925515501" lon="-8.394727371575026"><ele>341.0</ele><time>2026-04-18T10:47:29.998Z</time></trkpt><trkpt lat="42.53279775797201" lon="-8.394742319579612"><ele>341.0</ele><time>2026-04-18T10:47:30.998Z</time></trkpt><trkpt lat="42.5329093782834" lon="-8.39477128131481"><ele>341.0</ele><time>2026-04-18T10:47:31.998Z</time></trkpt><trkpt lat="42.53302041438624" lon="-8.39479248500064"><ele>340.5</ele><time>2026-04-18T10:47:32.998Z</time></trkpt><trkpt lat="42.53313270615642" lon="-8.394813911534387"><ele>340.0</ele><time>2026-04-18T10:47:33.998Z</time></trkpt><trkpt lat="42.533247909887116" lon="-8.394838386750827"><ele>339.5</ele><time>2026-04-18T10:47:34.998Z</time></trkpt><trkpt lat="42.53336346469077" lon="-8.394862210140312"><ele>339.0</ele><time>2026-04-18T10:47:35.998Z</time></trkpt><trkpt lat="42.5334771803771" lon="-8.39488531262734"><ele>339.0</ele><time>2026-04-18T10:47:36.998Z</time></trkpt><trkpt lat="42.53359583103448" lon="-8.394901161401455"><ele>339.0</ele><time>2026-04-18T10:47:37.998Z</time></trkpt><trkpt lat="42.533713694665224" lon="-8.394913745054692"><ele>339.0</ele><time>2026-04-18T10:47:38.998Z</time></trkpt><trkpt lat="42.53383315413333" lon="-8.394926976715123"><ele>339.0</ele><time>2026-04-18T10:47:39.998Z</time></trkpt><trkpt lat="42.533952131964355" lon="-8.39493668146399"><ele>339.2</ele><time>2026-04-18T10:47:40.998Z</time></trkpt><trkpt lat="42.53407055978109" lon="-8.394944094436738"><ele>339.4</ele><time>2026-04-18T10:47:41.998Z</time></trkpt><trkpt lat="42.53418394400781" lon="-8.394958145469428"><ele>339.6</ele><time>2026-04-18T10:47:42.998Z</time></trkpt><trkpt lat="42.53428436704669" lon="-8.394992575648953"><ele>339.8</ele><time>2026-04-18T10:47:43.998Z</time></trkpt><trkpt lat="42.534369668158114" lon="-8.395065989263694"><ele>340.0</ele><time>2026-04-18T10:47:44.998Z</time></trkpt><trkpt lat="42.534437346335274" lon="-8.395170540824466"><ele>340.0</ele><time>2026-04-18T10:47:45.998Z</time></trkpt><trkpt lat="42.534476258064124" lon="-8.395316008199257"><ele>340.0</ele><time>2026-04-18T10:47:46.998Z</time></trkpt><trkpt lat="42.53449721763031" lon="-8.3954763082771"><ele>340.0</ele><time>2026-04-18T10:47:48Z</time></trkpt><trkpt lat="42.53454484382342" lon="-8.395582646748323"><ele>340.0</ele><time>2026-04-18T10:47:49Z</time></trkpt><trkpt lat="42.53462637174795" lon="-8.395608153830294"><ele>340.0</ele><time>2026-04-18T10:47:50Z</time></trkpt><trkpt lat="42.53471772455228" lon="-8.395603497595106"><ele>339.75</ele><time>2026-04-18T10:47:51Z</time></trkpt><trkpt lat="42.53482877488314" lon="-8.395577137847463"><ele>339.5</ele><time>2026-04-18T10:47:52Z</time></trkpt><trkpt lat="42.534951324385496" lon="-8.395518337776164"><ele>339.25</ele><time>2026-04-18T10:47:53Z</time></trkpt><trkpt lat="42.53505925081531" lon="-8.395464904744681"><ele>339.0</ele><time>2026-04-18T10:47:54Z</time></trkpt><trkpt lat="42.535179327210706" lon="-8.39542916550743"><ele>339.0</ele><time>2026-04-18T10:47:55Z</time></trkpt><trkpt lat="42.53530557357499" lon="-8.395389476914364"><ele>339.0</ele><time>2026-04-18T10:47:56Z</time></trkpt><trkpt lat="42.53541404442604" lon="-8.395388240718592"><ele>339.0</ele><time>2026-04-18T10:47:57Z</time></trkpt><trkpt lat="42.53554356775933" lon="-8.395390776721499"><ele>339.0</ele><time>2026-04-18T10:47:58Z</time></trkpt><trkpt lat="42.53566915577658" lon="-8.39540403736073"><ele>339.75</ele><time>2026-04-18T10:47:59Z</time></trkpt><trkpt lat="42.53578730879355" lon="-8.39540603837001"><ele>340.5</ele><time>2026-04-18T10:48:00Z</time></trkpt><trkpt lat="42.535904501342166" lon="-8.39540387239879"><ele>341.25</ele><time>2026-04-18T10:48:01Z</time></trkpt><trkpt lat="42.53602400959954" lon="-8.395406755713664"><ele>342.0</ele><time>2026-04-18T10:48:02Z</time></trkpt><trkpt lat="42.536142246325035" lon="-8.395393394199099"><ele>343.5</ele><time>2026-04-18T10:48:03Z</time></trkpt><trkpt lat="42.53627011024873" lon="-8.395405542994208"><ele>345.0</ele><time>2026-04-18T10:48:04Z</time></trkpt><trkpt lat="42.536394402767215" lon="-8.395405729548349"><ele>346.5</ele><time>2026-04-18T10:48:05Z</time></trkpt><trkpt lat="42.536513310635975" lon="-8.395405093569455"><ele>348.0</ele><time>2026-04-18T10:48:06Z</time></trkpt><trkpt lat="42.53662886029335" lon="-8.395405347100196"><ele>348.0</ele><time>2026-04-18T10:48:07Z</time></trkpt><trkpt lat="42.536749821623985" lon="-8.395410808214995"><ele>348.0</ele><time>2026-04-18T10:48:08Z</time></trkpt><trkpt lat="42.536871531794375" lon="-8.395422091160931"><ele>348.0</ele><time>2026-04-18T10:48:09Z</time></trkpt><trkpt lat="42.5369832541475" lon="-8.39545335636401"><ele>348.0</ele><time>2026-04-18T10:48:10Z</time></trkpt><trkpt lat="42.53710612151347" lon="-8.395473692302227"><ele>354.75</ele><time>2026-04-18T10:48:11Z</time></trkpt><trkpt lat="42.53722125637065" lon="-8.395513230503207"><ele>361.5</ele><time>2026-04-18T10:48:12Z</time></trkpt><trkpt lat="42.53732954747066" lon="-8.395550856228072"><ele>368.25</ele><time>2026-04-18T10:48:13Z</time></trkpt><trkpt lat="42.53744514324361" lon="-8.39560448723835"><ele>375.0</ele><time>2026-04-18T10:48:14Z</time></trkpt><trkpt lat="42.53756226639046" lon="-8.39563816885734"><ele>375.0</ele><time>2026-04-18T10:48:15Z</time></trkpt><trkpt lat="42.537679056418476" lon="-8.395651710371823"><ele>375.0</ele><time>2026-04-18T10:48:16Z</time></trkpt><trkpt lat="42.53779104275314" lon="-8.39561615188998"><ele>375.0</ele><time>2026-04-18T10:48:16.999Z</time></trkpt><trkpt lat="42.537899177624695" lon="-8.39553207488837"><ele>375.0</ele><time>2026-04-18T10:48:17.999Z</time></trkpt><trkpt lat="42.53799417339539" lon="-8.395434463321829"><ele>374.5</ele><time>2026-04-18T10:48:18.999Z</time></trkpt><trkpt lat="42.53806550765836" lon="-8.395315699577552"><ele>374.0</ele><time>2026-04-18T10:48:19.999Z</time></trkpt><trkpt lat="42.53813779789842" lon="-8.39519847450417"><ele>373.5</ele><time>2026-04-18T10:48:20.999Z</time></trkpt><trkpt lat="42.53821936040051" lon="-8.395096375504481"><ele>373.0</ele><time>2026-04-18T10:48:21.999Z</time></trkpt><trkpt lat="42.53831884994658" lon="-8.395017075101652"><ele>373.0</ele><time>2026-04-18T10:48:22.999Z</time></trkpt><trkpt lat="42.538431252215055" lon="-8.394961794694638"><ele>373.0</ele><time>2026-04-18T10:48:23.999Z</time></trkpt><trkpt lat="42.53855233104111" lon="-8.39493526432308"><ele>373.0</ele><time>2026-04-18T10:48:24.999Z</time></trkpt><trkpt lat="42.538672462629286" lon="-8.394928345026386"><ele>373.0</ele><time>2026-04-18T10:48:25.999Z</time></trkpt><trkpt lat="42.5387981060347" lon="-8.39493773851771"><ele>376.0</ele><time>2026-04-18T10:48:26.999Z</time></trkpt><trkpt lat="42.53892111490513" lon="-8.394954367202725"><ele>379.0</ele><time>2026-04-18T10:48:27.999Z</time></trkpt><trkpt lat="42.53905103068344" lon="-8.394956916576973"><ele>382.0</ele><time>2026-04-18T10:48:28.999Z</time></trkpt><trkpt lat="42.539178368111486" lon="-8.394950399691"><ele>385.0</ele><time>2026-04-18T10:48:29.999Z</time></trkpt><trkpt lat="42.53930339139782" lon="-8.394925303837105"><ele>385.0</ele><time>2026-04-18T10:48:30.999Z</time></trkpt><trkpt lat="42.539418040069364" lon="-8.39489896877174"><ele>385.0</ele><time>2026-04-18T10:48:31.999Z</time></trkpt><trkpt lat="42.539507634030045" lon="-8.394870877585387"><ele>385.0</ele><time>2026-04-18T10:48:32.999Z</time></trkpt><trkpt lat="42.539601174288244" lon="-8.394826179460669"><ele>385.0</ele><time>2026-04-18T10:48:33.999Z</time></trkpt><trkpt lat="42.53969524601276" lon="-8.394773249391314"><ele>385.0</ele><time>2026-04-18T10:48:34.999Z</time></trkpt><trkpt lat="42.53979574975258" lon="-8.394729678949954"><ele>382.6</ele><time>2026-04-18T10:48:35.999Z</time></trkpt><trkpt lat="42.53989215911218" lon="-8.394704495179171"><ele>380.2</ele><time>2026-04-18T10:48:36.999Z</time></trkpt><trkpt lat="42.53998331699581" lon="-8.394659797656349"><ele>377.79999999999995</ele><time>2026-04-18T10:48:37.999Z</time></trkpt><trkpt lat="42.54008869504715" lon="-8.394604029511592"><ele>375.4</ele><time>2026-04-18T10:48:38.999Z</time></trkpt><trkpt lat="42.54019497887166" lon="-8.394539343018572"><ele>373.0</ele><time>2026-04-18T10:48:39.999Z</time></trkpt><trkpt lat="42.54030241796096" lon="-8.394503481432887"><ele>374.0</ele><time>2026-04-18T10:48:40.999Z</time></trkpt><trkpt lat="42.54041448466272" lon="-8.394471173718289"><ele>375.0</ele><time>2026-04-18T10:48:41.999Z</time></trkpt><trkpt lat="42.54052190110294" lon="-8.39446936389313"><ele>376.0</ele><time>2026-04-18T10:48:42.999Z</time></trkpt><trkpt lat="42.54062897656312" lon="-8.394493035615366"><ele>377.0</ele><time>2026-04-18T10:48:43.999Z</time></trkpt><trkpt lat="42.540732228634525" lon="-8.394525979415597"><ele>378.0</ele><time>2026-04-18T10:48:44.999Z</time></trkpt><trkpt lat="42.54082904183892" lon="-8.394579458435935"><ele>378.0</ele><time>2026-04-18T10:48:45.999Z</time></trkpt><trkpt lat="42.54092647891778" lon="-8.3946480400434"><ele>378.0</ele><time>2026-04-18T10:48:46.999Z</time></trkpt><trkpt lat="42.54102369730548" lon="-8.394716667772004"><ele>378.0</ele><time>2026-04-18T10:48:47.999Z</time></trkpt><trkpt lat="42.54112371165026" lon="-8.394786448193706"><ele>378.0</ele><time>2026-04-18T10:48:48.999Z</time></trkpt><trkpt lat="42.54122322063313" lon="-8.394859809969887"><ele>378.0</ele><time>2026-04-18T10:48:49.999Z</time></trkpt><trkpt lat="42.541322921684205" lon="-8.394930220341758"><ele>382.25</ele><time>2026-04-18T10:48:50.999Z</time></trkpt><trkpt lat="42.54142434730969" lon="-8.39500467558932"><ele>386.5</ele><time>2026-04-18T10:48:51.999Z</time></trkpt><trkpt lat="42.54152303255639" lon="-8.395077023413542"><ele>390.75</ele><time>2026-04-18T10:48:52.999Z</time></trkpt><trkpt lat="42.54162213996682" lon="-8.395143288888836"><ele>395.0</ele><time>2026-04-18T10:48:53.999Z</time></trkpt><trkpt lat="42.54172270691183" lon="-8.395213930290677"><ele>395.0</ele><time>2026-04-18T10:48:54.999Z</time></trkpt><trkpt lat="42.54182172532337" lon="-8.395288274482521"><ele>395.0</ele><time>2026-04-18T10:48:55.999Z</time></trkpt><trkpt lat="42.5419225817452" lon="-8.395347918077873"><ele>395.0</ele><time>2026-04-18T10:48:56.999Z</time></trkpt><trkpt lat="42.542022064229805" lon="-8.395375354092307"><ele>395.0</ele><time>2026-04-18T10:48:57.999Z</time></trkpt><trkpt lat="42.542112782792834" lon="-8.395380045179868"><ele>395.0</ele><time>2026-04-18T10:48:58.999Z</time></trkpt><trkpt lat="42.54218614309182" lon="-8.395345279112663"><ele>396.49999999999994</ele><time>2026-04-18T10:48:59.999Z</time></trkpt><trkpt lat="42.542250706190295" lon="-8.395313044882675"><ele>398.0</ele><time>2026-04-18T10:49:00.999Z</time></trkpt><trkpt lat="42.54231430981478" lon="-8.395287503754895"><ele>399.5</ele><time>2026-04-18T10:49:01.999Z</time></trkpt><trkpt lat="42.54237684293805" lon="-8.395266047404176"><ele>401.0</ele><time>2026-04-18T10:49:02.999Z</time></trkpt><trkpt lat="42.54247732050455" lon="-8.395217716928627"><ele>402.49999999999994</ele><time>2026-04-18T10:49:04.999Z</time></trkpt><trkpt lat="42.54256312591816" lon="-8.395131465757743"><ele>404.0</ele><time>2026-04-18T10:49:06.999Z</time></trkpt><trkpt lat="42.542624536929246" lon="-8.395028936013945"><ele>403.99999999999994</ele><time>2026-04-18T10:49:08.999Z</time></trkpt><trkpt lat="42.542623636336536" lon="-8.3948642647966"><ele>404.0</ele><time>2026-04-18T10:49:10.999Z</time></trkpt><trkpt lat="42.54261289635202" lon="-8.39477652226303"><ele>404.0</ele><time>2026-04-18T10:49:11.999Z</time></trkpt><trkpt lat="42.542591570023816" lon="-8.394692589575099"><ele>404.0</ele><time>2026-04-18T10:49:12.999Z</time></trkpt><trkpt lat="42.542558272968584" lon="-8.394606259825375"><ele>403.99999999999994</ele><time>2026-04-18T10:49:13.999Z</time></trkpt><trkpt lat="42.54250869295083" lon="-8.394530977794556"><ele>404.0</ele><time>2026-04-18T10:49:14.999Z</time></trkpt><trkpt lat="42.54245910537061" lon="-8.394466201976536"><ele>403.2857142857143</ele><time>2026-04-18T10:49:15.999Z</time></trkpt><trkpt lat="42.54241688726934" lon="-8.394378599359692"><ele>402.57142857142856</ele><time>2026-04-18T10:49:16.999Z</time></trkpt><trkpt lat="42.54237968464159" lon="-8.394286880785112"><ele>401.8571428571429</ele><time>2026-04-18T10:49:17.999Z</time></trkpt><trkpt lat="42.54234696136296" lon="-8.394204705686722"><ele>401.1428571428571</ele><time>2026-04-18T10:49:18.999Z</time></trkpt><trkpt lat="42.54231925115645" lon="-8.394123345052"><ele>400.42857142857144</ele><time>2026-04-18T10:49:19.999Z</time></trkpt><trkpt lat="42.54230000709744" lon="-8.394032170487463"><ele>399.7142857142857</ele><time>2026-04-18T10:49:20.999Z</time></trkpt><trkpt lat="42.542288562520255" lon="-8.393931299236225"><ele>399.0</ele><time>2026-04-18T10:49:21.999Z</time></trkpt><trkpt lat="42.54226278737624" lon="-8.3937878423782"><ele>398.1666666666667</ele><time>2026-04-18T10:49:23.999Z</time></trkpt><trkpt lat="42.54226854548965" lon="-8.39365683907991"><ele>397.33333333333337</ele><time>2026-04-18T10:49:25.999Z</time></trkpt><trkpt lat="42.542293559913496" lon="-8.393535841495328"><ele>396.5</ele><time>2026-04-18T10:49:27.999Z</time></trkpt><trkpt lat="42.54232435760354" lon="-8.393419245808648"><ele>395.6666666666667</ele><time>2026-04-18T10:49:29.999Z</time></trkpt><trkpt lat="42.54238106070975" lon="-8.39334063754694"><ele>394.83333333333337</ele><time>2026-04-18T10:49:31.999Z</time></trkpt><trkpt lat="42.54244641558646" lon="-8.393261617132334"><ele>394.0</ele><time>2026-04-18T10:49:33.999Z</time></trkpt><trkpt lat="42.54252834878791" lon="-8.39313741894858"><ele>394.0</ele><time>2026-04-18T10:49:35.999Z</time></trkpt><trkpt lat="42.54262330297961" lon="-8.393039446179719"><ele>394.0</ele><time>2026-04-18T10:49:37.999Z</time></trkpt><trkpt lat="42.542687997503776" lon="-8.39295739942184"><ele>394.0</ele><time>2026-04-18T10:49:39.999Z</time></trkpt><trkpt lat="42.54278256089399" lon="-8.392922463862167"><ele>394.0</ele><time>2026-04-18T10:49:41.998Z</time></trkpt><trkpt lat="42.54289419301777" lon="-8.39291510070205"><ele>394.0</ele><time>2026-04-18T10:49:43.998Z</time></trkpt><trkpt lat="42.54299294868266" lon="-8.39289633137417"><ele>392.79999999999995</ele><time>2026-04-18T10:49:45.998Z</time></trkpt><trkpt lat="42.543065871583835" lon="-8.392819130148583"><ele>391.59999999999997</ele><time>2026-04-18T10:49:47.998Z</time></trkpt><trkpt lat="42.54313321496144" lon="-8.392763574416563"><ele>390.4</ele><time>2026-04-18T10:49:49.998Z</time></trkpt><trkpt lat="42.54321845606745" lon="-8.392719649921663"><ele>389.2</ele><time>2026-04-18T10:49:51.998Z</time></trkpt><trkpt lat="42.54330264896607" lon="-8.392675786986942"><ele>388.0</ele><time>2026-04-18T10:49:54Z</time></trkpt><trkpt lat="42.5434178222631" lon="-8.392667386174503"><ele>388.0</ele><time>2026-04-18T10:49:56Z</time></trkpt><trkpt lat="42.54352822869674" lon="-8.392659450752994"><ele>388.0</ele><time>2026-04-18T10:49:58Z</time></trkpt><trkpt lat="42.543630850773845" lon="-8.392670615521261"><ele>388.0</ele><time>2026-04-18T10:50:00Z</time></trkpt><trkpt lat="42.54372994512694" lon="-8.392691354010285"><ele>388.0</ele><time>2026-04-18T10:50:02Z</time></trkpt><trkpt lat="42.54381796598607" lon="-8.392744209422844"><ele>388.0</ele><time>2026-04-18T10:50:04Z</time></trkpt><trkpt lat="42.5438839830558" lon="-8.392801732876714"><ele>388.2</ele><time>2026-04-18T10:50:06Z</time></trkpt><trkpt lat="42.54397165994647" lon="-8.392847563586198"><ele>388.4</ele><time>2026-04-18T10:50:08Z</time></trkpt><trkpt lat="42.544075172255646" lon="-8.392866404862763"><ele>388.59999999999997</ele><time>2026-04-18T10:50:10Z</time></trkpt><trkpt lat="42.5441756773243" lon="-8.392880185317738"><ele>388.79999999999995</ele><time>2026-04-18T10:50:12Z</time></trkpt><trkpt lat="42.54425792724039" lon="-8.392862100521041"><ele>389.0</ele><time>2026-04-18T10:50:14Z</time></trkpt><trkpt lat="42.54431049078478" lon="-8.392761711720524"><ele>389.0</ele><time>2026-04-18T10:50:16Z</time></trkpt><trkpt lat="42.544322720752525" lon="-8.392646565326206"><ele>389.0</ele><time>2026-04-18T10:50:18Z</time></trkpt><trkpt lat="42.54433068162049" lon="-8.392522266120638"><ele>389.0</ele><time>2026-04-18T10:50:20Z</time></trkpt><trkpt lat="42.54428134793207" lon="-8.39240606999889"><ele>389.0</ele><time>2026-04-18T10:50:22Z</time></trkpt><trkpt lat="42.54426912465281" lon="-8.392289067998554"><ele>389.0</ele><time>2026-04-18T10:50:24Z</time></trkpt><trkpt lat="42.54426403467731" lon="-8.392124531930573"><ele>388.3333333333333</ele><time>2026-04-18T10:50:26Z</time></trkpt><trkpt lat="42.54424859540768" lon="-8.392035863097904"><ele>387.66666666666663</ele><time>2026-04-18T10:50:27Z</time></trkpt><trkpt lat="42.54423668271306" lon="-8.391948684332077"><ele>387.0</ele><time>2026-04-18T10:50:27.999Z</time></trkpt><trkpt lat="42.54422418883609" lon="-8.3918011169327"><ele>386.33333333333337</ele><time>2026-04-18T10:50:29.999Z</time></trkpt><trkpt lat="42.54425423101311" lon="-8.391694583398763"><ele>385.6666666666667</ele><time>2026-04-18T10:50:31.999Z</time></trkpt><trkpt lat="42.544349547252445" lon="-8.391622121442179"><ele>385.0</ele><time>2026-04-18T10:50:33.999Z</time></trkpt><trkpt lat="42.544405029872166" lon="-8.39156655714552"><ele>385.0</ele><time>2026-04-18T10:50:34.999Z</time></trkpt><trkpt lat="42.54446424645934" lon="-8.3914983141775"><ele>385.0</ele><time>2026-04-18T10:50:35.999Z</time></trkpt><trkpt lat="42.54452892817253" lon="-8.391398798726621"><ele>385.0</ele><time>2026-04-18T10:50:36.999Z</time></trkpt><trkpt lat="42.54462766775472" lon="-8.391282812233088"><ele>385.0</ele><time>2026-04-18T10:50:37.999Z</time></trkpt><trkpt lat="42.54474151414236" lon="-8.39117507580016"><ele>385.0</ele><time>2026-04-18T10:50:38.999Z</time></trkpt><trkpt lat="42.54483807628556" lon="-8.391095500866586"><ele>385.50000000000006</ele><time>2026-04-18T10:50:39.999Z</time></trkpt><trkpt lat="42.544916858778336" lon="-8.39102367923788"><ele>386.0</ele><time>2026-04-18T10:50:40.999Z</time></trkpt><trkpt lat="42.5450000932305" lon="-8.390967238418234"><ele>386.5</ele><time>2026-04-18T10:50:41.999Z</time></trkpt><trkpt lat="42.54506753417074" lon="-8.390949595637897"><ele>387.0</ele><time>2026-04-18T10:50:42.999Z</time></trkpt><trkpt lat="42.5451683126837" lon="-8.390901696872907"><ele>387.50000000000006</ele><time>2026-04-18T10:51:03.999Z</time></trkpt><trkpt lat="42.54522854203632" lon="-8.39086473473525"><ele>388.0</ele><time>2026-04-18T10:51:04.999Z</time></trkpt><trkpt lat="42.54533179973637" lon="-8.39075582669291"><ele>388.00000000000006</ele><time>2026-04-18T10:51:06.999Z</time></trkpt><trkpt lat="42.54536901502647" lon="-8.390680907103789"><ele>388.0</ele><time>2026-04-18T10:51:07.999Z</time></trkpt><trkpt lat="42.545415956723126" lon="-8.39060751649201"><ele>388.0</ele><time>2026-04-18T10:51:08.999Z</time></trkpt><trkpt lat="42.54546190898503" lon="-8.39054420942356"><ele>388.0</ele><time>2026-04-18T10:51:09.999Z</time></trkpt><trkpt lat="42.54555658326325" lon="-8.390492117397343"><ele>388.00000000000006</ele><time>2026-04-18T10:51:11.999Z</time></trkpt><trkpt lat="42.54564039590996" lon="-8.390372449279662"><ele>388.0</ele><time>2026-04-18T10:51:13.999Z</time></trkpt><trkpt lat="42.54569004806718" lon="-8.390255080441818"><ele>388.1666666666667</ele><time>2026-04-18T10:51:15.999Z</time></trkpt><trkpt lat="42.54572408991124" lon="-8.39015013526184"><ele>388.33333333333337</ele><time>2026-04-18T10:51:16.999Z</time></trkpt><trkpt lat="42.54573831948735" lon="-8.390036989274286"><ele>388.5</ele><time>2026-04-18T10:51:17.999Z</time></trkpt><trkpt lat="42.5457066087312" lon="-8.389959664660699"><ele>388.66666666666663</ele><time>2026-04-18T10:51:19.999Z</time></trkpt><trkpt lat="42.54559802401227" lon="-8.389910771144502"><ele>388.8333333333333</ele><time>2026-04-18T10:51:21.999Z</time></trkpt><trkpt lat="42.545528175300205" lon="-8.389881372252539"><ele>389.0</ele><time>2026-04-18T10:51:23.999Z</time></trkpt><trkpt lat="42.54547786853523" lon="-8.389808099159971"><ele>389.0</ele><time>2026-04-18T10:51:24.999Z</time></trkpt><trkpt lat="42.54539389147732" lon="-8.389689911189471"><ele>389.0</ele><time>2026-04-18T10:51:25.999Z</time></trkpt><trkpt lat="42.54536742121904" lon="-8.38960454432957"><ele>389.0</ele><time>2026-04-18T10:51:26.999Z</time></trkpt><trkpt lat="42.5452756633074" lon="-8.389589910602277"><ele>389.0</ele><time>2026-04-18T10:51:27.999Z</time></trkpt><trkpt lat="42.545097896854664" lon="-8.38950627225697"><ele>389.0</ele><time>2026-04-18T10:51:28.999Z</time></trkpt><trkpt lat="42.544929265618634" lon="-8.389418601209323"><ele>389.0</ele><time>2026-04-18T10:51:29.999Z</time></trkpt><trkpt lat="42.54478892748687" lon="-8.389319730849376"><ele>389.0</ele><time>2026-04-18T10:51:30.999Z</time></trkpt><trkpt lat="42.5446097010618" lon="-8.38923291241464"><ele>389.6</ele><time>2026-04-18T10:51:31.999Z</time></trkpt><trkpt lat="42.544498164889184" lon="-8.389217019463597"><ele>390.2</ele><time>2026-04-18T10:51:32.999Z</time></trkpt><trkpt lat="42.54439327192656" lon="-8.389205853949413"><ele>390.8</ele><time>2026-04-18T10:51:33.999Z</time></trkpt><trkpt lat="42.54430952535253" lon="-8.389250689690357"><ele>391.40000000000003</ele><time>2026-04-18T10:51:34.999Z</time></trkpt><trkpt lat="42.544217859443656" lon="-8.38934456258245"><ele>392.0</ele><time>2026-04-18T10:51:35.999Z</time></trkpt><trkpt lat="42.54409856545595" lon="-8.38938555338073"><ele>392.0</ele><time>2026-04-18T10:51:36.999Z</time></trkpt><trkpt lat="42.54399778654129" lon="-8.389410358857528"><ele>392.0</ele><time>2026-04-18T10:51:37.999Z</time></trkpt><trkpt lat="42.54386243390801" lon="-8.389379925422466"><ele>392.0</ele><time>2026-04-18T10:51:39.999Z</time></trkpt><trkpt lat="42.54378913244896" lon="-8.389329701683078"><ele>392.0</ele><time>2026-04-18T10:51:40.999Z</time></trkpt><trkpt lat="42.54372216101101" lon="-8.389256220844121"><ele>392.0</ele><time>2026-04-18T10:51:42.999Z</time></trkpt><trkpt lat="42.54365016462017" lon="-8.389242264150523"><ele>391.5</ele><time>2026-04-18T10:51:43.999Z</time></trkpt><trkpt lat="42.54356334207276" lon="-8.389212187929639"><ele>391.0</ele><time>2026-04-18T10:51:44.999Z</time></trkpt><trkpt lat="42.54347095607478" lon="-8.389196556049544"><ele>390.5</ele><time>2026-04-18T10:51:46.999Z</time></trkpt><trkpt lat="42.543347229124834" lon="-8.389209077978203"><ele>390.0</ele><time>2026-04-18T10:51:48.999Z</time></trkpt><trkpt lat="42.54317700882248" lon="-8.389245821023529"><ele>390.0</ele><time>2026-04-18T10:51:50.998Z</time></trkpt><trkpt lat="42.543039318240275" lon="-8.389288840275833"><ele>390.0</ele><time>2026-04-18T10:51:51.998Z</time></trkpt><trkpt lat="42.54295850822322" lon="-8.389314911970025"><ele>390.0</ele><time>2026-04-18T10:51:52.998Z</time></trkpt><trkpt lat="42.54286388098509" lon="-8.389326757378768"><ele>390.0</ele><time>2026-04-18T10:51:53.998Z</time></trkpt><trkpt lat="42.54275896765134" lon="-8.389380910674417"><ele>390.0</ele><time>2026-04-18T10:51:54.998Z</time></trkpt><trkpt lat="42.542636678097004" lon="-8.389449280337297"><ele>390.75</ele><time>2026-04-18T10:51:55.998Z</time></trkpt><trkpt lat="42.54250051401553" lon="-8.38950234141352"><ele>391.5</ele><time>2026-04-18T10:51:56.998Z</time></trkpt><trkpt lat="42.54237342581161" lon="-8.389522900228588"><ele>392.25</ele><time>2026-04-18T10:51:57.998Z</time></trkpt><trkpt lat="42.54226734433258" lon="-8.389531908686445"><ele>393.0</ele><time>2026-04-18T10:51:59Z</time></trkpt><trkpt lat="42.54218616421768" lon="-8.389524144583572"><ele>393.0</ele><time>2026-04-18T10:52:00Z</time></trkpt><trkpt lat="42.542095588897986" lon="-8.38955443171199"><ele>393.0</ele><time>2026-04-18T10:52:01Z</time></trkpt><trkpt lat="42.54201149393026" lon="-8.389580934069606"><ele>393.0</ele><time>2026-04-18T10:52:02Z</time></trkpt><trkpt lat="42.541945103311924" lon="-8.389637567485602"><ele>393.0</ele><time>2026-04-18T10:52:03Z</time></trkpt><trkpt lat="42.541868377169344" lon="-8.389674939904005"><ele>393.0</ele><time>2026-04-18T10:52:04Z</time></trkpt><trkpt lat="42.541775257541126" lon="-8.389699899568908"><ele>393.0</ele><time>2026-04-18T10:52:05Z</time></trkpt><trkpt lat="42.541656644804554" lon="-8.389730578707685"><ele>390.5</ele><time>2026-04-18T10:52:06Z</time></trkpt><trkpt lat="42.54156091507756" lon="-8.38973547919176"><ele>388.0</ele><time>2026-04-18T10:52:07Z</time></trkpt><trkpt lat="42.54147285917669" lon="-8.389755630763345"><ele>385.5</ele><time>2026-04-18T10:52:08Z</time></trkpt><trkpt lat="42.54136679478368" lon="-8.389709082769508"><ele>383.0</ele><time>2026-04-18T10:52:15Z</time></trkpt><trkpt lat="42.541290373017574" lon="-8.389747115649039"><ele>380.5</ele><time>2026-04-18T10:52:17Z</time></trkpt><trkpt lat="42.54122754736923" lon="-8.389768498918098"><ele>378.0</ele><time>2026-04-18T10:52:21Z</time></trkpt><trkpt lat="42.54119134115558" lon="-8.389693774467528"><ele>381.5</ele><time>2026-04-18T10:52:25Z</time></trkpt><trkpt lat="42.54124640742514" lon="-8.38965206620863"><ele>385.0</ele><time>2026-04-18T10:52:27Z</time></trkpt><trkpt lat="42.541391560002026" lon="-8.389661505379735"><ele>388.5</ele><time>2026-04-18T10:52:29Z</time></trkpt><trkpt lat="42.54152619424158" lon="-8.389582140635808"><ele>392.0</ele><time>2026-04-18T10:52:30Z</time></trkpt><trkpt lat="42.541731430174806" lon="-8.38950187044185"><ele>392.0</ele><time>2026-04-18T10:52:31Z</time></trkpt><trkpt lat="42.541889567386704" lon="-8.38944563981963"><ele>392.0</ele><time>2026-04-18T10:52:32Z</time></trkpt><trkpt lat="42.542031770663776" lon="-8.38938673559196"><ele>392.0</ele><time>2026-04-18T10:52:33Z</time></trkpt><trkpt lat="42.54215133219012" lon="-8.389373170325724"><ele>392.0</ele><time>2026-04-18T10:52:34Z</time></trkpt><trkpt lat="42.5422699197241" lon="-8.389341828132451"><ele>392.25</ele><time>2026-04-18T10:52:35Z</time></trkpt><trkpt lat="42.54241197374753" lon="-8.389296048117464"><ele>392.5</ele><time>2026-04-18T10:52:36Z</time></trkpt><trkpt lat="42.542538818586216" lon="-8.38924287201428"><ele>392.75</ele><time>2026-04-18T10:52:37Z</time></trkpt><trkpt lat="42.54263663392362" lon="-8.389185301177113"><ele>393.0</ele><time>2026-04-18T10:52:38Z</time></trkpt><trkpt lat="42.54277451658854" lon="-8.389144063933156"><ele>392.25</ele><time>2026-04-18T10:52:39Z</time></trkpt><trkpt lat="42.54290664845436" lon="-8.38911553930741"><ele>391.5</ele><time>2026-04-18T10:52:40Z</time></trkpt><trkpt lat="42.54305691003517" lon="-8.389065368272766"><ele>390.75</ele><time>2026-04-18T10:52:41Z</time></trkpt><trkpt lat="42.54318530930097" lon="-8.389049002047924"><ele>390.0</ele><time>2026-04-18T10:52:42Z</time></trkpt><trkpt lat="42.54329591095099" lon="-8.389021701115292"><ele>390.0</ele><time>2026-04-18T10:52:43Z</time></trkpt><trkpt lat="42.54339526500316" lon="-8.388993684959255"><ele>390.0</ele><time>2026-04-18T10:52:44Z</time></trkpt><trkpt lat="42.54352716736186" lon="-8.389028827985394"><ele>390.0</ele><time>2026-04-18T10:52:45.999Z</time></trkpt><trkpt lat="42.54360589157128" lon="-8.389038417569907"><ele>390.0</ele><time>2026-04-18T10:52:47.999Z</time></trkpt><trkpt lat="42.54370871925485" lon="-8.389094283650472"><ele>390.0</ele><time>2026-04-18T10:52:50.999Z</time></trkpt><trkpt lat="42.54381541917453" lon="-8.389135979861155"><ele>390.5</ele><time>2026-04-18T10:52:54.999Z</time></trkpt><trkpt lat="42.54394213304392" lon="-8.389097840614626"><ele>391.0</ele><time>2026-04-18T10:52:56.999Z</time></trkpt><trkpt lat="42.54407651400729" lon="-8.38897312340523"><ele>391.5</ele><time>2026-04-18T10:52:59.999Z</time></trkpt><trkpt lat="42.54416575980169" lon="-8.38902088508297"><ele>392.0</ele><time>2026-04-18T10:53:02.999Z</time></trkpt><trkpt lat="42.54428755706316" lon="-8.389070516909939"><ele>392.0</ele><time>2026-04-18T10:53:04.999Z</time></trkpt><trkpt lat="42.544364657635384" lon="-8.389104356795993"><ele>392.0</ele><time>2026-04-18T10:53:05.999Z</time></trkpt><trkpt lat="42.544455353422045" lon="-8.389123733189528"><ele>392.0</ele><time>2026-04-18T10:53:06.999Z</time></trkpt><trkpt lat="42.544535250105916" lon="-8.38918913918927"><ele>392.0</ele><time>2026-04-18T10:53:07.999Z</time></trkpt><trkpt lat="42.54464656320105" lon="-8.389257928687336"><ele>392.0</ele><time>2026-04-18T10:53:08.999Z</time></trkpt><trkpt lat="42.54475495873039" lon="-8.389295287397998"><ele>391.40000000000003</ele><time>2026-04-18T10:53:09.999Z</time></trkpt><trkpt lat="42.54482088194449" lon="-8.389328336820663"><ele>390.8</ele><time>2026-04-18T10:53:10.999Z</time></trkpt><trkpt lat="42.54491287521022" lon="-8.389419271810345"><ele>390.2</ele><time>2026-04-18T10:53:12.999Z</time></trkpt><trkpt lat="42.54498691414081" lon="-8.389527045490588"><ele>389.6</ele><time>2026-04-18T10:53:13.999Z</time></trkpt><trkpt lat="42.54506886512916" lon="-8.389593922855383"><ele>389.0</ele><time>2026-04-18T10:53:14.999Z</time></trkpt><trkpt lat="42.54513905327842" lon="-8.389679491413657"><ele>385.99999999999994</ele><time>2026-04-18T10:53:15.999Z</time></trkpt><trkpt lat="42.54526483138559" lon="-8.389755294106736"><ele>383.0</ele><time>2026-04-18T10:53:17.999Z</time></trkpt><trkpt lat="42.54533048429511" lon="-8.389803180717065"><ele>380.0</ele><time>2026-04-18T10:53:18.999Z</time></trkpt><trkpt lat="42.54535447008925" lon="-8.389890502563684"><ele>377.0</ele><time>2026-04-18T10:53:21.999Z</time></trkpt><trkpt lat="42.54529447422158" lon="-8.389965883658594"><ele>374.0</ele><time>2026-04-18T10:53:23.999Z</time></trkpt><trkpt lat="42.545235266489726" lon="-8.389912070941762"><ele>371.0</ele><time>2026-04-18T10:53:24.999Z</time></trkpt><trkpt lat="42.54516928178441" lon="-8.389886487331788"><ele>371.0</ele><time>2026-04-18T10:53:25.999Z</time></trkpt><trkpt lat="42.545098945024236" lon="-8.389921543955854"><ele>371.0</ele><time>2026-04-18T10:53:26.999Z</time></trkpt><trkpt lat="42.54503179224653" lon="-8.389966207058082"><ele>371.0</ele><time>2026-04-18T10:53:27.999Z</time></trkpt><trkpt lat="42.54492689787284" lon="-8.389989249044199"><ele>371.0</ele><time>2026-04-18T10:53:28.999Z</time></trkpt><trkpt lat="42.544862632508895" lon="-8.39013066083955"><ele>371.0</ele><time>2026-04-18T10:53:29.999Z</time></trkpt><trkpt lat="42.54478044522764" lon="-8.390169168561654"><ele>371.0</ele><time>2026-04-18T10:53:30.999Z</time></trkpt><trkpt lat="42.54470558016747" lon="-8.3902255568419"><ele>371.0</ele><time>2026-04-18T10:53:31.999Z</time></trkpt><trkpt lat="42.5449880045521" lon="-8.390778616941043"><ele>374.4</ele><time>2026-04-18T10:53:32.999Z</time></trkpt><trkpt lat="42.54500898088596" lon="-8.390910514385089"><ele>377.8</ele><time>2026-04-18T10:53:34.999Z</time></trkpt><trkpt lat="42.54509064965189" lon="-8.39093835608069"><ele>381.2</ele><time>2026-04-18T10:53:36.999Z</time></trkpt><trkpt lat="42.54519110924368" lon="-8.390944028924672"><ele>384.59999999999997</ele><time>2026-04-18T10:53:45.999Z</time></trkpt><trkpt lat="42.54530586511185" lon="-8.390872652275034"><ele>388.0</ele><time>2026-04-18T10:53:47.999Z</time></trkpt><trkpt lat="42.54536983642533" lon="-8.390821731966811"><ele>392.5</ele><time>2026-04-18T10:53:48.999Z</time></trkpt><trkpt lat="42.54544903578292" lon="-8.39076310448702"><ele>397.0</ele><time>2026-04-18T10:53:49.999Z</time></trkpt><trkpt lat="42.545527184595144" lon="-8.390699241920858"><ele>401.5</ele><time>2026-04-18T10:53:50.999Z</time></trkpt><trkpt lat="42.54561084339309" lon="-8.3906551216393"><ele>406.0</ele><time>2026-04-18T10:53:51.999Z</time></trkpt><trkpt lat="42.54542637262023" lon="-8.390588822164363"><ele>389.0</ele><time>2026-04-18T10:53:52.999Z</time></trkpt><trkpt lat="42.54592915964247" lon="-8.390490561900117"><ele>389.0</ele><time>2026-04-18T10:53:54.999Z</time></trkpt><trkpt lat="42.546038562791004" lon="-8.390437626923164"><ele>389.0</ele><time>2026-04-18T10:53:55.999Z</time></trkpt><trkpt lat="42.54614004241035" lon="-8.390375245919724"><ele>389.0</ele><time>2026-04-18T10:53:56.999Z</time></trkpt><trkpt lat="42.54623926923747" lon="-8.39027710329023"><ele>389.0</ele><time>2026-04-18T10:53:57.999Z</time></trkpt><trkpt lat="42.54638083229833" lon="-8.39017786426982"><ele>393.3333333333333</ele><time>2026-04-18T10:53:58.999Z</time></trkpt><trkpt lat="42.54656088776548" lon="-8.390086045101675"><ele>397.66666666666663</ele><time>2026-04-18T10:53:59.999Z</time></trkpt><trkpt lat="42.5467347757762" lon="-8.390066835607326"><ele>402.0</ele><time>2026-04-18T10:54:00.999Z</time></trkpt><trkpt lat="42.54689216915843" lon="-8.390028227058632"><ele>402.0</ele><time>2026-04-18T10:54:01.999Z</time></trkpt><trkpt lat="42.54704200632234" lon="-8.389968537004272"><ele>402.0</ele><time>2026-04-18T10:54:02.999Z</time></trkpt><trkpt lat="42.54717256041514" lon="-8.3899159147205"><ele>402.0</ele><time>2026-04-18T10:54:03.999Z</time></trkpt><trkpt lat="42.5472589953372" lon="-8.389863981551464"><ele>402.0</ele><time>2026-04-18T10:54:05Z</time></trkpt><trkpt lat="42.54734037203358" lon="-8.389809202637357"><ele>403.6</ele><time>2026-04-18T10:54:06Z</time></trkpt><trkpt lat="42.547403764928106" lon="-8.389781872387823"><ele>405.20000000000005</ele><time>2026-04-18T10:54:07Z</time></trkpt><trkpt lat="42.54751012494032" lon="-8.389774984105303"><ele>406.8</ele><time>2026-04-18T10:54:08Z</time></trkpt><trkpt lat="42.547635322093285" lon="-8.389748324843438"><ele>408.4</ele><time>2026-04-18T10:54:09Z</time></trkpt><trkpt lat="42.54774169117337" lon="-8.389709382916935"><ele>410.0</ele><time>2026-04-18T10:54:10Z</time></trkpt><trkpt lat="42.54783076139926" lon="-8.389683800018968"><ele>410.0</ele><time>2026-04-18T10:54:11Z</time></trkpt><trkpt lat="42.54789669296073" lon="-8.389629007649908"><ele>410.0</ele><time>2026-04-18T10:54:13Z</time></trkpt><trkpt lat="42.54784171814737" lon="-8.389707648071719"><ele>410.0</ele><time>2026-04-18T10:54:18Z</time></trkpt><trkpt lat="42.54794703959421" lon="-8.389707913133215"><ele>410.0</ele><time>2026-04-18T10:54:23Z</time></trkpt><trkpt lat="42.548059992184264" lon="-8.38966966024619"><ele>410.0</ele><time>2026-04-18T10:54:25Z</time></trkpt><trkpt lat="42.54811137051206" lon="-8.389595352206822"><ele>410.3333333333333</ele><time>2026-04-18T10:54:28Z</time></trkpt><trkpt lat="42.54817526407622" lon="-8.38958183222313"><ele>410.66666666666663</ele><time>2026-04-18T10:54:31Z</time></trkpt><trkpt lat="42.54824591858333" lon="-8.38953523241989"><ele>411.0</ele><time>2026-04-18T10:54:34Z</time></trkpt><trkpt lat="42.548346681067315" lon="-8.389532770708229"><ele>411.33333333333337</ele><time>2026-04-18T10:54:36Z</time></trkpt><trkpt lat="42.54842100412004" lon="-8.389554421570224"><ele>411.6666666666667</ele><time>2026-04-18T10:54:37Z</time></trkpt><trkpt lat="42.54848965175257" lon="-8.389539725666136"><ele>412.0</ele><time>2026-04-18T10:54:39Z</time></trkpt><trkpt lat="42.54841188393662" lon="-8.389580591079788"><ele>412.0</ele><time>2026-04-18T10:54:43Z</time></trkpt><trkpt lat="42.54844392031676" lon="-8.389480354195374"><ele>412.0</ele><time>2026-04-18T10:54:44Z</time></trkpt><trkpt lat="42.548455416106464" lon="-8.389654272744508"><ele>412.0</ele><time>2026-04-18T10:54:46Z</time></trkpt><trkpt lat="42.54782781778648" lon="-8.389465416450493"><ele>411.6666666666667</ele><time>2026-04-18T10:54:51Z</time></trkpt><trkpt lat="42.54773773559707" lon="-8.389469725781552"><ele>411.33333333333337</ele><time>2026-04-18T10:54:52Z</time></trkpt><trkpt lat="42.54766058831676" lon="-8.389467439109861"><ele>411.0</ele><time>2026-04-18T10:54:53Z</time></trkpt><trkpt lat="42.547586121634986" lon="-8.389448927745002"><ele>410.66666666666663</ele><time>2026-04-18T10:54:54Z</time></trkpt><trkpt lat="42.54749942619278" lon="-8.389434723154576"><ele>410.3333333333333</ele><time>2026-04-18T10:54:54.999Z</time></trkpt><trkpt lat="42.547401839832645" lon="-8.38936482442404"><ele>410.0</ele><time>2026-04-18T10:54:55.999Z</time></trkpt><trkpt lat="42.547277102958276" lon="-8.389301673421466"><ele>410.0</ele><time>2026-04-18T10:54:56.999Z</time></trkpt><trkpt lat="42.54718959787291" lon="-8.389207735256115"><ele>410.0</ele><time>2026-04-18T10:54:57.999Z</time></trkpt><trkpt lat="42.54709616832912" lon="-8.389129435449894"><ele>410.0</ele><time>2026-04-18T10:54:58.999Z</time></trkpt><trkpt lat="42.54700276433089" lon="-8.38905748916525"><ele>410.0</ele><time>2026-04-18T10:54:59.999Z</time></trkpt><trkpt lat="42.54690447510526" lon="-8.388995483311698"><ele>410.0</ele><time>2026-04-18T10:55:00.999Z</time></trkpt><trkpt lat="42.54680248925064" lon="-8.388941063339358"><ele>410.2</ele><time>2026-04-18T10:55:01.999Z</time></trkpt><trkpt lat="42.54695398627188" lon="-8.388972504162902"><ele>410.4</ele><time>2026-04-18T10:55:02.999Z</time></trkpt><trkpt lat="42.5469039879066" lon="-8.388910816329128"><ele>410.6</ele><time>2026-04-18T10:55:03.999Z</time></trkpt><trkpt lat="42.5468385487932" lon="-8.388898009963475"><ele>410.8</ele><time>2026-04-18T10:55:04.999Z</time></trkpt><trkpt lat="42.54677492703006" lon="-8.388885196840034"><ele>411.0</ele><time>2026-04-18T10:55:05.999Z</time></trkpt><trkpt lat="42.54647361969375" lon="-8.388715154394239"><ele>414.1666666666667</ele><time>2026-04-18T10:55:06.999Z</time></trkpt><trkpt lat="42.54651653481775" lon="-8.388621408973723"><ele>417.33333333333337</ele><time>2026-04-18T10:55:09.999Z</time></trkpt><trkpt lat="42.54663868268197" lon="-8.38856674652931"><ele>420.5</ele><time>2026-04-18T10:55:11.999Z</time></trkpt><trkpt lat="42.546716635382424" lon="-8.388503523938073"><ele>423.6666666666667</ele><time>2026-04-18T10:55:12.999Z</time></trkpt><trkpt lat="42.546770048776175" lon="-8.388458017956994"><ele>426.83333333333337</ele><time>2026-04-18T10:55:14.999Z</time></trkpt><trkpt lat="42.546708847227976" lon="-8.388437929396803"><ele>430.0</ele><time>2026-04-18T10:55:15.999Z</time></trkpt><trkpt lat="42.546769250751304" lon="-8.388408977642541"><ele>430.00000000000006</ele><time>2026-04-18T10:55:17.999Z</time></trkpt><trkpt lat="42.54684215303991" lon="-8.388375387187565"><ele>430.0</ele><time>2026-04-18T10:55:20.999Z</time></trkpt><trkpt lat="42.54691508461413" lon="-8.388268250467204"><ele>430.0</ele><time>2026-04-18T10:55:23.999Z</time></trkpt><trkpt lat="42.546869651004165" lon="-8.388182059921963"><ele>430.0</ele><time>2026-04-18T10:55:25.999Z</time></trkpt><trkpt lat="42.54691437940483" lon="-8.388105099412833"><ele>430.00000000000006</ele><time>2026-04-18T10:55:26.999Z</time></trkpt><trkpt lat="42.54697356459348" lon="-8.387999329499785"><ele>430.0</ele><time>2026-04-18T10:55:27.999Z</time></trkpt><trkpt lat="42.5470315283065" lon="-8.387867155813598"><ele>435.6</ele><time>2026-04-18T10:55:28.999Z</time></trkpt><trkpt lat="42.54707855321104" lon="-8.387758863123972"><ele>441.2</ele><time>2026-04-18T10:55:29.999Z</time></trkpt><trkpt lat="42.547078410174876" lon="-8.387625728563215"><ele>446.79999999999995</ele><time>2026-04-18T10:55:30.999Z</time></trkpt><trkpt lat="42.547106236445714" lon="-8.38751414333627"><ele>452.4</ele><time>2026-04-18T10:55:31.999Z</time></trkpt><trkpt lat="42.547110402118435" lon="-8.387334712146409"><ele>458.0</ele><time>2026-04-18T10:55:32.999Z</time></trkpt><trkpt lat="42.54710139323078" lon="-8.387204414596217"><ele>459.0</ele><time>2026-04-18T10:55:33.999Z</time></trkpt><trkpt lat="42.5470743156686" lon="-8.387082847857215"><ele>459.99999999999994</ele><time>2026-04-18T10:55:34.999Z</time></trkpt><trkpt lat="42.547043412939495" lon="-8.386941673453762"><ele>460.99999999999994</ele><time>2026-04-18T10:55:35.999Z</time></trkpt><trkpt lat="42.547034654654105" lon="-8.386777954311695"><ele>462.0</ele><time>2026-04-18T10:55:36.999Z</time></trkpt><trkpt lat="42.5469868178995" lon="-8.386635372683774"><ele>463.0</ele><time>2026-04-18T10:55:37.999Z</time></trkpt><trkpt lat="42.5469294732869" lon="-8.386496390300401"><ele>460.0</ele><time>2026-04-18T10:55:38.999Z</time></trkpt><trkpt lat="42.54683715340883" lon="-8.386389620176253"><ele>457.0</ele><time>2026-04-18T10:55:39.999Z</time></trkpt><trkpt lat="42.546775943314756" lon="-8.386286760704879"><ele>454.0</ele><time>2026-04-18T10:55:40.999Z</time></trkpt><trkpt lat="42.54674058961024" lon="-8.386169887044348"><ele>451.0</ele><time>2026-04-18T10:55:42.999Z</time></trkpt><trkpt lat="42.546868416548115" lon="-8.38606384673454"><ele>451.0</ele><time>2026-04-18T10:55:44.999Z</time></trkpt><trkpt lat="42.54698592887366" lon="-8.38596991267456"><ele>451.0</ele><time>2026-04-18T10:55:45.999Z</time></trkpt><trkpt lat="42.547084052295205" lon="-8.385812755036152"><ele>451.0</ele><time>2026-04-18T10:55:46.999Z</time></trkpt><trkpt lat="42.547162064978515" lon="-8.385651842434173"><ele>451.0</ele><time>2026-04-18T10:55:47.999Z</time></trkpt><trkpt lat="42.5472336716392" lon="-8.385466835417095"><ele>458.6666666666667</ele><time>2026-04-18T10:55:48.999Z</time></trkpt><trkpt lat="42.54731201133742" lon="-8.385290194983964"><ele>466.33333333333337</ele><time>2026-04-18T10:55:49.999Z</time></trkpt><trkpt lat="42.547381582325094" lon="-8.385098178875142"><ele>474.0</ele><time>2026-04-18T10:55:50.999Z</time></trkpt><trkpt lat="42.547417838945506" lon="-8.384657789000308"><ele>474.0</ele><time>2026-04-18T10:55:51.999Z</time></trkpt><trkpt lat="42.54743356988211" lon="-8.384531136824275"><ele>474.0</ele><time>2026-04-18T10:55:52.999Z</time></trkpt><trkpt lat="42.547454755347296" lon="-8.384336281927604"><ele>474.0</ele><time>2026-04-18T10:55:53.999Z</time></trkpt><trkpt lat="42.54745889319557" lon="-8.38423280543425"><ele>474.0</ele><time>2026-04-18T10:55:54.999Z</time></trkpt><trkpt lat="42.547501609027435" lon="-8.38412218786925"><ele>474.0</ele><time>2026-04-18T10:55:55.999Z</time></trkpt><trkpt lat="42.54753361355337" lon="-8.383996779825567"><ele>474.0</ele><time>2026-04-18T10:55:56.999Z</time></trkpt><trkpt lat="42.54756001530183" lon="-8.38389047391916"><ele>474.0</ele><time>2026-04-18T10:55:57.999Z</time></trkpt><trkpt lat="42.547598654905805" lon="-8.383799653045955"><ele>474.0</ele><time>2026-04-18T10:55:58.999Z</time></trkpt><trkpt lat="42.547647483681324" lon="-8.383742883664677"><ele>474.0</ele><time>2026-04-18T10:55:59.999Z</time></trkpt><trkpt lat="42.547746062929924" lon="-8.383609214366464"><ele>474.0</ele><time>2026-04-18T10:56:00.999Z</time></trkpt><trkpt lat="42.54781328879831" lon="-8.38350751027245"><ele>473.0</ele><time>2026-04-18T10:56:01.999Z</time></trkpt><trkpt lat="42.54783288869693" lon="-8.383362979577202"><ele>472.0</ele><time>2026-04-18T10:56:03.999Z</time></trkpt><trkpt lat="42.54783810344993" lon="-8.383239139312908"><ele>471.0</ele><time>2026-04-18T10:56:04.999Z</time></trkpt><trkpt lat="42.54780368031176" lon="-8.383058301121563"><ele>470.0</ele><time>2026-04-18T10:56:05.999Z</time></trkpt><trkpt lat="42.5477708119153" lon="-8.382919172503492"><ele>469.0</ele><time>2026-04-18T10:56:06.999Z</time></trkpt><trkpt lat="42.54775375074217" lon="-8.382756518292807"><ele>468.79999999999995</ele><time>2026-04-18T10:56:07.999Z</time></trkpt><trkpt lat="42.54777982088567" lon="-8.382637459765043"><ele>468.59999999999997</ele><time>2026-04-18T10:56:08.999Z</time></trkpt><trkpt lat="42.54782184175143" lon="-8.382508313940972"><ele>468.4</ele><time>2026-04-18T10:56:09.999Z</time></trkpt><trkpt lat="42.54787888229653" lon="-8.382436330322383"><ele>468.2</ele><time>2026-04-18T10:56:11Z</time></trkpt><trkpt lat="42.547967104096095" lon="-8.382371803763021"><ele>468.0</ele><time>2026-04-18T10:56:12Z</time></trkpt><trkpt lat="42.54805440720832" lon="-8.382268040223154"><ele>474.75</ele><time>2026-04-18T10:56:13Z</time></trkpt><trkpt lat="42.54813172182595" lon="-8.382103852880602"><ele>481.5</ele><time>2026-04-18T10:56:14Z</time></trkpt><trkpt lat="42.54818834476702" lon="-8.381919841611172"><ele>488.25</ele><time>2026-04-18T10:56:15Z</time></trkpt><trkpt lat="42.548224559394065" lon="-8.381731742922263"><ele>495.0</ele><time>2026-04-18T10:56:16Z</time></trkpt><trkpt lat="42.54826135078408" lon="-8.381557232417908"><ele>495.0</ele><time>2026-04-18T10:56:17Z</time></trkpt><trkpt lat="42.54832233481441" lon="-8.381407456404537"><ele>495.0</ele><time>2026-04-18T10:56:18Z</time></trkpt><trkpt lat="42.548404844512206" lon="-8.381229792257786"><ele>495.0</ele><time>2026-04-18T10:56:19Z</time></trkpt><trkpt lat="42.54847369002957" lon="-8.38109151787914"><ele>495.0</ele><time>2026-04-18T10:56:20Z</time></trkpt><trkpt lat="42.54855376804874" lon="-8.38098346364737"><ele>496.2</ele><time>2026-04-18T10:56:21Z</time></trkpt><trkpt lat="42.548634288260594" lon="-8.380893030641486"><ele>497.4</ele><time>2026-04-18T10:56:22Z</time></trkpt><trkpt lat="42.54872233324562" lon="-8.380798061384715"><ele>498.6</ele><time>2026-04-18T10:56:23Z</time></trkpt><trkpt lat="42.54881739072343" lon="-8.380678276948846"><ele>499.8</ele><time>2026-04-18T10:56:24Z</time></trkpt><trkpt lat="42.54890648215995" lon="-8.380609936169218"><ele>501.0</ele><time>2026-04-18T10:56:25Z</time></trkpt><trkpt lat="42.54899226144551" lon="-8.380564208472833"><ele>500.8333333333333</ele><time>2026-04-18T10:56:26Z</time></trkpt><trkpt lat="42.54907891111038" lon="-8.380507095853744"><ele>500.66666666666663</ele><time>2026-04-18T10:56:27Z</time></trkpt><trkpt lat="42.54911456653248" lon="-8.380427269542126"><ele>500.5</ele><time>2026-04-18T10:56:28Z</time></trkpt><trkpt lat="42.54909640827628" lon="-8.38031851718078"><ele>500.3333333333333</ele><time>2026-04-18T10:56:30Z</time></trkpt><trkpt lat="42.5490288181416" lon="-8.38024062400404"><ele>500.16666666666663</ele><time>2026-04-18T10:56:33Z</time></trkpt><trkpt lat="42.549045993635836" lon="-8.38013079069519"><ele>500.0</ele><time>2026-04-18T10:56:35Z</time></trkpt><trkpt lat="42.54913999896233" lon="-8.380186024091094"><ele>499.99999999999994</ele><time>2026-04-18T10:56:41Z</time></trkpt><trkpt lat="42.54922165418027" lon="-8.38014962838774"><ele>500.0</ele><time>2026-04-18T10:56:43Z</time></trkpt><trkpt lat="42.54929727838794" lon="-8.380142258376615"><ele>500.0</ele><time>2026-04-18T10:56:45Z</time></trkpt><trkpt lat="42.54937942358785" lon="-8.380162802114672"><ele>500.0</ele><time>2026-04-18T10:56:46Z</time></trkpt><trkpt lat="42.549463383595686" lon="-8.38017210532089"><ele>499.99999999999994</ele><time>2026-04-18T10:56:47Z</time></trkpt><trkpt lat="42.54955772900513" lon="-8.380147667626156"><ele>500.0</ele><time>2026-04-18T10:56:48Z</time></trkpt><trkpt lat="42.5496419949694" lon="-8.380099700029907"><ele>502.0</ele><time>2026-04-18T10:56:49Z</time></trkpt><trkpt lat="42.549733564162025" lon="-8.380050795209362"><ele>504.0</ele><time>2026-04-18T10:56:50Z</time></trkpt><trkpt lat="42.54978931938608" lon="-8.379959529207639"><ele>506.0</ele><time>2026-04-18T10:56:51Z</time></trkpt><trkpt lat="42.54986219112137" lon="-8.379875230085617"><ele>508.0</ele><time>2026-04-18T10:56:52Z</time></trkpt><trkpt lat="42.54994773000051" lon="-8.379791617349651"><ele>510.0</ele><time>2026-04-18T10:56:53Z</time></trkpt><trkpt lat="42.55004864880919" lon="-8.379693820794683"><ele>512.75</ele><time>2026-04-18T10:56:54Z</time></trkpt><trkpt lat="42.55013677805732" lon="-8.37959230467381"><ele>515.5</ele><time>2026-04-18T10:56:55Z</time></trkpt><trkpt lat="42.550231470830006" lon="-8.379498503395759"><ele>518.25</ele><time>2026-04-18T10:56:56Z</time></trkpt><trkpt lat="42.550352261764516" lon="-8.37941138161098"><ele>521.0</ele><time>2026-04-18T10:56:57Z</time></trkpt><trkpt lat="42.55047293289183" lon="-8.37931278604102"><ele>521.0</ele><time>2026-04-18T10:56:58Z</time></trkpt><trkpt lat="42.55058041428991" lon="-8.379233684922132"><ele>521.0</ele><time>2026-04-18T10:56:59Z</time></trkpt><trkpt lat="42.55070329915143" lon="-8.379157890270292"><ele>521.0</ele><time>2026-04-18T10:57:00Z</time></trkpt><trkpt lat="42.550831619694705" lon="-8.379076349258346"><ele>521.0</ele><time>2026-04-18T10:57:01Z</time></trkpt><trkpt lat="42.550947566254166" lon="-8.379016907300128"><ele>521.0</ele><time>2026-04-18T10:57:02Z</time></trkpt><trkpt lat="42.551074387511335" lon="-8.378932097304663"><ele>521.0</ele><time>2026-04-18T10:57:03Z</time></trkpt><trkpt lat="42.551180291772994" lon="-8.378821920350116"><ele>521.0</ele><time>2026-04-18T10:57:04Z</time></trkpt><trkpt lat="42.55127099173573" lon="-8.378697364405065"><ele>521.0</ele><time>2026-04-18T10:57:05Z</time></trkpt><trkpt lat="42.55135540194287" lon="-8.37854344524924"><ele>523.0</ele><time>2026-04-18T10:57:06Z</time></trkpt><trkpt lat="42.551445806629246" lon="-8.378397444292245"><ele>525.0</ele><time>2026-04-18T10:57:07Z</time></trkpt><trkpt lat="42.55150129230747" lon="-8.378297670317712"><ele>527.0</ele><time>2026-04-18T10:57:08Z</time></trkpt><trkpt lat="42.55151695506896" lon="-8.378192132466802"><ele>529.0</ele><time>2026-04-18T10:57:09Z</time></trkpt><trkpt lat="42.55149736762594" lon="-8.37806248030109"><ele>531.0</ele><time>2026-04-18T10:57:09.999Z</time></trkpt><trkpt lat="42.551466053361" lon="-8.377932042472791"><ele>532.4</ele><time>2026-04-18T10:57:10.999Z</time></trkpt><trkpt lat="42.55142043413945" lon="-8.377812446090989"><ele>533.8</ele><time>2026-04-18T10:57:11.999Z</time></trkpt><trkpt lat="42.551363110273094" lon="-8.377691025099212"><ele>535.1999999999999</ele><time>2026-04-18T10:57:12.999Z</time></trkpt><trkpt lat="42.55129090579369" lon="-8.377570144329413"><ele>536.6</ele><time>2026-04-18T10:57:13.999Z</time></trkpt><trkpt lat="42.55122219472044" lon="-8.377450356389902"><ele>538.0</ele><time>2026-04-18T10:57:14.999Z</time></trkpt><trkpt lat="42.55116886326377" lon="-8.377324785149833"><ele>540.0</ele><time>2026-04-18T10:57:15.999Z</time></trkpt><trkpt lat="42.551145924467306" lon="-8.37717732877464"><ele>542.0</ele><time>2026-04-18T10:57:16.999Z</time></trkpt><trkpt lat="42.551127712408885" lon="-8.376982356516688"><ele>544.0</ele><time>2026-04-18T10:57:17.999Z</time></trkpt><trkpt lat="42.55108230801065" lon="-8.376816106256914"><ele>546.0</ele><time>2026-04-18T10:57:18.999Z</time></trkpt><trkpt lat="42.55103349903681" lon="-8.376668444189711"><ele>546.0</ele><time>2026-04-18T10:57:19.999Z</time></trkpt><trkpt lat="42.55099555899675" lon="-8.376541959445463"><ele>546.0</ele><time>2026-04-18T10:57:20.999Z</time></trkpt><trkpt lat="42.550959539459036" lon="-8.376393074182197"><ele>546.0</ele><time>2026-04-18T10:57:21.999Z</time></trkpt><trkpt lat="42.550921150803575" lon="-8.37624465876655"><ele>546.0</ele><time>2026-04-18T10:57:22.999Z</time></trkpt><trkpt lat="42.5508760066716" lon="-8.37609834963904"><ele>546.0</ele><time>2026-04-18T10:57:23.999Z</time></trkpt><trkpt lat="42.55082799637391" lon="-8.375963543178154"><ele>546.0</ele><time>2026-04-18T10:57:24.999Z</time></trkpt><trkpt lat="42.55079142521322" lon="-8.37583679395596"><ele>546.0</ele><time>2026-04-18T10:57:25.999Z</time></trkpt><trkpt lat="42.550777733974165" lon="-8.375713364020504"><ele>546.0</ele><time>2026-04-18T10:57:26.999Z</time></trkpt><trkpt lat="42.55077773574789" lon="-8.37555148585274"><ele>546.0</ele><time>2026-04-18T10:57:27.999Z</time></trkpt><trkpt lat="42.550787323010056" lon="-8.37538969633231"><ele>546.0</ele><time>2026-04-18T10:57:28.999Z</time></trkpt><trkpt lat="42.550785052967974" lon="-8.375216267029872"><ele>546.4</ele><time>2026-04-18T10:57:29.999Z</time></trkpt><trkpt lat="42.55076149039815" lon="-8.375064447116978"><ele>546.8</ele><time>2026-04-18T10:57:30.999Z</time></trkpt><trkpt lat="42.55074480586664" lon="-8.374937882783032"><ele>547.1999999999999</ele><time>2026-04-18T10:57:31.999Z</time></trkpt><trkpt lat="42.55072632589238" lon="-8.37482826542155"><ele>547.6</ele><time>2026-04-18T10:57:32.999Z</time></trkpt><trkpt lat="42.55076058319378" lon="-8.374713795603773"><ele>548.0</ele><time>2026-04-18T10:57:34.999Z</time></trkpt><trkpt lat="42.550859059002555" lon="-8.37471399808032"><ele>548.0</ele><time>2026-04-18T10:57:43.999Z</time></trkpt><trkpt lat="42.550923151184904" lon="-8.374708836366372"><ele>548.0</ele><time>2026-04-18T10:57:45.999Z</time></trkpt><trkpt lat="42.55087494617344" lon="-8.374630827225605"><ele>548.0</ele><time>2026-04-18T10:57:55.999Z</time></trkpt><trkpt lat="42.55079651654212" lon="-8.374649930950925"><ele>548.0</ele><time>2026-04-18T10:57:56.999Z</time></trkpt><trkpt lat="42.550726949444" lon="-8.374694639735104"><ele>548.0</ele><time>2026-04-18T10:57:57.999Z</time></trkpt><trkpt lat="42.550661510718236" lon="-8.374736195440699"><ele>548.0</ele><time>2026-04-18T10:57:58.999Z</time></trkpt><trkpt lat="42.55055122731204" lon="-8.374724013078175"><ele>547.8</ele><time>2026-04-18T10:58:00.999Z</time></trkpt><trkpt lat="42.55046320999387" lon="-8.374645097214431"><ele>547.5999999999999</ele><time>2026-04-18T10:58:02.999Z</time></trkpt><trkpt lat="42.55039552262156" lon="-8.374594376671245"><ele>547.4000000000001</ele><time>2026-04-18T10:58:03.999Z</time></trkpt><trkpt lat="42.55031604190654" lon="-8.374548971980808"><ele>547.2</ele><time>2026-04-18T10:58:04.999Z</time></trkpt><trkpt lat="42.55024868116141" lon="-8.374507007291113"><ele>547.0</ele><time>2026-04-18T10:58:05.999Z</time></trkpt><trkpt lat="42.55013993529611" lon="-8.374434931713784"><ele>546.1666666666667</ele><time>2026-04-18T10:58:07.999Z</time></trkpt><trkpt lat="42.55005778405357" lon="-8.374381161760986"><ele>545.3333333333334</ele><time>2026-04-18T10:58:09.999Z</time></trkpt><trkpt lat="42.5499833525544" lon="-8.374344515306634"><ele>544.5</ele><time>2026-04-18T10:58:12.999Z</time></trkpt><trkpt lat="42.54992470365971" lon="-8.374269782484133"><ele>543.6666666666666</ele><time>2026-04-18T10:58:22Z</time></trkpt><trkpt lat="42.54986776903253" lon="-8.37423187147336"><ele>542.8333333333333</ele><time>2026-04-18T10:58:25Z</time></trkpt><trkpt lat="42.54995198254387" lon="-8.374255684543177"><ele>542.0</ele><time>2026-04-18T10:58:30Z</time></trkpt><trkpt lat="42.55002126241666" lon="-8.374317551484294"><ele>542.0</ele><time>2026-04-18T10:58:31Z</time></trkpt><trkpt lat="42.55010175018931" lon="-8.374355069674131"><ele>542.0</ele><time>2026-04-18T10:58:32Z</time></trkpt><trkpt lat="42.55020262193569" lon="-8.374413132139823"><ele>542.0</ele><time>2026-04-18T10:58:33Z</time></trkpt><trkpt lat="42.550304197928966" lon="-8.37445543777068"><ele>542.0</ele><time>2026-04-18T10:58:34Z</time></trkpt><trkpt lat="42.55043135872601" lon="-8.37453769548808"><ele>542.0</ele><time>2026-04-18T10:58:35Z</time></trkpt><trkpt lat="42.550544160504685" lon="-8.374621415309011"><ele>543.0</ele><time>2026-04-18T10:58:36Z</time></trkpt><trkpt lat="42.55061892032616" lon="-8.374672195359507"><ele>544.0</ele><time>2026-04-18T10:58:37Z</time></trkpt><trkpt lat="42.550729025371766" lon="-8.374739656494722"><ele>545.0</ele><time>2026-04-18T10:58:39Z</time></trkpt><trkpt lat="42.55081291083296" lon="-8.374699412714435"><ele>546.0</ele><time>2026-04-18T10:58:51Z</time></trkpt><trkpt lat="42.550901701570396" lon="-8.374664440677241"><ele>547.0</ele><time>2026-04-18T10:58:52Z</time></trkpt><trkpt lat="42.551006427045124" lon="-8.374641484302261"><ele>547.0</ele><time>2026-04-18T10:58:53Z</time></trkpt><trkpt lat="42.55112298326396" lon="-8.374622771039"><ele>547.0</ele><time>2026-04-18T10:58:54Z</time></trkpt><trkpt lat="42.551258629737426" lon="-8.374599922824233"><ele>547.0</ele><time>2026-04-18T10:58:55Z</time></trkpt><trkpt lat="42.55138095018788" lon="-8.374573538309903"><ele>547.0</ele><time>2026-04-18T10:58:56Z</time></trkpt><trkpt lat="42.551489645986194" lon="-8.374554117459377"><ele>547.6</ele><time>2026-04-18T10:58:57Z</time></trkpt><trkpt lat="42.551589529092624" lon="-8.374528948743047"><ele>548.2</ele><time>2026-04-18T10:58:58Z</time></trkpt><trkpt lat="42.55168182084056" lon="-8.374504775407084"><ele>548.8</ele><time>2026-04-18T10:58:59Z</time></trkpt><trkpt lat="42.55177690684498" lon="-8.37447817890176"><ele>549.4</ele><time>2026-04-18T10:59:00Z</time></trkpt><trkpt lat="42.551857575282845" lon="-8.374455715164606"><ele>550.0</ele><time>2026-04-18T10:59:01Z</time></trkpt><trkpt lat="42.5519441508623" lon="-8.374394275205841"><ele>550.0</ele><time>2026-04-18T10:59:03Z</time></trkpt><trkpt lat="42.551906912248946" lon="-8.37432392376334"><ele>550.0</ele><time>2026-04-18T10:59:34.999Z</time></trkpt><trkpt lat="42.551829944536934" lon="-8.374239464051497"><ele>550.0</ele><time>2026-04-18T10:59:37.999Z</time></trkpt><trkpt lat="42.551741862980066" lon="-8.374150952676569"><ele>550.0</ele><time>2026-04-18T10:59:39.999Z</time></trkpt><trkpt lat="42.551673687040896" lon="-8.374086514220528"><ele>550.0</ele><time>2026-04-18T10:59:40.999Z</time></trkpt><trkpt lat="42.55161731916243" lon="-8.374025035707682"><ele>550.0</ele><time>2026-04-18T10:59:41.999Z</time></trkpt><trkpt lat="42.55155633605531" lon="-8.373966830964912"><ele>550.0</ele><time>2026-04-18T10:59:42.999Z</time></trkpt><trkpt lat="42.551501092280006" lon="-8.373907293740206"><ele>550.0</ele><time>2026-04-18T10:59:43.999Z</time></trkpt><trkpt lat="42.55144844619813" lon="-8.373836520975772"><ele>550.0</ele><time>2026-04-18T10:59:44.999Z</time></trkpt><trkpt lat="42.55140239201193" lon="-8.37375094209265"><ele>550.0</ele><time>2026-04-18T10:59:45.999Z</time></trkpt><trkpt lat="42.55136355361391" lon="-8.373651918936913"><ele>550.0</ele><time>2026-04-18T10:59:46.999Z</time></trkpt><trkpt lat="42.55132751071696" lon="-8.37354209539532"><ele>550.0</ele><time>2026-04-18T10:59:47.999Z</time></trkpt><trkpt lat="42.55129627517641" lon="-8.373435763814483"><ele>549.3333333333334</ele><time>2026-04-18T10:59:48.999Z</time></trkpt><trkpt lat="42.551257573404584" lon="-8.373319775300423"><ele>548.6666666666667</ele><time>2026-04-18T10:59:49.999Z</time></trkpt><trkpt lat="42.55120397983912" lon="-8.373200427922201"><ele>548.0</ele><time>2026-04-18T10:59:50.999Z</time></trkpt><trkpt lat="42.551142726649054" lon="-8.373085942126293"><ele>547.3333333333334</ele><time>2026-04-18T10:59:51.999Z</time></trkpt><trkpt lat="42.55109796705042" lon="-8.373002584954003"><ele>546.6666666666666</ele><time>2026-04-18T10:59:52.999Z</time></trkpt><trkpt lat="42.551048378032306" lon="-8.372941377221052"><ele>546.0</ele><time>2026-04-18T10:59:53.999Z</time></trkpt><trkpt lat="42.55098919434074" lon="-8.372826082496022"><ele>544.8333333333334</ele><time>2026-04-18T10:59:55.999Z</time></trkpt><trkpt lat="42.5509539156801" lon="-8.37271207534866"><ele>543.6666666666666</ele><time>2026-04-18T10:59:57.999Z</time></trkpt><trkpt lat="42.55091870224317" lon="-8.372634658393393"><ele>542.5</ele><time>2026-04-18T10:59:58.999Z</time></trkpt><trkpt lat="42.55086205966419" lon="-8.372543626067552"><ele>541.3333333333333</ele><time>2026-04-18T11:00:00.999Z</time></trkpt><trkpt lat="42.550788265802545" lon="-8.372575319104259"><ele>540.1666666666666</ele><time>2026-04-18T11:00:10.999Z</time></trkpt><trkpt lat="42.55072132661985" lon="-8.372646179043723"><ele>539.0</ele><time>2026-04-18T11:00:12.999Z</time></trkpt><trkpt lat="42.550778758781014" lon="-8.37256898007533"><ele>539.0</ele><time>2026-04-18T11:00:23Z</time></trkpt><trkpt lat="42.55080894871375" lon="-8.372461826284509"><ele>539.0</ele><time>2026-04-18T11:00:24Z</time></trkpt><trkpt lat="42.55083175255154" lon="-8.372330963741318"><ele>539.0</ele><time>2026-04-18T11:00:26Z</time></trkpt><trkpt lat="42.55084646952829" lon="-8.372165560536255"><ele>539.0</ele><time>2026-04-18T11:00:28Z</time></trkpt><trkpt lat="42.550856008721794" lon="-8.372047820359835"><ele>539.0</ele><time>2026-04-18T11:00:29Z</time></trkpt><trkpt lat="42.550851848592266" lon="-8.37192100869291"><ele>538.3333333333333</ele><time>2026-04-18T11:00:30Z</time></trkpt><trkpt lat="42.550771311803" lon="-8.371829187591901"><ele>537.6666666666666</ele><time>2026-04-18T11:00:31Z</time></trkpt><trkpt lat="42.55069178868733" lon="-8.371658327314174"><ele>537.0</ele><time>2026-04-18T11:00:32Z</time></trkpt><trkpt lat="42.55055453158269" lon="-8.371458571314742"><ele>537.5</ele><time>2026-04-18T11:00:33Z</time></trkpt><trkpt lat="42.550452494290695" lon="-8.371288507651446"><ele>538.0</ele><time>2026-04-18T11:00:34Z</time></trkpt><trkpt lat="42.550378261986815" lon="-8.371129591508835"><ele>538.5</ele><time>2026-04-18T11:00:35Z</time></trkpt><trkpt lat="42.550310000521485" lon="-8.370969846843769"><ele>539.0</ele><time>2026-04-18T11:00:36Z</time></trkpt><trkpt lat="42.550251716150264" lon="-8.370832703065913"><ele>537.75</ele><time>2026-04-18T11:00:37Z</time></trkpt><trkpt lat="42.550207274093246" lon="-8.370701557197156"><ele>536.5</ele><time>2026-04-18T11:00:38Z</time></trkpt><trkpt lat="42.550120232914544" lon="-8.370545395330408"><ele>535.25</ele><time>2026-04-18T11:00:39Z</time></trkpt><trkpt lat="42.55002527422428" lon="-8.370380312909454"><ele>534.0</ele><time>2026-04-18T11:00:40Z</time></trkpt><trkpt lat="42.54993055488734" lon="-8.370263469614509"><ele>534.0</ele><time>2026-04-18T11:00:41Z</time></trkpt><trkpt lat="42.54979781161146" lon="-8.370141972547794"><ele>534.0</ele><time>2026-04-18T11:00:42Z</time></trkpt><trkpt lat="42.54966559978844" lon="-8.37005397225792"><ele>534.0</ele><time>2026-04-18T11:00:43Z</time></trkpt><trkpt lat="42.54951515228235" lon="-8.369946566785924"><ele>533.25</ele><time>2026-04-18T11:00:44Z</time></trkpt><trkpt lat="42.54939688612858" lon="-8.369818136730009"><ele>532.5</ele><time>2026-04-18T11:00:45Z</time></trkpt><trkpt lat="42.5493106013265" lon="-8.36970454576212"><ele>531.75</ele><time>2026-04-18T11:00:46Z</time></trkpt><trkpt lat="42.54923872980876" lon="-8.369557680378577"><ele>531.0</ele><time>2026-04-18T11:00:47Z</time></trkpt><trkpt lat="42.549188568270004" lon="-8.369421517468501"><ele>531.0</ele><time>2026-04-18T11:00:48Z</time></trkpt><trkpt lat="42.5491386639771" lon="-8.369295900424127"><ele>531.0</ele><time>2026-04-18T11:00:49Z</time></trkpt><trkpt lat="42.54912457127527" lon="-8.36899755371109"><ele>531.0</ele><time>2026-04-18T11:00:50Z</time></trkpt><trkpt lat="42.549175315710926" lon="-8.368805235264386"><ele>529.0</ele><time>2026-04-18T11:00:51Z</time></trkpt><trkpt lat="42.54924027588738" lon="-8.368571377465159"><ele>527.0</ele><time>2026-04-18T11:00:52Z</time></trkpt><trkpt lat="42.54933723885164" lon="-8.36831281109183"><ele>525.0</ele><time>2026-04-18T11:00:53Z</time></trkpt><trkpt lat="42.54940123965756" lon="-8.368107932686346"><ele>525.0</ele><time>2026-04-18T11:00:54Z</time></trkpt><trkpt lat="42.549493384719106" lon="-8.367978654809189"><ele>525.0</ele><time>2026-04-18T11:00:55Z</time></trkpt><trkpt lat="42.5495975902003" lon="-8.367860494544438"><ele>525.0</ele><time>2026-04-18T11:00:56Z</time></trkpt><trkpt lat="42.5497297427953" lon="-8.36774637281073"><ele>525.0</ele><time>2026-04-18T11:00:57Z</time></trkpt><trkpt lat="42.5498166969819" lon="-8.367624596042795"><ele>525.0</ele><time>2026-04-18T11:00:58Z</time></trkpt><trkpt lat="42.549893366842994" lon="-8.367549844057995"><ele>525.0</ele><time>2026-04-18T11:00:59Z</time></trkpt><trkpt lat="42.54999990538472" lon="-8.367499423104405"><ele>525.0</ele><time>2026-04-18T11:01:00Z</time></trkpt><trkpt lat="42.55012277048414" lon="-8.367407330865548"><ele>525.0</ele><time>2026-04-18T11:01:01Z</time></trkpt><trkpt lat="42.55023512471593" lon="-8.367260822289701"><ele>525.5</ele><time>2026-04-18T11:01:02Z</time></trkpt><trkpt lat="42.5503609414395" lon="-8.367135767224463"><ele>526.0</ele><time>2026-04-18T11:01:03Z</time></trkpt><trkpt lat="42.550420531076725" lon="-8.36704513305526"><ele>526.5</ele><time>2026-04-18T11:01:04Z</time></trkpt><trkpt lat="42.55051345496623" lon="-8.366965388563685"><ele>527.0</ele><time>2026-04-18T11:01:05Z</time></trkpt><trkpt lat="42.55059927841775" lon="-8.366869696861922"><ele>527.0000000000001</ele><time>2026-04-18T11:01:06Z</time></trkpt><trkpt lat="42.550684517230565" lon="-8.366807451805103"><ele>527.0</ele><time>2026-04-18T11:01:07Z</time></trkpt><trkpt lat="42.5507449517253" lon="-8.366755955411493"><ele>527.0</ele><time>2026-04-18T11:01:08Z</time></trkpt><trkpt lat="42.550806367981345" lon="-8.366714817459588"><ele>527.0</ele><time>2026-04-18T11:01:09Z</time></trkpt><trkpt lat="42.55086681266806" lon="-8.366677283817825"><ele>527.0</ele><time>2026-04-18T11:01:10Z</time></trkpt><trkpt lat="42.55092606234956" lon="-8.366646615884171"><ele>527.0000000000001</ele><time>2026-04-18T11:01:11Z</time></trkpt><trkpt lat="42.55098176450338" lon="-8.366603054050728"><ele>527.0</ele><time>2026-04-18T11:01:13Z</time></trkpt><trkpt lat="42.55101747418461" lon="-8.366455637243467"><ele>525.8333333333333</ele><time>2026-04-18T11:01:15Z</time></trkpt><trkpt lat="42.551006387978234" lon="-8.366294239811985"><ele>524.6666666666666</ele><time>2026-04-18T11:01:17Z</time></trkpt><trkpt lat="42.55100655583015" lon="-8.366195228735183"><ele>523.5</ele><time>2026-04-18T11:01:18Z</time></trkpt><trkpt lat="42.55103598062764" lon="-8.366108719704398"><ele>522.3333333333334</ele><time>2026-04-18T11:01:19Z</time></trkpt><trkpt lat="42.55107122571262" lon="-8.366037257617313"><ele>521.1666666666667</ele><time>2026-04-18T11:01:20Z</time></trkpt><trkpt lat="42.55113566002423" lon="-8.365985736814036"><ele>520.0</ele><time>2026-04-18T11:01:21Z</time></trkpt><trkpt lat="42.55120216562359" lon="-8.36591854080257"><ele>520.2</ele><time>2026-04-18T11:01:22Z</time></trkpt><trkpt lat="42.55126449793786" lon="-8.365841202115298"><ele>520.4</ele><time>2026-04-18T11:01:23Z</time></trkpt><trkpt lat="42.55132467009263" lon="-8.365758172588578"><ele>520.6</ele><time>2026-04-18T11:01:24Z</time></trkpt><trkpt lat="42.55137066282518" lon="-8.365676941166672"><ele>520.8</ele><time>2026-04-18T11:01:25Z</time></trkpt><trkpt lat="42.55144699277113" lon="-8.36554287803547"><ele>521.0</ele><time>2026-04-18T11:01:27Z</time></trkpt><trkpt lat="42.55152441567467" lon="-8.365429218051645"><ele>521.0</ele><time>2026-04-18T11:01:29Z</time></trkpt><trkpt lat="42.55157258695126" lon="-8.365358341012206"><ele>521.0</ele><time>2026-04-18T11:01:30Z</time></trkpt><trkpt lat="42.55162066377673" lon="-8.365281598534791"><ele>521.0</ele><time>2026-04-18T11:01:31Z</time></trkpt><trkpt lat="42.5516624938087" lon="-8.36520860127978"><ele>521.0</ele><time>2026-04-18T11:01:32Z</time></trkpt><trkpt lat="42.55170125081807" lon="-8.365136312785001"><ele>521.0</ele><time>2026-04-18T11:01:33Z</time></trkpt><trkpt lat="42.55175406550017" lon="-8.365039769334551"><ele>521.0</ele><time>2026-04-18T11:01:34Z</time></trkpt><trkpt lat="42.551829615238866" lon="-8.364921145003573"><ele>521.0</ele><time>2026-04-18T11:01:35Z</time></trkpt><trkpt lat="42.55190915758338" lon="-8.364814111056099"><ele>521.0</ele><time>2026-04-18T11:01:36Z</time></trkpt><trkpt lat="42.551985229842536" lon="-8.364723682341847"><ele>521.0</ele><time>2026-04-18T11:01:37Z</time></trkpt><trkpt lat="42.552054076760584" lon="-8.364643307695887"><ele>521.0</ele><time>2026-04-18T11:01:37.999Z</time></trkpt><trkpt lat="42.55211306389942" lon="-8.364575548450162"><ele>521.0</ele><time>2026-04-18T11:01:38.999Z</time></trkpt><trkpt lat="42.55221516717476" lon="-8.364516492788162"><ele>521.0</ele><time>2026-04-18T11:01:40.999Z</time></trkpt><trkpt lat="42.552293767626225" lon="-8.364540162265236"><ele>521.0</ele><time>2026-04-18T11:01:41.999Z</time></trkpt><trkpt lat="42.552377467129496" lon="-8.364565452924431"><ele>521.0</ele><time>2026-04-18T11:01:42.999Z</time></trkpt><trkpt lat="42.55246465858228" lon="-8.36458115960937"><ele>521.0</ele><time>2026-04-18T11:01:43.999Z</time></trkpt><trkpt lat="42.55255832272215" lon="-8.364591863092503"><ele>521.0</ele><time>2026-04-18T11:01:44.999Z</time></trkpt><trkpt lat="42.55265605215602" lon="-8.36459950584841"><ele>521.0</ele><time>2026-04-18T11:01:45.999Z</time></trkpt><trkpt lat="42.55275836020782" lon="-8.36460274344484"><ele>521.0</ele><time>2026-04-18T11:01:46.999Z</time></trkpt><trkpt lat="42.55285349901666" lon="-8.364593456863119"><ele>521.0</ele><time>2026-04-18T11:01:47.999Z</time></trkpt><trkpt lat="42.5529410979521" lon="-8.364554847095123"><ele>521.0</ele><time>2026-04-18T11:01:48.999Z</time></trkpt><trkpt lat="42.55302860633155" lon="-8.364503318644209"><ele>521.0</ele><time>2026-04-18T11:01:49.999Z</time></trkpt><trkpt lat="42.55311520533728" lon="-8.364445969834932"><ele>521.0</ele><time>2026-04-18T11:01:50.999Z</time></trkpt><trkpt lat="42.55320294674507" lon="-8.364399235591918"><ele>522.8</ele><time>2026-04-18T11:01:51.999Z</time></trkpt><trkpt lat="42.553295311082636" lon="-8.364355525909541"><ele>524.6</ele><time>2026-04-18T11:01:52.999Z</time></trkpt><trkpt lat="42.55339460711966" lon="-8.36429177834153"><ele>526.4</ele><time>2026-04-18T11:01:53.999Z</time></trkpt><trkpt lat="42.553497144490215" lon="-8.364211066925526"><ele>528.2</ele><time>2026-04-18T11:01:54.999Z</time></trkpt><trkpt lat="42.55359317110143" lon="-8.364148219241313"><ele>530.0</ele><time>2026-04-18T11:01:55.999Z</time></trkpt><trkpt lat="42.55369315126648" lon="-8.364091863358917"><ele>530.8</ele><time>2026-04-18T11:01:56.999Z</time></trkpt><trkpt lat="42.55379406978777" lon="-8.364035026608889"><ele>531.6</ele><time>2026-04-18T11:01:57.999Z</time></trkpt><trkpt lat="42.553893570408924" lon="-8.363969502999785"><ele>532.4</ele><time>2026-04-18T11:01:58.999Z</time></trkpt><trkpt lat="42.553988641955755" lon="-8.363918216621443"><ele>533.2</ele><time>2026-04-18T11:01:59.999Z</time></trkpt><trkpt lat="42.55408547492644" lon="-8.363863972837445"><ele>534.0</ele><time>2026-04-18T11:02:00.999Z</time></trkpt><trkpt lat="42.55419284445524" lon="-8.363802955975185"><ele>534.0</ele><time>2026-04-18T11:02:01.999Z</time></trkpt><trkpt lat="42.55431260850498" lon="-8.363772097717241"><ele>534.0</ele><time>2026-04-18T11:02:02.999Z</time></trkpt><trkpt lat="42.554418592187126" lon="-8.363782983049836"><ele>534.0</ele><time>2026-04-18T11:02:03.999Z</time></trkpt><trkpt lat="42.55452649331668" lon="-8.363826733015985"><ele>534.0</ele><time>2026-04-18T11:02:04.999Z</time></trkpt><trkpt lat="42.55461309864943" lon="-8.363871171373647"><ele>534.0</ele><time>2026-04-18T11:02:05.999Z</time></trkpt><trkpt lat="42.554662848031505" lon="-8.363944939857626"><ele>534.6</ele><time>2026-04-18T11:02:06.999Z</time></trkpt><trkpt lat="42.55476917441879" lon="-8.364017951935518"><ele>535.2</ele><time>2026-04-18T11:02:07.999Z</time></trkpt><trkpt lat="42.55484446922272" lon="-8.364100367124625"><ele>535.8000000000001</ele><time>2026-04-18T11:02:08.999Z</time></trkpt><trkpt lat="42.55493772757485" lon="-8.364179336343161"><ele>536.4</ele><time>2026-04-18T11:02:09.999Z</time></trkpt><trkpt lat="42.55504548700623" lon="-8.36425244842365"><ele>537.0</ele><time>2026-04-18T11:02:10.999Z</time></trkpt><trkpt lat="42.55514835177636" lon="-8.364351683170744"><ele>537.0</ele><time>2026-04-18T11:02:11.999Z</time></trkpt><trkpt lat="42.55525693447302" lon="-8.364448593295641"><ele>537.0</ele><time>2026-04-18T11:02:12.999Z</time></trkpt><trkpt lat="42.555363535129246" lon="-8.364539749942605"><ele>537.0</ele><time>2026-04-18T11:02:13.999Z</time></trkpt><trkpt lat="42.55546753937855" lon="-8.36462635871414"><ele>537.0</ele><time>2026-04-18T11:02:14.999Z</time></trkpt><trkpt lat="42.55556905135543" lon="-8.364703449915888"><ele>538.4</ele><time>2026-04-18T11:02:15.999Z</time></trkpt><trkpt lat="42.555672201337366" lon="-8.36477355695644"><ele>539.8000000000001</ele><time>2026-04-18T11:02:16.999Z</time></trkpt><trkpt lat="42.55576432511813" lon="-8.364847454060062"><ele>541.2</ele><time>2026-04-18T11:02:17.999Z</time></trkpt><trkpt lat="42.555850358031975" lon="-8.364934003520817"><ele>542.6</ele><time>2026-04-18T11:02:18.999Z</time></trkpt><trkpt lat="42.555921172252866" lon="-8.365032826399485"><ele>544.0</ele><time>2026-04-18T11:02:19.999Z</time></trkpt><trkpt lat="42.555985252842206" lon="-8.365133993367321"><ele>544.0</ele><time>2026-04-18T11:02:20.999Z</time></trkpt><trkpt lat="42.55605634119571" lon="-8.365231804887188"><ele>544.0</ele><time>2026-04-18T11:02:21.999Z</time></trkpt><trkpt lat="42.55613065319929" lon="-8.365338986589236"><ele>544.0</ele><time>2026-04-18T11:02:22.999Z</time></trkpt><trkpt lat="42.55620410521222" lon="-8.365458518371836"><ele>544.0</ele><time>2026-04-18T11:02:23.999Z</time></trkpt><trkpt lat="42.55629152755316" lon="-8.365594996215505"><ele>547.0</ele><time>2026-04-18T11:02:24.999Z</time></trkpt><trkpt lat="42.55638544678412" lon="-8.365735261288993"><ele>550.0</ele><time>2026-04-18T11:02:25.999Z</time></trkpt><trkpt lat="42.556489924897136" lon="-8.365898730348398"><ele>553.0</ele><time>2026-04-18T11:02:26.999Z</time></trkpt><trkpt lat="42.55658991088823" lon="-8.366061938813443"><ele>553.0</ele><time>2026-04-18T11:02:28Z</time></trkpt><trkpt lat="42.55663887777681" lon="-8.366163225956642"><ele>553.0</ele><time>2026-04-18T11:02:29Z</time></trkpt><trkpt lat="42.55664058088752" lon="-8.366276811093226"><ele>553.0</ele><time>2026-04-18T11:02:30Z</time></trkpt><trkpt lat="42.556547773232104" lon="-8.366352005401227"><ele>553.0</ele><time>2026-04-18T11:02:32Z</time></trkpt><trkpt lat="42.55647117913906" lon="-8.366304762813565"><ele>553.0</ele><time>2026-04-18T11:02:34Z</time></trkpt><trkpt lat="42.55644366539493" lon="-8.36639153780571"><ele>553.0</ele><time>2026-04-18T11:02:36Z</time></trkpt><trkpt lat="42.556371237664486" lon="-8.366428584383433"><ele>554.8333333333334</ele><time>2026-04-18T11:02:37Z</time></trkpt><trkpt lat="42.55630418382055" lon="-8.366477376852517"><ele>556.6666666666667</ele><time>2026-04-18T11:02:38Z</time></trkpt><trkpt lat="42.556182888591884" lon="-8.366470275827218"><ele>558.5</ele><time>2026-04-18T11:02:39Z</time></trkpt><trkpt lat="42.55609158828551" lon="-8.366439565034542"><ele>560.3333333333334</ele><time>2026-04-18T11:02:40Z</time></trkpt><trkpt lat="42.55601535003576" lon="-8.366452150116803"><ele>562.1666666666666</ele><time>2026-04-18T11:02:41Z</time></trkpt><trkpt lat="42.5560906226422" lon="-8.366450583163179"><ele>564.0</ele><time>2026-04-18T11:02:42Z</time></trkpt><trkpt lat="42.555806279182235" lon="-8.366612291225234"><ele>565.0</ele><time>2026-04-18T11:02:44Z</time></trkpt><trkpt lat="42.55551039323107" lon="-8.366605190966697"><ele>566.0</ele><time>2026-04-18T11:02:45Z</time></trkpt><trkpt lat="42.55523647669527" lon="-8.36659556812492"><ele>566.0</ele><time>2026-04-18T11:02:46Z</time></trkpt><trkpt lat="42.55496067833597" lon="-8.366571530479046"><ele>566.0</ele><time>2026-04-18T11:02:47Z</time></trkpt><trkpt lat="42.554708425446755" lon="-8.36656448213223"><ele>563.5</ele><time>2026-04-18T11:02:48Z</time></trkpt><trkpt lat="42.554458006240296" lon="-8.36665996049181"><ele>561.0</ele><time>2026-04-18T11:02:49Z</time></trkpt><trkpt lat="42.554251502753495" lon="-8.366791328020014"><ele>561.0</ele><time>2026-04-18T11:02:50Z</time></trkpt><trkpt lat="42.55405595557392" lon="-8.366885611903356"><ele>561.0</ele><time>2026-04-18T11:02:51Z</time></trkpt><trkpt lat="42.553942487491845" lon="-8.366996514557396"><ele>561.0</ele><time>2026-04-18T11:02:52Z</time></trkpt><trkpt lat="42.55385596689764" lon="-8.367131827041735"><ele>562.0</ele><time>2026-04-18T11:02:53Z</time></trkpt><trkpt lat="42.55382150778802" lon="-8.367233399210246"><ele>563.0</ele><time>2026-04-18T11:02:54Z</time></trkpt><trkpt lat="42.55381787146949" lon="-8.367323152764943"><ele>564.0</ele><time>2026-04-18T11:02:55Z</time></trkpt><trkpt lat="42.55385199109346" lon="-8.36740957889569"><ele>565.0</ele><time>2026-04-18T11:02:56Z</time></trkpt><trkpt lat="42.55387327532982" lon="-8.367505226560803"><ele>566.0</ele><time>2026-04-18T11:02:57Z</time></trkpt><trkpt lat="42.55392869458099" lon="-8.367589943112735"><ele>567.0</ele><time>2026-04-18T11:02:58Z</time></trkpt><trkpt lat="42.553889455105306" lon="-8.367673663873463"><ele>567.0</ele><time>2026-04-18T11:03:02Z</time></trkpt><trkpt lat="42.553794453521995" lon="-8.367680054074262"><ele>567.0</ele><time>2026-04-18T11:03:03Z</time></trkpt><trkpt lat="42.55366768287132" lon="-8.367707370672377"><ele>567.0</ele><time>2026-04-18T11:03:04Z</time></trkpt><trkpt lat="42.55350641629342" lon="-8.36773850774398"><ele>567.0</ele><time>2026-04-18T11:03:05Z</time></trkpt><trkpt lat="42.55327039148546" lon="-8.367765544903481"><ele>566.2</ele><time>2026-04-18T11:03:06Z</time></trkpt><trkpt lat="42.55313444895577" lon="-8.367850644841624"><ele>565.4000000000001</ele><time>2026-04-18T11:03:07Z</time></trkpt><trkpt lat="42.553032182250334" lon="-8.36786193855826"><ele>564.5999999999999</ele><time>2026-04-18T11:03:08Z</time></trkpt><trkpt lat="42.552968288127005" lon="-8.367861202892056"><ele>563.8</ele><time>2026-04-18T11:03:09Z</time></trkpt><trkpt lat="42.55291593347079" lon="-8.367760004813306"><ele>563.0</ele><time>2026-04-18T11:03:10Z</time></trkpt><trkpt lat="42.55287287588369" lon="-8.367544247657223"><ele>562.3333333333333</ele><time>2026-04-18T11:03:11Z</time></trkpt><trkpt lat="42.55272404469719" lon="-8.367342686614261"><ele>561.6666666666666</ele><time>2026-04-18T11:03:12Z</time></trkpt><trkpt lat="42.55257771590048" lon="-8.367211457773672"><ele>561.0</ele><time>2026-04-18T11:03:13Z</time></trkpt><trkpt lat="42.55243060489428" lon="-8.367153231721545"><ele>556.3333333333334</ele><time>2026-04-18T11:03:14Z</time></trkpt><trkpt lat="42.552243684793716" lon="-8.367154397586477"><ele>551.6666666666667</ele><time>2026-04-18T11:03:15Z</time></trkpt><trkpt lat="42.55206031387502" lon="-8.367143322490477"><ele>547.0</ele><time>2026-04-18T11:03:16Z</time></trkpt><trkpt lat="42.55187955269914" lon="-8.36717337017448"><ele>549.3333333333334</ele><time>2026-04-18T11:03:17Z</time></trkpt><trkpt lat="42.55174079653474" lon="-8.367206575068359"><ele>551.6666666666666</ele><time>2026-04-18T11:03:18Z</time></trkpt><trkpt lat="42.55161202371438" lon="-8.367299204744686"><ele>554.0</ele><time>2026-04-18T11:03:19Z</time></trkpt><trkpt lat="42.55144796415525" lon="-8.367446607760636"><ele>554.0</ele><time>2026-04-18T11:03:20Z</time></trkpt><trkpt lat="42.551321051061095" lon="-8.367586992371963"><ele>554.0</ele><time>2026-04-18T11:03:21Z</time></trkpt><trkpt lat="42.55122651552176" lon="-8.367687651354512"><ele>554.0</ele><time>2026-04-18T11:03:22Z</time></trkpt><trkpt lat="42.55118100348862" lon="-8.367774763913566"><ele>554.0</ele><time>2026-04-18T11:03:23Z</time></trkpt><trkpt lat="42.551196631301345" lon="-8.367912389169298"><ele>555.75</ele><time>2026-04-18T11:03:24Z</time></trkpt><trkpt lat="42.55124590819104" lon="-8.368076916482963"><ele>557.5</ele><time>2026-04-18T11:03:25Z</time></trkpt><trkpt lat="42.551323075714244" lon="-8.368233234167194"><ele>559.25</ele><time>2026-04-18T11:03:26Z</time></trkpt><trkpt lat="42.55144164223067" lon="-8.36839077645215"><ele>561.0</ele><time>2026-04-18T11:03:27Z</time></trkpt><trkpt lat="42.5515772905276" lon="-8.368549568018768"><ele>561.0</ele><time>2026-04-18T11:03:28Z</time></trkpt><trkpt lat="42.5517466646028" lon="-8.368709311282137"><ele>561.0</ele><time>2026-04-18T11:03:29Z</time></trkpt><trkpt lat="42.55192052892962" lon="-8.368898765538864"><ele>561.0</ele><time>2026-04-18T11:03:30Z</time></trkpt><trkpt lat="42.55208796054105" lon="-8.369104773990408"><ele>560.3333333333334</ele><time>2026-04-18T11:03:31Z</time></trkpt><trkpt lat="42.55223343139931" lon="-8.369361247296338"><ele>559.6666666666667</ele><time>2026-04-18T11:03:32Z</time></trkpt><trkpt lat="42.552308758907884" lon="-8.369574195932982"><ele>559.0</ele><time>2026-04-18T11:03:33Z</time></trkpt><trkpt lat="42.5524126358679" lon="-8.369760316152545"><ele>559.0</ele><time>2026-04-18T11:03:34Z</time></trkpt><trkpt lat="42.552505392476675" lon="-8.369873860032023"><ele>559.0</ele><time>2026-04-18T11:03:35Z</time></trkpt><trkpt lat="42.552572216238474" lon="-8.369941314953394"><ele>559.0</ele><time>2026-04-18T11:03:36Z</time></trkpt><trkpt lat="42.55262934869507" lon="-8.370035731868125"><ele>559.0</ele><time>2026-04-18T11:03:37Z</time></trkpt><trkpt lat="42.55269056195535" lon="-8.3701125548355"><ele>559.0</ele><time>2026-04-18T11:03:38Z</time></trkpt><trkpt lat="42.552833781742684" lon="-8.370141417401669"><ele>560.6666666666667</ele><time>2026-04-18T11:03:39Z</time></trkpt><trkpt lat="42.553058281727814" lon="-8.370088362931003"><ele>562.3333333333334</ele><time>2026-04-18T11:03:40Z</time></trkpt><trkpt lat="42.553222719899104" lon="-8.370112129653947"><ele>564.0</ele><time>2026-04-18T11:03:41Z</time></trkpt><trkpt lat="42.553700703241745" lon="-8.370067750549529"><ele>567.6666666666666</ele><time>2026-04-18T11:03:42Z</time></trkpt><trkpt lat="42.55391530494651" lon="-8.370184541233995"><ele>571.3333333333333</ele><time>2026-04-18T11:03:43Z</time></trkpt><trkpt lat="42.55410988534515" lon="-8.370294398364447"><ele>575.0</ele><time>2026-04-18T11:03:44Z</time></trkpt><trkpt lat="42.55427412336944" lon="-8.37040724575786"><ele>573.6666666666666</ele><time>2026-04-18T11:03:45Z</time></trkpt><trkpt lat="42.55440492221437" lon="-8.370537333706501"><ele>572.3333333333334</ele><time>2026-04-18T11:03:46Z</time></trkpt><trkpt lat="42.55451907257903" lon="-8.370751130093002"><ele>571.0</ele><time>2026-04-18T11:03:47Z</time></trkpt><trkpt lat="42.55464474485917" lon="-8.370992229073625"><ele>574.25</ele><time>2026-04-18T11:03:48Z</time></trkpt><trkpt lat="42.554771840606854" lon="-8.371184024801092"><ele>577.5</ele><time>2026-04-18T11:03:49Z</time></trkpt><trkpt lat="42.554872908852694" lon="-8.371331049418188"><ele>580.75</ele><time>2026-04-18T11:03:50Z</time></trkpt><trkpt lat="42.554905450062215" lon="-8.37144885823607"><ele>584.0</ele><time>2026-04-18T11:03:50.999Z</time></trkpt><trkpt lat="42.55487490800801" lon="-8.371548234385605"><ele>584.0</ele><time>2026-04-18T11:03:52.999Z</time></trkpt><trkpt lat="42.554752891403844" lon="-8.371571388825743"><ele>584.0</ele><time>2026-04-18T11:03:54.999Z</time></trkpt><trkpt lat="42.55467360433523" lon="-8.371625574064856"><ele>584.0</ele><time>2026-04-18T11:03:55.999Z</time></trkpt><trkpt lat="42.55455159726915" lon="-8.371775862777495"><ele>584.0</ele><time>2026-04-18T11:03:56.999Z</time></trkpt><trkpt lat="42.55446615380455" lon="-8.371957561367394"><ele>582.6666666666666</ele><time>2026-04-18T11:03:57.999Z</time></trkpt><trkpt lat="42.55440226001776" lon="-8.372138276817367"><ele>581.3333333333334</ele><time>2026-04-18T11:03:58.999Z</time></trkpt><trkpt lat="42.55434336692903" lon="-8.372399665998554"><ele>580.0</ele><time>2026-04-18T11:03:59.999Z</time></trkpt><trkpt lat="42.55428905896102" lon="-8.372664966114248"><ele>580.0</ele><time>2026-04-18T11:04:00.999Z</time></trkpt><trkpt lat="42.55423411224492" lon="-8.372960448474771"><ele>580.0</ele><time>2026-04-18T11:04:01.999Z</time></trkpt><trkpt lat="42.554204729259425" lon="-8.373213604148626"><ele>580.0</ele><time>2026-04-18T11:04:02.999Z</time></trkpt><trkpt lat="42.55421172785562" lon="-8.373420350231578"><ele>580.0</ele><time>2026-04-18T11:04:03.999Z</time></trkpt><trkpt lat="42.554251969435384" lon="-8.37353536618865"><ele>580.0</ele><time>2026-04-18T11:04:04.999Z</time></trkpt><trkpt lat="42.55429719234017" lon="-8.373684851172419"><ele>580.0</ele><time>2026-04-18T11:04:05.999Z</time></trkpt><trkpt lat="42.55438568685715" lon="-8.37384014440398"><ele>580.0</ele><time>2026-04-18T11:04:06.999Z</time></trkpt><trkpt lat="42.554541292955214" lon="-8.374069655767043"><ele>582.0</ele><time>2026-04-18T11:04:07.999Z</time></trkpt><trkpt lat="42.55468784727069" lon="-8.374237592370045"><ele>584.0</ele><time>2026-04-18T11:04:08.999Z</time></trkpt><trkpt lat="42.554873359718485" lon="-8.374428079269032"><ele>586.0</ele><time>2026-04-18T11:04:09.999Z</time></trkpt><trkpt lat="42.555054292082495" lon="-8.374602221422013"><ele>584.3333333333334</ele><time>2026-04-18T11:04:10.999Z</time></trkpt><trkpt lat="42.55523348101134" lon="-8.37476537773192"><ele>582.6666666666666</ele><time>2026-04-18T11:04:11.999Z</time></trkpt><trkpt lat="42.55540381128408" lon="-8.374908547346886"><ele>581.0</ele><time>2026-04-18T11:04:12.999Z</time></trkpt><trkpt lat="42.55551283444154" lon="-8.37497245569931"><ele>585.0</ele><time>2026-04-18T11:04:13.999Z</time></trkpt><trkpt lat="42.555705160365406" lon="-8.375088636141356"><ele>589.0</ele><time>2026-04-18T11:04:14.999Z</time></trkpt><trkpt lat="42.555915925836125" lon="-8.375217458823268"><ele>593.0</ele><time>2026-04-18T11:04:15.999Z</time></trkpt><trkpt lat="42.55607411101059" lon="-8.375304971649907"><ele>595.0</ele><time>2026-04-18T11:04:16.999Z</time></trkpt><trkpt lat="42.55626522126767" lon="-8.375354534454916"><ele>597.0</ele><time>2026-04-18T11:04:17.999Z</time></trkpt><trkpt lat="42.55644513532607" lon="-8.375328790834205"><ele>599.0</ele><time>2026-04-18T11:04:18.999Z</time></trkpt><trkpt lat="42.55665270088918" lon="-8.375282019918375"><ele>599.0</ele><time>2026-04-18T11:04:19.999Z</time></trkpt><trkpt lat="42.55682896542586" lon="-8.375271944729324"><ele>599.0</ele><time>2026-04-18T11:04:20.999Z</time></trkpt><trkpt lat="42.55693578916883" lon="-8.375277937017279"><ele>599.0</ele><time>2026-04-18T11:04:21.999Z</time></trkpt><trkpt lat="42.557023381172506" lon="-8.375378268432907"><ele>599.0</ele><time>2026-04-18T11:04:23.999Z</time></trkpt><trkpt lat="42.55707855662568" lon="-8.375476781311788"><ele>601.0</ele><time>2026-04-18T11:04:24.999Z</time></trkpt><trkpt lat="42.55716712102177" lon="-8.37560017923599"><ele>603.0</ele><time>2026-04-18T11:04:25.999Z</time></trkpt><trkpt lat="42.55728091767072" lon="-8.37576334427779"><ele>605.0</ele><time>2026-04-18T11:04:26.999Z</time></trkpt><trkpt lat="42.55740980461253" lon="-8.375902834109604"><ele>605.0</ele><time>2026-04-18T11:04:27.999Z</time></trkpt><trkpt lat="42.5574841527171" lon="-8.376008580239018"><ele>605.0</ele><time>2026-04-18T11:04:28.999Z</time></trkpt><trkpt lat="42.557483870299016" lon="-8.376140281632726"><ele>605.0</ele><time>2026-04-18T11:04:30.999Z</time></trkpt><trkpt lat="42.55737426615673" lon="-8.376233716059616"><ele>605.0</ele><time>2026-04-18T11:04:32.999Z</time></trkpt><trkpt lat="42.557262250632256" lon="-8.37625225911507"><ele>605.0</ele><time>2026-04-18T11:04:34Z</time></trkpt><trkpt lat="42.55712515939106" lon="-8.376271692698035"><ele>603.8</ele><time>2026-04-18T11:04:35Z</time></trkpt><trkpt lat="42.55701242411002" lon="-8.376306818873681"><ele>602.6</ele><time>2026-04-18T11:04:36Z</time></trkpt><trkpt lat="42.55689998063993" lon="-8.376376906979164"><ele>601.4</ele><time>2026-04-18T11:04:37Z</time></trkpt><trkpt lat="42.556834963715126" lon="-8.37646540562775"><ele>600.2</ele><time>2026-04-18T11:04:38Z</time></trkpt><trkpt lat="42.55678724731186" lon="-8.376585821969929"><ele>599.0</ele><time>2026-04-18T11:04:39Z</time></trkpt><trkpt lat="42.55676110734629" lon="-8.376707130534214"><ele>599.0</ele><time>2026-04-18T11:04:40Z</time></trkpt><trkpt lat="42.5567455052096" lon="-8.376833003948448"><ele>599.0</ele><time>2026-04-18T11:04:41Z</time></trkpt><trkpt lat="42.55676245223577" lon="-8.377049171004867"><ele>599.0</ele><time>2026-04-18T11:04:42Z</time></trkpt><trkpt lat="42.55675095228418" lon="-8.377267912600994"><ele>599.0</ele><time>2026-04-18T11:04:43Z</time></trkpt><trkpt lat="42.55672917593984" lon="-8.377536313796393"><ele>602.6666666666666</ele><time>2026-04-18T11:04:44Z</time></trkpt><trkpt lat="42.55668628996182" lon="-8.377801955532066"><ele>606.3333333333334</ele><time>2026-04-18T11:04:45Z</time></trkpt><trkpt lat="42.55665244879581" lon="-8.378061754243996"><ele>610.0</ele><time>2026-04-18T11:04:46Z</time></trkpt><trkpt lat="42.556625900975284" lon="-8.378318178269755"><ele>610.5</ele><time>2026-04-18T11:04:47Z</time></trkpt><trkpt lat="42.55660936077609" lon="-8.378513521634003"><ele>611.0</ele><time>2026-04-18T11:04:48Z</time></trkpt><trkpt lat="42.55663640012599" lon="-8.378728037198252"><ele>611.5</ele><time>2026-04-18T11:04:49Z</time></trkpt><trkpt lat="42.55671559922004" lon="-8.37881524418841"><ele>612.0</ele><time>2026-04-18T11:04:50Z</time></trkpt><trkpt lat="42.55679797503946" lon="-8.378891931814762"><ele>610.6666666666666</ele><time>2026-04-18T11:04:51Z</time></trkpt><trkpt lat="42.55689887337303" lon="-8.379012485256425"><ele>609.3333333333333</ele><time>2026-04-18T11:04:52Z</time></trkpt><trkpt lat="42.557051785947905" lon="-8.379148972603508"><ele>608.0</ele><time>2026-04-18T11:04:53Z</time></trkpt><trkpt lat="42.55722119948084" lon="-8.379270445472885"><ele>612.6666666666666</ele><time>2026-04-18T11:04:54Z</time></trkpt><trkpt lat="42.55737855017148" lon="-8.37938171989231"><ele>617.3333333333334</ele><time>2026-04-18T11:04:55Z</time></trkpt><trkpt lat="42.55755927459246" lon="-8.379480960525536"><ele>622.0</ele><time>2026-04-18T11:04:56Z</time></trkpt><trkpt lat="42.55772008676751" lon="-8.379539728181387"><ele>622.0</ele><time>2026-04-18T11:04:57Z</time></trkpt><trkpt lat="42.557859572754346" lon="-8.379534880499214"><ele>622.0</ele><time>2026-04-18T11:04:58Z</time></trkpt><trkpt lat="42.5580055871013" lon="-8.37951631152165"><ele>622.0</ele><time>2026-04-18T11:04:59Z</time></trkpt><trkpt lat="42.5581429653297" lon="-8.37944281241593"><ele>622.0</ele><time>2026-04-18T11:05:00Z</time></trkpt><trkpt lat="42.55829465902404" lon="-8.379358654727895"><ele>623.3333333333334</ele><time>2026-04-18T11:05:01Z</time></trkpt><trkpt lat="42.5584934122884" lon="-8.379289539123778"><ele>624.6666666666666</ele><time>2026-04-18T11:05:02Z</time></trkpt><trkpt lat="42.55866252744783" lon="-8.379198668764234"><ele>626.0</ele><time>2026-04-18T11:05:03Z</time></trkpt><trkpt lat="42.558859498641255" lon="-8.379160692113762"><ele>629.3333333333333</ele><time>2026-04-18T11:05:04Z</time></trkpt><trkpt lat="42.55899570746107" lon="-8.379173928303809"><ele>632.6666666666666</ele><time>2026-04-18T11:05:05Z</time></trkpt><trkpt lat="42.55912406657559" lon="-8.379264223012024"><ele>636.0</ele><time>2026-04-18T11:05:06Z</time></trkpt><trkpt lat="42.55926772637706" lon="-8.379405691968948"><ele>636.0</ele><time>2026-04-18T11:05:07Z</time></trkpt><trkpt lat="42.559417752680666" lon="-8.379607624508054"><ele>636.0</ele><time>2026-04-18T11:05:08Z</time></trkpt><trkpt lat="42.55955027349845" lon="-8.379814749792422"><ele>636.0</ele><time>2026-04-18T11:05:09Z</time></trkpt><trkpt lat="42.55971495432938" lon="-8.380024074583531"><ele>639.5</ele><time>2026-04-18T11:05:10Z</time></trkpt><trkpt lat="42.55987594894241" lon="-8.380318314294234"><ele>643.0</ele><time>2026-04-18T11:05:11Z</time></trkpt><trkpt lat="42.56003281549741" lon="-8.380484941017674"><ele>643.0</ele><time>2026-04-18T11:05:12Z</time></trkpt><trkpt lat="42.56019436968584" lon="-8.380546226460272"><ele>643.0</ele><time>2026-04-18T11:05:13Z</time></trkpt><trkpt lat="42.560384514627316" lon="-8.38060663074889"><ele>643.0</ele><time>2026-04-18T11:05:14Z</time></trkpt><trkpt lat="42.560653589839845" lon="-8.380739230041835"><ele>643.0</ele><time>2026-04-18T11:05:15Z</time></trkpt><trkpt lat="42.560855098115326" lon="-8.38083628448768"><ele>643.0</ele><time>2026-04-18T11:05:16Z</time></trkpt><trkpt lat="42.561029469948224" lon="-8.380864081009882"><ele>643.0</ele><time>2026-04-18T11:05:17Z</time></trkpt><trkpt lat="42.56122164831734" lon="-8.380882041738372"><ele>648.5</ele><time>2026-04-18T11:05:18Z</time></trkpt><trkpt lat="42.56146541411414" lon="-8.380900131090618"><ele>654.0</ele><time>2026-04-18T11:05:19Z</time></trkpt><trkpt lat="42.56169017219164" lon="-8.380903092978343"><ele>654.0</ele><time>2026-04-18T11:05:20Z</time></trkpt><trkpt lat="42.56185967947762" lon="-8.380930841642728"><ele>654.0</ele><time>2026-04-18T11:05:20.999Z</time></trkpt><trkpt lat="42.56195684353858" lon="-8.380990371876436"><ele>654.0</ele><time>2026-04-18T11:05:21.999Z</time></trkpt><trkpt lat="42.56189017111842" lon="-8.381184497851999"><ele>654.0</ele><time>2026-04-18T11:05:23.999Z</time></trkpt><trkpt lat="42.5618126299908" lon="-8.381238684999907"><ele>654.0</ele><time>2026-04-18T11:05:25.999Z</time></trkpt><trkpt lat="42.561788977994254" lon="-8.38133231140514"><ele>654.0</ele><time>2026-04-18T11:05:26.999Z</time></trkpt><trkpt lat="42.56179464771557" lon="-8.381488789946307"><ele>654.0</ele><time>2026-04-18T11:05:27.999Z</time></trkpt><trkpt lat="42.56187123591736" lon="-8.381642407168352"><ele>654.0</ele><time>2026-04-18T11:05:28.999Z</time></trkpt><trkpt lat="42.561943698811234" lon="-8.381762487223444"><ele>654.0</ele><time>2026-04-18T11:05:29.999Z</time></trkpt><trkpt lat="42.56207449268726" lon="-8.381880174841449"><ele>652.6666666666666</ele><time>2026-04-18T11:05:30.999Z</time></trkpt><trkpt lat="42.562237336941266" lon="-8.381988502514904"><ele>651.3333333333333</ele><time>2026-04-18T11:05:31.999Z</time></trkpt><trkpt lat="42.562442579459464" lon="-8.382145216415903"><ele>650.0</ele><time>2026-04-18T11:05:32.999Z</time></trkpt><trkpt lat="42.562627665214535" lon="-8.382281035909713"><ele>650.0</ele><time>2026-04-18T11:05:33.999Z</time></trkpt><trkpt lat="42.5628109259049" lon="-8.382407425122516"><ele>650.0</ele><time>2026-04-18T11:05:34.999Z</time></trkpt><trkpt lat="42.563008406948434" lon="-8.382557168485251"><ele>650.0</ele><time>2026-04-18T11:05:35.999Z</time></trkpt><trkpt lat="42.563220691027226" lon="-8.382722391494903"><ele>660.0</ele><time>2026-04-18T11:05:36.999Z</time></trkpt><trkpt lat="42.5634885346319" lon="-8.382953129187012"><ele>670.0</ele><time>2026-04-18T11:05:37.999Z</time></trkpt><trkpt lat="42.563741643210335" lon="-8.383158645344857"><ele>674.0</ele><time>2026-04-18T11:05:38.999Z</time></trkpt><trkpt lat="42.56396858525953" lon="-8.38332800028241"><ele>678.0</ele><time>2026-04-18T11:05:39.999Z</time></trkpt><trkpt lat="42.56419094161135" lon="-8.383469475852756"><ele>678.0</ele><time>2026-04-18T11:05:40.999Z</time></trkpt><trkpt lat="42.564371756070564" lon="-8.383579635838103"><ele>678.0</ele><time>2026-04-18T11:05:41.999Z</time></trkpt><trkpt lat="42.56455987622999" lon="-8.383689271224018"><ele>678.0</ele><time>2026-04-18T11:05:42.999Z</time></trkpt><trkpt lat="42.56475712833409" lon="-8.383761843058235"><ele>680.0</ele><time>2026-04-18T11:05:43.999Z</time></trkpt><trkpt lat="42.564925720293076" lon="-8.383870935336564"><ele>682.0</ele><time>2026-04-18T11:05:44.999Z</time></trkpt><trkpt lat="42.56509460823473" lon="-8.383920238765478"><ele>684.0</ele><time>2026-04-18T11:05:45.999Z</time></trkpt><trkpt lat="42.56526775636842" lon="-8.383915274534274"><ele>685.3333333333334</ele><time>2026-04-18T11:05:46.999Z</time></trkpt><trkpt lat="42.56542553725546" lon="-8.383882594703415"><ele>686.6666666666667</ele><time>2026-04-18T11:05:47.999Z</time></trkpt><trkpt lat="42.56557562547501" lon="-8.383810509871578"><ele>688.0</ele><time>2026-04-18T11:05:48.999Z</time></trkpt><trkpt lat="42.565742272494795" lon="-8.383684273437614"><ele>690.0</ele><time>2026-04-18T11:05:49.999Z</time></trkpt><trkpt lat="42.56590632858777" lon="-8.383519766175889"><ele>692.0</ele><time>2026-04-18T11:05:50.999Z</time></trkpt><trkpt lat="42.56605813270957" lon="-8.38335934626716"><ele>694.0</ele><time>2026-04-18T11:05:51.999Z</time></trkpt><trkpt lat="42.56618755966547" lon="-8.3832653343408"><ele>695.75</ele><time>2026-04-18T11:05:52.999Z</time></trkpt><trkpt lat="42.566292616022736" lon="-8.383220067208494"><ele>697.5</ele><time>2026-04-18T11:05:53.999Z</time></trkpt><trkpt lat="42.56640018063856" lon="-8.38321514018555"><ele>699.25</ele><time>2026-04-18T11:05:54.999Z</time></trkpt><trkpt lat="42.56650448708266" lon="-8.383288403905834"><ele>701.0</ele><time>2026-04-18T11:05:55.999Z</time></trkpt><trkpt lat="42.56659833925444" lon="-8.383406878903642"><ele>701.0</ele><time>2026-04-18T11:05:56.999Z</time></trkpt><trkpt lat="42.56669149960786" lon="-8.383574891710268"><ele>701.0</ele><time>2026-04-18T11:05:57.999Z</time></trkpt><trkpt lat="42.56680852887602" lon="-8.383756711217112"><ele>701.0</ele><time>2026-04-18T11:05:58.999Z</time></trkpt><trkpt lat="42.56692090731911" lon="-8.383865534878979"><ele>701.0</ele><time>2026-04-18T11:05:59.999Z</time></trkpt><trkpt lat="42.56699279943218" lon="-8.383891815636394"><ele>701.0</ele><time>2026-04-18T11:06:00.999Z</time></trkpt><trkpt lat="42.56707982014285" lon="-8.38389264968275"><ele>701.0</ele><time>2026-04-18T11:06:01.999Z</time></trkpt><trkpt lat="42.567179824702635" lon="-8.383886189095884"><ele>701.0</ele><time>2026-04-18T11:06:02.999Z</time></trkpt><trkpt lat="42.56725819232204" lon="-8.383793179148821"><ele>701.0</ele><time>2026-04-18T11:06:03.999Z</time></trkpt><trkpt lat="42.567344648359466" lon="-8.383682047908803"><ele>701.3333333333333</ele><time>2026-04-18T11:06:04.999Z</time></trkpt><trkpt lat="42.567458562666225" lon="-8.38351824166672"><ele>701.6666666666666</ele><time>2026-04-18T11:06:05.999Z</time></trkpt><trkpt lat="42.5676129007349" lon="-8.383303357565088"><ele>702.0</ele><time>2026-04-18T11:06:06.999Z</time></trkpt><trkpt lat="42.567783108192145" lon="-8.383047810725744"><ele>701.0</ele><time>2026-04-18T11:06:07.999Z</time></trkpt><trkpt lat="42.567922209768334" lon="-8.382846166953467"><ele>700.0</ele><time>2026-04-18T11:06:08.999Z</time></trkpt><trkpt lat="42.568057139082164" lon="-8.382683379476948"><ele>699.0</ele><time>2026-04-18T11:06:09.998Z</time></trkpt><trkpt lat="42.56816190660666" lon="-8.382566617039359"><ele>699.0</ele><time>2026-04-18T11:06:10.998Z</time></trkpt><trkpt lat="42.568257460288415" lon="-8.382514708819672"><ele>699.0</ele><time>2026-04-18T11:06:11.998Z</time></trkpt><trkpt lat="42.56822108182073" lon="-8.382589387883309"><ele>699.0</ele><time>2026-04-18T11:06:12.998Z</time></trkpt><trkpt lat="42.56829958865645" lon="-8.382640852817826"><ele>699.0</ele><time>2026-04-18T11:06:13.998Z</time></trkpt><trkpt lat="42.56840409271521" lon="-8.382709789143291"><ele>699.0</ele><time>2026-04-18T11:06:14.998Z</time></trkpt><trkpt lat="42.56853196476547" lon="-8.382756423842121"><ele>699.0</ele><time>2026-04-18T11:06:15.998Z</time></trkpt><trkpt lat="42.56865795095204" lon="-8.382796728055851"><ele>699.0</ele><time>2026-04-18T11:06:16.998Z</time></trkpt><trkpt lat="42.56882931348677" lon="-8.38287374135719"><ele>699.0</ele><time>2026-04-18T11:06:17.998Z</time></trkpt><trkpt lat="42.569021565135586" lon="-8.382946445564798"><ele>698.0</ele><time>2026-04-18T11:06:18.998Z</time></trkpt><trkpt lat="42.56922251674585" lon="-8.383013473483404"><ele>697.0</ele><time>2026-04-18T11:06:19.998Z</time></trkpt><trkpt lat="42.56943375003425" lon="-8.3830639166603"><ele>696.0</ele><time>2026-04-18T11:06:20.998Z</time></trkpt><trkpt lat="42.56964938979161" lon="-8.38312943880687"><ele>695.3333333333334</ele><time>2026-04-18T11:06:21.998Z</time></trkpt><trkpt lat="42.56984767916337" lon="-8.38317332662104"><ele>694.6666666666667</ele><time>2026-04-18T11:06:22.998Z</time></trkpt><trkpt lat="42.57004253366053" lon="-8.383219237604575"><ele>694.0</ele><time>2026-04-18T11:06:23.998Z</time></trkpt><trkpt lat="42.57025314627618" lon="-8.383298096061774"><ele>696.0</ele><time>2026-04-18T11:06:24.998Z</time></trkpt><trkpt lat="42.570456445497" lon="-8.383360348510955"><ele>698.0</ele><time>2026-04-18T11:06:25.998Z</time></trkpt><trkpt lat="42.57067595194133" lon="-8.38341400425086"><ele>700.0</ele><time>2026-04-18T11:06:26.998Z</time></trkpt><trkpt lat="42.57090784360415" lon="-8.383452447045189"><ele>700.0</ele><time>2026-04-18T11:06:27.998Z</time></trkpt><trkpt lat="42.571149232684924" lon="-8.383490742721984"><ele>700.0</ele><time>2026-04-18T11:06:28.998Z</time></trkpt><trkpt lat="42.57139753223669" lon="-8.383535758831545"><ele>702.5</ele><time>2026-04-18T11:06:29.998Z</time></trkpt><trkpt lat="42.5716542262254" lon="-8.383577252433106"><ele>705.0</ele><time>2026-04-18T11:06:30.998Z</time></trkpt><trkpt lat="42.57191774773281" lon="-8.383619384528929"><ele>705.5</ele><time>2026-04-18T11:06:31.998Z</time></trkpt><trkpt lat="42.572187940510375" lon="-8.383633259859819"><ele>706.0</ele><time>2026-04-18T11:06:32.998Z</time></trkpt><trkpt lat="42.572415724485595" lon="-8.383609537672339"><ele>706.0</ele><time>2026-04-18T11:06:33.998Z</time></trkpt><trkpt lat="42.572590887698425" lon="-8.383593746071593"><ele>706.0</ele><time>2026-04-18T11:06:34.998Z</time></trkpt><trkpt lat="42.57274814382854" lon="-8.383611714334492"><ele>706.0</ele><time>2026-04-18T11:06:35.998Z</time></trkpt><trkpt lat="42.57289997320963" lon="-8.383652618463044"><ele>706.0</ele><time>2026-04-18T11:06:36.998Z</time></trkpt><trkpt lat="42.57307479397157" lon="-8.383746939124823"><ele>706.0</ele><time>2026-04-18T11:06:37.998Z</time></trkpt><trkpt lat="42.57325098249882" lon="-8.383910022568736"><ele>706.0</ele><time>2026-04-18T11:06:39Z</time></trkpt><trkpt lat="42.57342637807472" lon="-8.384071317666324"><ele>704.6666666666667</ele><time>2026-04-18T11:06:40Z</time></trkpt><trkpt lat="42.57360690935698" lon="-8.384207263900933"><ele>703.3333333333334</ele><time>2026-04-18T11:06:41Z</time></trkpt><trkpt lat="42.573786735759754" lon="-8.384311350898363"><ele>702.0</ele><time>2026-04-18T11:06:42Z</time></trkpt><trkpt lat="42.57397095533813" lon="-8.384403559840566"><ele>702.0</ele><time>2026-04-18T11:06:43Z</time></trkpt><trkpt lat="42.57417820071374" lon="-8.384501317465425"><ele>702.0</ele><time>2026-04-18T11:06:44Z</time></trkpt><trkpt lat="42.57439707775969" lon="-8.384593300009517"><ele>702.0</ele><time>2026-04-18T11:06:45Z</time></trkpt><trkpt lat="42.57460152673082" lon="-8.384687860834404"><ele>700.6666666666666</ele><time>2026-04-18T11:06:46Z</time></trkpt><trkpt lat="42.57479838621135" lon="-8.384776239272151"><ele>699.3333333333333</ele><time>2026-04-18T11:06:47Z</time></trkpt><trkpt lat="42.5750108170486" lon="-8.384867989831015"><ele>698.0</ele><time>2026-04-18T11:06:48Z</time></trkpt><trkpt lat="42.57522865743513" lon="-8.384972948477154"><ele>699.0</ele><time>2026-04-18T11:06:49Z</time></trkpt><trkpt lat="42.57543714947914" lon="-8.385067711287878"><ele>700.0</ele><time>2026-04-18T11:06:50Z</time></trkpt><trkpt lat="42.57566358761363" lon="-8.385158250677229"><ele>700.0</ele><time>2026-04-18T11:06:51Z</time></trkpt><trkpt lat="42.57589601283196" lon="-8.385256650623207"><ele>700.0</ele><time>2026-04-18T11:06:52Z</time></trkpt><trkpt lat="42.57614234240746" lon="-8.385367596012424"><ele>700.5</ele><time>2026-04-18T11:06:53Z</time></trkpt><trkpt lat="42.576397810123645" lon="-8.385480656249854"><ele>701.0</ele><time>2026-04-18T11:06:54Z</time></trkpt><trkpt lat="42.57664762453317" lon="-8.38558338682283"><ele>701.0</ele><time>2026-04-18T11:06:55Z</time></trkpt><trkpt lat="42.57687912721851" lon="-8.385657229631178"><ele>701.0</ele><time>2026-04-18T11:06:56Z</time></trkpt><trkpt lat="42.57710957341323" lon="-8.385709233050784"><ele>702.0</ele><time>2026-04-18T11:06:57Z</time></trkpt><trkpt lat="42.57734296038809" lon="-8.385734315951922"><ele>703.0</ele><time>2026-04-18T11:06:57.999Z</time></trkpt><trkpt lat="42.57758434554474" lon="-8.385753293893927"><ele>703.0</ele><time>2026-04-18T11:06:58.999Z</time></trkpt><trkpt lat="42.57782327634676" lon="-8.385771852457554"><ele>703.0</ele><time>2026-04-18T11:06:59.999Z</time></trkpt><trkpt lat="42.578065058630315" lon="-8.385791446938828"><ele>704.5</ele><time>2026-04-18T11:07:00.999Z</time></trkpt><trkpt lat="42.57831384565272" lon="-8.385812851756803"><ele>706.0</ele><time>2026-04-18T11:07:01.999Z</time></trkpt><trkpt lat="42.5785804434279" lon="-8.385832650677372"><ele>706.5</ele><time>2026-04-18T11:07:02.999Z</time></trkpt><trkpt lat="42.57885413606411" lon="-8.385851823337468"><ele>707.0</ele><time>2026-04-18T11:07:03.999Z</time></trkpt><trkpt lat="42.57913675189327" lon="-8.38588376243788"><ele>707.0</ele><time>2026-04-18T11:07:04.999Z</time></trkpt><trkpt lat="42.5794231831852" lon="-8.385921747454994"><ele>707.0</ele><time>2026-04-18T11:07:05.999Z</time></trkpt><trkpt lat="42.57968588816147" lon="-8.385951415601738"><ele>708.0</ele><time>2026-04-18T11:07:06.999Z</time></trkpt><trkpt lat="42.579907262589636" lon="-8.385991561185236"><ele>709.0</ele><time>2026-04-18T11:07:07.999Z</time></trkpt><trkpt lat="42.58010907829007" lon="-8.38601308142638"><ele>710.0</ele><time>2026-04-18T11:07:08.999Z</time></trkpt><trkpt lat="42.58031619505697" lon="-8.38603313757038"><ele>709.3333333333333</ele><time>2026-04-18T11:07:09.999Z</time></trkpt><trkpt lat="42.58050453072154" lon="-8.386034838856194"><ele>708.6666666666666</ele><time>2026-04-18T11:07:10.999Z</time></trkpt><trkpt lat="42.580675077879086" lon="-8.38602315689723"><ele>708.0</ele><time>2026-04-18T11:07:11.999Z</time></trkpt><trkpt lat="42.58086447449408" lon="-8.385970149799565"><ele>708.0</ele><time>2026-04-18T11:07:12.999Z</time></trkpt><trkpt lat="42.58106790646167" lon="-8.385865561812667"><ele>708.0</ele><time>2026-04-18T11:07:13.999Z</time></trkpt><trkpt lat="42.58127188621903" lon="-8.385756354195902"><ele>708.0</ele><time>2026-04-18T11:07:14.999Z</time></trkpt><trkpt lat="42.581436703482275" lon="-8.385679119576787"><ele>708.0</ele><time>2026-04-18T11:07:15.999Z</time></trkpt><trkpt lat="42.58156266220448" lon="-8.385609715459728"><ele>708.0</ele><time>2026-04-18T11:07:16.999Z</time></trkpt><trkpt lat="42.5816891271441" lon="-8.385542622053414"><ele>708.0</ele><time>2026-04-18T11:07:17.999Z</time></trkpt><trkpt lat="42.58180250310742" lon="-8.385494692508594"><ele>708.0</ele><time>2026-04-18T11:07:18.999Z</time></trkpt><trkpt lat="42.581874849893524" lon="-8.385464287975678"><ele>708.0</ele><time>2026-04-18T11:07:19.999Z</time></trkpt><trkpt lat="42.5819393558797" lon="-8.38557236340964"><ele>708.0</ele><time>2026-04-18T11:07:21.999Z</time></trkpt><trkpt lat="42.58196326872118" lon="-8.385696004556182"><ele>708.0</ele><time>2026-04-18T11:07:22.999Z</time></trkpt><trkpt lat="42.58204156149196" lon="-8.385821437886742"><ele>708.0</ele><time>2026-04-18T11:07:23.999Z</time></trkpt><trkpt lat="42.582143080000996" lon="-8.385915629314239"><ele>708.0</ele><time>2026-04-18T11:07:24.999Z</time></trkpt><trkpt lat="42.58223851470922" lon="-8.385994620042144"><ele>708.25</ele><time>2026-04-18T11:07:25.999Z</time></trkpt><trkpt lat="42.582329073389594" lon="-8.386084968863948"><ele>708.5</ele><time>2026-04-18T11:07:26.999Z</time></trkpt><trkpt lat="42.58242481663884" lon="-8.386185661489913"><ele>708.75</ele><time>2026-04-18T11:07:27.999Z</time></trkpt><trkpt lat="42.58252519010002" lon="-8.386287207109996"><ele>709.0</ele><time>2026-04-18T11:07:28.999Z</time></trkpt><trkpt lat="42.58262672838015" lon="-8.386389107827018"><ele>708.6</ele><time>2026-04-18T11:07:29.999Z</time></trkpt><trkpt lat="42.582713924276064" lon="-8.386479114558437"><ele>708.2</ele><time>2026-04-18T11:07:30.999Z</time></trkpt><trkpt lat="42.58277612350248" lon="-8.386550630621905"><ele>707.8000000000001</ele><time>2026-04-18T11:07:31.999Z</time></trkpt><trkpt lat="42.582838255961434" lon="-8.386614016621166"><ele>707.4000000000001</ele><time>2026-04-18T11:07:32.999Z</time></trkpt><trkpt lat="42.58290664531732" lon="-8.386690287192895"><ele>707.0</ele><time>2026-04-18T11:07:33.999Z</time></trkpt><trkpt lat="42.582982062483296" lon="-8.3867646881948"><ele>707.0</ele><time>2026-04-18T11:07:34.999Z</time></trkpt><trkpt lat="42.583058244718345" lon="-8.386851145520273"><ele>707.0</ele><time>2026-04-18T11:07:35.999Z</time></trkpt><trkpt lat="42.58313081204416" lon="-8.386942917376217"><ele>707.0</ele><time>2026-04-18T11:07:36.999Z</time></trkpt><trkpt lat="42.58319430971971" lon="-8.38702022451337"><ele>707.0</ele><time>2026-04-18T11:07:37.999Z</time></trkpt><trkpt lat="42.58325953601303" lon="-8.387087329602464"><ele>707.0</ele><time>2026-04-18T11:07:38.999Z</time></trkpt><trkpt lat="42.58333293042095" lon="-8.387162791569308"><ele>705.6</ele><time>2026-04-18T11:07:39.999Z</time></trkpt><trkpt lat="42.583409942150816" lon="-8.3872388343628"><ele>704.2</ele><time>2026-04-18T11:07:40.999Z</time></trkpt><trkpt lat="42.58348569702524" lon="-8.387314742926561"><ele>702.8</ele><time>2026-04-18T11:07:41.999Z</time></trkpt><trkpt lat="42.58355622890073" lon="-8.387391552604571"><ele>701.4</ele><time>2026-04-18T11:07:42.999Z</time></trkpt><trkpt lat="42.583624021995355" lon="-8.387465829440574"><ele>700.0</ele><time>2026-04-18T11:07:43.999Z</time></trkpt><trkpt lat="42.583697777288926" lon="-8.387539028352286"><ele>699.6666666666667</ele><time>2026-04-18T11:07:44.999Z</time></trkpt><trkpt lat="42.58377197696116" lon="-8.387603761034006"><ele>699.3333333333334</ele><time>2026-04-18T11:07:45.999Z</time></trkpt><trkpt lat="42.583846140455485" lon="-8.387674235920153"><ele>699.0</ele><time>2026-04-18T11:07:46.999Z</time></trkpt><trkpt lat="42.58391322694589" lon="-8.387743377249784"><ele>698.6666666666666</ele><time>2026-04-18T11:07:47.999Z</time></trkpt><trkpt lat="42.58398088123956" lon="-8.38781235161943"><ele>698.3333333333333</ele><time>2026-04-18T11:07:48.999Z</time></trkpt><trkpt lat="42.58404824769005" lon="-8.387884594905287"><ele>698.0</ele><time>2026-04-18T11:07:49.999Z</time></trkpt><trkpt lat="42.5841185673898" lon="-8.387950608855272"><ele>696.8333333333333</ele><time>2026-04-18T11:07:50.999Z</time></trkpt><trkpt lat="42.58418903885449" lon="-8.388015967309833"><ele>695.6666666666666</ele><time>2026-04-18T11:07:51.999Z</time></trkpt><trkpt lat="42.58425479690777" lon="-8.388079376936076"><ele>694.5</ele><time>2026-04-18T11:07:52.999Z</time></trkpt><trkpt lat="42.58432827076923" lon="-8.388157125046503"><ele>693.3333333333334</ele><time>2026-04-18T11:07:53.999Z</time></trkpt><trkpt lat="42.58439457240286" lon="-8.388226995465148"><ele>692.1666666666667</ele><time>2026-04-18T11:07:54.999Z</time></trkpt><trkpt lat="42.584469587336145" lon="-8.388306055625986"><ele>691.0</ele><time>2026-04-18T11:07:55.999Z</time></trkpt><trkpt lat="42.58454238560435" lon="-8.388386574666006"><ele>690.8333333333334</ele><time>2026-04-18T11:07:56.999Z</time></trkpt><trkpt lat="42.58461516506338" lon="-8.388466220311544"><ele>690.6666666666667</ele><time>2026-04-18T11:07:57.999Z</time></trkpt><trkpt lat="42.5846858869371" lon="-8.388538115408306"><ele>690.5</ele><time>2026-04-18T11:07:58.999Z</time></trkpt><trkpt lat="42.5847527226533" lon="-8.388616658638847"><ele>690.3333333333334</ele><time>2026-04-18T11:07:59.999Z</time></trkpt><trkpt lat="42.584814413985086" lon="-8.388694821282352"><ele>690.1666666666666</ele><time>2026-04-18T11:08:00.999Z</time></trkpt><trkpt lat="42.58487433973025" lon="-8.388774404492139"><ele>690.0</ele><time>2026-04-18T11:08:01.999Z</time></trkpt><trkpt lat="42.584931838632905" lon="-8.388855388612239"><ele>688.8</ele><time>2026-04-18T11:08:02.999Z</time></trkpt><trkpt lat="42.584992213615116" lon="-8.388948725044242"><ele>687.6</ele><time>2026-04-18T11:08:03.999Z</time></trkpt><trkpt lat="42.58506250533116" lon="-8.389040975556329"><ele>686.4000000000001</ele><time>2026-04-18T11:08:04.999Z</time></trkpt><trkpt lat="42.58513069417575" lon="-8.389138134304842"><ele>685.2</ele><time>2026-04-18T11:08:05.999Z</time></trkpt><trkpt lat="42.585197888885084" lon="-8.38923343797615"><ele>684.0</ele><time>2026-04-18T11:08:06.999Z</time></trkpt><trkpt lat="42.58526003663418" lon="-8.389328519787085"><ele>684.0</ele><time>2026-04-18T11:08:07.999Z</time></trkpt><trkpt lat="42.585316377219144" lon="-8.389423322060566"><ele>684.0</ele><time>2026-04-18T11:08:08.999Z</time></trkpt><trkpt lat="42.5853760359984" lon="-8.389521897783023"><ele>684.0</ele><time>2026-04-18T11:08:09.999Z</time></trkpt><trkpt lat="42.58544060410784" lon="-8.38961674859504"><ele>684.0</ele><time>2026-04-18T11:08:10.999Z</time></trkpt><trkpt lat="42.5855043995757" lon="-8.389705150380962"><ele>684.0</ele><time>2026-04-18T11:08:11.999Z</time></trkpt><trkpt lat="42.585568880636714" lon="-8.389799579161798"><ele>682.2</ele><time>2026-04-18T11:08:12.999Z</time></trkpt><trkpt lat="42.58563319031067" lon="-8.389889618412909"><ele>680.4000000000001</ele><time>2026-04-18T11:08:13.999Z</time></trkpt><trkpt lat="42.5856976008511" lon="-8.38998517511908"><ele>678.6</ele><time>2026-04-18T11:08:14.999Z</time></trkpt><trkpt lat="42.58576118587937" lon="-8.390083056263228"><ele>676.8</ele><time>2026-04-18T11:08:15.999Z</time></trkpt><trkpt lat="42.58582405555923" lon="-8.39018450496673"><ele>675.0</ele><time>2026-04-18T11:08:16.999Z</time></trkpt><trkpt lat="42.585891418672134" lon="-8.390270945913926"><ele>675.0</ele><time>2026-04-18T11:08:17.999Z</time></trkpt><trkpt lat="42.585957889025565" lon="-8.390359706105047"><ele>675.0</ele><time>2026-04-18T11:08:18.999Z</time></trkpt><trkpt lat="42.586023842535546" lon="-8.390450721732064"><ele>675.0</ele><time>2026-04-18T11:08:19.999Z</time></trkpt><trkpt lat="42.58609011122985" lon="-8.390544476215336"><ele>675.0</ele><time>2026-04-18T11:08:20.999Z</time></trkpt><trkpt lat="42.58615315501011" lon="-8.390630280213852"><ele>675.0</ele><time>2026-04-18T11:08:21.998Z</time></trkpt><trkpt lat="42.58621308077851" lon="-8.39072654247047"><ele>672.6666666666666</ele><time>2026-04-18T11:08:22.998Z</time></trkpt><trkpt lat="42.586259304598954" lon="-8.39082721756823"><ele>670.3333333333334</ele><time>2026-04-18T11:08:23.998Z</time></trkpt><trkpt lat="42.58629677200285" lon="-8.390942920375482"><ele>668.0</ele><time>2026-04-18T11:08:24.998Z</time></trkpt><trkpt lat="42.58631049173639" lon="-8.391054997548292"><ele>665.6666666666667</ele><time>2026-04-18T11:08:25.998Z</time></trkpt><trkpt lat="42.58629677380688" lon="-8.391175255965157"><ele>663.3333333333334</ele><time>2026-04-18T11:08:26.998Z</time></trkpt><trkpt lat="42.58624986106774" lon="-8.391287039051786"><ele>661.0</ele><time>2026-04-18T11:08:27.998Z</time></trkpt><trkpt lat="42.58618412257227" lon="-8.391385623010962"><ele>661.0</ele><time>2026-04-18T11:08:28.998Z</time></trkpt><trkpt lat="42.58610341683345" lon="-8.391469066584767"><ele>661.0</ele><time>2026-04-18T11:08:29.998Z</time></trkpt><trkpt lat="42.58602985148812" lon="-8.391548913216294"><ele>661.0</ele><time>2026-04-18T11:08:30.998Z</time></trkpt><trkpt lat="42.58595005028773" lon="-8.391629833499621"><ele>661.0</ele><time>2026-04-18T11:08:31.998Z</time></trkpt><trkpt lat="42.58586834679681" lon="-8.39171086978041"><ele>661.0</ele><time>2026-04-18T11:08:32.998Z</time></trkpt><trkpt lat="42.585792832622026" lon="-8.391795888465683"><ele>661.0</ele><time>2026-04-18T11:08:33.998Z</time></trkpt><trkpt lat="42.585725540144885" lon="-8.391875146270861"><ele>661.0</ele><time>2026-04-18T11:08:34.998Z</time></trkpt><trkpt lat="42.58565642124795" lon="-8.391946481572335"><ele>661.0</ele><time>2026-04-18T11:08:35.998Z</time></trkpt><trkpt lat="42.58558582568677" lon="-8.392017335543363"><ele>661.0</ele><time>2026-04-18T11:08:36.998Z</time></trkpt><trkpt lat="42.58551551922496" lon="-8.392100067761989"><ele>661.0</ele><time>2026-04-18T11:08:37.998Z</time></trkpt><trkpt lat="42.585446245852665" lon="-8.39218279689278"><ele>661.0</ele><time>2026-04-18T11:08:38.998Z</time></trkpt><trkpt lat="42.585373877812124" lon="-8.392250142680773"><ele>660.5</ele><time>2026-04-18T11:08:39.998Z</time></trkpt><trkpt lat="42.58529342606132" lon="-8.392301350400576"><ele>660.0</ele><time>2026-04-18T11:08:40.998Z</time></trkpt><trkpt lat="42.585204960191405" lon="-8.392324766029036"><ele>659.5</ele><time>2026-04-18T11:08:41.998Z</time></trkpt><trkpt lat="42.58512056935444" lon="-8.392296551028139"><ele>659.0</ele><time>2026-04-18T11:08:42.998Z</time></trkpt><trkpt lat="42.585049368671775" lon="-8.39222699628071"><ele>658.5</ele><time>2026-04-18T11:08:43.998Z</time></trkpt><trkpt lat="42.584990215899445" lon="-8.392129141593006"><ele>658.0</ele><time>2026-04-18T11:08:45Z</time></trkpt><trkpt lat="42.58491939899418" lon="-8.39203263515178"><ele>658.0</ele><time>2026-04-18T11:08:46Z</time></trkpt><trkpt lat="42.58484325924883" lon="-8.391951576241322"><ele>658.0</ele><time>2026-04-18T11:08:47Z</time></trkpt><trkpt lat="42.58475790966" lon="-8.391888134869905"><ele>658.0</ele><time>2026-04-18T11:08:48Z</time></trkpt><trkpt lat="42.58467824547865" lon="-8.391862876534322"><ele>658.0</ele><time>2026-04-18T11:08:49Z</time></trkpt><trkpt lat="42.584597081024214" lon="-8.391883223109101"><ele>658.0</ele><time>2026-04-18T11:08:50Z</time></trkpt><trkpt lat="42.584493820530916" lon="-8.391937760762035"><ele>657.4</ele><time>2026-04-18T11:08:51Z</time></trkpt><trkpt lat="42.584414397979835" lon="-8.392023682708752"><ele>656.8</ele><time>2026-04-18T11:08:52Z</time></trkpt><trkpt lat="42.584323782801384" lon="-8.39210005586495"><ele>656.2</ele><time>2026-04-18T11:08:53Z</time></trkpt><trkpt lat="42.58423302579753" lon="-8.392150130248611"><ele>655.6</ele><time>2026-04-18T11:08:54Z</time></trkpt><trkpt lat="42.584164347746295" lon="-8.392191817402566"><ele>655.0</ele><time>2026-04-18T11:08:55Z</time></trkpt><trkpt lat="42.58408573840056" lon="-8.392247004086592"><ele>652.8</ele><time>2026-04-18T11:08:56Z</time></trkpt><trkpt lat="42.58400978279564" lon="-8.392320874358465"><ele>650.6</ele><time>2026-04-18T11:08:57Z</time></trkpt><trkpt lat="42.583926546266014" lon="-8.39239466580133"><ele>648.4000000000001</ele><time>2026-04-18T11:08:58Z</time></trkpt><trkpt lat="42.583833999374114" lon="-8.392444312686326"><ele>646.2</ele><time>2026-04-18T11:08:59Z</time></trkpt><trkpt lat="42.58375350206876" lon="-8.392487046906732"><ele>644.0</ele><time>2026-04-18T11:09:00Z</time></trkpt><trkpt lat="42.58366581898374" lon="-8.392525960528628"><ele>642.8000000000001</ele><time>2026-04-18T11:09:01Z</time></trkpt><trkpt lat="42.58358429291868" lon="-8.392542180170164"><ele>641.6</ele><time>2026-04-18T11:09:02Z</time></trkpt><trkpt lat="42.58349202906798" lon="-8.392537575776995"><ele>640.4</ele><time>2026-04-18T11:09:03Z</time></trkpt><trkpt lat="42.583393804553204" lon="-8.392513926702405"><ele>639.2</ele><time>2026-04-18T11:09:04Z</time></trkpt><trkpt lat="42.583290460716775" lon="-8.392468930994205"><ele>638.0</ele><time>2026-04-18T11:09:05Z</time></trkpt><trkpt lat="42.583173169988605" lon="-8.392388878176655"><ele>638.0</ele><time>2026-04-18T11:09:06Z</time></trkpt><trkpt lat="42.58305530929961" lon="-8.392289312208733"><ele>638.0</ele><time>2026-04-18T11:09:07Z</time></trkpt><trkpt lat="42.58291346572019" lon="-8.392211198700075"><ele>638.0</ele><time>2026-04-18T11:09:08Z</time></trkpt><trkpt lat="42.5827831953905" lon="-8.392162272401142"><ele>638.0</ele><time>2026-04-18T11:09:09Z</time></trkpt><trkpt lat="42.58268579537864" lon="-8.392126320287034"><ele>638.5999999999999</ele><time>2026-04-18T11:09:10Z</time></trkpt><trkpt lat="42.582622049448986" lon="-8.392131872972465"><ele>639.1999999999999</ele><time>2026-04-18T11:09:11Z</time></trkpt><trkpt lat="42.58259405089075" lon="-8.392234729852765"><ele>639.8</ele><time>2026-04-18T11:09:12.999Z</time></trkpt><trkpt lat="42.58266833862348" lon="-8.392353978300058"><ele>640.4</ele><time>2026-04-18T11:09:14.999Z</time></trkpt><trkpt lat="42.58271560209272" lon="-8.392440125521802"><ele>641.0</ele><time>2026-04-18T11:09:15.999Z</time></trkpt><trkpt lat="42.5825350445963" lon="-8.392416102839718"><ele>633.5</ele><time>2026-04-18T11:09:16.999Z</time></trkpt><trkpt lat="42.58249158257349" lon="-8.392568180604236"><ele>626.0</ele><time>2026-04-18T11:09:18.999Z</time></trkpt><trkpt lat="42.582740994559444" lon="-8.393024209556604"><ele>625.6666666666666</ele><time>2026-04-18T11:09:19.999Z</time></trkpt><trkpt lat="42.58285448769464" lon="-8.393185220632862"><ele>625.3333333333334</ele><time>2026-04-18T11:09:20.999Z</time></trkpt><trkpt lat="42.58301414497553" lon="-8.39330942710276"><ele>625.0</ele><time>2026-04-18T11:09:21.999Z</time></trkpt><trkpt lat="42.58325339590718" lon="-8.393379469346081"><ele>625.0</ele><time>2026-04-18T11:09:22.999Z</time></trkpt><trkpt lat="42.583545100074495" lon="-8.393401326173601"><ele>625.0</ele><time>2026-04-18T11:09:23.999Z</time></trkpt><trkpt lat="42.583800130000746" lon="-8.39339276281319"><ele>627.3333333333334</ele><time>2026-04-18T11:09:24.999Z</time></trkpt><trkpt lat="42.58401535064947" lon="-8.393371751346889"><ele>629.6666666666666</ele><time>2026-04-18T11:09:25.999Z</time></trkpt><trkpt lat="42.58414535416335" lon="-8.393354279093064"><ele>632.0</ele><time>2026-04-18T11:09:26.999Z</time></trkpt><trkpt lat="42.58425008049356" lon="-8.393341323021591"><ele>632.0</ele><time>2026-04-18T11:09:27.999Z</time></trkpt><trkpt lat="42.584313570737564" lon="-8.393411856586342"><ele>632.0</ele><time>2026-04-18T11:09:28.999Z</time></trkpt><trkpt lat="42.58431817020947" lon="-8.393537840867939"><ele>632.0</ele><time>2026-04-18T11:09:29.999Z</time></trkpt><trkpt lat="42.584355100868656" lon="-8.393699879213623"><ele>632.0</ele><time>2026-04-18T11:09:30.999Z</time></trkpt><trkpt lat="42.584455895118495" lon="-8.393951945072592"><ele>631.0</ele><time>2026-04-18T11:09:31.999Z</time></trkpt><trkpt lat="42.58454433011055" lon="-8.39413717855791"><ele>630.0</ele><time>2026-04-18T11:09:32.999Z</time></trkpt><trkpt lat="42.58463361312327" lon="-8.394273845033958"><ele>629.0</ele><time>2026-04-18T11:09:33.999Z</time></trkpt><trkpt lat="42.584703017429746" lon="-8.394349140042829"><ele>628.0</ele><time>2026-04-18T11:09:34.999Z</time></trkpt><trkpt lat="42.584794739929684" lon="-8.394402079910165"><ele>628.0</ele><time>2026-04-18T11:09:35.999Z</time></trkpt><trkpt lat="42.58492398663325" lon="-8.3944272021435"><ele>628.0</ele><time>2026-04-18T11:09:36.999Z</time></trkpt><trkpt lat="42.58515137456202" lon="-8.394364505691271"><ele>628.0</ele><time>2026-04-18T11:09:37.999Z</time></trkpt><trkpt lat="42.585350523986165" lon="-8.394286924603625"><ele>625.5</ele><time>2026-04-18T11:09:38.999Z</time></trkpt><trkpt lat="42.585556827307656" lon="-8.394168525813807"><ele>623.0</ele><time>2026-04-18T11:09:39.999Z</time></trkpt><trkpt lat="42.58575543842169" lon="-8.393951940743033"><ele>631.5</ele><time>2026-04-18T11:09:40.999Z</time></trkpt><trkpt lat="42.58596034020098" lon="-8.393682331537187"><ele>640.0</ele><time>2026-04-18T11:09:41.999Z</time></trkpt><trkpt lat="42.586127174576745" lon="-8.393489579404129"><ele>637.3333333333334</ele><time>2026-04-18T11:09:42.999Z</time></trkpt><trkpt lat="42.586295799774376" lon="-8.393388668690095"><ele>634.6666666666666</ele><time>2026-04-18T11:09:43.999Z</time></trkpt><trkpt lat="42.58650335212734" lon="-8.393331847599088"><ele>632.0</ele><time>2026-04-18T11:09:44.999Z</time></trkpt><trkpt lat="42.586643353258836" lon="-8.393263614476947"><ele>632.0</ele><time>2026-04-18T11:09:45.999Z</time></trkpt><trkpt lat="42.586848912863275" lon="-8.393061362486854"><ele>632.0</ele><time>2026-04-18T11:09:46.999Z</time></trkpt><trkpt lat="42.58707620431234" lon="-8.392860281028625"><ele>635.0</ele><time>2026-04-18T11:09:47.999Z</time></trkpt><trkpt lat="42.58730064522324" lon="-8.392686560300728"><ele>638.0</ele><time>2026-04-18T11:09:48.999Z</time></trkpt><trkpt lat="42.587485572583724" lon="-8.392466256535483"><ele>638.0</ele><time>2026-04-18T11:09:49.999Z</time></trkpt><trkpt lat="42.58760816908646" lon="-8.392306485264324"><ele>638.0</ele><time>2026-04-18T11:09:50.999Z</time></trkpt><trkpt lat="42.58769689239984" lon="-8.392135210338068"><ele>638.0</ele><time>2026-04-18T11:09:51.999Z</time></trkpt><trkpt lat="42.587748490237146" lon="-8.391963439895942"><ele>640.3333333333333</ele><time>2026-04-18T11:09:52.999Z</time></trkpt><trkpt lat="42.58777668540887" lon="-8.391758450488844"><ele>642.6666666666666</ele><time>2026-04-18T11:09:53.999Z</time></trkpt><trkpt lat="42.58779809574674" lon="-8.391528417336108"><ele>645.0</ele><time>2026-04-18T11:09:54.999Z</time></trkpt><trkpt lat="42.587801885590586" lon="-8.391352753716586"><ele>646.0</ele><time>2026-04-18T11:09:55.999Z</time></trkpt><trkpt lat="42.587764551171716" lon="-8.391194741478445"><ele>647.0</ele><time>2026-04-18T11:09:56.999Z</time></trkpt><trkpt lat="42.587771307151336" lon="-8.391045549894187"><ele>648.0</ele><time>2026-04-18T11:09:57.999Z</time></trkpt><trkpt lat="42.58778333983817" lon="-8.390939082308716"><ele>649.0</ele><time>2026-04-18T11:09:59.999Z</time></trkpt><trkpt lat="42.587870299955114" lon="-8.390925764534645"><ele>650.0</ele><time>2026-04-18T11:10:01.999Z</time></trkpt><trkpt lat="42.58794930668218" lon="-8.390939469654825"><ele>646.3333333333333</ele><time>2026-04-18T11:10:02.999Z</time></trkpt><trkpt lat="42.58807448253064" lon="-8.39096189837171"><ele>642.6666666666666</ele><time>2026-04-18T11:10:03.999Z</time></trkpt><trkpt lat="42.588340305520425" lon="-8.390951657050655"><ele>639.0</ele><time>2026-04-18T11:10:04.999Z</time></trkpt><trkpt lat="42.588627491525926" lon="-8.390985610508586"><ele>642.5</ele><time>2026-04-18T11:10:05.999Z</time></trkpt><trkpt lat="42.588857973668645" lon="-8.391055031901047"><ele>646.0</ele><time>2026-04-18T11:10:06.999Z</time></trkpt><trkpt lat="42.589079404700385" lon="-8.391089407642397"><ele>646.0</ele><time>2026-04-18T11:10:07.999Z</time></trkpt><trkpt lat="42.58926537867553" lon="-8.391120973515184"><ele>646.0</ele><time>2026-04-18T11:10:08.999Z</time></trkpt><trkpt lat="42.589443477313914" lon="-8.391197306912337"><ele>646.0</ele><time>2026-04-18T11:10:09.999Z</time></trkpt><trkpt lat="42.58956301920987" lon="-8.391354299430835"><ele>645.0</ele><time>2026-04-18T11:10:10.999Z</time></trkpt><trkpt lat="42.589694241137664" lon="-8.391544299757106"><ele>644.0</ele><time>2026-04-18T11:10:11.999Z</time></trkpt><trkpt lat="42.589836308905355" lon="-8.391736939501731"><ele>643.0</ele><time>2026-04-18T11:10:12.999Z</time></trkpt><trkpt lat="42.58997397380633" lon="-8.391862669519899"><ele>643.0</ele><time>2026-04-18T11:10:13.999Z</time></trkpt><trkpt lat="42.59008282412217" lon="-8.391900353747516"><ele>643.0</ele><time>2026-04-18T11:10:14.999Z</time></trkpt><trkpt lat="42.59020625447978" lon="-8.391886481920624"><ele>643.0</ele><time>2026-04-18T11:10:15.999Z</time></trkpt><trkpt lat="42.59035065875337" lon="-8.391832839359079"><ele>643.0</ele><time>2026-04-18T11:10:16.999Z</time></trkpt><trkpt lat="42.59049376666992" lon="-8.391780883230627"><ele>642.3333333333334</ele><time>2026-04-18T11:10:17.999Z</time></trkpt><trkpt lat="42.590631320846654" lon="-8.391657133677557"><ele>641.6666666666666</ele><time>2026-04-18T11:10:18.999Z</time></trkpt><trkpt lat="42.59075984680268" lon="-8.391470342500444"><ele>641.0</ele><time>2026-04-18T11:10:19.999Z</time></trkpt><trkpt lat="42.590911269264204" lon="-8.391287926855313"><ele>642.6666666666666</ele><time>2026-04-18T11:10:20.999Z</time></trkpt><trkpt lat="42.591061485919774" lon="-8.391065725810176"><ele>644.3333333333334</ele><time>2026-04-18T11:10:21.999Z</time></trkpt><trkpt lat="42.59119419237165" lon="-8.390866198970985"><ele>646.0</ele><time>2026-04-18T11:10:22.999Z</time></trkpt><trkpt lat="42.591293156867145" lon="-8.390676226183563"><ele>646.0</ele><time>2026-04-18T11:10:23.999Z</time></trkpt><trkpt lat="42.5913067641765" lon="-8.390537168696854"><ele>646.0</ele><time>2026-04-18T11:10:24.999Z</time></trkpt><trkpt lat="42.59131301490312" lon="-8.390299860071604"><ele>646.0</ele><time>2026-04-18T11:10:25.999Z</time></trkpt><trkpt lat="42.591281752604466" lon="-8.39010412252623"><ele>646.0</ele><time>2026-04-18T11:10:26.999Z</time></trkpt><trkpt lat="42.591211428765895" lon="-8.389954645694832"><ele>649.25</ele><time>2026-04-18T11:10:27.999Z</time></trkpt><trkpt lat="42.59111405932313" lon="-8.389757640337987"><ele>652.5</ele><time>2026-04-18T11:10:28.999Z</time></trkpt><trkpt lat="42.591050868262954" lon="-8.389593690597607"><ele>655.75</ele><time>2026-04-18T11:10:29.999Z</time></trkpt><trkpt lat="42.59104767250278" lon="-8.389412061610136"><ele>659.0</ele><time>2026-04-18T11:10:30.999Z</time></trkpt><trkpt lat="42.59108095033791" lon="-8.38925940622053"><ele>660.0</ele><time>2026-04-18T11:10:31.999Z</time></trkpt><trkpt lat="42.59113389670805" lon="-8.389063271866043"><ele>661.0</ele><time>2026-04-18T11:10:32.999Z</time></trkpt><trkpt lat="42.59113028037997" lon="-8.38888069244043"><ele>662.0</ele><time>2026-04-18T11:10:33.999Z</time></trkpt><trkpt lat="42.5911507789457" lon="-8.388553958218253"><ele>662.5</ele><time>2026-04-18T11:10:34.999Z</time></trkpt><trkpt lat="42.59118007629662" lon="-8.388318900122377"><ele>663.0</ele><time>2026-04-18T11:10:35.999Z</time></trkpt><trkpt lat="42.59122281566234" lon="-8.38820198995906"><ele>663.5</ele><time>2026-04-18T11:10:36.999Z</time></trkpt><trkpt lat="42.59128233054044" lon="-8.388082578454393"><ele>664.0</ele><time>2026-04-18T11:10:37.999Z</time></trkpt><trkpt lat="42.59140660712512" lon="-8.388063070782763"><ele>664.0</ele><time>2026-04-18T11:10:39.998Z</time></trkpt><trkpt lat="42.59149173307173" lon="-8.388192540206289"><ele>664.0</ele><time>2026-04-18T11:10:40.998Z</time></trkpt><trkpt lat="42.59163650087203" lon="-8.388369758349043"><ele>664.0</ele><time>2026-04-18T11:10:41.998Z</time></trkpt><trkpt lat="42.59179855567119" lon="-8.388532805241859"><ele>664.0</ele><time>2026-04-18T11:10:42.998Z</time></trkpt><trkpt lat="42.59196248715328" lon="-8.38866420316217"><ele>664.0</ele><time>2026-04-18T11:10:43.998Z</time></trkpt><trkpt lat="42.59216599323667" lon="-8.388828626677755"><ele>664.0</ele><time>2026-04-18T11:10:44.998Z</time></trkpt><trkpt lat="42.59238567304562" lon="-8.389028952613755"><ele>663.0</ele><time>2026-04-18T11:10:45.998Z</time></trkpt><trkpt lat="42.59261687568346" lon="-8.389270523129902"><ele>662.0</ele><time>2026-04-18T11:10:46.998Z</time></trkpt><trkpt lat="42.59281911702544" lon="-8.389498046482977"><ele>663.5</ele><time>2026-04-18T11:10:47.998Z</time></trkpt><trkpt lat="42.59300041964761" lon="-8.389717746783623"><ele>665.0</ele><time>2026-04-18T11:10:48.998Z</time></trkpt><trkpt lat="42.593132754764326" lon="-8.389933739425034"><ele>665.0</ele><time>2026-04-18T11:10:49.998Z</time></trkpt><trkpt lat="42.59323187453642" lon="-8.390088260695737"><ele>665.0</ele><time>2026-04-18T11:10:51Z</time></trkpt><trkpt lat="42.59327819098658" lon="-8.390156562597197"><ele>665.0</ele><time>2026-04-18T11:10:52Z</time></trkpt><trkpt lat="42.59339630590612" lon="-8.390216701742867"><ele>665.0</ele><time>2026-04-18T11:10:53Z</time></trkpt><trkpt lat="42.593536006154565" lon="-8.390236338388593"><ele>667.3333333333333</ele><time>2026-04-18T11:10:54Z</time></trkpt><trkpt lat="42.593702744595866" lon="-8.390256376239693"><ele>669.6666666666666</ele><time>2026-04-18T11:10:55Z</time></trkpt><trkpt lat="42.59387588045495" lon="-8.390292041817622"><ele>672.0</ele><time>2026-04-18T11:10:56Z</time></trkpt><trkpt lat="42.594016709189084" lon="-8.39035653125556"><ele>672.0</ele><time>2026-04-18T11:10:57Z</time></trkpt><trkpt lat="42.5940891906311" lon="-8.390493365047183"><ele>672.0</ele><time>2026-04-18T11:10:58Z</time></trkpt><trkpt lat="42.59416001879278" lon="-8.390684728066278"><ele>672.0</ele><time>2026-04-18T11:10:59Z</time></trkpt><trkpt lat="42.59424323596405" lon="-8.390898526681296"><ele>671.6666666666666</ele><time>2026-04-18T11:11:00Z</time></trkpt><trkpt lat="42.59435339216443" lon="-8.391174093696293"><ele>671.3333333333333</ele><time>2026-04-18T11:11:01Z</time></trkpt><trkpt lat="42.594434728635164" lon="-8.391427029376933"><ele>671.0</ele><time>2026-04-18T11:11:02Z</time></trkpt><trkpt lat="42.59452861040433" lon="-8.39167577551444"><ele>674.0</ele><time>2026-04-18T11:11:03Z</time></trkpt><trkpt lat="42.594654152522594" lon="-8.391906392605401"><ele>677.0</ele><time>2026-04-18T11:11:04Z</time></trkpt><trkpt lat="42.59480242318704" lon="-8.392140053509978"><ele>680.0</ele><time>2026-04-18T11:11:05Z</time></trkpt><trkpt lat="42.594943604846314" lon="-8.392351829667913"><ele>680.0</ele><time>2026-04-18T11:11:06Z</time></trkpt><trkpt lat="42.59506178530832" lon="-8.39253169580998"><ele>680.0</ele><time>2026-04-18T11:11:07Z</time></trkpt><trkpt lat="42.59513600675012" lon="-8.392686493034148"><ele>680.0</ele><time>2026-04-18T11:11:08Z</time></trkpt><trkpt lat="42.5951680437626" lon="-8.392828337220976"><ele>680.0</ele><time>2026-04-18T11:11:09Z</time></trkpt><trkpt lat="42.5951717372104" lon="-8.392977043242347"><ele>680.6666666666666</ele><time>2026-04-18T11:11:10Z</time></trkpt><trkpt lat="42.59513710976904" lon="-8.393180707422884"><ele>681.3333333333334</ele><time>2026-04-18T11:11:11Z</time></trkpt><trkpt lat="42.59507370329308" lon="-8.393389844600627"><ele>682.0</ele><time>2026-04-18T11:11:12Z</time></trkpt><trkpt lat="42.59501885218893" lon="-8.393657381579034"><ele>682.0</ele><time>2026-04-18T11:11:13Z</time></trkpt><trkpt lat="42.59495979999092" lon="-8.393765456161168"><ele>682.0</ele><time>2026-04-18T11:11:14Z</time></trkpt><trkpt lat="42.59487447429148" lon="-8.393858585832051"><ele>682.0</ele><time>2026-04-18T11:11:15Z</time></trkpt><trkpt lat="42.59474687730589" lon="-8.393933777159285"><ele>682.0</ele><time>2026-04-18T11:11:16Z</time></trkpt><trkpt lat="42.594579137179394" lon="-8.394002623939603"><ele>681.75</ele><time>2026-04-18T11:11:17Z</time></trkpt><trkpt lat="42.59447890101068" lon="-8.394049938140368"><ele>681.5</ele><time>2026-04-18T11:11:18Z</time></trkpt><trkpt lat="42.59441569754947" lon="-8.39420604638009"><ele>681.25</ele><time>2026-04-18T11:11:19Z</time></trkpt><trkpt lat="42.5943584616243" lon="-8.39440100919382"><ele>681.0</ele><time>2026-04-18T11:11:20Z</time></trkpt><trkpt lat="42.5943457126289" lon="-8.394552496652583"><ele>681.3333333333334</ele><time>2026-04-18T11:11:21Z</time></trkpt><trkpt lat="42.594355376695276" lon="-8.394672945364526"><ele>681.6666666666666</ele><time>2026-04-18T11:11:22Z</time></trkpt><trkpt lat="42.594368717822846" lon="-8.394799734482225"><ele>682.0</ele><time>2026-04-18T11:11:24Z</time></trkpt><trkpt lat="42.594385356879684" lon="-8.394713098678128"><ele>682.3333333333333</ele><time>2026-04-18T11:12:37.999Z</time></trkpt><trkpt lat="42.594457445238326" lon="-8.394818053625814"><ele>682.6666666666666</ele><time>2026-04-18T11:14:21.999Z</time></trkpt><trkpt lat="42.59450609149132" lon="-8.394875049587355"><ele>683.0</ele><time>2026-04-18T11:14:22.999Z</time></trkpt><trkpt lat="42.59454512426586" lon="-8.39494922092781"><ele>685.4</ele><time>2026-04-18T11:14:23.999Z</time></trkpt><trkpt lat="42.59465288141823" lon="-8.394800128531829"><ele>687.8</ele><time>2026-04-18T11:14:24.999Z</time></trkpt><trkpt lat="42.59471848913161" lon="-8.394762477937272"><ele>690.2</ele><time>2026-04-18T11:14:25.999Z</time></trkpt><trkpt lat="42.594808548530395" lon="-8.394715512338669"><ele>692.6</ele><time>2026-04-18T11:14:27.999Z</time></trkpt><trkpt lat="42.59488610492893" lon="-8.394705811397108"><ele>695.0</ele><time>2026-04-18T11:14:29.999Z</time></trkpt><trkpt lat="42.594965715271385" lon="-8.394720207919066"><ele>694.1666666666666</ele><time>2026-04-18T11:14:32.999Z</time></trkpt><trkpt lat="42.59495233834155" lon="-8.394602572596654"><ele>693.3333333333333</ele><time>2026-04-18T11:14:36.999Z</time></trkpt><trkpt lat="42.5949915612363" lon="-8.394456372208113"><ele>692.5</ele><time>2026-04-18T11:14:38.999Z</time></trkpt><trkpt lat="42.595030858451814" lon="-8.394381684847076"><ele>691.6666666666666</ele><time>2026-04-18T11:14:39.999Z</time></trkpt><trkpt lat="42.595070619101556" lon="-8.39429514372151"><ele>690.8333333333334</ele><time>2026-04-18T11:14:40.999Z</time></trkpt><trkpt lat="42.59513196631474" lon="-8.394208068623644"><ele>690.0</ele><time>2026-04-18T11:14:41.999Z</time></trkpt><trkpt lat="42.59519590199209" lon="-8.394120135292924"><ele>690.0</ele><time>2026-04-18T11:14:42.999Z</time></trkpt><trkpt lat="42.5952645709474" lon="-8.394035854585864"><ele>690.0</ele><time>2026-04-18T11:14:43.999Z</time></trkpt><trkpt lat="42.59533199493741" lon="-8.393942095869276"><ele>690.0</ele><time>2026-04-18T11:14:44.999Z</time></trkpt><trkpt lat="42.595401275813046" lon="-8.393845464599682"><ele>690.0</ele><time>2026-04-18T11:14:45.999Z</time></trkpt><trkpt lat="42.59546180073436" lon="-8.393756307469317"><ele>690.0</ele><time>2026-04-18T11:14:46.999Z</time></trkpt><trkpt lat="42.59551196201848" lon="-8.393679717219955"><ele>691.4</ele><time>2026-04-18T11:14:47.999Z</time></trkpt><trkpt lat="42.595575872264014" lon="-8.393580427964134"><ele>692.8</ele><time>2026-04-18T11:14:48.999Z</time></trkpt><trkpt lat="42.59563118420266" lon="-8.393490810050057"><ele>694.2</ele><time>2026-04-18T11:14:49.999Z</time></trkpt><trkpt lat="42.595672223255086" lon="-8.393406328787293"><ele>695.6</ele><time>2026-04-18T11:14:50.999Z</time></trkpt><trkpt lat="42.59574239627948" lon="-8.393278510323798"><ele>697.0</ele><time>2026-04-18T11:14:52.999Z</time></trkpt><trkpt lat="42.59579428884601" lon="-8.393153557096696"><ele>697.0</ele><time>2026-04-18T11:14:54.999Z</time></trkpt><trkpt lat="42.595835114325475" lon="-8.393085393573442"><ele>697.0</ele><time>2026-04-18T11:14:57.999Z</time></trkpt><trkpt lat="42.595889950534946" lon="-8.393210412419048"><ele>697.0</ele><time>2026-04-18T11:15:16Z</time></trkpt><trkpt lat="42.59586116707745" lon="-8.393302551038904"><ele>697.0</ele><time>2026-04-18T11:15:17Z</time></trkpt><trkpt lat="42.59582176449986" lon="-8.393397268258308"><ele>697.0</ele><time>2026-04-18T11:15:18Z</time></trkpt><trkpt lat="42.59578507067603" lon="-8.3934896225656"><ele>697.0</ele><time>2026-04-18T11:15:19Z</time></trkpt><trkpt lat="42.59574131029127" lon="-8.39358869988737"><ele>697.0</ele><time>2026-04-18T11:15:20Z</time></trkpt><trkpt lat="42.59569173202495" lon="-8.39368963495616"><ele>697.0</ele><time>2026-04-18T11:15:21Z</time></trkpt><trkpt lat="42.59564214466456" lon="-8.393790797702843"><ele>697.0</ele><time>2026-04-18T11:15:22Z</time></trkpt><trkpt lat="42.595591213921445" lon="-8.393895153623184"><ele>697.0</ele><time>2026-04-18T11:15:23Z</time></trkpt><trkpt lat="42.59553534537191" lon="-8.394003105807442"><ele>697.0</ele><time>2026-04-18T11:15:24Z</time></trkpt><trkpt lat="42.59548622605525" lon="-8.394113082835881"><ele>696.6</ele><time>2026-04-18T11:15:25Z</time></trkpt><trkpt lat="42.595439148205905" lon="-8.394227401757"><ele>696.2</ele><time>2026-04-18T11:15:26Z</time></trkpt><trkpt lat="42.59539857353568" lon="-8.394345986822913"><ele>695.8</ele><time>2026-04-18T11:15:27Z</time></trkpt><trkpt lat="42.59536771840673" lon="-8.394473521798446"><ele>695.4</ele><time>2026-04-18T11:15:28Z</time></trkpt><trkpt lat="42.595344293005695" lon="-8.39459793329148"><ele>695.0</ele><time>2026-04-18T11:15:29Z</time></trkpt><trkpt lat="42.59533013878538" lon="-8.394714537749563"><ele>695.0</ele><time>2026-04-18T11:15:30Z</time></trkpt><trkpt lat="42.59532563858213" lon="-8.394820932448326"><ele>695.0</ele><time>2026-04-18T11:15:31Z</time></trkpt><trkpt lat="42.595320103919846" lon="-8.394921567484875"><ele>695.0</ele><time>2026-04-18T11:15:32Z</time></trkpt><trkpt lat="42.59531789252683" lon="-8.395012357853979"><ele>695.0</ele><time>2026-04-18T11:15:33Z</time></trkpt><trkpt lat="42.59533651740827" lon="-8.395176674472873"><ele>695.0</ele><time>2026-04-18T11:15:35Z</time></trkpt><trkpt lat="42.59537202254785" lon="-8.395337472864464"><ele>696.0</ele><time>2026-04-18T11:15:37Z</time></trkpt><trkpt lat="42.59541184141924" lon="-8.395477080121056"><ele>697.0</ele><time>2026-04-18T11:15:39Z</time></trkpt><trkpt lat="42.595458211195705" lon="-8.395582407284824"><ele>698.0</ele><time>2026-04-18T11:15:41Z</time></trkpt><trkpt lat="42.5954356919211" lon="-8.395677317821061"><ele>699.0</ele><time>2026-04-18T11:15:43Z</time></trkpt><trkpt lat="42.5953621363065" lon="-8.395609529050109"><ele>700.0</ele><time>2026-04-18T11:15:46Z</time></trkpt><trkpt lat="42.59533815627989" lon="-8.395466133740277"><ele>699.0</ele><time>2026-04-18T11:16:59.999Z</time></trkpt><trkpt lat="42.595274105721586" lon="-8.395342734056552"><ele>698.0</ele><time>2026-04-18T11:17:01.999Z</time></trkpt><trkpt lat="42.595212986065846" lon="-8.395250655710871"><ele>697.0</ele><time>2026-04-18T11:17:03.999Z</time></trkpt><trkpt lat="42.59515945732404" lon="-8.395136717520952"><ele>696.0</ele><time>2026-04-18T11:17:05.999Z</time></trkpt><trkpt lat="42.59510206179882" lon="-8.3950447371368"><ele>695.0</ele><time>2026-04-18T11:17:08Z</time></trkpt><trkpt lat="42.59508303956049" lon="-8.394946682381208"><ele>695.0</ele><time>2026-04-18T11:17:11Z</time></trkpt><trkpt lat="42.59513365624192" lon="-8.395001687445733"><ele>695.0</ele><time>2026-04-18T11:17:14Z</time></trkpt><trkpt lat="42.595155756245155" lon="-8.39508471127266"><ele>695.0</ele><time>2026-04-18T11:17:16Z</time></trkpt><trkpt lat="42.59518680716336" lon="-8.39516732153401"><ele>695.0</ele><time>2026-04-18T11:17:18Z</time></trkpt><trkpt lat="42.59524242200371" lon="-8.395222577306393"><ele>695.0</ele><time>2026-04-18T11:17:21Z</time></trkpt><trkpt lat="42.59534992885408" lon="-8.395346770388683"><ele>695.0</ele><time>2026-04-18T11:17:43Z</time></trkpt><trkpt lat="42.595407909438194" lon="-8.395473515518388"><ele>696.25</ele><time>2026-04-18T11:17:44Z</time></trkpt><trkpt lat="42.59545749326239" lon="-8.395608958025207"><ele>697.5</ele><time>2026-04-18T11:17:45Z</time></trkpt><trkpt lat="42.59552253505845" lon="-8.395759039313148"><ele>698.75</ele><time>2026-04-18T11:17:46Z</time></trkpt><trkpt lat="42.59559645672268" lon="-8.395916846287532"><ele>700.0</ele><time>2026-04-18T11:17:47Z</time></trkpt><trkpt lat="42.595673304183265" lon="-8.39608158004002"><ele>700.0</ele><time>2026-04-18T11:17:48Z</time></trkpt><trkpt lat="42.595759581470965" lon="-8.396252718590032"><ele>700.0</ele><time>2026-04-18T11:17:49Z</time></trkpt><trkpt lat="42.5958461533729" lon="-8.396425040849735"><ele>700.0</ele><time>2026-04-18T11:17:50Z</time></trkpt><trkpt lat="42.5959271373084" lon="-8.396587018265489"><ele>701.25</ele><time>2026-04-18T11:17:51Z</time></trkpt><trkpt lat="42.596009785722245" lon="-8.396748685340762"><ele>702.5</ele><time>2026-04-18T11:17:52Z</time></trkpt><trkpt lat="42.59609790689689" lon="-8.396912589406922"><ele>703.75</ele><time>2026-04-18T11:17:53Z</time></trkpt><trkpt lat="42.59618798226676" lon="-8.3970838943797"><ele>705.0</ele><time>2026-04-18T11:17:54Z</time></trkpt><trkpt lat="42.59627996313841" lon="-8.397253236419735"><ele>701.5</ele><time>2026-04-18T11:17:55Z</time></trkpt><trkpt lat="42.59636511263396" lon="-8.397413017206667"><ele>698.0</ele><time>2026-04-18T11:17:56Z</time></trkpt><trkpt lat="42.596453254958675" lon="-8.397562038120263"><ele>694.5</ele><time>2026-04-18T11:17:57Z</time></trkpt><trkpt lat="42.5965494981777" lon="-8.397693653070228"><ele>691.0</ele><time>2026-04-18T11:17:58Z</time></trkpt><trkpt lat="42.59666202930943" lon="-8.39781752452974"><ele>691.0</ele><time>2026-04-18T11:17:59Z</time></trkpt><trkpt lat="42.59678386579235" lon="-8.39792614432804"><ele>691.0</ele><time>2026-04-18T11:18:00Z</time></trkpt><trkpt lat="42.59690707898346" lon="-8.398030565372567"><ele>691.0</ele><time>2026-04-18T11:18:01Z</time></trkpt><trkpt lat="42.59702998435056" lon="-8.398133121300368"><ele>691.0</ele><time>2026-04-18T11:18:02Z</time></trkpt><trkpt lat="42.59715376423195" lon="-8.398233386809737"><ele>690.25</ele><time>2026-04-18T11:18:03Z</time></trkpt><trkpt lat="42.59727309174523" lon="-8.398341868539159"><ele>689.5</ele><time>2026-04-18T11:18:04Z</time></trkpt><trkpt lat="42.59738961740258" lon="-8.398460519705292"><ele>688.75</ele><time>2026-04-18T11:18:05Z</time></trkpt><trkpt lat="42.59749441067821" lon="-8.398589968061108"><ele>688.0</ele><time>2026-04-18T11:18:06Z</time></trkpt><trkpt lat="42.59758675383343" lon="-8.398724983506693"><ele>687.0</ele><time>2026-04-18T11:18:07Z</time></trkpt><trkpt lat="42.59767153747429" lon="-8.398856228676872"><ele>686.0</ele><time>2026-04-18T11:18:08Z</time></trkpt><trkpt lat="42.59775040741526" lon="-8.398983281076"><ele>685.0</ele><time>2026-04-18T11:18:09Z</time></trkpt><trkpt lat="42.597831344779046" lon="-8.39910262829038"><ele>684.0</ele><time>2026-04-18T11:18:10Z</time></trkpt><trkpt lat="42.59791769747555" lon="-8.399204862270906"><ele>684.0</ele><time>2026-04-18T11:18:10.999Z</time></trkpt><trkpt lat="42.59800426204344" lon="-8.399301377266967"><ele>684.0</ele><time>2026-04-18T11:18:11.999Z</time></trkpt><trkpt lat="42.59807865353276" lon="-8.399400797905038"><ele>684.0</ele><time>2026-04-18T11:18:12.999Z</time></trkpt><trkpt lat="42.59814685580416" lon="-8.399503401942013"><ele>684.0</ele><time>2026-04-18T11:18:13.999Z</time></trkpt><trkpt lat="42.598214358203144" lon="-8.399602081744675"><ele>684.0</ele><time>2026-04-18T11:18:14.999Z</time></trkpt><trkpt lat="42.598281814543114" lon="-8.399690565381116"><ele>681.8000000000001</ele><time>2026-04-18T11:18:15.999Z</time></trkpt><trkpt lat="42.59835268449493" lon="-8.399771637928131"><ele>679.6</ele><time>2026-04-18T11:18:16.999Z</time></trkpt><trkpt lat="42.598424129533925" lon="-8.399845667975537"><ele>677.4</ele><time>2026-04-18T11:18:17.999Z</time></trkpt><trkpt lat="42.59849918919589" lon="-8.399916331864821"><ele>675.2</ele><time>2026-04-18T11:18:18.999Z</time></trkpt><trkpt lat="42.59857682556594" lon="-8.399974788444396"><ele>673.0</ele><time>2026-04-18T11:18:19.999Z</time></trkpt><trkpt lat="42.59866191892635" lon="-8.40004064552554"><ele>673.25</ele><time>2026-04-18T11:18:20.999Z</time></trkpt><trkpt lat="42.5987613080887" lon="-8.40009284670397"><ele>673.5</ele><time>2026-04-18T11:18:21.999Z</time></trkpt><trkpt lat="42.59887595903214" lon="-8.400136058722502"><ele>673.75</ele><time>2026-04-18T11:18:22.999Z</time></trkpt><trkpt lat="42.59900017395303" lon="-8.400154612594443"><ele>674.0</ele><time>2026-04-18T11:18:23.999Z</time></trkpt><trkpt lat="42.599132814728264" lon="-8.400161679571175"><ele>674.0</ele><time>2026-04-18T11:18:24.999Z</time></trkpt><trkpt lat="42.59926838411916" lon="-8.400152428356575"><ele>674.0</ele><time>2026-04-18T11:18:25.999Z</time></trkpt><trkpt lat="42.599403926753496" lon="-8.400136391931364"><ele>674.0</ele><time>2026-04-18T11:18:26.999Z</time></trkpt><trkpt lat="42.59954180503984" lon="-8.400113177435152"><ele>674.0</ele><time>2026-04-18T11:18:27.999Z</time></trkpt><trkpt lat="42.59968075049458" lon="-8.400088750690024"><ele>673.0</ele><time>2026-04-18T11:18:28.999Z</time></trkpt><trkpt lat="42.59982090424657" lon="-8.400067818156744"><ele>672.0</ele><time>2026-04-18T11:18:29.999Z</time></trkpt><trkpt lat="42.59996520228468" lon="-8.400055699310256"><ele>671.0</ele><time>2026-04-18T11:18:30.999Z</time></trkpt><trkpt lat="42.60010613421544" lon="-8.400049230021057"><ele>670.0</ele><time>2026-04-18T11:18:31.999Z</time></trkpt><trkpt lat="42.60024646287438" lon="-8.400053073636853"><ele>670.25</ele><time>2026-04-18T11:18:32.999Z</time></trkpt><trkpt lat="42.600389435604804" lon="-8.400078943912357"><ele>670.5</ele><time>2026-04-18T11:18:33.999Z</time></trkpt><trkpt lat="42.60052960085965" lon="-8.40013042313255"><ele>670.75</ele><time>2026-04-18T11:18:34.999Z</time></trkpt><trkpt lat="42.60066943288054" lon="-8.400191837896362"><ele>671.0</ele><time>2026-04-18T11:18:35.999Z</time></trkpt><trkpt lat="42.600805470984966" lon="-8.400256703298702"><ele>671.0</ele><time>2026-04-18T11:18:36.999Z</time></trkpt><trkpt lat="42.600941706933305" lon="-8.400330658568574"><ele>671.0</ele><time>2026-04-18T11:18:37.999Z</time></trkpt><trkpt lat="42.60107423211488" lon="-8.40040778357649"><ele>671.0</ele><time>2026-04-18T11:18:38.999Z</time></trkpt><trkpt lat="42.60121835610865" lon="-8.400478512686707"><ele>671.0</ele><time>2026-04-18T11:18:39.999Z</time></trkpt><trkpt lat="42.60135699025974" lon="-8.400553370646481"><ele>668.25</ele><time>2026-04-18T11:18:40.999Z</time></trkpt><trkpt lat="42.601494970146334" lon="-8.400624783003218"><ele>665.5</ele><time>2026-04-18T11:18:41.999Z</time></trkpt><trkpt lat="42.60163306120974" lon="-8.400695209979839"><ele>662.75</ele><time>2026-04-18T11:18:42.999Z</time></trkpt><trkpt lat="42.60176769062215" lon="-8.400764979892351"><ele>660.0</ele><time>2026-04-18T11:18:43.999Z</time></trkpt><trkpt lat="42.601900502032564" lon="-8.400836910368199"><ele>662.25</ele><time>2026-04-18T11:18:44.999Z</time></trkpt><trkpt lat="42.602028012909265" lon="-8.400902019219942"><ele>664.5</ele><time>2026-04-18T11:18:45.999Z</time></trkpt><trkpt lat="42.602149909808" lon="-8.400964487075264"><ele>666.75</ele><time>2026-04-18T11:18:46.999Z</time></trkpt><trkpt lat="42.602267877244856" lon="-8.401027171367272"><ele>669.0</ele><time>2026-04-18T11:18:47.999Z</time></trkpt><trkpt lat="42.60238509578434" lon="-8.401098053770806"><ele>669.0</ele><time>2026-04-18T11:18:48.999Z</time></trkpt><trkpt lat="42.60250001029859" lon="-8.401176787833606"><ele>669.0</ele><time>2026-04-18T11:18:49.999Z</time></trkpt><trkpt lat="42.602604612754554" lon="-8.40127069801986"><ele>669.0</ele><time>2026-04-18T11:18:50.999Z</time></trkpt><trkpt lat="42.60269911161285" lon="-8.401384580642011"><ele>669.0</ele><time>2026-04-18T11:18:51.999Z</time></trkpt><trkpt lat="42.602785218846996" lon="-8.401511757909823"><ele>669.0</ele><time>2026-04-18T11:18:52.999Z</time></trkpt><trkpt lat="42.60286150565803" lon="-8.401654273399078"><ele>669.0</ele><time>2026-04-18T11:18:53.999Z</time></trkpt><trkpt lat="42.60292748665299" lon="-8.401811938526118"><ele>669.0</ele><time>2026-04-18T11:18:54.999Z</time></trkpt><trkpt lat="42.602981605403045" lon="-8.401980047664248"><ele>669.0</ele><time>2026-04-18T11:18:55.999Z</time></trkpt><trkpt lat="42.60301844519083" lon="-8.402164505240561"><ele>667.0</ele><time>2026-04-18T11:18:56.999Z</time></trkpt><trkpt lat="42.603043289263226" lon="-8.402354712823634"><ele>665.0</ele><time>2026-04-18T11:18:57.999Z</time></trkpt><trkpt lat="42.603067293990044" lon="-8.40255183846417"><ele>663.0</ele><time>2026-04-18T11:18:58.999Z</time></trkpt><trkpt lat="42.60308009064979" lon="-8.402753470874252"><ele>661.0</ele><time>2026-04-18T11:18:59.999Z</time></trkpt><trkpt lat="42.603099537275455" lon="-8.402953871970336"><ele>659.3333333333334</ele><time>2026-04-18T11:19:00.999Z</time></trkpt><trkpt lat="42.60313126834221" lon="-8.403152486308246"><ele>657.6666666666666</ele><time>2026-04-18T11:19:01.999Z</time></trkpt><trkpt lat="42.60317709829968" lon="-8.40334682836736"><ele>656.0</ele><time>2026-04-18T11:19:02.999Z</time></trkpt><trkpt lat="42.60324055936039" lon="-8.40353112658036"><ele>656.0</ele><time>2026-04-18T11:19:03.999Z</time></trkpt><trkpt lat="42.60331862780491" lon="-8.403704978058913"><ele>656.0</ele><time>2026-04-18T11:19:04.999Z</time></trkpt><trkpt lat="42.60341945014554" lon="-8.40385795624537"><ele>656.0</ele><time>2026-04-18T11:19:05.999Z</time></trkpt><trkpt lat="42.60353368866558" lon="-8.40399932419862"><ele>654.6666666666666</ele><time>2026-04-18T11:19:06.999Z</time></trkpt><trkpt lat="42.60365563232612" lon="-8.404127504680309"><ele>653.3333333333334</ele><time>2026-04-18T11:19:07.999Z</time></trkpt><trkpt lat="42.60379469070017" lon="-8.4042286015493"><ele>652.0</ele><time>2026-04-18T11:19:08.999Z</time></trkpt><trkpt lat="42.603938643013265" lon="-8.404291137141126"><ele>652.0</ele><time>2026-04-18T11:19:09.999Z</time></trkpt><trkpt lat="42.60408993886326" lon="-8.404335122681765"><ele>652.0</ele><time>2026-04-18T11:19:10.999Z</time></trkpt><trkpt lat="42.604241755819615" lon="-8.404357963427572"><ele>652.0</ele><time>2026-04-18T11:19:11.999Z</time></trkpt><trkpt lat="42.60439650052524" lon="-8.404365903843713"><ele>651.3333333333334</ele><time>2026-04-18T11:19:12.999Z</time></trkpt><trkpt lat="42.60455011969836" lon="-8.404368860762581"><ele>650.6666666666666</ele><time>2026-04-18T11:19:14Z</time></trkpt><trkpt lat="42.604704109637275" lon="-8.404381267815983"><ele>650.0</ele><time>2026-04-18T11:19:15Z</time></trkpt><trkpt lat="42.604854699217135" lon="-8.404418651962933"><ele>650.0</ele><time>2026-04-18T11:19:16Z</time></trkpt><trkpt lat="42.60500187074592" lon="-8.404478876539537"><ele>650.0</ele><time>2026-04-18T11:19:17Z</time></trkpt><trkpt lat="42.605142514137235" lon="-8.404559034557126"><ele>650.0</ele><time>2026-04-18T11:19:18Z</time></trkpt><trkpt lat="42.60527104668683" lon="-8.4046695683126"><ele>648.5</ele><time>2026-04-18T11:19:19Z</time></trkpt><trkpt lat="42.605386796725845" lon="-8.404799557439475"><ele>647.0</ele><time>2026-04-18T11:19:20Z</time></trkpt><trkpt lat="42.6054890312872" lon="-8.404946676937298"><ele>645.5</ele><time>2026-04-18T11:19:21Z</time></trkpt><trkpt lat="42.60557476453344" lon="-8.405110687362386"><ele>644.0</ele><time>2026-04-18T11:19:22Z</time></trkpt><trkpt lat="42.60564251622898" lon="-8.405293798863028"><ele>644.0</ele><time>2026-04-18T11:19:23Z</time></trkpt><trkpt lat="42.60569444882182" lon="-8.40548267189283"><ele>644.0</ele><time>2026-04-18T11:19:24Z</time></trkpt><trkpt lat="42.60572767384033" lon="-8.40567494656965"><ele>644.0</ele><time>2026-04-18T11:19:25Z</time></trkpt><trkpt lat="42.60572714073471" lon="-8.405873956927966"><ele>644.0</ele><time>2026-04-18T11:19:26Z</time></trkpt><trkpt lat="42.60571314711549" lon="-8.406071366340536"><ele>643.0</ele><time>2026-04-18T11:19:27Z</time></trkpt><trkpt lat="42.605681369613784" lon="-8.406260872644317"><ele>642.0</ele><time>2026-04-18T11:19:28Z</time></trkpt><trkpt lat="42.60563388468258" lon="-8.40644851741265"><ele>641.0</ele><time>2026-04-18T11:19:29Z</time></trkpt><trkpt lat="42.605564369476994" lon="-8.40662665634452"><ele>640.0</ele><time>2026-04-18T11:19:30Z</time></trkpt><trkpt lat="42.60548194230766" lon="-8.406793103619412"><ele>640.0</ele><time>2026-04-18T11:19:31Z</time></trkpt><trkpt lat="42.60538098792661" lon="-8.406938808174939"><ele>640.0</ele><time>2026-04-18T11:19:32Z</time></trkpt><trkpt lat="42.605270046151695" lon="-8.407068924616393"><ele>640.0</ele><time>2026-04-18T11:19:33Z</time></trkpt><trkpt lat="42.6051509032889" lon="-8.407185812516726"><ele>640.0</ele><time>2026-04-18T11:19:34Z</time></trkpt><trkpt lat="42.605027142001056" lon="-8.407299413040453"><ele>637.6666666666667</ele><time>2026-04-18T11:19:35Z</time></trkpt><trkpt lat="42.60490309866719" lon="-8.40741560043498"><ele>635.3333333333334</ele><time>2026-04-18T11:19:36Z</time></trkpt><trkpt lat="42.60478082150715" lon="-8.407534453309314"><ele>633.0</ele><time>2026-04-18T11:19:37Z</time></trkpt><trkpt lat="42.60465866978655" lon="-8.40765901643113"><ele>633.0</ele><time>2026-04-18T11:19:38Z</time></trkpt><trkpt lat="42.60452959196363" lon="-8.407787785383134"><ele>633.0</ele><time>2026-04-18T11:19:39Z</time></trkpt><trkpt lat="42.604413739178874" lon="-8.407915185476341"><ele>633.0</ele><time>2026-04-18T11:19:40Z</time></trkpt><trkpt lat="42.604305967247974" lon="-8.40804925490414"><ele>629.6666666666666</ele><time>2026-04-18T11:19:41Z</time></trkpt><trkpt lat="42.60420290826118" lon="-8.408195806732948"><ele>626.3333333333333</ele><time>2026-04-18T11:19:42Z</time></trkpt><trkpt lat="42.60411468907581" lon="-8.408363561198954"><ele>623.0</ele><time>2026-04-18T11:19:43Z</time></trkpt><trkpt lat="42.60404099347596" lon="-8.408544669254246"><ele>623.0</ele><time>2026-04-18T11:19:44Z</time></trkpt><trkpt lat="42.603983490661605" lon="-8.40873547025697"><ele>623.0</ele><time>2026-04-18T11:19:45Z</time></trkpt><trkpt lat="42.60395142930728" lon="-8.408941165942725"><ele>623.0</ele><time>2026-04-18T11:19:46Z</time></trkpt><trkpt lat="42.603933336108625" lon="-8.40915125405934"><ele>622.3333333333333</ele><time>2026-04-18T11:19:47Z</time></trkpt><trkpt lat="42.603925709031095" lon="-8.409361692579889"><ele>621.6666666666666</ele><time>2026-04-18T11:19:48Z</time></trkpt><trkpt lat="42.60392754015362" lon="-8.40957334693957"><ele>621.0</ele><time>2026-04-18T11:19:49Z</time></trkpt><trkpt lat="42.603940981412244" lon="-8.409781021503306"><ele>619.3333333333334</ele><time>2026-04-18T11:19:50Z</time></trkpt><trkpt lat="42.60396730546257" lon="-8.409987908920534"><ele>617.6666666666667</ele><time>2026-04-18T11:19:51Z</time></trkpt><trkpt lat="42.604000389919015" lon="-8.410191425077414"><ele>616.0</ele><time>2026-04-18T11:19:52Z</time></trkpt><trkpt lat="42.6040333236388" lon="-8.410394442454171"><ele>612.6666666666667</ele><time>2026-04-18T11:19:53Z</time></trkpt><trkpt lat="42.60406646765391" lon="-8.410598828832487"><ele>609.3333333333334</ele><time>2026-04-18T11:19:54Z</time></trkpt><trkpt lat="42.60409819090459" lon="-8.410802981624292"><ele>606.0</ele><time>2026-04-18T11:19:55Z</time></trkpt><trkpt lat="42.60413036182135" lon="-8.41100817127872"><ele>606.0</ele><time>2026-04-18T11:19:56Z</time></trkpt><trkpt lat="42.604167453768696" lon="-8.411210299498698"><ele>606.0</ele><time>2026-04-18T11:19:57Z</time></trkpt><trkpt lat="42.60420481603742" lon="-8.41140946159756"><ele>606.0</ele><time>2026-04-18T11:19:58Z</time></trkpt><trkpt lat="42.60424313365867" lon="-8.41159930058291"><ele>606.0</ele><time>2026-04-18T11:19:59Z</time></trkpt><trkpt lat="42.604278939585534" lon="-8.411782587621225"><ele>605.0</ele><time>2026-04-18T11:20:00Z</time></trkpt><trkpt lat="42.60430720348388" lon="-8.411955828500703"><ele>604.0</ele><time>2026-04-18T11:20:01Z</time></trkpt><trkpt lat="42.60433108260661" lon="-8.412122896460616"><ele>603.0</ele><time>2026-04-18T11:20:02Z</time></trkpt><trkpt lat="42.604361666919836" lon="-8.412301457794326"><ele>602.0</ele><time>2026-04-18T11:20:03Z</time></trkpt><trkpt lat="42.60439035744891" lon="-8.412476099439644"><ele>602.0</ele><time>2026-04-18T11:20:04Z</time></trkpt><trkpt lat="42.60442583131638" lon="-8.412653655043641"><ele>602.0</ele><time>2026-04-18T11:20:05Z</time></trkpt><trkpt lat="42.60446146575113" lon="-8.412837110220032"><ele>602.0</ele><time>2026-04-18T11:20:06Z</time></trkpt><trkpt lat="42.6044981545404" lon="-8.4130242041735"><ele>602.0</ele><time>2026-04-18T11:20:07Z</time></trkpt><trkpt lat="42.604536275242175" lon="-8.41321429396246"><ele>604.25</ele><time>2026-04-18T11:20:08Z</time></trkpt><trkpt lat="42.604573296678524" lon="-8.41340510228426"><ele>606.5</ele><time>2026-04-18T11:20:09Z</time></trkpt><trkpt lat="42.60460731925976" lon="-8.413601768502595"><ele>608.75</ele><time>2026-04-18T11:20:10Z</time></trkpt><trkpt lat="42.60464067286194" lon="-8.413802759327636"><ele>611.0</ele><time>2026-04-18T11:20:11Z</time></trkpt><trkpt lat="42.604672634055845" lon="-8.414006669099196"><ele>611.0</ele><time>2026-04-18T11:20:12Z</time></trkpt><trkpt lat="42.60469778323812" lon="-8.414212452875079"><ele>611.0</ele><time>2026-04-18T11:20:13Z</time></trkpt><trkpt lat="42.604709723345245" lon="-8.41441688877336"><ele>611.0</ele><time>2026-04-18T11:20:14Z</time></trkpt><trkpt lat="42.60470828258896" lon="-8.4146203930773"><ele>611.0</ele><time>2026-04-18T11:20:15Z</time></trkpt><trkpt lat="42.60469359291305" lon="-8.414826816436953"><ele>611.0</ele><time>2026-04-18T11:20:16Z</time></trkpt><trkpt lat="42.60466889496323" lon="-8.41503304368925"><ele>611.0</ele><time>2026-04-18T11:20:17Z</time></trkpt><trkpt lat="42.60463106411821" lon="-8.41523923751498"><ele>611.0</ele><time>2026-04-18T11:20:18Z</time></trkpt><trkpt lat="42.604585240175794" lon="-8.415444038866873"><ele>611.0</ele><time>2026-04-18T11:20:19Z</time></trkpt><trkpt lat="42.60453521863438" lon="-8.415652258003053"><ele>611.0</ele><time>2026-04-18T11:20:20Z</time></trkpt><trkpt lat="42.60448347227502" lon="-8.41586382167174"><ele>610.3333333333333</ele><time>2026-04-18T11:20:21Z</time></trkpt><trkpt lat="42.60443040656581" lon="-8.416078234888998"><ele>609.6666666666666</ele><time>2026-04-18T11:20:22Z</time></trkpt><trkpt lat="42.60437682245251" lon="-8.416291022515264"><ele>609.0</ele><time>2026-04-18T11:20:23Z</time></trkpt><trkpt lat="42.60432387369055" lon="-8.41650326644946"><ele>609.0</ele><time>2026-04-18T11:20:24Z</time></trkpt><trkpt lat="42.604274242803484" lon="-8.416704699499094"><ele>609.0</ele><time>2026-04-18T11:20:25Z</time></trkpt><trkpt lat="42.604230126213736" lon="-8.416896153027675"><ele>609.0</ele><time>2026-04-18T11:20:26Z</time></trkpt><trkpt lat="42.60418677450968" lon="-8.417077581738212"><ele>609.0</ele><time>2026-04-18T11:20:26.999Z</time></trkpt><trkpt lat="42.604143528748" lon="-8.417245103577303"><ele>608.25</ele><time>2026-04-18T11:20:27.999Z</time></trkpt><trkpt lat="42.60410482516695" lon="-8.41741183896023"><ele>607.5</ele><time>2026-04-18T11:20:28.999Z</time></trkpt><trkpt lat="42.60406749738909" lon="-8.417580433386954"><ele>606.75</ele><time>2026-04-18T11:20:29.999Z</time></trkpt><trkpt lat="42.604034131447015" lon="-8.417743504355125"><ele>606.0</ele><time>2026-04-18T11:20:30.999Z</time></trkpt><trkpt lat="42.60400733069869" lon="-8.41789789111321"><ele>605.5</ele><time>2026-04-18T11:20:31.999Z</time></trkpt><trkpt lat="42.60399836433335" lon="-8.418043286187508"><ele>605.0</ele><time>2026-04-18T11:20:32.999Z</time></trkpt><trkpt lat="42.603990851953625" lon="-8.418173545615753"><ele>604.5</ele><time>2026-04-18T11:20:33.999Z</time></trkpt><trkpt lat="42.60398572929425" lon="-8.41827078503586"><ele>604.0</ele><time>2026-04-18T11:20:34.999Z</time></trkpt><trkpt lat="42.60394748870385" lon="-8.418354196872617"><ele>603.5</ele><time>2026-04-18T11:21:41Z</time></trkpt><trkpt lat="42.603921005582244" lon="-8.418465384247346"><ele>603.0</ele><time>2026-04-18T11:21:43Z</time></trkpt><trkpt lat="42.60389713121259" lon="-8.418570881010742"><ele>603.0</ele><time>2026-04-18T11:21:44Z</time></trkpt><trkpt lat="42.6038585670563" lon="-8.418707286699483"><ele>603.0</ele><time>2026-04-18T11:21:45Z</time></trkpt><trkpt lat="42.603846236590776" lon="-8.418876208138842"><ele>603.0</ele><time>2026-04-18T11:21:46Z</time></trkpt><trkpt lat="42.603849057088" lon="-8.419043710422779"><ele>603.0</ele><time>2026-04-18T11:21:47Z</time></trkpt><trkpt lat="42.603848431564245" lon="-8.419217188596242"><ele>602.25</ele><time>2026-04-18T11:21:48Z</time></trkpt><trkpt lat="42.60384729529111" lon="-8.419401421933761"><ele>601.5</ele><time>2026-04-18T11:21:49Z</time></trkpt><trkpt lat="42.603855164996105" lon="-8.419607334184361"><ele>600.75</ele><time>2026-04-18T11:21:50Z</time></trkpt><trkpt lat="42.603862260742915" lon="-8.419811609254692"><ele>600.0</ele><time>2026-04-18T11:21:51Z</time></trkpt><trkpt lat="42.60388050328019" lon="-8.420027305528196"><ele>598.3333333333334</ele><time>2026-04-18T11:21:52Z</time></trkpt><trkpt lat="42.60390179583106" lon="-8.420244612258633"><ele>596.6666666666667</ele><time>2026-04-18T11:21:53Z</time></trkpt><trkpt lat="42.603934527541774" lon="-8.42045847934617"><ele>595.0</ele><time>2026-04-18T11:21:54Z</time></trkpt><trkpt lat="42.60397488517213" lon="-8.420684055670073"><ele>592.3333333333334</ele><time>2026-04-18T11:21:55Z</time></trkpt><trkpt lat="42.60401890364142" lon="-8.420906206623567"><ele>589.6666666666666</ele><time>2026-04-18T11:21:56Z</time></trkpt><trkpt lat="42.60406609997054" lon="-8.421130114073527"><ele>587.0</ele><time>2026-04-18T11:21:57Z</time></trkpt><trkpt lat="42.60410451868157" lon="-8.421341754804365"><ele>585.3333333333333</ele><time>2026-04-18T11:21:58Z</time></trkpt><trkpt lat="42.60415668481188" lon="-8.421549869149523"><ele>583.6666666666666</ele><time>2026-04-18T11:21:59Z</time></trkpt><trkpt lat="42.6042098069191" lon="-8.421745361465682"><ele>582.0</ele><time>2026-04-18T11:22:00Z</time></trkpt><trkpt lat="42.604271455680234" lon="-8.421922040403372"><ele>582.0</ele><time>2026-04-18T11:22:01Z</time></trkpt><trkpt lat="42.60434907217816" lon="-8.42210512707451"><ele>582.0</ele><time>2026-04-18T11:22:02Z</time></trkpt><trkpt lat="42.60442727128573" lon="-8.42229168684672"><ele>582.0</ele><time>2026-04-18T11:22:03Z</time></trkpt><trkpt lat="42.60450980450658" lon="-8.422467931305498"><ele>581.6666666666666</ele><time>2026-04-18T11:22:04Z</time></trkpt><trkpt lat="42.604596854889394" lon="-8.422643911607866"><ele>581.3333333333333</ele><time>2026-04-18T11:22:05Z</time></trkpt><trkpt lat="42.60468333891856" lon="-8.422811999064946"><ele>581.0</ele><time>2026-04-18T11:22:06Z</time></trkpt><trkpt lat="42.604770728404056" lon="-8.422967976598063"><ele>578.6666666666666</ele><time>2026-04-18T11:22:07Z</time></trkpt><trkpt lat="42.60486327529288" lon="-8.423128134227857"><ele>576.3333333333334</ele><time>2026-04-18T11:22:08Z</time></trkpt><trkpt lat="42.604960029012396" lon="-8.423288528712567"><ele>574.0</ele><time>2026-04-18T11:22:09Z</time></trkpt><trkpt lat="42.605063518466515" lon="-8.42343952003624"><ele>574.0</ele><time>2026-04-18T11:22:10Z</time></trkpt><trkpt lat="42.60516675202031" lon="-8.423587123754064"><ele>574.0</ele><time>2026-04-18T11:22:11Z</time></trkpt><trkpt lat="42.60527073597825" lon="-8.423734131293804"><ele>574.0</ele><time>2026-04-18T11:22:12Z</time></trkpt><trkpt lat="42.6053753889033" lon="-8.423879474176893"><ele>572.3333333333334</ele><time>2026-04-18T11:22:13Z</time></trkpt><trkpt lat="42.60548232976653" lon="-8.42401920104661"><ele>570.6666666666666</ele><time>2026-04-18T11:22:14Z</time></trkpt><trkpt lat="42.60558945104442" lon="-8.424164303598836"><ele>569.0</ele><time>2026-04-18T11:22:15Z</time></trkpt><trkpt lat="42.60568969056273" lon="-8.424315879634285"><ele>569.0</ele><time>2026-04-18T11:22:16Z</time></trkpt><trkpt lat="42.605784984983785" lon="-8.424470907873854"><ele>569.0</ele><time>2026-04-18T11:22:17Z</time></trkpt><trkpt lat="42.60587420436848" lon="-8.424632565689299"><ele>569.0</ele><time>2026-04-18T11:22:18Z</time></trkpt><trkpt lat="42.605957648596195" lon="-8.424798408379981"><ele>569.0</ele><time>2026-04-18T11:22:19Z</time></trkpt><trkpt lat="42.606022677941326" lon="-8.424966578131372"><ele>567.5</ele><time>2026-04-18T11:22:20Z</time></trkpt><trkpt lat="42.6060838558678" lon="-8.425141841522567"><ele>566.0</ele><time>2026-04-18T11:22:21Z</time></trkpt><trkpt lat="42.60613467719717" lon="-8.425323929466268"><ele>564.5</ele><time>2026-04-18T11:22:22Z</time></trkpt><trkpt lat="42.60617231486877" lon="-8.425507523522569"><ele>563.0</ele><time>2026-04-18T11:22:23Z</time></trkpt><trkpt lat="42.60620586058224" lon="-8.425690647109189"><ele>562.5</ele><time>2026-04-18T11:22:24Z</time></trkpt><trkpt lat="42.60622698496197" lon="-8.425885361963852"><ele>562.0</ele><time>2026-04-18T11:22:25Z</time></trkpt><trkpt lat="42.606240640582406" lon="-8.42608422673573"><ele>561.5</ele><time>2026-04-18T11:22:26Z</time></trkpt><trkpt lat="42.60624591937097" lon="-8.426290807901326"><ele>561.0</ele><time>2026-04-18T11:22:27Z</time></trkpt><trkpt lat="42.606243232596405" lon="-8.426501039086972"><ele>560.0</ele><time>2026-04-18T11:22:28Z</time></trkpt><trkpt lat="42.60623130867453" lon="-8.426712985790429"><ele>559.0</ele><time>2026-04-18T11:22:29Z</time></trkpt><trkpt lat="42.6062208142752" lon="-8.426928894029208"><ele>558.0</ele><time>2026-04-18T11:22:30Z</time></trkpt><trkpt lat="42.60621287788249" lon="-8.427149359573345"><ele>556.3333333333334</ele><time>2026-04-18T11:22:31Z</time></trkpt><trkpt lat="42.60620607800232" lon="-8.427376502701991"><ele>554.6666666666667</ele><time>2026-04-18T11:22:32Z</time></trkpt><trkpt lat="42.60620370570839" lon="-8.427599400552948"><ele>553.0</ele><time>2026-04-18T11:22:33Z</time></trkpt><trkpt lat="42.60620002979183" lon="-8.427821985931358"><ele>552.6666666666667</ele><time>2026-04-18T11:22:34Z</time></trkpt><trkpt lat="42.60619666321708" lon="-8.428049480943471"><ele>552.3333333333334</ele><time>2026-04-18T11:22:35Z</time></trkpt><trkpt lat="42.60619442134646" lon="-8.42827754699404"><ele>552.0</ele><time>2026-04-18T11:22:36Z</time></trkpt><trkpt lat="42.606195844780004" lon="-8.428498916320313"><ele>552.0</ele><time>2026-04-18T11:22:37Z</time></trkpt><trkpt lat="42.60620272218038" lon="-8.428713845115158"><ele>552.0</ele><time>2026-04-18T11:22:38Z</time></trkpt><trkpt lat="42.606220287933645" lon="-8.428929555388962"><ele>552.0</ele><time>2026-04-18T11:22:39Z</time></trkpt><trkpt lat="42.60624873487727" lon="-8.42914628994221"><ele>551.6666666666666</ele><time>2026-04-18T11:22:39.999Z</time></trkpt><trkpt lat="42.60629830340604" lon="-8.429356518427914"><ele>551.3333333333333</ele><time>2026-04-18T11:22:40.999Z</time></trkpt><trkpt lat="42.606364001147135" lon="-8.429561770080213"><ele>551.0</ele><time>2026-04-18T11:22:41.999Z</time></trkpt><trkpt lat="42.60644091279283" lon="-8.429757300481224"><ele>549.0</ele><time>2026-04-18T11:22:42.999Z</time></trkpt><trkpt lat="42.60652252930491" lon="-8.429944894168042"><ele>547.0</ele><time>2026-04-18T11:22:43.999Z</time></trkpt><trkpt lat="42.60661045747578" lon="-8.43011915940594"><ele>545.0</ele><time>2026-04-18T11:22:44.999Z</time></trkpt><trkpt lat="42.606711969915345" lon="-8.430283128167716"><ele>545.0</ele><time>2026-04-18T11:22:45.999Z</time></trkpt><trkpt lat="42.60682504657119" lon="-8.430428909910901"><ele>545.0</ele><time>2026-04-18T11:22:46.999Z</time></trkpt><trkpt lat="42.60695298858934" lon="-8.430563544892742"><ele>545.0</ele><time>2026-04-18T11:22:47.999Z</time></trkpt><trkpt lat="42.60709031600827" lon="-8.430689677853321"><ele>541.0</ele><time>2026-04-18T11:22:48.999Z</time></trkpt><trkpt lat="42.607234233017145" lon="-8.430799716406405"><ele>537.0</ele><time>2026-04-18T11:22:49.999Z</time></trkpt><trkpt lat="42.60738402869647" lon="-8.430889381492197"><ele>533.0</ele><time>2026-04-18T11:22:50.999Z</time></trkpt><trkpt lat="42.60753939575914" lon="-8.430959610534947"><ele>533.0</ele><time>2026-04-18T11:22:51.999Z</time></trkpt><trkpt lat="42.60770109400251" lon="-8.431012521283034"><ele>533.0</ele><time>2026-04-18T11:22:52.999Z</time></trkpt><trkpt lat="42.60786574440231" lon="-8.43105604949777"><ele>533.0</ele><time>2026-04-18T11:22:53.999Z</time></trkpt><trkpt lat="42.60803276002717" lon="-8.43110038708564"><ele>531.0</ele><time>2026-04-18T11:22:54.999Z</time></trkpt><trkpt lat="42.608199713556644" lon="-8.431150074839914"><ele>529.0</ele><time>2026-04-18T11:22:55.999Z</time></trkpt><trkpt lat="42.60836506392645" lon="-8.43120558019128"><ele>527.0</ele><time>2026-04-18T11:22:56.999Z</time></trkpt><trkpt lat="42.608530712390696" lon="-8.431256059660704"><ele>527.0</ele><time>2026-04-18T11:22:57.999Z</time></trkpt><trkpt lat="42.608701970621176" lon="-8.431301719465983"><ele>527.0</ele><time>2026-04-18T11:22:58.999Z</time></trkpt><trkpt lat="42.608874149227745" lon="-8.431348153620064"><ele>527.0</ele><time>2026-04-18T11:22:59.999Z</time></trkpt><trkpt lat="42.60904519928783" lon="-8.431392181917797"><ele>521.3333333333333</ele><time>2026-04-18T11:23:00.999Z</time></trkpt><trkpt lat="42.60921993148061" lon="-8.43143253650604"><ele>515.6666666666666</ele><time>2026-04-18T11:23:01.999Z</time></trkpt><trkpt lat="42.60939251518932" lon="-8.43146998356101"><ele>510.0</ele><time>2026-04-18T11:23:02.999Z</time></trkpt><trkpt lat="42.60956392824219" lon="-8.431505601788688"><ele>508.0</ele><time>2026-04-18T11:23:03.999Z</time></trkpt><trkpt lat="42.6097311250346" lon="-8.431530905571568"><ele>506.0</ele><time>2026-04-18T11:23:04.999Z</time></trkpt><trkpt lat="42.6098944080722" lon="-8.431536758234708"><ele>504.0</ele><time>2026-04-18T11:23:05.999Z</time></trkpt><trkpt lat="42.610052191450045" lon="-8.431504781304866"><ele>504.0</ele><time>2026-04-18T11:23:06.999Z</time></trkpt><trkpt lat="42.610207769696565" lon="-8.431444955192159"><ele>504.0</ele><time>2026-04-18T11:23:07.999Z</time></trkpt><trkpt lat="42.61036120021126" lon="-8.4313622611181"><ele>504.0</ele><time>2026-04-18T11:23:08.999Z</time></trkpt><trkpt lat="42.610500551192494" lon="-8.431237687098504"><ele>505.66666666666663</ele><time>2026-04-18T11:23:09.999Z</time></trkpt><trkpt lat="42.61062805071319" lon="-8.431085394428498"><ele>507.3333333333333</ele><time>2026-04-18T11:23:10.999Z</time></trkpt><trkpt lat="42.61074438161422" lon="-8.43091303352462"><ele>509.0</ele><time>2026-04-18T11:23:11.999Z</time></trkpt><trkpt lat="42.610859054377016" lon="-8.430736657583045"><ele>509.0</ele><time>2026-04-18T11:23:12.999Z</time></trkpt><trkpt lat="42.610974339349575" lon="-8.430570033266541"><ele>509.0</ele><time>2026-04-18T11:23:13.999Z</time></trkpt><trkpt lat="42.61109964743391" lon="-8.43042413890957"><ele>509.0</ele><time>2026-04-18T11:23:14.999Z</time></trkpt><trkpt lat="42.61123984918183" lon="-8.43030696432431"><ele>503.66666666666663</ele><time>2026-04-18T11:23:15.999Z</time></trkpt><trkpt lat="42.61138624940805" lon="-8.430216078362756"><ele>498.33333333333337</ele><time>2026-04-18T11:23:16.999Z</time></trkpt><trkpt lat="42.61154279722066" lon="-8.430156304585655"><ele>493.0</ele><time>2026-04-18T11:23:17.999Z</time></trkpt><trkpt lat="42.61170413471734" lon="-8.430125133572258"><ele>493.0</ele><time>2026-04-18T11:23:18.999Z</time></trkpt><trkpt lat="42.61187057749495" lon="-8.43012934406188"><ele>493.0</ele><time>2026-04-18T11:23:19.999Z</time></trkpt><trkpt lat="42.61203414185356" lon="-8.430170629306145"><ele>493.0</ele><time>2026-04-18T11:23:20.999Z</time></trkpt><trkpt lat="42.612183059384925" lon="-8.430244635398319"><ele>492.0</ele><time>2026-04-18T11:23:21.999Z</time></trkpt><trkpt lat="42.61232350086711" lon="-8.430333635138926"><ele>491.0</ele><time>2026-04-18T11:23:22.999Z</time></trkpt><trkpt lat="42.612454468006376" lon="-8.430451931393575"><ele>490.0</ele><time>2026-04-18T11:23:23.999Z</time></trkpt><trkpt lat="42.61257746357774" lon="-8.430585560451481"><ele>493.0</ele><time>2026-04-18T11:23:25Z</time></trkpt><trkpt lat="42.61269561763989" lon="-8.430729579093718"><ele>496.0</ele><time>2026-04-18T11:23:26Z</time></trkpt><trkpt lat="42.6128143298688" lon="-8.430874137102176"><ele>499.0</ele><time>2026-04-18T11:23:27Z</time></trkpt><trkpt lat="42.612931351653415" lon="-8.431020412993371"><ele>499.0</ele><time>2026-04-18T11:23:28Z</time></trkpt><trkpt lat="42.61305087474747" lon="-8.43116607250408"><ele>499.0</ele><time>2026-04-18T11:23:29Z</time></trkpt><trkpt lat="42.613173796051846" lon="-8.431308930623501"><ele>499.0</ele><time>2026-04-18T11:23:30Z</time></trkpt><trkpt lat="42.613294429747164" lon="-8.431454004257436"><ele>493.0</ele><time>2026-04-18T11:23:31Z</time></trkpt><trkpt lat="42.61341310965737" lon="-8.431598912775385"><ele>487.0</ele><time>2026-04-18T11:23:32Z</time></trkpt><trkpt lat="42.61353147960201" lon="-8.431746052533825"><ele>481.0</ele><time>2026-04-18T11:23:33Z</time></trkpt><trkpt lat="42.61364780250098" lon="-8.431894989159945"><ele>480.0</ele><time>2026-04-18T11:23:34Z</time></trkpt><trkpt lat="42.61376404849746" lon="-8.432045226400849"><ele>479.0</ele><time>2026-04-18T11:23:35Z</time></trkpt><trkpt lat="42.613881911130484" lon="-8.43219176298237"><ele>478.0</ele><time>2026-04-18T11:23:36Z</time></trkpt><trkpt lat="42.613997600474484" lon="-8.432330326455057"><ele>478.0</ele><time>2026-04-18T11:23:37Z</time></trkpt><trkpt lat="42.61410989270709" lon="-8.432459085165766"><ele>478.0</ele><time>2026-04-18T11:23:38Z</time></trkpt><trkpt lat="42.614221369939656" lon="-8.432582556315541"><ele>478.0</ele><time>2026-04-18T11:23:39Z</time></trkpt><trkpt lat="42.614333345190616" lon="-8.432707643897293"><ele>478.0</ele><time>2026-04-18T11:23:40Z</time></trkpt><trkpt lat="42.614447425582235" lon="-8.43282888055071"><ele>479.75</ele><time>2026-04-18T11:23:41Z</time></trkpt><trkpt lat="42.614566691285596" lon="-8.432941239250054"><ele>481.5</ele><time>2026-04-18T11:23:42Z</time></trkpt><trkpt lat="42.61469167646057" lon="-8.433045738229625"><ele>483.25</ele><time>2026-04-18T11:23:43Z</time></trkpt><trkpt lat="42.61482483349036" lon="-8.43313535219304"><ele>485.0</ele><time>2026-04-18T11:23:44Z</time></trkpt><trkpt lat="42.61496136491925" lon="-8.433204217609145"><ele>479.66666666666663</ele><time>2026-04-18T11:23:45Z</time></trkpt><trkpt lat="42.61510383226735" lon="-8.4332615360684"><ele>474.33333333333337</ele><time>2026-04-18T11:23:46Z</time></trkpt><trkpt lat="42.61524992352378" lon="-8.433311216433635"><ele>469.0</ele><time>2026-04-18T11:23:47Z</time></trkpt><trkpt lat="42.61540159056782" lon="-8.433350486609577"><ele>468.0</ele><time>2026-04-18T11:23:48Z</time></trkpt><trkpt lat="42.61555576419754" lon="-8.433372593148789"><ele>467.0</ele><time>2026-04-18T11:23:49Z</time></trkpt><trkpt lat="42.6157093289776" lon="-8.433381301666769"><ele>466.0</ele><time>2026-04-18T11:23:50Z</time></trkpt><trkpt lat="42.615867298975495" lon="-8.433384743767828"><ele>466.0</ele><time>2026-04-18T11:23:51Z</time></trkpt><trkpt lat="42.61602643354139" lon="-8.433386469954007"><ele>466.0</ele><time>2026-04-18T11:23:52Z</time></trkpt><trkpt lat="42.61618651359547" lon="-8.433385807391613"><ele>466.0</ele><time>2026-04-18T11:23:53Z</time></trkpt><trkpt lat="42.61634667714403" lon="-8.433381843625858"><ele>463.0</ele><time>2026-04-18T11:23:54Z</time></trkpt><trkpt lat="42.616507618066166" lon="-8.433378604987528"><ele>460.0</ele><time>2026-04-18T11:23:55Z</time></trkpt><trkpt lat="42.616671051355915" lon="-8.433375499679224"><ele>457.0</ele><time>2026-04-18T11:23:56Z</time></trkpt><trkpt lat="42.6168359440827" lon="-8.43337056484996"><ele>456.0</ele><time>2026-04-18T11:23:57Z</time></trkpt><trkpt lat="42.61700261893219" lon="-8.433363974168936"><ele>455.0</ele><time>2026-04-18T11:23:58Z</time></trkpt><trkpt lat="42.61716589204233" lon="-8.43335841558917"><ele>454.0</ele><time>2026-04-18T11:23:59Z</time></trkpt><trkpt lat="42.61732835289931" lon="-8.433352368267876"><ele>454.0</ele><time>2026-04-18T11:24:00Z</time></trkpt><trkpt lat="42.617486769409176" lon="-8.43334605880511"><ele>454.0</ele><time>2026-04-18T11:24:01Z</time></trkpt><trkpt lat="42.617645667891324" lon="-8.433336784853623"><ele>454.0</ele><time>2026-04-18T11:24:02Z</time></trkpt><trkpt lat="42.6178024082687" lon="-8.433328885275953"><ele>450.33333333333337</ele><time>2026-04-18T11:24:03Z</time></trkpt><trkpt lat="42.61795892860847" lon="-8.433334773037958"><ele>446.66666666666663</ele><time>2026-04-18T11:24:04Z</time></trkpt><trkpt lat="42.61811006286682" lon="-8.433358707228896"><ele>443.0</ele><time>2026-04-18T11:24:05Z</time></trkpt><trkpt lat="42.61826038693158" lon="-8.433388576281322"><ele>443.0</ele><time>2026-04-18T11:24:06Z</time></trkpt><trkpt lat="42.61840623053821" lon="-8.433433337991731"><ele>443.0</ele><time>2026-04-18T11:24:07Z</time></trkpt><trkpt lat="42.61854818718859" lon="-8.433490318937492"><ele>443.0</ele><time>2026-04-18T11:24:08Z</time></trkpt><trkpt lat="42.61868696990393" lon="-8.433557425819131"><ele>443.0</ele><time>2026-04-18T11:24:09Z</time></trkpt><trkpt lat="42.61882288765537" lon="-8.43363683869093"><ele>443.5</ele><time>2026-04-18T11:24:10Z</time></trkpt><trkpt lat="42.618955129426936" lon="-8.433726134837121"><ele>444.0</ele><time>2026-04-18T11:24:11Z</time></trkpt><trkpt lat="42.619084345379655" lon="-8.433823902675101"><ele>444.5</ele><time>2026-04-18T11:24:12Z</time></trkpt><trkpt lat="42.6192121067613" lon="-8.433927118747096"><ele>445.0</ele><time>2026-04-18T11:24:13Z</time></trkpt><trkpt lat="42.61933947029563" lon="-8.434032671013584"><ele>442.0</ele><time>2026-04-18T11:24:14Z</time></trkpt><trkpt lat="42.619467764288025" lon="-8.434139388114662"><ele>439.0</ele><time>2026-04-18T11:24:15Z</time></trkpt><trkpt lat="42.61959644540214" lon="-8.434250426541718"><ele>436.0</ele><time>2026-04-18T11:24:16Z</time></trkpt><trkpt lat="42.61972399079197" lon="-8.434365328684398"><ele>435.5</ele><time>2026-04-18T11:24:17Z</time></trkpt><trkpt lat="42.619851403229575" lon="-8.43448415367443"><ele>435.0</ele><time>2026-04-18T11:24:18Z</time></trkpt><trkpt lat="42.61997531202684" lon="-8.434594637758236"><ele>434.5</ele><time>2026-04-18T11:24:19Z</time></trkpt><trkpt lat="42.620089467250594" lon="-8.434689253707326"><ele>434.0</ele><time>2026-04-18T11:24:20Z</time></trkpt><trkpt lat="42.620199666232985" lon="-8.434777069136846"><ele>433.0</ele><time>2026-04-18T11:24:21Z</time></trkpt><trkpt lat="42.620302518846714" lon="-8.434863338546075"><ele>432.0</ele><time>2026-04-18T11:24:22Z</time></trkpt><trkpt lat="42.62039426805991" lon="-8.434948616054537"><ele>431.0</ele><time>2026-04-18T11:24:23Z</time></trkpt><trkpt lat="42.62048069733362" lon="-8.435026726677705"><ele>430.0</ele><time>2026-04-18T11:24:24Z</time></trkpt><trkpt lat="42.620558886100525" lon="-8.435081481721758"><ele>429.0</ele><time>2026-04-18T11:24:25Z</time></trkpt><trkpt lat="42.62061011705065" lon="-8.435140265140902"><ele>429.0</ele><time>2026-04-18T11:24:26Z</time></trkpt><trkpt lat="42.620613203964986" lon="-8.435270173025108"><ele>429.0</ele><time>2026-04-18T11:24:28Z</time></trkpt><trkpt lat="42.62049139581232" lon="-8.435283481214054"><ele>429.0</ele><time>2026-04-18T11:24:30Z</time></trkpt><trkpt lat="42.62041824822475" lon="-8.43523105384161"><ele>429.0</ele><time>2026-04-18T11:24:31Z</time></trkpt><trkpt lat="42.62032780700737" lon="-8.435220319065575"><ele>429.0</ele><time>2026-04-18T11:24:32Z</time></trkpt><trkpt lat="42.62023156761752" lon="-8.435245742887833"><ele>428.4</ele><time>2026-04-18T11:24:33Z</time></trkpt><trkpt lat="42.62014372392519" lon="-8.435305642631329"><ele>427.79999999999995</ele><time>2026-04-18T11:24:34Z</time></trkpt><trkpt lat="42.62006173770528" lon="-8.435388541589544"><ele>427.20000000000005</ele><time>2026-04-18T11:24:35Z</time></trkpt><trkpt lat="42.61998421536499" lon="-8.435463020808973"><ele>426.6</ele><time>2026-04-18T11:24:36Z</time></trkpt><trkpt lat="42.61990747086184" lon="-8.435525576124123"><ele>426.0</ele><time>2026-04-18T11:24:37Z</time></trkpt><trkpt lat="42.61982884264496" lon="-8.43558343020601"><ele>425.4</ele><time>2026-04-18T11:24:38Z</time></trkpt><trkpt lat="42.61975605855135" lon="-8.435630311391707"><ele>424.8</ele><time>2026-04-18T11:24:39Z</time></trkpt><trkpt lat="42.619686806028824" lon="-8.435672197578903"><ele>424.2</ele><time>2026-04-18T11:24:40Z</time></trkpt><trkpt lat="42.61959782736618" lon="-8.43574860840143"><ele>423.59999999999997</ele><time>2026-04-18T11:24:42Z</time></trkpt><trkpt lat="42.61958749199447" lon="-8.435902466484201"><ele>423.0</ele><time>2026-04-18T11:24:44Z</time></trkpt><trkpt lat="42.61960459914081" lon="-8.436008734139183"><ele>423.0</ele><time>2026-04-18T11:24:45Z</time></trkpt><trkpt lat="42.61961203443276" lon="-8.436121540027912"><ele>423.0</ele><time>2026-04-18T11:24:46Z</time></trkpt><trkpt lat="42.61960247853288" lon="-8.436242472499803"><ele>423.0</ele><time>2026-04-18T11:24:47Z</time></trkpt><trkpt lat="42.6195746942309" lon="-8.436370926711346"><ele>423.0</ele><time>2026-04-18T11:24:48Z</time></trkpt><trkpt lat="42.6195435791308" lon="-8.436495499313324"><ele>423.0</ele><time>2026-04-18T11:24:49Z</time></trkpt><trkpt lat="42.61951328614124" lon="-8.436616189280922"><ele>422.8333333333333</ele><time>2026-04-18T11:24:50Z</time></trkpt><trkpt lat="42.61948757756636" lon="-8.436733563530048"><ele>422.66666666666663</ele><time>2026-04-18T11:24:51Z</time></trkpt><trkpt lat="42.61946358377965" lon="-8.436850053562194"><ele>422.5</ele><time>2026-04-18T11:24:51.999Z</time></trkpt><trkpt lat="42.619444155408644" lon="-8.436965419510218"><ele>422.3333333333333</ele><time>2026-04-18T11:24:52.999Z</time></trkpt><trkpt lat="42.61942918873474" lon="-8.437082218785598"><ele>422.16666666666663</ele><time>2026-04-18T11:24:53.999Z</time></trkpt><trkpt lat="42.619414044980815" lon="-8.437194296183323"><ele>422.0</ele><time>2026-04-18T11:24:54.999Z</time></trkpt><trkpt lat="42.61941158248367" lon="-8.437295151856928"><ele>421.99999999999994</ele><time>2026-04-18T11:24:55.999Z</time></trkpt><trkpt lat="42.61943654697256" lon="-8.437403826983795"><ele>422.0</ele><time>2026-04-18T11:24:56.999Z</time></trkpt><trkpt lat="42.61945886307156" lon="-8.437503449635276"><ele>422.0</ele><time>2026-04-18T11:24:57.999Z</time></trkpt><trkpt lat="42.61948558582462" lon="-8.437608199069036"><ele>422.0</ele><time>2026-04-18T11:24:58.999Z</time></trkpt><trkpt lat="42.6195256276574" lon="-8.437705768127131"><ele>421.99999999999994</ele><time>2026-04-18T11:24:59.999Z</time></trkpt><trkpt lat="42.61958913150057" lon="-8.437765158955017"><ele>422.0</ele><time>2026-04-18T11:25:00.999Z</time></trkpt><trkpt lat="42.61964261931936" lon="-8.437822756491995"><ele>421.20000000000005</ele><time>2026-04-18T11:25:01.999Z</time></trkpt><trkpt lat="42.61964368551298" lon="-8.437973009811046"><ele>420.4</ele><time>2026-04-18T11:25:03.999Z</time></trkpt><trkpt lat="42.619539203202486" lon="-8.438019939201249"><ele>419.6</ele><time>2026-04-18T11:25:05.999Z</time></trkpt><trkpt lat="42.619420471186864" lon="-8.43806080698222"><ele>418.79999999999995</ele><time>2026-04-18T11:25:07.999Z</time></trkpt><trkpt lat="42.6193447668792" lon="-8.43808337950792"><ele>418.0</ele><time>2026-04-18T11:25:08.999Z</time></trkpt><trkpt lat="42.619265019619" lon="-8.438110653749417"><ele>417.4</ele><time>2026-04-18T11:25:09.999Z</time></trkpt><trkpt lat="42.61916810461584" lon="-8.438138130759175"><ele>416.79999999999995</ele><time>2026-04-18T11:25:10.999Z</time></trkpt><trkpt lat="42.61906939644529" lon="-8.43817403935348"><ele>416.2</ele><time>2026-04-18T11:25:11.999Z</time></trkpt><trkpt lat="42.61897018719292" lon="-8.438208791492183"><ele>415.6</ele><time>2026-04-18T11:25:12.999Z</time></trkpt><trkpt lat="42.61887561913761" lon="-8.438248258410695"><ele>415.0</ele><time>2026-04-18T11:25:13.999Z</time></trkpt><trkpt lat="42.61878345723419" lon="-8.43828371333143"><ele>415.0</ele><time>2026-04-18T11:25:14.999Z</time></trkpt><trkpt lat="42.61869179783809" lon="-8.438314911728794"><ele>415.0</ele><time>2026-04-18T11:25:15.999Z</time></trkpt><trkpt lat="42.618589586203534" lon="-8.438346195163684"><ele>415.0</ele><time>2026-04-18T11:25:16.999Z</time></trkpt><trkpt lat="42.61847024641612" lon="-8.438385694134617"><ele>415.0</ele><time>2026-04-18T11:25:17.999Z</time></trkpt><trkpt lat="42.618341673237026" lon="-8.438432363965584"><ele>414.0</ele><time>2026-04-18T11:25:18.999Z</time></trkpt><trkpt lat="42.618221574385345" lon="-8.438474754232223"><ele>413.0</ele><time>2026-04-18T11:25:19.999Z</time></trkpt><trkpt lat="42.61810865518811" lon="-8.438515538744081"><ele>412.0</ele><time>2026-04-18T11:25:20.999Z</time></trkpt><trkpt lat="42.61800814774347" lon="-8.438550802472909"><ele>411.0</ele><time>2026-04-18T11:25:21.999Z</time></trkpt><trkpt lat="42.61791473402201" lon="-8.438586670780138"><ele>410.0</ele><time>2026-04-18T11:25:22.999Z</time></trkpt><trkpt lat="42.61783539444298" lon="-8.438621371597927"><ele>408.8333333333333</ele><time>2026-04-18T11:25:23.999Z</time></trkpt><trkpt lat="42.61773696374714" lon="-8.43865587267632"><ele>407.66666666666663</ele><time>2026-04-18T11:25:25.999Z</time></trkpt><trkpt lat="42.61765674842328" lon="-8.438715042579801"><ele>406.5</ele><time>2026-04-18T11:25:27.999Z</time></trkpt><trkpt lat="42.61758543807352" lon="-8.438752107114835"><ele>405.33333333333337</ele><time>2026-04-18T11:25:29.999Z</time></trkpt><trkpt lat="42.61758630394572" lon="-8.438641104279792"><ele>404.1666666666667</ele><time>2026-04-18T11:25:33Z</time></trkpt><trkpt lat="42.61765930517797" lon="-8.438607120647738"><ele>403.0</ele><time>2026-04-18T11:25:34Z</time></trkpt><trkpt lat="42.61773965737924" lon="-8.438595328168525"><ele>404.4</ele><time>2026-04-18T11:25:35Z</time></trkpt><trkpt lat="42.61783295908656" lon="-8.438585755565752"><ele>405.79999999999995</ele><time>2026-04-18T11:25:36Z</time></trkpt><trkpt lat="42.6179355187327" lon="-8.438561578129347"><ele>407.2</ele><time>2026-04-18T11:25:37Z</time></trkpt><trkpt lat="42.61804436449041" lon="-8.438527451492456"><ele>408.6</ele><time>2026-04-18T11:25:38Z</time></trkpt><trkpt lat="42.618152965868084" lon="-8.438480897622496"><ele>410.0</ele><time>2026-04-18T11:25:39Z</time></trkpt><trkpt lat="42.618262694565665" lon="-8.438433912781573"><ele>410.0</ele><time>2026-04-18T11:25:40Z</time></trkpt><trkpt lat="42.61837340102732" lon="-8.438393009108237"><ele>410.0</ele><time>2026-04-18T11:25:41Z</time></trkpt><trkpt lat="42.61847715571007" lon="-8.438360674797215"><ele>410.0</ele><time>2026-04-18T11:25:42Z</time></trkpt><trkpt lat="42.618572584979695" lon="-8.438329469011842"><ele>410.0</ele><time>2026-04-18T11:25:43Z</time></trkpt><trkpt lat="42.618664576180706" lon="-8.43829470581856"><ele>410.0</ele><time>2026-04-18T11:25:44Z</time></trkpt><trkpt lat="42.61875911336382" lon="-8.438257354568954"><ele>411.0</ele><time>2026-04-18T11:25:45Z</time></trkpt><trkpt lat="42.6188591157488" lon="-8.438217031249149"><ele>412.0</ele><time>2026-04-18T11:25:46Z</time></trkpt><trkpt lat="42.61895990481043" lon="-8.438177663311352"><ele>413.0</ele><time>2026-04-18T11:25:47Z</time></trkpt><trkpt lat="42.619061971357446" lon="-8.438139795705249"><ele>414.0</ele><time>2026-04-18T11:25:48Z</time></trkpt><trkpt lat="42.6191561167855" lon="-8.438102037300272"><ele>415.0</ele><time>2026-04-18T11:25:49Z</time></trkpt><trkpt lat="42.61921664937824" lon="-8.438068950031505"><ele>415.00000000000006</ele><time>2026-04-18T11:25:50Z</time></trkpt><trkpt lat="42.61928554350133" lon="-8.438074886824765"><ele>415.0</ele><time>2026-04-18T11:25:51Z</time></trkpt><trkpt lat="42.6193375525922" lon="-8.43812619210305"><ele>415.0</ele><time>2026-04-18T11:25:52Z</time></trkpt><trkpt lat="42.61935627319594" lon="-8.438241570394151"><ele>415.0</ele><time>2026-04-18T11:25:54Z</time></trkpt><trkpt lat="42.61928596263647" lon="-8.438351036272579"><ele>415.00000000000006</ele><time>2026-04-18T11:25:56Z</time></trkpt><trkpt lat="42.61921535951655" lon="-8.438462654103054"><ele>415.0</ele><time>2026-04-18T11:25:58Z</time></trkpt><trkpt lat="42.619180096933434" lon="-8.438558944557798"><ele>415.0</ele><time>2026-04-18T11:25:59Z</time></trkpt><trkpt lat="42.61913040319439" lon="-8.438666371460206"><ele>415.0</ele><time>2026-04-18T11:26:00Z</time></trkpt><trkpt lat="42.619077595332186" lon="-8.43877609822062"><ele>415.0</ele><time>2026-04-18T11:26:01Z</time></trkpt><trkpt lat="42.619022642532705" lon="-8.438885093518637"><ele>415.0</ele><time>2026-04-18T11:26:02Z</time></trkpt><trkpt lat="42.61897577843272" lon="-8.43898134096558"><ele>415.0</ele><time>2026-04-18T11:26:03Z</time></trkpt><trkpt lat="42.618931049520775" lon="-8.439069407632415"><ele>414.1666666666667</ele><time>2026-04-18T11:26:04Z</time></trkpt><trkpt lat="42.618889429819355" lon="-8.439151077258483"><ele>413.33333333333337</ele><time>2026-04-18T11:26:05Z</time></trkpt><trkpt lat="42.61884981769118" lon="-8.439228173121219"><ele>412.5</ele><time>2026-04-18T11:26:06Z</time></trkpt><trkpt lat="42.618796372092014" lon="-8.439346316212957"><ele>411.66666666666663</ele><time>2026-04-18T11:26:08Z</time></trkpt><trkpt lat="42.61876269961824" lon="-8.439434439312588"><ele>410.8333333333333</ele><time>2026-04-18T11:26:10.999Z</time></trkpt><trkpt lat="42.61879416287752" lon="-8.439299963033202"><ele>410.0</ele><time>2026-04-18T11:26:22.999Z</time></trkpt><trkpt lat="42.61884318164085" lon="-8.439232386002079"><ele>410.0</ele><time>2026-04-18T11:26:23.999Z</time></trkpt><trkpt lat="42.61888351537311" lon="-8.439134346086334"><ele>410.0</ele><time>2026-04-18T11:26:24.999Z</time></trkpt><trkpt lat="42.61892780919539" lon="-8.439027202900537"><ele>410.0</ele><time>2026-04-18T11:26:25.999Z</time></trkpt><trkpt lat="42.61898527630258" lon="-8.438916820229794"><ele>410.0</ele><time>2026-04-18T11:26:26.999Z</time></trkpt><trkpt lat="42.619043774300025" lon="-8.438798434914455"><ele>410.0</ele><time>2026-04-18T11:26:27.999Z</time></trkpt><trkpt lat="42.61910702476052" lon="-8.43868345394486"><ele>410.8333333333333</ele><time>2026-04-18T11:26:28.999Z</time></trkpt><trkpt lat="42.619166589149884" lon="-8.438568908409993"><ele>411.66666666666663</ele><time>2026-04-18T11:26:29.999Z</time></trkpt><trkpt lat="42.619217348035015" lon="-8.438458901745816"><ele>412.5</ele><time>2026-04-18T11:26:30.999Z</time></trkpt><trkpt lat="42.6192605868504" lon="-8.438364066922679"><ele>413.33333333333337</ele><time>2026-04-18T11:26:31.999Z</time></trkpt><trkpt lat="42.61928842816272" lon="-8.438285688046108"><ele>414.1666666666667</ele><time>2026-04-18T11:26:32.999Z</time></trkpt><trkpt lat="42.6192941694068" lon="-8.438168540940865"><ele>415.0</ele><time>2026-04-18T11:26:34.999Z</time></trkpt><trkpt lat="42.61932036913576" lon="-8.438079315297266"><ele>415.00000000000006</ele><time>2026-04-18T11:26:36.999Z</time></trkpt><trkpt lat="42.61939297899944" lon="-8.438030033359354"><ele>415.0</ele><time>2026-04-18T11:26:37.999Z</time></trkpt><trkpt lat="42.61946393693863" lon="-8.437986603933435"><ele>415.0</ele><time>2026-04-18T11:26:38.999Z</time></trkpt><trkpt lat="42.61951274481682" lon="-8.43793084939865"><ele>415.0</ele><time>2026-04-18T11:26:39.999Z</time></trkpt><trkpt lat="42.61951941550766" lon="-8.437814331439872"><ele>415.00000000000006</ele><time>2026-04-18T11:26:41.999Z</time></trkpt><trkpt lat="42.619498431172005" lon="-8.437712318796466"><ele>415.0</ele><time>2026-04-18T11:26:43.999Z</time></trkpt><trkpt lat="42.61958485978136" lon="-8.437754619107613"><ele>415.00000000000006</ele><time>2026-04-18T11:26:46.999Z</time></trkpt><trkpt lat="42.61961634736978" lon="-8.437845661963806"><ele>415.0</ele><time>2026-04-18T11:28:01.999Z</time></trkpt><trkpt lat="42.61959646716782" lon="-8.437969495881433"><ele>415.0</ele><time>2026-04-18T11:28:03.999Z</time></trkpt><trkpt lat="42.61953851728265" lon="-8.438024026981168"><ele>415.0</ele><time>2026-04-18T11:28:04.999Z</time></trkpt><trkpt lat="42.61946156680945" lon="-8.438053630846614"><ele>415.00000000000006</ele><time>2026-04-18T11:28:05.999Z</time></trkpt><trkpt lat="42.61938373749487" lon="-8.438099523516785"><ele>415.0</ele><time>2026-04-18T11:28:06.999Z</time></trkpt><trkpt lat="42.61931870157101" lon="-8.43818033060795"><ele>415.0</ele><time>2026-04-18T11:28:07.999Z</time></trkpt><trkpt lat="42.61927465448856" lon="-8.438284222117517"><ele>415.0</ele><time>2026-04-18T11:28:08.999Z</time></trkpt><trkpt lat="42.619228646438884" lon="-8.438393841838641"><ele>415.0</ele><time>2026-04-18T11:28:09.999Z</time></trkpt><trkpt lat="42.61918097356311" lon="-8.438500167840292"><ele>415.0</ele><time>2026-04-18T11:28:10.999Z</time></trkpt><trkpt lat="42.61912457939839" lon="-8.438614573822791"><ele>415.0</ele><time>2026-04-18T11:28:11.999Z</time></trkpt><trkpt lat="42.6190685431568" lon="-8.438728703331583"><ele>414.0</ele><time>2026-04-18T11:28:12.999Z</time></trkpt><trkpt lat="42.61901066943501" lon="-8.438839623917113"><ele>413.0</ele><time>2026-04-18T11:28:13.999Z</time></trkpt><trkpt lat="42.618954965093614" lon="-8.438947046025577"><ele>412.0</ele><time>2026-04-18T11:28:14.999Z</time></trkpt><trkpt lat="42.618899940928735" lon="-8.439048105526412"><ele>411.0</ele><time>2026-04-18T11:28:15.999Z</time></trkpt><trkpt lat="42.618853867871" lon="-8.43914670565599"><ele>410.0</ele><time>2026-04-18T11:28:16.999Z</time></trkpt><trkpt lat="42.618819370787556" lon="-8.439245908422219"><ele>409.99999999999994</ele><time>2026-04-18T11:28:17.999Z</time></trkpt><trkpt lat="42.61880089744566" lon="-8.439346880489907"><ele>410.0</ele><time>2026-04-18T11:28:18.999Z</time></trkpt><trkpt lat="42.61880549246895" lon="-8.439452606569812"><ele>410.0</ele><time>2026-04-18T11:28:19.999Z</time></trkpt><trkpt lat="42.61883510259546" lon="-8.439568015975421"><ele>410.0</ele><time>2026-04-18T11:28:20.999Z</time></trkpt><trkpt lat="42.61887222979482" lon="-8.439691643141655"><ele>409.99999999999994</ele><time>2026-04-18T11:28:21.999Z</time></trkpt><trkpt lat="42.618908601175555" lon="-8.439827391874578"><ele>410.0</ele><time>2026-04-18T11:28:22.999Z</time></trkpt><trkpt lat="42.618951491329" lon="-8.439971487348556"><ele>409.25</ele><time>2026-04-18T11:28:23.999Z</time></trkpt><trkpt lat="42.618999543638196" lon="-8.440121522628456"><ele>408.5</ele><time>2026-04-18T11:28:24.999Z</time></trkpt><trkpt lat="42.619045104692084" lon="-8.440282073493647"><ele>407.75</ele><time>2026-04-18T11:28:25.999Z</time></trkpt><trkpt lat="42.61909152494246" lon="-8.44044911357236"><ele>407.0</ele><time>2026-04-18T11:28:26.999Z</time></trkpt><trkpt lat="42.6191392730727" lon="-8.440616385884384"><ele>406.25</ele><time>2026-04-18T11:28:27.999Z</time></trkpt><trkpt lat="42.61918847630711" lon="-8.440783246030337"><ele>405.5</ele><time>2026-04-18T11:28:28.999Z</time></trkpt><trkpt lat="42.61923438717007" lon="-8.440950230141874"><ele>404.75</ele><time>2026-04-18T11:28:29.999Z</time></trkpt><trkpt lat="42.6192824159407" lon="-8.441115855546002"><ele>404.0</ele><time>2026-04-18T11:28:30.999Z</time></trkpt><trkpt lat="42.6193325272739" lon="-8.441276827090398"><ele>403.5</ele><time>2026-04-18T11:28:31.999Z</time></trkpt><trkpt lat="42.61938285626881" lon="-8.441439675425269"><ele>403.0</ele><time>2026-04-18T11:28:32.999Z</time></trkpt><trkpt lat="42.619430835237" lon="-8.441600869184741"><ele>402.5</ele><time>2026-04-18T11:28:33.999Z</time></trkpt><trkpt lat="42.61948075121832" lon="-8.441768603097552"><ele>402.0</ele><time>2026-04-18T11:28:34.999Z</time></trkpt><trkpt lat="42.61952993340282" lon="-8.441943507826412"><ele>402.0</ele><time>2026-04-18T11:28:35.999Z</time></trkpt><trkpt lat="42.61958326937942" lon="-8.44212403824502"><ele>402.0</ele><time>2026-04-18T11:28:36.999Z</time></trkpt><trkpt lat="42.619638058782435" lon="-8.442310486587287"><ele>402.0</ele><time>2026-04-18T11:28:37.999Z</time></trkpt><trkpt lat="42.6196911907584" lon="-8.442496846371764"><ele>402.0</ele><time>2026-04-18T11:28:38.999Z</time></trkpt><trkpt lat="42.6197464118597" lon="-8.442677784672883"><ele>401.5</ele><time>2026-04-18T11:28:39.999Z</time></trkpt><trkpt lat="42.61979954922427" lon="-8.442857790310272"><ele>401.0</ele><time>2026-04-18T11:28:40.999Z</time></trkpt><trkpt lat="42.619852108489916" lon="-8.44303532771446"><ele>400.5</ele><time>2026-04-18T11:28:41.999Z</time></trkpt><trkpt lat="42.61991153890741" lon="-8.443208526919205"><ele>400.0</ele><time>2026-04-18T11:28:42.999Z</time></trkpt><trkpt lat="42.619962266552626" lon="-8.443379832893747"><ele>399.75</ele><time>2026-04-18T11:28:43.999Z</time></trkpt><trkpt lat="42.62001313024835" lon="-8.44355960215779"><ele>399.5</ele><time>2026-04-18T11:28:44.999Z</time></trkpt><trkpt lat="42.620065024812305" lon="-8.44372689690076"><ele>399.25</ele><time>2026-04-18T11:28:45.999Z</time></trkpt><trkpt lat="42.620123624311525" lon="-8.44389361335056"><ele>399.0</ele><time>2026-04-18T11:28:46.999Z</time></trkpt><trkpt lat="42.62018235323895" lon="-8.444065999818951"><ele>399.0</ele><time>2026-04-18T11:28:47.999Z</time></trkpt><trkpt lat="42.62023342888026" lon="-8.444233325868067"><ele>399.0</ele><time>2026-04-18T11:28:48.999Z</time></trkpt><trkpt lat="42.62028558593783" lon="-8.444406658757647"><ele>399.0</ele><time>2026-04-18T11:28:49.999Z</time></trkpt><trkpt lat="42.62033607702193" lon="-8.444579832914563"><ele>399.0</ele><time>2026-04-18T11:28:50.999Z</time></trkpt><trkpt lat="42.62038775053896" lon="-8.444754154773277"><ele>400.25</ele><time>2026-04-18T11:28:51.999Z</time></trkpt><trkpt lat="42.62043898516605" lon="-8.444924563921374"><ele>401.5</ele><time>2026-04-18T11:28:52.999Z</time></trkpt><trkpt lat="42.62049115459787" lon="-8.445094454627684"><ele>402.75</ele><time>2026-04-18T11:28:53.999Z</time></trkpt><trkpt lat="42.620545731498765" lon="-8.445271012341562"><ele>404.0</ele><time>2026-04-18T11:28:54.999Z</time></trkpt><trkpt lat="42.620596243258625" lon="-8.445449584785036"><ele>403.0</ele><time>2026-04-18T11:28:55.999Z</time></trkpt><trkpt lat="42.620652940109025" lon="-8.44562539829061"><ele>402.0</ele><time>2026-04-18T11:28:56.999Z</time></trkpt><trkpt lat="42.6207068495549" lon="-8.445801750449593"><ele>401.0</ele><time>2026-04-18T11:28:57.999Z</time></trkpt><trkpt lat="42.62075987355609" lon="-8.445980821576137"><ele>400.0</ele><time>2026-04-18T11:28:58.999Z</time></trkpt><trkpt lat="42.62081099198528" lon="-8.446156733770591"><ele>398.25</ele><time>2026-04-18T11:28:59.999Z</time></trkpt><trkpt lat="42.62086347682254" lon="-8.446333063001344"><ele>396.5</ele><time>2026-04-18T11:29:00.999Z</time></trkpt><trkpt lat="42.62091889917191" lon="-8.446507801289153"><ele>394.75</ele><time>2026-04-18T11:29:01.999Z</time></trkpt><trkpt lat="42.62097689441434" lon="-8.446676107497463"><ele>393.0</ele><time>2026-04-18T11:29:02.999Z</time></trkpt><trkpt lat="42.62103481590286" lon="-8.446840460060171"><ele>393.0</ele><time>2026-04-18T11:29:03.999Z</time></trkpt><trkpt lat="42.621096385218145" lon="-8.447002226760933"><ele>393.0</ele><time>2026-04-18T11:29:04.999Z</time></trkpt><trkpt lat="42.62116372923519" lon="-8.447161282965773"><ele>393.0</ele><time>2026-04-18T11:29:05.999Z</time></trkpt><trkpt lat="42.62124037622256" lon="-8.447312844213625"><ele>393.0</ele><time>2026-04-18T11:29:06.999Z</time></trkpt><trkpt lat="42.621321811150864" lon="-8.447458155875765"><ele>392.25</ele><time>2026-04-18T11:29:07.999Z</time></trkpt><trkpt lat="42.621405396736684" lon="-8.447599705648237"><ele>391.5</ele><time>2026-04-18T11:29:08.999Z</time></trkpt><trkpt lat="42.621493985205625" lon="-8.447752397994071"><ele>390.75</ele><time>2026-04-18T11:29:09.999Z</time></trkpt><trkpt lat="42.621579863492435" lon="-8.447905217913934"><ele>390.0</ele><time>2026-04-18T11:29:10.999Z</time></trkpt><trkpt lat="42.621666782383826" lon="-8.448057014623481"><ele>389.5</ele><time>2026-04-18T11:29:11.999Z</time></trkpt><trkpt lat="42.62175523099191" lon="-8.448211166625658"><ele>389.0</ele><time>2026-04-18T11:29:12.999Z</time></trkpt><trkpt lat="42.62184344228734" lon="-8.448363265914388"><ele>388.5</ele><time>2026-04-18T11:29:13.999Z</time></trkpt><trkpt lat="42.621936427957216" lon="-8.448512427553984"><ele>388.0</ele><time>2026-04-18T11:29:14.999Z</time></trkpt><trkpt lat="42.62202550302342" lon="-8.448661548080317"><ele>385.0</ele><time>2026-04-18T11:29:15.999Z</time></trkpt><trkpt lat="42.62211787797605" lon="-8.4488107432042"><ele>382.0</ele><time>2026-04-18T11:29:16.999Z</time></trkpt><trkpt lat="42.62220992797621" lon="-8.44895880348929"><ele>379.0</ele><time>2026-04-18T11:29:17.999Z</time></trkpt><trkpt lat="42.62230422172966" lon="-8.449101108729161"><ele>376.0</ele><time>2026-04-18T11:29:18.999Z</time></trkpt><trkpt lat="42.62239932790677" lon="-8.449242624343716"><ele>376.0</ele><time>2026-04-18T11:29:19.999Z</time></trkpt><trkpt lat="42.62249464472434" lon="-8.449382782575732"><ele>376.0</ele><time>2026-04-18T11:29:20.999Z</time></trkpt><trkpt lat="42.62259749830851" lon="-8.449510545754974"><ele>376.0</ele><time>2026-04-18T11:29:21.999Z</time></trkpt><trkpt lat="42.62271211653099" lon="-8.449620739068823"><ele>376.0</ele><time>2026-04-18T11:29:22.999Z</time></trkpt><trkpt lat="42.62283783525345" lon="-8.449712840684523"><ele>374.5</ele><time>2026-04-18T11:29:23.999Z</time></trkpt><trkpt lat="42.6229701927273" lon="-8.44979275972766"><ele>373.0</ele><time>2026-04-18T11:29:24.998Z</time></trkpt><trkpt lat="42.62310420515036" lon="-8.44985443202541"><ele>371.5</ele><time>2026-04-18T11:29:25.998Z</time></trkpt><trkpt lat="42.623236131878414" lon="-8.449914551311752"><ele>370.0</ele><time>2026-04-18T11:29:26.998Z</time></trkpt><trkpt lat="42.62336571107673" lon="-8.449982160754105"><ele>370.0</ele><time>2026-04-18T11:29:27.998Z</time></trkpt><trkpt lat="42.62347414677423" lon="-8.450082465517461"><ele>370.0</ele><time>2026-04-18T11:29:28.998Z</time></trkpt><trkpt lat="42.62356087102702" lon="-8.450212469910419"><ele>370.0</ele><time>2026-04-18T11:29:29.998Z</time></trkpt><trkpt lat="42.62361098890626" lon="-8.450376891392962"><ele>370.0</ele><time>2026-04-18T11:29:30.998Z</time></trkpt><trkpt lat="42.62363409565512" lon="-8.450560456929955"><ele>368.75</ele><time>2026-04-18T11:29:31.998Z</time></trkpt><trkpt lat="42.623642141546064" lon="-8.45074262683724"><ele>367.5</ele><time>2026-04-18T11:29:32.998Z</time></trkpt><trkpt lat="42.623644552060995" lon="-8.450934873489475"><ele>366.25</ele><time>2026-04-18T11:29:33.998Z</time></trkpt><trkpt lat="42.62363222198801" lon="-8.451119776812902"><ele>365.0</ele><time>2026-04-18T11:29:34.998Z</time></trkpt><trkpt lat="42.623596050395825" lon="-8.451300386915893"><ele>365.0</ele><time>2026-04-18T11:29:35.998Z</time></trkpt><trkpt lat="42.62354459055501" lon="-8.451487259735872"><ele>365.0</ele><time>2026-04-18T11:29:36.998Z</time></trkpt><trkpt lat="42.6234874747848" lon="-8.451673463561775"><ele>365.0</ele><time>2026-04-18T11:29:37.998Z</time></trkpt><trkpt lat="42.62343110993793" lon="-8.451856539458895"><ele>365.0</ele><time>2026-04-18T11:29:38.998Z</time></trkpt><trkpt lat="42.6233798143755" lon="-8.4520349341863"><ele>366.25</ele><time>2026-04-18T11:29:39.998Z</time></trkpt><trkpt lat="42.62333917354409" lon="-8.452220378219305"><ele>367.5</ele><time>2026-04-18T11:29:40.998Z</time></trkpt><trkpt lat="42.62333253261837" lon="-8.452414913344255"><ele>368.75</ele><time>2026-04-18T11:29:41.998Z</time></trkpt><trkpt lat="42.6233372929668" lon="-8.452616680384105"><ele>370.0</ele><time>2026-04-18T11:29:43Z</time></trkpt><trkpt lat="42.62334905379073" lon="-8.452817470095557"><ele>369.3333333333333</ele><time>2026-04-18T11:29:44Z</time></trkpt><trkpt lat="42.623371248921444" lon="-8.453023778618427"><ele>368.6666666666667</ele><time>2026-04-18T11:29:45Z</time></trkpt><trkpt lat="42.62338973330905" lon="-8.453229644065539"><ele>368.0</ele><time>2026-04-18T11:29:46Z</time></trkpt><trkpt lat="42.623408377375355" lon="-8.453439625660549"><ele>368.0</ele><time>2026-04-18T11:29:47Z</time></trkpt><trkpt lat="42.623427470915914" lon="-8.453644686282782"><ele>368.0</ele><time>2026-04-18T11:29:48Z</time></trkpt><trkpt lat="42.62344627136434" lon="-8.453852419306308"><ele>368.0</ele><time>2026-04-18T11:29:49Z</time></trkpt><trkpt lat="42.62346623575613" lon="-8.454057675899014"><ele>367.33333333333337</ele><time>2026-04-18T11:29:50Z</time></trkpt><trkpt lat="42.62348550893816" lon="-8.45425804910704"><ele>366.6666666666667</ele><time>2026-04-18T11:29:51Z</time></trkpt><trkpt lat="42.62351004468763" lon="-8.45446081104058"><ele>366.0</ele><time>2026-04-18T11:29:52Z</time></trkpt><trkpt lat="42.62353508096962" lon="-8.454662211685713"><ele>366.0</ele><time>2026-04-18T11:29:53Z</time></trkpt><trkpt lat="42.62355917779938" lon="-8.454860605901409"><ele>366.0</ele><time>2026-04-18T11:29:54Z</time></trkpt><trkpt lat="42.62358251263105" lon="-8.455059640212896"><ele>366.0</ele><time>2026-04-18T11:29:55Z</time></trkpt><trkpt lat="42.623607320408766" lon="-8.455256417050629"><ele>366.0</ele><time>2026-04-18T11:29:56Z</time></trkpt><trkpt lat="42.62363165514989" lon="-8.45544837084454"><ele>368.25</ele><time>2026-04-18T11:29:57Z</time></trkpt><trkpt lat="42.623653584800266" lon="-8.455641688780036"><ele>370.5</ele><time>2026-04-18T11:29:58Z</time></trkpt><trkpt lat="42.62367546982568" lon="-8.455834019884096"><ele>372.75</ele><time>2026-04-18T11:29:59Z</time></trkpt><trkpt lat="42.6236973209809" lon="-8.456024111777065"><ele>375.0</ele><time>2026-04-18T11:30:00Z</time></trkpt><trkpt lat="42.62371942903023" lon="-8.456211731050997"><ele>374.5</ele><time>2026-04-18T11:30:01Z</time></trkpt><trkpt lat="42.62374771491051" lon="-8.456399467215878"><ele>374.0</ele><time>2026-04-18T11:30:02Z</time></trkpt><trkpt lat="42.62378092572921" lon="-8.456584733974719"><ele>373.5</ele><time>2026-04-18T11:30:03Z</time></trkpt><trkpt lat="42.62382193204705" lon="-8.456765084957496"><ele>373.0</ele><time>2026-04-18T11:30:04Z</time></trkpt><trkpt lat="42.62386884191496" lon="-8.456940022180158"><ele>373.0</ele><time>2026-04-18T11:30:05Z</time></trkpt><trkpt lat="42.623920939057676" lon="-8.457111254135485"><ele>373.0</ele><time>2026-04-18T11:30:06Z</time></trkpt><trkpt lat="42.62398517977939" lon="-8.457272578314493"><ele>373.0</ele><time>2026-04-18T11:30:07Z</time></trkpt><trkpt lat="42.624064988806836" lon="-8.45742784195433"><ele>373.0</ele><time>2026-04-18T11:30:07.999Z</time></trkpt><trkpt lat="42.624163989201165" lon="-8.457565783712944"><ele>373.25</ele><time>2026-04-18T11:30:08.999Z</time></trkpt><trkpt lat="42.624276091759775" lon="-8.45768612883837"><ele>373.5</ele><time>2026-04-18T11:30:09.999Z</time></trkpt><trkpt lat="42.624388656470565" lon="-8.45780457457501"><ele>373.75</ele><time>2026-04-18T11:30:10.999Z</time></trkpt><trkpt lat="42.624506622671824" lon="-8.457925939236238"><ele>374.0</ele><time>2026-04-18T11:30:11.999Z</time></trkpt><trkpt lat="42.624628079037976" lon="-8.458042917897565"><ele>373.0</ele><time>2026-04-18T11:30:12.999Z</time></trkpt><trkpt lat="42.62475285150293" lon="-8.458158502524139"><ele>372.0</ele><time>2026-04-18T11:30:13.999Z</time></trkpt><trkpt lat="42.62488098741179" lon="-8.458273076285495"><ele>371.0</ele><time>2026-04-18T11:30:14.999Z</time></trkpt><trkpt lat="42.62500976604847" lon="-8.45839126026084"><ele>371.0</ele><time>2026-04-18T11:30:15.999Z</time></trkpt><trkpt lat="42.625137792212776" lon="-8.458511307770948"><ele>371.0</ele><time>2026-04-18T11:30:16.999Z</time></trkpt><trkpt lat="42.62526368787257" lon="-8.458631243751567"><ele>371.0</ele><time>2026-04-18T11:30:17.999Z</time></trkpt><trkpt lat="42.62539003605694" lon="-8.458748746077095"><ele>371.6666666666667</ele><time>2026-04-18T11:30:18.999Z</time></trkpt><trkpt lat="42.62551608237951" lon="-8.458867302023203"><ele>372.3333333333333</ele><time>2026-04-18T11:30:19.999Z</time></trkpt><trkpt lat="42.62564107841638" lon="-8.458985040416842"><ele>373.0</ele><time>2026-04-18T11:30:20.999Z</time></trkpt><trkpt lat="42.6257647563819" lon="-8.459105319961296"><ele>373.0</ele><time>2026-04-18T11:30:21.999Z</time></trkpt><trkpt lat="42.62589281621623" lon="-8.459226929349777"><ele>373.0</ele><time>2026-04-18T11:30:22.999Z</time></trkpt><trkpt lat="42.62601808270127" lon="-8.45933967107559"><ele>373.0</ele><time>2026-04-18T11:30:23.999Z</time></trkpt><trkpt lat="42.62614293419667" lon="-8.459463617397681"><ele>373.66666666666663</ele><time>2026-04-18T11:30:24.999Z</time></trkpt><trkpt lat="42.62626665061733" lon="-8.459584578159145"><ele>374.3333333333333</ele><time>2026-04-18T11:30:25.999Z</time></trkpt><trkpt lat="42.626389930871255" lon="-8.459709928202395"><ele>375.0</ele><time>2026-04-18T11:30:26.999Z</time></trkpt><trkpt lat="42.62651165210352" lon="-8.459838993460819"><ele>373.6666666666667</ele><time>2026-04-18T11:30:27.999Z</time></trkpt><trkpt lat="42.6266305039686" lon="-8.459971358207227"><ele>372.33333333333337</ele><time>2026-04-18T11:30:28.999Z</time></trkpt><trkpt lat="42.62675141501102" lon="-8.460104528940393"><ele>371.0</ele><time>2026-04-18T11:30:29.999Z</time></trkpt><trkpt lat="42.62687194390855" lon="-8.460240532196392"><ele>371.33333333333337</ele><time>2026-04-18T11:30:30.999Z</time></trkpt><trkpt lat="42.626990735472525" lon="-8.46037566213332"><ele>371.6666666666667</ele><time>2026-04-18T11:30:31.999Z</time></trkpt><trkpt lat="42.62710920057221" lon="-8.460510547420569"><ele>372.0</ele><time>2026-04-18T11:30:32.999Z</time></trkpt><trkpt lat="42.62721942178049" lon="-8.460645313321145"><ele>371.0</ele><time>2026-04-18T11:30:33.999Z</time></trkpt><trkpt lat="42.62733230446856" lon="-8.460772287191238"><ele>370.0</ele><time>2026-04-18T11:30:34.999Z</time></trkpt><trkpt lat="42.627447524292684" lon="-8.460883355862556"><ele>369.0</ele><time>2026-04-18T11:30:35.999Z</time></trkpt><trkpt lat="42.62756407962921" lon="-8.460990043404841"><ele>368.0</ele><time>2026-04-18T11:30:36.999Z</time></trkpt><trkpt lat="42.62767371067213" lon="-8.46109726845668"><ele>368.0</ele><time>2026-04-18T11:30:37.999Z</time></trkpt><trkpt lat="42.627779654472526" lon="-8.461207209694468"><ele>368.0</ele><time>2026-04-18T11:30:38.999Z</time></trkpt><trkpt lat="42.627883354171296" lon="-8.461312921613594"><ele>368.0</ele><time>2026-04-18T11:30:39.999Z</time></trkpt><trkpt lat="42.62798249748777" lon="-8.461399222451579"><ele>368.0</ele><time>2026-04-18T11:30:40.999Z</time></trkpt><trkpt lat="42.62806951378978" lon="-8.4614713902235"><ele>368.33333333333337</ele><time>2026-04-18T11:30:41.999Z</time></trkpt><trkpt lat="42.62814767485762" lon="-8.461538037189472"><ele>368.6666666666667</ele><time>2026-04-18T11:30:42.999Z</time></trkpt><trkpt lat="42.6282179122233" lon="-8.461603445801805"><ele>369.0</ele><time>2026-04-18T11:30:43.999Z</time></trkpt><trkpt lat="42.62827796981202" lon="-8.461683829274545"><ele>369.3333333333333</ele><time>2026-04-18T11:30:44.999Z</time></trkpt><trkpt lat="42.628348177319886" lon="-8.461767505535555"><ele>369.66666666666663</ele><time>2026-04-18T11:30:46.999Z</time></trkpt><trkpt lat="42.62841051570298" lon="-8.461743042832671"><ele>370.0</ele><time>2026-04-18T11:30:48.999Z</time></trkpt><trkpt lat="42.628501631894046" lon="-8.461692317667959"><ele>370.0</ele><time>2026-04-18T11:30:50.999Z</time></trkpt><trkpt lat="42.62858318489782" lon="-8.461605806208462"><ele>370.0</ele><time>2026-04-18T11:30:52.999Z</time></trkpt><trkpt lat="42.62864088866966" lon="-8.461479745921668"><ele>370.0</ele><time>2026-04-18T11:30:54.999Z</time></trkpt><trkpt lat="42.628683385954325" lon="-8.461358068303529"><ele>370.0</ele><time>2026-04-18T11:30:56.999Z</time></trkpt><trkpt lat="42.62868288050635" lon="-8.461215104225186"><ele>370.0</ele><time>2026-04-18T11:30:58.999Z</time></trkpt><trkpt lat="42.628710080055576" lon="-8.461074597149912"><ele>371.6</ele><time>2026-04-18T11:31:00.999Z</time></trkpt><trkpt lat="42.62875715406547" lon="-8.460940626572695"><ele>373.2</ele><time>2026-04-18T11:31:02.999Z</time></trkpt><trkpt lat="42.62879932247038" lon="-8.460806202255952"><ele>374.79999999999995</ele><time>2026-04-18T11:31:04.999Z</time></trkpt><trkpt lat="42.628837527655826" lon="-8.460657677721422"><ele>376.4</ele><time>2026-04-18T11:31:06.999Z</time></trkpt><trkpt lat="42.628890624640725" lon="-8.460534040862635"><ele>378.0</ele><time>2026-04-18T11:31:08.999Z</time></trkpt><trkpt lat="42.62898580755886" lon="-8.460433844641443"><ele>378.3333333333333</ele><time>2026-04-18T11:31:10.999Z</time></trkpt><trkpt lat="42.629096344409234" lon="-8.460375028481483"><ele>378.6666666666667</ele><time>2026-04-18T11:31:12.999Z</time></trkpt><trkpt lat="42.6292146843138" lon="-8.460343042305302"><ele>379.0</ele><time>2026-04-18T11:31:14.999Z</time></trkpt><trkpt lat="42.629280218111205" lon="-8.460337519648892"><ele>379.33333333333337</ele><time>2026-04-18T11:31:15.999Z</time></trkpt><trkpt lat="42.62934968419961" lon="-8.46034444006438"><ele>379.6666666666667</ele><time>2026-04-18T11:31:16.999Z</time></trkpt><trkpt lat="42.62941836664324" lon="-8.460368708183381"><ele>380.0</ele><time>2026-04-18T11:31:17.999Z</time></trkpt><trkpt lat="42.62948927012602" lon="-8.460402659814672"><ele>380.42857142857144</ele><time>2026-04-18T11:31:18.999Z</time></trkpt><trkpt lat="42.62956143700751" lon="-8.46042771226381"><ele>380.8571428571429</ele><time>2026-04-18T11:31:19.999Z</time></trkpt><trkpt lat="42.629635104564024" lon="-8.460443512886593"><ele>381.2857142857143</ele><time>2026-04-18T11:31:20.999Z</time></trkpt><trkpt lat="42.62971260217591" lon="-8.460455921479129"><ele>381.7142857142857</ele><time>2026-04-18T11:31:21.999Z</time></trkpt><trkpt lat="42.6297794427849" lon="-8.460466712101793"><ele>382.1428571428571</ele><time>2026-04-18T11:31:22.999Z</time></trkpt><trkpt lat="42.62984889302626" lon="-8.460484531858775"><ele>382.57142857142856</ele><time>2026-04-18T11:31:23.999Z</time></trkpt><trkpt lat="42.62991659605311" lon="-8.460512469838058"><ele>383.0</ele><time>2026-04-18T11:31:24.999Z</time></trkpt><trkpt lat="42.62998750438329" lon="-8.460539905926211"><ele>383.0</ele><time>2026-04-18T11:31:25.999Z</time></trkpt><trkpt lat="42.6300544006632" lon="-8.46053821869448"><ele>383.0</ele><time>2026-04-18T11:31:26.999Z</time></trkpt><trkpt lat="42.63012880737313" lon="-8.460534002478289"><ele>383.0</ele><time>2026-04-18T11:31:27.999Z</time></trkpt><trkpt lat="42.6301992931856" lon="-8.460529455746203"><ele>383.0</ele><time>2026-04-18T11:31:28.999Z</time></trkpt><trkpt lat="42.63026926566619" lon="-8.460521087792447"><ele>383.0</ele><time>2026-04-18T11:31:29.999Z</time></trkpt><trkpt lat="42.63035330800958" lon="-8.460524880626412"><ele>383.0</ele><time>2026-04-18T11:31:30.999Z</time></trkpt><trkpt lat="42.63045598870225" lon="-8.460525006731416"><ele>385.5</ele><time>2026-04-18T11:31:31.999Z</time></trkpt><trkpt lat="42.63055489083273" lon="-8.460549108747696"><ele>388.0</ele><time>2026-04-18T11:31:32.999Z</time></trkpt><trkpt lat="42.630683576930245" lon="-8.460583015246868"><ele>390.5</ele><time>2026-04-18T11:31:33.999Z</time></trkpt><trkpt lat="42.63080848550007" lon="-8.460595728434084"><ele>393.0</ele><time>2026-04-18T11:31:34.999Z</time></trkpt><trkpt lat="42.630941286360596" lon="-8.46054729227285"><ele>395.33333333333337</ele><time>2026-04-18T11:31:35.999Z</time></trkpt><trkpt lat="42.63111291655909" lon="-8.460449472266829"><ele>397.6666666666667</ele><time>2026-04-18T11:31:36.999Z</time></trkpt><trkpt lat="42.631259489724506" lon="-8.460391439926994"><ele>400.0</ele><time>2026-04-18T11:31:37.999Z</time></trkpt><trkpt lat="42.63142490003595" lon="-8.460342010151319"><ele>400.6666666666667</ele><time>2026-04-18T11:31:38.999Z</time></trkpt><trkpt lat="42.63158305303728" lon="-8.460306310431154"><ele>401.33333333333337</ele><time>2026-04-18T11:31:39.999Z</time></trkpt><trkpt lat="42.63175691018025" lon="-8.460263821666919"><ele>402.0</ele><time>2026-04-18T11:31:40.998Z</time></trkpt><trkpt lat="42.63192642576479" lon="-8.460217490030676"><ele>402.33333333333337</ele><time>2026-04-18T11:31:41.998Z</time></trkpt><trkpt lat="42.63212049611308" lon="-8.46014982396999"><ele>402.6666666666667</ele><time>2026-04-18T11:31:42.998Z</time></trkpt><trkpt lat="42.632262065760145" lon="-8.46009824311856"><ele>403.0</ele><time>2026-04-18T11:31:43.998Z</time></trkpt><trkpt lat="42.63240335389239" lon="-8.460105970228081"><ele>403.0</ele><time>2026-04-18T11:31:44.998Z</time></trkpt><trkpt lat="42.63254148684749" lon="-8.460149719132348"><ele>403.0</ele><time>2026-04-18T11:31:45.998Z</time></trkpt><trkpt lat="42.63265713732375" lon="-8.460228332434635"><ele>403.0</ele><time>2026-04-18T11:31:46.998Z</time></trkpt><trkpt lat="42.63276168933085" lon="-8.460338433829975"><ele>403.0</ele><time>2026-04-18T11:31:47.998Z</time></trkpt><trkpt lat="42.6328646931201" lon="-8.460422368763586"><ele>404.75</ele><time>2026-04-18T11:31:49Z</time></trkpt><trkpt lat="42.632979438457305" lon="-8.46051591100824"><ele>406.5</ele><time>2026-04-18T11:31:50Z</time></trkpt><trkpt lat="42.63310325635093" lon="-8.460590276209105"><ele>408.25</ele><time>2026-04-18T11:31:51Z</time></trkpt><trkpt lat="42.63324907121633" lon="-8.460644101335483"><ele>410.0</ele><time>2026-04-18T11:31:52Z</time></trkpt><trkpt lat="42.633402114184975" lon="-8.460699396229765"><ele>410.0</ele><time>2026-04-18T11:31:53Z</time></trkpt><trkpt lat="42.633567293078364" lon="-8.460768194724789"><ele>410.0</ele><time>2026-04-18T11:31:54Z</time></trkpt><trkpt lat="42.633731185389905" lon="-8.460842154946638"><ele>410.0</ele><time>2026-04-18T11:31:55Z</time></trkpt><trkpt lat="42.63389844146323" lon="-8.460921220715019"><ele>410.66666666666663</ele><time>2026-04-18T11:31:56Z</time></trkpt><trkpt lat="42.634063859668366" lon="-8.461003477250996"><ele>411.33333333333337</ele><time>2026-04-18T11:31:57Z</time></trkpt><trkpt lat="42.634224946684775" lon="-8.461097431562589"><ele>412.0</ele><time>2026-04-18T11:31:58Z</time></trkpt><trkpt lat="42.63438263337525" lon="-8.46120260888489"><ele>412.5</ele><time>2026-04-18T11:31:59Z</time></trkpt><trkpt lat="42.63452960786168" lon="-8.461275516305735"><ele>413.0</ele><time>2026-04-18T11:32:00Z</time></trkpt><trkpt lat="42.6346755761355" lon="-8.461310065498951"><ele>413.5</ele><time>2026-04-18T11:32:01Z</time></trkpt><trkpt lat="42.63481157384501" lon="-8.461309085959751"><ele>414.0</ele><time>2026-04-18T11:32:02Z</time></trkpt><trkpt lat="42.63493828211807" lon="-8.461231511065732"><ele>414.0</ele><time>2026-04-18T11:32:03Z</time></trkpt><trkpt lat="42.635075248349075" lon="-8.461170003368364"><ele>414.0</ele><time>2026-04-18T11:32:04Z</time></trkpt><trkpt lat="42.6352220181543" lon="-8.46110747515658"><ele>414.0</ele><time>2026-04-18T11:32:05Z</time></trkpt><trkpt lat="42.635374399150386" lon="-8.461082146534817"><ele>414.0</ele><time>2026-04-18T11:32:06Z</time></trkpt><trkpt lat="42.63553258697553" lon="-8.461092278368167"><ele>414.0</ele><time>2026-04-18T11:32:07Z</time></trkpt><trkpt lat="42.635694310184256" lon="-8.461137395960815"><ele>414.0</ele><time>2026-04-18T11:32:08Z</time></trkpt><trkpt lat="42.63585222108189" lon="-8.461189864778808"><ele>414.0</ele><time>2026-04-18T11:32:09Z</time></trkpt><trkpt lat="42.636019682659345" lon="-8.461224253069823"><ele>414.0</ele><time>2026-04-18T11:32:10Z</time></trkpt><trkpt lat="42.63619012216687" lon="-8.46125991305999"><ele>414.0</ele><time>2026-04-18T11:32:11Z</time></trkpt><trkpt lat="42.63636409809632" lon="-8.461284442776302"><ele>414.66666666666663</ele><time>2026-04-18T11:32:12Z</time></trkpt><trkpt lat="42.63654326393608" lon="-8.461299209496314"><ele>415.3333333333333</ele><time>2026-04-18T11:32:13Z</time></trkpt><trkpt lat="42.63672358861535" lon="-8.461313473875522"><ele>416.0</ele><time>2026-04-18T11:32:14Z</time></trkpt><trkpt lat="42.6368904550213" lon="-8.461304556978734"><ele>416.3333333333333</ele><time>2026-04-18T11:32:15Z</time></trkpt><trkpt lat="42.63705337372805" lon="-8.461287016805365"><ele>416.66666666666663</ele><time>2026-04-18T11:32:16Z</time></trkpt><trkpt lat="42.63720903466085" lon="-8.461278306612973"><ele>417.0</ele><time>2026-04-18T11:32:17Z</time></trkpt><trkpt lat="42.63736054675792" lon="-8.46128063109118"><ele>417.0</ele><time>2026-04-18T11:32:18Z</time></trkpt><trkpt lat="42.63750605681557" lon="-8.461297339535266"><ele>417.0</ele><time>2026-04-18T11:32:19Z</time></trkpt><trkpt lat="42.63764888537397" lon="-8.461317412390084"><ele>417.0</ele><time>2026-04-18T11:32:20Z</time></trkpt><trkpt lat="42.63779177307816" lon="-8.461356874464139"><ele>417.0</ele><time>2026-04-18T11:32:21Z</time></trkpt><trkpt lat="42.637931686191536" lon="-8.461414216383545"><ele>416.66666666666663</ele><time>2026-04-18T11:32:22Z</time></trkpt><trkpt lat="42.63808627830986" lon="-8.461485197985125"><ele>416.3333333333333</ele><time>2026-04-18T11:32:23Z</time></trkpt><trkpt lat="42.63823596069919" lon="-8.461549345526903"><ele>416.0</ele><time>2026-04-18T11:32:24Z</time></trkpt><trkpt lat="42.63839291177747" lon="-8.461598491465569"><ele>416.0</ele><time>2026-04-18T11:32:25Z</time></trkpt><trkpt lat="42.6385442557315" lon="-8.461637355383656"><ele>416.0</ele><time>2026-04-18T11:32:26Z</time></trkpt><trkpt lat="42.63870797477445" lon="-8.461664144336932"><ele>416.0</ele><time>2026-04-18T11:32:27Z</time></trkpt><trkpt lat="42.63886951533773" lon="-8.461685546097145"><ele>416.3333333333333</ele><time>2026-04-18T11:32:28Z</time></trkpt><trkpt lat="42.639023088577694" lon="-8.461703618333502"><ele>416.66666666666663</ele><time>2026-04-18T11:32:29Z</time></trkpt><trkpt lat="42.63917523141172" lon="-8.461699830373675"><ele>417.0</ele><time>2026-04-18T11:32:30Z</time></trkpt><trkpt lat="42.63932344405709" lon="-8.461664137626146"><ele>417.0</ele><time>2026-04-18T11:32:31Z</time></trkpt><trkpt lat="42.63945451482477" lon="-8.461627919647498"><ele>417.0</ele><time>2026-04-18T11:32:31.999Z</time></trkpt><trkpt lat="42.63958913207852" lon="-8.461632130236127"><ele>417.0</ele><time>2026-04-18T11:32:32.999Z</time></trkpt><trkpt lat="42.639726600763225" lon="-8.461630347472434"><ele>417.0</ele><time>2026-04-18T11:32:33.999Z</time></trkpt><trkpt lat="42.63987242760179" lon="-8.461620562182711"><ele>416.0</ele><time>2026-04-18T11:32:34.999Z</time></trkpt><trkpt lat="42.64002946264074" lon="-8.461617328186678"><ele>415.0</ele><time>2026-04-18T11:32:35.999Z</time></trkpt><trkpt lat="42.64019204179973" lon="-8.461635553379477"><ele>414.0</ele><time>2026-04-18T11:32:36.999Z</time></trkpt><trkpt lat="42.64036218562549" lon="-8.461647611757606"><ele>413.33333333333337</ele><time>2026-04-18T11:32:37.999Z</time></trkpt><trkpt lat="42.64053075451017" lon="-8.461644271245067"><ele>412.6666666666667</ele><time>2026-04-18T11:32:38.999Z</time></trkpt><trkpt lat="42.64070178513224" lon="-8.461625747363037"><ele>412.0</ele><time>2026-04-18T11:32:39.999Z</time></trkpt><trkpt lat="42.64086880499058" lon="-8.461599315575576"><ele>412.0</ele><time>2026-04-18T11:32:40.999Z</time></trkpt><trkpt lat="42.64103816776438" lon="-8.461587195971632"><ele>412.0</ele><time>2026-04-18T11:32:41.999Z</time></trkpt><trkpt lat="42.641214518398186" lon="-8.46156531878171"><ele>412.0</ele><time>2026-04-18T11:32:42.999Z</time></trkpt><trkpt lat="42.641386659776785" lon="-8.461545257510974"><ele>412.0</ele><time>2026-04-18T11:32:43.999Z</time></trkpt><trkpt lat="42.64155064747605" lon="-8.461519576113725"><ele>412.0</ele><time>2026-04-18T11:32:44.999Z</time></trkpt><trkpt lat="42.641708903001195" lon="-8.461499050387603"><ele>412.0</ele><time>2026-04-18T11:32:45.999Z</time></trkpt><trkpt lat="42.64186604153339" lon="-8.461469915724429"><ele>411.25</ele><time>2026-04-18T11:32:46.999Z</time></trkpt><trkpt lat="42.642016207373125" lon="-8.461441139382861"><ele>410.5</ele><time>2026-04-18T11:32:47.999Z</time></trkpt><trkpt lat="42.64215648708546" lon="-8.461408972838855"><ele>409.75</ele><time>2026-04-18T11:32:48.999Z</time></trkpt><trkpt lat="42.64228534530274" lon="-8.461381590718537"><ele>409.0</ele><time>2026-04-18T11:32:49.999Z</time></trkpt><trkpt lat="42.64240387715287" lon="-8.461363575829632"><ele>409.00000000000006</ele><time>2026-04-18T11:32:50.999Z</time></trkpt><trkpt lat="42.64249448074446" lon="-8.461349536727985"><ele>409.0</ele><time>2026-04-18T11:32:51.999Z</time></trkpt><trkpt lat="42.64256309469315" lon="-8.461314479552286"><ele>409.0</ele><time>2026-04-18T11:32:52.999Z</time></trkpt><trkpt lat="42.642622703794366" lon="-8.461244993662454"><ele>409.0</ele><time>2026-04-18T11:32:53.999Z</time></trkpt><trkpt lat="42.642673750427306" lon="-8.461147951920116"><ele>409.00000000000006</ele><time>2026-04-18T11:32:54.999Z</time></trkpt><trkpt lat="42.642753539974116" lon="-8.461054431391691"><ele>409.0</ele><time>2026-04-18T11:32:55.999Z</time></trkpt><trkpt lat="42.642852198802956" lon="-8.460999421773023"><ele>408.0</ele><time>2026-04-18T11:32:56.999Z</time></trkpt><trkpt lat="42.64298111968436" lon="-8.460935357313978"><ele>407.0</ele><time>2026-04-18T11:32:57.999Z</time></trkpt><trkpt lat="42.64311681432071" lon="-8.460884562952149"><ele>406.0</ele><time>2026-04-18T11:32:58.999Z</time></trkpt><trkpt lat="42.64325441573784" lon="-8.460825922305531"><ele>405.0</ele><time>2026-04-18T11:32:59.999Z</time></trkpt><trkpt lat="42.6433958068645" lon="-8.460764523430468"><ele>405.0</ele><time>2026-04-18T11:33:00.999Z</time></trkpt><trkpt lat="42.64353954017856" lon="-8.46068784925961"><ele>405.0</ele><time>2026-04-18T11:33:01.999Z</time></trkpt><trkpt lat="42.6436922820365" lon="-8.460615132270792"><ele>405.0</ele><time>2026-04-18T11:33:02.999Z</time></trkpt><trkpt lat="42.64384363553287" lon="-8.460545833786608"><ele>404.33333333333337</ele><time>2026-04-18T11:33:03.999Z</time></trkpt><trkpt lat="42.64399026952116" lon="-8.460487989340097"><ele>403.6666666666667</ele><time>2026-04-18T11:33:04.999Z</time></trkpt><trkpt lat="42.644141767631375" lon="-8.460419466464213"><ele>403.0</ele><time>2026-04-18T11:33:05.999Z</time></trkpt><trkpt lat="42.64429293193494" lon="-8.460354714969135"><ele>402.6666666666667</ele><time>2026-04-18T11:33:06.999Z</time></trkpt><trkpt lat="42.64444923369989" lon="-8.460282007473356"><ele>402.33333333333337</ele><time>2026-04-18T11:33:07.999Z</time></trkpt><trkpt lat="42.64459530384522" lon="-8.460211092550123"><ele>402.0</ele><time>2026-04-18T11:33:08.999Z</time></trkpt><trkpt lat="42.64474185981208" lon="-8.460142514360005"><ele>399.75</ele><time>2026-04-18T11:33:09.999Z</time></trkpt><trkpt lat="42.64488897906785" lon="-8.460075174355033"><ele>397.5</ele><time>2026-04-18T11:33:10.999Z</time></trkpt><trkpt lat="42.64503081877717" lon="-8.460014824205023"><ele>395.25</ele><time>2026-04-18T11:33:11.999Z</time></trkpt><trkpt lat="42.645168161913794" lon="-8.459952749676471"><ele>393.0</ele><time>2026-04-18T11:33:12.999Z</time></trkpt><trkpt lat="42.64529634566212" lon="-8.459907123057224"><ele>391.25</ele><time>2026-04-18T11:33:13.999Z</time></trkpt><trkpt lat="42.64543342123192" lon="-8.459876859365824"><ele>389.5</ele><time>2026-04-18T11:33:14.999Z</time></trkpt><trkpt lat="42.64556869111352" lon="-8.459873189054132"><ele>387.75</ele><time>2026-04-18T11:33:15.999Z</time></trkpt><trkpt lat="42.64570727570161" lon="-8.45987418818776"><ele>386.0</ele><time>2026-04-18T11:33:16.999Z</time></trkpt><trkpt lat="42.645845059495166" lon="-8.459871895484394"><ele>386.0</ele><time>2026-04-18T11:33:17.999Z</time></trkpt><trkpt lat="42.64598022885938" lon="-8.459864691763054"><ele>386.0</ele><time>2026-04-18T11:33:18.999Z</time></trkpt><trkpt lat="42.64611447692812" lon="-8.459844805290409"><ele>386.0</ele><time>2026-04-18T11:33:19.999Z</time></trkpt><trkpt lat="42.64625028258457" lon="-8.459834071709743"><ele>386.0</ele><time>2026-04-18T11:33:20.999Z</time></trkpt><trkpt lat="42.64638366505522" lon="-8.459835672954906"><ele>383.75</ele><time>2026-04-18T11:33:21.999Z</time></trkpt><trkpt lat="42.646517900959964" lon="-8.459835282450568"><ele>381.5</ele><time>2026-04-18T11:33:22.999Z</time></trkpt><trkpt lat="42.646651224611695" lon="-8.459832171681365"><ele>379.25</ele><time>2026-04-18T11:33:23.999Z</time></trkpt><trkpt lat="42.646777898050395" lon="-8.459822183778975"><ele>377.0</ele><time>2026-04-18T11:33:24.999Z</time></trkpt><trkpt lat="42.64688184383337" lon="-8.459814073751257"><ele>375.8</ele><time>2026-04-18T11:33:25.999Z</time></trkpt><trkpt lat="42.64696557659819" lon="-8.459796234307857"><ele>374.6</ele><time>2026-04-18T11:33:26.999Z</time></trkpt><trkpt lat="42.64705365373978" lon="-8.4597269473584"><ele>373.40000000000003</ele><time>2026-04-18T11:33:28.999Z</time></trkpt><trkpt lat="42.64700494602304" lon="-8.459559084825731"><ele>372.20000000000005</ele><time>2026-04-18T11:33:30.999Z</time></trkpt><trkpt lat="42.6469277800487" lon="-8.459478569093166"><ele>371.0</ele><time>2026-04-18T11:33:31.999Z</time></trkpt><trkpt lat="42.646862739073974" lon="-8.459366939928437"><ele>371.0</ele><time>2026-04-18T11:33:32.999Z</time></trkpt><trkpt lat="42.64680036289624" lon="-8.459241953794583"><ele>371.0</ele><time>2026-04-18T11:33:33.999Z</time></trkpt><trkpt lat="42.64673689436366" lon="-8.459103887233944"><ele>371.0</ele><time>2026-04-18T11:33:34.999Z</time></trkpt><trkpt lat="42.64666441023335" lon="-8.4589629553568"><ele>371.0</ele><time>2026-04-18T11:33:35.999Z</time></trkpt><trkpt lat="42.64658074208835" lon="-8.458832116566953"><ele>370.25</ele><time>2026-04-18T11:33:36.999Z</time></trkpt><trkpt lat="42.646477400483704" lon="-8.458715091941052"><ele>369.5</ele><time>2026-04-18T11:33:37.999Z</time></trkpt><trkpt lat="42.64635425297676" lon="-8.458627679119903"><ele>368.75</ele><time>2026-04-18T11:33:38.999Z</time></trkpt><trkpt lat="42.646219585756704" lon="-8.458570839012575"><ele>368.0</ele><time>2026-04-18T11:33:39.999Z</time></trkpt><trkpt lat="42.64607807690466" lon="-8.458552035176348"><ele>368.0</ele><time>2026-04-18T11:33:40.999Z</time></trkpt><trkpt lat="42.645936875730506" lon="-8.458581873108082"><ele>368.0</ele><time>2026-04-18T11:33:41.999Z</time></trkpt><trkpt lat="42.645800841646185" lon="-8.458642424402756"><ele>368.0</ele><time>2026-04-18T11:33:42.999Z</time></trkpt><trkpt lat="42.64566919084533" lon="-8.458700150916195"><ele>368.0</ele><time>2026-04-18T11:33:43.999Z</time></trkpt><trkpt lat="42.64552824201553" lon="-8.458743159070181"><ele>368.0</ele><time>2026-04-18T11:33:44.999Z</time></trkpt><trkpt lat="42.645390075438414" lon="-8.45877761743213"><ele>368.0</ele><time>2026-04-18T11:33:45.999Z</time></trkpt><trkpt lat="42.64527469562907" lon="-8.458813311946189"><ele>368.0</ele><time>2026-04-18T11:33:46.999Z</time></trkpt><trkpt lat="42.6451898623199" lon="-8.4588620481415"><ele>368.0</ele><time>2026-04-18T11:33:47.999Z</time></trkpt><trkpt lat="42.64514176816439" lon="-8.4589388171728"><ele>368.0</ele><time>2026-04-18T11:33:48.999Z</time></trkpt><trkpt lat="42.64512787746328" lon="-8.459035761141271"><ele>370.0</ele><time>2026-04-18T11:33:49.999Z</time></trkpt><trkpt lat="42.645154433411705" lon="-8.459145120838246"><ele>372.0</ele><time>2026-04-18T11:33:50.999Z</time></trkpt><trkpt lat="42.64521019723487" lon="-8.459240573521036"><ele>374.0</ele><time>2026-04-18T11:33:51.999Z</time></trkpt><trkpt lat="42.6452832018097" lon="-8.459326299684218"><ele>376.0</ele><time>2026-04-18T11:33:52.999Z</time></trkpt><trkpt lat="42.645359614024294" lon="-8.459415469650612"><ele>378.0</ele><time>2026-04-18T11:33:53.999Z</time></trkpt><trkpt lat="42.64544161733096" lon="-8.459503692145097"><ele>380.0</ele><time>2026-04-18T11:33:55Z</time></trkpt><trkpt lat="42.64551523244115" lon="-8.459625498275013"><ele>382.0</ele><time>2026-04-18T11:33:56Z</time></trkpt><trkpt lat="42.64559172005895" lon="-8.459768290204332"><ele>384.0</ele><time>2026-04-18T11:33:57Z</time></trkpt><trkpt lat="42.64567807553758" lon="-8.459905612321212"><ele>386.0</ele><time>2026-04-18T11:33:58Z</time></trkpt><trkpt lat="42.64576421231754" lon="-8.460055127433375"><ele>386.0</ele><time>2026-04-18T11:33:59Z</time></trkpt><trkpt lat="42.645853049634475" lon="-8.460210718635523"><ele>386.0</ele><time>2026-04-18T11:34:00Z</time></trkpt><trkpt lat="42.64594880016818" lon="-8.460367331941487"><ele>386.0</ele><time>2026-04-18T11:34:01Z</time></trkpt><trkpt lat="42.64605738893671" lon="-8.460538231159227"><ele>383.66666666666663</ele><time>2026-04-18T11:34:02Z</time></trkpt><trkpt lat="42.64615935733745" lon="-8.460705892068503"><ele>381.3333333333333</ele><time>2026-04-18T11:34:03Z</time></trkpt><trkpt lat="42.64626789431325" lon="-8.460871848948935"><ele>379.0</ele><time>2026-04-18T11:34:04Z</time></trkpt><trkpt lat="42.64637823733972" lon="-8.461038425417117"><ele>379.0</ele><time>2026-04-18T11:34:05Z</time></trkpt><trkpt lat="42.646475470619116" lon="-8.461205339642047"><ele>379.0</ele><time>2026-04-18T11:34:06Z</time></trkpt><trkpt lat="42.64655983757812" lon="-8.461365640501393"><ele>379.0</ele><time>2026-04-18T11:34:07Z</time></trkpt><trkpt lat="42.64664275377213" lon="-8.461514492526236"><ele>379.0</ele><time>2026-04-18T11:34:08Z</time></trkpt><trkpt lat="42.64673732830193" lon="-8.461659615922853"><ele>379.0</ele><time>2026-04-18T11:34:09Z</time></trkpt><trkpt lat="42.64683391057282" lon="-8.461804554138368"><ele>379.0</ele><time>2026-04-18T11:34:10Z</time></trkpt><trkpt lat="42.64693205732851" lon="-8.461944718022073"><ele>379.0</ele><time>2026-04-18T11:34:11Z</time></trkpt><trkpt lat="42.64703089086853" lon="-8.46208764920257"><ele>379.0</ele><time>2026-04-18T11:34:12Z</time></trkpt><trkpt lat="42.64713336502576" lon="-8.462231231101205"><ele>377.0</ele><time>2026-04-18T11:34:13Z</time></trkpt><trkpt lat="42.64724020777104" lon="-8.462373892245854"><ele>375.0</ele><time>2026-04-18T11:34:14Z</time></trkpt><trkpt lat="42.647358969461024" lon="-8.46250757241607"><ele>373.0</ele><time>2026-04-18T11:34:15Z</time></trkpt><trkpt lat="42.647488344188574" lon="-8.46262532140335"><ele>373.0</ele><time>2026-04-18T11:34:16Z</time></trkpt><trkpt lat="42.64761854734947" lon="-8.462731322471772"><ele>373.0</ele><time>2026-04-18T11:34:17Z</time></trkpt><trkpt lat="42.64775293827289" lon="-8.46282386784853"><ele>373.0</ele><time>2026-04-18T11:34:18Z</time></trkpt><trkpt lat="42.64789586355254" lon="-8.462901569064607"><ele>373.0</ele><time>2026-04-18T11:34:19Z</time></trkpt><trkpt lat="42.64803977847362" lon="-8.462960361405642"><ele>373.0</ele><time>2026-04-18T11:34:20Z</time></trkpt><trkpt lat="42.648187455162116" lon="-8.463005171006056"><ele>373.0</ele><time>2026-04-18T11:34:21Z</time></trkpt><trkpt lat="42.6483447830901" lon="-8.463030849828302"><ele>373.0</ele><time>2026-04-18T11:34:22Z</time></trkpt><trkpt lat="42.648502394741485" lon="-8.463045778065064"><ele>373.0</ele><time>2026-04-18T11:34:23Z</time></trkpt><trkpt lat="42.64866468074067" lon="-8.463050366254146"><ele>373.0</ele><time>2026-04-18T11:34:24Z</time></trkpt><trkpt lat="42.648825464725164" lon="-8.463046509771445"><ele>370.3333333333333</ele><time>2026-04-18T11:34:25Z</time></trkpt><trkpt lat="42.6489867303169" lon="-8.463027234177641"><ele>367.6666666666667</ele><time>2026-04-18T11:34:26Z</time></trkpt><trkpt lat="42.64914937434588" lon="-8.463014374243087"><ele>365.0</ele><time>2026-04-18T11:34:27Z</time></trkpt><trkpt lat="42.64931523291815" lon="-8.46300988917383"><ele>365.33333333333337</ele><time>2026-04-18T11:34:28Z</time></trkpt><trkpt lat="42.64947841775267" lon="-8.462997493818518"><ele>365.6666666666667</ele><time>2026-04-18T11:34:29Z</time></trkpt><trkpt lat="42.649638416111515" lon="-8.462978989032196"><ele>366.0</ele><time>2026-04-18T11:34:30Z</time></trkpt><trkpt lat="42.649797827997105" lon="-8.46296495246293"><ele>366.0</ele><time>2026-04-18T11:34:31Z</time></trkpt><trkpt lat="42.64995663984883" lon="-8.462958831639202"><ele>366.0</ele><time>2026-04-18T11:34:32Z</time></trkpt><trkpt lat="42.650117068112394" lon="-8.462949273616305"><ele>366.0</ele><time>2026-04-18T11:34:33Z</time></trkpt><trkpt lat="42.65027774244786" lon="-8.462932669244857"><ele>361.6666666666667</ele><time>2026-04-18T11:34:34Z</time></trkpt><trkpt lat="42.6504380219213" lon="-8.462906521390355"><ele>357.33333333333337</ele><time>2026-04-18T11:34:35Z</time></trkpt><trkpt lat="42.65060000111358" lon="-8.462886170414961"><ele>353.0</ele><time>2026-04-18T11:34:36Z</time></trkpt><trkpt lat="42.65076862909272" lon="-8.462872076051841"><ele>353.0</ele><time>2026-04-18T11:34:37Z</time></trkpt><trkpt lat="42.650939010936106" lon="-8.462865920035162"><ele>353.0</ele><time>2026-04-18T11:34:38Z</time></trkpt><trkpt lat="42.651106726649424" lon="-8.462856362343246"><ele>353.0</ele><time>2026-04-18T11:34:39Z</time></trkpt><trkpt lat="42.65127784539325" lon="-8.462839810621677"><ele>353.0</ele><time>2026-04-18T11:34:40Z</time></trkpt><trkpt lat="42.65145012091814" lon="-8.462816616574852"><ele>353.0</ele><time>2026-04-18T11:34:41Z</time></trkpt><trkpt lat="42.65162544936852" lon="-8.462804045964328"><ele>353.0</ele><time>2026-04-18T11:34:42Z</time></trkpt><trkpt lat="42.65179623488032" lon="-8.462794707217911"><ele>353.6666666666667</ele><time>2026-04-18T11:34:43Z</time></trkpt><trkpt lat="42.65196977394088" lon="-8.462780300989188"><ele>354.3333333333333</ele><time>2026-04-18T11:34:44Z</time></trkpt><trkpt lat="42.65214066414253" lon="-8.462768270069528"><ele>355.0</ele><time>2026-04-18T11:34:45Z</time></trkpt><trkpt lat="42.652308389257335" lon="-8.462759023881468"><ele>355.0</ele><time>2026-04-18T11:34:46Z</time></trkpt><trkpt lat="42.652477019603694" lon="-8.462745340472242"><ele>355.0</ele><time>2026-04-18T11:34:47Z</time></trkpt><trkpt lat="42.65264827198519" lon="-8.462735236952629"><ele>355.0</ele><time>2026-04-18T11:34:47.999Z</time></trkpt><trkpt lat="42.65281126646262" lon="-8.462719967419185"><ele>357.66666666666663</ele><time>2026-04-18T11:34:48.999Z</time></trkpt><trkpt lat="42.65297474068" lon="-8.462695468151127"><ele>360.3333333333333</ele><time>2026-04-18T11:34:49.999Z</time></trkpt><trkpt lat="42.65313520142979" lon="-8.462669519813497"><ele>363.0</ele><time>2026-04-18T11:34:50.999Z</time></trkpt><trkpt lat="42.65329575902769" lon="-8.462651307609065"><ele>363.0</ele><time>2026-04-18T11:34:51.999Z</time></trkpt><trkpt lat="42.65345653379196" lon="-8.462639306020415"><ele>363.0</ele><time>2026-04-18T11:34:52.999Z</time></trkpt><trkpt lat="42.65362149364498" lon="-8.462634882989986"><ele>363.0</ele><time>2026-04-18T11:34:53.999Z</time></trkpt><trkpt lat="42.65378478838709" lon="-8.462629741593826"><ele>362.6666666666667</ele><time>2026-04-18T11:34:54.999Z</time></trkpt><trkpt lat="42.65394983618233" lon="-8.46261452918749"><ele>362.33333333333337</ele><time>2026-04-18T11:34:55.999Z</time></trkpt><trkpt lat="42.65411697246718" lon="-8.46259856972347"><ele>362.0</ele><time>2026-04-18T11:34:56.999Z</time></trkpt><trkpt lat="42.654285618609634" lon="-8.462582735563926"><ele>358.6666666666667</ele><time>2026-04-18T11:34:57.999Z</time></trkpt><trkpt lat="42.65445629435708" lon="-8.462567962525023"><ele>355.3333333333333</ele><time>2026-04-18T11:34:58.999Z</time></trkpt><trkpt lat="42.654625485474526" lon="-8.462554767146466"><ele>352.0</ele><time>2026-04-18T11:34:59.999Z</time></trkpt><trkpt lat="42.654799236805516" lon="-8.462538561838802"><ele>352.0</ele><time>2026-04-18T11:35:00.999Z</time></trkpt><trkpt lat="42.65497421605669" lon="-8.46252040750922"><ele>352.0</ele><time>2026-04-18T11:35:01.999Z</time></trkpt><trkpt lat="42.65515114906001" lon="-8.462506501615659"><ele>352.0</ele><time>2026-04-18T11:35:02.999Z</time></trkpt><trkpt lat="42.65532145350266" lon="-8.46249730358106"><ele>350.66666666666663</ele><time>2026-04-18T11:35:03.999Z</time></trkpt><trkpt lat="42.65549862294195" lon="-8.462488544495718"><ele>349.3333333333333</ele><time>2026-04-18T11:35:04.999Z</time></trkpt><trkpt lat="42.655667741890134" lon="-8.462472928659349"><ele>348.0</ele><time>2026-04-18T11:35:05.999Z</time></trkpt><trkpt lat="42.655841865916194" lon="-8.462457737050219"><ele>348.0</ele><time>2026-04-18T11:35:06.999Z</time></trkpt><trkpt lat="42.65601255485634" lon="-8.46244390941575"><ele>348.0</ele><time>2026-04-18T11:35:07.999Z</time></trkpt><trkpt lat="42.65618297283527" lon="-8.462432221339743"><ele>348.0</ele><time>2026-04-18T11:35:08.999Z</time></trkpt><trkpt lat="42.65635406989231" lon="-8.462421746624935"><ele>345.6666666666667</ele><time>2026-04-18T11:35:09.999Z</time></trkpt><trkpt lat="42.65652677741682" lon="-8.462415898498495"><ele>343.33333333333337</ele><time>2026-04-18T11:35:10.999Z</time></trkpt><trkpt lat="42.65669933971404" lon="-8.462419818564776"><ele>341.0</ele><time>2026-04-18T11:35:11.999Z</time></trkpt><trkpt lat="42.656868372964006" lon="-8.462434993088902"><ele>339.0</ele><time>2026-04-18T11:35:12.999Z</time></trkpt><trkpt lat="42.65703121728301" lon="-8.462460734073458"><ele>337.0</ele><time>2026-04-18T11:35:13.999Z</time></trkpt><trkpt lat="42.657184609656404" lon="-8.46249059036782"><ele>335.0</ele><time>2026-04-18T11:35:14.999Z</time></trkpt><trkpt lat="42.65733293783799" lon="-8.462529943893895"><ele>335.0</ele><time>2026-04-18T11:35:15.999Z</time></trkpt><trkpt lat="42.65747901853776" lon="-8.462578501693008"><ele>335.0</ele><time>2026-04-18T11:35:16.999Z</time></trkpt><trkpt lat="42.657622931680926" lon="-8.462634677097745"><ele>335.0</ele><time>2026-04-18T11:35:17.999Z</time></trkpt><trkpt lat="42.65776184113611" lon="-8.462693980570098"><ele>335.0</ele><time>2026-04-18T11:35:18.999Z</time></trkpt><trkpt lat="42.65789807571984" lon="-8.4627555833606"><ele>333.75</ele><time>2026-04-18T11:35:19.999Z</time></trkpt><trkpt lat="42.6580345078559" lon="-8.462822897137057"><ele>332.5</ele><time>2026-04-18T11:35:20.999Z</time></trkpt><trkpt lat="42.658165152042685" lon="-8.462888938826488"><ele>331.25</ele><time>2026-04-18T11:35:21.999Z</time></trkpt><trkpt lat="42.65829381554887" lon="-8.462962538359182"><ele>330.0</ele><time>2026-04-18T11:35:22.999Z</time></trkpt><trkpt lat="42.65842799728657" lon="-8.463026669803407"><ele>330.0</ele><time>2026-04-18T11:35:23.999Z</time></trkpt><trkpt lat="42.65856792912359" lon="-8.463111572753688"><ele>330.0</ele><time>2026-04-18T11:35:24.999Z</time></trkpt><trkpt lat="42.65869212086961" lon="-8.463179116689178"><ele>330.0</ele><time>2026-04-18T11:35:25.999Z</time></trkpt><trkpt lat="42.65882478457836" lon="-8.463252741033234"><ele>330.0</ele><time>2026-04-18T11:35:26.999Z</time></trkpt><trkpt lat="42.65895989879857" lon="-8.463319328658898"><ele>329.25</ele><time>2026-04-18T11:35:27.999Z</time></trkpt><trkpt lat="42.65910307786638" lon="-8.463394653483885"><ele>328.5</ele><time>2026-04-18T11:35:28.999Z</time></trkpt><trkpt lat="42.65924398216538" lon="-8.463466510374817"><ele>327.75</ele><time>2026-04-18T11:35:29.999Z</time></trkpt><trkpt lat="42.65937822878405" lon="-8.463534278867815"><ele>327.0</ele><time>2026-04-18T11:35:30.999Z</time></trkpt><trkpt lat="42.65952412819432" lon="-8.46361860399319"><ele>329.0</ele><time>2026-04-18T11:35:31.999Z</time></trkpt><trkpt lat="42.6596851361129" lon="-8.463705693721563"><ele>331.0</ele><time>2026-04-18T11:35:32.999Z</time></trkpt><trkpt lat="42.65981989549062" lon="-8.463761318859554"><ele>333.0</ele><time>2026-04-18T11:35:33.999Z</time></trkpt><trkpt lat="42.659951703200974" lon="-8.463828826123184"><ele>329.0</ele><time>2026-04-18T11:35:34.999Z</time></trkpt><trkpt lat="42.66007444583139" lon="-8.463891425164903"><ele>325.0</ele><time>2026-04-18T11:35:35.999Z</time></trkpt><trkpt lat="42.66020154390057" lon="-8.463954924022048"><ele>321.0</ele><time>2026-04-18T11:35:36.999Z</time></trkpt><trkpt lat="42.660440677379434" lon="-8.464064639425784"><ele>319.75</ele><time>2026-04-18T11:35:38.999Z</time></trkpt><trkpt lat="42.66056056060006" lon="-8.46411309994689"><ele>318.5</ele><time>2026-04-18T11:35:39.999Z</time></trkpt><trkpt lat="42.66066982148842" lon="-8.46418320473513"><ele>317.25</ele><time>2026-04-18T11:35:40.999Z</time></trkpt><trkpt lat="42.66079155793141" lon="-8.464256400928193"><ele>316.0</ele><time>2026-04-18T11:35:41.999Z</time></trkpt><trkpt lat="42.660923380547715" lon="-8.46433292356481"><ele>316.0</ele><time>2026-04-18T11:35:42.999Z</time></trkpt><trkpt lat="42.66106074732644" lon="-8.464407871923685"><ele>316.0</ele><time>2026-04-18T11:35:43.999Z</time></trkpt><trkpt lat="42.6611942955246" lon="-8.464474896441637"><ele>316.0</ele><time>2026-04-18T11:35:44.999Z</time></trkpt><trkpt lat="42.661319126576835" lon="-8.464532580661567"><ele>316.0</ele><time>2026-04-18T11:35:45.999Z</time></trkpt><trkpt lat="42.66144429707984" lon="-8.464602032737838"><ele>315.75</ele><time>2026-04-18T11:35:46.999Z</time></trkpt><trkpt lat="42.66157089420197" lon="-8.46467786132714"><ele>315.5</ele><time>2026-04-18T11:35:47.999Z</time></trkpt><trkpt lat="42.66170057636171" lon="-8.46474747964961"><ele>315.25</ele><time>2026-04-18T11:35:48.999Z</time></trkpt><trkpt lat="42.66183331846437" lon="-8.464812099629142"><ele>315.0</ele><time>2026-04-18T11:35:49.999Z</time></trkpt><trkpt lat="42.661966313435876" lon="-8.464881104043581"><ele>315.0</ele><time>2026-04-18T11:35:50.999Z</time></trkpt><trkpt lat="42.66209913640636" lon="-8.4649550645733"><ele>315.0</ele><time>2026-04-18T11:35:51.999Z</time></trkpt><trkpt lat="42.66223370149754" lon="-8.465033351561164"><ele>315.0</ele><time>2026-04-18T11:35:52.999Z</time></trkpt><trkpt lat="42.662373003127755" lon="-8.465108584062847"><ele>315.0</ele><time>2026-04-18T11:35:53.999Z</time></trkpt><trkpt lat="42.66251866734721" lon="-8.465173198650254"><ele>315.0</ele><time>2026-04-18T11:35:54.999Z</time></trkpt><trkpt lat="42.66266492581333" lon="-8.465240857567927"><ele>315.0</ele><time>2026-04-18T11:35:55.999Z</time></trkpt><trkpt lat="42.66279840379782" lon="-8.465312593487317"><ele>315.0</ele><time>2026-04-18T11:35:56.999Z</time></trkpt><trkpt lat="42.66292787863884" lon="-8.465380867599816"><ele>315.0</ele><time>2026-04-18T11:35:57.999Z</time></trkpt><trkpt lat="42.663059085034575" lon="-8.465459940537729"><ele>316.0</ele><time>2026-04-18T11:35:58.999Z</time></trkpt><trkpt lat="42.6631969260022" lon="-8.465529856906626"><ele>317.0</ele><time>2026-04-18T11:35:59.999Z</time></trkpt><trkpt lat="42.663334507494824" lon="-8.465604205917844"><ele>318.0</ele><time>2026-04-18T11:36:01Z</time></trkpt><trkpt lat="42.66347093760364" lon="-8.465674857027903"><ele>319.0</ele><time>2026-04-18T11:36:02Z</time></trkpt><trkpt lat="42.66360840602515" lon="-8.465747483025016"><ele>317.3333333333333</ele><time>2026-04-18T11:36:03Z</time></trkpt><trkpt lat="42.66374684948035" lon="-8.465835670057613"><ele>315.6666666666667</ele><time>2026-04-18T11:36:04Z</time></trkpt><trkpt lat="42.66388370876518" lon="-8.465928966686915"><ele>314.0</ele><time>2026-04-18T11:36:05Z</time></trkpt><trkpt lat="42.66401830996872" lon="-8.466025179708575"><ele>314.0</ele><time>2026-04-18T11:36:06Z</time></trkpt><trkpt lat="42.664126785020855" lon="-8.46613048528877"><ele>314.0</ele><time>2026-04-18T11:36:07Z</time></trkpt><trkpt lat="42.66422847353282" lon="-8.466251909160778"><ele>314.0</ele><time>2026-04-18T11:36:08Z</time></trkpt><trkpt lat="42.66432835226243" lon="-8.466378253773561"><ele>314.0</ele><time>2026-04-18T11:36:09Z</time></trkpt><trkpt lat="42.66442065385613" lon="-8.46650552958699"><ele>312.25</ele><time>2026-04-18T11:36:10Z</time></trkpt><trkpt lat="42.66450787284113" lon="-8.466643190310863"><ele>310.5</ele><time>2026-04-18T11:36:11Z</time></trkpt><trkpt lat="42.66458917327751" lon="-8.466785216650749"><ele>308.75</ele><time>2026-04-18T11:36:12Z</time></trkpt><trkpt lat="42.66466117625454" lon="-8.466930586935423"><ele>307.0</ele><time>2026-04-18T11:36:13Z</time></trkpt><trkpt lat="42.66472944482095" lon="-8.467081868771992"><ele>307.0</ele><time>2026-04-18T11:36:14Z</time></trkpt><trkpt lat="42.6647955683504" lon="-8.467241842598822"><ele>307.0</ele><time>2026-04-18T11:36:15Z</time></trkpt><trkpt lat="42.66485175119638" lon="-8.46741365458099"><ele>307.0</ele><time>2026-04-18T11:36:16Z</time></trkpt><trkpt lat="42.664908022405946" lon="-8.467589032925398"><ele>307.0</ele><time>2026-04-18T11:36:17Z</time></trkpt><trkpt lat="42.6649617924984" lon="-8.467773106309755"><ele>307.0</ele><time>2026-04-18T11:36:18Z</time></trkpt><trkpt lat="42.665008618115294" lon="-8.467962183356121"><ele>307.0</ele><time>2026-04-18T11:36:19Z</time></trkpt><trkpt lat="42.665053972992695" lon="-8.468151912735683"><ele>307.0</ele><time>2026-04-18T11:36:20Z</time></trkpt><trkpt lat="42.6651026435905" lon="-8.468341714328862"><ele>307.0</ele><time>2026-04-18T11:36:21Z</time></trkpt><trkpt lat="42.66515132294469" lon="-8.468520708167006"><ele>307.0</ele><time>2026-04-18T11:36:22Z</time></trkpt><trkpt lat="42.66520033383844" lon="-8.468692271893413"><ele>307.0</ele><time>2026-04-18T11:36:23Z</time></trkpt><trkpt lat="42.66524533845385" lon="-8.468858611477266"><ele>307.0</ele><time>2026-04-18T11:36:24Z</time></trkpt><trkpt lat="42.665285623840326" lon="-8.469021130069798"><ele>307.0</ele><time>2026-04-18T11:36:25Z</time></trkpt><trkpt lat="42.66533608443652" lon="-8.469173621083828"><ele>307.2</ele><time>2026-04-18T11:36:26Z</time></trkpt><trkpt lat="42.66537278719217" lon="-8.46931938485626"><ele>307.4</ele><time>2026-04-18T11:36:27Z</time></trkpt><trkpt lat="42.66540340928086" lon="-8.469468466120592"><ele>307.6</ele><time>2026-04-18T11:36:28Z</time></trkpt><trkpt lat="42.66543031081952" lon="-8.469603768020963"><ele>307.8</ele><time>2026-04-18T11:36:29Z</time></trkpt><trkpt lat="42.66545719088487" lon="-8.469725961688436"><ele>308.0</ele><time>2026-04-18T11:36:30Z</time></trkpt><trkpt lat="42.665484454633074" lon="-8.469844465394344"><ele>307.0</ele><time>2026-04-18T11:36:31Z</time></trkpt><trkpt lat="42.66551373270202" lon="-8.46995558830931"><ele>306.0</ele><time>2026-04-18T11:36:32Z</time></trkpt><trkpt lat="42.66554272879153" lon="-8.47006842238847"><ele>305.0</ele><time>2026-04-18T11:36:33Z</time></trkpt><trkpt lat="42.66556954346227" lon="-8.470179740313561"><ele>304.0</ele><time>2026-04-18T11:36:34Z</time></trkpt><trkpt lat="42.66559828992223" lon="-8.470295220540509"><ele>303.0</ele><time>2026-04-18T11:36:35Z</time></trkpt><trkpt lat="42.66563748669387" lon="-8.470412490914567"><ele>302.0</ele><time>2026-04-18T11:36:36Z</time></trkpt><trkpt lat="42.66566480696194" lon="-8.470520766657241"><ele>301.1666666666667</ele><time>2026-04-18T11:36:37Z</time></trkpt><trkpt lat="42.66569461846331" lon="-8.47063310387136"><ele>300.33333333333337</ele><time>2026-04-18T11:36:38Z</time></trkpt><trkpt lat="42.665725850981275" lon="-8.470731004515264"><ele>299.5</ele><time>2026-04-18T11:36:39Z</time></trkpt><trkpt lat="42.66576056690514" lon="-8.470853422872375"><ele>298.6666666666667</ele><time>2026-04-18T11:36:41Z</time></trkpt><trkpt lat="42.6657888145923" lon="-8.471001205339713"><ele>297.8333333333333</ele><time>2026-04-18T11:41:20.999Z</time></trkpt><trkpt lat="42.66578352065598" lon="-8.471088268160834"><ele>297.0</ele><time>2026-04-18T11:41:21.999Z</time></trkpt><trkpt lat="42.665801341877454" lon="-8.471204909921674"><ele>295.25</ele><time>2026-04-18T11:41:22.999Z</time></trkpt><trkpt lat="42.66585354716304" lon="-8.471333697643203"><ele>293.5</ele><time>2026-04-18T11:41:23.999Z</time></trkpt><trkpt lat="42.665907221173754" lon="-8.471507300934697"><ele>291.75</ele><time>2026-04-18T11:41:24.999Z</time></trkpt><trkpt lat="42.665954208334846" lon="-8.471677259286285"><ele>290.0</ele><time>2026-04-18T11:41:25.999Z</time></trkpt><trkpt lat="42.66602036954832" lon="-8.471858055936895"><ele>290.0</ele><time>2026-04-18T11:41:26.999Z</time></trkpt><trkpt lat="42.666102201981666" lon="-8.472041714391105"><ele>290.0</ele><time>2026-04-18T11:41:27.999Z</time></trkpt><trkpt lat="42.666195441975816" lon="-8.47222583573684"><ele>290.0</ele><time>2026-04-18T11:41:28.999Z</time></trkpt><trkpt lat="42.66629936737356" lon="-8.472405366783402"><ele>288.6666666666667</ele><time>2026-04-18T11:41:29.999Z</time></trkpt><trkpt lat="42.66641280785907" lon="-8.472575994910937"><ele>287.3333333333333</ele><time>2026-04-18T11:41:30.999Z</time></trkpt><trkpt lat="42.6665358930738" lon="-8.472740730778405"><ele>286.0</ele><time>2026-04-18T11:41:31.999Z</time></trkpt><trkpt lat="42.666681320354286" lon="-8.472883739683914"><ele>284.0</ele><time>2026-04-18T11:41:32.999Z</time></trkpt><trkpt lat="42.66682361421986" lon="-8.472992747926773"><ele>282.0</ele><time>2026-04-18T11:41:33.999Z</time></trkpt><trkpt lat="42.66696611665749" lon="-8.473104802762565"><ele>280.0</ele><time>2026-04-18T11:41:34.999Z</time></trkpt><trkpt lat="42.66711559624357" lon="-8.47320059656127"><ele>280.0</ele><time>2026-04-18T11:41:35.999Z</time></trkpt><trkpt lat="42.667270202687185" lon="-8.473281214346223"><ele>280.0</ele><time>2026-04-18T11:41:36.999Z</time></trkpt><trkpt lat="42.66743201452366" lon="-8.47334649358815"><ele>280.0</ele><time>2026-04-18T11:41:37.999Z</time></trkpt><trkpt lat="42.66759595953086" lon="-8.473388683691685"><ele>280.0</ele><time>2026-04-18T11:41:38.999Z</time></trkpt><trkpt lat="42.66776298317747" lon="-8.473414138945342"><ele>280.0</ele><time>2026-04-18T11:41:39.999Z</time></trkpt><trkpt lat="42.667932248166686" lon="-8.47342514790716"><ele>280.0</ele><time>2026-04-18T11:41:40.999Z</time></trkpt><trkpt lat="42.6680973488076" lon="-8.473421654624753"><ele>280.66666666666663</ele><time>2026-04-18T11:41:41.999Z</time></trkpt><trkpt lat="42.66826619461608" lon="-8.473410570592312"><ele>281.3333333333333</ele><time>2026-04-18T11:41:42.999Z</time></trkpt><trkpt lat="42.66843509356269" lon="-8.473389824295785"><ele>282.0</ele><time>2026-04-18T11:41:43.999Z</time></trkpt><trkpt lat="42.668607130276136" lon="-8.473373625873064"><ele>283.3333333333333</ele><time>2026-04-18T11:41:44.999Z</time></trkpt><trkpt lat="42.66877554146171" lon="-8.473371276598561"><ele>284.66666666666663</ele><time>2026-04-18T11:41:45.999Z</time></trkpt><trkpt lat="42.66895916423986" lon="-8.473386290473726"><ele>286.0</ele><time>2026-04-18T11:41:46.999Z</time></trkpt><trkpt lat="42.669130171827746" lon="-8.473411403590658"><ele>286.0</ele><time>2026-04-18T11:41:47.999Z</time></trkpt><trkpt lat="42.66932401861406" lon="-8.473430221352343"><ele>286.0</ele><time>2026-04-18T11:41:48.999Z</time></trkpt><trkpt lat="42.66949109189095" lon="-8.47349135850669"><ele>286.0</ele><time>2026-04-18T11:41:49.999Z</time></trkpt><trkpt lat="42.66966907540497" lon="-8.473557506088643"><ele>286.66666666666663</ele><time>2026-04-18T11:41:50.999Z</time></trkpt><trkpt lat="42.66983302536743" lon="-8.473641169506678"><ele>287.3333333333333</ele><time>2026-04-18T11:41:51.999Z</time></trkpt><trkpt lat="42.6700059810648" lon="-8.473738884835164"><ele>288.0</ele><time>2026-04-18T11:41:52.999Z</time></trkpt><trkpt lat="42.67016663016626" lon="-8.473865066880903"><ele>289.0</ele><time>2026-04-18T11:41:53.999Z</time></trkpt><trkpt lat="42.670306690463214" lon="-8.47400578423587"><ele>290.0</ele><time>2026-04-18T11:41:54.999Z</time></trkpt><trkpt lat="42.67044495572574" lon="-8.474153136906004"><ele>291.0</ele><time>2026-04-18T11:41:55.999Z</time></trkpt><trkpt lat="42.67057879701434" lon="-8.47431398084038"><ele>291.0</ele><time>2026-04-18T11:41:56.999Z</time></trkpt><trkpt lat="42.670713461534" lon="-8.47448581070316"><ele>291.0</ele><time>2026-04-18T11:41:57.999Z</time></trkpt><trkpt lat="42.670862993491056" lon="-8.474667387149983"><ele>291.0</ele><time>2026-04-18T11:41:58.999Z</time></trkpt><trkpt lat="42.67100270033202" lon="-8.474838139208279"><ele>290.6666666666667</ele><time>2026-04-18T11:41:59.999Z</time></trkpt><trkpt lat="42.671142202090806" lon="-8.475009793315765"><ele>290.33333333333337</ele><time>2026-04-18T11:42:00.999Z</time></trkpt><trkpt lat="42.67127956272569" lon="-8.475182137543133"><ele>290.0</ele><time>2026-04-18T11:42:01.999Z</time></trkpt><trkpt lat="42.67140936842749" lon="-8.475361859734452"><ele>289.6666666666667</ele><time>2026-04-18T11:42:02.999Z</time></trkpt><trkpt lat="42.671539274068316" lon="-8.475537797300095"><ele>289.3333333333333</ele><time>2026-04-18T11:42:03.999Z</time></trkpt><trkpt lat="42.671673298760965" lon="-8.475713166145564"><ele>289.0</ele><time>2026-04-18T11:42:04.999Z</time></trkpt><trkpt lat="42.671806340714156" lon="-8.475892387064503"><ele>289.0</ele><time>2026-04-18T11:42:05.999Z</time></trkpt><trkpt lat="42.671939683617076" lon="-8.476070879001835"><ele>289.0</ele><time>2026-04-18T11:42:06.999Z</time></trkpt><trkpt lat="42.672073082280434" lon="-8.476249297659823"><ele>289.0</ele><time>2026-04-18T11:42:07.999Z</time></trkpt><trkpt lat="42.67220896479202" lon="-8.476427064686446"><ele>287.66666666666663</ele><time>2026-04-18T11:42:08.999Z</time></trkpt><trkpt lat="42.672344706728126" lon="-8.476604570944733"><ele>286.3333333333333</ele><time>2026-04-18T11:42:09.999Z</time></trkpt><trkpt lat="42.67248276404082" lon="-8.47678309074828"><ele>285.0</ele><time>2026-04-18T11:42:10.999Z</time></trkpt><trkpt lat="42.67262177812187" lon="-8.476959419784325"><ele>286.0</ele><time>2026-04-18T11:42:11.999Z</time></trkpt><trkpt lat="42.67276071153584" lon="-8.477135060609204"><ele>287.0</ele><time>2026-04-18T11:42:12.999Z</time></trkpt><trkpt lat="42.67289587906742" lon="-8.477310806772646"><ele>288.0</ele><time>2026-04-18T11:42:13.999Z</time></trkpt><trkpt lat="42.673025494120004" lon="-8.477488302846048"><ele>284.3333333333333</ele><time>2026-04-18T11:42:14.999Z</time></trkpt><trkpt lat="42.67315558415544" lon="-8.477661219738701"><ele>280.66666666666663</ele><time>2026-04-18T11:42:15.999Z</time></trkpt><trkpt lat="42.67328281625962" lon="-8.477833853536165"><ele>277.0</ele><time>2026-04-18T11:42:16.999Z</time></trkpt><trkpt lat="42.67341410982541" lon="-8.478001257196194"><ele>276.66666666666663</ele><time>2026-04-18T11:42:17.999Z</time></trkpt><trkpt lat="42.67354666795791" lon="-8.478167043885414"><ele>276.3333333333333</ele><time>2026-04-18T11:42:18.999Z</time></trkpt><trkpt lat="42.673682203761395" lon="-8.478328288910134"><ele>276.0</ele><time>2026-04-18T11:42:19.999Z</time></trkpt><trkpt lat="42.67381988880694" lon="-8.478478015914582"><ele>275.6666666666667</ele><time>2026-04-18T11:42:20.999Z</time></trkpt><trkpt lat="42.67396572918475" lon="-8.478613076345933"><ele>275.33333333333337</ele><time>2026-04-18T11:42:21.999Z</time></trkpt><trkpt lat="42.67412103081829" lon="-8.47873230640126"><ele>275.0</ele><time>2026-04-18T11:42:22.999Z</time></trkpt><trkpt lat="42.67428534742041" lon="-8.478839537419882"><ele>273.6666666666667</ele><time>2026-04-18T11:42:23.999Z</time></trkpt><trkpt lat="42.67445407733718" lon="-8.478927184106938"><ele>272.3333333333333</ele><time>2026-04-18T11:42:24.999Z</time></trkpt><trkpt lat="42.67462976832655" lon="-8.478998610408391"><ele>271.0</ele><time>2026-04-18T11:42:25.999Z</time></trkpt><trkpt lat="42.67481059159564" lon="-8.479054880032999"><ele>271.0</ele><time>2026-04-18T11:42:26.999Z</time></trkpt><trkpt lat="42.674997820084776" lon="-8.47909220803783"><ele>271.0</ele><time>2026-04-18T11:42:27.999Z</time></trkpt><trkpt lat="42.67518699791527" lon="-8.479107156193638"><ele>271.0</ele><time>2026-04-18T11:42:28.999Z</time></trkpt><trkpt lat="42.67537483268665" lon="-8.479094714797643"><ele>272.0</ele><time>2026-04-18T11:42:29.999Z</time></trkpt><trkpt lat="42.67556206640104" lon="-8.479059257168608"><ele>273.0</ele><time>2026-04-18T11:42:30.999Z</time></trkpt><trkpt lat="42.67574737155397" lon="-8.479008118325028"><ele>274.0</ele><time>2026-04-18T11:42:31.999Z</time></trkpt><trkpt lat="42.67593295564168" lon="-8.478951726817586"><ele>272.3333333333333</ele><time>2026-04-18T11:42:32.999Z</time></trkpt><trkpt lat="42.676115787240235" lon="-8.478881075338249"><ele>270.6666666666667</ele><time>2026-04-18T11:42:33.999Z</time></trkpt><trkpt lat="42.67629790891003" lon="-8.478814115659027"><ele>269.0</ele><time>2026-04-18T11:42:34.999Z</time></trkpt><trkpt lat="42.67648190683647" lon="-8.478745976161852"><ele>269.0</ele><time>2026-04-18T11:42:35.999Z</time></trkpt><trkpt lat="42.67666686976502" lon="-8.478680817091096"><ele>269.0</ele><time>2026-04-18T11:42:36.999Z</time></trkpt><trkpt lat="42.67685347149521" lon="-8.478617385655612"><ele>269.0</ele><time>2026-04-18T11:42:37.999Z</time></trkpt><trkpt lat="42.67703965653871" lon="-8.478550334526696"><ele>269.33333333333337</ele><time>2026-04-18T11:42:39Z</time></trkpt><trkpt lat="42.677225065420394" lon="-8.478482378991561"><ele>269.6666666666667</ele><time>2026-04-18T11:42:40Z</time></trkpt><trkpt lat="42.677409490998635" lon="-8.478414324363625"><ele>270.0</ele><time>2026-04-18T11:42:41Z</time></trkpt><trkpt lat="42.677592499179354" lon="-8.478346666157886"><ele>269.6666666666667</ele><time>2026-04-18T11:42:42Z</time></trkpt><trkpt lat="42.67777522847554" lon="-8.478279535491824"><ele>269.33333333333337</ele><time>2026-04-18T11:42:43Z</time></trkpt><trkpt lat="42.67795998222107" lon="-8.478213513612816"><ele>269.0</ele><time>2026-04-18T11:42:44Z</time></trkpt><trkpt lat="42.678143264119626" lon="-8.478151988353796"><ele>269.0</ele><time>2026-04-18T11:42:45Z</time></trkpt><trkpt lat="42.67832599166994" lon="-8.478086929625523"><ele>269.0</ele><time>2026-04-18T11:42:46Z</time></trkpt><trkpt lat="42.678504878060714" lon="-8.47802745705051"><ele>269.0</ele><time>2026-04-18T11:42:47Z</time></trkpt><trkpt lat="42.67867690427112" lon="-8.477980117438598"><ele>266.33333333333337</ele><time>2026-04-18T11:42:48Z</time></trkpt><trkpt lat="42.678844079273844" lon="-8.477952231721176"><ele>263.6666666666667</ele><time>2026-04-18T11:42:49Z</time></trkpt><trkpt lat="42.67901039551473" lon="-8.477954980149644"><ele>261.0</ele><time>2026-04-18T11:42:50Z</time></trkpt><trkpt lat="42.679178004015775" lon="-8.477998263127958"><ele>261.0</ele><time>2026-04-18T11:42:51Z</time></trkpt><trkpt lat="42.67934092186116" lon="-8.478072801090953"><ele>261.0</ele><time>2026-04-18T11:42:52Z</time></trkpt><trkpt lat="42.67949664430214" lon="-8.478182785751452"><ele>261.0</ele><time>2026-04-18T11:42:53Z</time></trkpt><trkpt lat="42.67963933601032" lon="-8.478323293665268"><ele>256.3333333333333</ele><time>2026-04-18T11:42:54Z</time></trkpt><trkpt lat="42.67976479611472" lon="-8.478492436706786"><ele>251.66666666666666</ele><time>2026-04-18T11:42:55Z</time></trkpt><trkpt lat="42.679867399610224" lon="-8.478686088524876"><ele>247.0</ele><time>2026-04-18T11:42:56Z</time></trkpt><trkpt lat="42.67995334849729" lon="-8.478895946016152"><ele>247.0</ele><time>2026-04-18T11:42:57Z</time></trkpt><trkpt lat="42.68003204141092" lon="-8.479109702327618"><ele>247.0</ele><time>2026-04-18T11:42:58Z</time></trkpt><trkpt lat="42.68011318182007" lon="-8.47931966744232"><ele>247.0</ele><time>2026-04-18T11:42:59Z</time></trkpt><trkpt lat="42.68019643270304" lon="-8.479527856508142"><ele>244.33333333333331</ele><time>2026-04-18T11:43:00Z</time></trkpt><trkpt lat="42.68028002604441" lon="-8.479730151261748"><ele>241.66666666666669</ele><time>2026-04-18T11:43:01Z</time></trkpt><trkpt lat="42.68035962410249" lon="-8.479933612084219"><ele>239.0</ele><time>2026-04-18T11:43:02Z</time></trkpt><trkpt lat="42.68043858958709" lon="-8.480135135503577"><ele>239.0</ele><time>2026-04-18T11:43:03Z</time></trkpt><trkpt lat="42.68051861385728" lon="-8.480339263071777"><ele>239.0</ele><time>2026-04-18T11:43:04Z</time></trkpt><trkpt lat="42.68060573628821" lon="-8.4805423196422"><ele>239.0</ele><time>2026-04-18T11:43:05Z</time></trkpt><trkpt lat="42.680701283321596" lon="-8.480737822728903"><ele>241.0</ele><time>2026-04-18T11:43:06Z</time></trkpt><trkpt lat="42.68080528332524" lon="-8.480921469189404"><ele>243.0</ele><time>2026-04-18T11:43:07Z</time></trkpt><trkpt lat="42.680923877665194" lon="-8.481089504562405"><ele>245.0</ele><time>2026-04-18T11:43:08Z</time></trkpt><trkpt lat="42.681052293377014" lon="-8.481240142679516"><ele>247.66666666666669</ele><time>2026-04-18T11:43:09Z</time></trkpt><trkpt lat="42.68118241539797" lon="-8.481383582078198"><ele>250.33333333333331</ele><time>2026-04-18T11:43:10Z</time></trkpt><trkpt lat="42.68131188230958" lon="-8.48152559203882"><ele>253.0</ele><time>2026-04-18T11:43:11Z</time></trkpt><trkpt lat="42.6814403021486" lon="-8.481673848382545"><ele>253.0</ele><time>2026-04-18T11:43:12Z</time></trkpt><trkpt lat="42.681569547410625" lon="-8.481825860926008"><ele>253.0</ele><time>2026-04-18T11:43:13Z</time></trkpt><trkpt lat="42.68170085632891" lon="-8.481978427460309"><ele>253.0</ele><time>2026-04-18T11:43:14Z</time></trkpt><trkpt lat="42.681832493009615" lon="-8.482131385469877"><ele>256.0</ele><time>2026-04-18T11:43:15Z</time></trkpt><trkpt lat="42.68196679404352" lon="-8.482281149761192"><ele>259.0</ele><time>2026-04-18T11:43:16Z</time></trkpt><trkpt lat="42.68209927400139" lon="-8.48243046911205"><ele>262.0</ele><time>2026-04-18T11:43:17Z</time></trkpt><trkpt lat="42.68223050722865" lon="-8.482584655507527"><ele>262.0</ele><time>2026-04-18T11:43:18Z</time></trkpt><trkpt lat="42.68235897308719" lon="-8.48274267720556"><ele>262.0</ele><time>2026-04-18T11:43:19Z</time></trkpt><trkpt lat="42.68248096114379" lon="-8.482906870290874"><ele>262.0</ele><time>2026-04-18T11:43:20Z</time></trkpt><trkpt lat="42.68259209263501" lon="-8.483071048633327"><ele>262.75</ele><time>2026-04-18T11:43:21Z</time></trkpt><trkpt lat="42.68268869553125" lon="-8.483229331744827"><ele>263.5</ele><time>2026-04-18T11:43:22Z</time></trkpt><trkpt lat="42.682771114473816" lon="-8.48338281517682"><ele>264.25</ele><time>2026-04-18T11:43:23Z</time></trkpt><trkpt lat="42.68284926372105" lon="-8.483538808092474"><ele>265.0</ele><time>2026-04-18T11:43:24Z</time></trkpt><trkpt lat="42.68292156869761" lon="-8.483695637441993"><ele>265.5</ele><time>2026-04-18T11:43:25Z</time></trkpt><trkpt lat="42.68299306480964" lon="-8.483850419557466"><ele>266.0</ele><time>2026-04-18T11:43:26Z</time></trkpt><trkpt lat="42.683062049872625" lon="-8.484002447593983"><ele>266.5</ele><time>2026-04-18T11:43:27Z</time></trkpt><trkpt lat="42.68312817985219" lon="-8.484141430904353"><ele>267.0</ele><time>2026-04-18T11:43:27.999Z</time></trkpt><trkpt lat="42.683194261454986" lon="-8.484266642146803"><ele>267.0</ele><time>2026-04-18T11:43:28.999Z</time></trkpt><trkpt lat="42.683259039848416" lon="-8.48439574250472"><ele>267.0</ele><time>2026-04-18T11:43:29.999Z</time></trkpt><trkpt lat="42.68332263252452" lon="-8.484524463125101"><ele>267.0</ele><time>2026-04-18T11:43:30.999Z</time></trkpt><trkpt lat="42.68338489322062" lon="-8.484653296224625"><ele>267.0</ele><time>2026-04-18T11:43:31.999Z</time></trkpt><trkpt lat="42.68344699828087" lon="-8.484781988525663"><ele>266.8</ele><time>2026-04-18T11:43:32.999Z</time></trkpt><trkpt lat="42.683507994675615" lon="-8.484909270660081"><ele>266.6</ele><time>2026-04-18T11:43:33.999Z</time></trkpt><trkpt lat="42.68356769678979" lon="-8.48503430778545"><ele>266.40000000000003</ele><time>2026-04-18T11:43:34.999Z</time></trkpt><trkpt lat="42.68362612649604" lon="-8.48515788752159"><ele>266.2</ele><time>2026-04-18T11:43:35.999Z</time></trkpt><trkpt lat="42.683684032141656" lon="-8.485279955702666"><ele>266.0</ele><time>2026-04-18T11:43:36.999Z</time></trkpt><trkpt lat="42.683744136273056" lon="-8.485402497367142"><ele>265.40000000000003</ele><time>2026-04-18T11:43:37.999Z</time></trkpt><trkpt lat="42.68380617971133" lon="-8.485529131598076"><ele>264.8</ele><time>2026-04-18T11:43:38.999Z</time></trkpt><trkpt lat="42.68386519198723" lon="-8.485653628608457"><ele>264.20000000000005</ele><time>2026-04-18T11:43:39.999Z</time></trkpt><trkpt lat="42.68392201438737" lon="-8.485776231970469"><ele>263.6</ele><time>2026-04-18T11:43:40.999Z</time></trkpt><trkpt lat="42.683977878155936" lon="-8.485891518998047"><ele>263.0</ele><time>2026-04-18T11:43:41.999Z</time></trkpt><trkpt lat="42.68403331387208" lon="-8.486007351329247"><ele>263.0</ele><time>2026-04-18T11:43:42.999Z</time></trkpt><trkpt lat="42.68409026086606" lon="-8.486124396883449"><ele>263.0</ele><time>2026-04-18T11:43:43.999Z</time></trkpt><trkpt lat="42.684151149394005" lon="-8.486239166022886"><ele>263.0</ele><time>2026-04-18T11:43:44.999Z</time></trkpt><trkpt lat="42.68420983322795" lon="-8.486357717068428"><ele>263.0</ele><time>2026-04-18T11:43:45.999Z</time></trkpt><trkpt lat="42.684268531059054" lon="-8.486478073116139"><ele>263.0</ele><time>2026-04-18T11:43:46.999Z</time></trkpt><trkpt lat="42.68432790679965" lon="-8.48659921880406"><ele>264.0</ele><time>2026-04-18T11:43:47.999Z</time></trkpt><trkpt lat="42.68438710315942" lon="-8.486722064195673"><ele>265.0</ele><time>2026-04-18T11:43:48.999Z</time></trkpt><trkpt lat="42.68444603701729" lon="-8.486848272129903"><ele>266.0</ele><time>2026-04-18T11:43:49.999Z</time></trkpt><trkpt lat="42.68450191358972" lon="-8.486977278462145"><ele>267.0</ele><time>2026-04-18T11:43:50.999Z</time></trkpt><trkpt lat="42.684556827714125" lon="-8.487112801294794"><ele>268.0</ele><time>2026-04-18T11:43:51.999Z</time></trkpt><trkpt lat="42.68460765871695" lon="-8.487253020863557"><ele>268.5</ele><time>2026-04-18T11:43:52.999Z</time></trkpt><trkpt lat="42.68465604754823" lon="-8.48738930497514"><ele>269.0</ele><time>2026-04-18T11:43:53.999Z</time></trkpt><trkpt lat="42.68470166330858" lon="-8.4875272635961"><ele>269.5</ele><time>2026-04-18T11:43:54.999Z</time></trkpt><trkpt lat="42.68475085079317" lon="-8.487666642844303"><ele>270.0</ele><time>2026-04-18T11:43:55.999Z</time></trkpt><trkpt lat="42.684797916133014" lon="-8.487813702600139"><ele>270.5</ele><time>2026-04-18T11:43:56.999Z</time></trkpt><trkpt lat="42.68484129654725" lon="-8.487965075424855"><ele>271.0</ele><time>2026-04-18T11:43:57.999Z</time></trkpt><trkpt lat="42.68488360634458" lon="-8.488121847975815"><ele>271.5</ele><time>2026-04-18T11:43:58.999Z</time></trkpt><trkpt lat="42.68492476916616" lon="-8.488280810212943"><ele>272.0</ele><time>2026-04-18T11:43:59.999Z</time></trkpt><trkpt lat="42.68496722535283" lon="-8.488439186507504"><ele>272.0</ele><time>2026-04-18T11:44:00.999Z</time></trkpt><trkpt lat="42.68501009634592" lon="-8.488597176737919"><ele>272.0</ele><time>2026-04-18T11:44:01.999Z</time></trkpt><trkpt lat="42.68505169389101" lon="-8.488752797139815"><ele>272.0</ele><time>2026-04-18T11:44:02.999Z</time></trkpt><trkpt lat="42.68509175248352" lon="-8.488904624791484"><ele>272.0</ele><time>2026-04-18T11:44:03.999Z</time></trkpt><trkpt lat="42.6851323606186" lon="-8.489051769408622"><ele>272.75</ele><time>2026-04-18T11:44:04.999Z</time></trkpt><trkpt lat="42.685174497404425" lon="-8.489201318747753"><ele>273.5</ele><time>2026-04-18T11:44:05.999Z</time></trkpt><trkpt lat="42.68521552279939" lon="-8.48935324804684"><ele>274.25</ele><time>2026-04-18T11:44:06.999Z</time></trkpt><trkpt lat="42.685254640511026" lon="-8.489505826625624"><ele>275.0</ele><time>2026-04-18T11:44:07.999Z</time></trkpt><trkpt lat="42.68529270427204" lon="-8.489656564991286"><ele>277.0</ele><time>2026-04-18T11:44:08.999Z</time></trkpt><trkpt lat="42.68533366564736" lon="-8.489807574105987"><ele>279.0</ele><time>2026-04-18T11:44:09.999Z</time></trkpt><trkpt lat="42.6853804985512" lon="-8.489954033437641"><ele>281.0</ele><time>2026-04-18T11:44:10.999Z</time></trkpt><trkpt lat="42.685435816495016" lon="-8.490093501916126"><ele>283.0</ele><time>2026-04-18T11:44:11.999Z</time></trkpt><trkpt lat="42.68549975995445" lon="-8.490226108361119"><ele>283.0</ele><time>2026-04-18T11:44:12.999Z</time></trkpt><trkpt lat="42.685571751049864" lon="-8.490350232047271"><ele>283.0</ele><time>2026-04-18T11:44:13.999Z</time></trkpt><trkpt lat="42.685654202753064" lon="-8.490463256234854"><ele>283.0</ele><time>2026-04-18T11:44:14.999Z</time></trkpt><trkpt lat="42.6857475326123" lon="-8.490560646998619"><ele>283.0</ele><time>2026-04-18T11:44:15.999Z</time></trkpt><trkpt lat="42.68585033085615" lon="-8.490638338717995"><ele>283.25</ele><time>2026-04-18T11:44:16.999Z</time></trkpt><trkpt lat="42.68595932753258" lon="-8.490695020732062"><ele>283.5</ele><time>2026-04-18T11:44:17.999Z</time></trkpt><trkpt lat="42.686070789404134" lon="-8.490736470897533"><ele>283.75</ele><time>2026-04-18T11:44:18.999Z</time></trkpt><trkpt lat="42.68618145371544" lon="-8.490767374511082"><ele>284.0</ele><time>2026-04-18T11:44:19.999Z</time></trkpt><trkpt lat="42.68629272527973" lon="-8.490790951030744"><ele>285.4</ele><time>2026-04-18T11:44:20.999Z</time></trkpt><trkpt lat="42.68640404392376" lon="-8.49080883802234"><ele>286.79999999999995</ele><time>2026-04-18T11:44:21.999Z</time></trkpt><trkpt lat="42.6865154070636" lon="-8.490817145075384"><ele>288.20000000000005</ele><time>2026-04-18T11:44:22.999Z</time></trkpt><trkpt lat="42.68662699791436" lon="-8.490824432695828"><ele>289.6</ele><time>2026-04-18T11:44:24Z</time></trkpt><trkpt lat="42.686737348809075" lon="-8.490842328368828"><ele>291.0</ele><time>2026-04-18T11:44:25Z</time></trkpt><trkpt lat="42.68684551079158" lon="-8.490866709823456"><ele>291.8</ele><time>2026-04-18T11:44:26Z</time></trkpt><trkpt lat="42.686956055696086" lon="-8.49087872007905"><ele>292.6</ele><time>2026-04-18T11:44:27Z</time></trkpt><trkpt lat="42.68706581760467" lon="-8.490893568048063"><ele>293.4</ele><time>2026-04-18T11:44:28Z</time></trkpt><trkpt lat="42.68717734269967" lon="-8.490911863590114"><ele>294.2</ele><time>2026-04-18T11:44:29Z</time></trkpt><trkpt lat="42.6872872630491" lon="-8.490936058316176"><ele>295.0</ele><time>2026-04-18T11:44:30Z</time></trkpt><trkpt lat="42.68739351568795" lon="-8.490969176349479"><ele>295.0</ele><time>2026-04-18T11:44:31Z</time></trkpt><trkpt lat="42.687491081266" lon="-8.490991554859901"><ele>295.0</ele><time>2026-04-18T11:44:32Z</time></trkpt><trkpt lat="42.687591573066676" lon="-8.49100428254995"><ele>295.0</ele><time>2026-04-18T11:44:33Z</time></trkpt><trkpt lat="42.68769317284673" lon="-8.49100097883368"><ele>295.0</ele><time>2026-04-18T11:44:34Z</time></trkpt><trkpt lat="42.68779412921277" lon="-8.491006556062082"><ele>295.0</ele><time>2026-04-18T11:44:35Z</time></trkpt><trkpt lat="42.68788303177802" lon="-8.491025385965305"><ele>295.5</ele><time>2026-04-18T11:44:36Z</time></trkpt><trkpt lat="42.68795622905767" lon="-8.491038104899701"><ele>296.0</ele><time>2026-04-18T11:44:37Z</time></trkpt><trkpt lat="42.688018455435454" lon="-8.491062650742611"><ele>296.5</ele><time>2026-04-18T11:44:38Z</time></trkpt><trkpt lat="42.68810708058639" lon="-8.491059132442372"><ele>297.0</ele><time>2026-04-18T11:44:40Z</time></trkpt><trkpt lat="42.688170182003255" lon="-8.491047534727297"><ele>297.5</ele><time>2026-04-18T11:44:43Z</time></trkpt><trkpt lat="42.68824070080911" lon="-8.490992666171222"><ele>298.0</ele><time>2026-04-18T11:44:58Z</time></trkpt><trkpt lat="42.68825769971654" lon="-8.490825497609386"><ele>298.0</ele><time>2026-04-18T11:45:00Z</time></trkpt><trkpt lat="42.68825684940419" lon="-8.490705535507653"><ele>298.0</ele><time>2026-04-18T11:45:01Z</time></trkpt><trkpt lat="42.688246475707075" lon="-8.490585171549451"><ele>298.0</ele><time>2026-04-18T11:45:02Z</time></trkpt><trkpt lat="42.68824434111309" lon="-8.490450595112435"><ele>298.0</ele><time>2026-04-18T11:45:03Z</time></trkpt><trkpt lat="42.68824778472074" lon="-8.490312792140864"><ele>298.0</ele><time>2026-04-18T11:45:04Z</time></trkpt><trkpt lat="42.68825198394288" lon="-8.490193896327064"><ele>298.16666666666663</ele><time>2026-04-18T11:45:05Z</time></trkpt><trkpt lat="42.688256060199336" lon="-8.490094222705979"><ele>298.3333333333333</ele><time>2026-04-18T11:45:06Z</time></trkpt><trkpt lat="42.68826008510777" lon="-8.4900040573442"><ele>298.5</ele><time>2026-04-18T11:45:07Z</time></trkpt><trkpt lat="42.68827223283911" lon="-8.489870318003732"><ele>298.6666666666667</ele><time>2026-04-18T11:45:09Z</time></trkpt><trkpt lat="42.688271691549375" lon="-8.489759252509671"><ele>298.83333333333337</ele><time>2026-04-18T11:45:11Z</time></trkpt><trkpt lat="42.688279233792265" lon="-8.48958989249043"><ele>299.0</ele><time>2026-04-18T11:45:13Z</time></trkpt><trkpt lat="42.68827973310879" lon="-8.48948744091675"><ele>299.2</ele><time>2026-04-18T11:45:14Z</time></trkpt><trkpt lat="42.68827850963709" lon="-8.48939692255295"><ele>299.4</ele><time>2026-04-18T11:45:15Z</time></trkpt><trkpt lat="42.68825679449067" lon="-8.489267316698639"><ele>299.6</ele><time>2026-04-18T11:45:17Z</time></trkpt><trkpt lat="42.68823367037618" lon="-8.489139884602727"><ele>299.8</ele><time>2026-04-18T11:45:19Z</time></trkpt><trkpt lat="42.68825461301083" lon="-8.48896668721421"><ele>300.0</ele><time>2026-04-18T11:45:21Z</time></trkpt><trkpt lat="42.688253748266405" lon="-8.48887418608562"><ele>300.0</ele><time>2026-04-18T11:45:22Z</time></trkpt><trkpt lat="42.68831105202986" lon="-8.488931684459374"><ele>300.0</ele><time>2026-04-18T11:45:25Z</time></trkpt><trkpt lat="42.688310164809806" lon="-8.489021257191547"><ele>300.0</ele><time>2026-04-18T11:45:26Z</time></trkpt><trkpt lat="42.688293459235695" lon="-8.489134284074176"><ele>300.0</ele><time>2026-04-18T11:45:27Z</time></trkpt><trkpt lat="42.68828862391183" lon="-8.489228703295998"><ele>300.0</ele><time>2026-04-18T11:45:28Z</time></trkpt><trkpt lat="42.688295299260005" lon="-8.489366941665743"><ele>300.0</ele><time>2026-04-18T11:45:30Z</time></trkpt><trkpt lat="42.688289735466626" lon="-8.48948280599699"><ele>300.0</ele><time>2026-04-18T11:45:32Z</time></trkpt><trkpt lat="42.68831994208024" lon="-8.489586924193246"><ele>300.0</ele><time>2026-04-18T11:45:34Z</time></trkpt><trkpt lat="42.68840620913896" lon="-8.489593253890476"><ele>300.0</ele><time>2026-04-18T11:45:36Z</time></trkpt><trkpt lat="42.68848973392135" lon="-8.489531328296424"><ele>300.0</ele><time>2026-04-18T11:45:38Z</time></trkpt><trkpt lat="42.68852862211062" lon="-8.48944614157488"><ele>300.0</ele><time>2026-04-18T11:45:40Z</time></trkpt><trkpt lat="42.68856095041574" lon="-8.489372036973378"><ele>300.0</ele><time>2026-04-18T11:45:42Z</time></trkpt><trkpt lat="42.688635424940706" lon="-8.48934762325424"><ele>300.0</ele><time>2026-04-18T11:45:44Z</time></trkpt><trkpt lat="42.68863196618474" lon="-8.489253083458463"><ele>300.0</ele><time>2026-04-18T11:45:46Z</time></trkpt><trkpt lat="42.68863402614744" lon="-8.489164007387167"><ele>300.0</ele><time>2026-04-18T11:46:08Z</time></trkpt><trkpt lat="42.68855653728526" lon="-8.489187635453218"><ele>300.0</ele><time>2026-04-18T11:46:11Z</time></trkpt><trkpt lat="42.6885498135163" lon="-8.489335874623512"><ele>300.0</ele><time>2026-04-18T11:46:13Z</time></trkpt><trkpt lat="42.688598685516496" lon="-8.489408114632297"><ele>300.0</ele><time>2026-04-18T11:46:15Z</time></trkpt><trkpt lat="42.68866573065527" lon="-8.489416043850486"><ele>300.2857142857143</ele><time>2026-04-18T11:46:17Z</time></trkpt><trkpt lat="42.68874185852111" lon="-8.489406191509593"><ele>300.57142857142856</ele><time>2026-04-18T11:46:20Z</time></trkpt><trkpt lat="42.68878908322291" lon="-8.489344450806378"><ele>300.8571428571429</ele><time>2026-04-18T11:46:23Z</time></trkpt><trkpt lat="42.68872551054345" lon="-8.48938107124652"><ele>301.1428571428571</ele><time>2026-04-18T11:47:58.999Z</time></trkpt><trkpt lat="42.68865883607783" lon="-8.489384356804456"><ele>301.42857142857144</ele><time>2026-04-18T11:48:04.999Z</time></trkpt><trkpt lat="42.688619569888544" lon="-8.489317150354609"><ele>301.7142857142857</ele><time>2026-04-18T11:48:13.999Z</time></trkpt><trkpt lat="42.68868379001328" lon="-8.489343849153315"><ele>302.0</ele><time>2026-04-18T11:48:22.999Z</time></trkpt><trkpt lat="42.68861465183271" lon="-8.489373897336176"><ele>301.7142857142857</ele><time>2026-04-18T11:48:45Z</time></trkpt><trkpt lat="42.6885567878327" lon="-8.489330884444179"><ele>301.42857142857144</ele><time>2026-04-18T11:48:51Z</time></trkpt><trkpt lat="42.68849593746266" lon="-8.489290066155663"><ele>301.1428571428571</ele><time>2026-04-18T11:49:01Z</time></trkpt><trkpt lat="42.68843202281737" lon="-8.489252699567981"><ele>300.8571428571429</ele><time>2026-04-18T11:49:05Z</time></trkpt><trkpt lat="42.68836637812113" lon="-8.489238120667814"><ele>300.57142857142856</ele><time>2026-04-18T11:49:12Z</time></trkpt><trkpt lat="42.68840214880523" lon="-8.489137682603145"><ele>300.2857142857143</ele><time>2026-04-18T11:50:29.999Z</time></trkpt><trkpt lat="42.68833511882465" lon="-8.489118870796462"><ele>300.0</ele><time>2026-04-18T11:55:09Z</time></trkpt><trkpt lat="42.68845870137335" lon="-8.48913229537446"><ele>299.99999999999994</ele><time>2026-04-18T12:00:31Z</time></trkpt><trkpt lat="42.68839751484208" lon="-8.489102358425164"><ele>300.0</ele><time>2026-04-18T12:00:43Z</time></trkpt><trkpt lat="42.68846087927271" lon="-8.48910770656485"><ele>300.0</ele><time>2026-04-18T12:02:45Z</time></trkpt><trkpt lat="42.688531521421986" lon="-8.489094305927082"><ele>300.0</ele><time>2026-04-18T12:21:52.999Z</time></trkpt><trkpt lat="42.688603575236655" lon="-8.489080145523005"><ele>300.0</ele><time>2026-04-18T12:22:00.999Z</time></trkpt><trkpt lat="42.68867409458279" lon="-8.48911457312987"><ele>299.99999999999994</ele><time>2026-04-18T12:22:05.999Z</time></trkpt><trkpt lat="42.6887371695758" lon="-8.489157506703537"><ele>300.0</ele><time>2026-04-18T12:22:51Z</time></trkpt><trkpt lat="42.68866112314913" lon="-8.489109325527604"><ele>299.99999999999994</ele><time>2026-04-18T12:26:49.001Z</time></trkpt><trkpt lat="42.68868799335916" lon="-8.489191369304223"><ele>300.0</ele><time>2026-04-18T12:30:42.999Z</time></trkpt><trkpt lat="42.68875217036734" lon="-8.489222979699823"><ele>300.0</ele><time>2026-04-18T12:31:23Z</time></trkpt><trkpt lat="42.688678540425414" lon="-8.489188400836944"><ele>300.0</ele><time>2026-04-18T12:31:36Z</time></trkpt><trkpt lat="42.68875163560359" lon="-8.489183717714479"><ele>300.0</ele><time>2026-04-18T12:31:59Z</time></trkpt><trkpt lat="42.68868521113822" lon="-8.489169640097947"><ele>299.99999999999994</ele><time>2026-04-18T12:35:42Z</time></trkpt><trkpt lat="42.68862460919569" lon="-8.489124154947545"><ele>300.0</ele><time>2026-04-18T12:35:49Z</time></trkpt><trkpt lat="42.68856105976431" lon="-8.489129194143295"><ele>299.99999999999994</ele><time>2026-04-18T12:35:56Z</time></trkpt><trkpt lat="42.68847881676335" lon="-8.489139301336545"><ele>300.0</ele><time>2026-04-18T12:36:03Z</time></trkpt><trkpt lat="42.688415334975915" lon="-8.489161941188785"><ele>300.0</ele><time>2026-04-18T12:36:09Z</time></trkpt><trkpt lat="42.68835295272629" lon="-8.489186493891173"><ele>300.0</ele><time>2026-04-18T12:36:17Z</time></trkpt><trkpt lat="42.68841934769494" lon="-8.48913717783961"><ele>300.0</ele><time>2026-04-18T12:39:13.001Z</time></trkpt><trkpt lat="42.68849278575075" lon="-8.489107322303989"><ele>299.99999999999994</ele><time>2026-04-18T12:39:27.001Z</time></trkpt><trkpt lat="42.688560592192914" lon="-8.48907324189949"><ele>300.0</ele><time>2026-04-18T12:39:32.001Z</time></trkpt><trkpt lat="42.68862417602406" lon="-8.489094737390669"><ele>300.2857142857143</ele><time>2026-04-18T12:39:41Z</time></trkpt><trkpt lat="42.68868279952105" lon="-8.489128754187762"><ele>300.57142857142856</ele><time>2026-04-18T12:39:47Z</time></trkpt><trkpt lat="42.68870672783087" lon="-8.489210217974117"><ele>300.8571428571429</ele><time>2026-04-18T12:39:55Z</time></trkpt><trkpt lat="42.688727580250095" lon="-8.489298115665898"><ele>301.1428571428571</ele><time>2026-04-18T12:40:02Z</time></trkpt><trkpt lat="42.68878820512763" lon="-8.489349801000225"><ele>301.42857142857144</ele><time>2026-04-18T12:41:30Z</time></trkpt><trkpt lat="42.68876747687619" lon="-8.48943285672875"><ele>301.7142857142857</ele><time>2026-04-18T12:42:14Z</time></trkpt><trkpt lat="42.68872843517544" lon="-8.48934495477683"><ele>302.0</ele><time>2026-04-18T12:42:49Z</time></trkpt><trkpt lat="42.68872858819005" lon="-8.489438928079501"><ele>302.0</ele><time>2026-04-18T12:44:09Z</time></trkpt><trkpt lat="42.688643100112536" lon="-8.489458376626528"><ele>302.0</ele><time>2026-04-18T12:44:14Z</time></trkpt><trkpt lat="42.68853533654072" lon="-8.489477755146009"><ele>302.0</ele><time>2026-04-18T12:44:16Z</time></trkpt><trkpt lat="42.68842410925548" lon="-8.489534575412955"><ele>302.0</ele><time>2026-04-18T12:44:18Z</time></trkpt><trkpt lat="42.68834466923349" lon="-8.489561052005596"><ele>302.0</ele><time>2026-04-18T12:44:20Z</time></trkpt><trkpt lat="42.688286143763236" lon="-8.48961813789735"><ele>301.5</ele><time>2026-04-18T12:44:22Z</time></trkpt><trkpt lat="42.68825414560448" lon="-8.489752798947139"><ele>301.0</ele><time>2026-04-18T12:44:24Z</time></trkpt><trkpt lat="42.688253155189244" lon="-8.489855552430507"><ele>300.5</ele><time>2026-04-18T12:44:25Z</time></trkpt><trkpt lat="42.68825676905966" lon="-8.489965370750946"><ele>300.0</ele><time>2026-04-18T12:44:26Z</time></trkpt><trkpt lat="42.68825456692545" lon="-8.490084027383102"><ele>299.5</ele><time>2026-04-18T12:44:27Z</time></trkpt><trkpt lat="42.688254171377984" lon="-8.490205125025888"><ele>299.0</ele><time>2026-04-18T12:44:28Z</time></trkpt><trkpt lat="42.688253924241735" lon="-8.490330547760397"><ele>298.8</ele><time>2026-04-18T12:44:29Z</time></trkpt><trkpt lat="42.68825573915198" lon="-8.490452250517249"><ele>298.59999999999997</ele><time>2026-04-18T12:44:30Z</time></trkpt><trkpt lat="42.688246013884296" lon="-8.490570852296026"><ele>298.4</ele><time>2026-04-18T12:44:31Z</time></trkpt><trkpt lat="42.68826113311619" lon="-8.490705141307059"><ele>298.2</ele><time>2026-04-18T12:44:32Z</time></trkpt><trkpt lat="42.68826015134049" lon="-8.49083044125778"><ele>298.0</ele><time>2026-04-18T12:44:33Z</time></trkpt><trkpt lat="42.68826212669243" lon="-8.490949543333823"><ele>298.0</ele><time>2026-04-18T12:44:34Z</time></trkpt><trkpt lat="42.68826218613834" lon="-8.491081138917144"><ele>298.0</ele><time>2026-04-18T12:44:35Z</time></trkpt><trkpt lat="42.688261668329666" lon="-8.49121296682533"><ele>298.0</ele><time>2026-04-18T12:44:36Z</time></trkpt><trkpt lat="42.68826016619496" lon="-8.491339782572506"><ele>298.0</ele><time>2026-04-18T12:44:37Z</time></trkpt><trkpt lat="42.688248335890975" lon="-8.491463406992423"><ele>298.0</ele><time>2026-04-18T12:44:38Z</time></trkpt><trkpt lat="42.68825665136609" lon="-8.491589217994251"><ele>298.6</ele><time>2026-04-18T12:44:39Z</time></trkpt><trkpt lat="42.688253564824414" lon="-8.491712846520683"><ele>299.20000000000005</ele><time>2026-04-18T12:44:40Z</time></trkpt><trkpt lat="42.688252135674446" lon="-8.491841275977539"><ele>299.8</ele><time>2026-04-18T12:44:41Z</time></trkpt><trkpt lat="42.68824877332169" lon="-8.491977340601748"><ele>300.40000000000003</ele><time>2026-04-18T12:44:42Z</time></trkpt><trkpt lat="42.688245308026524" lon="-8.492117629356796"><ele>301.0</ele><time>2026-04-18T12:44:43Z</time></trkpt><trkpt lat="42.688245077852926" lon="-8.492258897018587"><ele>302.2</ele><time>2026-04-18T12:44:44Z</time></trkpt><trkpt lat="42.68824543424326" lon="-8.49240531750041"><ele>303.40000000000003</ele><time>2026-04-18T12:44:45Z</time></trkpt><trkpt lat="42.688248347257215" lon="-8.492543448037031"><ele>304.6</ele><time>2026-04-18T12:44:46Z</time></trkpt><trkpt lat="42.688252782256626" lon="-8.492678958424959"><ele>305.8</ele><time>2026-04-18T12:44:47Z</time></trkpt><trkpt lat="42.688249456254184" lon="-8.49281379445831"><ele>307.0</ele><time>2026-04-18T12:44:48Z</time></trkpt><trkpt lat="42.688245701573756" lon="-8.492949942946844"><ele>308.2</ele><time>2026-04-18T12:44:49Z</time></trkpt><trkpt lat="42.688242804231564" lon="-8.493083922141352"><ele>309.4</ele><time>2026-04-18T12:44:50Z</time></trkpt><trkpt lat="42.68824508365737" lon="-8.493217428424074"><ele>310.6</ele><time>2026-04-18T12:44:51Z</time></trkpt><trkpt lat="42.68824837071288" lon="-8.493353659127033"><ele>311.8</ele><time>2026-04-18T12:44:52Z</time></trkpt><trkpt lat="42.68824302792602" lon="-8.493492751195054"><ele>313.0</ele><time>2026-04-18T12:44:53Z</time></trkpt><trkpt lat="42.68824334747763" lon="-8.493634479671503"><ele>313.0</ele><time>2026-04-18T12:44:54Z</time></trkpt><trkpt lat="42.68824956965002" lon="-8.493772074322358"><ele>313.0</ele><time>2026-04-18T12:44:55Z</time></trkpt><trkpt lat="42.68825065440599" lon="-8.493909622961182"><ele>313.0</ele><time>2026-04-18T12:44:56Z</time></trkpt><trkpt lat="42.68825212952424" lon="-8.494047093818937"><ele>313.0</ele><time>2026-04-18T12:44:57Z</time></trkpt><trkpt lat="42.6882569990056" lon="-8.494187224274796"><ele>313.0</ele><time>2026-04-18T12:44:58Z</time></trkpt><trkpt lat="42.688258066777834" lon="-8.494327195084736"><ele>313.0</ele><time>2026-04-18T12:44:59Z</time></trkpt><trkpt lat="42.688253165904975" lon="-8.494464749098684"><ele>313.0</ele><time>2026-04-18T12:45:00Z</time></trkpt><trkpt lat="42.688254206174875" lon="-8.494605022889253"><ele>313.0</ele><time>2026-04-18T12:45:01Z</time></trkpt><trkpt lat="42.68825166363053" lon="-8.494738914182218"><ele>313.0</ele><time>2026-04-18T12:45:02Z</time></trkpt><trkpt lat="42.68824227694044" lon="-8.494866067743885"><ele>313.0</ele><time>2026-04-18T12:45:03Z</time></trkpt><trkpt lat="42.68823105127757" lon="-8.494992325365994"><ele>313.0</ele><time>2026-04-18T12:45:04Z</time></trkpt><trkpt lat="42.688232789281315" lon="-8.495096207516163"><ele>313.0</ele><time>2026-04-18T12:45:05Z</time></trkpt><trkpt lat="42.68823295467055" lon="-8.495192731803826"><ele>313.0</ele><time>2026-04-18T12:45:06Z</time></trkpt><trkpt lat="42.68822851310426" lon="-8.49528714079931"><ele>313.0</ele><time>2026-04-18T12:45:07Z</time></trkpt><trkpt lat="42.68823556258805" lon="-8.495427040712517"><ele>313.0</ele><time>2026-04-18T12:45:09Z</time></trkpt><trkpt lat="42.688232223159666" lon="-8.495520812914998"><ele>313.0</ele><time>2026-04-18T12:45:11Z</time></trkpt><trkpt lat="42.688233672995274" lon="-8.495638499331024"><ele>313.0</ele><time>2026-04-18T12:45:27Z</time></trkpt><trkpt lat="42.68823416952544" lon="-8.495830183651877"><ele>313.0</ele><time>2026-04-18T12:45:29Z</time></trkpt><trkpt lat="42.6882327486457" lon="-8.495939211692988"><ele>313.0</ele><time>2026-04-18T12:45:30Z</time></trkpt><trkpt lat="42.688224996159704" lon="-8.496062412277725"><ele>313.0</ele><time>2026-04-18T12:45:31Z</time></trkpt><trkpt lat="42.688214935694525" lon="-8.49619682269904"><ele>313.0</ele><time>2026-04-18T12:45:32Z</time></trkpt><trkpt lat="42.688206287375124" lon="-8.49633040874027"><ele>313.0</ele><time>2026-04-18T12:45:33Z</time></trkpt><trkpt lat="42.68820755330644" lon="-8.496448223413351"><ele>313.0</ele><time>2026-04-18T12:45:34Z</time></trkpt><trkpt lat="42.688200397291006" lon="-8.496550458911189"><ele>313.0</ele><time>2026-04-18T12:45:35Z</time></trkpt><trkpt lat="42.68819076858482" lon="-8.49666267980831"><ele>313.0</ele><time>2026-04-18T12:45:36Z</time></trkpt><trkpt lat="42.68816597968524" lon="-8.4967840974701"><ele>313.0</ele><time>2026-04-18T12:45:37Z</time></trkpt><trkpt lat="42.68816912442231" lon="-8.496903513682568"><ele>313.0</ele><time>2026-04-18T12:45:38Z</time></trkpt><trkpt lat="42.68814094181488" lon="-8.497033748734596"><ele>312.4</ele><time>2026-04-18T12:45:39Z</time></trkpt><trkpt lat="42.688144492348655" lon="-8.497168672423776"><ele>311.8</ele><time>2026-04-18T12:45:40Z</time></trkpt><trkpt lat="42.688118670270214" lon="-8.497295203165942"><ele>311.2</ele><time>2026-04-18T12:45:41Z</time></trkpt><trkpt lat="42.68810326293368" lon="-8.497433577988971"><ele>310.6</ele><time>2026-04-18T12:45:42Z</time></trkpt><trkpt lat="42.68810161607322" lon="-8.49757386659356"><ele>310.0</ele><time>2026-04-18T12:45:43Z</time></trkpt><trkpt lat="42.68807321402188" lon="-8.497709718410992"><ele>310.0</ele><time>2026-04-18T12:45:44Z</time></trkpt><trkpt lat="42.68806467000136" lon="-8.497854865206454"><ele>310.0</ele><time>2026-04-18T12:45:45Z</time></trkpt><trkpt lat="42.68804904759992" lon="-8.498004819588846"><ele>310.0</ele><time>2026-04-18T12:45:46Z</time></trkpt><trkpt lat="42.6880188659284" lon="-8.498155532485526"><ele>310.0</ele><time>2026-04-18T12:45:47Z</time></trkpt><trkpt lat="42.68797065866991" lon="-8.49830348668064"><ele>309.75</ele><time>2026-04-18T12:45:48Z</time></trkpt><trkpt lat="42.687913434340416" lon="-8.49845097986989"><ele>309.5</ele><time>2026-04-18T12:45:49Z</time></trkpt><trkpt lat="42.68784781308814" lon="-8.49859444891327"><ele>309.25</ele><time>2026-04-18T12:45:50Z</time></trkpt><trkpt lat="42.68777802184647" lon="-8.498733777561107"><ele>309.0</ele><time>2026-04-18T12:45:51Z</time></trkpt><trkpt lat="42.68770231742579" lon="-8.498886412593635"><ele>309.0</ele><time>2026-04-18T12:45:52Z</time></trkpt><trkpt lat="42.68763813048215" lon="-8.499028605544474"><ele>309.0</ele><time>2026-04-18T12:45:53Z</time></trkpt><trkpt lat="42.68757641081236" lon="-8.499169602599196"><ele>309.0</ele><time>2026-04-18T12:45:54Z</time></trkpt><trkpt lat="42.68751578631229" lon="-8.499308992493791"><ele>309.0</ele><time>2026-04-18T12:45:55Z</time></trkpt><trkpt lat="42.68745756327126" lon="-8.499438262499927"><ele>309.0</ele><time>2026-04-18T12:45:56Z</time></trkpt><trkpt lat="42.687388917556035" lon="-8.499560531281945"><ele>309.0</ele><time>2026-04-18T12:45:57Z</time></trkpt><trkpt lat="42.68734364921569" lon="-8.499692555432645"><ele>309.0</ele><time>2026-04-18T12:45:58Z</time></trkpt><trkpt lat="42.68728694360193" lon="-8.49981969219908"><ele>309.0</ele><time>2026-04-18T12:45:59Z</time></trkpt><trkpt lat="42.6872251761366" lon="-8.49994528243852"><ele>309.0</ele><time>2026-04-18T12:46:00Z</time></trkpt><trkpt lat="42.687162800304606" lon="-8.500076013927416"><ele>308.5</ele><time>2026-04-18T12:46:01Z</time></trkpt><trkpt lat="42.68710028592005" lon="-8.500208167167138"><ele>308.0</ele><time>2026-04-18T12:46:02Z</time></trkpt><trkpt lat="42.6870352584833" lon="-8.500341975145341"><ele>307.5</ele><time>2026-04-18T12:46:03Z</time></trkpt><trkpt lat="42.686968335465195" lon="-8.500471588054253"><ele>307.0</ele><time>2026-04-18T12:46:04Z</time></trkpt><trkpt lat="42.68690723133515" lon="-8.500608323301028"><ele>307.0</ele><time>2026-04-18T12:46:05Z</time></trkpt><trkpt lat="42.68684478984232" lon="-8.500741723934306"><ele>307.0</ele><time>2026-04-18T12:46:06Z</time></trkpt><trkpt lat="42.68678255758314" lon="-8.50087511003501"><ele>307.0</ele><time>2026-04-18T12:46:07Z</time></trkpt><trkpt lat="42.68672219259708" lon="-8.501015958561167"><ele>307.0</ele><time>2026-04-18T12:46:08Z</time></trkpt><trkpt lat="42.686661025598355" lon="-8.50114770424825"><ele>305.8</ele><time>2026-04-18T12:46:09Z</time></trkpt><trkpt lat="42.686603110791125" lon="-8.501266424838452"><ele>304.6</ele><time>2026-04-18T12:46:10Z</time></trkpt><trkpt lat="42.68654561841261" lon="-8.50139497943566"><ele>303.40000000000003</ele><time>2026-04-18T12:46:11Z</time></trkpt><trkpt lat="42.6864796741879" lon="-8.501524954705264"><ele>302.2</ele><time>2026-04-18T12:46:12Z</time></trkpt><trkpt lat="42.686415287394915" lon="-8.501655416986598"><ele>301.0</ele><time>2026-04-18T12:46:13Z</time></trkpt><trkpt lat="42.68634978348992" lon="-8.501788942046877"><ele>301.0</ele><time>2026-04-18T12:46:14Z</time></trkpt><trkpt lat="42.68628756011193" lon="-8.501924785675218"><ele>301.0</ele><time>2026-04-18T12:46:15Z</time></trkpt><trkpt lat="42.686223404606665" lon="-8.502058329591355"><ele>301.0</ele><time>2026-04-18T12:46:16Z</time></trkpt><trkpt lat="42.68615922002855" lon="-8.502190249372228"><ele>301.0</ele><time>2026-04-18T12:46:17Z</time></trkpt><trkpt lat="42.68609660278674" lon="-8.50232482832964"><ele>302.0</ele><time>2026-04-18T12:46:18Z</time></trkpt><trkpt lat="42.68603620553451" lon="-8.502459690976714"><ele>303.0</ele><time>2026-04-18T12:46:19Z</time></trkpt><trkpt lat="42.685975956004754" lon="-8.502594602818794"><ele>304.0</ele><time>2026-04-18T12:46:20Z</time></trkpt><trkpt lat="42.68591593643743" lon="-8.502728585665436"><ele>305.0</ele><time>2026-04-18T12:46:21Z</time></trkpt><trkpt lat="42.685854538751734" lon="-8.502860408646145"><ele>304.5</ele><time>2026-04-18T12:46:22Z</time></trkpt><trkpt lat="42.68579027976951" lon="-8.502991198766063"><ele>304.0</ele><time>2026-04-18T12:46:23Z</time></trkpt><trkpt lat="42.68572200127679" lon="-8.503120584419444"><ele>303.5</ele><time>2026-04-18T12:46:24Z</time></trkpt><trkpt lat="42.68565230714526" lon="-8.503252112233234"><ele>303.0</ele><time>2026-04-18T12:46:25Z</time></trkpt><trkpt lat="42.68558589766446" lon="-8.503390641477308"><ele>303.0</ele><time>2026-04-18T12:46:26Z</time></trkpt><trkpt lat="42.68552347226168" lon="-8.50353041076632"><ele>303.0</ele><time>2026-04-18T12:46:27Z</time></trkpt><trkpt lat="42.68545788152949" lon="-8.503671542583694"><ele>303.0</ele><time>2026-04-18T12:46:28Z</time></trkpt><trkpt lat="42.68539116121839" lon="-8.503812312950467"><ele>303.0</ele><time>2026-04-18T12:46:29Z</time></trkpt><trkpt lat="42.68532558748445" lon="-8.503955853027179"><ele>303.25</ele><time>2026-04-18T12:46:30Z</time></trkpt><trkpt lat="42.68526329764198" lon="-8.504102281059426"><ele>303.5</ele><time>2026-04-18T12:46:31Z</time></trkpt><trkpt lat="42.685204728738896" lon="-8.504252805929102"><ele>303.75</ele><time>2026-04-18T12:46:32Z</time></trkpt><trkpt lat="42.68515312118212" lon="-8.504408462475915"><ele>304.0</ele><time>2026-04-18T12:46:33Z</time></trkpt><trkpt lat="42.68511493440021" lon="-8.50457317116328"><ele>305.5</ele><time>2026-04-18T12:46:34Z</time></trkpt><trkpt lat="42.6850943311067" lon="-8.504746159988358"><ele>307.0</ele><time>2026-04-18T12:46:35Z</time></trkpt><trkpt lat="42.68508785191081" lon="-8.504921586152552"><ele>308.5</ele><time>2026-04-18T12:46:36Z</time></trkpt><trkpt lat="42.68509307793888" lon="-8.505098354824717"><ele>310.0</ele><time>2026-04-18T12:46:37Z</time></trkpt><trkpt lat="42.68510929625181" lon="-8.505274188638897"><ele>310.25</ele><time>2026-04-18T12:46:38Z</time></trkpt><trkpt lat="42.68513265876606" lon="-8.505451860439143"><ele>310.5</ele><time>2026-04-18T12:46:39Z</time></trkpt><trkpt lat="42.685161219700326" lon="-8.505616276534676"><ele>310.75</ele><time>2026-04-18T12:46:40Z</time></trkpt><trkpt lat="42.68519839441408" lon="-8.505773919724735"><ele>311.0</ele><time>2026-04-18T12:46:41Z</time></trkpt><trkpt lat="42.6852427523456" lon="-8.505921288751159"><ele>311.0</ele><time>2026-04-18T12:46:42Z</time></trkpt><trkpt lat="42.68529758012845" lon="-8.5060572070606"><ele>311.0</ele><time>2026-04-18T12:46:43Z</time></trkpt><trkpt lat="42.68536485259651" lon="-8.506184174458525"><ele>311.0</ele><time>2026-04-18T12:46:44Z</time></trkpt><trkpt lat="42.685445647213264" lon="-8.506291134555678"><ele>311.0</ele><time>2026-04-18T12:46:45Z</time></trkpt><trkpt lat="42.685540425154265" lon="-8.50638104934231"><ele>311.0</ele><time>2026-04-18T12:46:46Z</time></trkpt><trkpt lat="42.68565016214424" lon="-8.506460437371487"><ele>311.0</ele><time>2026-04-18T12:46:47Z</time></trkpt><trkpt lat="42.6857613574075" lon="-8.506533844806214"><ele>311.0</ele><time>2026-04-18T12:46:48Z</time></trkpt><trkpt lat="42.68587937194703" lon="-8.506601267520637"><ele>311.0</ele><time>2026-04-18T12:46:49Z</time></trkpt><trkpt lat="42.68599584829536" lon="-8.506674127277904"><ele>309.5</ele><time>2026-04-18T12:46:50Z</time></trkpt><trkpt lat="42.68611246263749" lon="-8.506751886755259"><ele>308.0</ele><time>2026-04-18T12:46:51Z</time></trkpt><trkpt lat="42.68623119421932" lon="-8.506834498090024"><ele>306.5</ele><time>2026-04-18T12:46:52Z</time></trkpt><trkpt lat="42.68634958245097" lon="-8.506909741831361"><ele>305.0</ele><time>2026-04-18T12:46:53Z</time></trkpt><trkpt lat="42.68646672860819" lon="-8.506980404839473"><ele>305.0</ele><time>2026-04-18T12:46:54Z</time></trkpt><trkpt lat="42.68657762866646" lon="-8.507022318910815"><ele>305.0</ele><time>2026-04-18T12:46:55Z</time></trkpt><trkpt lat="42.686688128104265" lon="-8.50703228886915"><ele>305.0</ele><time>2026-04-18T12:46:56Z</time></trkpt><trkpt lat="42.68678991078967" lon="-8.507024390134783"><ele>305.0</ele><time>2026-04-18T12:46:57Z</time></trkpt><trkpt lat="42.686883410606754" lon="-8.507001474188375"><ele>305.0</ele><time>2026-04-18T12:46:58Z</time></trkpt><trkpt lat="42.686980132648394" lon="-8.506961656368924"><ele>304.5</ele><time>2026-04-18T12:46:59Z</time></trkpt><trkpt lat="42.68707567813988" lon="-8.506896677919856"><ele>304.0</ele><time>2026-04-18T12:47:00Z</time></trkpt><trkpt lat="42.687181513111746" lon="-8.506831556733664"><ele>303.5</ele><time>2026-04-18T12:47:01Z</time></trkpt><trkpt lat="42.68728808853051" lon="-8.50676483283457"><ele>303.0</ele><time>2026-04-18T12:47:02Z</time></trkpt><trkpt lat="42.68740350693198" lon="-8.506706460556558"><ele>303.0</ele><time>2026-04-18T12:47:03Z</time></trkpt><trkpt lat="42.68752249946933" lon="-8.50664374158883"><ele>303.0</ele><time>2026-04-18T12:47:04Z</time></trkpt><trkpt lat="42.687645244544065" lon="-8.506582312399741"><ele>303.0</ele><time>2026-04-18T12:47:05Z</time></trkpt><trkpt lat="42.68777054668193" lon="-8.506519549275374"><ele>303.0</ele><time>2026-04-18T12:47:06Z</time></trkpt><trkpt lat="42.687896435042035" lon="-8.506451790005805"><ele>302.5</ele><time>2026-04-18T12:47:07Z</time></trkpt><trkpt lat="42.68801933305236" lon="-8.506380495915563"><ele>302.0</ele><time>2026-04-18T12:47:08Z</time></trkpt><trkpt lat="42.68814097506028" lon="-8.506304784053045"><ele>301.5</ele><time>2026-04-18T12:47:09Z</time></trkpt><trkpt lat="42.688257596211514" lon="-8.506222410109523"><ele>301.0</ele><time>2026-04-18T12:47:10Z</time></trkpt><trkpt lat="42.68837075732375" lon="-8.506136525972302"><ele>301.0</ele><time>2026-04-18T12:47:11Z</time></trkpt><trkpt lat="42.68848341806585" lon="-8.506053379738374"><ele>301.0</ele><time>2026-04-18T12:47:12Z</time></trkpt><trkpt lat="42.68859798235911" lon="-8.505970903795602"><ele>301.0</ele><time>2026-04-18T12:47:13Z</time></trkpt><trkpt lat="42.68870962952936" lon="-8.505881807301702"><ele>301.0</ele><time>2026-04-18T12:47:14Z</time></trkpt><trkpt lat="42.68882255432556" lon="-8.505789893529117"><ele>299.75</ele><time>2026-04-18T12:47:15Z</time></trkpt><trkpt lat="42.68893507968108" lon="-8.50569408422136"><ele>298.5</ele><time>2026-04-18T12:47:16Z</time></trkpt><trkpt lat="42.68905134144886" lon="-8.505597753249205"><ele>297.25</ele><time>2026-04-18T12:47:17Z</time></trkpt><trkpt lat="42.68916924600494" lon="-8.505502448004425"><ele>296.0</ele><time>2026-04-18T12:47:18Z</time></trkpt><trkpt lat="42.6892876438967" lon="-8.505409278164153"><ele>295.5</ele><time>2026-04-18T12:47:19Z</time></trkpt><trkpt lat="42.689403201814045" lon="-8.505311539073094"><ele>295.0</ele><time>2026-04-18T12:47:20Z</time></trkpt><trkpt lat="42.6895177420338" lon="-8.505216402274126"><ele>294.5</ele><time>2026-04-18T12:47:21.001Z</time></trkpt><trkpt lat="42.68962690777449" lon="-8.505125791106563"><ele>294.0</ele><time>2026-04-18T12:47:22.001Z</time></trkpt><trkpt lat="42.68972966077615" lon="-8.505038681254593"><ele>292.4</ele><time>2026-04-18T12:47:23.001Z</time></trkpt><trkpt lat="42.68982870792686" lon="-8.504954238405231"><ele>290.79999999999995</ele><time>2026-04-18T12:47:24.001Z</time></trkpt><trkpt lat="42.68992209077607" lon="-8.504870441935399"><ele>289.20000000000005</ele><time>2026-04-18T12:47:25.001Z</time></trkpt><trkpt lat="42.69001289648151" lon="-8.504788942854821"><ele>287.6</ele><time>2026-04-18T12:47:26.001Z</time></trkpt><trkpt lat="42.69009933091618" lon="-8.504711649221727"><ele>286.0</ele><time>2026-04-18T12:47:27.001Z</time></trkpt><trkpt lat="42.69017796405613" lon="-8.50464646382499"><ele>286.0</ele><time>2026-04-18T12:47:28.001Z</time></trkpt><trkpt lat="42.69025397299699" lon="-8.504607451177275"><ele>286.0</ele><time>2026-04-18T12:47:29.001Z</time></trkpt><trkpt lat="42.69031769158552" lon="-8.504580105643752"><ele>286.0</ele><time>2026-04-18T12:47:30.001Z</time></trkpt><trkpt lat="42.690416015620976" lon="-8.504684074268567"><ele>286.0</ele><time>2026-04-18T12:47:31.001Z</time></trkpt><trkpt lat="42.69048383823919" lon="-8.504789545275376"><ele>286.0</ele><time>2026-04-18T12:47:32.001Z</time></trkpt><trkpt lat="42.69054414842584" lon="-8.50491982188537"><ele>285.75</ele><time>2026-04-18T12:47:33.001Z</time></trkpt><trkpt lat="42.69061317439985" lon="-8.505053579323858"><ele>285.5</ele><time>2026-04-18T12:47:34.001Z</time></trkpt><trkpt lat="42.6906967230216" lon="-8.50519572504782"><ele>285.25</ele><time>2026-04-18T12:47:35.001Z</time></trkpt><trkpt lat="42.69078629367685" lon="-8.50533531066986"><ele>285.0</ele><time>2026-04-18T12:47:36.001Z</time></trkpt><trkpt lat="42.69086692063099" lon="-8.505471846741763"><ele>285.0</ele><time>2026-04-18T12:47:37.001Z</time></trkpt><trkpt lat="42.69093328620516" lon="-8.505599861384566"><ele>285.0</ele><time>2026-04-18T12:47:38.001Z</time></trkpt><trkpt lat="42.69099730439279" lon="-8.505709752687288"><ele>285.0</ele><time>2026-04-18T12:47:39.001Z</time></trkpt><trkpt lat="42.69107842157006" lon="-8.505796426635055"><ele>285.0</ele><time>2026-04-18T12:47:40.001Z</time></trkpt><trkpt lat="42.691178429849145" lon="-8.505856642279836"><ele>285.0</ele><time>2026-04-18T12:47:41.001Z</time></trkpt><trkpt lat="42.69129846171341" lon="-8.505901244782361"><ele>284.0</ele><time>2026-04-18T12:47:42.001Z</time></trkpt><trkpt lat="42.691419769696935" lon="-8.505945459058871"><ele>283.0</ele><time>2026-04-18T12:47:43.001Z</time></trkpt><trkpt lat="42.69154409702648" lon="-8.505969408423727"><ele>282.0</ele><time>2026-04-18T12:47:44.001Z</time></trkpt><trkpt lat="42.69165071815767" lon="-8.505983416003973"><ele>281.0</ele><time>2026-04-18T12:47:45.001Z</time></trkpt><trkpt lat="42.69177022311479" lon="-8.50600646099419"><ele>281.0</ele><time>2026-04-18T12:47:46.001Z</time></trkpt><trkpt lat="42.69188625734718" lon="-8.506000504004222"><ele>281.0</ele><time>2026-04-18T12:47:47.001Z</time></trkpt><trkpt lat="42.691991258588224" lon="-8.5059612438394"><ele>281.0</ele><time>2026-04-18T12:47:48.001Z</time></trkpt><trkpt lat="42.692092193460056" lon="-8.50591976210225"><ele>281.0</ele><time>2026-04-18T12:47:49.001Z</time></trkpt><trkpt lat="42.69217549297693" lon="-8.505830339847625"><ele>281.0</ele><time>2026-04-18T12:47:50.001Z</time></trkpt><trkpt lat="42.69229508541704" lon="-8.505886509244096"><ele>278.25</ele><time>2026-04-18T12:47:51.001Z</time></trkpt><trkpt lat="42.69241512438872" lon="-8.505928596874279"><ele>275.5</ele><time>2026-04-18T12:47:52.001Z</time></trkpt><trkpt lat="42.69253117552145" lon="-8.505943349204978"><ele>272.75</ele><time>2026-04-18T12:47:53.001Z</time></trkpt><trkpt lat="42.69263810120556" lon="-8.505918905781884"><ele>270.0</ele><time>2026-04-18T12:47:54.001Z</time></trkpt><trkpt lat="42.69275650526813" lon="-8.505880914175897"><ele>268.0</ele><time>2026-04-18T12:47:55Z</time></trkpt><trkpt lat="42.692860194933886" lon="-8.50585878682573"><ele>266.0</ele><time>2026-04-18T12:47:56Z</time></trkpt><trkpt lat="42.69297434887514" lon="-8.505815686399309"><ele>264.0</ele><time>2026-04-18T12:47:57Z</time></trkpt><trkpt lat="42.69308385346296" lon="-8.505764593174867"><ele>262.0</ele><time>2026-04-18T12:47:58Z</time></trkpt><trkpt lat="42.69318837516294" lon="-8.50572034496352"><ele>260.0</ele><time>2026-04-18T12:47:59Z</time></trkpt><trkpt lat="42.69327988122652" lon="-8.505662448708001"><ele>260.0</ele><time>2026-04-18T12:48:00Z</time></trkpt><trkpt lat="42.693369952610844" lon="-8.50561176763761"><ele>260.0</ele><time>2026-04-18T12:48:01Z</time></trkpt><trkpt lat="42.69346109262758" lon="-8.505550333585724"><ele>260.0</ele><time>2026-04-18T12:48:02Z</time></trkpt><trkpt lat="42.69353613992971" lon="-8.505483216201974"><ele>260.0</ele><time>2026-04-18T12:48:03Z</time></trkpt><trkpt lat="42.69361053483342" lon="-8.505431961443545"><ele>260.0</ele><time>2026-04-18T12:48:04Z</time></trkpt><trkpt lat="42.69369067164186" lon="-8.505395956916436"><ele>259.6</ele><time>2026-04-18T12:48:05Z</time></trkpt><trkpt lat="42.6937541518741" lon="-8.505333392882116"><ele>259.2</ele><time>2026-04-18T12:48:06Z</time></trkpt><trkpt lat="42.693824181689806" lon="-8.505299485261615"><ele>258.8</ele><time>2026-04-18T12:48:07Z</time></trkpt><trkpt lat="42.69387702155856" lon="-8.505231431912296"><ele>258.4</ele><time>2026-04-18T12:48:08Z</time></trkpt><trkpt lat="42.693968669108834" lon="-8.505155380225466"><ele>258.0</ele><time>2026-04-18T12:48:10Z</time></trkpt><trkpt lat="42.694101728256626" lon="-8.505352683404938"><ele>258.0</ele><time>2026-04-18T12:48:12Z</time></trkpt><trkpt lat="42.69410942096908" lon="-8.505449156666616"><ele>258.0</ele><time>2026-04-18T12:48:14Z</time></trkpt><trkpt lat="42.69403981375776" lon="-8.505466552625604"><ele>258.0</ele><time>2026-04-18T13:09:07.999Z</time></trkpt><trkpt lat="42.694136480809576" lon="-8.505523400061882"><ele>258.0</ele><time>2026-04-18T13:09:22.999Z</time></trkpt><trkpt lat="42.69415757708738" lon="-8.505438323089475"><ele>258.0</ele><time>2026-04-18T13:09:59.999Z</time></trkpt><trkpt lat="42.69413836372667" lon="-8.505351265730829"><ele>258.0</ele><time>2026-04-18T13:10:01.999Z</time></trkpt><trkpt lat="42.694072157603586" lon="-8.505287652092186"><ele>258.0</ele><time>2026-04-18T13:10:04.999Z</time></trkpt><trkpt lat="42.69398226662567" lon="-8.505292804237149"><ele>258.0</ele><time>2026-04-18T13:10:06.999Z</time></trkpt><trkpt lat="42.693891689158676" lon="-8.505327476034086"><ele>258.0</ele><time>2026-04-18T13:10:08.999Z</time></trkpt><trkpt lat="42.69381840750026" lon="-8.505381290863644"><ele>258.0</ele><time>2026-04-18T13:10:10.999Z</time></trkpt><trkpt lat="42.69370819196107" lon="-8.505429783947733"><ele>258.0</ele><time>2026-04-18T13:10:12.999Z</time></trkpt><trkpt lat="42.69360214878268" lon="-8.505476942241394"><ele>258.3333333333333</ele><time>2026-04-18T13:10:14.999Z</time></trkpt><trkpt lat="42.69349623141062" lon="-8.505548125411025"><ele>258.6666666666667</ele><time>2026-04-18T13:10:16.999Z</time></trkpt><trkpt lat="42.693428488132405" lon="-8.505599392106197"><ele>259.0</ele><time>2026-04-18T13:10:17.999Z</time></trkpt><trkpt lat="42.693356789280514" lon="-8.505645206324418"><ele>259.33333333333337</ele><time>2026-04-18T13:10:18.999Z</time></trkpt><trkpt lat="42.693295619792345" lon="-8.505693351990942"><ele>259.6666666666667</ele><time>2026-04-18T13:10:19.999Z</time></trkpt><trkpt lat="42.6932265461848" lon="-8.505735408339708"><ele>260.0</ele><time>2026-04-18T13:10:20.999Z</time></trkpt><trkpt lat="42.69316165794339" lon="-8.505761095911183"><ele>260.0</ele><time>2026-04-18T13:10:21.999Z</time></trkpt><trkpt lat="42.693055080507406" lon="-8.505813134518288"><ele>260.0</ele><time>2026-04-18T13:10:23.999Z</time></trkpt><trkpt lat="42.69293847047489" lon="-8.505845818910567"><ele>260.0</ele><time>2026-04-18T13:10:25.999Z</time></trkpt><trkpt lat="42.692829884060394" lon="-8.505892555475231"><ele>260.0</ele><time>2026-04-18T13:10:27.999Z</time></trkpt><trkpt lat="42.692724025046616" lon="-8.50591487701821"><ele>261.6666666666667</ele><time>2026-04-18T13:10:29.999Z</time></trkpt><trkpt lat="42.692659560794404" lon="-8.505940114116509"><ele>263.33333333333337</ele><time>2026-04-18T13:10:30.999Z</time></trkpt><trkpt lat="42.69258675953373" lon="-8.505957341950094"><ele>265.0</ele><time>2026-04-18T13:10:31.999Z</time></trkpt><trkpt lat="42.69248614487595" lon="-8.505984810682024"><ele>266.6666666666667</ele><time>2026-04-18T13:10:33.999Z</time></trkpt><trkpt lat="42.69242343473425" lon="-8.506012694994796"><ele>268.3333333333333</ele><time>2026-04-18T13:10:35.999Z</time></trkpt><trkpt lat="42.69233076819594" lon="-8.506040628991455"><ele>270.0</ele><time>2026-04-18T13:10:37.999Z</time></trkpt><trkpt lat="42.69226707248109" lon="-8.506054915000563"><ele>270.0</ele><time>2026-04-18T13:10:38.999Z</time></trkpt><trkpt lat="42.6921689901986" lon="-8.506068139324844"><ele>270.0</ele><time>2026-04-18T13:10:39.999Z</time></trkpt><trkpt lat="42.69206991828167" lon="-8.506072156172028"><ele>270.0</ele><time>2026-04-18T13:10:40.999Z</time></trkpt><trkpt lat="42.692015519673774" lon="-8.50612031562842"><ele>270.0</ele><time>2026-04-18T13:10:41.999Z</time></trkpt><trkpt lat="42.691961803622256" lon="-8.506166310276026"><ele>270.0</ele><time>2026-04-18T13:10:42.999Z</time></trkpt><trkpt lat="42.69183521705429" lon="-8.506215312783663"><ele>272.75</ele><time>2026-04-18T13:10:44.999Z</time></trkpt><trkpt lat="42.691758146917756" lon="-8.506223934429032"><ele>275.5</ele><time>2026-04-18T13:10:45.999Z</time></trkpt><trkpt lat="42.69153428585142" lon="-8.506030333325201"><ele>278.25</ele><time>2026-04-18T13:10:46.999Z</time></trkpt><trkpt lat="42.691428952449066" lon="-8.506005951293213"><ele>281.0</ele><time>2026-04-18T13:10:47.999Z</time></trkpt><trkpt lat="42.691304330393514" lon="-8.50597627354369"><ele>281.0</ele><time>2026-04-18T13:10:48.999Z</time></trkpt><trkpt lat="42.691182775941286" lon="-8.505932874198955"><ele>281.0</ele><time>2026-04-18T13:10:49.999Z</time></trkpt><trkpt lat="42.69106680054281" lon="-8.505887266909195"><ele>281.0</ele><time>2026-04-18T13:10:50.999Z</time></trkpt><trkpt lat="42.690983035150396" lon="-8.505825615881639"><ele>281.0</ele><time>2026-04-18T13:10:51.999Z</time></trkpt><trkpt lat="42.69092777231844" lon="-8.505723275364694"><ele>281.0</ele><time>2026-04-18T13:10:52.999Z</time></trkpt><trkpt lat="42.69086503870302" lon="-8.505598783061657"><ele>281.6</ele><time>2026-04-18T13:10:53.999Z</time></trkpt><trkpt lat="42.69080677773456" lon="-8.505469130741778"><ele>282.20000000000005</ele><time>2026-04-18T13:10:54.999Z</time></trkpt><trkpt lat="42.69074033600186" lon="-8.505353019200003"><ele>282.79999999999995</ele><time>2026-04-18T13:10:55.999Z</time></trkpt><trkpt lat="42.69067552364532" lon="-8.50523174943959"><ele>283.4</ele><time>2026-04-18T13:10:56.999Z</time></trkpt><trkpt lat="42.69060470056814" lon="-8.505112994287867"><ele>284.0</ele><time>2026-04-18T13:10:57.999Z</time></trkpt><trkpt lat="42.690537287367796" lon="-8.504996617930376"><ele>284.0</ele><time>2026-04-18T13:10:58.999Z</time></trkpt><trkpt lat="42.690479983137486" lon="-8.504890011207367"><ele>284.0</ele><time>2026-04-18T13:10:59.999Z</time></trkpt><trkpt lat="42.690436496615774" lon="-8.504808110004461"><ele>284.0</ele><time>2026-04-18T13:11:00.999Z</time></trkpt><trkpt lat="42.69039830350223" lon="-8.50473597942653"><ele>284.0</ele><time>2026-04-18T13:11:01.999Z</time></trkpt><trkpt lat="42.69034470967048" lon="-8.504634433474271"><ele>284.0</ele><time>2026-04-18T13:11:03.999Z</time></trkpt><trkpt lat="42.69026518937978" lon="-8.504682101471339"><ele>284.0</ele><time>2026-04-18T13:11:06.999Z</time></trkpt><trkpt lat="42.690145672622826" lon="-8.50478433679974"><ele>284.4</ele><time>2026-04-18T13:11:08.999Z</time></trkpt><trkpt lat="42.69005489452135" lon="-8.50486117138912"><ele>284.79999999999995</ele><time>2026-04-18T13:11:09.999Z</time></trkpt><trkpt lat="42.68996202735207" lon="-8.50493810394282"><ele>285.20000000000005</ele><time>2026-04-18T13:11:10.999Z</time></trkpt><trkpt lat="42.68986777368957" lon="-8.505016185102814"><ele>285.6</ele><time>2026-04-18T13:11:11.999Z</time></trkpt><trkpt lat="42.68977039756737" lon="-8.505071313804645"><ele>286.0</ele><time>2026-04-18T13:11:12.999Z</time></trkpt><trkpt lat="42.68968437865825" lon="-8.505159019934222"><ele>286.0</ele><time>2026-04-18T13:11:13.999Z</time></trkpt><trkpt lat="42.68957919593863" lon="-8.505248313109949"><ele>286.0</ele><time>2026-04-18T13:11:14.999Z</time></trkpt><trkpt lat="42.68946481624532" lon="-8.50534300102802"><ele>286.0</ele><time>2026-04-18T13:11:15.999Z</time></trkpt><trkpt lat="42.689342109955014" lon="-8.505443636025133"><ele>286.0</ele><time>2026-04-18T13:11:16.999Z</time></trkpt><trkpt lat="42.68921189483708" lon="-8.505549661889127"><ele>288.5</ele><time>2026-04-18T13:11:17.999Z</time></trkpt><trkpt lat="42.68908753208423" lon="-8.505645304095395"><ele>291.0</ele><time>2026-04-18T13:11:18.999Z</time></trkpt><trkpt lat="42.68896731440294" lon="-8.505744960746313"><ele>293.5</ele><time>2026-04-18T13:11:19.999Z</time></trkpt><trkpt lat="42.68884443920027" lon="-8.505841345941032"><ele>296.0</ele><time>2026-04-18T13:11:20.999Z</time></trkpt><trkpt lat="42.68871861857829" lon="-8.505939031193055"><ele>297.25</ele><time>2026-04-18T13:11:21.999Z</time></trkpt><trkpt lat="42.68859259677" lon="-8.506039602148693"><ele>298.5</ele><time>2026-04-18T13:11:22.999Z</time></trkpt><trkpt lat="42.68847485744739" lon="-8.506158108516727"><ele>299.75</ele><time>2026-04-18T13:11:23.999Z</time></trkpt><trkpt lat="42.68834917295925" lon="-8.506263389075494"><ele>301.0</ele><time>2026-04-18T13:11:24.999Z</time></trkpt><trkpt lat="42.68821752028384" lon="-8.506367255607497"><ele>301.0</ele><time>2026-04-18T13:11:25.999Z</time></trkpt><trkpt lat="42.688081904374805" lon="-8.506457631513582"><ele>301.0</ele><time>2026-04-18T13:11:26.999Z</time></trkpt><trkpt lat="42.68793660989014" lon="-8.50653824787009"><ele>301.0</ele><time>2026-04-18T13:11:27.999Z</time></trkpt><trkpt lat="42.68779136393972" lon="-8.506608016461112"><ele>301.66666666666663</ele><time>2026-04-18T13:11:28.999Z</time></trkpt><trkpt lat="42.68764043349379" lon="-8.506680668030713"><ele>302.3333333333333</ele><time>2026-04-18T13:11:29.999Z</time></trkpt><trkpt lat="42.68749929484139" lon="-8.506751284644288"><ele>303.0</ele><time>2026-04-18T13:11:30.999Z</time></trkpt><trkpt lat="42.68736039726839" lon="-8.506828391523456"><ele>303.0</ele><time>2026-04-18T13:11:31.999Z</time></trkpt><trkpt lat="42.687230123533574" lon="-8.506901705305317"><ele>303.0</ele><time>2026-04-18T13:11:32.999Z</time></trkpt><trkpt lat="42.68709889800331" lon="-8.506972281591409"><ele>303.0</ele><time>2026-04-18T13:11:33.999Z</time></trkpt><trkpt lat="42.687010708526195" lon="-8.507019408567414"><ele>303.0</ele><time>2026-04-18T13:11:34.999Z</time></trkpt><trkpt lat="42.686932881935334" lon="-8.507059498068005"><ele>303.4</ele><time>2026-04-18T13:11:35.999Z</time></trkpt><trkpt lat="42.686868890123705" lon="-8.507080078271814"><ele>303.8</ele><time>2026-04-18T13:11:36.999Z</time></trkpt><trkpt lat="42.6867880869649" lon="-8.507155416758565"><ele>304.2</ele><time>2026-04-18T13:11:38.999Z</time></trkpt><trkpt lat="42.68669792978596" lon="-8.50717207447412"><ele>304.6</ele><time>2026-04-18T13:11:40.999Z</time></trkpt><trkpt lat="42.68658672698684" lon="-8.50713397375601"><ele>305.0</ele><time>2026-04-18T13:11:42.999Z</time></trkpt><trkpt lat="42.68641504044856" lon="-8.507073144889324"><ele>305.0</ele><time>2026-04-18T13:11:44.999Z</time></trkpt><trkpt lat="42.68633188148729" lon="-8.507042891815535"><ele>305.0</ele><time>2026-04-18T13:11:45.999Z</time></trkpt><trkpt lat="42.68623506060248" lon="-8.506949472773318"><ele>305.0</ele><time>2026-04-18T13:11:46.999Z</time></trkpt><trkpt lat="42.686108467885674" lon="-8.506881630137393"><ele>305.0</ele><time>2026-04-18T13:11:47.999Z</time></trkpt><trkpt lat="42.68598456550776" lon="-8.5067983299241"><ele>306.5</ele><time>2026-04-18T13:11:48.999Z</time></trkpt><trkpt lat="42.6858482810006" lon="-8.506719600345807"><ele>308.0</ele><time>2026-04-18T13:11:49.999Z</time></trkpt><trkpt lat="42.685727509520596" lon="-8.506636462754365"><ele>309.5</ele><time>2026-04-18T13:11:50.999Z</time></trkpt><trkpt lat="42.68561226900587" lon="-8.506536893375245"><ele>311.0</ele><time>2026-04-18T13:11:51.999Z</time></trkpt><trkpt lat="42.685496208471186" lon="-8.50644441780454"><ele>311.0</ele><time>2026-04-18T13:11:52.999Z</time></trkpt><trkpt lat="42.68539492140443" lon="-8.506325869074042"><ele>311.0</ele><time>2026-04-18T13:11:53.999Z</time></trkpt><trkpt lat="42.685284300119285" lon="-8.50618256568297"><ele>311.0</ele><time>2026-04-18T13:11:54.999Z</time></trkpt><trkpt lat="42.685214064355" lon="-8.506022863790893"><ele>311.0</ele><time>2026-04-18T13:11:55.999Z</time></trkpt><trkpt lat="42.68515258206632" lon="-8.505867945199244"><ele>311.0</ele><time>2026-04-18T13:11:56.999Z</time></trkpt><trkpt lat="42.68508445090953" lon="-8.50566219237728"><ele>311.0</ele><time>2026-04-18T13:11:57.999Z</time></trkpt><trkpt lat="42.68502096212154" lon="-8.505491072264968"><ele>311.0</ele><time>2026-04-18T13:11:58.999Z</time></trkpt><trkpt lat="42.684979400079946" lon="-8.505278627604449"><ele>310.6666666666667</ele><time>2026-04-18T13:11:59.999Z</time></trkpt><trkpt lat="42.68497341841623" lon="-8.505058930671739"><ele>310.3333333333333</ele><time>2026-04-18T13:12:00.999Z</time></trkpt><trkpt lat="42.68498184169015" lon="-8.50485313059731"><ele>310.0</ele><time>2026-04-18T13:12:01.999Z</time></trkpt><trkpt lat="42.685031076844595" lon="-8.504651550527363"><ele>310.0</ele><time>2026-04-18T13:12:02.999Z</time></trkpt><trkpt lat="42.68508880584233" lon="-8.504469403608862"><ele>310.0</ele><time>2026-04-18T13:12:03.999Z</time></trkpt><trkpt lat="42.68515563047702" lon="-8.504280266987715"><ele>310.0</ele><time>2026-04-18T13:12:04.999Z</time></trkpt><trkpt lat="42.68523306578969" lon="-8.504097739242559"><ele>308.5</ele><time>2026-04-18T13:12:05.999Z</time></trkpt><trkpt lat="42.685312880330656" lon="-8.503918085285319"><ele>307.0</ele><time>2026-04-18T13:12:06.999Z</time></trkpt><trkpt lat="42.6853827010426" lon="-8.503745216742379"><ele>305.5</ele><time>2026-04-18T13:12:07.999Z</time></trkpt><trkpt lat="42.685450972654614" lon="-8.503580579525048"><ele>304.0</ele><time>2026-04-18T13:12:08.999Z</time></trkpt><trkpt lat="42.68551115358933" lon="-8.503431128326369"><ele>303.8</ele><time>2026-04-18T13:12:09.999Z</time></trkpt><trkpt lat="42.68557272769091" lon="-8.503286618316771"><ele>303.59999999999997</ele><time>2026-04-18T13:12:10.999Z</time></trkpt><trkpt lat="42.68562328051638" lon="-8.503144397830228"><ele>303.4</ele><time>2026-04-18T13:12:11.999Z</time></trkpt><trkpt lat="42.685663130418035" lon="-8.50301098228165"><ele>303.2</ele><time>2026-04-18T13:12:12.999Z</time></trkpt><trkpt lat="42.68568612991585" lon="-8.502914524472336"><ele>303.0</ele><time>2026-04-18T13:12:13.999Z</time></trkpt><trkpt lat="42.68572976613298" lon="-8.502843732061361"><ele>303.3333333333333</ele><time>2026-04-18T13:12:14.999Z</time></trkpt><trkpt lat="42.685769303881536" lon="-8.502758261851847"><ele>303.6666666666667</ele><time>2026-04-18T13:12:15.999Z</time></trkpt><trkpt lat="42.68581096077056" lon="-8.502668210629032"><ele>304.0</ele><time>2026-04-18T13:12:16.999Z</time></trkpt><trkpt lat="42.685857400102535" lon="-8.502567821045607"><ele>304.33333333333337</ele><time>2026-04-18T13:12:17.999Z</time></trkpt><trkpt lat="42.68590016448589" lon="-8.502444486140568"><ele>304.6666666666667</ele><time>2026-04-18T13:12:18.999Z</time></trkpt><trkpt lat="42.68597272678178" lon="-8.502341165318958"><ele>305.0</ele><time>2026-04-18T13:12:19.999Z</time></trkpt><trkpt lat="42.68604397250839" lon="-8.50221795936131"><ele>304.0</ele><time>2026-04-18T13:12:20.999Z</time></trkpt><trkpt lat="42.68611023639965" lon="-8.50209381232689"><ele>303.0</ele><time>2026-04-18T13:12:21.999Z</time></trkpt><trkpt lat="42.6861725415871" lon="-8.501978431153134"><ele>302.0</ele><time>2026-04-18T13:12:22.999Z</time></trkpt><trkpt lat="42.686246252720565" lon="-8.501841422655605"><ele>301.0</ele><time>2026-04-18T13:12:23.999Z</time></trkpt><trkpt lat="42.686313516969726" lon="-8.501699831472852"><ele>301.0</ele><time>2026-04-18T13:12:24.999Z</time></trkpt><trkpt lat="42.68637966559225" lon="-8.501561447956934"><ele>301.0</ele><time>2026-04-18T13:12:25.999Z</time></trkpt><trkpt lat="42.68644175712566" lon="-8.501429755321858"><ele>301.0</ele><time>2026-04-18T13:12:26.999Z</time></trkpt><trkpt lat="42.68650411956801" lon="-8.501298002441784"><ele>301.0</ele><time>2026-04-18T13:12:27.999Z</time></trkpt><trkpt lat="42.68656391698583" lon="-8.5011793870931"><ele>302.5</ele><time>2026-04-18T13:12:28.999Z</time></trkpt><trkpt lat="42.68662426094631" lon="-8.501061186574232"><ele>304.0</ele><time>2026-04-18T13:12:29.999Z</time></trkpt><trkpt lat="42.686682988118825" lon="-8.50093560541604"><ele>305.5</ele><time>2026-04-18T13:12:31Z</time></trkpt><trkpt lat="42.686743355049614" lon="-8.50079577645677"><ele>307.0</ele><time>2026-04-18T13:12:32Z</time></trkpt><trkpt lat="42.68680670063212" lon="-8.500649853383129"><ele>307.0</ele><time>2026-04-18T13:12:33Z</time></trkpt><trkpt lat="42.686872014908104" lon="-8.500506153886132"><ele>307.0</ele><time>2026-04-18T13:12:34Z</time></trkpt><trkpt lat="42.686933300998724" lon="-8.500367554494362"><ele>307.0</ele><time>2026-04-18T13:12:35Z</time></trkpt><trkpt lat="42.68699811091998" lon="-8.500225018545747"><ele>307.0</ele><time>2026-04-18T13:12:36Z</time></trkpt><trkpt lat="42.68706894265964" lon="-8.500084124319704"><ele>307.5</ele><time>2026-04-18T13:12:37Z</time></trkpt><trkpt lat="42.687136833969966" lon="-8.49994905227397"><ele>308.0</ele><time>2026-04-18T13:12:38Z</time></trkpt><trkpt lat="42.68720222242831" lon="-8.499818831355443"><ele>308.5</ele><time>2026-04-18T13:12:39Z</time></trkpt><trkpt lat="42.687266000220774" lon="-8.49969172972643"><ele>309.0</ele><time>2026-04-18T13:12:40Z</time></trkpt><trkpt lat="42.68732951716378" lon="-8.499572575600835"><ele>309.0</ele><time>2026-04-18T13:12:41Z</time></trkpt><trkpt lat="42.6873895298844" lon="-8.49945256796949"><ele>309.0</ele><time>2026-04-18T13:12:42Z</time></trkpt><trkpt lat="42.68744776374116" lon="-8.499357001128228"><ele>309.0</ele><time>2026-04-18T13:12:43Z</time></trkpt><trkpt lat="42.68751093347979" lon="-8.499222013824372"><ele>309.0</ele><time>2026-04-18T13:12:44Z</time></trkpt><trkpt lat="42.6875777403066" lon="-8.499088685973952"><ele>309.0</ele><time>2026-04-18T13:12:45Z</time></trkpt><trkpt lat="42.687636846876856" lon="-8.498959139779892"><ele>309.0</ele><time>2026-04-18T13:12:46Z</time></trkpt><trkpt lat="42.68769512044534" lon="-8.498830593447163"><ele>309.0</ele><time>2026-04-18T13:12:47Z</time></trkpt><trkpt lat="42.68776251550378" lon="-8.498686349132395"><ele>309.0</ele><time>2026-04-18T13:12:48Z</time></trkpt><trkpt lat="42.68782381230735" lon="-8.498531679042877"><ele>309.0</ele><time>2026-04-18T13:12:49Z</time></trkpt><trkpt lat="42.68788489814157" lon="-8.49837915591623"><ele>309.25</ele><time>2026-04-18T13:12:50Z</time></trkpt><trkpt lat="42.687933086602875" lon="-8.498225914417567"><ele>309.5</ele><time>2026-04-18T13:12:51Z</time></trkpt><trkpt lat="42.687977966712424" lon="-8.498068923084025"><ele>309.75</ele><time>2026-04-18T13:12:52Z</time></trkpt><trkpt lat="42.68801138815619" lon="-8.497913235319974"><ele>310.0</ele><time>2026-04-18T13:12:53Z</time></trkpt><trkpt lat="42.6880405126451" lon="-8.497750719994082"><ele>310.0</ele><time>2026-04-18T13:12:54Z</time></trkpt><trkpt lat="42.68806511226122" lon="-8.497596771426691"><ele>310.0</ele><time>2026-04-18T13:12:55Z</time></trkpt><trkpt lat="42.688084639645275" lon="-8.497440276776805"><ele>310.0</ele><time>2026-04-18T13:12:56Z</time></trkpt><trkpt lat="42.68810074911532" lon="-8.497288821680304"><ele>310.0</ele><time>2026-04-18T13:12:57Z</time></trkpt><trkpt lat="42.6881217659347" lon="-8.49712854756871"><ele>310.6</ele><time>2026-04-18T13:12:58Z</time></trkpt><trkpt lat="42.688137200167866" lon="-8.496973122134145"><ele>311.2</ele><time>2026-04-18T13:12:59Z</time></trkpt><trkpt lat="42.68815015537658" lon="-8.496847246471763"><ele>311.8</ele><time>2026-04-18T13:13:00Z</time></trkpt><trkpt lat="42.68815876204966" lon="-8.496723390275115"><ele>312.4</ele><time>2026-04-18T13:13:01Z</time></trkpt><trkpt lat="42.68816226097761" lon="-8.496609743895318"><ele>313.0</ele><time>2026-04-18T13:13:02Z</time></trkpt><trkpt lat="42.688144333280476" lon="-8.496488615566925"><ele>313.0</ele><time>2026-04-18T13:13:04Z</time></trkpt><trkpt lat="42.6881558914201" lon="-8.496395882832756"><ele>313.0</ele><time>2026-04-18T13:13:10Z</time></trkpt><trkpt lat="42.68817269401268" lon="-8.496299364485873"><ele>313.0</ele><time>2026-04-18T13:13:24Z</time></trkpt><trkpt lat="42.688180610127176" lon="-8.496201327100422"><ele>313.0</ele><time>2026-04-18T13:13:26Z</time></trkpt><trkpt lat="42.68819098799356" lon="-8.49606060933317"><ele>313.0</ele><time>2026-04-18T13:13:28Z</time></trkpt><trkpt lat="42.68818772708008" lon="-8.495950073614347"><ele>313.0</ele><time>2026-04-18T13:13:29Z</time></trkpt><trkpt lat="42.68818667571389" lon="-8.495829336210354"><ele>313.0</ele><time>2026-04-18T13:13:30Z</time></trkpt><trkpt lat="42.68818908122667" lon="-8.495712468595306"><ele>313.0</ele><time>2026-04-18T13:13:31Z</time></trkpt><trkpt lat="42.688192775274125" lon="-8.495585799687715"><ele>313.0</ele><time>2026-04-18T13:13:32Z</time></trkpt><trkpt lat="42.68819477134707" lon="-8.49543855501651"><ele>313.0</ele><time>2026-04-18T13:13:33Z</time></trkpt><trkpt lat="42.688197105601986" lon="-8.495286188787778"><ele>313.0</ele><time>2026-04-18T13:13:34Z</time></trkpt><trkpt lat="42.688199318237594" lon="-8.495128377232914"><ele>313.0</ele><time>2026-04-18T13:13:35Z</time></trkpt><trkpt lat="42.688200815069344" lon="-8.494964670563272"><ele>313.0</ele><time>2026-04-18T13:13:36Z</time></trkpt><trkpt lat="42.688196811956466" lon="-8.494797390701887"><ele>313.0</ele><time>2026-04-18T13:13:37Z</time></trkpt><trkpt lat="42.68818605639069" lon="-8.49463638206808"><ele>313.0</ele><time>2026-04-18T13:13:38Z</time></trkpt><trkpt lat="42.68816827140462" lon="-8.494470103658164"><ele>313.0</ele><time>2026-04-18T13:13:39Z</time></trkpt><trkpt lat="42.68816067092288" lon="-8.494310645310687"><ele>313.0</ele><time>2026-04-18T13:13:40Z</time></trkpt><trkpt lat="42.688171239264065" lon="-8.494140475429028"><ele>313.0</ele><time>2026-04-18T13:13:41Z</time></trkpt><trkpt lat="42.6881869436024" lon="-8.493936917374217"><ele>313.0</ele><time>2026-04-18T13:13:42Z</time></trkpt><trkpt lat="42.68818740383767" lon="-8.49376294764455"><ele>313.0</ele><time>2026-04-18T13:13:43Z</time></trkpt><trkpt lat="42.68818913334712" lon="-8.493576246040154"><ele>313.0</ele><time>2026-04-18T13:13:44Z</time></trkpt><trkpt lat="42.688199102758965" lon="-8.49339784987988"><ele>313.0</ele><time>2026-04-18T13:13:45Z</time></trkpt><trkpt lat="42.688207795419906" lon="-8.493214503541317"><ele>313.0</ele><time>2026-04-18T13:13:46Z</time></trkpt><trkpt lat="42.688205222967476" lon="-8.4930266954844"><ele>311.5</ele><time>2026-04-18T13:13:47Z</time></trkpt><trkpt lat="42.68821462459512" lon="-8.492859149855674"><ele>310.0</ele><time>2026-04-18T13:13:48Z</time></trkpt><trkpt lat="42.6882114165552" lon="-8.492681275319187"><ele>308.5</ele><time>2026-04-18T13:13:49Z</time></trkpt><trkpt lat="42.68821431255918" lon="-8.492505734087988"><ele>307.0</ele><time>2026-04-18T13:13:50Z</time></trkpt><trkpt lat="42.68820708431183" lon="-8.49238969274704"><ele>307.0</ele><time>2026-04-18T13:13:51Z</time></trkpt><trkpt lat="42.68821758873228" lon="-8.492279772389429"><ele>307.0</ele><time>2026-04-18T13:13:52Z</time></trkpt><trkpt lat="42.688217004735165" lon="-8.492156587936002"><ele>307.0</ele><time>2026-04-18T13:13:53Z</time></trkpt><trkpt lat="42.68820952186943" lon="-8.49206807137843"><ele>307.0</ele><time>2026-04-18T13:13:54Z</time></trkpt><trkpt lat="42.68821003895804" lon="-8.491941848906212"><ele>307.0</ele><time>2026-04-18T13:13:57Z</time></trkpt><trkpt lat="42.68822689401171" lon="-8.491810823963805"><ele>307.0</ele><time>2026-04-18T13:13:59Z</time></trkpt><trkpt lat="42.68820778207948" lon="-8.491692656858143"><ele>306.0</ele><time>2026-04-18T13:14:01Z</time></trkpt><trkpt lat="42.68819885962334" lon="-8.491581302037078"><ele>305.0</ele><time>2026-04-18T13:14:03Z</time></trkpt><trkpt lat="42.68817094669232" lon="-8.491459095640614"><ele>304.0</ele><time>2026-04-18T13:14:31Z</time></trkpt><trkpt lat="42.68817356316006" lon="-8.491352492304916"><ele>303.0</ele><time>2026-04-18T13:14:33Z</time></trkpt><trkpt lat="42.68818084693142" lon="-8.491215624700082"><ele>302.0</ele><time>2026-04-18T13:14:35Z</time></trkpt><trkpt lat="42.68818315151064" lon="-8.491122054352592"><ele>301.0</ele><time>2026-04-18T13:14:36Z</time></trkpt><trkpt lat="42.68819220355257" lon="-8.491023280436584"><ele>300.6</ele><time>2026-04-18T13:14:37Z</time></trkpt><trkpt lat="42.68819794328256" lon="-8.490913529863532"><ele>300.20000000000005</ele><time>2026-04-18T13:14:38Z</time></trkpt><trkpt lat="42.68820091307161" lon="-8.490788114063111"><ele>299.79999999999995</ele><time>2026-04-18T13:14:39Z</time></trkpt><trkpt lat="42.688202766054964" lon="-8.490659691798585"><ele>299.4</ele><time>2026-04-18T13:14:40Z</time></trkpt><trkpt lat="42.688207468995785" lon="-8.490529638395133"><ele>299.0</ele><time>2026-04-18T13:14:41Z</time></trkpt><trkpt lat="42.68821195943383" lon="-8.490393099694364"><ele>299.0</ele><time>2026-04-18T13:14:42Z</time></trkpt><trkpt lat="42.68821296300211" lon="-8.490261595006555"><ele>299.0</ele><time>2026-04-18T13:14:43Z</time></trkpt><trkpt lat="42.688211726835014" lon="-8.490133180553501"><ele>299.0</ele><time>2026-04-18T13:14:44Z</time></trkpt><trkpt lat="42.68821786584356" lon="-8.490028445897446"><ele>299.0</ele><time>2026-04-18T13:14:45Z</time></trkpt><trkpt lat="42.68821601811618" lon="-8.48993287956775"><ele>299.0</ele><time>2026-04-18T13:14:46Z</time></trkpt><trkpt lat="42.688206900481966" lon="-8.489776538925117"><ele>299.0</ele><time>2026-04-18T13:14:48Z</time></trkpt><trkpt lat="42.68818641139333" lon="-8.489687759750447"><ele>299.0</ele><time>2026-04-18T13:14:50Z</time></trkpt><trkpt lat="42.68816827902198" lon="-8.489603525909365"><ele>299.0</ele><time>2026-04-18T13:15:02Z</time></trkpt><trkpt lat="42.68823667538601" lon="-8.489583646411637"><ele>299.0</ele><time>2026-04-18T13:15:13Z</time></trkpt><trkpt lat="42.688308863023046" lon="-8.489553670514303"><ele>299.0</ele><time>2026-04-18T13:15:20Z</time></trkpt><trkpt lat="42.688371368256774" lon="-8.489498260093795"><ele>299.0</ele><time>2026-04-18T13:15:27Z</time></trkpt><trkpt lat="42.68842162666262" lon="-8.489433744713926"><ele>299.0</ele><time>2026-04-18T13:15:36Z</time></trkpt><trkpt lat="42.68845410664073" lon="-8.48935349444678"><ele>299.1428571428571</ele><time>2026-04-18T13:15:46Z</time></trkpt><trkpt lat="42.6885026221995" lon="-8.489290422725302"><ele>299.2857142857143</ele><time>2026-04-18T13:16:06Z</time></trkpt><trkpt lat="42.688560497349656" lon="-8.489219654313862"><ele>299.42857142857144</ele><time>2026-04-18T13:17:53Z</time></trkpt><trkpt lat="42.688507348817645" lon="-8.48916999621169"><ele>299.57142857142856</ele><time>2026-04-18T13:18:24Z</time></trkpt><trkpt lat="42.68854575269039" lon="-8.489249299306113"><ele>299.7142857142857</ele><time>2026-04-18T13:18:29Z</time></trkpt><trkpt lat="42.68861648477505" lon="-8.489242980613112"><ele>299.85714285714283</ele><time>2026-04-18T13:18:36Z</time></trkpt><trkpt lat="42.68857114162555" lon="-8.489306737046466"><ele>300.0</ele><time>2026-04-18T13:19:40Z</time></trkpt><trkpt lat="42.68850595127952" lon="-8.489312066928573"><ele>299.99999999999994</ele><time>2026-04-18T13:19:45Z</time></trkpt><trkpt lat="42.688468394078576" lon="-8.48938139268127"><ele>300.0</ele><time>2026-04-18T13:19:53Z</time></trkpt><trkpt lat="42.68846224378179" lon="-8.489470132353977"><ele>300.0</ele><time>2026-04-18T13:20:00Z</time></trkpt><trkpt lat="42.68840640298275" lon="-8.489520940161277"><ele>300.0</ele><time>2026-04-18T13:20:06Z</time></trkpt><trkpt lat="42.68837165054121" lon="-8.489599263375931"><ele>300.0</ele><time>2026-04-18T13:20:13Z</time></trkpt><trkpt lat="42.688346704843866" lon="-8.489678662130691"><ele>299.99999999999994</ele><time>2026-04-18T13:20:18Z</time></trkpt><trkpt lat="42.68827886759312" lon="-8.489718903203608"><ele>300.0</ele><time>2026-04-18T13:20:25Z</time></trkpt><trkpt lat="42.68818886380655" lon="-8.489671412460371"><ele>299.0</ele><time>2026-04-18T13:20:30Z</time></trkpt></trkseg></trk></gpx>